<?xml version='1.0' encoding='UTF-8'?><gpx version="1.1" creator="JPX - https://github.com/jenetics/jpx" xmlns="http://www.topografix.com/GPX/1/1"><trk><trkseg><trkpt lat="35.9752510493994" lon="-107.03176051788206"><ele>2091.0</ele><time>2026-05-03T14:43:13Z</time></trkpt><trkpt lat="35.975265663248585" lon="-107.03188173590628"><ele>2091.0</ele><time>2026-05-03T14:50:29.001Z</time></trkpt><trkpt lat="35.97520024543097" lon="-107.03189383255184"><ele>2091.0</ele><time>2026-05-03T14:51:39Z</time></trkpt><trkpt lat="35.97525214534653" lon="-107.03198635662038"><ele>2091.0</ele><time>2026-05-03T14:51:45Z</time></trkpt><trkpt lat="35.975337559915815" lon="-107.03204243037271"><ele>2091.0</ele><time>2026-05-03T14:51:47.001Z</time></trkpt><trkpt lat="35.97542912546117" lon="-107.03210739457383"><ele>2091.0</ele><time>2026-05-03T14:51:49.001Z</time></trkpt><trkpt lat="35.97552645276112" lon="-107.03217734663536"><ele>2091.0</ele><time>2026-05-03T14:51:51.001Z</time></trkpt><trkpt lat="35.97560262544451" lon="-107.0322500813123"><ele>2091.0</ele><time>2026-05-03T14:51:53.001Z</time></trkpt><trkpt lat="35.9756432767974" lon="-107.03239971587713"><ele>2091.0</ele><time>2026-05-03T14:51:56.001Z</time></trkpt><trkpt lat="35.975678775511945" lon="-107.03248960225979"><ele>2091.0</ele><time>2026-05-03T14:51:57.001Z</time></trkpt><trkpt lat="35.97571137829424" lon="-107.03256620226342"><ele>2090.6666666666665</ele><time>2026-05-03T14:51:58.001Z</time></trkpt><trkpt lat="35.975774382998495" lon="-107.03270517325925"><ele>2090.3333333333335</ele><time>2026-05-03T14:52:00.001Z</time></trkpt><trkpt lat="35.975801053837536" lon="-107.03279899705655"><ele>2090.0</ele><time>2026-05-03T14:52:01.001Z</time></trkpt><trkpt lat="35.97581989862613" lon="-107.0329005400356"><ele>2089.666666666667</ele><time>2026-05-03T14:52:02.001Z</time></trkpt><trkpt lat="35.97582314781994" lon="-107.03298425939761"><ele>2089.3333333333335</ele><time>2026-05-03T14:52:03.001Z</time></trkpt><trkpt lat="35.97582238685786" lon="-107.03308103069956"><ele>2089.0</ele><time>2026-05-03T14:52:04.001Z</time></trkpt><trkpt lat="35.97581911506718" lon="-107.03318423473341"><ele>2089.0</ele><time>2026-05-03T14:52:05.001Z</time></trkpt><trkpt lat="35.97581260943312" lon="-107.03329464982014"><ele>2089.0</ele><time>2026-05-03T14:52:06.001Z</time></trkpt><trkpt lat="35.97580403701107" lon="-107.03340420207053"><ele>2089.0</ele><time>2026-05-03T14:52:07.001Z</time></trkpt><trkpt lat="35.975797443081795" lon="-107.03349643517964"><ele>2089.0</ele><time>2026-05-03T14:52:08.001Z</time></trkpt><trkpt lat="35.97574649368537" lon="-107.03364835182671"><ele>2089.0</ele><time>2026-05-03T14:52:10.001Z</time></trkpt><trkpt lat="35.97572002023659" lon="-107.03374443605155"><ele>2089.0</ele><time>2026-05-03T14:52:11.001Z</time></trkpt><trkpt lat="35.97569144942882" lon="-107.03383947054375"><ele>2089.0</ele><time>2026-05-03T14:52:12.001Z</time></trkpt><trkpt lat="35.97564578765174" lon="-107.03393331615833"><ele>2089.0</ele><time>2026-05-03T14:52:13.001Z</time></trkpt><trkpt lat="35.975593607266475" lon="-107.03403555871277"><ele>2089.0</ele><time>2026-05-03T14:52:14.001Z</time></trkpt><trkpt lat="35.97555371556561" lon="-107.03411583787029"><ele>2089.0</ele><time>2026-05-03T14:52:15.001Z</time></trkpt><trkpt lat="35.97552042953299" lon="-107.03419544056251"><ele>2089.0</ele><time>2026-05-03T14:52:16.001Z</time></trkpt><trkpt lat="35.975485286018916" lon="-107.03427456757649"><ele>2088.6</ele><time>2026-05-03T14:52:17.001Z</time></trkpt><trkpt lat="35.97543242289751" lon="-107.03438686268672"><ele>2088.2</ele><time>2026-05-03T14:52:19.001Z</time></trkpt><trkpt lat="35.975398735142335" lon="-107.03447236116048"><ele>2087.7999999999997</ele><time>2026-05-03T14:52:21.001Z</time></trkpt><trkpt lat="35.97531706407598" lon="-107.03455327041222"><ele>2087.4</ele><time>2026-05-03T14:52:23.001Z</time></trkpt><trkpt lat="35.975232491271065" lon="-107.034676708921"><ele>2087.0</ele><time>2026-05-03T14:52:25.001Z</time></trkpt><trkpt lat="35.975183851682814" lon="-107.03474169514101"><ele>2087.0</ele><time>2026-05-03T14:52:26.001Z</time></trkpt><trkpt lat="35.975155046742756" lon="-107.03481333392838"><ele>2087.0</ele><time>2026-05-03T14:52:27.001Z</time></trkpt><trkpt lat="35.97512483324529" lon="-107.03488798254659"><ele>2087.0</ele><time>2026-05-03T14:52:28.001Z</time></trkpt><trkpt lat="35.97509522750832" lon="-107.03496690437838"><ele>2087.0</ele><time>2026-05-03T14:52:29.001Z</time></trkpt><trkpt lat="35.97506485681792" lon="-107.03504587696354"><ele>2087.0</ele><time>2026-05-03T14:52:30.001Z</time></trkpt><trkpt lat="35.975037624406404" lon="-107.03512462266514"><ele>2087.0</ele><time>2026-05-03T14:52:31.001Z</time></trkpt><trkpt lat="35.97498232322888" lon="-107.03525890332074"><ele>2086.833333333333</ele><time>2026-05-03T14:52:33.001Z</time></trkpt><trkpt lat="35.974968945085365" lon="-107.03534199898314"><ele>2086.6666666666665</ele><time>2026-05-03T14:52:34.001Z</time></trkpt><trkpt lat="35.974951048971384" lon="-107.0354248399457"><ele>2086.5</ele><time>2026-05-03T14:52:35.001Z</time></trkpt><trkpt lat="35.974932081360116" lon="-107.0355067223431"><ele>2086.3333333333335</ele><time>2026-05-03T14:52:36.001Z</time></trkpt><trkpt lat="35.97490422068186" lon="-107.03565750430884"><ele>2086.166666666667</ele><time>2026-05-03T14:52:38.001Z</time></trkpt><trkpt lat="35.974899011085704" lon="-107.03573923359488"><ele>2086.0</ele><time>2026-05-03T14:52:39Z</time></trkpt><trkpt lat="35.97487325349183" lon="-107.03582219814105"><ele>2085.666666666667</ele><time>2026-05-03T14:52:40Z</time></trkpt><trkpt lat="35.974838989634705" lon="-107.03591125485985"><ele>2085.3333333333335</ele><time>2026-05-03T14:52:41Z</time></trkpt><trkpt lat="35.97480165693249" lon="-107.03600221493525"><ele>2085.0</ele><time>2026-05-03T14:52:42Z</time></trkpt><trkpt lat="35.97477630461376" lon="-107.03608279393114"><ele>2084.6666666666665</ele><time>2026-05-03T14:52:43Z</time></trkpt><trkpt lat="35.97476006135901" lon="-107.03616955707356"><ele>2084.333333333333</ele><time>2026-05-03T14:52:44Z</time></trkpt><trkpt lat="35.97475720212052" lon="-107.03627008171861"><ele>2084.0</ele><time>2026-05-03T14:52:45Z</time></trkpt><trkpt lat="35.97476407379819" lon="-107.03636276433565"><ele>2084.0</ele><time>2026-05-03T14:52:46Z</time></trkpt><trkpt lat="35.97478369934538" lon="-107.03651081063047"><ele>2084.0</ele><time>2026-05-03T14:52:48Z</time></trkpt><trkpt lat="35.97480757650345" lon="-107.03658478062529"><ele>2084.0</ele><time>2026-05-03T14:52:49Z</time></trkpt><trkpt lat="35.97482184022482" lon="-107.03666630118893"><ele>2084.0</ele><time>2026-05-03T14:52:50Z</time></trkpt><trkpt lat="35.97482483763188" lon="-107.0368264332587"><ele>2084.0</ele><time>2026-05-03T14:52:52Z</time></trkpt><trkpt lat="35.97483847865453" lon="-107.03693899857316"><ele>2084.0</ele><time>2026-05-03T14:52:54Z</time></trkpt><trkpt lat="35.97490314221847" lon="-107.03705349677169"><ele>2084.0</ele><time>2026-05-03T14:52:56Z</time></trkpt><trkpt lat="35.97499946553277" lon="-107.03712182494122"><ele>2084.0</ele><time>2026-05-03T14:52:58Z</time></trkpt><trkpt lat="35.97505397902508" lon="-107.03716351297213"><ele>2084.0</ele><time>2026-05-03T14:52:59Z</time></trkpt><trkpt lat="35.97510887969449" lon="-107.0372077459784"><ele>2084.0</ele><time>2026-05-03T14:53:00Z</time></trkpt><trkpt lat="35.97519927039999" lon="-107.03729763037285"><ele>2084.0</ele><time>2026-05-03T14:53:02Z</time></trkpt><trkpt lat="35.975258723393" lon="-107.03740481463798"><ele>2084.0</ele><time>2026-05-03T14:53:04Z</time></trkpt><trkpt lat="35.97532908089909" lon="-107.03747736577043"><ele>2084.0</ele><time>2026-05-03T14:53:07Z</time></trkpt><trkpt lat="35.97539272093938" lon="-107.03750502282536"><ele>2084.0</ele><time>2026-05-03T14:53:09Z</time></trkpt><trkpt lat="35.975454612681126" lon="-107.0375571292042"><ele>2084.0</ele><time>2026-05-03T14:53:12Z</time></trkpt><trkpt lat="35.975537205611225" lon="-107.03759509335983"><ele>2084.0</ele><time>2026-05-03T14:53:15Z</time></trkpt><trkpt lat="35.975619239271545" lon="-107.03762549357472"><ele>2083.833333333333</ele><time>2026-05-03T14:53:18Z</time></trkpt><trkpt lat="35.9756849287193" lon="-107.03766096262677"><ele>2083.6666666666665</ele><time>2026-05-03T14:53:23Z</time></trkpt><trkpt lat="35.975761350967446" lon="-107.03775054747857"><ele>2083.5</ele><time>2026-05-03T14:53:25Z</time></trkpt><trkpt lat="35.975813488584215" lon="-107.03783470865793"><ele>2083.3333333333335</ele><time>2026-05-03T14:53:28Z</time></trkpt><trkpt lat="35.97584520644739" lon="-107.03791292904724"><ele>2083.166666666667</ele><time>2026-05-03T14:53:31Z</time></trkpt><trkpt lat="35.97587477699711" lon="-107.03799031310733"><ele>2083.0</ele><time>2026-05-03T14:53:34Z</time></trkpt><trkpt lat="35.975853468320246" lon="-107.03806511245318"><ele>2083.0</ele><time>2026-05-03T15:07:10.001Z</time></trkpt><trkpt lat="35.97576852148452" lon="-107.03819944818011"><ele>2083.0</ele><time>2026-05-03T15:07:12.001Z</time></trkpt><trkpt lat="35.975677689785584" lon="-107.03827924699908"><ele>2083.0</ele><time>2026-05-03T15:07:13.001Z</time></trkpt><trkpt lat="35.9755773376631" lon="-107.03838019078745"><ele>2083.0</ele><time>2026-05-03T15:07:14.001Z</time></trkpt><trkpt lat="35.97549984771271" lon="-107.03848809110373"><ele>2082.8333333333335</ele><time>2026-05-03T15:07:15.001Z</time></trkpt><trkpt lat="35.975423261971876" lon="-107.0385731946608"><ele>2082.666666666667</ele><time>2026-05-03T15:07:16.001Z</time></trkpt><trkpt lat="35.97534765463605" lon="-107.03865145543305"><ele>2082.5</ele><time>2026-05-03T15:07:17.001Z</time></trkpt><trkpt lat="35.97529345465133" lon="-107.03871673566837"><ele>2082.3333333333335</ele><time>2026-05-03T15:07:18.001Z</time></trkpt><trkpt lat="35.975245112536676" lon="-107.03877765844824"><ele>2082.1666666666665</ele><time>2026-05-03T15:07:19.001Z</time></trkpt><trkpt lat="35.975190934995" lon="-107.03884545027545"><ele>2082.0</ele><time>2026-05-03T15:07:20.001Z</time></trkpt><trkpt lat="35.975116512469874" lon="-107.03894795779959"><ele>2082.0</ele><time>2026-05-03T15:07:21Z</time></trkpt><trkpt lat="35.975046409558935" lon="-107.03903743560005"><ele>2082.0</ele><time>2026-05-03T15:07:22Z</time></trkpt><trkpt lat="35.974979406642916" lon="-107.03912473706255"><ele>2082.0</ele><time>2026-05-03T15:07:23Z</time></trkpt><trkpt lat="35.974923947907946" lon="-107.03919693247563"><ele>2082.0</ele><time>2026-05-03T15:07:24Z</time></trkpt><trkpt lat="35.97487356861456" lon="-107.03925082428441"><ele>2082.0</ele><time>2026-05-03T15:07:25Z</time></trkpt><trkpt lat="35.97480938629592" lon="-107.03931425157462"><ele>2082.0</ele><time>2026-05-03T15:07:26Z</time></trkpt><trkpt lat="35.974738704852804" lon="-107.03939923645686"><ele>2081.4</ele><time>2026-05-03T15:07:27Z</time></trkpt><trkpt lat="35.97469199802141" lon="-107.03946540448614"><ele>2080.7999999999997</ele><time>2026-05-03T15:07:28Z</time></trkpt><trkpt lat="35.97459918359489" lon="-107.03957791088698"><ele>2080.2</ele><time>2026-05-03T15:07:30Z</time></trkpt><trkpt lat="35.97455665426021" lon="-107.0396594598758"><ele>2079.6</ele><time>2026-05-03T15:07:31Z</time></trkpt><trkpt lat="35.97453432285332" lon="-107.03977628964144"><ele>2079.0</ele><time>2026-05-03T15:07:32Z</time></trkpt><trkpt lat="35.97454249390253" lon="-107.03989836306546"><ele>2079.6</ele><time>2026-05-03T15:07:33Z</time></trkpt><trkpt lat="35.97457257846175" lon="-107.04000618576278"><ele>2080.2</ele><time>2026-05-03T15:07:34Z</time></trkpt><trkpt lat="35.97461061688573" lon="-107.04009096095382"><ele>2080.7999999999997</ele><time>2026-05-03T15:07:35Z</time></trkpt><trkpt lat="35.974651100684596" lon="-107.04017609428446"><ele>2081.4</ele><time>2026-05-03T15:07:36Z</time></trkpt><trkpt lat="35.97469057258124" lon="-107.04031016744702"><ele>2082.0</ele><time>2026-05-03T15:07:42Z</time></trkpt><trkpt lat="35.97473267223542" lon="-107.04040920708259"><ele>2082.0</ele><time>2026-05-03T15:07:43Z</time></trkpt><trkpt lat="35.97477453081018" lon="-107.04047791662406"><ele>2082.0</ele><time>2026-05-03T15:07:44Z</time></trkpt><trkpt lat="35.97485291362982" lon="-107.0405436546265"><ele>2082.0</ele><time>2026-05-03T15:07:46Z</time></trkpt><trkpt lat="35.97493691887219" lon="-107.04063091259098"><ele>2082.0</ele><time>2026-05-03T15:07:48Z</time></trkpt><trkpt lat="35.974976712318494" lon="-107.04073466817631"><ele>2082.0</ele><time>2026-05-03T15:07:50Z</time></trkpt><trkpt lat="35.97500701439967" lon="-107.04081663150612"><ele>2082.0</ele><time>2026-05-03T15:07:51Z</time></trkpt><trkpt lat="35.97504311533114" lon="-107.04093786239986"><ele>2082.0</ele><time>2026-05-03T15:07:52Z</time></trkpt><trkpt lat="35.97510369341416" lon="-107.04109413155264"><ele>2082.0</ele><time>2026-05-03T15:07:53Z</time></trkpt><trkpt lat="35.97515933666751" lon="-107.04123421013925"><ele>2082.0</ele><time>2026-05-03T15:07:54Z</time></trkpt><trkpt lat="35.97520921789706" lon="-107.0413530781256"><ele>2082.0</ele><time>2026-05-03T15:07:55Z</time></trkpt><trkpt lat="35.975271625259076" lon="-107.04149381515651"><ele>2081.6</ele><time>2026-05-03T15:07:56Z</time></trkpt><trkpt lat="35.975336912005105" lon="-107.04163927476235"><ele>2081.2</ele><time>2026-05-03T15:07:57Z</time></trkpt><trkpt lat="35.975396861982816" lon="-107.04177907309791"><ele>2080.8</ele><time>2026-05-03T15:07:58Z</time></trkpt><trkpt lat="35.97544637402361" lon="-107.04187553082272"><ele>2080.4</ele><time>2026-05-03T15:07:59Z</time></trkpt><trkpt lat="35.975495587269705" lon="-107.0419578337571"><ele>2080.0</ele><time>2026-05-03T15:08:00Z</time></trkpt><trkpt lat="35.97555687036071" lon="-107.04205297594524"><ele>2080.0</ele><time>2026-05-03T15:08:01Z</time></trkpt><trkpt lat="35.97561647183186" lon="-107.04213639941966"><ele>2080.0</ele><time>2026-05-03T15:08:02Z</time></trkpt><trkpt lat="35.97566831287108" lon="-107.04221354903099"><ele>2080.0</ele><time>2026-05-03T15:08:03Z</time></trkpt><trkpt lat="35.975729561014894" lon="-107.04232426511456"><ele>2080.0</ele><time>2026-05-03T15:08:05Z</time></trkpt><trkpt lat="35.97580419136156" lon="-107.04236916375947"><ele>2080.0</ele><time>2026-05-03T15:08:08Z</time></trkpt><trkpt lat="35.97587509274815" lon="-107.04241945838527"><ele>2080.0</ele><time>2026-05-03T15:08:27Z</time></trkpt><trkpt lat="35.975926753236266" lon="-107.04253789386932"><ele>2080.5</ele><time>2026-05-03T15:08:34.001Z</time></trkpt><trkpt lat="35.975974899413" lon="-107.04264268131999"><ele>2081.0</ele><time>2026-05-03T15:08:35.001Z</time></trkpt><trkpt lat="35.97604750051528" lon="-107.0427655954025"><ele>2081.5</ele><time>2026-05-03T15:08:36.001Z</time></trkpt><trkpt lat="35.97611871542934" lon="-107.04288299293957"><ele>2082.0</ele><time>2026-05-03T15:08:37.001Z</time></trkpt><trkpt lat="35.97618565392259" lon="-107.04299923911248"><ele>2082.0</ele><time>2026-05-03T15:08:38.001Z</time></trkpt><trkpt lat="35.97627880243074" lon="-107.04312408312072"><ele>2082.0</ele><time>2026-05-03T15:08:39.001Z</time></trkpt><trkpt lat="35.97639824586572" lon="-107.04326138680088"><ele>2082.0</ele><time>2026-05-03T15:08:40.001Z</time></trkpt><trkpt lat="35.97651386017254" lon="-107.04335941846676"><ele>2082.0</ele><time>2026-05-03T15:08:41.001Z</time></trkpt><trkpt lat="35.97663429196348" lon="-107.04346300639152"><ele>2082.4</ele><time>2026-05-03T15:08:42.001Z</time></trkpt><trkpt lat="35.97671808418734" lon="-107.0435468212475"><ele>2082.7999999999997</ele><time>2026-05-03T15:08:43.001Z</time></trkpt><trkpt lat="35.976773625012974" lon="-107.04361813750072"><ele>2083.2</ele><time>2026-05-03T15:08:44.001Z</time></trkpt><trkpt lat="35.976826112689004" lon="-107.04367757111137"><ele>2083.6</ele><time>2026-05-03T15:08:45.001Z</time></trkpt><trkpt lat="35.97689863027685" lon="-107.04374662081021"><ele>2084.0</ele><time>2026-05-03T15:08:46.001Z</time></trkpt><trkpt lat="35.97697700956175" lon="-107.04383512091724"><ele>2084.0</ele><time>2026-05-03T15:08:47.001Z</time></trkpt><trkpt lat="35.97703332552753" lon="-107.04390310443502"><ele>2084.0</ele><time>2026-05-03T15:08:48.001Z</time></trkpt><trkpt lat="35.9770750549809" lon="-107.04398724700185"><ele>2084.0</ele><time>2026-05-03T15:08:49.001Z</time></trkpt><trkpt lat="35.97713340827824" lon="-107.04411118419029"><ele>2084.0</ele><time>2026-05-03T15:08:50.001Z</time></trkpt><trkpt lat="35.977192558629454" lon="-107.04424810081227"><ele>2084.0</ele><time>2026-05-03T15:08:51.001Z</time></trkpt><trkpt lat="35.97724470176113" lon="-107.04435856247073"><ele>2083.8</ele><time>2026-05-03T15:08:52.001Z</time></trkpt><trkpt lat="35.97727953414746" lon="-107.04444474818641"><ele>2083.6000000000004</ele><time>2026-05-03T15:08:53.001Z</time></trkpt><trkpt lat="35.97729716876423" lon="-107.04454862785512"><ele>2083.4</ele><time>2026-05-03T15:08:54.001Z</time></trkpt><trkpt lat="35.977290737338414" lon="-107.0446524996974"><ele>2083.2000000000003</ele><time>2026-05-03T15:08:55.001Z</time></trkpt><trkpt lat="35.977327672887725" lon="-107.0447922745316"><ele>2083.0</ele><time>2026-05-03T15:08:57.001Z</time></trkpt><trkpt lat="35.97737695515211" lon="-107.04489234940911"><ele>2083.2000000000003</ele><time>2026-05-03T15:08:58.001Z</time></trkpt><trkpt lat="35.97741761503644" lon="-107.04496668661446"><ele>2083.4</ele><time>2026-05-03T15:08:59.001Z</time></trkpt><trkpt lat="35.977491526874644" lon="-107.045121752791"><ele>2083.6000000000004</ele><time>2026-05-03T15:09:01.001Z</time></trkpt><trkpt lat="35.97751978714218" lon="-107.0452099217579"><ele>2083.8</ele><time>2026-05-03T15:09:02.001Z</time></trkpt><trkpt lat="35.97753937960068" lon="-107.04534092068211"><ele>2084.0</ele><time>2026-05-03T15:09:04.001Z</time></trkpt><trkpt lat="35.977536068359036" lon="-107.04550149469247"><ele>2084.6</ele><time>2026-05-03T15:09:06.001Z</time></trkpt><trkpt lat="35.977534045477796" lon="-107.04559734530021"><ele>2085.2</ele><time>2026-05-03T15:09:08.001Z</time></trkpt><trkpt lat="35.97752714355895" lon="-107.04569773751759"><ele>2085.7999999999997</ele><time>2026-05-03T15:09:10.001Z</time></trkpt><trkpt lat="35.977525038658186" lon="-107.04582344489896"><ele>2086.4</ele><time>2026-05-03T15:09:12.001Z</time></trkpt><trkpt lat="35.977552405375754" lon="-107.04598740187446"><ele>2087.0</ele><time>2026-05-03T15:09:14.001Z</time></trkpt><trkpt lat="35.97761342381218" lon="-107.04604944367539"><ele>2087.25</ele><time>2026-05-03T15:09:15.001Z</time></trkpt><trkpt lat="35.977663139673446" lon="-107.04612085531251"><ele>2087.5</ele><time>2026-05-03T15:09:16.001Z</time></trkpt><trkpt lat="35.977745097333276" lon="-107.04619397538103"><ele>2087.75</ele><time>2026-05-03T15:09:17.001Z</time></trkpt><trkpt lat="35.977864515867864" lon="-107.04632648149723"><ele>2088.0</ele><time>2026-05-03T15:09:18.001Z</time></trkpt><trkpt lat="35.977965931652605" lon="-107.04644653179216"><ele>2088.0</ele><time>2026-05-03T15:09:19.001Z</time></trkpt><trkpt lat="35.97804039281405" lon="-107.04656370271063"><ele>2088.0</ele><time>2026-05-03T15:09:20.001Z</time></trkpt><trkpt lat="35.978081395312934" lon="-107.04662745664284"><ele>2088.0</ele><time>2026-05-03T15:09:21.001Z</time></trkpt><trkpt lat="35.97813635787947" lon="-107.0467316357533"><ele>2088.0</ele><time>2026-05-03T15:09:22.001Z</time></trkpt><trkpt lat="35.97818812324804" lon="-107.04683018911452"><ele>2088.0</ele><time>2026-05-03T15:09:23.001Z</time></trkpt><trkpt lat="35.97824521258474" lon="-107.04693465808022"><ele>2088.0</ele><time>2026-05-03T15:09:24.001Z</time></trkpt><trkpt lat="35.97832035559649" lon="-107.0470662139646"><ele>2088.0</ele><time>2026-05-03T15:09:25.001Z</time></trkpt><trkpt lat="35.978407810702194" lon="-107.0472244746697"><ele>2088.0</ele><time>2026-05-03T15:09:26Z</time></trkpt><trkpt lat="35.97845974822723" lon="-107.04734699614336"><ele>2088.0</ele><time>2026-05-03T15:09:27Z</time></trkpt><trkpt lat="35.97850578820588" lon="-107.04743625666995"><ele>2087.6</ele><time>2026-05-03T15:09:28Z</time></trkpt><trkpt lat="35.97853657398204" lon="-107.0475156789465"><ele>2087.2000000000003</ele><time>2026-05-03T15:09:29Z</time></trkpt><trkpt lat="35.978563421152515" lon="-107.04758719798629"><ele>2086.8</ele><time>2026-05-03T15:09:30Z</time></trkpt><trkpt lat="35.978619825854096" lon="-107.04770787203614"><ele>2086.4</ele><time>2026-05-03T15:09:32Z</time></trkpt><trkpt lat="35.978754378574834" lon="-107.04774713677824"><ele>2086.0</ele><time>2026-05-03T15:09:34Z</time></trkpt><trkpt lat="35.97886731786341" lon="-107.04775271710002"><ele>2086.0</ele><time>2026-05-03T15:09:35Z</time></trkpt><trkpt lat="35.97901195950585" lon="-107.04768291134408"><ele>2086.0</ele><time>2026-05-03T15:09:36Z</time></trkpt><trkpt lat="35.97916117176231" lon="-107.04761028976895"><ele>2086.0</ele><time>2026-05-03T15:09:37Z</time></trkpt><trkpt lat="35.979316672531425" lon="-107.04753526339364"><ele>2086.666666666667</ele><time>2026-05-03T15:09:38Z</time></trkpt><trkpt lat="35.97948621450925" lon="-107.04746182394462"><ele>2087.3333333333335</ele><time>2026-05-03T15:09:39Z</time></trkpt><trkpt lat="35.979651480790544" lon="-107.04738604231343"><ele>2088.0</ele><time>2026-05-03T15:09:40Z</time></trkpt><trkpt lat="35.97982243161497" lon="-107.04730011882468"><ele>2088.0</ele><time>2026-05-03T15:09:41Z</time></trkpt><trkpt lat="35.979991180753146" lon="-107.04720745513343"><ele>2088.0</ele><time>2026-05-03T15:09:42Z</time></trkpt><trkpt lat="35.98016322162311" lon="-107.04710876808342"><ele>2088.0</ele><time>2026-05-03T15:09:43Z</time></trkpt><trkpt lat="35.98033464114519" lon="-107.04701166451035"><ele>2088.6666666666665</ele><time>2026-05-03T15:09:44Z</time></trkpt><trkpt lat="35.98050661759302" lon="-107.04693181237717"><ele>2089.333333333333</ele><time>2026-05-03T15:09:45Z</time></trkpt><trkpt lat="35.98067091523275" lon="-107.0468678747329"><ele>2090.0</ele><time>2026-05-03T15:09:46Z</time></trkpt><trkpt lat="35.98084719583171" lon="-107.04681853760695"><ele>2089.333333333333</ele><time>2026-05-03T15:09:47Z</time></trkpt><trkpt lat="35.98103454131795" lon="-107.04677868920649"><ele>2088.6666666666665</ele><time>2026-05-03T15:09:48Z</time></trkpt><trkpt lat="35.98121635395373" lon="-107.04676417576277"><ele>2088.0</ele><time>2026-05-03T15:09:49Z</time></trkpt><trkpt lat="35.98140584740246" lon="-107.04677016927108"><ele>2088.0</ele><time>2026-05-03T15:09:50Z</time></trkpt><trkpt lat="35.981602895869145" lon="-107.04679060373552"><ele>2088.0</ele><time>2026-05-03T15:09:51Z</time></trkpt><trkpt lat="35.98180053967473" lon="-107.04682863113324"><ele>2088.0</ele><time>2026-05-03T15:09:52Z</time></trkpt><trkpt lat="35.98200114684782" lon="-107.04688352371335"><ele>2088.0</ele><time>2026-05-03T15:09:53Z</time></trkpt><trkpt lat="35.98219293246494" lon="-107.04694244571105"><ele>2088.0</ele><time>2026-05-03T15:09:54Z</time></trkpt><trkpt lat="35.98236464601974" lon="-107.04700920187194"><ele>2088.0</ele><time>2026-05-03T15:09:55Z</time></trkpt><trkpt lat="35.98252677780875" lon="-107.0470714721248"><ele>2088.5</ele><time>2026-05-03T15:09:56Z</time></trkpt><trkpt lat="35.98266486276286" lon="-107.0471277364414"><ele>2089.0</ele><time>2026-05-03T15:09:57Z</time></trkpt><trkpt lat="35.98277058792568" lon="-107.04718578428987"><ele>2089.5</ele><time>2026-05-03T15:09:58Z</time></trkpt><trkpt lat="35.9828665460989" lon="-107.04724679099405"><ele>2090.0</ele><time>2026-05-03T15:09:59Z</time></trkpt><trkpt lat="35.98294036038862" lon="-107.0473114772649"><ele>2090.0</ele><time>2026-05-03T15:10:00Z</time></trkpt><trkpt lat="35.983000812416556" lon="-107.04738223201173"><ele>2090.0</ele><time>2026-05-03T15:10:01Z</time></trkpt><trkpt lat="35.98306080528285" lon="-107.047445216322"><ele>2090.0</ele><time>2026-05-03T15:10:02Z</time></trkpt><trkpt lat="35.983124715064655" lon="-107.04752342004474"><ele>2090.0</ele><time>2026-05-03T15:10:03Z</time></trkpt><trkpt lat="35.98318532096529" lon="-107.0476170970387"><ele>2090.0</ele><time>2026-05-03T15:10:04Z</time></trkpt><trkpt lat="35.98323457014808" lon="-107.04770872854037"><ele>2090.0</ele><time>2026-05-03T15:10:05Z</time></trkpt><trkpt lat="35.98328585147722" lon="-107.04779310823163"><ele>2090.0</ele><time>2026-05-03T15:10:06Z</time></trkpt><trkpt lat="35.983332672659145" lon="-107.04786831960045"><ele>2090.0</ele><time>2026-05-03T15:10:07Z</time></trkpt><trkpt lat="35.98341667087797" lon="-107.04801621688905"><ele>2090.0</ele><time>2026-05-03T15:10:09Z</time></trkpt><trkpt lat="35.98347744257067" lon="-107.04811462268681"><ele>2090.0</ele><time>2026-05-03T15:10:10Z</time></trkpt><trkpt lat="35.98353277843145" lon="-107.04821321053959"><ele>2090.0</ele><time>2026-05-03T15:10:11Z</time></trkpt><trkpt lat="35.983595495920774" lon="-107.04830630852392"><ele>2089.833333333333</ele><time>2026-05-03T15:10:12Z</time></trkpt><trkpt lat="35.983654614486774" lon="-107.0483841787778"><ele>2089.6666666666665</ele><time>2026-05-03T15:10:13Z</time></trkpt><trkpt lat="35.98371101301926" lon="-107.04845636591926"><ele>2089.5</ele><time>2026-05-03T15:10:14Z</time></trkpt><trkpt lat="35.98375435252099" lon="-107.04852445014706"><ele>2089.3333333333335</ele><time>2026-05-03T15:10:15Z</time></trkpt><trkpt lat="35.98381374331855" lon="-107.04860888953803"><ele>2089.166666666667</ele><time>2026-05-03T15:10:16Z</time></trkpt><trkpt lat="35.98387450452886" lon="-107.04869492505543"><ele>2089.0</ele><time>2026-05-03T15:10:17Z</time></trkpt><trkpt lat="35.98393613973109" lon="-107.04877555679107"><ele>2089.0</ele><time>2026-05-03T15:10:18Z</time></trkpt><trkpt lat="35.98400037082353" lon="-107.04886893020011"><ele>2089.0</ele><time>2026-05-03T15:10:19Z</time></trkpt><trkpt lat="35.984060901449446" lon="-107.04898601107918"><ele>2089.0</ele><time>2026-05-03T15:10:20Z</time></trkpt><trkpt lat="35.98413669751802" lon="-107.04911724238163"><ele>2089.0</ele><time>2026-05-03T15:10:21Z</time></trkpt><trkpt lat="35.98421290145901" lon="-107.04922773900726"><ele>2090.0</ele><time>2026-05-03T15:10:22Z</time></trkpt><trkpt lat="35.984291865704094" lon="-107.04934186839137"><ele>2091.0</ele><time>2026-05-03T15:10:23Z</time></trkpt><trkpt lat="35.984379967149536" lon="-107.04947666652686"><ele>2092.0</ele><time>2026-05-03T15:10:24Z</time></trkpt><trkpt lat="35.98444925290659" lon="-107.04959253154493"><ele>2093.0</ele><time>2026-05-03T15:10:25Z</time></trkpt><trkpt lat="35.98452143141823" lon="-107.04970337775384"><ele>2093.0</ele><time>2026-05-03T15:10:26Z</time></trkpt><trkpt lat="35.984601576540385" lon="-107.04983687329296"><ele>2093.0</ele><time>2026-05-03T15:10:27Z</time></trkpt><trkpt lat="35.98469481333459" lon="-107.04998752735388"><ele>2093.0</ele><time>2026-05-03T15:10:28Z</time></trkpt><trkpt lat="35.98478384951761" lon="-107.05012655055278"><ele>2093.0</ele><time>2026-05-03T15:10:29Z</time></trkpt><trkpt lat="35.98486824185201" lon="-107.05025810121609"><ele>2092.75</ele><time>2026-05-03T15:10:30Z</time></trkpt><trkpt lat="35.9849394205032" lon="-107.05036659563926"><ele>2092.5</ele><time>2026-05-03T15:10:31Z</time></trkpt><trkpt lat="35.985004604416254" lon="-107.05046489743778"><ele>2092.25</ele><time>2026-05-03T15:10:32Z</time></trkpt><trkpt lat="35.98507818893014" lon="-107.05057878829665"><ele>2092.0</ele><time>2026-05-03T15:10:33Z</time></trkpt><trkpt lat="35.985164817623094" lon="-107.05072042306745"><ele>2091.5</ele><time>2026-05-03T15:10:34Z</time></trkpt><trkpt lat="35.98525993803594" lon="-107.05089611656712"><ele>2091.0</ele><time>2026-05-03T15:10:35Z</time></trkpt><trkpt lat="35.98532760868522" lon="-107.05105166506304"><ele>2090.5</ele><time>2026-05-03T15:10:36Z</time></trkpt><trkpt lat="35.985361067569904" lon="-107.05118018553719"><ele>2090.0</ele><time>2026-05-03T15:10:37Z</time></trkpt><trkpt lat="35.98537431570026" lon="-107.05131812347581"><ele>2090.0</ele><time>2026-05-03T15:10:38Z</time></trkpt><trkpt lat="35.98537114000762" lon="-107.05147396245334"><ele>2090.0</ele><time>2026-05-03T15:10:39Z</time></trkpt><trkpt lat="35.9853593310084" lon="-107.05163033879886"><ele>2090.0</ele><time>2026-05-03T15:10:40Z</time></trkpt><trkpt lat="35.985343078339476" lon="-107.05179486109351"><ele>2090.0</ele><time>2026-05-03T15:10:41Z</time></trkpt><trkpt lat="35.985323690712114" lon="-107.05195527773937"><ele>2090.5</ele><time>2026-05-03T15:10:42Z</time></trkpt><trkpt lat="35.98529428962868" lon="-107.0521241057078"><ele>2091.0</ele><time>2026-05-03T15:10:43.001Z</time></trkpt><trkpt lat="35.98527416968398" lon="-107.05228625951202"><ele>2091.5</ele><time>2026-05-03T15:10:44.001Z</time></trkpt><trkpt lat="35.98526652425169" lon="-107.05244430318746"><ele>2092.0</ele><time>2026-05-03T15:10:45.001Z</time></trkpt><trkpt lat="35.98528452888084" lon="-107.05257991177149"><ele>2092.4</ele><time>2026-05-03T15:10:46.001Z</time></trkpt><trkpt lat="35.98531542206291" lon="-107.05270552263468"><ele>2092.7999999999997</ele><time>2026-05-03T15:10:47.001Z</time></trkpt><trkpt lat="35.9853442363" lon="-107.0527982448751"><ele>2093.2</ele><time>2026-05-03T15:10:48.001Z</time></trkpt><trkpt lat="35.98542624075089" lon="-107.0528657333216"><ele>2093.6</ele><time>2026-05-03T15:10:50.001Z</time></trkpt><trkpt lat="35.98549920403751" lon="-107.05287637109464"><ele>2094.0</ele><time>2026-05-03T15:10:51.001Z</time></trkpt><trkpt lat="35.98560092210443" lon="-107.05283024554568"><ele>2094.0</ele><time>2026-05-03T15:10:52.001Z</time></trkpt><trkpt lat="35.9857317404268" lon="-107.05274901687335"><ele>2094.0</ele><time>2026-05-03T15:10:53.001Z</time></trkpt><trkpt lat="35.98589251359029" lon="-107.05264748078409"><ele>2094.0</ele><time>2026-05-03T15:10:54.001Z</time></trkpt><trkpt lat="35.986019449251586" lon="-107.05254542986384"><ele>2094.0</ele><time>2026-05-03T15:10:55.001Z</time></trkpt><trkpt lat="35.98611971660286" lon="-107.05246697950986"><ele>2094.0</ele><time>2026-05-03T15:10:56.001Z</time></trkpt><trkpt lat="35.98622739349396" lon="-107.05240749736811"><ele>2094.0</ele><time>2026-05-03T15:10:57.001Z</time></trkpt><trkpt lat="35.986345043968676" lon="-107.0523357233296"><ele>2094.0</ele><time>2026-05-03T15:10:58.001Z</time></trkpt><trkpt lat="35.986465067935534" lon="-107.05226412899762"><ele>2094.0</ele><time>2026-05-03T15:10:59.001Z</time></trkpt><trkpt lat="35.98659427869351" lon="-107.05220569477409"><ele>2094.0</ele><time>2026-05-03T15:11:00.001Z</time></trkpt><trkpt lat="35.986733032827985" lon="-107.0521485663232"><ele>2094.0</ele><time>2026-05-03T15:11:01.001Z</time></trkpt><trkpt lat="35.98687245180599" lon="-107.05209649627993"><ele>2094.0</ele><time>2026-05-03T15:11:02.001Z</time></trkpt><trkpt lat="35.98701185309802" lon="-107.05205109857252"><ele>2094.0</ele><time>2026-05-03T15:11:03.001Z</time></trkpt><trkpt lat="35.98716169124093" lon="-107.05200482191127"><ele>2094.0</ele><time>2026-05-03T15:11:04.001Z</time></trkpt><trkpt lat="35.987301623293234" lon="-107.05195821551641"><ele>2094.0</ele><time>2026-05-03T15:11:05.001Z</time></trkpt><trkpt lat="35.987420246050455" lon="-107.05191683274977"><ele>2094.0</ele><time>2026-05-03T15:11:06.001Z</time></trkpt><trkpt lat="35.98752850582597" lon="-107.05187741253097"><ele>2094.0</ele><time>2026-05-03T15:11:07.001Z</time></trkpt><trkpt lat="35.9876528286007" lon="-107.05184118444103"><ele>2094.0</ele><time>2026-05-03T15:11:08.001Z</time></trkpt><trkpt lat="35.98779302206657" lon="-107.05181934385288"><ele>2094.0</ele><time>2026-05-03T15:11:09.001Z</time></trkpt><trkpt lat="35.98793484670016" lon="-107.05181281886306"><ele>2094.0</ele><time>2026-05-03T15:11:10.001Z</time></trkpt><trkpt lat="35.98806494735234" lon="-107.05182757219958"><ele>2094.0</ele><time>2026-05-03T15:11:11.001Z</time></trkpt><trkpt lat="35.98819259891087" lon="-107.05187413737707"><ele>2094.0</ele><time>2026-05-03T15:11:12.001Z</time></trkpt><trkpt lat="35.98830121840427" lon="-107.05194762638646"><ele>2094.0</ele><time>2026-05-03T15:11:13.001Z</time></trkpt><trkpt lat="35.98838282453731" lon="-107.05204567176796"><ele>2094.0</ele><time>2026-05-03T15:11:14.001Z</time></trkpt><trkpt lat="35.98845918912531" lon="-107.05217527837287"><ele>2094.0</ele><time>2026-05-03T15:11:15.001Z</time></trkpt><trkpt lat="35.98854639120559" lon="-107.05232168217697"><ele>2094.0</ele><time>2026-05-03T15:11:16.001Z</time></trkpt><trkpt lat="35.988635795464106" lon="-107.05244069676289"><ele>2094.0</ele><time>2026-05-03T15:11:17.001Z</time></trkpt><trkpt lat="35.988726893954976" lon="-107.0525346866781"><ele>2094.0</ele><time>2026-05-03T15:11:18.001Z</time></trkpt><trkpt lat="35.98881354512957" lon="-107.05261448268709"><ele>2094.0</ele><time>2026-05-03T15:11:19.001Z</time></trkpt><trkpt lat="35.98890524880815" lon="-107.05268987655191"><ele>2094.0</ele><time>2026-05-03T15:11:20.001Z</time></trkpt><trkpt lat="35.98894174522954" lon="-107.05278564703639"><ele>2094.0</ele><time>2026-05-03T15:11:21.001Z</time></trkpt><trkpt lat="35.98900270711359" lon="-107.05292448689818"><ele>2094.0</ele><time>2026-05-03T15:11:22.001Z</time></trkpt><trkpt lat="35.98905006271848" lon="-107.05303340463784"><ele>2094.0</ele><time>2026-05-03T15:11:23.001Z</time></trkpt><trkpt lat="35.98910145450493" lon="-107.05313119630415"><ele>2094.0</ele><time>2026-05-03T15:11:24.001Z</time></trkpt><trkpt lat="35.98914936369798" lon="-107.05323411814072"><ele>2094.0</ele><time>2026-05-03T15:11:25.001Z</time></trkpt><trkpt lat="35.98919165809306" lon="-107.0533411392636"><ele>2094.0</ele><time>2026-05-03T15:11:26.001Z</time></trkpt><trkpt lat="35.98923929632624" lon="-107.05346611428011"><ele>2094.0</ele><time>2026-05-03T15:11:27.001Z</time></trkpt><trkpt lat="35.9892880148006" lon="-107.0535842211335"><ele>2094.0</ele><time>2026-05-03T15:11:28.001Z</time></trkpt><trkpt lat="35.98932652418072" lon="-107.05369032896735"><ele>2094.3333333333335</ele><time>2026-05-03T15:11:29.001Z</time></trkpt><trkpt lat="35.989355727707675" lon="-107.05378954270435"><ele>2094.6666666666665</ele><time>2026-05-03T15:11:30.001Z</time></trkpt><trkpt lat="35.98938731630657" lon="-107.05388509363122"><ele>2095.0</ele><time>2026-05-03T15:11:31.001Z</time></trkpt><trkpt lat="35.989412571874" lon="-107.05398449413251"><ele>2095.333333333333</ele><time>2026-05-03T15:11:32Z</time></trkpt><trkpt lat="35.989431207604554" lon="-107.0540769347013"><ele>2095.6666666666665</ele><time>2026-05-03T15:11:33Z</time></trkpt><trkpt lat="35.98946457952854" lon="-107.05421728939679"><ele>2096.0</ele><time>2026-05-03T15:11:36Z</time></trkpt><trkpt lat="35.98949045363011" lon="-107.05433042391216"><ele>2096.2</ele><time>2026-05-03T15:11:37Z</time></trkpt><trkpt lat="35.98952461504544" lon="-107.0544759868226"><ele>2096.3999999999996</ele><time>2026-05-03T15:11:38Z</time></trkpt><trkpt lat="35.9895535215843" lon="-107.05463179587277"><ele>2096.6</ele><time>2026-05-03T15:11:39Z</time></trkpt><trkpt lat="35.98958086242034" lon="-107.05475287675206"><ele>2096.7999999999997</ele><time>2026-05-03T15:11:40Z</time></trkpt><trkpt lat="35.98960306209635" lon="-107.05483871818447"><ele>2097.0</ele><time>2026-05-03T15:11:41Z</time></trkpt><trkpt lat="35.98962019709878" lon="-107.05493447193223"><ele>2097.7999999999997</ele><time>2026-05-03T15:11:42Z</time></trkpt><trkpt lat="35.98965272083622" lon="-107.05504878774687"><ele>2098.6</ele><time>2026-05-03T15:11:43Z</time></trkpt><trkpt lat="35.98969533017749" lon="-107.05518077381855"><ele>2099.3999999999996</ele><time>2026-05-03T15:11:44Z</time></trkpt><trkpt lat="35.98972931011772" lon="-107.05529330622673"><ele>2100.2</ele><time>2026-05-03T15:11:45Z</time></trkpt><trkpt lat="35.98976557813858" lon="-107.05539002189086"><ele>2101.0</ele><time>2026-05-03T15:11:46Z</time></trkpt><trkpt lat="35.98980407946281" lon="-107.0554836401203"><ele>2101.0</ele><time>2026-05-03T15:11:47Z</time></trkpt><trkpt lat="35.98982713370683" lon="-107.05557871890502"><ele>2101.0</ele><time>2026-05-03T15:11:48Z</time></trkpt><trkpt lat="35.98983127115938" lon="-107.05568520778517"><ele>2101.0</ele><time>2026-05-03T15:11:49Z</time></trkpt><trkpt lat="35.989808131886114" lon="-107.0557927096988"><ele>2101.0</ele><time>2026-05-03T15:11:50Z</time></trkpt><trkpt lat="35.98976845087936" lon="-107.0559058194119"><ele>2101.0</ele><time>2026-05-03T15:11:51Z</time></trkpt><trkpt lat="35.98974741554947" lon="-107.05598987753582"><ele>2101.0</ele><time>2026-05-03T15:11:52Z</time></trkpt><trkpt lat="35.989679298486024" lon="-107.05611909947417"><ele>2101.5</ele><time>2026-05-03T15:11:54Z</time></trkpt><trkpt lat="35.98963394543882" lon="-107.05618445796246"><ele>2102.0</ele><time>2026-05-03T15:11:55Z</time></trkpt><trkpt lat="35.989528136767795" lon="-107.05624940644203"><ele>2102.5</ele><time>2026-05-03T15:11:57Z</time></trkpt><trkpt lat="35.98945282416861" lon="-107.05627269674419"><ele>2103.0</ele><time>2026-05-03T15:11:58Z</time></trkpt><trkpt lat="35.98937040903211" lon="-107.05632322086186"><ele>2103.5</ele><time>2026-05-03T15:11:59Z</time></trkpt><trkpt lat="35.98929941166218" lon="-107.05636019411395"><ele>2104.0</ele><time>2026-05-03T15:12:00Z</time></trkpt><trkpt lat="35.989222231357694" lon="-107.05638134356974"><ele>2105.6</ele><time>2026-05-03T15:12:01Z</time></trkpt><trkpt lat="35.98914085891639" lon="-107.05639714034268"><ele>2107.2</ele><time>2026-05-03T15:12:02Z</time></trkpt><trkpt lat="35.98907708296601" lon="-107.05641486026276"><ele>2108.7999999999997</ele><time>2026-05-03T15:12:03Z</time></trkpt><trkpt lat="35.988979974477935" lon="-107.056497138962"><ele>2110.4</ele><time>2026-05-03T15:12:05Z</time></trkpt><trkpt lat="35.988916381321" lon="-107.05655047350092"><ele>2112.0</ele><time>2026-05-03T15:12:06Z</time></trkpt><trkpt lat="35.98880540852536" lon="-107.05658620308903"><ele>2112.0</ele><time>2026-05-03T15:12:08Z</time></trkpt><trkpt lat="35.988711237251884" lon="-107.0566091653083"><ele>2112.0</ele><time>2026-05-03T15:12:09Z</time></trkpt><trkpt lat="35.98863858398377" lon="-107.05667290212003"><ele>2112.0</ele><time>2026-05-03T15:12:10Z</time></trkpt><trkpt lat="35.98857258326021" lon="-107.05676922783545"><ele>2112.0</ele><time>2026-05-03T15:12:11Z</time></trkpt><trkpt lat="35.98851096768342" lon="-107.0568536069929"><ele>2112.0</ele><time>2026-05-03T15:12:12Z</time></trkpt><trkpt lat="35.988435762063325" lon="-107.05692365726118"><ele>2112.6</ele><time>2026-05-03T15:12:13Z</time></trkpt><trkpt lat="35.98834290574678" lon="-107.05698942284437"><ele>2113.2</ele><time>2026-05-03T15:12:14Z</time></trkpt><trkpt lat="35.98826459593002" lon="-107.05706135845082"><ele>2113.8</ele><time>2026-05-03T15:12:15Z</time></trkpt><trkpt lat="35.98819393250039" lon="-107.05713128947208"><ele>2114.4</ele><time>2026-05-03T15:12:16Z</time></trkpt><trkpt lat="35.98813937313906" lon="-107.05718382589964"><ele>2115.0</ele><time>2026-05-03T15:12:17Z</time></trkpt><trkpt lat="35.98802357133595" lon="-107.05725789910859"><ele>2115.0</ele><time>2026-05-03T15:12:19Z</time></trkpt><trkpt lat="35.98791461896343" lon="-107.0572537708305"><ele>2115.0</ele><time>2026-05-03T15:12:20Z</time></trkpt><trkpt lat="35.987799922635226" lon="-107.0572526435758"><ele>2115.0</ele><time>2026-05-03T15:12:21Z</time></trkpt><trkpt lat="35.98771553336019" lon="-107.05729240152893"><ele>2115.0</ele><time>2026-05-03T15:12:22Z</time></trkpt><trkpt lat="35.987637345380534" lon="-107.05733709474768"><ele>2115.0</ele><time>2026-05-03T15:12:23Z</time></trkpt><trkpt lat="35.987537572061726" lon="-107.05736298530886"><ele>2114.25</ele><time>2026-05-03T15:12:25Z</time></trkpt><trkpt lat="35.987439840727696" lon="-107.05736217283861"><ele>2113.5</ele><time>2026-05-03T15:12:26Z</time></trkpt><trkpt lat="35.987349005376466" lon="-107.05742856908775"><ele>2112.75</ele><time>2026-05-03T15:12:27Z</time></trkpt><trkpt lat="35.98724276160766" lon="-107.05754305977288"><ele>2112.0</ele><time>2026-05-03T15:12:28Z</time></trkpt><trkpt lat="35.987177239066476" lon="-107.05766546933424"><ele>2114.25</ele><time>2026-05-03T15:12:29Z</time></trkpt><trkpt lat="35.98710734613413" lon="-107.05778794134721"><ele>2116.5</ele><time>2026-05-03T15:12:30Z</time></trkpt><trkpt lat="35.98704698957223" lon="-107.05790703005226"><ele>2118.75</ele><time>2026-05-03T15:12:31Z</time></trkpt><trkpt lat="35.98698266105137" lon="-107.05801499328389"><ele>2121.0</ele><time>2026-05-03T15:12:32Z</time></trkpt><trkpt lat="35.98691168467631" lon="-107.05813615441438"><ele>2121.0</ele><time>2026-05-03T15:12:33Z</time></trkpt><trkpt lat="35.98683646920988" lon="-107.05825504851946"><ele>2121.0</ele><time>2026-05-03T15:12:34Z</time></trkpt><trkpt lat="35.986776285545496" lon="-107.0583497700546"><ele>2121.0</ele><time>2026-05-03T15:12:35Z</time></trkpt><trkpt lat="35.98669957297599" lon="-107.05843869614102"><ele>2121.0</ele><time>2026-05-03T15:12:36Z</time></trkpt><trkpt lat="35.98661681852217" lon="-107.05850991551463"><ele>2121.0</ele><time>2026-05-03T15:12:37Z</time></trkpt><trkpt lat="35.986514976553266" lon="-107.05857951184433"><ele>2121.8</ele><time>2026-05-03T15:12:38Z</time></trkpt><trkpt lat="35.986411978731404" lon="-107.05865502997209"><ele>2122.6</ele><time>2026-05-03T15:12:39Z</time></trkpt><trkpt lat="35.986323080561576" lon="-107.0587326076448"><ele>2123.4</ele><time>2026-05-03T15:12:40Z</time></trkpt><trkpt lat="35.986240689144225" lon="-107.05882170903936"><ele>2124.2</ele><time>2026-05-03T15:12:41Z</time></trkpt><trkpt lat="35.98617547539375" lon="-107.0589170313971"><ele>2125.0</ele><time>2026-05-03T15:12:42Z</time></trkpt><trkpt lat="35.986101886410616" lon="-107.05899617979841"><ele>2125.0</ele><time>2026-05-03T15:12:43Z</time></trkpt><trkpt lat="35.98599849364829" lon="-107.05905110136827"><ele>2125.0</ele><time>2026-05-03T15:12:44Z</time></trkpt><trkpt lat="35.98585418776945" lon="-107.05908374799874"><ele>2125.0</ele><time>2026-05-03T15:12:45Z</time></trkpt><trkpt lat="35.98574270276069" lon="-107.0591272512232"><ele>2125.0</ele><time>2026-05-03T15:12:46Z</time></trkpt><trkpt lat="35.985657534054425" lon="-107.05917138760849"><ele>2125.4</ele><time>2026-05-03T15:12:47Z</time></trkpt><trkpt lat="35.985594176240255" lon="-107.05922854174905"><ele>2125.8</ele><time>2026-05-03T15:12:48Z</time></trkpt><trkpt lat="35.9855113348861" lon="-107.05932251441584"><ele>2126.2</ele><time>2026-05-03T15:12:49Z</time></trkpt><trkpt lat="35.98542167547661" lon="-107.05939611201184"><ele>2126.6</ele><time>2026-05-03T15:12:50Z</time></trkpt><trkpt lat="35.98531801746095" lon="-107.05943852425649"><ele>2127.0</ele><time>2026-05-03T15:12:51Z</time></trkpt><trkpt lat="35.98519028857492" lon="-107.05948706153117"><ele>2127.0</ele><time>2026-05-03T15:12:52Z</time></trkpt><trkpt lat="35.98508545217856" lon="-107.05957370323144"><ele>2127.0</ele><time>2026-05-03T15:12:53Z</time></trkpt><trkpt lat="35.98501252978413" lon="-107.05965590870203"><ele>2127.0</ele><time>2026-05-03T15:12:54.001Z</time></trkpt><trkpt lat="35.98492852118909" lon="-107.05969526531916"><ele>2127.0</ele><time>2026-05-03T15:12:55.001Z</time></trkpt><trkpt lat="35.98479240522354" lon="-107.05970596581834"><ele>2127.6</ele><time>2026-05-03T15:12:56.001Z</time></trkpt><trkpt lat="35.9846608163745" lon="-107.05972228941337"><ele>2128.2</ele><time>2026-05-03T15:12:57.001Z</time></trkpt><trkpt lat="35.984584266134156" lon="-107.05972928974249"><ele>2128.8</ele><time>2026-05-03T15:12:58.001Z</time></trkpt><trkpt lat="35.984520577550384" lon="-107.05977534667203"><ele>2129.4</ele><time>2026-05-03T15:12:59.001Z</time></trkpt><trkpt lat="35.98445288651596" lon="-107.05988829715638"><ele>2130.0</ele><time>2026-05-03T15:13:00.001Z</time></trkpt><trkpt lat="35.98440666028654" lon="-107.06004891199453"><ele>2130.0</ele><time>2026-05-03T15:13:01.001Z</time></trkpt><trkpt lat="35.98436853062471" lon="-107.06021604095119"><ele>2130.0</ele><time>2026-05-03T15:13:02.001Z</time></trkpt><trkpt lat="35.98436335364749" lon="-107.06036936225085"><ele>2130.0</ele><time>2026-05-03T15:13:03.001Z</time></trkpt><trkpt lat="35.984378461186004" lon="-107.0605072242238"><ele>2130.0</ele><time>2026-05-03T15:13:04.001Z</time></trkpt><trkpt lat="35.98439391150065" lon="-107.06067109906543"><ele>2129.5</ele><time>2026-05-03T15:13:05.001Z</time></trkpt><trkpt lat="35.98439526656808" lon="-107.06085313392589"><ele>2129.0</ele><time>2026-05-03T15:13:06.001Z</time></trkpt><trkpt lat="35.98439935003401" lon="-107.06100848326581"><ele>2128.5</ele><time>2026-05-03T15:13:07.001Z</time></trkpt><trkpt lat="35.98440916495886" lon="-107.06115500516935"><ele>2128.0</ele><time>2026-05-03T15:13:08.001Z</time></trkpt><trkpt lat="35.984418564711184" lon="-107.06130019622104"><ele>2128.0</ele><time>2026-05-03T15:13:09.001Z</time></trkpt><trkpt lat="35.984422865600244" lon="-107.0614803341805"><ele>2128.0</ele><time>2026-05-03T15:13:10.001Z</time></trkpt><trkpt lat="35.98443553841506" lon="-107.06166732311543"><ele>2128.0</ele><time>2026-05-03T15:13:11.001Z</time></trkpt><trkpt lat="35.984434493751074" lon="-107.06182096344112"><ele>2128.0</ele><time>2026-05-03T15:13:12.001Z</time></trkpt><trkpt lat="35.984443165745915" lon="-107.06197816149924"><ele>2127.5</ele><time>2026-05-03T15:13:13.001Z</time></trkpt><trkpt lat="35.98444816574617" lon="-107.06211794987416"><ele>2127.0</ele><time>2026-05-03T15:13:14.001Z</time></trkpt><trkpt lat="35.984448855731486" lon="-107.06227146091771"><ele>2126.5</ele><time>2026-05-03T15:13:15.001Z</time></trkpt><trkpt lat="35.98445241711442" lon="-107.0624153476188"><ele>2126.0</ele><time>2026-05-03T15:13:16.001Z</time></trkpt><trkpt lat="35.984461949731" lon="-107.06254253316484"><ele>2125.4</ele><time>2026-05-03T15:13:17.001Z</time></trkpt><trkpt lat="35.984471270590255" lon="-107.06267542616483"><ele>2124.8</ele><time>2026-05-03T15:13:18.001Z</time></trkpt><trkpt lat="35.98447367044902" lon="-107.06280526101769"><ele>2124.2000000000003</ele><time>2026-05-03T15:13:19.001Z</time></trkpt><trkpt lat="35.98447968040572" lon="-107.06293275568314"><ele>2123.6</ele><time>2026-05-03T15:13:20.001Z</time></trkpt><trkpt lat="35.98448649577148" lon="-107.06304293605079"><ele>2123.0</ele><time>2026-05-03T15:13:21.001Z</time></trkpt><trkpt lat="35.98449679383429" lon="-107.0631521453459"><ele>2123.0</ele><time>2026-05-03T15:13:22.001Z</time></trkpt><trkpt lat="35.98450348284561" lon="-107.06328055096228"><ele>2123.0</ele><time>2026-05-03T15:13:23.001Z</time></trkpt><trkpt lat="35.98450464349549" lon="-107.06345496927955"><ele>2123.0</ele><time>2026-05-03T15:13:24.001Z</time></trkpt><trkpt lat="35.98450589195018" lon="-107.06364507601509"><ele>2123.0</ele><time>2026-05-03T15:13:25.001Z</time></trkpt><trkpt lat="35.98451867611124" lon="-107.06380043771348"><ele>2123.0</ele><time>2026-05-03T15:13:26.001Z</time></trkpt><trkpt lat="35.98452193884196" lon="-107.06392756222586"><ele>2123.0</ele><time>2026-05-03T15:13:27.001Z</time></trkpt><trkpt lat="35.98452754724781" lon="-107.06405086047675"><ele>2123.0</ele><time>2026-05-03T15:13:28.001Z</time></trkpt><trkpt lat="35.984536534754334" lon="-107.06419273986116"><ele>2123.0</ele><time>2026-05-03T15:13:29.001Z</time></trkpt><trkpt lat="35.98454636241726" lon="-107.06435007108075"><ele>2123.0</ele><time>2026-05-03T15:13:30.001Z</time></trkpt><trkpt lat="35.98455107488339" lon="-107.0645120117867"><ele>2123.0</ele><time>2026-05-03T15:13:31.001Z</time></trkpt><trkpt lat="35.98456011991033" lon="-107.06468064994161"><ele>2123.0</ele><time>2026-05-03T15:13:32.001Z</time></trkpt><trkpt lat="35.984567348706776" lon="-107.06483963779098"><ele>2123.0</ele><time>2026-05-03T15:13:33.001Z</time></trkpt><trkpt lat="35.984575772696964" lon="-107.06498709398589"><ele>2123.0</ele><time>2026-05-03T15:13:34.001Z</time></trkpt><trkpt lat="35.984583974758316" lon="-107.06512229994813"><ele>2123.0</ele><time>2026-05-03T15:13:35.001Z</time></trkpt><trkpt lat="35.98459127452988" lon="-107.0652399130621"><ele>2123.0</ele><time>2026-05-03T15:13:36.001Z</time></trkpt><trkpt lat="35.98458694697526" lon="-107.06536756201174"><ele>2123.0</ele><time>2026-05-03T15:13:37.001Z</time></trkpt><trkpt lat="35.98458587478175" lon="-107.06551137488864"><ele>2123.0</ele><time>2026-05-03T15:13:38Z</time></trkpt><trkpt lat="35.98459172802017" lon="-107.06566837758196"><ele>2123.0</ele><time>2026-05-03T15:13:39Z</time></trkpt><trkpt lat="35.98459789825854" lon="-107.06581150825983"><ele>2123.25</ele><time>2026-05-03T15:13:40Z</time></trkpt><trkpt lat="35.9846106161588" lon="-107.06596709095749"><ele>2123.5</ele><time>2026-05-03T15:13:41Z</time></trkpt><trkpt lat="35.98461191286974" lon="-107.06614243264326"><ele>2123.75</ele><time>2026-05-03T15:13:42Z</time></trkpt><trkpt lat="35.98460765290925" lon="-107.06631186722923"><ele>2124.0</ele><time>2026-05-03T15:13:43Z</time></trkpt><trkpt lat="35.984608717648335" lon="-107.06646241675747"><ele>2124.0</ele><time>2026-05-03T15:13:44Z</time></trkpt><trkpt lat="35.984614898252424" lon="-107.06658986329589"><ele>2124.0</ele><time>2026-05-03T15:13:45Z</time></trkpt><trkpt lat="35.984633354520255" lon="-107.06670308020672"><ele>2124.0</ele><time>2026-05-03T15:13:46Z</time></trkpt><trkpt lat="35.98464989273298" lon="-107.0668201356603"><ele>2124.0</ele><time>2026-05-03T15:13:47Z</time></trkpt><trkpt lat="35.98465644986225" lon="-107.06694351628892"><ele>2124.0</ele><time>2026-05-03T15:13:48Z</time></trkpt><trkpt lat="35.98464386579455" lon="-107.06708169124713"><ele>2124.4</ele><time>2026-05-03T15:13:49Z</time></trkpt><trkpt lat="35.984628868969295" lon="-107.06721201681547"><ele>2124.8</ele><time>2026-05-03T15:13:50Z</time></trkpt><trkpt lat="35.98462720750461" lon="-107.06731202829586"><ele>2125.2</ele><time>2026-05-03T15:13:51Z</time></trkpt><trkpt lat="35.98463558311642" lon="-107.067449784765"><ele>2125.6</ele><time>2026-05-03T15:13:52Z</time></trkpt><trkpt lat="35.984631852043556" lon="-107.06759341277409"><ele>2126.0</ele><time>2026-05-03T15:13:53Z</time></trkpt><trkpt lat="35.984639172775964" lon="-107.06768003421115"><ele>2126.2</ele><time>2026-05-03T15:13:54Z</time></trkpt><trkpt lat="35.98465284992458" lon="-107.06777171557879"><ele>2126.3999999999996</ele><time>2026-05-03T15:13:56Z</time></trkpt><trkpt lat="35.984683497252284" lon="-107.06793230844085"><ele>2126.6</ele><time>2026-05-03T15:13:58Z</time></trkpt><trkpt lat="35.984679846068424" lon="-107.06804961415416"><ele>2126.7999999999997</ele><time>2026-05-03T15:13:59Z</time></trkpt><trkpt lat="35.9846877943251" lon="-107.06816631750036"><ele>2127.0</ele><time>2026-05-03T15:14:00Z</time></trkpt><trkpt lat="35.98469222685058" lon="-107.06825897945393"><ele>2127.4</ele><time>2026-05-03T15:14:01Z</time></trkpt><trkpt lat="35.98469706060681" lon="-107.06836357099925"><ele>2127.7999999999997</ele><time>2026-05-03T15:14:02Z</time></trkpt><trkpt lat="35.98469560265974" lon="-107.06846085378987"><ele>2128.2</ele><time>2026-05-03T15:14:03Z</time></trkpt><trkpt lat="35.9847028748224" lon="-107.06854171611121"><ele>2128.6</ele><time>2026-05-03T15:14:04Z</time></trkpt><trkpt lat="35.98472578443429" lon="-107.0686649937769"><ele>2129.0</ele><time>2026-05-03T15:14:06Z</time></trkpt><trkpt lat="35.98486320598985" lon="-107.06875296589998"><ele>2129.0</ele><time>2026-05-03T15:14:08Z</time></trkpt><trkpt lat="35.9849745103074" lon="-107.06878940574114"><ele>2129.0</ele><time>2026-05-03T15:14:09Z</time></trkpt><trkpt lat="35.98510617100557" lon="-107.06884298463264"><ele>2129.0</ele><time>2026-05-03T15:14:10Z</time></trkpt><trkpt lat="35.98521662009681" lon="-107.06888116959358"><ele>2129.0</ele><time>2026-05-03T15:14:11Z</time></trkpt><trkpt lat="35.985293029947385" lon="-107.068904892992"><ele>2129.0</ele><time>2026-05-03T15:14:12Z</time></trkpt><trkpt lat="35.98533767990936" lon="-107.06904198627555"><ele>2129.5</ele><time>2026-05-03T15:14:14Z</time></trkpt><trkpt lat="35.985348196169106" lon="-107.06914522184813"><ele>2130.0</ele><time>2026-05-03T15:14:15Z</time></trkpt><trkpt lat="35.98536591778609" lon="-107.06922134283703"><ele>2130.5</ele><time>2026-05-03T15:14:16Z</time></trkpt><trkpt lat="35.98547128530862" lon="-107.06933021424177"><ele>2131.0</ele><time>2026-05-03T15:14:18Z</time></trkpt><trkpt lat="35.985520991105346" lon="-107.06940298646111"><ele>2131.5</ele><time>2026-05-03T15:14:19Z</time></trkpt><trkpt lat="35.985533179756466" lon="-107.06949895175708"><ele>2132.0</ele><time>2026-05-03T15:14:20Z</time></trkpt><trkpt lat="35.98553790710162" lon="-107.0695920117467"><ele>2132.0</ele><time>2026-05-03T15:14:21Z</time></trkpt><trkpt lat="35.98563273391218" lon="-107.06968998344307"><ele>2132.0</ele><time>2026-05-03T15:14:23Z</time></trkpt><trkpt lat="35.98572729989999" lon="-107.06971126517678"><ele>2132.0</ele><time>2026-05-03T15:14:24Z</time></trkpt><trkpt lat="35.98581509413109" lon="-107.06975537309923"><ele>2132.0</ele><time>2026-05-03T15:14:25Z</time></trkpt><trkpt lat="35.98589826885637" lon="-107.06981523132178"><ele>2132.0</ele><time>2026-05-03T15:14:26Z</time></trkpt><trkpt lat="35.985971766254494" lon="-107.06986543601037"><ele>2131.2</ele><time>2026-05-03T15:14:27Z</time></trkpt><trkpt lat="35.986036117181314" lon="-107.06989318848002"><ele>2130.3999999999996</ele><time>2026-05-03T15:14:28Z</time></trkpt><trkpt lat="35.986115703885204" lon="-107.06996209190022"><ele>2129.6000000000004</ele><time>2026-05-03T15:14:30Z</time></trkpt><trkpt lat="35.98611997712124" lon="-107.07013444081318"><ele>2128.8</ele><time>2026-05-03T15:14:32Z</time></trkpt><trkpt lat="35.986111733188054" lon="-107.0702394092452"><ele>2128.0</ele><time>2026-05-03T15:14:33Z</time></trkpt><trkpt lat="35.986143326824624" lon="-107.0703231539117"><ele>2128.0</ele><time>2026-05-03T15:14:34Z</time></trkpt><trkpt lat="35.98620111186463" lon="-107.07037717464004"><ele>2128.0</ele><time>2026-05-03T15:14:35Z</time></trkpt><trkpt lat="35.98630497837874" lon="-107.07041692968859"><ele>2128.0</ele><time>2026-05-03T15:14:36Z</time></trkpt><trkpt lat="35.98644390786878" lon="-107.07043473604489"><ele>2128.0</ele><time>2026-05-03T15:14:37Z</time></trkpt><trkpt lat="35.98655063235248" lon="-107.07047131503334"><ele>2128.0</ele><time>2026-05-03T15:14:38Z</time></trkpt><trkpt lat="35.98662983315337" lon="-107.07050656100304"><ele>2127.3333333333335</ele><time>2026-05-03T15:14:39Z</time></trkpt><trkpt lat="35.9867203009647" lon="-107.07051449809268"><ele>2126.666666666667</ele><time>2026-05-03T15:14:40Z</time></trkpt><trkpt lat="35.9868180668198" lon="-107.07051994592794"><ele>2126.0</ele><time>2026-05-03T15:14:41Z</time></trkpt><trkpt lat="35.98689646837423" lon="-107.0705333469945"><ele>2125.3333333333335</ele><time>2026-05-03T15:14:42Z</time></trkpt><trkpt lat="35.986952465129576" lon="-107.07057290775234"><ele>2124.6666666666665</ele><time>2026-05-03T15:14:43Z</time></trkpt><trkpt lat="35.9870569272832" lon="-107.07061989196268"><ele>2124.0</ele><time>2026-05-03T15:14:45Z</time></trkpt><trkpt lat="35.9871320172499" lon="-107.07052969932165"><ele>2124.0</ele><time>2026-05-03T15:14:46Z</time></trkpt><trkpt lat="35.98718725052554" lon="-107.07045147896008"><ele>2124.0</ele><time>2026-05-03T15:14:47Z</time></trkpt><trkpt lat="35.98726609090982" lon="-107.07052634823992"><ele>2124.0</ele><time>2026-05-03T15:14:49Z</time></trkpt><trkpt lat="35.987356923676074" lon="-107.0706377343574"><ele>2124.0</ele><time>2026-05-03T15:14:50Z</time></trkpt><trkpt lat="35.98745342305536" lon="-107.07071911806021"><ele>2124.0</ele><time>2026-05-03T15:14:51Z</time></trkpt><trkpt lat="35.9875103416145" lon="-107.07076046318925"><ele>2123.2</ele><time>2026-05-03T15:14:52Z</time></trkpt><trkpt lat="35.98759717224224" lon="-107.07068931873151"><ele>2122.4</ele><time>2026-05-03T15:14:54Z</time></trkpt><trkpt lat="35.98769803006625" lon="-107.07060787671914"><ele>2121.6</ele><time>2026-05-03T15:14:55Z</time></trkpt><trkpt lat="35.98777427164488" lon="-107.07055506382054"><ele>2120.8</ele><time>2026-05-03T15:14:56Z</time></trkpt><trkpt lat="35.98784497369793" lon="-107.07057152010455"><ele>2120.0</ele><time>2026-05-03T15:14:57Z</time></trkpt><trkpt lat="35.987923465820515" lon="-107.07059992352045"><ele>2120.0</ele><time>2026-05-03T15:14:58Z</time></trkpt><trkpt lat="35.988018090798995" lon="-107.07062445599504"><ele>2120.0</ele><time>2026-05-03T15:14:59Z</time></trkpt><trkpt lat="35.98805626386102" lon="-107.0706864022888"><ele>2120.0</ele><time>2026-05-03T15:15:00Z</time></trkpt><trkpt lat="35.98808192321116" lon="-107.07081828834154"><ele>2120.0</ele><time>2026-05-03T15:15:01Z</time></trkpt><trkpt lat="35.9881402262182" lon="-107.07096792552534"><ele>2120.0</ele><time>2026-05-03T15:15:02Z</time></trkpt><trkpt lat="35.988214745512465" lon="-107.07104227536514"><ele>2120.8</ele><time>2026-05-03T15:15:03Z</time></trkpt><trkpt lat="35.988239917610805" lon="-107.07111786517133"><ele>2121.6</ele><time>2026-05-03T15:15:05.001Z</time></trkpt><trkpt lat="35.98819696355456" lon="-107.07120266855613"><ele>2122.4</ele><time>2026-05-03T15:15:06.001Z</time></trkpt><trkpt lat="35.9881206753791" lon="-107.07132680469562"><ele>2123.2</ele><time>2026-05-03T15:15:07.001Z</time></trkpt><trkpt lat="35.98805484966596" lon="-107.07146270586837"><ele>2124.0</ele><time>2026-05-03T15:15:08.001Z</time></trkpt><trkpt lat="35.98800007139325" lon="-107.07158718283085"><ele>2123.8</ele><time>2026-05-03T15:15:09.001Z</time></trkpt><trkpt lat="35.987969563422816" lon="-107.07166347482371"><ele>2123.6000000000004</ele><time>2026-05-03T15:15:10.001Z</time></trkpt><trkpt lat="35.988001952840825" lon="-107.07175945886799"><ele>2123.4</ele><time>2026-05-03T15:15:12.001Z</time></trkpt><trkpt lat="35.98810320158662" lon="-107.07185605523689"><ele>2123.2000000000003</ele><time>2026-05-03T15:15:13.001Z</time></trkpt><trkpt lat="35.98823210934604" lon="-107.0719287181439"><ele>2123.0</ele><time>2026-05-03T15:15:14.001Z</time></trkpt><trkpt lat="35.988373576760125" lon="-107.07198021520679"><ele>2123.0</ele><time>2026-05-03T15:15:15.001Z</time></trkpt><trkpt lat="35.98850066178674" lon="-107.07204757504626"><ele>2123.0</ele><time>2026-05-03T15:15:16.001Z</time></trkpt><trkpt lat="35.98861070987262" lon="-107.07212250571811"><ele>2123.0</ele><time>2026-05-03T15:15:17.001Z</time></trkpt><trkpt lat="35.98872407958849" lon="-107.07218881879636"><ele>2123.0</ele><time>2026-05-03T15:15:18.001Z</time></trkpt><trkpt lat="35.988852018214075" lon="-107.07224810687403"><ele>2123.0</ele><time>2026-05-03T15:15:19.001Z</time></trkpt><trkpt lat="35.98896679972305" lon="-107.0722914639367"><ele>2123.0</ele><time>2026-05-03T15:15:20.001Z</time></trkpt><trkpt lat="35.98905531126354" lon="-107.07236250624437"><ele>2123.0</ele><time>2026-05-03T15:15:21.001Z</time></trkpt><trkpt lat="35.98915096344006" lon="-107.07245775042242"><ele>2123.0</ele><time>2026-05-03T15:15:22.001Z</time></trkpt><trkpt lat="35.989286956467744" lon="-107.07253504645426"><ele>2123.2000000000003</ele><time>2026-05-03T15:15:23.001Z</time></trkpt><trkpt lat="35.989408353628185" lon="-107.07259216098642"><ele>2123.4</ele><time>2026-05-03T15:15:24.001Z</time></trkpt><trkpt lat="35.989487900694755" lon="-107.07262565542275"><ele>2123.6000000000004</ele><time>2026-05-03T15:15:25.001Z</time></trkpt><trkpt lat="35.98957099789325" lon="-107.07265795214742"><ele>2123.8</ele><time>2026-05-03T15:15:26.001Z</time></trkpt><trkpt lat="35.98969328495461" lon="-107.07271041110207"><ele>2124.0</ele><time>2026-05-03T15:15:27.001Z</time></trkpt><trkpt lat="35.98985023802036" lon="-107.07279106641259"><ele>2124.0</ele><time>2026-05-03T15:15:28.001Z</time></trkpt><trkpt lat="35.98996602257373" lon="-107.07286104437182"><ele>2124.0</ele><time>2026-05-03T15:15:29.001Z</time></trkpt><trkpt lat="35.99006116822662" lon="-107.0729218484456"><ele>2124.0</ele><time>2026-05-03T15:15:30.001Z</time></trkpt><trkpt lat="35.990170331408095" lon="-107.07299786595311"><ele>2124.0</ele><time>2026-05-03T15:15:31.001Z</time></trkpt><trkpt lat="35.99027593943451" lon="-107.07307695912966"><ele>2124.2</ele><time>2026-05-03T15:15:32.001Z</time></trkpt><trkpt lat="35.990372033241165" lon="-107.073136153921"><ele>2124.4</ele><time>2026-05-03T15:15:33.001Z</time></trkpt><trkpt lat="35.99046157218617" lon="-107.0731901031961"><ele>2124.6</ele><time>2026-05-03T15:15:34.001Z</time></trkpt><trkpt lat="35.99055156855765" lon="-107.07324273105372"><ele>2124.8</ele><time>2026-05-03T15:15:35.001Z</time></trkpt><trkpt lat="35.990632040030576" lon="-107.07328530115132"><ele>2125.0</ele><time>2026-05-03T15:15:36.001Z</time></trkpt><trkpt lat="35.990700983448825" lon="-107.07332626923242"><ele>2125.8</ele><time>2026-05-03T15:15:37.001Z</time></trkpt><trkpt lat="35.99077972358466" lon="-107.073383188172"><ele>2126.6</ele><time>2026-05-03T15:15:38.001Z</time></trkpt><trkpt lat="35.99087218949344" lon="-107.07343827588187"><ele>2127.4</ele><time>2026-05-03T15:15:39.001Z</time></trkpt><trkpt lat="35.99097418701067" lon="-107.07348464245725"><ele>2128.2</ele><time>2026-05-03T15:15:40.001Z</time></trkpt><trkpt lat="35.9910813019306" lon="-107.07352763698948"><ele>2129.0</ele><time>2026-05-03T15:15:41.001Z</time></trkpt><trkpt lat="35.99120445851116" lon="-107.07359262696464"><ele>2131.0</ele><time>2026-05-03T15:15:42.001Z</time></trkpt><trkpt lat="35.9913581748132" lon="-107.07368548774019"><ele>2133.0</ele><time>2026-05-03T15:15:43.001Z</time></trkpt><trkpt lat="35.991500127045065" lon="-107.07377842079622"><ele>2135.0</ele><time>2026-05-03T15:15:44Z</time></trkpt><trkpt lat="35.99159201631809" lon="-107.07383899771673"><ele>2137.0</ele><time>2026-05-03T15:15:45Z</time></trkpt><trkpt lat="35.99164608020799" lon="-107.07393202821383"><ele>2137.25</ele><time>2026-05-03T15:15:46Z</time></trkpt><trkpt lat="35.99167837025897" lon="-107.07406018813958"><ele>2137.5</ele><time>2026-05-03T15:15:47Z</time></trkpt><trkpt lat="35.9916990049631" lon="-107.07422050201424"><ele>2137.75</ele><time>2026-05-03T15:15:48Z</time></trkpt><trkpt lat="35.991712810636926" lon="-107.07440308091702"><ele>2138.0</ele><time>2026-05-03T15:15:49Z</time></trkpt><trkpt lat="35.99174765525771" lon="-107.07457102131903"><ele>2137.0</ele><time>2026-05-03T15:15:50Z</time></trkpt><trkpt lat="35.99181322671628" lon="-107.07473665116011"><ele>2136.0</ele><time>2026-05-03T15:15:51Z</time></trkpt><trkpt lat="35.99188401024044" lon="-107.07488725619835"><ele>2135.0</ele><time>2026-05-03T15:15:52Z</time></trkpt><trkpt lat="35.99195669714674" lon="-107.07502851332377"><ele>2134.0</ele><time>2026-05-03T15:15:53Z</time></trkpt><trkpt lat="35.99205960627082" lon="-107.07515896312165"><ele>2132.666666666667</ele><time>2026-05-03T15:15:54Z</time></trkpt><trkpt lat="35.992190081375504" lon="-107.07530227185353"><ele>2131.3333333333335</ele><time>2026-05-03T15:15:55Z</time></trkpt><trkpt lat="35.99233771675665" lon="-107.0754608050143"><ele>2130.0</ele><time>2026-05-03T15:15:56Z</time></trkpt><trkpt lat="35.99246554236785" lon="-107.07560845736519"><ele>2129.2</ele><time>2026-05-03T15:15:57Z</time></trkpt><trkpt lat="35.992563450647665" lon="-107.0757254131122"><ele>2128.4</ele><time>2026-05-03T15:15:58Z</time></trkpt><trkpt lat="35.992642420028304" lon="-107.07582684977208"><ele>2127.6</ele><time>2026-05-03T15:15:59Z</time></trkpt><trkpt lat="35.9927112563094" lon="-107.07591931801556"><ele>2126.8</ele><time>2026-05-03T15:16:00Z</time></trkpt><trkpt lat="35.99276117309019" lon="-107.07599191461767"><ele>2126.0</ele><time>2026-05-03T15:16:01Z</time></trkpt><trkpt lat="35.992795859144664" lon="-107.0760667180984"><ele>2126.2</ele><time>2026-05-03T15:16:03Z</time></trkpt><trkpt lat="35.99273026543934" lon="-107.07611047590656"><ele>2126.3999999999996</ele><time>2026-05-03T15:16:05Z</time></trkpt><trkpt lat="35.99266420722583" lon="-107.07606664900416"><ele>2126.6</ele><time>2026-05-03T15:16:06Z</time></trkpt><trkpt lat="35.9925899352358" lon="-107.07596329784779"><ele>2126.7999999999997</ele><time>2026-05-03T15:16:07Z</time></trkpt><trkpt lat="35.99249012303448" lon="-107.07585439750795"><ele>2127.0</ele><time>2026-05-03T15:16:08Z</time></trkpt><trkpt lat="35.992378377178106" lon="-107.07573189031312"><ele>2127.75</ele><time>2026-05-03T15:16:09Z</time></trkpt><trkpt lat="35.99227111009928" lon="-107.07562832237038"><ele>2128.5</ele><time>2026-05-03T15:16:10Z</time></trkpt><trkpt lat="35.9921882289592" lon="-107.07553865944053"><ele>2129.25</ele><time>2026-05-03T15:16:11Z</time></trkpt><trkpt lat="35.99210909030898" lon="-107.07544798569867"><ele>2130.0</ele><time>2026-05-03T15:16:12Z</time></trkpt><trkpt lat="35.99203320735545" lon="-107.07534057184897"><ele>2130.0</ele><time>2026-05-03T15:16:13Z</time></trkpt><trkpt lat="35.99195295325132" lon="-107.07524188986238"><ele>2130.0</ele><time>2026-05-03T15:16:14Z</time></trkpt><trkpt lat="35.99189525809444" lon="-107.07517360449607"><ele>2130.0</ele><time>2026-05-03T15:16:15Z</time></trkpt><trkpt lat="35.991854328733424" lon="-107.07510782252874"><ele>2130.0</ele><time>2026-05-03T15:16:16Z</time></trkpt><trkpt lat="35.99178615548561" lon="-107.07504834156299"><ele>2130.0</ele><time>2026-05-03T15:16:17Z</time></trkpt><trkpt lat="35.9917014245261" lon="-107.07501490949437"><ele>2130.0</ele><time>2026-05-03T15:16:18Z</time></trkpt><trkpt lat="35.99163048250853" lon="-107.07501352485428"><ele>2131.4</ele><time>2026-05-03T15:16:19Z</time></trkpt><trkpt lat="35.991515632324855" lon="-107.07492966127381"><ele>2132.8</ele><time>2026-05-03T15:16:21Z</time></trkpt><trkpt lat="35.99142225696507" lon="-107.07483525320072"><ele>2134.2</ele><time>2026-05-03T15:16:23Z</time></trkpt><trkpt lat="35.99136577100078" lon="-107.07478992831915"><ele>2135.6</ele><time>2026-05-03T15:16:24Z</time></trkpt><trkpt lat="35.99127532821511" lon="-107.07475238982482"><ele>2137.0</ele><time>2026-05-03T15:16:26Z</time></trkpt><trkpt lat="35.99121340827853" lon="-107.07476982767007"><ele>2137.0</ele><time>2026-05-03T15:16:29Z</time></trkpt><trkpt lat="35.99116527185728" lon="-107.07492561066705"><ele>2137.0</ele><time>2026-05-03T15:16:31Z</time></trkpt><trkpt lat="35.99115834724226" lon="-107.0750469884953"><ele>2137.0</ele><time>2026-05-03T15:16:32Z</time></trkpt><trkpt lat="35.9911235097755" lon="-107.0751822157245"><ele>2137.0</ele><time>2026-05-03T15:16:33Z</time></trkpt><trkpt lat="35.99105760323032" lon="-107.0752869150443"><ele>2137.0</ele><time>2026-05-03T15:16:34Z</time></trkpt><trkpt lat="35.990978452843756" lon="-107.0753649614647"><ele>2137.0</ele><time>2026-05-03T15:16:35Z</time></trkpt><trkpt lat="35.990880403528834" lon="-107.07541871896642"><ele>2137.0</ele><time>2026-05-03T15:16:36Z</time></trkpt><trkpt lat="35.990801240262115" lon="-107.07547039189623"><ele>2137.0</ele><time>2026-05-03T15:16:37Z</time></trkpt><trkpt lat="35.99071054678333" lon="-107.07552377260244"><ele>2137.0</ele><time>2026-05-03T15:16:38Z</time></trkpt><trkpt lat="35.99060763370171" lon="-107.07554605981846"><ele>2137.0</ele><time>2026-05-03T15:16:39Z</time></trkpt><trkpt lat="35.99051547950673" lon="-107.0755835474476"><ele>2137.0</ele><time>2026-05-03T15:16:40Z</time></trkpt><trkpt lat="35.990464309431324" lon="-107.07563899895763"><ele>2137.0</ele><time>2026-05-03T15:16:41Z</time></trkpt><trkpt lat="35.99042723261218" lon="-107.07571549746235"><ele>2137.0</ele><time>2026-05-03T15:16:42Z</time></trkpt><trkpt lat="35.9903817349635" lon="-107.07581829699203"><ele>2137.0</ele><time>2026-05-03T15:16:43Z</time></trkpt><trkpt lat="35.99031658068047" lon="-107.07592197316801"><ele>2137.0</ele><time>2026-05-03T15:16:44Z</time></trkpt><trkpt lat="35.99023710711117" lon="-107.07601255764843"><ele>2138.7999999999997</ele><time>2026-05-03T15:16:45Z</time></trkpt><trkpt lat="35.990177379766095" lon="-107.076095584541"><ele>2140.6</ele><time>2026-05-03T15:16:46Z</time></trkpt><trkpt lat="35.990135936431315" lon="-107.07617363392113"><ele>2142.3999999999996</ele><time>2026-05-03T15:16:47Z</time></trkpt><trkpt lat="35.990064236822995" lon="-107.07627193842006"><ele>2144.2</ele><time>2026-05-03T15:16:48Z</time></trkpt><trkpt lat="35.99000714529755" lon="-107.07638174920513"><ele>2146.0</ele><time>2026-05-03T15:16:49Z</time></trkpt><trkpt lat="35.98998547217992" lon="-107.07649144029992"><ele>2146.2</ele><time>2026-05-03T15:16:50Z</time></trkpt><trkpt lat="35.98995158071782" lon="-107.0765888078092"><ele>2146.3999999999996</ele><time>2026-05-03T15:16:51Z</time></trkpt><trkpt lat="35.98988346828306" lon="-107.07666289704959"><ele>2146.6</ele><time>2026-05-03T15:16:52Z</time></trkpt><trkpt lat="35.98980133011948" lon="-107.07671584936548"><ele>2146.7999999999997</ele><time>2026-05-03T15:16:53Z</time></trkpt><trkpt lat="35.989704596855795" lon="-107.07676832600575"><ele>2147.0</ele><time>2026-05-03T15:16:54Z</time></trkpt><trkpt lat="35.989635597800465" lon="-107.07683359149905"><ele>2147.833333333333</ele><time>2026-05-03T15:16:55Z</time></trkpt><trkpt lat="35.989590722313004" lon="-107.07690897782591"><ele>2148.6666666666665</ele><time>2026-05-03T15:16:56Z</time></trkpt><trkpt lat="35.98955646531486" lon="-107.0769921748038"><ele>2149.5</ele><time>2026-05-03T15:16:57Z</time></trkpt><trkpt lat="35.989524525997204" lon="-107.07706701088594"><ele>2150.3333333333335</ele><time>2026-05-03T15:16:58Z</time></trkpt><trkpt lat="35.98946990844626" lon="-107.07711736067981"><ele>2151.166666666667</ele><time>2026-05-03T15:16:59Z</time></trkpt><trkpt lat="35.98934569798594" lon="-107.07712047971515"><ele>2152.0</ele><time>2026-05-03T15:17:01Z</time></trkpt><trkpt lat="35.98926283372941" lon="-107.07710148803679"><ele>2152.0</ele><time>2026-05-03T15:17:02Z</time></trkpt><trkpt lat="35.98916021780455" lon="-107.0771529052394"><ele>2152.0</ele><time>2026-05-03T15:17:04Z</time></trkpt><trkpt lat="35.98906925108559" lon="-107.07717821627433"><ele>2152.0</ele><time>2026-05-03T15:17:05Z</time></trkpt><trkpt lat="35.989007121619004" lon="-107.07715646789347"><ele>2152.0</ele><time>2026-05-03T15:17:06Z</time></trkpt><trkpt lat="35.98893730874797" lon="-107.07710110191432"><ele>2152.0</ele><time>2026-05-03T15:17:07Z</time></trkpt><trkpt lat="35.9888756928496" lon="-107.07705101108442"><ele>2152.0</ele><time>2026-05-03T15:17:08Z</time></trkpt><trkpt lat="35.98881872221819" lon="-107.07701303488786"><ele>2152.0</ele><time>2026-05-03T15:17:09Z</time></trkpt><trkpt lat="35.988720002411306" lon="-107.07695687256104"><ele>2152.0</ele><time>2026-05-03T15:17:11Z</time></trkpt><trkpt lat="35.9885907243071" lon="-107.07697140652179"><ele>2152.0</ele><time>2026-05-03T15:17:13Z</time></trkpt><trkpt lat="35.98852210819444" lon="-107.07692753601184"><ele>2152.0</ele><time>2026-05-03T15:17:14.001Z</time></trkpt><trkpt lat="35.98845046166913" lon="-107.07688371458585"><ele>2152.0</ele><time>2026-05-03T15:17:15.001Z</time></trkpt><trkpt lat="35.98838251940545" lon="-107.07685298871185"><ele>2151.666666666667</ele><time>2026-05-03T15:17:16.001Z</time></trkpt><trkpt lat="35.98832266338034" lon="-107.07680823662308"><ele>2151.3333333333335</ele><time>2026-05-03T15:17:17.001Z</time></trkpt><trkpt lat="35.98824661179112" lon="-107.07675004303992"><ele>2151.0</ele><time>2026-05-03T15:17:18.001Z</time></trkpt><trkpt lat="35.988165196719514" lon="-107.07668827033052"><ele>2150.6666666666665</ele><time>2026-05-03T15:17:19.001Z</time></trkpt><trkpt lat="35.98809370748867" lon="-107.07663163004379"><ele>2150.333333333333</ele><time>2026-05-03T15:17:20.001Z</time></trkpt><trkpt lat="35.98800295232501" lon="-107.07656432715811"><ele>2150.0</ele><time>2026-05-03T15:17:21.001Z</time></trkpt><trkpt lat="35.98789375000436" lon="-107.07650616172123"><ele>2150.0</ele><time>2026-05-03T15:17:22.001Z</time></trkpt><trkpt lat="35.98776856795057" lon="-107.0764511518269"><ele>2150.0</ele><time>2026-05-03T15:17:23.001Z</time></trkpt><trkpt lat="35.987667215552214" lon="-107.076386627044"><ele>2150.0</ele><time>2026-05-03T15:17:24.001Z</time></trkpt><trkpt lat="35.98757277756428" lon="-107.07630902200547"><ele>2150.0</ele><time>2026-05-03T15:17:25.001Z</time></trkpt><trkpt lat="35.987480853219154" lon="-107.07625017397736"><ele>2152.1666666666665</ele><time>2026-05-03T15:17:26.001Z</time></trkpt><trkpt lat="35.98740788790895" lon="-107.07621022955651"><ele>2154.333333333333</ele><time>2026-05-03T15:17:27.001Z</time></trkpt><trkpt lat="35.9873385357606" lon="-107.07615078903959"><ele>2156.5</ele><time>2026-05-03T15:17:28.001Z</time></trkpt><trkpt lat="35.98728404901582" lon="-107.07606779718036"><ele>2158.6666666666665</ele><time>2026-05-03T15:17:29.001Z</time></trkpt><trkpt lat="35.98724599791386" lon="-107.07599602349244"><ele>2160.8333333333335</ele><time>2026-05-03T15:17:30.001Z</time></trkpt><trkpt lat="35.9871911520833" lon="-107.07595201375308"><ele>2163.0</ele><time>2026-05-03T15:17:31.001Z</time></trkpt><trkpt lat="35.9870948452275" lon="-107.07591748041986"><ele>2163.0</ele><time>2026-05-03T15:17:32.001Z</time></trkpt><trkpt lat="35.98696947685572" lon="-107.07586089025553"><ele>2163.0</ele><time>2026-05-03T15:17:33.001Z</time></trkpt><trkpt lat="35.986871287896506" lon="-107.07579760730057"><ele>2163.0</ele><time>2026-05-03T15:17:34.001Z</time></trkpt><trkpt lat="35.98679912402368" lon="-107.07576009875713"><ele>2163.0</ele><time>2026-05-03T15:17:35.001Z</time></trkpt><trkpt lat="35.98670539036392" lon="-107.07570537858868"><ele>2163.0</ele><time>2026-05-03T15:17:36.001Z</time></trkpt><trkpt lat="35.98660908119385" lon="-107.07564345887732"><ele>2162.6</ele><time>2026-05-03T15:17:37.001Z</time></trkpt><trkpt lat="35.98651583886118" lon="-107.07559076346031"><ele>2162.2000000000003</ele><time>2026-05-03T15:17:38.001Z</time></trkpt><trkpt lat="35.9864221312199" lon="-107.07554342407155"><ele>2161.8</ele><time>2026-05-03T15:17:39.001Z</time></trkpt><trkpt lat="35.98632772841624" lon="-107.07549770255201"><ele>2161.4</ele><time>2026-05-03T15:17:40.001Z</time></trkpt><trkpt lat="35.98622917412852" lon="-107.07542488050491"><ele>2161.0</ele><time>2026-05-03T15:17:41.001Z</time></trkpt><trkpt lat="35.98615017185587" lon="-107.0753757354083"><ele>2161.0</ele><time>2026-05-03T15:17:42.001Z</time></trkpt><trkpt lat="35.986078458001856" lon="-107.07531768527457"><ele>2161.0</ele><time>2026-05-03T15:17:43.001Z</time></trkpt><trkpt lat="35.98600570676192" lon="-107.0752500033328"><ele>2161.0</ele><time>2026-05-03T15:17:44.001Z</time></trkpt><trkpt lat="35.98591183696846" lon="-107.07518021419483"><ele>2161.0</ele><time>2026-05-03T15:17:45.001Z</time></trkpt><trkpt lat="35.98580930773159" lon="-107.07511140749375"><ele>2161.0</ele><time>2026-05-03T15:17:46.001Z</time></trkpt><trkpt lat="35.985725958830635" lon="-107.07506962054782"><ele>2160.8</ele><time>2026-05-03T15:17:47.001Z</time></trkpt><trkpt lat="35.98564409783434" lon="-107.07503729702347"><ele>2160.6</ele><time>2026-05-03T15:17:48.001Z</time></trkpt><trkpt lat="35.98554870401199" lon="-107.07499788826905"><ele>2160.4</ele><time>2026-05-03T15:17:49.001Z</time></trkpt><trkpt lat="35.985459108022376" lon="-107.07496872096452"><ele>2160.2</ele><time>2026-05-03T15:17:50Z</time></trkpt><trkpt lat="35.98535661831736" lon="-107.07496929270722"><ele>2160.0</ele><time>2026-05-03T15:17:51Z</time></trkpt><trkpt lat="35.98525302020792" lon="-107.07498973835705"><ele>2160.0</ele><time>2026-05-03T15:17:52Z</time></trkpt><trkpt lat="35.98515639224003" lon="-107.07498502915952"><ele>2160.0</ele><time>2026-05-03T15:17:53Z</time></trkpt><trkpt lat="35.985082519896274" lon="-107.07495709222209"><ele>2160.0</ele><time>2026-05-03T15:17:54Z</time></trkpt><trkpt lat="35.98501295388682" lon="-107.07503684638257"><ele>2160.0</ele><time>2026-05-03T15:17:56Z</time></trkpt><trkpt lat="35.98502557113348" lon="-107.07514483882227"><ele>2160.0</ele><time>2026-05-03T15:17:57Z</time></trkpt><trkpt lat="35.98506916560857" lon="-107.07529454671858"><ele>2160.0</ele><time>2026-05-03T15:17:58Z</time></trkpt><trkpt lat="35.98510296695889" lon="-107.07545892361397"><ele>2160.0</ele><time>2026-05-03T15:17:59Z</time></trkpt><trkpt lat="35.9851191627204" lon="-107.07559869488209"><ele>2160.0</ele><time>2026-05-03T15:18:00Z</time></trkpt><trkpt lat="35.98513835488169" lon="-107.07574113867392"><ele>2160.0</ele><time>2026-05-03T15:18:01Z</time></trkpt><trkpt lat="35.98515313209783" lon="-107.0758709051113"><ele>2159.75</ele><time>2026-05-03T15:18:02Z</time></trkpt><trkpt lat="35.9851603546521" lon="-107.0760073721644"><ele>2159.5</ele><time>2026-05-03T15:18:03Z</time></trkpt><trkpt lat="35.98517165312167" lon="-107.076154688791"><ele>2159.25</ele><time>2026-05-03T15:18:04Z</time></trkpt><trkpt lat="35.98517809948988" lon="-107.07630748935199"><ele>2159.0</ele><time>2026-05-03T15:18:05Z</time></trkpt><trkpt lat="35.98517093906499" lon="-107.07644909115936"><ele>2159.0</ele><time>2026-05-03T15:18:06Z</time></trkpt><trkpt lat="35.985175887229516" lon="-107.07658950804117"><ele>2159.0</ele><time>2026-05-03T15:18:07Z</time></trkpt><trkpt lat="35.98518622220527" lon="-107.0767283901095"><ele>2159.0</ele><time>2026-05-03T15:18:08Z</time></trkpt><trkpt lat="35.98520140711457" lon="-107.07685655101832"><ele>2159.0</ele><time>2026-05-03T15:18:09Z</time></trkpt><trkpt lat="35.98521074476002" lon="-107.0769979386307"><ele>2159.0</ele><time>2026-05-03T15:18:10Z</time></trkpt><trkpt lat="35.98522460014082" lon="-107.077145164242"><ele>2158.25</ele><time>2026-05-03T15:18:11Z</time></trkpt><trkpt lat="35.98523042615681" lon="-107.07728961448376"><ele>2157.5</ele><time>2026-05-03T15:18:12Z</time></trkpt><trkpt lat="35.98523489093803" lon="-107.07743812577317"><ele>2156.75</ele><time>2026-05-03T15:18:13Z</time></trkpt><trkpt lat="35.98524452865717" lon="-107.07758753550672"><ele>2156.0</ele><time>2026-05-03T15:18:14Z</time></trkpt><trkpt lat="35.98525802803625" lon="-107.07772953699333"><ele>2156.0</ele><time>2026-05-03T15:18:15Z</time></trkpt><trkpt lat="35.985268461031886" lon="-107.07786734851265"><ele>2156.0</ele><time>2026-05-03T15:18:16Z</time></trkpt><trkpt lat="35.98528186305967" lon="-107.07800933585636"><ele>2156.0</ele><time>2026-05-03T15:18:17Z</time></trkpt><trkpt lat="35.98529355705333" lon="-107.0781468638348"><ele>2156.0</ele><time>2026-05-03T15:18:18Z</time></trkpt><trkpt lat="35.98530460234235" lon="-107.07827557711418"><ele>2156.0</ele><time>2026-05-03T15:18:19Z</time></trkpt><trkpt lat="35.985313087662405" lon="-107.07840290421902"><ele>2156.2</ele><time>2026-05-03T15:18:20Z</time></trkpt><trkpt lat="35.985319375014186" lon="-107.07852695348437"><ele>2156.3999999999996</ele><time>2026-05-03T15:18:21Z</time></trkpt><trkpt lat="35.98532299751569" lon="-107.07866246618053"><ele>2156.6</ele><time>2026-05-03T15:18:22Z</time></trkpt><trkpt lat="35.98532431869205" lon="-107.07879223012218"><ele>2156.7999999999997</ele><time>2026-05-03T15:18:23Z</time></trkpt><trkpt lat="35.98532795252138" lon="-107.07892805045606"><ele>2157.0</ele><time>2026-05-03T15:18:24Z</time></trkpt><trkpt lat="35.9853338228013" lon="-107.07906205582904"><ele>2156.5</ele><time>2026-05-03T15:18:25Z</time></trkpt><trkpt lat="35.98533842574591" lon="-107.07919452169457"><ele>2156.0</ele><time>2026-05-03T15:18:26Z</time></trkpt><trkpt lat="35.985348410173046" lon="-107.07933784957385"><ele>2155.5</ele><time>2026-05-03T15:18:27Z</time></trkpt><trkpt lat="35.985359824187945" lon="-107.07948946483475"><ele>2155.0</ele><time>2026-05-03T15:18:28Z</time></trkpt><trkpt lat="35.98537094607311" lon="-107.0796437732567"><ele>2155.0</ele><time>2026-05-03T15:18:29Z</time></trkpt><trkpt lat="35.985377471821664" lon="-107.07978159727323"><ele>2155.0</ele><time>2026-05-03T15:18:30Z</time></trkpt><trkpt lat="35.98537749303789" lon="-107.07989997144517"><ele>2155.0</ele><time>2026-05-03T15:18:31Z</time></trkpt><trkpt lat="35.985379095890686" lon="-107.08000192647195"><ele>2155.0</ele><time>2026-05-03T15:18:32Z</time></trkpt><trkpt lat="35.98539454222179" lon="-107.08008651584538"><ele>2155.0</ele><time>2026-05-03T15:18:33Z</time></trkpt><trkpt lat="35.985486393459325" lon="-107.08019160822111"><ele>2155.0</ele><time>2026-05-03T15:18:35Z</time></trkpt><trkpt lat="35.98557677444227" lon="-107.08020047294593"><ele>2155.0</ele><time>2026-05-03T15:18:36Z</time></trkpt><trkpt lat="35.985710452784645" lon="-107.08019295033036"><ele>2155.0</ele><time>2026-05-03T15:18:37Z</time></trkpt><trkpt lat="35.98585475390682" lon="-107.08018401447397"><ele>2155.0</ele><time>2026-05-03T15:18:38Z</time></trkpt><trkpt lat="35.98597887808004" lon="-107.08017322121025"><ele>2156.0</ele><time>2026-05-03T15:18:39Z</time></trkpt><trkpt lat="35.98606486907186" lon="-107.08017051113049"><ele>2157.0</ele><time>2026-05-03T15:18:40Z</time></trkpt><trkpt lat="35.98616057454224" lon="-107.08018639500372"><ele>2158.0</ele><time>2026-05-03T15:18:41Z</time></trkpt><trkpt lat="35.98624995858701" lon="-107.08021834369157"><ele>2159.0</ele><time>2026-05-03T15:18:42Z</time></trkpt><trkpt lat="35.986332868857986" lon="-107.08026695329282"><ele>2160.0</ele><time>2026-05-03T15:18:43Z</time></trkpt><trkpt lat="35.986437409817725" lon="-107.08029959896344"><ele>2160.0</ele><time>2026-05-03T15:18:44Z</time></trkpt><trkpt lat="35.986540241167305" lon="-107.08031784666832"><ele>2160.0</ele><time>2026-05-03T15:18:45Z</time></trkpt><trkpt lat="35.98663244379341" lon="-107.08036315110904"><ele>2160.0</ele><time>2026-05-03T15:18:46Z</time></trkpt><trkpt lat="35.98673823220193" lon="-107.08041475875935"><ele>2160.0</ele><time>2026-05-03T15:18:47Z</time></trkpt><trkpt lat="35.986820335882655" lon="-107.0804205587466"><ele>2160.0</ele><time>2026-05-03T15:18:48Z</time></trkpt><trkpt lat="35.98688403890348" lon="-107.08040408594523"><ele>2160.0</ele><time>2026-05-03T15:18:49Z</time></trkpt><trkpt lat="35.98697935802902" lon="-107.08049937003689"><ele>2160.0</ele><time>2026-05-03T15:18:51Z</time></trkpt><trkpt lat="35.987020998898096" lon="-107.08064378126738"><ele>2160.0</ele><time>2026-05-03T15:18:52Z</time></trkpt><trkpt lat="35.98707791366441" lon="-107.08079739973249"><ele>2160.0</ele><time>2026-05-03T15:18:53Z</time></trkpt><trkpt lat="35.98715668344986" lon="-107.08091041680453"><ele>2159.4</ele><time>2026-05-03T15:18:54Z</time></trkpt><trkpt lat="35.98724201787736" lon="-107.08101691638869"><ele>2158.8</ele><time>2026-05-03T15:18:55Z</time></trkpt><trkpt lat="35.98730225475867" lon="-107.08111062407079"><ele>2158.2</ele><time>2026-05-03T15:18:56Z</time></trkpt><trkpt lat="35.98734478365187" lon="-107.08119406158035"><ele>2157.6</ele><time>2026-05-03T15:18:57Z</time></trkpt><trkpt lat="35.98735135322795" lon="-107.08132518538822"><ele>2157.0</ele><time>2026-05-03T15:18:59Z</time></trkpt><trkpt lat="35.987314628785306" lon="-107.08141364855724"><ele>2157.0</ele><time>2026-05-03T15:19:00Z</time></trkpt><trkpt lat="35.98726641695932" lon="-107.0815289405899"><ele>2157.0</ele><time>2026-05-03T15:19:01Z</time></trkpt><trkpt lat="35.9872272888318" lon="-107.0816850937994"><ele>2157.0</ele><time>2026-05-03T15:19:02Z</time></trkpt><trkpt lat="35.98721422383425" lon="-107.08184347699847"><ele>2157.0</ele><time>2026-05-03T15:19:03Z</time></trkpt><trkpt lat="35.98721100029932" lon="-107.08198772598139"><ele>2156.8333333333335</ele><time>2026-05-03T15:19:04Z</time></trkpt><trkpt lat="35.98719392708647" lon="-107.08210599804637"><ele>2156.6666666666665</ele><time>2026-05-03T15:19:05Z</time></trkpt><trkpt lat="35.98718825584309" lon="-107.08220697188781"><ele>2156.5</ele><time>2026-05-03T15:19:06Z</time></trkpt><trkpt lat="35.98721384913212" lon="-107.08230658413376"><ele>2156.333333333333</ele><time>2026-05-03T15:19:07Z</time></trkpt><trkpt lat="35.987268824301744" lon="-107.08238709184029"><ele>2156.1666666666665</ele><time>2026-05-03T15:19:09Z</time></trkpt><trkpt lat="35.98733293645815" lon="-107.08243850079118"><ele>2156.0</ele><time>2026-05-03T15:19:10Z</time></trkpt><trkpt lat="35.98740739271233" lon="-107.08248336562846"><ele>2155.2</ele><time>2026-05-03T15:19:11Z</time></trkpt><trkpt lat="35.98745564724449" lon="-107.08263301158509"><ele>2154.3999999999996</ele><time>2026-05-03T15:19:13Z</time></trkpt><trkpt lat="35.9874887821072" lon="-107.08273696654473"><ele>2153.6</ele><time>2026-05-03T15:19:14Z</time></trkpt><trkpt lat="35.98755472289466" lon="-107.08285779543574"><ele>2152.7999999999997</ele><time>2026-05-03T15:19:16Z</time></trkpt><trkpt lat="35.987546385875326" lon="-107.0829561938271"><ele>2152.0</ele><time>2026-05-03T15:19:17Z</time></trkpt><trkpt lat="35.98754081465819" lon="-107.08303790399482"><ele>2151.3333333333335</ele><time>2026-05-03T15:19:18Z</time></trkpt><trkpt lat="35.987660649597686" lon="-107.08304254985147"><ele>2150.666666666667</ele><time>2026-05-03T15:19:20Z</time></trkpt><trkpt lat="35.987749712944094" lon="-107.08303587376108"><ele>2150.0</ele><time>2026-05-03T15:19:21Z</time></trkpt><trkpt lat="35.98779507975302" lon="-107.08309469731694"><ele>2149.3333333333335</ele><time>2026-05-03T15:19:23.001Z</time></trkpt><trkpt lat="35.9877964742735" lon="-107.08318323239102"><ele>2148.6666666666665</ele><time>2026-05-03T15:19:24.001Z</time></trkpt><trkpt lat="35.987833923018314" lon="-107.08326001290068"><ele>2148.0</ele><time>2026-05-03T15:19:25.001Z</time></trkpt><trkpt lat="35.98788789509437" lon="-107.08335532339434"><ele>2147.0</ele><time>2026-05-03T15:19:27.001Z</time></trkpt><trkpt lat="35.98800247911977" lon="-107.08353213525777"><ele>2146.0</ele><time>2026-05-03T15:19:30.001Z</time></trkpt><trkpt lat="35.98806809596568" lon="-107.08358127993215"><ele>2145.0</ele><time>2026-05-03T15:19:32.001Z</time></trkpt><trkpt lat="35.98814337935025" lon="-107.08355349481097"><ele>2144.0</ele><time>2026-05-03T15:19:33.001Z</time></trkpt><trkpt lat="35.98821057352832" lon="-107.08355005366867"><ele>2143.0</ele><time>2026-05-03T15:19:34.001Z</time></trkpt><trkpt lat="35.98829331464032" lon="-107.08356195597734"><ele>2143.166666666667</ele><time>2026-05-03T15:19:35.001Z</time></trkpt><trkpt lat="35.98836820665909" lon="-107.08356815461158"><ele>2143.3333333333335</ele><time>2026-05-03T15:19:36.001Z</time></trkpt><trkpt lat="35.98844113337365" lon="-107.0835843784865"><ele>2143.5</ele><time>2026-05-03T15:19:37.001Z</time></trkpt><trkpt lat="35.98852121164775" lon="-107.08366607497463"><ele>2143.6666666666665</ele><time>2026-05-03T15:19:39.001Z</time></trkpt><trkpt lat="35.98860024827578" lon="-107.08367870672453"><ele>2143.833333333333</ele><time>2026-05-03T15:19:41.001Z</time></trkpt><trkpt lat="35.98871060022276" lon="-107.0836975960013"><ele>2144.0</ele><time>2026-05-03T15:19:43.001Z</time></trkpt><trkpt lat="35.98877509077264" lon="-107.08374798902528"><ele>2144.0</ele><time>2026-05-03T15:19:44.001Z</time></trkpt><trkpt lat="35.98883760431221" lon="-107.0838146595861"><ele>2144.0</ele><time>2026-05-03T15:19:45.001Z</time></trkpt><trkpt lat="35.98889640051053" lon="-107.08386956595459"><ele>2144.0</ele><time>2026-05-03T15:19:46.001Z</time></trkpt><trkpt lat="35.98898651181145" lon="-107.08389432091352"><ele>2144.0</ele><time>2026-05-03T15:19:48.001Z</time></trkpt><trkpt lat="35.98902303210278" lon="-107.08400677551805"><ele>2144.0</ele><time>2026-05-03T15:19:50.001Z</time></trkpt><trkpt lat="35.98902158675924" lon="-107.08410384067511"><ele>2144.0</ele><time>2026-05-03T15:19:52.001Z</time></trkpt><trkpt lat="35.98903772243373" lon="-107.08420820736565"><ele>2144.2</ele><time>2026-05-03T15:19:54.001Z</time></trkpt><trkpt lat="35.98912225130407" lon="-107.08430670031505"><ele>2144.4</ele><time>2026-05-03T15:19:56Z</time></trkpt><trkpt lat="35.98916646070264" lon="-107.08437304737446"><ele>2144.6</ele><time>2026-05-03T15:19:57Z</time></trkpt><trkpt lat="35.9891878452816" lon="-107.0845215608327"><ele>2144.8</ele><time>2026-05-03T15:19:59Z</time></trkpt><trkpt lat="35.9892402135492" lon="-107.08461538693095"><ele>2145.0</ele><time>2026-05-03T15:20:00Z</time></trkpt><trkpt lat="35.98929275566166" lon="-107.08467274956529"><ele>2145.0</ele><time>2026-05-03T15:20:01Z</time></trkpt><trkpt lat="35.98936584205437" lon="-107.08476721623533"><ele>2145.0</ele><time>2026-05-03T15:20:03Z</time></trkpt><trkpt lat="35.989374743454135" lon="-107.08485370634884"><ele>2145.0</ele><time>2026-05-03T15:20:05Z</time></trkpt><trkpt lat="35.98931444381437" lon="-107.0849360130174"><ele>2145.0</ele><time>2026-05-03T15:20:06Z</time></trkpt><trkpt lat="35.98923781943258" lon="-107.08501300547296"><ele>2145.0</ele><time>2026-05-03T15:20:07Z</time></trkpt><trkpt lat="35.98918043242756" lon="-107.08517534752174"><ele>2145.0</ele><time>2026-05-03T15:20:09Z</time></trkpt><trkpt lat="35.98913217475674" lon="-107.08523924893765"><ele>2145.0</ele><time>2026-05-03T15:20:10Z</time></trkpt><trkpt lat="35.98908105410673" lon="-107.08532638108726"><ele>2145.0</ele><time>2026-05-03T15:20:12Z</time></trkpt><trkpt lat="35.98905697298413" lon="-107.0854080865114"><ele>2145.0</ele><time>2026-05-03T15:20:13Z</time></trkpt><trkpt lat="35.988987560355994" lon="-107.08551773817332"><ele>2145.0</ele><time>2026-05-03T15:20:15Z</time></trkpt><trkpt lat="35.98891037458391" lon="-107.08560542902707"><ele>2145.0</ele><time>2026-05-03T15:20:16Z</time></trkpt><trkpt lat="35.988810468028255" lon="-107.08570771299019"><ele>2145.3333333333335</ele><time>2026-05-03T15:20:17Z</time></trkpt><trkpt lat="35.98873096316263" lon="-107.08577190203262"><ele>2145.6666666666665</ele><time>2026-05-03T15:20:18Z</time></trkpt><trkpt lat="35.98866492888231" lon="-107.08583871381101"><ele>2146.0</ele><time>2026-05-03T15:20:19Z</time></trkpt><trkpt lat="35.988591107825684" lon="-107.08590281771387"><ele>2146.333333333333</ele><time>2026-05-03T15:20:20Z</time></trkpt><trkpt lat="35.98852095141135" lon="-107.08598520673019"><ele>2146.6666666666665</ele><time>2026-05-03T15:20:21Z</time></trkpt><trkpt lat="35.98849741123878" lon="-107.08606216541477"><ele>2147.0</ele><time>2026-05-03T15:20:22Z</time></trkpt><trkpt lat="35.98849769899289" lon="-107.08614631460044"><ele>2147.0</ele><time>2026-05-03T15:20:23Z</time></trkpt><trkpt lat="35.988485825101066" lon="-107.08624917214138"><ele>2147.0</ele><time>2026-05-03T15:20:24Z</time></trkpt><trkpt lat="35.98842091238522" lon="-107.08634778548283"><ele>2147.0</ele><time>2026-05-03T15:20:25Z</time></trkpt><trkpt lat="35.98834607984359" lon="-107.08643999841095"><ele>2147.0</ele><time>2026-05-03T15:20:26Z</time></trkpt><trkpt lat="35.98831630754186" lon="-107.0865169259718"><ele>2147.0</ele><time>2026-05-03T15:20:27Z</time></trkpt><trkpt lat="35.9882311825603" lon="-107.08655693580785"><ele>2146.6</ele><time>2026-05-03T15:20:29Z</time></trkpt><trkpt lat="35.98822558958095" lon="-107.08666918871945"><ele>2146.2</ele><time>2026-05-03T15:20:31Z</time></trkpt><trkpt lat="35.988258728328205" lon="-107.08676112207817"><ele>2145.8</ele><time>2026-05-03T15:20:32Z</time></trkpt><trkpt lat="35.988361479456074" lon="-107.08679152230316"><ele>2145.4</ele><time>2026-05-03T15:20:34Z</time></trkpt><trkpt lat="35.98832911742609" lon="-107.0869577557806"><ele>2145.0</ele><time>2026-05-03T15:20:36Z</time></trkpt><trkpt lat="35.988267467198995" lon="-107.08708015347436"><ele>2146.0</ele><time>2026-05-03T15:20:37Z</time></trkpt><trkpt lat="35.98824803545273" lon="-107.08715919101861"><ele>2147.0</ele><time>2026-05-03T15:20:38Z</time></trkpt><trkpt lat="35.98818130694429" lon="-107.08725133826479"><ele>2148.0</ele><time>2026-05-03T15:20:40Z</time></trkpt><trkpt lat="35.9882318436522" lon="-107.08729995630478"><ele>2149.0</ele><time>2026-05-03T15:20:42Z</time></trkpt><trkpt lat="35.9882081324316" lon="-107.08740796893362"><ele>2150.0</ele><time>2026-05-03T15:20:44Z</time></trkpt><trkpt lat="35.98820851796023" lon="-107.08763940387611"><ele>2150.0000000000005</ele><time>2026-05-03T15:20:46Z</time></trkpt><trkpt lat="35.9881614364647" lon="-107.0877242288752"><ele>2150.0</ele><time>2026-05-03T15:20:47Z</time></trkpt><trkpt lat="35.98814199396002" lon="-107.08782031210977"><ele>2150.0</ele><time>2026-05-03T15:20:48Z</time></trkpt><trkpt lat="35.988143765196426" lon="-107.08790090061734"><ele>2150.0</ele><time>2026-05-03T15:20:49Z</time></trkpt><trkpt lat="35.988161563045985" lon="-107.08797865913452"><ele>2150.0</ele><time>2026-05-03T15:20:50Z</time></trkpt><trkpt lat="35.98816766430188" lon="-107.08805774223845"><ele>2150.0000000000005</ele><time>2026-05-03T15:20:51Z</time></trkpt><trkpt lat="35.98817569871562" lon="-107.08814516293418"><ele>2150.0</ele><time>2026-05-03T15:20:52Z</time></trkpt><trkpt lat="35.98819515626245" lon="-107.08823982369591"><ele>2149.833333333333</ele><time>2026-05-03T15:20:53Z</time></trkpt><trkpt lat="35.98821373110829" lon="-107.08831845682032"><ele>2149.6666666666665</ele><time>2026-05-03T15:20:54Z</time></trkpt><trkpt lat="35.988192764110124" lon="-107.08844832675872"><ele>2149.5</ele><time>2026-05-03T15:20:56Z</time></trkpt><trkpt lat="35.98817186933356" lon="-107.08854092319359"><ele>2149.3333333333335</ele><time>2026-05-03T15:20:57Z</time></trkpt><trkpt lat="35.98817154212202" lon="-107.08864846065806"><ele>2149.166666666667</ele><time>2026-05-03T15:20:58Z</time></trkpt><trkpt lat="35.98816831194737" lon="-107.08874342776856"><ele>2149.0</ele><time>2026-05-03T15:20:59Z</time></trkpt><trkpt lat="35.98814848046249" lon="-107.08882915955763"><ele>2149.0</ele><time>2026-05-03T15:21:00Z</time></trkpt><trkpt lat="35.988104362919294" lon="-107.08891906108961"><ele>2149.0</ele><time>2026-05-03T15:21:01Z</time></trkpt><trkpt lat="35.988025479922825" lon="-107.08900975408766"><ele>2149.0</ele><time>2026-05-03T15:21:02Z</time></trkpt><trkpt lat="35.987891136008685" lon="-107.08911466774055"><ele>2149.0</ele><time>2026-05-03T15:21:04Z</time></trkpt><trkpt lat="35.98786639049759" lon="-107.08921386632913"><ele>2149.0</ele><time>2026-05-03T15:21:06Z</time></trkpt><trkpt lat="35.98789633282331" lon="-107.08933900435842"><ele>2148.4</ele><time>2026-05-03T15:21:07Z</time></trkpt><trkpt lat="35.98789466796511" lon="-107.08946228360936"><ele>2147.8</ele><time>2026-05-03T15:21:08Z</time></trkpt><trkpt lat="35.98791320157311" lon="-107.08955226942649"><ele>2147.2</ele><time>2026-05-03T15:21:09Z</time></trkpt><trkpt lat="35.98797740528205" lon="-107.08956871702738"><ele>2146.6</ele><time>2026-05-03T15:21:11Z</time></trkpt><trkpt lat="35.98803839908812" lon="-107.08953950694686"><ele>2146.0</ele><time>2026-05-03T15:21:12Z</time></trkpt><trkpt lat="35.9878354308523" lon="-107.08977227422871"><ele>2146.0</ele><time>2026-05-03T15:21:13Z</time></trkpt><trkpt lat="35.98793187727837" lon="-107.0897981208276"><ele>2146.0</ele><time>2026-05-03T15:21:15Z</time></trkpt><trkpt lat="35.98805373528954" lon="-107.08974136736082"><ele>2146.0</ele><time>2026-05-03T15:21:17Z</time></trkpt><trkpt lat="35.988152027771676" lon="-107.08970130035713"><ele>2146.0</ele><time>2026-05-03T15:21:18Z</time></trkpt><trkpt lat="35.98830065004141" lon="-107.08960758762345"><ele>2143.0</ele><time>2026-05-03T15:21:19Z</time></trkpt><trkpt lat="35.98845542976278" lon="-107.0895030140449"><ele>2140.0</ele><time>2026-05-03T15:21:20Z</time></trkpt><trkpt lat="35.98866913778271" lon="-107.08935507618999"><ele>2137.0</ele><time>2026-05-03T15:21:21Z</time></trkpt><trkpt lat="35.98897218534164" lon="-107.08912200856733"><ele>2137.0</ele><time>2026-05-03T15:21:22Z</time></trkpt><trkpt lat="35.989404081755396" lon="-107.0888262678832"><ele>2137.0</ele><time>2026-05-03T15:21:23Z</time></trkpt><trkpt lat="35.98975739921243" lon="-107.08859419927292"><ele>2137.0</ele><time>2026-05-03T15:21:24Z</time></trkpt><trkpt lat="35.99002503851265" lon="-107.08842948509256"><ele>2137.5</ele><time>2026-05-03T15:21:25Z</time></trkpt><trkpt lat="35.99029636595108" lon="-107.08826689984244"><ele>2138.0</ele><time>2026-05-03T15:21:26Z</time></trkpt><trkpt lat="35.99051265537078" lon="-107.08813775082639"><ele>2139.0</ele><time>2026-05-03T15:21:27Z</time></trkpt><trkpt lat="35.990711312717266" lon="-107.0880096238776"><ele>2140.0</ele><time>2026-05-03T15:21:28Z</time></trkpt><trkpt lat="35.99088132483909" lon="-107.08789894203571"><ele>2141.0</ele><time>2026-05-03T15:21:29Z</time></trkpt><trkpt lat="35.99101538703567" lon="-107.08782237207372"><ele>2141.25</ele><time>2026-05-03T15:21:30Z</time></trkpt><trkpt lat="35.99114106165459" lon="-107.08778295964403"><ele>2141.5</ele><time>2026-05-03T15:21:31Z</time></trkpt><trkpt lat="35.991215381464514" lon="-107.08777305482431"><ele>2141.75</ele><time>2026-05-03T15:21:32.001Z</time></trkpt><trkpt lat="35.991304791672505" lon="-107.08776742268203"><ele>2142.0</ele><time>2026-05-03T15:21:33.001Z</time></trkpt><trkpt lat="35.99138578019362" lon="-107.08793387839826"><ele>2142.0</ele><time>2026-05-03T15:21:34.001Z</time></trkpt><trkpt lat="35.99151374313632" lon="-107.08805677122075"><ele>2142.0</ele><time>2026-05-03T15:21:35.001Z</time></trkpt><trkpt lat="35.991599556408026" lon="-107.08819573457065"><ele>2142.0</ele><time>2026-05-03T15:21:36.001Z</time></trkpt><trkpt lat="35.991647945870746" lon="-107.08831508043926"><ele>2142.0</ele><time>2026-05-03T15:21:37.001Z</time></trkpt><trkpt lat="35.99158226210969" lon="-107.08849389208903"><ele>2141.5</ele><time>2026-05-03T15:21:39.001Z</time></trkpt><trkpt lat="35.99153997736149" lon="-107.08862288957039"><ele>2141.0</ele><time>2026-05-03T15:21:40.001Z</time></trkpt><trkpt lat="35.9915038858295" lon="-107.08879624658911"><ele>2140.5</ele><time>2026-05-03T15:21:41.001Z</time></trkpt><trkpt lat="35.99146659588445" lon="-107.08896151643113"><ele>2140.0</ele><time>2026-05-03T15:21:42.001Z</time></trkpt><trkpt lat="35.99143052965249" lon="-107.08913631224986"><ele>2141.0</ele><time>2026-05-03T15:21:43.001Z</time></trkpt><trkpt lat="35.991422599771646" lon="-107.08928364454101"><ele>2142.0</ele><time>2026-05-03T15:21:44.001Z</time></trkpt><trkpt lat="35.99139882415581" lon="-107.08944062681083"><ele>2143.0</ele><time>2026-05-03T15:21:45.001Z</time></trkpt><trkpt lat="35.99137875321192" lon="-107.08956866850191"><ele>2144.0</ele><time>2026-05-03T15:21:46.001Z</time></trkpt><trkpt lat="35.99138683031625" lon="-107.08970812215763"><ele>2144.0</ele><time>2026-05-03T15:21:47.001Z</time></trkpt><trkpt lat="35.99139026239234" lon="-107.08987111329361"><ele>2144.0</ele><time>2026-05-03T15:21:48.001Z</time></trkpt><trkpt lat="35.99136985463978" lon="-107.09002691282522"><ele>2144.0</ele><time>2026-05-03T15:21:49.001Z</time></trkpt><trkpt lat="35.99134411968481" lon="-107.090203533748"><ele>2144.0</ele><time>2026-05-03T15:21:50.001Z</time></trkpt><trkpt lat="35.99134646415754" lon="-107.09038571901839"><ele>2144.4</ele><time>2026-05-03T15:21:51.001Z</time></trkpt><trkpt lat="35.991363149312185" lon="-107.09056466821501"><ele>2144.8</ele><time>2026-05-03T15:21:52.001Z</time></trkpt><trkpt lat="35.9913778269498" lon="-107.09071696775851"><ele>2145.2</ele><time>2026-05-03T15:21:53.001Z</time></trkpt><trkpt lat="35.99137769881594" lon="-107.09084268206551"><ele>2145.6</ele><time>2026-05-03T15:21:54.001Z</time></trkpt><trkpt lat="35.99136807558236" lon="-107.09093765009607"><ele>2146.0</ele><time>2026-05-03T15:21:55.001Z</time></trkpt><trkpt lat="35.99141716970816" lon="-107.09109323604443"><ele>2146.0</ele><time>2026-05-03T15:21:57.001Z</time></trkpt><trkpt lat="35.99150413278405" lon="-107.0911924875121"><ele>2146.0</ele><time>2026-05-03T15:21:58.001Z</time></trkpt><trkpt lat="35.991590088257496" lon="-107.09130639735143"><ele>2146.0</ele><time>2026-05-03T15:21:59.001Z</time></trkpt><trkpt lat="35.99163417958247" lon="-107.0913922574473"><ele>2146.0</ele><time>2026-05-03T15:22:00.001Z</time></trkpt><trkpt lat="35.99157092319614" lon="-107.09148016449723"><ele>2146.0</ele><time>2026-05-03T15:22:03Z</time></trkpt><trkpt lat="35.99143392224755" lon="-107.09149701474277"><ele>2146.0</ele><time>2026-05-03T15:22:05Z</time></trkpt><trkpt lat="35.99139666612902" lon="-107.09158622698406"><ele>2146.0</ele><time>2026-05-03T15:22:07Z</time></trkpt><trkpt lat="35.991434531796585" lon="-107.09169904231845"><ele>2146.0</ele><time>2026-05-03T15:22:09Z</time></trkpt><trkpt lat="35.991455288976674" lon="-107.09182424689712"><ele>2146.0</ele><time>2026-05-03T15:22:11Z</time></trkpt><trkpt lat="35.991550215417895" lon="-107.09201485090593"><ele>2146.25</ele><time>2026-05-03T15:22:12Z</time></trkpt><trkpt lat="35.99160383201476" lon="-107.09211264185745"><ele>2146.5</ele><time>2026-05-03T15:22:13Z</time></trkpt><trkpt lat="35.991675095245746" lon="-107.09222270578239"><ele>2146.75</ele><time>2026-05-03T15:22:14Z</time></trkpt><trkpt lat="35.99174520770571" lon="-107.09232990936903"><ele>2147.0</ele><time>2026-05-03T15:22:15Z</time></trkpt><trkpt lat="35.99184878822971" lon="-107.09244315204086"><ele>2147.75</ele><time>2026-05-03T15:22:16Z</time></trkpt><trkpt lat="35.99195608086029" lon="-107.09255507509461"><ele>2148.5</ele><time>2026-05-03T15:22:17Z</time></trkpt><trkpt lat="35.99205448274528" lon="-107.09266320142143"><ele>2149.25</ele><time>2026-05-03T15:22:18Z</time></trkpt><trkpt lat="35.99214072672493" lon="-107.0927651454625"><ele>2150.0</ele><time>2026-05-03T15:22:19Z</time></trkpt><trkpt lat="35.99221061678508" lon="-107.09284283290228"><ele>2150.0</ele><time>2026-05-03T15:22:20Z</time></trkpt><trkpt lat="35.99228417268035" lon="-107.09289937749331"><ele>2150.0</ele><time>2026-05-03T15:22:21Z</time></trkpt><trkpt lat="35.99235580819135" lon="-107.09295141050782"><ele>2150.0</ele><time>2026-05-03T15:22:22Z</time></trkpt><trkpt lat="35.99243645811496" lon="-107.09300422013864"><ele>2150.0</ele><time>2026-05-03T15:22:23Z</time></trkpt><trkpt lat="35.9925308907648" lon="-107.09306615997347"><ele>2150.0</ele><time>2026-05-03T15:22:24Z</time></trkpt><trkpt lat="35.99264110490807" lon="-107.09310838434007"><ele>2150.6</ele><time>2026-05-03T15:22:25Z</time></trkpt><trkpt lat="35.99274359002241" lon="-107.09313259488565"><ele>2151.2</ele><time>2026-05-03T15:22:26Z</time></trkpt><trkpt lat="35.992847717665015" lon="-107.09313035640598"><ele>2151.8</ele><time>2026-05-03T15:22:27Z</time></trkpt><trkpt lat="35.99295359907073" lon="-107.09313092295213"><ele>2152.4</ele><time>2026-05-03T15:22:28Z</time></trkpt><trkpt lat="35.99305396931793" lon="-107.09312415432274"><ele>2153.0</ele><time>2026-05-03T15:22:29Z</time></trkpt><trkpt lat="35.99314810424999" lon="-107.09311631059965"><ele>2153.0</ele><time>2026-05-03T15:22:30Z</time></trkpt><trkpt lat="35.993246079959206" lon="-107.09309036141863"><ele>2153.0</ele><time>2026-05-03T15:22:31Z</time></trkpt><trkpt lat="35.99334757352467" lon="-107.09299398216793"><ele>2153.0</ele><time>2026-05-03T15:22:32Z</time></trkpt><trkpt lat="35.99342517872505" lon="-107.09290244792199"><ele>2153.0</ele><time>2026-05-03T15:22:33Z</time></trkpt><trkpt lat="35.993528119095" lon="-107.09282861761369"><ele>2154.0</ele><time>2026-05-03T15:22:34Z</time></trkpt><trkpt lat="35.99362679378292" lon="-107.09276253862586"><ele>2155.0</ele><time>2026-05-03T15:22:35Z</time></trkpt><trkpt lat="35.99370626718597" lon="-107.0927115854063"><ele>2156.0</ele><time>2026-05-03T15:22:36Z</time></trkpt><trkpt lat="35.993802031165956" lon="-107.09270283003269"><ele>2157.0</ele><time>2026-05-03T15:22:38Z</time></trkpt><trkpt lat="35.99381603162063" lon="-107.0928082075366"><ele>2158.0</ele><time>2026-05-03T15:22:40Z</time></trkpt><trkpt lat="35.993824034496846" lon="-107.09290189035632"><ele>2158.0</ele><time>2026-05-03T15:22:41Z</time></trkpt><trkpt lat="35.993844764796535" lon="-107.09304953766954"><ele>2158.0</ele><time>2026-05-03T15:22:42Z</time></trkpt><trkpt lat="35.99387252596856" lon="-107.09314895097941"><ele>2158.0</ele><time>2026-05-03T15:22:43Z</time></trkpt><trkpt lat="35.99392136056645" lon="-107.09323012995803"><ele>2158.0</ele><time>2026-05-03T15:22:45Z</time></trkpt><trkpt lat="35.99397414476324" lon="-107.09318222196833"><ele>2158.0</ele><time>2026-05-03T15:22:48Z</time></trkpt><trkpt lat="35.99412535422744" lon="-107.09313765053064"><ele>2157.6</ele><time>2026-05-03T15:22:50Z</time></trkpt><trkpt lat="35.994192635417555" lon="-107.0931136243032"><ele>2157.2000000000003</ele><time>2026-05-03T15:22:51Z</time></trkpt><trkpt lat="35.99427701294919" lon="-107.09308127733944"><ele>2156.8</ele><time>2026-05-03T15:22:52Z</time></trkpt><trkpt lat="35.99435902673294" lon="-107.09305356682049"><ele>2156.4</ele><time>2026-05-03T15:22:53Z</time></trkpt><trkpt lat="35.99445711813797" lon="-107.09299370339538"><ele>2156.0</ele><time>2026-05-03T15:22:54Z</time></trkpt><trkpt lat="35.99457615954367" lon="-107.09293713476853"><ele>2156.0</ele><time>2026-05-03T15:22:55Z</time></trkpt><trkpt lat="35.99469852729247" lon="-107.0928997802621"><ele>2156.0</ele><time>2026-05-03T15:22:56Z</time></trkpt><trkpt lat="35.99480472815128" lon="-107.09285950227866"><ele>2156.0</ele><time>2026-05-03T15:22:57Z</time></trkpt><trkpt lat="35.994884208248635" lon="-107.09280160929407"><ele>2156.0</ele><time>2026-05-03T15:22:58Z</time></trkpt><trkpt lat="35.99494853093856" lon="-107.0927350507174"><ele>2156.0</ele><time>2026-05-03T15:22:59Z</time></trkpt><trkpt lat="35.9949917630483" lon="-107.09264576157587"><ele>2156.0</ele><time>2026-05-03T15:23:00Z</time></trkpt><trkpt lat="35.99503261167572" lon="-107.09254701883204"><ele>2156.0</ele><time>2026-05-03T15:23:01Z</time></trkpt><trkpt lat="35.99506406326921" lon="-107.09243932624312"><ele>2156.0</ele><time>2026-05-03T15:23:02Z</time></trkpt><trkpt lat="35.99511510397974" lon="-107.09236590028839"><ele>2156.0</ele><time>2026-05-03T15:23:03Z</time></trkpt><trkpt lat="35.995174276936766" lon="-107.0923193927969"><ele>2156.0</ele><time>2026-05-03T15:23:04Z</time></trkpt><trkpt lat="35.99524339550793" lon="-107.09228549335627"><ele>2156.0</ele><time>2026-05-03T15:23:05Z</time></trkpt><trkpt lat="35.99529293033915" lon="-107.09218232706077"><ele>2156.0</ele><time>2026-05-03T15:23:07Z</time></trkpt><trkpt lat="35.99524778506036" lon="-107.09202336090985"><ele>2156.0</ele><time>2026-05-03T15:23:09Z</time></trkpt><trkpt lat="35.99519696920432" lon="-107.09182690555221"><ele>2156.0</ele><time>2026-05-03T15:23:10Z</time></trkpt><trkpt lat="35.99525241242981" lon="-107.09167985279615"><ele>2156.0</ele><time>2026-05-03T15:23:11Z</time></trkpt><trkpt lat="35.995285010833534" lon="-107.0915707441709"><ele>2156.8</ele><time>2026-05-03T15:23:12Z</time></trkpt><trkpt lat="35.99529199646976" lon="-107.09145023325014"><ele>2157.6</ele><time>2026-05-03T15:23:14Z</time></trkpt><trkpt lat="35.995227765744986" lon="-107.09129343681651"><ele>2158.4</ele><time>2026-05-03T15:23:16Z</time></trkpt><trkpt lat="35.99515416152444" lon="-107.091177728927"><ele>2159.2</ele><time>2026-05-03T15:23:17Z</time></trkpt><trkpt lat="35.99511216905694" lon="-107.09109207540345"><ele>2160.0</ele><time>2026-05-03T15:23:18Z</time></trkpt><trkpt lat="35.99501922835513" lon="-107.09111340729449"><ele>2160.0</ele><time>2026-05-03T15:23:20Z</time></trkpt><trkpt lat="35.99503122653991" lon="-107.09098390565585"><ele>2160.0</ele><time>2026-05-03T15:23:23Z</time></trkpt><trkpt lat="35.995100859815686" lon="-107.09090440751875"><ele>2160.0</ele><time>2026-05-03T15:23:24Z</time></trkpt><trkpt lat="35.99512674803506" lon="-107.09079890045926"><ele>2160.0</ele><time>2026-05-03T15:23:26Z</time></trkpt><trkpt lat="35.995031851801144" lon="-107.09064364169323"><ele>2160.0</ele><time>2026-05-03T15:23:28Z</time></trkpt><trkpt lat="35.994968954675414" lon="-107.09053329678129"><ele>2161.2</ele><time>2026-05-03T15:23:29Z</time></trkpt><trkpt lat="35.99491346554216" lon="-107.09041545767643"><ele>2162.4</ele><time>2026-05-03T15:23:30Z</time></trkpt><trkpt lat="35.99489724204737" lon="-107.09029657876141"><ele>2163.6</ele><time>2026-05-03T15:23:32Z</time></trkpt><trkpt lat="35.994902415404496" lon="-107.09021786957446"><ele>2164.8</ele><time>2026-05-03T15:23:33Z</time></trkpt><trkpt lat="35.994897108318504" lon="-107.0900818700773"><ele>2166.0</ele><time>2026-05-03T15:23:34Z</time></trkpt><trkpt lat="35.994862640560804" lon="-107.08996199833055"><ele>2166.4</ele><time>2026-05-03T15:23:35.001Z</time></trkpt><trkpt lat="35.994812062600644" lon="-107.08985671348131"><ele>2166.8</ele><time>2026-05-03T15:23:37.001Z</time></trkpt><trkpt lat="35.99472292090246" lon="-107.089830622017"><ele>2167.2000000000003</ele><time>2026-05-03T15:23:38.001Z</time></trkpt><trkpt lat="35.99462921402223" lon="-107.08986835792214"><ele>2167.6</ele><time>2026-05-03T15:23:39.001Z</time></trkpt><trkpt lat="35.99454555607197" lon="-107.0899234410898"><ele>2168.0</ele><time>2026-05-03T15:23:40.001Z</time></trkpt><trkpt lat="35.99447787846502" lon="-107.08988762354616"><ele>2168.0</ele><time>2026-05-03T15:23:42.001Z</time></trkpt><trkpt lat="35.99442643193744" lon="-107.08978251642958"><ele>2168.0</ele><time>2026-05-03T15:23:43.001Z</time></trkpt><trkpt lat="35.994349341125506" lon="-107.08973195214836"><ele>2168.0</ele><time>2026-05-03T15:23:44.001Z</time></trkpt><trkpt lat="35.99426147753503" lon="-107.08972396911324"><ele>2168.0</ele><time>2026-05-03T15:23:45.001Z</time></trkpt><trkpt lat="35.99413222729388" lon="-107.08973792364736"><ele>2168.0</ele><time>2026-05-03T15:23:47.001Z</time></trkpt><trkpt lat="35.99409392667645" lon="-107.08965591589214"><ele>2168.833333333333</ele><time>2026-05-03T15:23:50.001Z</time></trkpt><trkpt lat="35.99409527235387" lon="-107.08955369699734"><ele>2169.6666666666665</ele><time>2026-05-03T15:23:51.001Z</time></trkpt><trkpt lat="35.99410498114569" lon="-107.08945745819118"><ele>2170.5</ele><time>2026-05-03T15:23:52.001Z</time></trkpt><trkpt lat="35.994124561735795" lon="-107.08936832854295"><ele>2171.3333333333335</ele><time>2026-05-03T15:23:53.001Z</time></trkpt><trkpt lat="35.99411922912967" lon="-107.08925715574577"><ele>2172.166666666667</ele><time>2026-05-03T15:23:55.001Z</time></trkpt><trkpt lat="35.994040348779244" lon="-107.08925407038434"><ele>2173.0</ele><time>2026-05-03T15:23:57.001Z</time></trkpt><trkpt lat="35.99397247772178" lon="-107.0892096684542"><ele>2172.6</ele><time>2026-05-03T15:23:59.001Z</time></trkpt><trkpt lat="35.993993316314075" lon="-107.0890760960146"><ele>2172.2000000000003</ele><time>2026-05-03T15:24:01.001Z</time></trkpt><trkpt lat="35.99394604573639" lon="-107.08895357042066"><ele>2171.8</ele><time>2026-05-03T15:24:02.001Z</time></trkpt><trkpt lat="35.99396446533588" lon="-107.08885950125708"><ele>2171.4</ele><time>2026-05-03T15:24:03.001Z</time></trkpt><trkpt lat="35.993997626465756" lon="-107.0887857485526"><ele>2171.0</ele><time>2026-05-03T15:24:04.001Z</time></trkpt><trkpt lat="35.99405927408435" lon="-107.08868605483148"><ele>2171.0</ele><time>2026-05-03T15:24:06.001Z</time></trkpt><trkpt lat="35.994148115334596" lon="-107.08860667008385"><ele>2171.0</ele><time>2026-05-03T15:24:08Z</time></trkpt><trkpt lat="35.99422263347037" lon="-107.08856452222965"><ele>2171.0</ele><time>2026-05-03T15:24:09Z</time></trkpt><trkpt lat="35.99430604457899" lon="-107.08853078309382"><ele>2171.0</ele><time>2026-05-03T15:24:10Z</time></trkpt><trkpt lat="35.99437485508689" lon="-107.08849163571695"><ele>2171.0</ele><time>2026-05-03T15:24:11Z</time></trkpt><trkpt lat="35.994436275372706" lon="-107.08843810350915"><ele>2171.0</ele><time>2026-05-03T15:24:12Z</time></trkpt><trkpt lat="35.994482510416226" lon="-107.08837906801215"><ele>2170.6</ele><time>2026-05-03T15:24:13Z</time></trkpt><trkpt lat="35.99453975680119" lon="-107.08834014563244"><ele>2170.2</ele><time>2026-05-03T15:24:14Z</time></trkpt><trkpt lat="35.994656405823264" lon="-107.08832079762587"><ele>2169.8</ele><time>2026-05-03T15:24:16Z</time></trkpt><trkpt lat="35.99480601569459" lon="-107.08833025489146"><ele>2169.4</ele><time>2026-05-03T15:24:18Z</time></trkpt><trkpt lat="35.99489335642969" lon="-107.08836316213198"><ele>2169.0</ele><time>2026-05-03T15:24:19Z</time></trkpt><trkpt lat="35.99497370169468" lon="-107.08838476690497"><ele>2168.6666666666665</ele><time>2026-05-03T15:24:20Z</time></trkpt><trkpt lat="35.99504259577824" lon="-107.08840293542448"><ele>2168.3333333333335</ele><time>2026-05-03T15:24:21Z</time></trkpt><trkpt lat="35.995119335254465" lon="-107.08832410303954"><ele>2168.0</ele><time>2026-05-03T15:24:23Z</time></trkpt><trkpt lat="35.995188720723405" lon="-107.08830543916207"><ele>2167.666666666667</ele><time>2026-05-03T15:24:24Z</time></trkpt><trkpt lat="35.99526161799719" lon="-107.08826276191215"><ele>2167.3333333333335</ele><time>2026-05-03T15:24:25Z</time></trkpt><trkpt lat="35.99531637116945" lon="-107.08816045926879"><ele>2167.0</ele><time>2026-05-03T15:24:26Z</time></trkpt><trkpt lat="35.99533720436863" lon="-107.08797910852326"><ele>2167.0</ele><time>2026-05-03T15:24:28Z</time></trkpt><trkpt lat="35.99533907616477" lon="-107.08782929359397"><ele>2167.0</ele><time>2026-05-03T15:24:29Z</time></trkpt><trkpt lat="35.99534968573226" lon="-107.08768671780444"><ele>2167.0</ele><time>2026-05-03T15:24:30Z</time></trkpt><trkpt lat="35.99535557419748" lon="-107.08759729082843"><ele>2167.0</ele><time>2026-05-03T15:24:31Z</time></trkpt><trkpt lat="35.995346537764966" lon="-107.08749995558016"><ele>2167.0</ele><time>2026-05-03T15:24:32Z</time></trkpt><trkpt lat="35.99535014037038" lon="-107.08739709434775"><ele>2167.0</ele><time>2026-05-03T15:24:33Z</time></trkpt><trkpt lat="35.99533725227739" lon="-107.0872859244728"><ele>2167.0</ele><time>2026-05-03T15:24:34Z</time></trkpt><trkpt lat="35.995339352578874" lon="-107.08720662838029"><ele>2167.0</ele><time>2026-05-03T15:24:35Z</time></trkpt><trkpt lat="35.995330090236685" lon="-107.08708909452791"><ele>2167.0</ele><time>2026-05-03T15:24:37Z</time></trkpt><trkpt lat="35.99528827471982" lon="-107.08702970179243"><ele>2167.0</ele><time>2026-05-03T15:24:38Z</time></trkpt><trkpt lat="35.99529494221852" lon="-107.08689263509866"><ele>2167.0</ele><time>2026-05-03T15:24:40Z</time></trkpt><trkpt lat="35.99533788111542" lon="-107.08678146718493"><ele>2167.0</ele><time>2026-05-03T15:24:41Z</time></trkpt><trkpt lat="35.9953690908008" lon="-107.0866752209578"><ele>2167.0</ele><time>2026-05-03T15:24:42Z</time></trkpt><trkpt lat="35.99537074928084" lon="-107.0865913938335"><ele>2167.0</ele><time>2026-05-03T15:24:43Z</time></trkpt><trkpt lat="35.995357580706035" lon="-107.08644297335921"><ele>2167.0</ele><time>2026-05-03T15:24:45Z</time></trkpt><trkpt lat="35.99544114074706" lon="-107.08634292783117"><ele>2167.0</ele><time>2026-05-03T15:24:47Z</time></trkpt><trkpt lat="35.995511102610486" lon="-107.08628330476624"><ele>2167.2</ele><time>2026-05-03T15:24:48Z</time></trkpt><trkpt lat="35.995554980572265" lon="-107.08620433690157"><ele>2167.3999999999996</ele><time>2026-05-03T15:24:50Z</time></trkpt><trkpt lat="35.99551957792807" lon="-107.08604256134781"><ele>2167.6000000000004</ele><time>2026-05-03T15:24:52Z</time></trkpt><trkpt lat="35.995551896351735" lon="-107.08594877683872"><ele>2167.8</ele><time>2026-05-03T15:24:53Z</time></trkpt><trkpt lat="35.995632437318996" lon="-107.08586164336589"><ele>2168.0</ele><time>2026-05-03T15:24:54Z</time></trkpt><trkpt lat="35.99570025943526" lon="-107.0857710502673"><ele>2166.0</ele><time>2026-05-03T15:24:55Z</time></trkpt><trkpt lat="35.99570155988108" lon="-107.08567752068602"><ele>2164.0</ele><time>2026-05-03T15:24:56Z</time></trkpt><trkpt lat="35.99570103689575" lon="-107.08559640183613"><ele>2162.0</ele><time>2026-05-03T15:24:57Z</time></trkpt><trkpt lat="35.9958000342587" lon="-107.08548446274864"><ele>2160.0</ele><time>2026-05-03T15:24:59Z</time></trkpt><trkpt lat="35.995839303419544" lon="-107.08541711712293"><ele>2158.0</ele><time>2026-05-03T15:25:01Z</time></trkpt><trkpt lat="35.995868575641985" lon="-107.0852874592666"><ele>2158.0</ele><time>2026-05-03T15:25:03Z</time></trkpt><trkpt lat="35.99596608188501" lon="-107.08521486227667"><ele>2158.0</ele><time>2026-05-03T15:25:05Z</time></trkpt><trkpt lat="35.9960582801598" lon="-107.08514618203091"><ele>2158.0</ele><time>2026-05-03T15:25:08Z</time></trkpt><trkpt lat="35.99607883402756" lon="-107.08507237103288"><ele>2158.0</ele><time>2026-05-03T15:25:09Z</time></trkpt><trkpt lat="35.99614412490758" lon="-107.08501767041207"><ele>2158.0</ele><time>2026-05-03T15:25:11Z</time></trkpt><trkpt lat="35.99624032823407" lon="-107.08502662922827"><ele>2158.0</ele><time>2026-05-03T15:25:13Z</time></trkpt><trkpt lat="35.99631416764376" lon="-107.0850329136384"><ele>2158.0</ele><time>2026-05-03T15:25:14Z</time></trkpt><trkpt lat="35.99638622172946" lon="-107.08481200201264"><ele>2158.0</ele><time>2026-05-03T15:25:18Z</time></trkpt><trkpt lat="35.99642590401273" lon="-107.08474409414437"><ele>2158.0</ele><time>2026-05-03T15:25:20Z</time></trkpt><trkpt lat="35.9965219266397" lon="-107.08474762801"><ele>2158.0</ele><time>2026-05-03T15:25:23Z</time></trkpt><trkpt lat="35.99656769917387" lon="-107.0848547935145"><ele>2158.0</ele><time>2026-05-03T15:25:27Z</time></trkpt><trkpt lat="35.996577628446786" lon="-107.08499259290454"><ele>2158.0</ele><time>2026-05-03T15:25:29Z</time></trkpt><trkpt lat="35.996587384366016" lon="-107.08507803593155"><ele>2158.0</ele><time>2026-05-03T15:25:30Z</time></trkpt><trkpt lat="35.99660296798544" lon="-107.08516544907127"><ele>2158.0</ele><time>2026-05-03T15:25:31Z</time></trkpt><trkpt lat="35.99662011413814" lon="-107.08527029469268"><ele>2158.0</ele><time>2026-05-03T15:25:32Z</time></trkpt><trkpt lat="35.99663886746584" lon="-107.08536338937651"><ele>2158.0</ele><time>2026-05-03T15:25:33Z</time></trkpt><trkpt lat="35.996660738007336" lon="-107.08545904344076"><ele>2157.25</ele><time>2026-05-03T15:25:34Z</time></trkpt><trkpt lat="35.996707092943446" lon="-107.08555387071299"><ele>2156.5</ele><time>2026-05-03T15:25:35Z</time></trkpt><trkpt lat="35.9967585602995" lon="-107.08565204270585"><ele>2155.75</ele><time>2026-05-03T15:25:36Z</time></trkpt><trkpt lat="35.99692007595266" lon="-107.0858709378419"><ele>2155.0</ele><time>2026-05-03T15:25:37Z</time></trkpt><trkpt lat="35.996888360787025" lon="-107.08599084510267"><ele>2158.75</ele><time>2026-05-03T15:25:38Z</time></trkpt><trkpt lat="35.99686515014851" lon="-107.08615798417563"><ele>2162.5</ele><time>2026-05-03T15:25:39Z</time></trkpt><trkpt lat="35.99681168368718" lon="-107.08632152950636"><ele>2166.25</ele><time>2026-05-03T15:25:40Z</time></trkpt><trkpt lat="35.99681867354662" lon="-107.08645631072015"><ele>2170.0</ele><time>2026-05-03T15:25:41Z</time></trkpt><trkpt lat="35.99684865806698" lon="-107.08653321678095"><ele>2171.3333333333335</ele><time>2026-05-03T15:25:42Z</time></trkpt><trkpt lat="35.996898077114224" lon="-107.08660703694683"><ele>2172.666666666667</ele><time>2026-05-03T15:25:45.001Z</time></trkpt><trkpt lat="35.99685982187856" lon="-107.08667760279351"><ele>2174.0</ele><time>2026-05-03T15:25:46.001Z</time></trkpt><trkpt lat="35.996799483543825" lon="-107.0867705501725"><ele>2175.3333333333335</ele><time>2026-05-03T15:25:47.001Z</time></trkpt><trkpt lat="35.99675527243893" lon="-107.08685287898554"><ele>2176.6666666666665</ele><time>2026-05-03T15:25:48.001Z</time></trkpt><trkpt lat="35.99682072492093" lon="-107.08687451543048"><ele>2178.0</ele><time>2026-05-03T15:25:50.001Z</time></trkpt><trkpt lat="35.99690151680341" lon="-107.08697368675263"><ele>2178.0</ele><time>2026-05-03T15:25:53.001Z</time></trkpt><trkpt lat="35.9969934544143" lon="-107.08716315123374"><ele>2178.0</ele><time>2026-05-03T15:25:55.001Z</time></trkpt><trkpt lat="35.99704588836782" lon="-107.08727156296072"><ele>2178.0</ele><time>2026-05-03T15:25:57.001Z</time></trkpt><trkpt lat="35.99709991866167" lon="-107.08736841624862"><ele>2178.0</ele><time>2026-05-03T15:25:59.001Z</time></trkpt><trkpt lat="35.9970707787698" lon="-107.08745303289032"><ele>2179.0</ele><time>2026-05-03T15:26:01.001Z</time></trkpt><trkpt lat="35.99712396465082" lon="-107.08755989880649"><ele>2180.0</ele><time>2026-05-03T15:26:03.001Z</time></trkpt><trkpt lat="35.99715031967983" lon="-107.08773005349518"><ele>2181.0</ele><time>2026-05-03T15:26:05.001Z</time></trkpt><trkpt lat="35.997180516157236" lon="-107.08783267888768"><ele>2182.0</ele><time>2026-05-03T15:26:06.001Z</time></trkpt><trkpt lat="35.9972223373009" lon="-107.08795347564036"><ele>2183.0</ele><time>2026-05-03T15:26:07.001Z</time></trkpt><trkpt lat="35.99726914968897" lon="-107.08807501010905"><ele>2183.0</ele><time>2026-05-03T15:26:08.001Z</time></trkpt><trkpt lat="35.99730924585113" lon="-107.08819898836312"><ele>2183.0</ele><time>2026-05-03T15:26:09.001Z</time></trkpt><trkpt lat="35.997333757057014" lon="-107.08829448781134"><ele>2183.0</ele><time>2026-05-03T15:26:10.001Z</time></trkpt><trkpt lat="35.997341569819916" lon="-107.08838065272937"><ele>2183.0</ele><time>2026-05-03T15:26:11.001Z</time></trkpt><trkpt lat="35.99732287333412" lon="-107.08847217220426"><ele>2183.0</ele><time>2026-05-03T15:26:12.001Z</time></trkpt><trkpt lat="35.99729011759294" lon="-107.08856385320145"><ele>2183.0</ele><time>2026-05-03T15:26:13Z</time></trkpt><trkpt lat="35.997196743551896" lon="-107.08866671844656"><ele>2181.2000000000003</ele><time>2026-05-03T15:26:14Z</time></trkpt><trkpt lat="35.99719602088706" lon="-107.08882165686724"><ele>2179.4</ele><time>2026-05-03T15:26:15Z</time></trkpt><trkpt lat="35.99719537824939" lon="-107.08898926896656"><ele>2177.6000000000004</ele><time>2026-05-03T15:26:16Z</time></trkpt><trkpt lat="35.99719836419095" lon="-107.08907088799705"><ele>2175.8</ele><time>2026-05-03T15:26:17Z</time></trkpt><trkpt lat="35.99720190777345" lon="-107.08922179632674"><ele>2174.0</ele><time>2026-05-03T15:26:19Z</time></trkpt><trkpt lat="35.99720465377696" lon="-107.08932261999121"><ele>2172.25</ele><time>2026-05-03T15:26:20Z</time></trkpt><trkpt lat="35.99720747467102" lon="-107.08943580802003"><ele>2170.5</ele><time>2026-05-03T15:26:21Z</time></trkpt><trkpt lat="35.99719336259082" lon="-107.08956332985018"><ele>2168.75</ele><time>2026-05-03T15:26:22Z</time></trkpt><trkpt lat="35.99714598262266" lon="-107.08972131782257"><ele>2167.0</ele><time>2026-05-03T15:26:23Z</time></trkpt><trkpt lat="35.997109096557914" lon="-107.08986169869162"><ele>2166.5</ele><time>2026-05-03T15:26:24Z</time></trkpt><trkpt lat="35.99711423572871" lon="-107.08998512259268"><ele>2166.0</ele><time>2026-05-03T15:26:25Z</time></trkpt><trkpt lat="35.99713791059963" lon="-107.0901096147576"><ele>2165.5</ele><time>2026-05-03T15:26:26Z</time></trkpt><trkpt lat="35.99721101672143" lon="-107.09026253353524"><ele>2165.0</ele><time>2026-05-03T15:26:27Z</time></trkpt><trkpt lat="35.99727094883938" lon="-107.09041962210173"><ele>2165.0</ele><time>2026-05-03T15:26:28Z</time></trkpt><trkpt lat="35.99732040774909" lon="-107.09055124849316"><ele>2165.0</ele><time>2026-05-03T15:26:29Z</time></trkpt><trkpt lat="35.997349462943866" lon="-107.09064507577416"><ele>2165.0</ele><time>2026-05-03T15:26:30Z</time></trkpt><trkpt lat="35.99740579447671" lon="-107.09078374061777"><ele>2165.0</ele><time>2026-05-03T15:26:32Z</time></trkpt><trkpt lat="35.9974807862527" lon="-107.09086774400471"><ele>2165.0</ele><time>2026-05-03T15:26:33Z</time></trkpt><trkpt lat="35.99754182032984" lon="-107.09092015947009"><ele>2164.5</ele><time>2026-05-03T15:26:34Z</time></trkpt><trkpt lat="35.99761239329038" lon="-107.0909553395323"><ele>2164.0</ele><time>2026-05-03T15:26:35Z</time></trkpt><trkpt lat="35.997670439651436" lon="-107.09099881922481"><ele>2163.5</ele><time>2026-05-03T15:26:36Z</time></trkpt><trkpt lat="35.99767517538695" lon="-107.09114916745025"><ele>2163.0</ele><time>2026-05-03T15:26:38Z</time></trkpt><trkpt lat="35.99763566440904" lon="-107.09121660699627"><ele>2162.5</ele><time>2026-05-03T15:26:39Z</time></trkpt><trkpt lat="35.99756776775106" lon="-107.09127325607236"><ele>2162.0</ele><time>2026-05-03T15:26:40Z</time></trkpt><trkpt lat="35.99747141428603" lon="-107.09138121570845"><ele>2161.7999999999997</ele><time>2026-05-03T15:26:41Z</time></trkpt><trkpt lat="35.997375576429015" lon="-107.09150356866517"><ele>2161.6</ele><time>2026-05-03T15:26:42Z</time></trkpt><trkpt lat="35.997317401391186" lon="-107.09158167077642"><ele>2161.3999999999996</ele><time>2026-05-03T15:26:43Z</time></trkpt><trkpt lat="35.997270531165015" lon="-107.0916737521293"><ele>2161.2</ele><time>2026-05-03T15:26:44Z</time></trkpt><trkpt lat="35.99723612757936" lon="-107.09178456538736"><ele>2161.0</ele><time>2026-05-03T15:26:45Z</time></trkpt><trkpt lat="35.997197437630014" lon="-107.09189067429752"><ele>2160.4</ele><time>2026-05-03T15:26:47Z</time></trkpt><trkpt lat="35.997046866395614" lon="-107.0918814641981"><ele>2159.8</ele><time>2026-05-03T15:26:49Z</time></trkpt><trkpt lat="35.99695478129689" lon="-107.09185565332925"><ele>2159.2000000000003</ele><time>2026-05-03T15:26:50Z</time></trkpt><trkpt lat="35.99690907089155" lon="-107.09179432998508"><ele>2158.6</ele><time>2026-05-03T15:26:51Z</time></trkpt><trkpt lat="35.996872363557536" lon="-107.09169588249495"><ele>2158.0</ele><time>2026-05-03T15:26:52Z</time></trkpt><trkpt lat="35.996808222663795" lon="-107.09162541399644"><ele>2158.0</ele><time>2026-05-03T15:26:53Z</time></trkpt><trkpt lat="35.996706820053824" lon="-107.09157261311593"><ele>2158.0</ele><time>2026-05-03T15:26:55Z</time></trkpt><trkpt lat="35.99662038194143" lon="-107.09159474571796"><ele>2158.0</ele><time>2026-05-03T15:26:56Z</time></trkpt><trkpt lat="35.99651893719202" lon="-107.09164272238884"><ele>2158.0</ele><time>2026-05-03T15:26:57Z</time></trkpt><trkpt lat="35.996445661363495" lon="-107.09163854539142"><ele>2158.0</ele><time>2026-05-03T15:26:58Z</time></trkpt><trkpt lat="35.996362087739044" lon="-107.09157116695216"><ele>2158.0</ele><time>2026-05-03T15:26:59Z</time></trkpt><trkpt lat="35.99626693554214" lon="-107.09158820892682"><ele>2158.0</ele><time>2026-05-03T15:27:01Z</time></trkpt><trkpt lat="35.99622401821626" lon="-107.0916494367877"><ele>2158.0</ele><time>2026-05-03T15:27:02Z</time></trkpt><trkpt lat="35.99616065039597" lon="-107.09175066514992"><ele>2158.0</ele><time>2026-05-03T15:27:03Z</time></trkpt><trkpt lat="35.99610157060802" lon="-107.09186454929417"><ele>2158.0</ele><time>2026-05-03T15:27:04Z</time></trkpt><trkpt lat="35.99602379220802" lon="-107.09195673820776"><ele>2157.8</ele><time>2026-05-03T15:27:05Z</time></trkpt><trkpt lat="35.995952757407345" lon="-107.09204561510163"><ele>2157.6000000000004</ele><time>2026-05-03T15:27:07Z</time></trkpt><trkpt lat="35.99594811444796" lon="-107.09220162229992"><ele>2157.3999999999996</ele><time>2026-05-03T15:27:09Z</time></trkpt><trkpt lat="35.995935084603396" lon="-107.09234834545248"><ele>2157.2</ele><time>2026-05-03T15:27:10Z</time></trkpt><trkpt lat="35.99592309821855" lon="-107.09247290176995"><ele>2157.0</ele><time>2026-05-03T15:27:11Z</time></trkpt><trkpt lat="35.99591274493877" lon="-107.09257534580283"><ele>2156.6</ele><time>2026-05-03T15:27:12Z</time></trkpt><trkpt lat="35.9959316933256" lon="-107.09267837569503"><ele>2156.2</ele><time>2026-05-03T15:27:13Z</time></trkpt><trkpt lat="35.9959598888785" lon="-107.09277453898949"><ele>2155.8</ele><time>2026-05-03T15:27:14Z</time></trkpt><trkpt lat="35.99594296198214" lon="-107.09288195566188"><ele>2155.4</ele><time>2026-05-03T15:27:16Z</time></trkpt><trkpt lat="35.995845916575334" lon="-107.09300477342231"><ele>2155.0</ele><time>2026-05-03T15:27:18Z</time></trkpt><trkpt lat="35.99582253947386" lon="-107.09310595360421"><ele>2154.6</ele><time>2026-05-03T15:27:20Z</time></trkpt><trkpt lat="35.99579195475348" lon="-107.09323815579054"><ele>2154.2</ele><time>2026-05-03T15:27:21Z</time></trkpt><trkpt lat="35.99574839989525" lon="-107.0933739280287"><ele>2153.8</ele><time>2026-05-03T15:27:22Z</time></trkpt><trkpt lat="35.99570488200805" lon="-107.0934547477191"><ele>2153.4</ele><time>2026-05-03T15:27:23Z</time></trkpt><trkpt lat="35.9956500797398" lon="-107.09350324740018"><ele>2153.0</ele><time>2026-05-03T15:27:24Z</time></trkpt><trkpt lat="35.99558305124614" lon="-107.09355917488439"><ele>2152.6</ele><time>2026-05-03T15:27:25Z</time></trkpt><trkpt lat="35.9955138019036" lon="-107.09364536777682"><ele>2152.2000000000003</ele><time>2026-05-03T15:27:26Z</time></trkpt><trkpt lat="35.99547517561142" lon="-107.09376193358581"><ele>2151.8</ele><time>2026-05-03T15:27:27Z</time></trkpt><trkpt lat="35.99543526459915" lon="-107.09388824674267"><ele>2151.4</ele><time>2026-05-03T15:27:28Z</time></trkpt><trkpt lat="35.99538230884024" lon="-107.09398905886825"><ele>2151.0</ele><time>2026-05-03T15:27:29Z</time></trkpt><trkpt lat="35.99531843851592" lon="-107.09408042509106"><ele>2150.6</ele><time>2026-05-03T15:27:30Z</time></trkpt><trkpt lat="35.99524614847138" lon="-107.09415900812967"><ele>2150.2</ele><time>2026-05-03T15:27:31Z</time></trkpt><trkpt lat="35.9951880945201" lon="-107.0942363773903"><ele>2149.8</ele><time>2026-05-03T15:27:32Z</time></trkpt><trkpt lat="35.99513539660024" lon="-107.0943486507914"><ele>2149.4</ele><time>2026-05-03T15:27:33Z</time></trkpt><trkpt lat="35.99508260803376" lon="-107.09448132319811"><ele>2149.0</ele><time>2026-05-03T15:27:34Z</time></trkpt><trkpt lat="35.99501905748083" lon="-107.09459383076849"><ele>2148.8</ele><time>2026-05-03T15:27:35Z</time></trkpt><trkpt lat="35.99495702302236" lon="-107.09467141613757"><ele>2148.6000000000004</ele><time>2026-05-03T15:27:36Z</time></trkpt><trkpt lat="35.99490573902145" lon="-107.09474863876828"><ele>2148.4</ele><time>2026-05-03T15:27:37Z</time></trkpt><trkpt lat="35.994872133621016" lon="-107.09483869061081"><ele>2148.2000000000003</ele><time>2026-05-03T15:27:38Z</time></trkpt><trkpt lat="35.99484865596295" lon="-107.09497192656983"><ele>2148.0</ele><time>2026-05-03T15:27:39Z</time></trkpt><trkpt lat="35.994834710976406" lon="-107.09510760069965"><ele>2147.8333333333335</ele><time>2026-05-03T15:27:40Z</time></trkpt><trkpt lat="35.994835197640406" lon="-107.09524081868109"><ele>2147.6666666666665</ele><time>2026-05-03T15:27:41Z</time></trkpt><trkpt lat="35.994831067694236" lon="-107.095342205309"><ele>2147.5</ele><time>2026-05-03T15:27:42Z</time></trkpt><trkpt lat="35.994822263407634" lon="-107.09543924320369"><ele>2147.333333333333</ele><time>2026-05-03T15:27:43Z</time></trkpt><trkpt lat="35.99481727002221" lon="-107.09553503962357"><ele>2147.1666666666665</ele><time>2026-05-03T15:27:44Z</time></trkpt><trkpt lat="35.99481784786012" lon="-107.0956227201175"><ele>2147.0</ele><time>2026-05-03T15:27:45Z</time></trkpt><trkpt lat="35.99479320819109" lon="-107.09571868625059"><ele>2147.2</ele><time>2026-05-03T15:27:46Z</time></trkpt><trkpt lat="35.99477821658311" lon="-107.09584224824727"><ele>2147.3999999999996</ele><time>2026-05-03T15:27:47.001Z</time></trkpt><trkpt lat="35.99481098701041" lon="-107.09595699323981"><ele>2147.6000000000004</ele><time>2026-05-03T15:27:48.001Z</time></trkpt><trkpt lat="35.994864342281566" lon="-107.09608789434499"><ele>2147.8</ele><time>2026-05-03T15:27:49.001Z</time></trkpt><trkpt lat="35.994874608588674" lon="-107.0962158080616"><ele>2148.0</ele><time>2026-05-03T15:27:50.001Z</time></trkpt><trkpt lat="35.9948914475284" lon="-107.09630892705343"><ele>2148.0</ele><time>2026-05-03T15:27:51.001Z</time></trkpt><trkpt lat="35.9948821295641" lon="-107.0964039375849"><ele>2148.0</ele><time>2026-05-03T15:27:52.001Z</time></trkpt><trkpt lat="35.994828716200274" lon="-107.09652314205466"><ele>2148.0</ele><time>2026-05-03T15:27:53.001Z</time></trkpt><trkpt lat="35.99475322288364" lon="-107.09662226577849"><ele>2148.0</ele><time>2026-05-03T15:27:54.001Z</time></trkpt><trkpt lat="35.99462654392045" lon="-107.09666748159042"><ele>2148.0</ele><time>2026-05-03T15:27:56.001Z</time></trkpt><trkpt lat="35.994513930353925" lon="-107.09666469232884"><ele>2147.0</ele><time>2026-05-03T15:27:57.001Z</time></trkpt><trkpt lat="35.99436780896665" lon="-107.09670970968604"><ele>2146.0</ele><time>2026-05-03T15:27:58.001Z</time></trkpt><trkpt lat="35.99425316759066" lon="-107.09676649370202"><ele>2145.0</ele><time>2026-05-03T15:27:59.001Z</time></trkpt><trkpt lat="35.99415885497379" lon="-107.09679964795848"><ele>2144.0</ele><time>2026-05-03T15:28:00.001Z</time></trkpt><trkpt lat="35.99406956731768" lon="-107.09683926167781"><ele>2144.0</ele><time>2026-05-03T15:28:01.001Z</time></trkpt><trkpt lat="35.9939684917196" lon="-107.09690518615352"><ele>2144.0</ele><time>2026-05-03T15:28:02.001Z</time></trkpt><trkpt lat="35.993876010124055" lon="-107.09697790586395"><ele>2144.0</ele><time>2026-05-03T15:28:03.001Z</time></trkpt><trkpt lat="35.993798442850775" lon="-107.09701180307258"><ele>2144.0</ele><time>2026-05-03T15:28:04.001Z</time></trkpt><trkpt lat="35.9937210485954" lon="-107.0970551112253"><ele>2144.0</ele><time>2026-05-03T15:28:05.001Z</time></trkpt><trkpt lat="35.99365510848248" lon="-107.09711518622281"><ele>2144.0</ele><time>2026-05-03T15:28:06.001Z</time></trkpt><trkpt lat="35.99361027416738" lon="-107.0971714483437"><ele>2144.0</ele><time>2026-05-03T15:28:07.001Z</time></trkpt><trkpt lat="35.99358503811702" lon="-107.09732097746347"><ele>2144.0</ele><time>2026-05-03T15:28:09.001Z</time></trkpt><trkpt lat="35.99360668479307" lon="-107.09744643049285"><ele>2144.0</ele><time>2026-05-03T15:28:10.001Z</time></trkpt><trkpt lat="35.99361512171445" lon="-107.09759413643988"><ele>2144.0</ele><time>2026-05-03T15:28:11.001Z</time></trkpt><trkpt lat="35.99358737676374" lon="-107.09773842945407"><ele>2143.25</ele><time>2026-05-03T15:28:12.001Z</time></trkpt><trkpt lat="35.99354506376727" lon="-107.09783705668315"><ele>2142.5</ele><time>2026-05-03T15:28:13.001Z</time></trkpt><trkpt lat="35.99349356373443" lon="-107.09793592107125"><ele>2141.75</ele><time>2026-05-03T15:28:14.001Z</time></trkpt><trkpt lat="35.99340048059639" lon="-107.0980541044986"><ele>2141.0</ele><time>2026-05-03T15:28:15.001Z</time></trkpt><trkpt lat="35.99327463134837" lon="-107.09816038406014"><ele>2140.6</ele><time>2026-05-03T15:28:16.001Z</time></trkpt><trkpt lat="35.99317689463662" lon="-107.09826574808022"><ele>2140.2</ele><time>2026-05-03T15:28:17.001Z</time></trkpt><trkpt lat="35.99309714855765" lon="-107.0983536078884"><ele>2139.8</ele><time>2026-05-03T15:28:18.001Z</time></trkpt><trkpt lat="35.99301425956152" lon="-107.09844519024179"><ele>2139.4</ele><time>2026-05-03T15:28:19Z</time></trkpt><trkpt lat="35.992964057470296" lon="-107.0985249142208"><ele>2139.0</ele><time>2026-05-03T15:28:20Z</time></trkpt><trkpt lat="35.99291673345703" lon="-107.09861591179688"><ele>2139.0</ele><time>2026-05-03T15:28:21Z</time></trkpt><trkpt lat="35.992881273141464" lon="-107.09870673496313"><ele>2139.0</ele><time>2026-05-03T15:28:22Z</time></trkpt><trkpt lat="35.99285961240841" lon="-107.09879699641581"><ele>2139.0</ele><time>2026-05-03T15:28:23Z</time></trkpt><trkpt lat="35.992852519827956" lon="-107.0988827699377"><ele>2139.0</ele><time>2026-05-03T15:28:24Z</time></trkpt><trkpt lat="35.9928312900299" lon="-107.09899663309238"><ele>2139.0</ele><time>2026-05-03T15:28:25Z</time></trkpt><trkpt lat="35.99281122175071" lon="-107.09913355429855"><ele>2139.0</ele><time>2026-05-03T15:28:26Z</time></trkpt><trkpt lat="35.99278891958557" lon="-107.09928631633069"><ele>2138.6</ele><time>2026-05-03T15:28:27Z</time></trkpt><trkpt lat="35.99275313588479" lon="-107.09941604505438"><ele>2138.2</ele><time>2026-05-03T15:28:28Z</time></trkpt><trkpt lat="35.9927117956084" lon="-107.09954528742708"><ele>2137.7999999999997</ele><time>2026-05-03T15:28:29Z</time></trkpt><trkpt lat="35.99267591023809" lon="-107.09965599824737"><ele>2137.4</ele><time>2026-05-03T15:28:30Z</time></trkpt><trkpt lat="35.992617801711084" lon="-107.09978373215496"><ele>2137.0</ele><time>2026-05-03T15:28:31Z</time></trkpt><trkpt lat="35.99255996121871" lon="-107.09991820947424"><ele>2136.7999999999997</ele><time>2026-05-03T15:28:32Z</time></trkpt><trkpt lat="35.99250683369013" lon="-107.10002554805138"><ele>2136.6</ele><time>2026-05-03T15:28:33Z</time></trkpt><trkpt lat="35.992445581116925" lon="-107.10012289565529"><ele>2136.3999999999996</ele><time>2026-05-03T15:28:34Z</time></trkpt><trkpt lat="35.992371264322955" lon="-107.1002084082223"><ele>2136.2</ele><time>2026-05-03T15:28:35Z</time></trkpt><trkpt lat="35.99228689699598" lon="-107.10026909375956"><ele>2136.0</ele><time>2026-05-03T15:28:36Z</time></trkpt><trkpt lat="35.99219781835072" lon="-107.10031361050292"><ele>2135.8</ele><time>2026-05-03T15:28:37Z</time></trkpt><trkpt lat="35.99209583299417" lon="-107.10032952821176"><ele>2135.6</ele><time>2026-05-03T15:28:38Z</time></trkpt><trkpt lat="35.991991413589794" lon="-107.10031010304957"><ele>2135.4</ele><time>2026-05-03T15:28:39Z</time></trkpt><trkpt lat="35.99188249182587" lon="-107.1002775065632"><ele>2135.2</ele><time>2026-05-03T15:28:40Z</time></trkpt><trkpt lat="35.991763747614094" lon="-107.10025296193358"><ele>2135.0</ele><time>2026-05-03T15:28:41Z</time></trkpt><trkpt lat="35.991667495872555" lon="-107.10024688679398"><ele>2134.0</ele><time>2026-05-03T15:28:42Z</time></trkpt><trkpt lat="35.99156103873581" lon="-107.10023524032039"><ele>2133.0</ele><time>2026-05-03T15:28:43Z</time></trkpt><trkpt lat="35.99143488535733" lon="-107.10022044301382"><ele>2132.0</ele><time>2026-05-03T15:28:44Z</time></trkpt><trkpt lat="35.991328649727585" lon="-107.10019877569404"><ele>2131.0</ele><time>2026-05-03T15:28:45Z</time></trkpt><trkpt lat="35.991238416666576" lon="-107.10015114870683"><ele>2130.0</ele><time>2026-05-03T15:28:46Z</time></trkpt><trkpt lat="35.99114011722602" lon="-107.10009515268466"><ele>2130.0</ele><time>2026-05-03T15:28:47Z</time></trkpt><trkpt lat="35.99103669102507" lon="-107.10006342500942"><ele>2130.0</ele><time>2026-05-03T15:28:48Z</time></trkpt><trkpt lat="35.99090742766509" lon="-107.10005407749804"><ele>2130.0</ele><time>2026-05-03T15:28:49Z</time></trkpt><trkpt lat="35.990798556378486" lon="-107.10006886750527"><ele>2130.0</ele><time>2026-05-03T15:28:50Z</time></trkpt><trkpt lat="35.990693543286056" lon="-107.10008388555222"><ele>2129.75</ele><time>2026-05-03T15:28:51Z</time></trkpt><trkpt lat="35.99056165794356" lon="-107.1000988143215"><ele>2129.5</ele><time>2026-05-03T15:28:52Z</time></trkpt><trkpt lat="35.99041009900852" lon="-107.10011039707688"><ele>2129.25</ele><time>2026-05-03T15:28:53Z</time></trkpt><trkpt lat="35.99024772797144" lon="-107.10010346379954"><ele>2129.0</ele><time>2026-05-03T15:28:54Z</time></trkpt><trkpt lat="35.99010032782656" lon="-107.10009664233593"><ele>2128.75</ele><time>2026-05-03T15:28:55Z</time></trkpt><trkpt lat="35.98996530617862" lon="-107.1001003966886"><ele>2128.5</ele><time>2026-05-03T15:28:56Z</time></trkpt><trkpt lat="35.989811635713835" lon="-107.10010654868375"><ele>2128.25</ele><time>2026-05-03T15:28:57Z</time></trkpt><trkpt lat="35.98965731618216" lon="-107.10011415808702"><ele>2128.0</ele><time>2026-05-03T15:28:58Z</time></trkpt><trkpt lat="35.98952467270623" lon="-107.10011952056688"><ele>2128.0</ele><time>2026-05-03T15:28:59Z</time></trkpt><trkpt lat="35.98938072453124" lon="-107.10012521254355"><ele>2128.0</ele><time>2026-05-03T15:29:00Z</time></trkpt><trkpt lat="35.98920890208389" lon="-107.10013103621816"><ele>2128.0</ele><time>2026-05-03T15:29:01Z</time></trkpt><trkpt lat="35.98903900826905" lon="-107.10013261622082"><ele>2127.75</ele><time>2026-05-03T15:29:02Z</time></trkpt><trkpt lat="35.98889959766132" lon="-107.10011776383479"><ele>2127.5</ele><time>2026-05-03T15:29:03Z</time></trkpt><trkpt lat="35.988761966449204" lon="-107.10008708870863"><ele>2127.25</ele><time>2026-05-03T15:29:04Z</time></trkpt><trkpt lat="35.98861943847594" lon="-107.10004733202769"><ele>2127.0</ele><time>2026-05-03T15:29:05Z</time></trkpt><trkpt lat="35.98848956679277" lon="-107.10001754640307"><ele>2127.0</ele><time>2026-05-03T15:29:06Z</time></trkpt><trkpt lat="35.98834913034654" lon="-107.1000063440134"><ele>2127.0</ele><time>2026-05-03T15:29:07Z</time></trkpt><trkpt lat="35.98818146371207" lon="-107.10001092875753"><ele>2127.0</ele><time>2026-05-03T15:29:08Z</time></trkpt><trkpt lat="35.98803386202282" lon="-107.10000568925571"><ele>2126.7999999999997</ele><time>2026-05-03T15:29:09Z</time></trkpt><trkpt lat="35.98791747792456" lon="-107.09999754874421"><ele>2126.6</ele><time>2026-05-03T15:29:10Z</time></trkpt><trkpt lat="35.98782776592325" lon="-107.10000917740011"><ele>2126.3999999999996</ele><time>2026-05-03T15:29:11Z</time></trkpt><trkpt lat="35.9877307711748" lon="-107.10004974630762"><ele>2126.2</ele><time>2026-05-03T15:29:12Z</time></trkpt><trkpt lat="35.987621739224174" lon="-107.1001174028328"><ele>2126.0</ele><time>2026-05-03T15:29:13Z</time></trkpt><trkpt lat="35.98750155628243" lon="-107.10019647669817"><ele>2126.0</ele><time>2026-05-03T15:29:14Z</time></trkpt><trkpt lat="35.987383039108316" lon="-107.10027324132406"><ele>2126.0</ele><time>2026-05-03T15:29:15Z</time></trkpt><trkpt lat="35.987273751943725" lon="-107.10034371350778"><ele>2126.0</ele><time>2026-05-03T15:29:16Z</time></trkpt><trkpt lat="35.987159844205486" lon="-107.10040741564659"><ele>2126.0</ele><time>2026-05-03T15:29:17Z</time></trkpt><trkpt lat="35.98703668170271" lon="-107.1004803589243"><ele>2126.0</ele><time>2026-05-03T15:29:18Z</time></trkpt><trkpt lat="35.986914567551416" lon="-107.1005635997537"><ele>2126.0</ele><time>2026-05-03T15:29:19Z</time></trkpt><trkpt lat="35.98680990870835" lon="-107.10062658451045"><ele>2126.0</ele><time>2026-05-03T15:29:20Z</time></trkpt><trkpt lat="35.986711878952725" lon="-107.10067057632011"><ele>2126.0</ele><time>2026-05-03T15:29:21Z</time></trkpt><trkpt lat="35.98661501887926" lon="-107.10071003851927"><ele>2126.0</ele><time>2026-05-03T15:29:22Z</time></trkpt><trkpt lat="35.98653196283575" lon="-107.10073865490797"><ele>2126.0</ele><time>2026-05-03T15:29:23Z</time></trkpt><trkpt lat="35.98643840153538" lon="-107.10077696604628"><ele>2126.0</ele><time>2026-05-03T15:29:25Z</time></trkpt><trkpt lat="35.98636479726615" lon="-107.10078695560992"><ele>2126.0</ele><time>2026-05-03T15:29:26Z</time></trkpt><trkpt lat="35.986279080564046" lon="-107.10077581225138"><ele>2126.0</ele><time>2026-05-03T15:29:27Z</time></trkpt><trkpt lat="35.98619717710647" lon="-107.10077723950634"><ele>2126.0</ele><time>2026-05-03T15:29:28Z</time></trkpt><trkpt lat="35.98611105846803" lon="-107.10078101711481"><ele>2125.6666666666665</ele><time>2026-05-03T15:29:29Z</time></trkpt><trkpt lat="35.986024905638736" lon="-107.10076988566159"><ele>2125.333333333333</ele><time>2026-05-03T15:29:30Z</time></trkpt><trkpt lat="35.98592707980239" lon="-107.10076960919618"><ele>2125.0</ele><time>2026-05-03T15:29:31Z</time></trkpt><trkpt lat="35.98584888598308" lon="-107.10078099943864"><ele>2124.6666666666665</ele><time>2026-05-03T15:29:32Z</time></trkpt><trkpt lat="35.985757439637574" lon="-107.10076374632352"><ele>2124.3333333333335</ele><time>2026-05-03T15:29:33Z</time></trkpt><trkpt lat="35.985670280404406" lon="-107.10075238451711"><ele>2124.0</ele><time>2026-05-03T15:29:34Z</time></trkpt><trkpt lat="35.98560125611044" lon="-107.10078380367985"><ele>2123.8333333333335</ele><time>2026-05-03T15:29:35Z</time></trkpt><trkpt lat="35.985541556795155" lon="-107.10085311298873"><ele>2123.6666666666665</ele><time>2026-05-03T15:29:36Z</time></trkpt><trkpt lat="35.98546170984704" lon="-107.10092215318676"><ele>2123.5</ele><time>2026-05-03T15:29:37Z</time></trkpt><trkpt lat="35.985395051214034" lon="-107.10096207131772"><ele>2123.333333333333</ele><time>2026-05-03T15:29:38Z</time></trkpt><trkpt lat="35.98533236409052" lon="-107.10097798821603"><ele>2123.1666666666665</ele><time>2026-05-03T15:29:39Z</time></trkpt><trkpt lat="35.98528137447566" lon="-107.10103284432577"><ele>2123.0</ele><time>2026-05-03T15:29:40Z</time></trkpt><trkpt lat="35.985228170661316" lon="-107.10112013619683"><ele>2123.0</ele><time>2026-05-03T15:29:41Z</time></trkpt><trkpt lat="35.985146427845315" lon="-107.10121322537033"><ele>2123.0</ele><time>2026-05-03T15:29:42Z</time></trkpt><trkpt lat="35.98507289997546" lon="-107.10129429921446"><ele>2123.0</ele><time>2026-05-03T15:29:43Z</time></trkpt><trkpt lat="35.98499902111908" lon="-107.1013794450241"><ele>2123.0</ele><time>2026-05-03T15:29:44Z</time></trkpt><trkpt lat="35.98493751788158" lon="-107.10144364440572"><ele>2123.0</ele><time>2026-05-03T15:29:45Z</time></trkpt><trkpt lat="35.9848900623876" lon="-107.10150587887826"><ele>2122.833333333333</ele><time>2026-05-03T15:29:46Z</time></trkpt><trkpt lat="35.98484189515547" lon="-107.10159522474947"><ele>2122.6666666666665</ele><time>2026-05-03T15:29:47Z</time></trkpt><trkpt lat="35.984785154995066" lon="-107.10168509214255"><ele>2122.5</ele><time>2026-05-03T15:29:48Z</time></trkpt><trkpt lat="35.984706244502085" lon="-107.10176232890356"><ele>2122.3333333333335</ele><time>2026-05-03T15:29:49.001Z</time></trkpt><trkpt lat="35.98463002945796" lon="-107.10182231222149"><ele>2122.166666666667</ele><time>2026-05-03T15:29:50.001Z</time></trkpt><trkpt lat="35.98457557797923" lon="-107.10187946750473"><ele>2122.0</ele><time>2026-05-03T15:29:51.001Z</time></trkpt><trkpt lat="35.984537491396914" lon="-107.10195013796067"><ele>2122.0</ele><time>2026-05-03T15:29:52.001Z</time></trkpt><trkpt lat="35.98449740215753" lon="-107.10204300529138"><ele>2122.0</ele><time>2026-05-03T15:29:53.001Z</time></trkpt><trkpt lat="35.98444353713207" lon="-107.10213575145144"><ele>2122.0</ele><time>2026-05-03T15:29:54.001Z</time></trkpt><trkpt lat="35.98438919692076" lon="-107.1022048866393"><ele>2122.0</ele><time>2026-05-03T15:29:55.001Z</time></trkpt><trkpt lat="35.98434347571133" lon="-107.10227292394579"><ele>2122.0</ele><time>2026-05-03T15:29:56.001Z</time></trkpt><trkpt lat="35.98428242750778" lon="-107.10236651170129"><ele>2122.0</ele><time>2026-05-03T15:29:58.001Z</time></trkpt><trkpt lat="35.9843720098128" lon="-107.10249400768937"><ele>2122.0</ele><time>2026-05-03T15:30:01.001Z</time></trkpt><trkpt lat="35.98448275104962" lon="-107.10254219549721"><ele>2122.0</ele><time>2026-05-03T15:30:02.001Z</time></trkpt><trkpt lat="35.984607127511666" lon="-107.10262896677852"><ele>2122.0</ele><time>2026-05-03T15:30:03.001Z</time></trkpt><trkpt lat="35.98474410677617" lon="-107.1027285231706"><ele>2122.0</ele><time>2026-05-03T15:30:04.001Z</time></trkpt><trkpt lat="35.98483900777763" lon="-107.10281070302379"><ele>2122.0</ele><time>2026-05-03T15:30:05.001Z</time></trkpt><trkpt lat="35.98489836450334" lon="-107.10288975732087"><ele>2122.0</ele><time>2026-05-03T15:30:06.001Z</time></trkpt><trkpt lat="35.98492835338972" lon="-107.10302136278901"><ele>2122.0</ele><time>2026-05-03T15:30:08.001Z</time></trkpt><trkpt lat="35.98491187663377" lon="-107.1031367211255"><ele>2122.0</ele><time>2026-05-03T15:30:09.001Z</time></trkpt><trkpt lat="35.98490267380399" lon="-107.10322015395421"><ele>2122.0</ele><time>2026-05-03T15:30:10.001Z</time></trkpt><trkpt lat="35.98495179986093" lon="-107.10327250134539"><ele>2122.0</ele><time>2026-05-03T15:30:12.001Z</time></trkpt><trkpt lat="35.98501283127291" lon="-107.10329999738177"><ele>2121.75</ele><time>2026-05-03T15:30:13.001Z</time></trkpt><trkpt lat="35.98511484987759" lon="-107.10331617307862"><ele>2121.5</ele><time>2026-05-03T15:30:15.001Z</time></trkpt><trkpt lat="35.985339983379426" lon="-107.10327301392054"><ele>2121.25</ele><time>2026-05-03T15:30:18.001Z</time></trkpt><trkpt lat="35.985445964360494" lon="-107.1032527214977"><ele>2121.0</ele><time>2026-05-03T15:30:19.001Z</time></trkpt><trkpt lat="35.98555078031363" lon="-107.10326564224954"><ele>2121.0</ele><time>2026-05-03T15:30:20.001Z</time></trkpt><trkpt lat="35.98564285799842" lon="-107.10328427856176"><ele>2121.0</ele><time>2026-05-03T15:30:21.001Z</time></trkpt><trkpt lat="35.98572749113845" lon="-107.10327861379314"><ele>2121.0</ele><time>2026-05-03T15:30:22.001Z</time></trkpt><trkpt lat="35.98581477723447" lon="-107.10324672615685"><ele>2121.0</ele><time>2026-05-03T15:30:23.001Z</time></trkpt><trkpt lat="35.98590182930924" lon="-107.10321360427714"><ele>2121.0</ele><time>2026-05-03T15:30:24.001Z</time></trkpt><trkpt lat="35.98601588188208" lon="-107.10315295655916"><ele>2121.2</ele><time>2026-05-03T15:30:25Z</time></trkpt><trkpt lat="35.98613161306125" lon="-107.10310079508669"><ele>2121.3999999999996</ele><time>2026-05-03T15:30:26Z</time></trkpt><trkpt lat="35.98623171760753" lon="-107.10304638363255"><ele>2121.6</ele><time>2026-05-03T15:30:27Z</time></trkpt><trkpt lat="35.98630146794754" lon="-107.10299094245633"><ele>2121.7999999999997</ele><time>2026-05-03T15:30:28Z</time></trkpt><trkpt lat="35.986343769278804" lon="-107.10292418160502"><ele>2122.0</ele><time>2026-05-03T15:30:29Z</time></trkpt><trkpt lat="35.986383195207594" lon="-107.10284853078068"><ele>2122.0</ele><time>2026-05-03T15:30:30Z</time></trkpt><trkpt lat="35.98642217386056" lon="-107.1027717285175"><ele>2122.0</ele><time>2026-05-03T15:30:31Z</time></trkpt><trkpt lat="35.986424151164" lon="-107.10268133071347"><ele>2122.0</ele><time>2026-05-03T15:30:32Z</time></trkpt><trkpt lat="35.98646796859647" lon="-107.10253698089906"><ele>2122.0</ele><time>2026-05-03T15:30:34Z</time></trkpt><trkpt lat="35.986522411960046" lon="-107.10245873640443"><ele>2122.0</ele><time>2026-05-03T15:30:35Z</time></trkpt><trkpt lat="35.98658867188268" lon="-107.10237941567128"><ele>2122.0</ele><time>2026-05-03T15:30:36Z</time></trkpt><trkpt lat="35.9866688403476" lon="-107.10229166038786"><ele>2122.2</ele><time>2026-05-03T15:30:37Z</time></trkpt><trkpt lat="35.98682329930728" lon="-107.10217924728381"><ele>2122.3999999999996</ele><time>2026-05-03T15:30:38Z</time></trkpt><trkpt lat="35.98692175248335" lon="-107.10213502976467"><ele>2122.6000000000004</ele><time>2026-05-03T15:30:39Z</time></trkpt><trkpt lat="35.98699799464868" lon="-107.10210960643828"><ele>2122.8</ele><time>2026-05-03T15:30:40Z</time></trkpt><trkpt lat="35.98706694721903" lon="-107.10204920411651"><ele>2123.0</ele><time>2026-05-03T15:30:41Z</time></trkpt><trkpt lat="35.987148432272114" lon="-107.10197732539147"><ele>2123.0</ele><time>2026-05-03T15:30:42Z</time></trkpt><trkpt lat="35.98723505675497" lon="-107.10191027385036"><ele>2123.0</ele><time>2026-05-03T15:30:43Z</time></trkpt><trkpt lat="35.98732654035603" lon="-107.10185319145347"><ele>2123.0</ele><time>2026-05-03T15:30:44Z</time></trkpt><trkpt lat="35.987395020699054" lon="-107.10181748224721"><ele>2123.0</ele><time>2026-05-03T15:30:45Z</time></trkpt><trkpt lat="35.9874613408772" lon="-107.10179577194049"><ele>2123.0</ele><time>2026-05-03T15:30:46Z</time></trkpt><trkpt lat="35.98756770741641" lon="-107.10179512492748"><ele>2123.1666666666665</ele><time>2026-05-03T15:30:47Z</time></trkpt><trkpt lat="35.98768489067705" lon="-107.10179089743698"><ele>2123.333333333333</ele><time>2026-05-03T15:30:48Z</time></trkpt><trkpt lat="35.98776304562332" lon="-107.10178679263478"><ele>2123.5</ele><time>2026-05-03T15:30:49Z</time></trkpt><trkpt lat="35.98782574872494" lon="-107.10176715615115"><ele>2123.6666666666665</ele><time>2026-05-03T15:30:50Z</time></trkpt><trkpt lat="35.987898809545214" lon="-107.10178584098047"><ele>2123.8333333333335</ele><time>2026-05-03T15:30:51Z</time></trkpt><trkpt lat="35.987981810942436" lon="-107.10181966380729"><ele>2124.0</ele><time>2026-05-03T15:30:52Z</time></trkpt><trkpt lat="35.9880751680469" lon="-107.10187022985049"><ele>2124.0</ele><time>2026-05-03T15:30:53Z</time></trkpt><trkpt lat="35.98814598867329" lon="-107.10187983055579"><ele>2124.0</ele><time>2026-05-03T15:30:54Z</time></trkpt><trkpt lat="35.98822202499474" lon="-107.10189725938476"><ele>2124.0</ele><time>2026-05-03T15:30:55Z</time></trkpt><trkpt lat="35.988330846646924" lon="-107.10188859243837"><ele>2124.0</ele><time>2026-05-03T15:30:56Z</time></trkpt><trkpt lat="35.988462278921936" lon="-107.10187453764718"><ele>2124.0</ele><time>2026-05-03T15:30:57Z</time></trkpt><trkpt lat="35.98854324127868" lon="-107.1019102643925"><ele>2124.6</ele><time>2026-05-03T15:30:58Z</time></trkpt><trkpt lat="35.98860595595957" lon="-107.10196078523889"><ele>2125.2</ele><time>2026-05-03T15:30:59Z</time></trkpt><trkpt lat="35.98867146857643" lon="-107.10202241130699"><ele>2125.7999999999997</ele><time>2026-05-03T15:31:00Z</time></trkpt><trkpt lat="35.9887319918399" lon="-107.10210396255047"><ele>2126.4</ele><time>2026-05-03T15:31:01Z</time></trkpt><trkpt lat="35.98882610227274" lon="-107.10217250108032"><ele>2127.0</ele><time>2026-05-03T15:31:03Z</time></trkpt><trkpt lat="35.98894731224178" lon="-107.10216994819002"><ele>2127.0</ele><time>2026-05-03T15:31:05Z</time></trkpt><trkpt lat="35.989005948727346" lon="-107.1021349545111"><ele>2127.0</ele><time>2026-05-03T15:31:06Z</time></trkpt><trkpt lat="35.98908042172401" lon="-107.10209903796083"><ele>2127.0</ele><time>2026-05-03T15:31:07Z</time></trkpt><trkpt lat="35.98914928526223" lon="-107.10204786991493"><ele>2127.0</ele><time>2026-05-03T15:31:08Z</time></trkpt><trkpt lat="35.98919606205921" lon="-107.10198739700216"><ele>2127.0</ele><time>2026-05-03T15:31:09Z</time></trkpt><trkpt lat="35.98932152909548" lon="-107.10202637231606"><ele>2127.0</ele><time>2026-05-03T15:31:11Z</time></trkpt><trkpt lat="35.989399459380735" lon="-107.10212233107617"><ele>2127.0</ele><time>2026-05-03T15:31:12Z</time></trkpt><trkpt lat="35.98946260338482" lon="-107.10224023156327"><ele>2127.0</ele><time>2026-05-03T15:31:13Z</time></trkpt><trkpt lat="35.98952598260011" lon="-107.1023122574411"><ele>2127.0</ele><time>2026-05-03T15:31:14Z</time></trkpt><trkpt lat="35.989564249235265" lon="-107.10240146406018"><ele>2127.0</ele><time>2026-05-03T15:31:16Z</time></trkpt><trkpt lat="35.989609744782534" lon="-107.10251544871228"><ele>2127.0</ele><time>2026-05-03T15:31:18Z</time></trkpt><trkpt lat="35.98969115583457" lon="-107.1025644657819"><ele>2126.7999999999997</ele><time>2026-05-03T15:31:20Z</time></trkpt><trkpt lat="35.989792332112934" lon="-107.1025495661103"><ele>2126.6</ele><time>2026-05-03T15:31:22Z</time></trkpt><trkpt lat="35.989876905772924" lon="-107.10254005042357"><ele>2126.3999999999996</ele><time>2026-05-03T15:31:23Z</time></trkpt><trkpt lat="35.989962571346915" lon="-107.10253010837557"><ele>2126.2</ele><time>2026-05-03T15:31:24Z</time></trkpt><trkpt lat="35.99003005147699" lon="-107.10251252595606"><ele>2126.0</ele><time>2026-05-03T15:31:25Z</time></trkpt><trkpt lat="35.99014722778058" lon="-107.10251976960133"><ele>2126.6</ele><time>2026-05-03T15:31:27Z</time></trkpt><trkpt lat="35.990229864235886" lon="-107.10260423284252"><ele>2127.2</ele><time>2026-05-03T15:31:28Z</time></trkpt><trkpt lat="35.990336937711774" lon="-107.10269575868041"><ele>2127.8</ele><time>2026-05-03T15:31:29Z</time></trkpt><trkpt lat="35.99044956261229" lon="-107.10275728267894"><ele>2128.4</ele><time>2026-05-03T15:31:30Z</time></trkpt><trkpt lat="35.99052685251962" lon="-107.1028022847162"><ele>2129.0</ele><time>2026-05-03T15:31:31Z</time></trkpt><trkpt lat="35.990603335099905" lon="-107.10285059173034"><ele>2129.0</ele><time>2026-05-03T15:31:32Z</time></trkpt><trkpt lat="35.99066445286453" lon="-107.10289353958655"><ele>2129.0</ele><time>2026-05-03T15:31:33Z</time></trkpt><trkpt lat="35.99074046948023" lon="-107.10293458531567"><ele>2129.0</ele><time>2026-05-03T15:31:34Z</time></trkpt><trkpt lat="35.99084332842381" lon="-107.10295557147768"><ele>2129.0</ele><time>2026-05-03T15:31:35Z</time></trkpt><trkpt lat="35.99096222897801" lon="-107.1029641581029"><ele>2129.0</ele><time>2026-05-03T15:31:36Z</time></trkpt><trkpt lat="35.991090564949474" lon="-107.1029934725891"><ele>2129.2</ele><time>2026-05-03T15:31:37Z</time></trkpt><trkpt lat="35.99121860371502" lon="-107.10303483241336"><ele>2129.4</ele><time>2026-05-03T15:31:38Z</time></trkpt><trkpt lat="35.991316267724365" lon="-107.10307636830635"><ele>2129.6</ele><time>2026-05-03T15:31:39Z</time></trkpt><trkpt lat="35.991404637302004" lon="-107.10312107902755"><ele>2129.8</ele><time>2026-05-03T15:31:40Z</time></trkpt><trkpt lat="35.99147550784907" lon="-107.10318361455464"><ele>2130.0</ele><time>2026-05-03T15:31:41Z</time></trkpt><trkpt lat="35.99156039543739" lon="-107.10328755822965"><ele>2130.0</ele><time>2026-05-03T15:31:42Z</time></trkpt><trkpt lat="35.99162476683469" lon="-107.1033626907569"><ele>2130.0</ele><time>2026-05-03T15:31:43Z</time></trkpt><trkpt lat="35.99170067174804" lon="-107.10339843797543"><ele>2130.0</ele><time>2026-05-03T15:31:45Z</time></trkpt><trkpt lat="35.99177530463708" lon="-107.10338928062059"><ele>2130.0</ele><time>2026-05-03T15:31:46Z</time></trkpt><trkpt lat="35.991897017237555" lon="-107.10334110020001"><ele>2130.0</ele><time>2026-05-03T15:31:47Z</time></trkpt><trkpt lat="35.991981920649465" lon="-107.10326007451448"><ele>2130.4</ele><time>2026-05-03T15:31:48Z</time></trkpt><trkpt lat="35.99208111218484" lon="-107.10318885249622"><ele>2130.8</ele><time>2026-05-03T15:31:50Z</time></trkpt><trkpt lat="35.99216928843334" lon="-107.10317654979514"><ele>2131.2</ele><time>2026-05-03T15:31:51Z</time></trkpt><trkpt lat="35.99226648143931" lon="-107.10317519262654"><ele>2131.6</ele><time>2026-05-03T15:31:52Z</time></trkpt><trkpt lat="35.99237208861836" lon="-107.10320597431621"><ele>2132.0</ele><time>2026-05-03T15:31:53Z</time></trkpt><trkpt lat="35.9925022849751" lon="-107.10325726173397"><ele>2132.0</ele><time>2026-05-03T15:31:54Z</time></trkpt><trkpt lat="35.992645121118386" lon="-107.10329377790654"><ele>2132.0</ele><time>2026-05-03T15:31:55Z</time></trkpt><trkpt lat="35.99277777265863" lon="-107.10329952940042"><ele>2132.0</ele><time>2026-05-03T15:31:56Z</time></trkpt><trkpt lat="35.99290744768108" lon="-107.10327100498209"><ele>2132.0</ele><time>2026-05-03T15:31:57Z</time></trkpt><trkpt lat="35.99301294410217" lon="-107.10324553441771"><ele>2132.0</ele><time>2026-05-03T15:31:58Z</time></trkpt><trkpt lat="35.99307937735453" lon="-107.1032461571812"><ele>2132.0</ele><time>2026-05-03T15:31:59.001Z</time></trkpt><trkpt lat="35.993172985643945" lon="-107.10326885837489"><ele>2132.0</ele><time>2026-05-03T15:32:01.001Z</time></trkpt><trkpt lat="35.99322182475216" lon="-107.10332118530644"><ele>2132.0</ele><time>2026-05-03T15:32:03.001Z</time></trkpt><trkpt lat="35.993194680910065" lon="-107.10342339555066"><ele>2132.0</ele><time>2026-05-03T15:32:05.001Z</time></trkpt><trkpt lat="35.99315601511376" lon="-107.10350350835031"><ele>2132.0</ele><time>2026-05-03T15:32:06.001Z</time></trkpt><trkpt lat="35.99313656358725" lon="-107.10359522564643"><ele>2132.0</ele><time>2026-05-03T15:32:07.001Z</time></trkpt><trkpt lat="35.99317366986588" lon="-107.10371223082333"><ele>2132.0</ele><time>2026-05-03T15:32:08.001Z</time></trkpt><trkpt lat="35.993194737599154" lon="-107.10379943842868"><ele>2132.0</ele><time>2026-05-03T15:32:09.001Z</time></trkpt><trkpt lat="35.993156511961004" lon="-107.10392034383476"><ele>2132.0</ele><time>2026-05-03T15:32:11.001Z</time></trkpt><trkpt lat="35.993240366380306" lon="-107.10406033286537"><ele>2132.0</ele><time>2026-05-03T15:32:13.001Z</time></trkpt><trkpt lat="35.99332595843945" lon="-107.10411679725794"><ele>2132.5</ele><time>2026-05-03T15:32:14.001Z</time></trkpt><trkpt lat="35.99343548223396" lon="-107.10417891641893"><ele>2133.0</ele><time>2026-05-03T15:32:15.001Z</time></trkpt><trkpt lat="35.99353048709507" lon="-107.10423168488052"><ele>2133.5</ele><time>2026-05-03T15:32:16.001Z</time></trkpt><trkpt lat="35.99363874730475" lon="-107.10429428225555"><ele>2134.0</ele><time>2026-05-03T15:32:17.001Z</time></trkpt><trkpt lat="35.9937762516277" lon="-107.1043831381244"><ele>2134.0</ele><time>2026-05-03T15:32:18.001Z</time></trkpt><trkpt lat="35.99391827425314" lon="-107.10449817354154"><ele>2134.0</ele><time>2026-05-03T15:32:19.001Z</time></trkpt><trkpt lat="35.994041323983964" lon="-107.10460292753476"><ele>2134.0</ele><time>2026-05-03T15:32:20.001Z</time></trkpt><trkpt lat="35.99414980215435" lon="-107.10469108942736"><ele>2134.0</ele><time>2026-05-03T15:32:21.001Z</time></trkpt><trkpt lat="35.99425609154828" lon="-107.10477022112204"><ele>2134.25</ele><time>2026-05-03T15:32:22.001Z</time></trkpt><trkpt lat="35.99438277810677" lon="-107.1048446761993"><ele>2134.5</ele><time>2026-05-03T15:32:23.001Z</time></trkpt><trkpt lat="35.9945008402665" lon="-107.10489238124433"><ele>2134.75</ele><time>2026-05-03T15:32:24.001Z</time></trkpt><trkpt lat="35.99460402082433" lon="-107.10491507702943"><ele>2135.0</ele><time>2026-05-03T15:32:25.001Z</time></trkpt><trkpt lat="35.99471622111194" lon="-107.10492566741964"><ele>2135.5</ele><time>2026-05-03T15:32:26.001Z</time></trkpt><trkpt lat="35.994860938634915" lon="-107.10492868199273"><ele>2136.0</ele><time>2026-05-03T15:32:27.001Z</time></trkpt><trkpt lat="35.99500186177887" lon="-107.10491778445288"><ele>2136.5</ele><time>2026-05-03T15:32:28.001Z</time></trkpt><trkpt lat="35.99511847167328" lon="-107.10490729567134"><ele>2137.0</ele><time>2026-05-03T15:32:29.001Z</time></trkpt><trkpt lat="35.995206441526705" lon="-107.10491905897362"><ele>2137.4</ele><time>2026-05-03T15:32:30.001Z</time></trkpt><trkpt lat="35.99529419985342" lon="-107.10498722342837"><ele>2137.7999999999997</ele><time>2026-05-03T15:32:31Z</time></trkpt><trkpt lat="35.99537990540046" lon="-107.1050758626852"><ele>2138.2</ele><time>2026-05-03T15:32:32Z</time></trkpt><trkpt lat="35.995435604823136" lon="-107.10519036055969"><ele>2138.6</ele><time>2026-05-03T15:32:33Z</time></trkpt><trkpt lat="35.99546566156937" lon="-107.10529998257093"><ele>2139.0</ele><time>2026-05-03T15:32:34Z</time></trkpt><trkpt lat="35.99547228487797" lon="-107.1053871059153"><ele>2139.0</ele><time>2026-05-03T15:32:35Z</time></trkpt><trkpt lat="35.99548199456798" lon="-107.10551080148583"><ele>2139.0</ele><time>2026-05-03T15:32:37Z</time></trkpt><trkpt lat="35.99552132147223" lon="-107.1056400218376"><ele>2139.0</ele><time>2026-05-03T15:32:39Z</time></trkpt><trkpt lat="35.99559513907394" lon="-107.10575211937079"><ele>2139.0</ele><time>2026-05-03T15:32:40Z</time></trkpt><trkpt lat="35.995711473768544" lon="-107.10589613250686"><ele>2140.0</ele><time>2026-05-03T15:32:41Z</time></trkpt><trkpt lat="35.9958424276651" lon="-107.10605429888373"><ele>2141.0</ele><time>2026-05-03T15:32:42Z</time></trkpt><trkpt lat="35.99596511285916" lon="-107.10621240555487"><ele>2142.0</ele><time>2026-05-03T15:32:43Z</time></trkpt><trkpt lat="35.99606573109853" lon="-107.10634756869472"><ele>2142.0</ele><time>2026-05-03T15:32:44Z</time></trkpt><trkpt lat="35.99616028350475" lon="-107.10644708061346"><ele>2142.0</ele><time>2026-05-03T15:32:45Z</time></trkpt><trkpt lat="35.99624170599991" lon="-107.10656516524013"><ele>2142.0</ele><time>2026-05-03T15:32:46Z</time></trkpt><trkpt lat="35.996308076231166" lon="-107.10669352197036"><ele>2142.0</ele><time>2026-05-03T15:32:47Z</time></trkpt><trkpt lat="35.996367309968775" lon="-107.10683654384054"><ele>2142.2</ele><time>2026-05-03T15:32:48Z</time></trkpt><trkpt lat="35.996419619884726" lon="-107.10698766199106"><ele>2142.3999999999996</ele><time>2026-05-03T15:32:49Z</time></trkpt><trkpt lat="35.99646740047418" lon="-107.10713467695413"><ele>2142.6000000000004</ele><time>2026-05-03T15:32:50Z</time></trkpt><trkpt lat="35.99650503878367" lon="-107.10724223651484"><ele>2142.8</ele><time>2026-05-03T15:32:51Z</time></trkpt><trkpt lat="35.99654047340049" lon="-107.10731530825088"><ele>2143.0</ele><time>2026-05-03T15:32:52Z</time></trkpt><trkpt lat="35.99661478258356" lon="-107.10737569009409"><ele>2144.75</ele><time>2026-05-03T15:32:53Z</time></trkpt><trkpt lat="35.996707863289586" lon="-107.10747145803529"><ele>2146.5</ele><time>2026-05-03T15:32:54Z</time></trkpt><trkpt lat="35.996769274537236" lon="-107.10751994533886"><ele>2148.25</ele><time>2026-05-03T15:32:55Z</time></trkpt><trkpt lat="35.99693149581273" lon="-107.10750439776137"><ele>2150.0</ele><time>2026-05-03T15:32:57Z</time></trkpt><trkpt lat="35.997074669029196" lon="-107.10746122668849"><ele>2150.0</ele><time>2026-05-03T15:32:58Z</time></trkpt><trkpt lat="35.99724146955955" lon="-107.10742757822739"><ele>2150.0</ele><time>2026-05-03T15:32:59Z</time></trkpt><trkpt lat="35.997391587228954" lon="-107.10740182292473"><ele>2150.0</ele><time>2026-05-03T15:33:00Z</time></trkpt><trkpt lat="35.99753026506237" lon="-107.10737432019273"><ele>2150.25</ele><time>2026-05-03T15:33:01Z</time></trkpt><trkpt lat="35.99766555831932" lon="-107.10734030076739"><ele>2150.5</ele><time>2026-05-03T15:33:02Z</time></trkpt><trkpt lat="35.99779783743964" lon="-107.10729513124255"><ele>2150.75</ele><time>2026-05-03T15:33:03Z</time></trkpt><trkpt lat="35.99791977813087" lon="-107.10724523827281"><ele>2151.0</ele><time>2026-05-03T15:33:04Z</time></trkpt><trkpt lat="35.99802936773583" lon="-107.10716444434047"><ele>2151.0</ele><time>2026-05-03T15:33:05Z</time></trkpt><trkpt lat="35.99815813689726" lon="-107.1070519851233"><ele>2151.0</ele><time>2026-05-03T15:33:06Z</time></trkpt><trkpt lat="35.99829550684722" lon="-107.10690913625398"><ele>2151.0</ele><time>2026-05-03T15:33:07Z</time></trkpt><trkpt lat="35.99842106111726" lon="-107.10678595081808"><ele>2150.3333333333335</ele><time>2026-05-03T15:33:08Z</time></trkpt><trkpt lat="35.99853578635701" lon="-107.1066693402875"><ele>2149.666666666667</ele><time>2026-05-03T15:33:09Z</time></trkpt><trkpt lat="35.99865273155543" lon="-107.10655962690024"><ele>2149.0</ele><time>2026-05-03T15:33:10Z</time></trkpt><trkpt lat="35.998781170194896" lon="-107.10644153564826"><ele>2149.0</ele><time>2026-05-03T15:33:11Z</time></trkpt><trkpt lat="35.998903602914645" lon="-107.1063321150872"><ele>2149.0</ele><time>2026-05-03T15:33:12Z</time></trkpt><trkpt lat="35.999026574170514" lon="-107.10623376421238"><ele>2149.0</ele><time>2026-05-03T15:33:13Z</time></trkpt><trkpt lat="35.99916558183028" lon="-107.1061451034979"><ele>2149.75</ele><time>2026-05-03T15:33:14Z</time></trkpt><trkpt lat="35.999307082996644" lon="-107.10606005208305"><ele>2150.5</ele><time>2026-05-03T15:33:15Z</time></trkpt><trkpt lat="35.999433455222" lon="-107.10597992380593"><ele>2151.25</ele><time>2026-05-03T15:33:16Z</time></trkpt><trkpt lat="35.99955703090275" lon="-107.10589396709962"><ele>2152.0</ele><time>2026-05-03T15:33:17Z</time></trkpt><trkpt lat="35.9996741086127" lon="-107.10580985663157"><ele>2151.25</ele><time>2026-05-03T15:33:18Z</time></trkpt><trkpt lat="35.99978180714828" lon="-107.10573704816649"><ele>2150.5</ele><time>2026-05-03T15:33:19Z</time></trkpt><trkpt lat="35.99989536354055" lon="-107.10569896108153"><ele>2149.75</ele><time>2026-05-03T15:33:20Z</time></trkpt><trkpt lat="36.00002894263159" lon="-107.10569842933384"><ele>2149.0</ele><time>2026-05-03T15:33:21Z</time></trkpt><trkpt lat="36.00017263333342" lon="-107.10571620772696"><ele>2149.0</ele><time>2026-05-03T15:33:22Z</time></trkpt><trkpt lat="36.00031598290618" lon="-107.10574246655284"><ele>2149.0</ele><time>2026-05-03T15:33:23Z</time></trkpt><trkpt lat="36.000427310689474" lon="-107.1057709288151"><ele>2149.0</ele><time>2026-05-03T15:33:24Z</time></trkpt><trkpt lat="36.000509735566915" lon="-107.10579716220413"><ele>2149.0</ele><time>2026-05-03T15:33:25Z</time></trkpt><trkpt lat="36.00059148352493" lon="-107.1058302963215"><ele>2149.0</ele><time>2026-05-03T15:33:26Z</time></trkpt><trkpt lat="36.000713407473896" lon="-107.1058580768082"><ele>2149.75</ele><time>2026-05-03T15:33:27Z</time></trkpt><trkpt lat="36.00083981605279" lon="-107.10586820675618"><ele>2150.5</ele><time>2026-05-03T15:33:28Z</time></trkpt><trkpt lat="36.00097059904381" lon="-107.10591019769942"><ele>2151.25</ele><time>2026-05-03T15:33:29Z</time></trkpt><trkpt lat="36.00111292776089" lon="-107.1059318844274"><ele>2152.0</ele><time>2026-05-03T15:33:30Z</time></trkpt><trkpt lat="36.001227526564925" lon="-107.10594029025695"><ele>2152.0</ele><time>2026-05-03T15:33:31Z</time></trkpt><trkpt lat="36.00135253416146" lon="-107.10593776512586"><ele>2152.0</ele><time>2026-05-03T15:33:32Z</time></trkpt><trkpt lat="36.00149185193763" lon="-107.10591074151067"><ele>2152.0</ele><time>2026-05-03T15:33:33Z</time></trkpt><trkpt lat="36.00162574249849" lon="-107.10586275407044"><ele>2152.0</ele><time>2026-05-03T15:33:34Z</time></trkpt><trkpt lat="36.001740255190555" lon="-107.10580307044619"><ele>2152.5</ele><time>2026-05-03T15:33:35Z</time></trkpt><trkpt lat="36.00184887747814" lon="-107.10571475623519"><ele>2153.0</ele><time>2026-05-03T15:33:36Z</time></trkpt><trkpt lat="36.001965131486486" lon="-107.10559512022724"><ele>2153.5</ele><time>2026-05-03T15:33:37Z</time></trkpt><trkpt lat="36.0020659034932" lon="-107.10549111898125"><ele>2154.0</ele><time>2026-05-03T15:33:38Z</time></trkpt><trkpt lat="36.002144707779934" lon="-107.10546662328595"><ele>2154.0</ele><time>2026-05-03T15:33:39Z</time></trkpt><trkpt lat="36.0022284877421" lon="-107.10549241288285"><ele>2154.0</ele><time>2026-05-03T15:33:40Z</time></trkpt><trkpt lat="36.0023585185609" lon="-107.10552663185638"><ele>2154.0</ele><time>2026-05-03T15:33:41Z</time></trkpt><trkpt lat="36.00250844726823" lon="-107.10553407906232"><ele>2154.0</ele><time>2026-05-03T15:33:42Z</time></trkpt><trkpt lat="36.00263088992208" lon="-107.10549518459261"><ele>2154.0</ele><time>2026-05-03T15:33:43Z</time></trkpt><trkpt lat="36.0027808375265" lon="-107.10542135668938"><ele>2154.0</ele><time>2026-05-03T15:33:44Z</time></trkpt><trkpt lat="36.00293816692926" lon="-107.10535669598504"><ele>2154.0</ele><time>2026-05-03T15:33:45Z</time></trkpt><trkpt lat="36.00306579946135" lon="-107.10531166237602"><ele>2154.0</ele><time>2026-05-03T15:33:46Z</time></trkpt><trkpt lat="36.003171892664746" lon="-107.10528720896176"><ele>2154.0</ele><time>2026-05-03T15:33:47Z</time></trkpt><trkpt lat="36.0032920330213" lon="-107.10525923784951"><ele>2154.0</ele><time>2026-05-03T15:33:48Z</time></trkpt><trkpt lat="36.003434638865784" lon="-107.10520991067673"><ele>2154.0</ele><time>2026-05-03T15:33:49Z</time></trkpt><trkpt lat="36.00360040311571" lon="-107.10514638043148"><ele>2155.0</ele><time>2026-05-03T15:33:50Z</time></trkpt><trkpt lat="36.00378426534279" lon="-107.10507558461947"><ele>2156.0</ele><time>2026-05-03T15:33:51Z</time></trkpt><trkpt lat="36.00398714004904" lon="-107.1049964980806"><ele>2157.0</ele><time>2026-05-03T15:33:52Z</time></trkpt><trkpt lat="36.00419512737308" lon="-107.1049163523675"><ele>2157.3333333333335</ele><time>2026-05-03T15:33:53Z</time></trkpt><trkpt lat="36.004382536927345" lon="-107.10483806566546"><ele>2157.666666666667</ele><time>2026-05-03T15:33:54Z</time></trkpt><trkpt lat="36.004569737860166" lon="-107.10476420090399"><ele>2158.0</ele><time>2026-05-03T15:33:55Z</time></trkpt><trkpt lat="36.004751224989256" lon="-107.10469357328289"><ele>2158.0</ele><time>2026-05-03T15:33:56Z</time></trkpt><trkpt lat="36.00491317725681" lon="-107.10463197642245"><ele>2158.0</ele><time>2026-05-03T15:33:57Z</time></trkpt><trkpt lat="36.00506635318731" lon="-107.10457079958951"><ele>2158.0</ele><time>2026-05-03T15:33:58Z</time></trkpt><trkpt lat="36.005203865195824" lon="-107.10451786685493"><ele>2158.75</ele><time>2026-05-03T15:33:59Z</time></trkpt><trkpt lat="36.005326413027774" lon="-107.10447788659656"><ele>2159.5</ele><time>2026-05-03T15:34:00Z</time></trkpt><trkpt lat="36.005452768869226" lon="-107.10444371819676"><ele>2160.25</ele><time>2026-05-03T15:34:01Z</time></trkpt><trkpt lat="36.0055949665406" lon="-107.10441455421953"><ele>2161.0</ele><time>2026-05-03T15:34:02.001Z</time></trkpt><trkpt lat="36.00574178227897" lon="-107.10439091383607"><ele>2161.4</ele><time>2026-05-03T15:34:03.001Z</time></trkpt><trkpt lat="36.0058676018007" lon="-107.10436942851906"><ele>2161.8</ele><time>2026-05-03T15:34:04.001Z</time></trkpt><trkpt lat="36.00595799941654" lon="-107.10434042218506"><ele>2162.2000000000003</ele><time>2026-05-03T15:34:05.001Z</time></trkpt><trkpt lat="36.00606214512651" lon="-107.1043089699344"><ele>2162.6</ele><time>2026-05-03T15:34:07.001Z</time></trkpt><trkpt lat="36.00613115957912" lon="-107.1043069817315"><ele>2163.0</ele><time>2026-05-03T15:34:08.001Z</time></trkpt><trkpt lat="36.00623392701106" lon="-107.10429993962823"><ele>2163.0</ele><time>2026-05-03T15:34:09.001Z</time></trkpt><trkpt lat="36.00635531183575" lon="-107.10429500795487"><ele>2163.0</ele><time>2026-05-03T15:34:10.001Z</time></trkpt><trkpt lat="36.00643595602574" lon="-107.10424804536692"><ele>2163.0</ele><time>2026-05-03T15:34:12.001Z</time></trkpt><trkpt lat="36.00648066474293" lon="-107.10417856952414"><ele>2163.0</ele><time>2026-05-03T15:34:13.001Z</time></trkpt><trkpt lat="36.006549603574534" lon="-107.1040964753334"><ele>2163.0</ele><time>2026-05-03T15:34:14.001Z</time></trkpt><trkpt lat="36.00662783999208" lon="-107.10405282453772"><ele>2164.0</ele><time>2026-05-03T15:34:15.001Z</time></trkpt><trkpt lat="36.006754858357326" lon="-107.10403345905304"><ele>2165.0</ele><time>2026-05-03T15:34:17.001Z</time></trkpt><trkpt lat="36.00682740467055" lon="-107.10403597665928"><ele>2166.0</ele><time>2026-05-03T15:34:18.001Z</time></trkpt><trkpt lat="36.006906008576344" lon="-107.10401382382359"><ele>2167.0</ele><time>2026-05-03T15:34:19.001Z</time></trkpt><trkpt lat="36.006998741523624" lon="-107.1039926089454"><ele>2168.0</ele><time>2026-05-03T15:34:20.001Z</time></trkpt><trkpt lat="36.00707684228549" lon="-107.10396453290292"><ele>2168.0</ele><time>2026-05-03T15:34:21.001Z</time></trkpt><trkpt lat="36.007139428486" lon="-107.10395019524876"><ele>2168.0</ele><time>2026-05-03T15:34:22.001Z</time></trkpt><trkpt lat="36.007248511620745" lon="-107.1039628464265"><ele>2168.0</ele><time>2026-05-03T15:34:24.001Z</time></trkpt><trkpt lat="36.007305063457515" lon="-107.10400398832181"><ele>2168.0</ele><time>2026-05-03T15:34:25.001Z</time></trkpt><trkpt lat="36.007380483353955" lon="-107.10394777506384"><ele>2168.0</ele><time>2026-05-03T15:34:28.001Z</time></trkpt><trkpt lat="36.007428348314406" lon="-107.10388297108572"><ele>2168.0</ele><time>2026-05-03T15:34:29.001Z</time></trkpt><trkpt lat="36.00749679365935" lon="-107.10381757162504"><ele>2168.2000000000003</ele><time>2026-05-03T15:34:30.001Z</time></trkpt><trkpt lat="36.00758998002187" lon="-107.10375324966508"><ele>2168.4</ele><time>2026-05-03T15:34:31.001Z</time></trkpt><trkpt lat="36.00766077708398" lon="-107.10369452984654"><ele>2168.6000000000004</ele><time>2026-05-03T15:34:32.001Z</time></trkpt><trkpt lat="36.00775354884937" lon="-107.10361804060307"><ele>2168.8</ele><time>2026-05-03T15:34:34.001Z</time></trkpt><trkpt lat="36.007830856989834" lon="-107.10359386950799"><ele>2169.0</ele><time>2026-05-03T15:34:35.001Z</time></trkpt><trkpt lat="36.007918664593575" lon="-107.10358830780129"><ele>2169.0</ele><time>2026-05-03T15:34:36.001Z</time></trkpt><trkpt lat="36.00801410341282" lon="-107.10359963220614"><ele>2169.0</ele><time>2026-05-03T15:34:37Z</time></trkpt><trkpt lat="36.00808445518485" lon="-107.10358935718811"><ele>2169.0</ele><time>2026-05-03T15:34:38Z</time></trkpt><trkpt lat="36.008132548165406" lon="-107.10353550781929"><ele>2169.0</ele><time>2026-05-03T15:34:39Z</time></trkpt><trkpt lat="36.00823390048702" lon="-107.10345458857358"><ele>2169.0</ele><time>2026-05-03T15:34:40Z</time></trkpt><trkpt lat="36.00833786496991" lon="-107.10340039431053"><ele>2170.0</ele><time>2026-05-03T15:34:41Z</time></trkpt><trkpt lat="36.008394546487835" lon="-107.10332785453413"><ele>2171.0</ele><time>2026-05-03T15:34:43Z</time></trkpt><trkpt lat="36.00845291629808" lon="-107.10336061230127"><ele>2172.0</ele><time>2026-05-03T15:34:45Z</time></trkpt><trkpt lat="36.00852692344038" lon="-107.1033562662608"><ele>2173.0</ele><time>2026-05-03T15:34:47Z</time></trkpt><trkpt lat="36.00872147758438" lon="-107.10316873654301"><ele>2173.0</ele><time>2026-05-03T15:34:50Z</time></trkpt><trkpt lat="36.00881050914395" lon="-107.1031247802567"><ele>2173.0</ele><time>2026-05-03T15:34:52Z</time></trkpt><trkpt lat="36.00890592661106" lon="-107.10314941798885"><ele>2173.0</ele><time>2026-05-03T15:34:54Z</time></trkpt><trkpt lat="36.008953020272024" lon="-107.10327107699399"><ele>2173.0</ele><time>2026-05-03T15:34:56Z</time></trkpt><trkpt lat="36.00900683536159" lon="-107.10333738972822"><ele>2173.0</ele><time>2026-05-03T15:34:58Z</time></trkpt><trkpt lat="36.009067720658365" lon="-107.10327241706581"><ele>2173.5</ele><time>2026-05-03T15:35:00Z</time></trkpt><trkpt lat="36.009112264734334" lon="-107.10317781774236"><ele>2174.0</ele><time>2026-05-03T15:35:02Z</time></trkpt><trkpt lat="36.00909815715826" lon="-107.10309663891316"><ele>2174.5</ele><time>2026-05-03T15:35:04Z</time></trkpt><trkpt lat="36.00917430935443" lon="-107.1030311134578"><ele>2175.0</ele><time>2026-05-03T15:35:08Z</time></trkpt><trkpt lat="36.009232917832264" lon="-107.10297499081989"><ele>2175.5</ele><time>2026-05-03T15:35:09Z</time></trkpt><trkpt lat="36.00932530015372" lon="-107.102917461837"><ele>2176.0</ele><time>2026-05-03T15:35:13Z</time></trkpt><trkpt lat="36.009406002167154" lon="-107.10293172705698"><ele>2176.2</ele><time>2026-05-03T15:35:15Z</time></trkpt><trkpt lat="36.009506512128965" lon="-107.10286043163231"><ele>2176.3999999999996</ele><time>2026-05-03T15:35:16Z</time></trkpt><trkpt lat="36.00961586084658" lon="-107.10280268327543"><ele>2176.6</ele><time>2026-05-03T15:35:18Z</time></trkpt><trkpt lat="36.00965372331503" lon="-107.10272706793666"><ele>2176.7999999999997</ele><time>2026-05-03T15:35:19Z</time></trkpt><trkpt lat="36.00969040097478" lon="-107.10265308690207"><ele>2177.0</ele><time>2026-05-03T15:35:20Z</time></trkpt><trkpt lat="36.00975251258027" lon="-107.10254018631339"><ele>2177.0</ele><time>2026-05-03T15:35:22Z</time></trkpt><trkpt lat="36.00981436593517" lon="-107.10251906502545"><ele>2177.0</ele><time>2026-05-03T15:35:23Z</time></trkpt><trkpt lat="36.00988574271748" lon="-107.1024732937619"><ele>2177.0</ele><time>2026-05-03T15:35:24Z</time></trkpt><trkpt lat="36.009966285416255" lon="-107.10244537362021"><ele>2177.0</ele><time>2026-05-03T15:35:25Z</time></trkpt><trkpt lat="36.01004274362315" lon="-107.10244796541971"><ele>2177.0</ele><time>2026-05-03T15:35:26Z</time></trkpt><trkpt lat="36.01013048358236" lon="-107.10245914675814"><ele>2177.0</ele><time>2026-05-03T15:35:27Z</time></trkpt><trkpt lat="36.01020361468518" lon="-107.10245902988954"><ele>2177.0</ele><time>2026-05-03T15:35:28Z</time></trkpt><trkpt lat="36.01027030138316" lon="-107.10242746947162"><ele>2177.0</ele><time>2026-05-03T15:35:29Z</time></trkpt><trkpt lat="36.010335484699254" lon="-107.1023806948894"><ele>2177.0</ele><time>2026-05-03T15:35:30Z</time></trkpt><trkpt lat="36.01038163870325" lon="-107.10230113259425"><ele>2177.0</ele><time>2026-05-03T15:35:31Z</time></trkpt><trkpt lat="36.01047631827811" lon="-107.10219984946619"><ele>2177.0</ele><time>2026-05-03T15:35:33Z</time></trkpt><trkpt lat="36.01052070662268" lon="-107.1021434013957"><ele>2177.0</ele><time>2026-05-03T15:35:34Z</time></trkpt><trkpt lat="36.0105543731206" lon="-107.10199859540327"><ele>2177.4</ele><time>2026-05-03T15:35:35Z</time></trkpt><trkpt lat="36.01061230505484" lon="-107.10193941363326"><ele>2177.7999999999997</ele><time>2026-05-03T15:35:36Z</time></trkpt><trkpt lat="36.01067414648371" lon="-107.10188399714619"><ele>2178.2</ele><time>2026-05-03T15:35:37Z</time></trkpt><trkpt lat="36.01075440064019" lon="-107.10183483783628"><ele>2178.6</ele><time>2026-05-03T15:35:38Z</time></trkpt><trkpt lat="36.01081877212551" lon="-107.10179420976917"><ele>2179.0</ele><time>2026-05-03T15:35:39Z</time></trkpt><trkpt lat="36.010997261310116" lon="-107.10178139032001"><ele>2179.4</ele><time>2026-05-03T15:35:41Z</time></trkpt><trkpt lat="36.011120501775316" lon="-107.1017837865671"><ele>2179.8</ele><time>2026-05-03T15:35:42Z</time></trkpt><trkpt lat="36.011206517963565" lon="-107.10176896531551"><ele>2180.2</ele><time>2026-05-03T15:35:43Z</time></trkpt><trkpt lat="36.01123993817348" lon="-107.10186036415155"><ele>2180.6</ele><time>2026-05-03T15:35:46Z</time></trkpt><trkpt lat="36.011232913151325" lon="-107.10194978131635"><ele>2181.0</ele><time>2026-05-03T15:35:47Z</time></trkpt><trkpt lat="36.01121068136898" lon="-107.10207225312288"><ele>2181.0</ele><time>2026-05-03T15:35:49Z</time></trkpt><trkpt lat="36.01116415563693" lon="-107.10218525777154"><ele>2181.0</ele><time>2026-05-03T15:35:51Z</time></trkpt><trkpt lat="36.011149721016515" lon="-107.1023367800951"><ele>2181.0</ele><time>2026-05-03T15:35:52Z</time></trkpt><trkpt lat="36.011137721389304" lon="-107.1024681761108"><ele>2181.0</ele><time>2026-05-03T15:35:53Z</time></trkpt><trkpt lat="36.011244218435614" lon="-107.10250462736514"><ele>2181.0</ele><time>2026-05-03T15:35:55Z</time></trkpt><trkpt lat="36.011312264121074" lon="-107.10250154512036"><ele>2180.8333333333335</ele><time>2026-05-03T15:35:56Z</time></trkpt><trkpt lat="36.01141777939902" lon="-107.10251379845677"><ele>2180.6666666666665</ele><time>2026-05-03T15:35:57Z</time></trkpt><trkpt lat="36.01150530677457" lon="-107.10252915147068"><ele>2180.5</ele><time>2026-05-03T15:35:58Z</time></trkpt><trkpt lat="36.01157053031815" lon="-107.10252035666026"><ele>2180.333333333333</ele><time>2026-05-03T15:35:59Z</time></trkpt><trkpt lat="36.01163779752566" lon="-107.10249722836106"><ele>2180.1666666666665</ele><time>2026-05-03T15:36:00Z</time></trkpt><trkpt lat="36.011710383522896" lon="-107.10248350027942"><ele>2180.0</ele><time>2026-05-03T15:36:01Z</time></trkpt><trkpt lat="36.01181436123314" lon="-107.10249927130931"><ele>2180.6</ele><time>2026-05-03T15:36:03Z</time></trkpt><trkpt lat="36.01195339685928" lon="-107.10245981268493"><ele>2181.2</ele><time>2026-05-03T15:36:05Z</time></trkpt><trkpt lat="36.01201006280405" lon="-107.10241198426404"><ele>2181.8</ele><time>2026-05-03T15:36:06Z</time></trkpt><trkpt lat="36.01208534820102" lon="-107.10234445336813"><ele>2182.4</ele><time>2026-05-03T15:36:07Z</time></trkpt><trkpt lat="36.01217834726951" lon="-107.10226508592227"><ele>2183.0</ele><time>2026-05-03T15:36:08Z</time></trkpt><trkpt lat="36.01226154855589" lon="-107.10221050138848"><ele>2183.0</ele><time>2026-05-03T15:36:09.001Z</time></trkpt><trkpt lat="36.012339771269225" lon="-107.10218470197277"><ele>2183.0</ele><time>2026-05-03T15:36:10.001Z</time></trkpt><trkpt lat="36.01241030774615" lon="-107.10215685108821"><ele>2183.0</ele><time>2026-05-03T15:36:11.001Z</time></trkpt><trkpt lat="36.01247905161624" lon="-107.10211355783976"><ele>2183.0</ele><time>2026-05-03T15:36:12.001Z</time></trkpt><trkpt lat="36.012554559366066" lon="-107.1020695705626"><ele>2183.0</ele><time>2026-05-03T15:36:13.001Z</time></trkpt><trkpt lat="36.01263966505829" lon="-107.10202729123887"><ele>2183.0</ele><time>2026-05-03T15:36:14.001Z</time></trkpt><trkpt lat="36.012723084845675" lon="-107.10198872903783"><ele>2183.333333333333</ele><time>2026-05-03T15:36:15.001Z</time></trkpt><trkpt lat="36.012789069998945" lon="-107.1019726514251"><ele>2183.6666666666665</ele><time>2026-05-03T15:36:16.001Z</time></trkpt><trkpt lat="36.01285467266546" lon="-107.10196420479697"><ele>2184.0</ele><time>2026-05-03T15:36:17.001Z</time></trkpt><trkpt lat="36.012938698165414" lon="-107.10196296102087"><ele>2184.3333333333335</ele><time>2026-05-03T15:36:18.001Z</time></trkpt><trkpt lat="36.013037598554625" lon="-107.10195986534447"><ele>2184.666666666667</ele><time>2026-05-03T15:36:19.001Z</time></trkpt><trkpt lat="36.01312369978778" lon="-107.10196629896276"><ele>2185.0</ele><time>2026-05-03T15:36:20.001Z</time></trkpt><trkpt lat="36.01320313344249" lon="-107.10195646470807"><ele>2185.0</ele><time>2026-05-03T15:36:21.001Z</time></trkpt><trkpt lat="36.013278148787" lon="-107.10192548456227"><ele>2185.0</ele><time>2026-05-03T15:36:22.001Z</time></trkpt><trkpt lat="36.0133680449433" lon="-107.10189455853423"><ele>2185.0</ele><time>2026-05-03T15:36:23.001Z</time></trkpt><trkpt lat="36.01347068236309" lon="-107.10187744289439"><ele>2185.0</ele><time>2026-05-03T15:36:24.001Z</time></trkpt><trkpt lat="36.013571115677244" lon="-107.10189393835417"><ele>2185.0</ele><time>2026-05-03T15:36:25.001Z</time></trkpt><trkpt lat="36.013666724413916" lon="-107.10190430580138"><ele>2186.2</ele><time>2026-05-03T15:36:26.001Z</time></trkpt><trkpt lat="36.013762647549036" lon="-107.1019071037401"><ele>2187.4</ele><time>2026-05-03T15:36:27.001Z</time></trkpt><trkpt lat="36.01386692677089" lon="-107.10189149360566"><ele>2188.6</ele><time>2026-05-03T15:36:28.001Z</time></trkpt><trkpt lat="36.013975264816736" lon="-107.1018713057075"><ele>2189.8</ele><time>2026-05-03T15:36:29.001Z</time></trkpt><trkpt lat="36.01407503522003" lon="-107.10187067704761"><ele>2191.0</ele><time>2026-05-03T15:36:30.001Z</time></trkpt><trkpt lat="36.014158384550086" lon="-107.1018730715186"><ele>2191.666666666667</ele><time>2026-05-03T15:36:31.001Z</time></trkpt><trkpt lat="36.0142356583514" lon="-107.1018497586931"><ele>2192.3333333333335</ele><time>2026-05-03T15:36:32.001Z</time></trkpt><trkpt lat="36.01431513011912" lon="-107.10182333229609"><ele>2193.0</ele><time>2026-05-03T15:36:33.001Z</time></trkpt><trkpt lat="36.014390506396545" lon="-107.10179768669347"><ele>2193.6666666666665</ele><time>2026-05-03T15:36:34.001Z</time></trkpt><trkpt lat="36.014444884829516" lon="-107.10175275075765"><ele>2194.333333333333</ele><time>2026-05-03T15:36:35.001Z</time></trkpt><trkpt lat="36.01452761133104" lon="-107.10169876470577"><ele>2195.0</ele><time>2026-05-03T15:36:36.001Z</time></trkpt><trkpt lat="36.014616127071776" lon="-107.10164004469854"><ele>2195.0</ele><time>2026-05-03T15:36:37.001Z</time></trkpt><trkpt lat="36.01466709643564" lon="-107.10158642028554"><ele>2195.0</ele><time>2026-05-03T15:36:38.001Z</time></trkpt><trkpt lat="36.0147139692865" lon="-107.10151368942704"><ele>2195.0</ele><time>2026-05-03T15:36:39.001Z</time></trkpt><trkpt lat="36.0147708317764" lon="-107.10143164492906"><ele>2195.0</ele><time>2026-05-03T15:36:40.001Z</time></trkpt><trkpt lat="36.01482982991901" lon="-107.10136443704188"><ele>2195.0</ele><time>2026-05-03T15:36:41.001Z</time></trkpt><trkpt lat="36.014942821936394" lon="-107.10128742736954"><ele>2195.0</ele><time>2026-05-03T15:36:43Z</time></trkpt><trkpt lat="36.0150096257771" lon="-107.10124068269621"><ele>2196.2</ele><time>2026-05-03T15:36:44Z</time></trkpt><trkpt lat="36.01507107847342" lon="-107.10116623137819"><ele>2197.4</ele><time>2026-05-03T15:36:45Z</time></trkpt><trkpt lat="36.01515040286764" lon="-107.10107734390654"><ele>2198.6</ele><time>2026-05-03T15:36:46Z</time></trkpt><trkpt lat="36.01521944038024" lon="-107.10098893209545"><ele>2199.8</ele><time>2026-05-03T15:36:47Z</time></trkpt><trkpt lat="36.015298628835005" lon="-107.10093551449094"><ele>2201.0</ele><time>2026-05-03T15:36:48Z</time></trkpt><trkpt lat="36.01537573542794" lon="-107.10088892557621"><ele>2201.0</ele><time>2026-05-03T15:36:49Z</time></trkpt><trkpt lat="36.01543625870426" lon="-107.10084790425933"><ele>2201.0</ele><time>2026-05-03T15:36:50Z</time></trkpt><trkpt lat="36.015534562127606" lon="-107.10082303021836"><ele>2201.0</ele><time>2026-05-03T15:36:51Z</time></trkpt><trkpt lat="36.01563593643014" lon="-107.10076807770267"><ele>2201.0</ele><time>2026-05-03T15:36:52Z</time></trkpt><trkpt lat="36.01573364518208" lon="-107.10070342706564"><ele>2201.0</ele><time>2026-05-03T15:36:53Z</time></trkpt><trkpt lat="36.015815864003244" lon="-107.10064606678827"><ele>2202.4</ele><time>2026-05-03T15:36:54Z</time></trkpt><trkpt lat="36.015902598487834" lon="-107.10058800292559"><ele>2203.8</ele><time>2026-05-03T15:36:55Z</time></trkpt><trkpt lat="36.01600922604729" lon="-107.10053432091247"><ele>2205.2000000000003</ele><time>2026-05-03T15:36:56Z</time></trkpt><trkpt lat="36.01611107560381" lon="-107.1004858247558"><ele>2206.6</ele><time>2026-05-03T15:36:57Z</time></trkpt><trkpt lat="36.01620401884474" lon="-107.100420211262"><ele>2208.0</ele><time>2026-05-03T15:36:58Z</time></trkpt><trkpt lat="36.01628213576489" lon="-107.10035662893081"><ele>2208.0</ele><time>2026-05-03T15:36:59Z</time></trkpt><trkpt lat="36.01633212178569" lon="-107.10029124393641"><ele>2208.0</ele><time>2026-05-03T15:37:00Z</time></trkpt><trkpt lat="36.01638661815231" lon="-107.10020865366424"><ele>2208.0</ele><time>2026-05-03T15:37:01Z</time></trkpt><trkpt lat="36.01642457031625" lon="-107.1000931871004"><ele>2208.0</ele><time>2026-05-03T15:37:03Z</time></trkpt><trkpt lat="36.01648077649144" lon="-107.10004857451"><ele>2208.0</ele><time>2026-05-03T15:37:04Z</time></trkpt><trkpt lat="36.016570434411406" lon="-107.09998635901364"><ele>2208.0</ele><time>2026-05-03T15:37:05Z</time></trkpt><trkpt lat="36.01665056679028" lon="-107.09993591488171"><ele>2208.3333333333335</ele><time>2026-05-03T15:37:06Z</time></trkpt><trkpt lat="36.01672072337829" lon="-107.09989624004297"><ele>2208.6666666666665</ele><time>2026-05-03T15:37:07Z</time></trkpt><trkpt lat="36.01680758124055" lon="-107.09983541944399"><ele>2209.0</ele><time>2026-05-03T15:37:09Z</time></trkpt><trkpt lat="36.016874859242776" lon="-107.0998424389694"><ele>2209.333333333333</ele><time>2026-05-03T15:37:10Z</time></trkpt><trkpt lat="36.0169405036694" lon="-107.09984418900625"><ele>2209.6666666666665</ele><time>2026-05-03T15:37:11Z</time></trkpt><trkpt lat="36.017009876301664" lon="-107.09985085802158"><ele>2210.0</ele><time>2026-05-03T15:37:14Z</time></trkpt><trkpt lat="36.017096039181375" lon="-107.09974603358876"><ele>2210.0</ele><time>2026-05-03T15:37:16Z</time></trkpt><trkpt lat="36.01717133415637" lon="-107.09968491228096"><ele>2210.0</ele><time>2026-05-03T15:37:17Z</time></trkpt><trkpt lat="36.017254190966206" lon="-107.09961494552837"><ele>2210.0</ele><time>2026-05-03T15:37:18Z</time></trkpt><trkpt lat="36.01727855351276" lon="-107.09953676113135"><ele>2210.0</ele><time>2026-05-03T15:37:19Z</time></trkpt><trkpt lat="36.01730483459051" lon="-107.09943236579055"><ele>2210.0</ele><time>2026-05-03T15:37:21Z</time></trkpt><trkpt lat="36.017448691032364" lon="-107.0994295553651"><ele>2210.0</ele><time>2026-05-03T15:37:23Z</time></trkpt><trkpt lat="36.017542318311996" lon="-107.09942910887689"><ele>2210.0</ele><time>2026-05-03T15:37:24Z</time></trkpt><trkpt lat="36.01761444401725" lon="-107.09942432580645"><ele>2210.0</ele><time>2026-05-03T15:37:25Z</time></trkpt><trkpt lat="36.01771797151505" lon="-107.09941468167766"><ele>2210.0</ele><time>2026-05-03T15:37:27Z</time></trkpt><trkpt lat="36.01781363905924" lon="-107.09935807844266"><ele>2210.0</ele><time>2026-05-03T15:37:29Z</time></trkpt><trkpt lat="36.01789271279709" lon="-107.09926577475572"><ele>2210.0</ele><time>2026-05-03T15:37:31Z</time></trkpt><trkpt lat="36.01792722352036" lon="-107.09920012075507"><ele>2210.0</ele><time>2026-05-03T15:37:32Z</time></trkpt><trkpt lat="36.017951695371515" lon="-107.09911546492759"><ele>2210.0</ele><time>2026-05-03T15:37:33Z</time></trkpt><trkpt lat="36.017977926831506" lon="-107.09903572034014"><ele>2210.0</ele><time>2026-05-03T15:37:34Z</time></trkpt><trkpt lat="36.01806028125918" lon="-107.09897354542896"><ele>2210.0</ele><time>2026-05-03T15:37:36Z</time></trkpt><trkpt lat="36.01817000328936" lon="-107.09900133429123"><ele>2210.0</ele><time>2026-05-03T15:37:38Z</time></trkpt><trkpt lat="36.018269904730886" lon="-107.09905419503502"><ele>2211.2</ele><time>2026-05-03T15:37:40Z</time></trkpt><trkpt lat="36.01834256207593" lon="-107.09909608391452"><ele>2212.4</ele><time>2026-05-03T15:37:41Z</time></trkpt><trkpt lat="36.01840572221108" lon="-107.09911977542951"><ele>2213.6</ele><time>2026-05-03T15:37:42Z</time></trkpt><trkpt lat="36.018451973161355" lon="-107.09897524301043"><ele>2214.8</ele><time>2026-05-03T15:37:45Z</time></trkpt><trkpt lat="36.01844643913172" lon="-107.09889116928382"><ele>2216.0</ele><time>2026-05-03T15:37:46Z</time></trkpt><trkpt lat="36.018588760226905" lon="-107.09881958024452"><ele>2216.333333333333</ele><time>2026-05-03T15:37:49Z</time></trkpt><trkpt lat="36.01862330825792" lon="-107.09875084003302"><ele>2216.6666666666665</ele><time>2026-05-03T15:37:50Z</time></trkpt><trkpt lat="36.018671182242805" lon="-107.0986460648202"><ele>2217.0</ele><time>2026-05-03T15:37:51Z</time></trkpt><trkpt lat="36.01870110903238" lon="-107.09854724771482"><ele>2217.3333333333335</ele><time>2026-05-03T15:37:52Z</time></trkpt><trkpt lat="36.01871603326984" lon="-107.09846896400654"><ele>2217.666666666667</ele><time>2026-05-03T15:37:53Z</time></trkpt><trkpt lat="36.01870174705349" lon="-107.09835363440371"><ele>2218.0</ele><time>2026-05-03T15:37:55Z</time></trkpt><trkpt lat="36.018672347649186" lon="-107.09825901551024"><ele>2218.2000000000003</ele><time>2026-05-03T15:37:57Z</time></trkpt><trkpt lat="36.018725148701385" lon="-107.09817486567016"><ele>2218.4</ele><time>2026-05-03T15:38:01Z</time></trkpt><trkpt lat="36.01880882477977" lon="-107.09812530727397"><ele>2218.6000000000004</ele><time>2026-05-03T15:38:03Z</time></trkpt><trkpt lat="36.0188929917154" lon="-107.09805259144015"><ele>2218.8</ele><time>2026-05-03T15:38:05Z</time></trkpt><trkpt lat="36.01898969266088" lon="-107.09797853563323"><ele>2219.0</ele><time>2026-05-03T15:38:07Z</time></trkpt><trkpt lat="36.01904956161877" lon="-107.09793359310063"><ele>2219.0</ele><time>2026-05-03T15:38:08Z</time></trkpt><trkpt lat="36.01912421629395" lon="-107.09786962505277"><ele>2219.0</ele><time>2026-05-03T15:38:09Z</time></trkpt><trkpt lat="36.01926641439792" lon="-107.09770447727557"><ele>2219.0</ele><time>2026-05-03T15:38:10Z</time></trkpt><trkpt lat="36.019338344907176" lon="-107.09764672450726"><ele>2219.0</ele><time>2026-05-03T15:38:11Z</time></trkpt><trkpt lat="36.01939536528042" lon="-107.09757710895953"><ele>2221.4</ele><time>2026-05-03T15:38:12Z</time></trkpt><trkpt lat="36.01953113474804" lon="-107.09756292322164"><ele>2223.8</ele><time>2026-05-03T15:38:14Z</time></trkpt><trkpt lat="36.019633903201964" lon="-107.09754494875435"><ele>2226.2</ele><time>2026-05-03T15:38:15Z</time></trkpt><trkpt lat="36.01972665720091" lon="-107.09747965293656"><ele>2228.6</ele><time>2026-05-03T15:38:16Z</time></trkpt><trkpt lat="36.01980837711935" lon="-107.09741397734112"><ele>2231.0</ele><time>2026-05-03T15:38:17.001Z</time></trkpt><trkpt lat="36.019888804283596" lon="-107.09735898233426"><ele>2231.8</ele><time>2026-05-03T15:38:18.001Z</time></trkpt><trkpt lat="36.01998045092217" lon="-107.09731074589345"><ele>2232.6</ele><time>2026-05-03T15:38:19.001Z</time></trkpt><trkpt lat="36.020066856438554" lon="-107.0972614932607"><ele>2233.4</ele><time>2026-05-03T15:38:20.001Z</time></trkpt><trkpt lat="36.02015273903367" lon="-107.0972005012701"><ele>2234.2</ele><time>2026-05-03T15:38:21.001Z</time></trkpt><trkpt lat="36.02023394671647" lon="-107.09713783011826"><ele>2235.0</ele><time>2026-05-03T15:38:22.001Z</time></trkpt><trkpt lat="36.02031020826166" lon="-107.09706881957808"><ele>2237.4</ele><time>2026-05-03T15:38:23.001Z</time></trkpt><trkpt lat="36.02037695180469" lon="-107.0970042882222"><ele>2239.8</ele><time>2026-05-03T15:38:24.001Z</time></trkpt><trkpt lat="36.02042974954558" lon="-107.09694956504624"><ele>2242.2</ele><time>2026-05-03T15:38:25.001Z</time></trkpt><trkpt lat="36.020567481748756" lon="-107.09690969895132"><ele>2244.6</ele><time>2026-05-03T15:38:27.001Z</time></trkpt><trkpt lat="36.02065793548889" lon="-107.09685635797715"><ele>2247.0</ele><time>2026-05-03T15:38:28.001Z</time></trkpt><trkpt lat="36.0207333307996" lon="-107.09677889800912"><ele>2246.4</ele><time>2026-05-03T15:38:29.001Z</time></trkpt><trkpt lat="36.02083111095936" lon="-107.09670359540942"><ele>2245.7999999999997</ele><time>2026-05-03T15:38:30.001Z</time></trkpt><trkpt lat="36.020928625239705" lon="-107.09665666645736"><ele>2245.2</ele><time>2026-05-03T15:38:31.001Z</time></trkpt><trkpt lat="36.021011073438956" lon="-107.09660484305779"><ele>2244.6</ele><time>2026-05-03T15:38:32.001Z</time></trkpt><trkpt lat="36.021094544575206" lon="-107.09656235240126"><ele>2244.0</ele><time>2026-05-03T15:38:34.001Z</time></trkpt><trkpt lat="36.02123841106747" lon="-107.09663287201668"><ele>2244.0</ele><time>2026-05-03T15:38:36.001Z</time></trkpt><trkpt lat="36.02130906950814" lon="-107.09669938211458"><ele>2244.0</ele><time>2026-05-03T15:38:37.001Z</time></trkpt><trkpt lat="36.02136554810113" lon="-107.0967592962689"><ele>2244.0</ele><time>2026-05-03T15:38:38.001Z</time></trkpt><trkpt lat="36.0214448307284" lon="-107.0968339284735"><ele>2244.0</ele><time>2026-05-03T15:38:39.001Z</time></trkpt><trkpt lat="36.021514810330224" lon="-107.09687527871115"><ele>2244.0</ele><time>2026-05-03T15:38:40.001Z</time></trkpt><trkpt lat="36.021626619779525" lon="-107.09698454314761"><ele>2243.6666666666665</ele><time>2026-05-03T15:38:42.001Z</time></trkpt><trkpt lat="36.021708314140135" lon="-107.09706784478882"><ele>2243.3333333333335</ele><time>2026-05-03T15:38:43.001Z</time></trkpt><trkpt lat="36.021771568401626" lon="-107.0971198753939"><ele>2243.0</ele><time>2026-05-03T15:38:44.001Z</time></trkpt><trkpt lat="36.02182991610984" lon="-107.09717021270279"><ele>2242.666666666667</ele><time>2026-05-03T15:38:45.001Z</time></trkpt><trkpt lat="36.02191407813676" lon="-107.09722035386645"><ele>2242.3333333333335</ele><time>2026-05-03T15:38:46.001Z</time></trkpt><trkpt lat="36.021988137949556" lon="-107.09725437186994"><ele>2242.0</ele><time>2026-05-03T15:38:47.001Z</time></trkpt><trkpt lat="36.022088015056866" lon="-107.09729203077165"><ele>2242.0</ele><time>2026-05-03T15:38:48.999Z</time></trkpt><trkpt lat="36.022182777780664" lon="-107.09727914106809"><ele>2242.0</ele><time>2026-05-03T15:38:49.999Z</time></trkpt><trkpt lat="36.02229791267536" lon="-107.09722199296014"><ele>2242.0</ele><time>2026-05-03T15:38:50.999Z</time></trkpt><trkpt lat="36.02242024018783" lon="-107.09714771283777"><ele>2242.0</ele><time>2026-05-03T15:38:51.999Z</time></trkpt><trkpt lat="36.0225480982732" lon="-107.09709402231903"><ele>2239.666666666667</ele><time>2026-05-03T15:38:52.999Z</time></trkpt><trkpt lat="36.022674597928045" lon="-107.09705451767769"><ele>2237.3333333333335</ele><time>2026-05-03T15:38:53.999Z</time></trkpt><trkpt lat="36.02281710846814" lon="-107.09700701538611"><ele>2235.0</ele><time>2026-05-03T15:38:54.999Z</time></trkpt><trkpt lat="36.02298801445729" lon="-107.09695016211217"><ele>2235.0</ele><time>2026-05-03T15:38:55.999Z</time></trkpt><trkpt lat="36.02317066785633" lon="-107.09691450123485"><ele>2235.0</ele><time>2026-05-03T15:38:57Z</time></trkpt><trkpt lat="36.0233217017033" lon="-107.0968794585426"><ele>2235.0</ele><time>2026-05-03T15:38:57.999Z</time></trkpt><trkpt lat="36.02348318825572" lon="-107.09682215595504"><ele>2232.6666666666665</ele><time>2026-05-03T15:38:58.999Z</time></trkpt><trkpt lat="36.023648482096235" lon="-107.09674228313636"><ele>2230.333333333333</ele><time>2026-05-03T15:39:00Z</time></trkpt><trkpt lat="36.02379500024738" lon="-107.09667308206718"><ele>2228.0</ele><time>2026-05-03T15:39:01Z</time></trkpt><trkpt lat="36.02393867914291" lon="-107.09663370839522"><ele>2228.0</ele><time>2026-05-03T15:39:02Z</time></trkpt><trkpt lat="36.024077937030896" lon="-107.09659891080702"><ele>2228.0</ele><time>2026-05-03T15:39:03Z</time></trkpt><trkpt lat="36.02418542919485" lon="-107.09656495289113"><ele>2228.0</ele><time>2026-05-03T15:39:04Z</time></trkpt><trkpt lat="36.02426945238068" lon="-107.09655904183936"><ele>2228.0</ele><time>2026-05-03T15:39:05Z</time></trkpt><trkpt lat="36.024357521927776" lon="-107.09662288783232"><ele>2228.0</ele><time>2026-05-03T15:39:07Z</time></trkpt><trkpt lat="36.024402023770655" lon="-107.09669415377292"><ele>2227.0</ele><time>2026-05-03T15:39:08Z</time></trkpt><trkpt lat="36.024419799402196" lon="-107.09677214854227"><ele>2226.0</ele><time>2026-05-03T15:39:09Z</time></trkpt><trkpt lat="36.02440960016963" lon="-107.0968762889634"><ele>2225.0</ele><time>2026-05-03T15:39:10Z</time></trkpt><trkpt lat="36.024403620538905" lon="-107.09701247399084"><ele>2224.0</ele><time>2026-05-03T15:39:11Z</time></trkpt><trkpt lat="36.02444269522615" lon="-107.09715544464862"><ele>2223.0</ele><time>2026-05-03T15:39:12Z</time></trkpt><trkpt lat="36.024518247451304" lon="-107.09729677188584"><ele>2223.25</ele><time>2026-05-03T15:39:13Z</time></trkpt><trkpt lat="36.024611019587105" lon="-107.09743620258189"><ele>2223.5</ele><time>2026-05-03T15:39:14Z</time></trkpt><trkpt lat="36.02468928139332" lon="-107.09753437497828"><ele>2223.75</ele><time>2026-05-03T15:39:15Z</time></trkpt><trkpt lat="36.02476863688528" lon="-107.0975783959201"><ele>2224.0</ele><time>2026-05-03T15:39:16Z</time></trkpt><trkpt lat="36.02487403853871" lon="-107.09758333301559"><ele>2223.5</ele><time>2026-05-03T15:39:17Z</time></trkpt><trkpt lat="36.02500137580445" lon="-107.09758136232416"><ele>2223.0</ele><time>2026-05-03T15:39:18Z</time></trkpt><trkpt lat="36.02512950388759" lon="-107.09760343891655"><ele>2222.5</ele><time>2026-05-03T15:39:19Z</time></trkpt><trkpt lat="36.02523285897524" lon="-107.09764874172515"><ele>2222.0</ele><time>2026-05-03T15:39:20Z</time></trkpt><trkpt lat="36.025338428481234" lon="-107.09770290444499"><ele>2222.0</ele><time>2026-05-03T15:39:21Z</time></trkpt><trkpt lat="36.025439596131704" lon="-107.09777638220952"><ele>2222.0</ele><time>2026-05-03T15:39:22Z</time></trkpt><trkpt lat="36.025549514711585" lon="-107.09787004982266"><ele>2222.0</ele><time>2026-05-03T15:39:23Z</time></trkpt><trkpt lat="36.025648287202394" lon="-107.09794462287579"><ele>2222.0</ele><time>2026-05-03T15:39:24Z</time></trkpt><trkpt lat="36.02572240605773" lon="-107.09796836187115"><ele>2222.0</ele><time>2026-05-03T15:39:25Z</time></trkpt><trkpt lat="36.025819105162114" lon="-107.09795721434652"><ele>2222.25</ele><time>2026-05-03T15:39:26Z</time></trkpt><trkpt lat="36.02591640356373" lon="-107.09791862699706"><ele>2222.5</ele><time>2026-05-03T15:39:27Z</time></trkpt><trkpt lat="36.02600575127141" lon="-107.09784830182073"><ele>2222.75</ele><time>2026-05-03T15:39:28Z</time></trkpt><trkpt lat="36.02611254623507" lon="-107.09779518575832"><ele>2223.0</ele><time>2026-05-03T15:39:29Z</time></trkpt><trkpt lat="36.026245456028114" lon="-107.09776865542067"><ele>2223.0</ele><time>2026-05-03T15:39:30Z</time></trkpt><trkpt lat="36.026363184579665" lon="-107.0977471609375"><ele>2223.0</ele><time>2026-05-03T15:39:31Z</time></trkpt><trkpt lat="36.026480021696806" lon="-107.09773417911957"><ele>2223.0</ele><time>2026-05-03T15:39:32Z</time></trkpt><trkpt lat="36.02664629588757" lon="-107.09775939355502"><ele>2223.0</ele><time>2026-05-03T15:39:33Z</time></trkpt><trkpt lat="36.0268467978218" lon="-107.09779493729891"><ele>2222.75</ele><time>2026-05-03T15:39:34Z</time></trkpt><trkpt lat="36.02702301841015" lon="-107.09781331531383"><ele>2222.5</ele><time>2026-05-03T15:39:35Z</time></trkpt><trkpt lat="36.02716783145043" lon="-107.09783089101042"><ele>2222.25</ele><time>2026-05-03T15:39:36Z</time></trkpt><trkpt lat="36.02729057568685" lon="-107.09786233244894"><ele>2222.0</ele><time>2026-05-03T15:39:37Z</time></trkpt><trkpt lat="36.02739971914733" lon="-107.09790148775132"><ele>2221.5</ele><time>2026-05-03T15:39:38Z</time></trkpt><trkpt lat="36.027509119612375" lon="-107.09791163445654"><ele>2221.0</ele><time>2026-05-03T15:39:39Z</time></trkpt><trkpt lat="36.02760986603741" lon="-107.09790335880834"><ele>2220.5</ele><time>2026-05-03T15:39:40Z</time></trkpt><trkpt lat="36.0277111622088" lon="-107.09795732267197"><ele>2220.0</ele><time>2026-05-03T15:39:41Z</time></trkpt><trkpt lat="36.027824620451895" lon="-107.09805511164907"><ele>2220.0</ele><time>2026-05-03T15:39:42Z</time></trkpt><trkpt lat="36.027931348499514" lon="-107.09814956650926"><ele>2220.0</ele><time>2026-05-03T15:39:43Z</time></trkpt><trkpt lat="36.02802357805465" lon="-107.0982218630821"><ele>2220.0</ele><time>2026-05-03T15:39:44Z</time></trkpt><trkpt lat="36.028123072502524" lon="-107.09828210010762"><ele>2220.0</ele><time>2026-05-03T15:39:45Z</time></trkpt><trkpt lat="36.0282210050272" lon="-107.09835937115996"><ele>2221.25</ele><time>2026-05-03T15:39:46Z</time></trkpt><trkpt lat="36.02831988159606" lon="-107.09846694528818"><ele>2222.5</ele><time>2026-05-03T15:39:47Z</time></trkpt><trkpt lat="36.02841495608876" lon="-107.09856871439698"><ele>2223.75</ele><time>2026-05-03T15:39:48Z</time></trkpt><trkpt lat="36.028524195812764" lon="-107.09866105242067"><ele>2225.0</ele><time>2026-05-03T15:39:49Z</time></trkpt><trkpt lat="36.028644195595625" lon="-107.09874308624741"><ele>2225.0</ele><time>2026-05-03T15:39:50Z</time></trkpt><trkpt lat="36.02875835664451" lon="-107.09881658399215"><ele>2225.0</ele><time>2026-05-03T15:39:51Z</time></trkpt><trkpt lat="36.02886135966372" lon="-107.0989075159181"><ele>2225.0</ele><time>2026-05-03T15:39:52Z</time></trkpt><trkpt lat="36.02897317148369" lon="-107.09901605321974"><ele>2225.0</ele><time>2026-05-03T15:39:53Z</time></trkpt><trkpt lat="36.02907130846193" lon="-107.09910766162257"><ele>2225.0</ele><time>2026-05-03T15:39:54Z</time></trkpt><trkpt lat="36.029162675067624" lon="-107.09916490727615"><ele>2225.0</ele><time>2026-05-03T15:39:55Z</time></trkpt><trkpt lat="36.02924809054927" lon="-107.09917711964721"><ele>2225.0</ele><time>2026-05-03T15:39:56Z</time></trkpt><trkpt lat="36.02934900911789" lon="-107.09919109279872"><ele>2225.0</ele><time>2026-05-03T15:39:57Z</time></trkpt><trkpt lat="36.0294710322766" lon="-107.09922261238462"><ele>2225.0</ele><time>2026-05-03T15:39:58Z</time></trkpt><trkpt lat="36.029610269794524" lon="-107.09925287023526"><ele>2225.0</ele><time>2026-05-03T15:39:59Z</time></trkpt><trkpt lat="36.02974535507175" lon="-107.09927986904678"><ele>2225.0</ele><time>2026-05-03T15:40:00Z</time></trkpt><trkpt lat="36.02988655602481" lon="-107.09931522593934"><ele>2225.0</ele><time>2026-05-03T15:40:01Z</time></trkpt><trkpt lat="36.03002800740985" lon="-107.09935847960074"><ele>2225.0</ele><time>2026-05-03T15:40:02Z</time></trkpt><trkpt lat="36.03015722396795" lon="-107.09938413857681"><ele>2225.4</ele><time>2026-05-03T15:40:03Z</time></trkpt><trkpt lat="36.03027645167634" lon="-107.09940334255107"><ele>2225.8</ele><time>2026-05-03T15:40:04Z</time></trkpt><trkpt lat="36.03039281417794" lon="-107.09940685182904"><ele>2226.2</ele><time>2026-05-03T15:40:05Z</time></trkpt><trkpt lat="36.03049881419729" lon="-107.09939268195946"><ele>2226.6</ele><time>2026-05-03T15:40:06Z</time></trkpt><trkpt lat="36.03059437242744" lon="-107.09935953354909"><ele>2227.0</ele><time>2026-05-03T15:40:07Z</time></trkpt><trkpt lat="36.03066143700647" lon="-107.09935917347597"><ele>2227.0</ele><time>2026-05-03T15:40:08Z</time></trkpt><trkpt lat="36.03072974094652" lon="-107.09940393464883"><ele>2227.0</ele><time>2026-05-03T15:40:09Z</time></trkpt><trkpt lat="36.03084830859568" lon="-107.09945130923217"><ele>2227.0</ele><time>2026-05-03T15:40:10Z</time></trkpt><trkpt lat="36.03101625549268" lon="-107.09947664407409"><ele>2227.0</ele><time>2026-05-03T15:40:11Z</time></trkpt><trkpt lat="36.031190662638735" lon="-107.0994926556421"><ele>2226.5</ele><time>2026-05-03T15:40:12Z</time></trkpt><trkpt lat="36.03135202698322" lon="-107.09949822039475"><ele>2226.0</ele><time>2026-05-03T15:40:13Z</time></trkpt><trkpt lat="36.03149393533645" lon="-107.09948837678766"><ele>2225.5</ele><time>2026-05-03T15:40:14Z</time></trkpt><trkpt lat="36.0316174841308" lon="-107.09947346263269"><ele>2225.0</ele><time>2026-05-03T15:40:15Z</time></trkpt><trkpt lat="36.031736107269204" lon="-107.09946126753066"><ele>2224.5</ele><time>2026-05-03T15:40:16Z</time></trkpt><trkpt lat="36.031866642308685" lon="-107.09946001855742"><ele>2224.0</ele><time>2026-05-03T15:40:17Z</time></trkpt><trkpt lat="36.03200192779073" lon="-107.0994600423112"><ele>2223.5</ele><time>2026-05-03T15:40:18Z</time></trkpt><trkpt lat="36.03212542747423" lon="-107.09946062279913"><ele>2223.0</ele><time>2026-05-03T15:40:19Z</time></trkpt><trkpt lat="36.0322470720319" lon="-107.09947609964703"><ele>2223.0</ele><time>2026-05-03T15:40:20Z</time></trkpt><trkpt lat="36.03238523503768" lon="-107.09949237950802"><ele>2223.0</ele><time>2026-05-03T15:40:21Z</time></trkpt><trkpt lat="36.03254126125785" lon="-107.09950631720402"><ele>2223.0</ele><time>2026-05-03T15:40:22.001Z</time></trkpt><trkpt lat="36.032680527427786" lon="-107.09950758739114"><ele>2223.0</ele><time>2026-05-03T15:40:23.001Z</time></trkpt><trkpt lat="36.03281994271496" lon="-107.09950150677267"><ele>2222.75</ele><time>2026-05-03T15:40:24.001Z</time></trkpt><trkpt lat="36.032961539238386" lon="-107.09948090990554"><ele>2222.5</ele><time>2026-05-03T15:40:25.001Z</time></trkpt><trkpt lat="36.033090313360034" lon="-107.09946902477452"><ele>2222.25</ele><time>2026-05-03T15:40:26.001Z</time></trkpt><trkpt lat="36.033203021645676" lon="-107.0994464517309"><ele>2222.0</ele><time>2026-05-03T15:40:27.001Z</time></trkpt><trkpt lat="36.03331224035848" lon="-107.09940744882977"><ele>2221.75</ele><time>2026-05-03T15:40:28.001Z</time></trkpt><trkpt lat="36.03340627336983" lon="-107.09937631698094"><ele>2221.5</ele><time>2026-05-03T15:40:29.001Z</time></trkpt><trkpt lat="36.03347478265857" lon="-107.09936088832964"><ele>2221.25</ele><time>2026-05-03T15:40:30.001Z</time></trkpt><trkpt lat="36.03363910653321" lon="-107.09945814867403"><ele>2221.0</ele><time>2026-05-03T15:40:32.001Z</time></trkpt><trkpt lat="36.03376620348168" lon="-107.0994869730108"><ele>2221.0</ele><time>2026-05-03T15:40:33.001Z</time></trkpt><trkpt lat="36.033899224547966" lon="-107.09946401317012"><ele>2221.0</ele><time>2026-05-03T15:40:34.001Z</time></trkpt><trkpt lat="36.03405567127781" lon="-107.09944574148273"><ele>2221.0</ele><time>2026-05-03T15:40:35.001Z</time></trkpt><trkpt lat="36.03421399936414" lon="-107.09944560822348"><ele>2220.4</ele><time>2026-05-03T15:40:36.001Z</time></trkpt><trkpt lat="36.034333758320216" lon="-107.09945533767609"><ele>2219.8</ele><time>2026-05-03T15:40:37.001Z</time></trkpt><trkpt lat="36.03441180645567" lon="-107.09944517368311"><ele>2219.2000000000003</ele><time>2026-05-03T15:40:38.001Z</time></trkpt><trkpt lat="36.03447237485468" lon="-107.09939127522925"><ele>2218.6</ele><time>2026-05-03T15:40:39.001Z</time></trkpt><trkpt lat="36.03453949579049" lon="-107.09931656579204"><ele>2218.0</ele><time>2026-05-03T15:40:40.001Z</time></trkpt><trkpt lat="36.03459898948659" lon="-107.09921114297798"><ele>2218.0</ele><time>2026-05-03T15:40:41.001Z</time></trkpt><trkpt lat="36.03464068680103" lon="-107.09912333084351"><ele>2218.0</ele><time>2026-05-03T15:40:42.001Z</time></trkpt><trkpt lat="36.034705125585454" lon="-107.09910273478843"><ele>2218.0</ele><time>2026-05-03T15:40:43.001Z</time></trkpt><trkpt lat="36.03480336788114" lon="-107.09913052460664"><ele>2218.0</ele><time>2026-05-03T15:40:44.001Z</time></trkpt><trkpt lat="36.03491037327904" lon="-107.09918018201068"><ele>2218.0</ele><time>2026-05-03T15:40:45.001Z</time></trkpt><trkpt lat="36.03500989634934" lon="-107.0992372188063"><ele>2217.8</ele><time>2026-05-03T15:40:46.001Z</time></trkpt><trkpt lat="36.03510270136913" lon="-107.09929416777139"><ele>2217.6000000000004</ele><time>2026-05-03T15:40:47.001Z</time></trkpt><trkpt lat="36.03518904598315" lon="-107.0993136866444"><ele>2217.3999999999996</ele><time>2026-05-03T15:40:48.001Z</time></trkpt><trkpt lat="36.03530740414748" lon="-107.09930955719325"><ele>2217.2</ele><time>2026-05-03T15:40:49.001Z</time></trkpt><trkpt lat="36.035421373528294" lon="-107.09931995105545"><ele>2217.0</ele><time>2026-05-03T15:40:50.001Z</time></trkpt><trkpt lat="36.03551320734271" lon="-107.09931873168033"><ele>2217.0</ele><time>2026-05-03T15:40:51.001Z</time></trkpt><trkpt lat="36.03560224406127" lon="-107.09928335610381"><ele>2217.0</ele><time>2026-05-03T15:40:52.001Z</time></trkpt><trkpt lat="36.035676872241595" lon="-107.09923215747551"><ele>2217.0</ele><time>2026-05-03T15:40:53.001Z</time></trkpt><trkpt lat="36.03573719074236" lon="-107.09913413629769"><ele>2217.0</ele><time>2026-05-03T15:40:54.001Z</time></trkpt><trkpt lat="36.03578410962925" lon="-107.09900158456115"><ele>2217.0</ele><time>2026-05-03T15:40:54.999Z</time></trkpt><trkpt lat="36.03581123898213" lon="-107.09886473322072"><ele>2216.25</ele><time>2026-05-03T15:40:55.999Z</time></trkpt><trkpt lat="36.035836298058655" lon="-107.09870812645025"><ele>2215.5</ele><time>2026-05-03T15:40:56.999Z</time></trkpt><trkpt lat="36.035842176441506" lon="-107.09856978651791"><ele>2214.75</ele><time>2026-05-03T15:40:57.999Z</time></trkpt><trkpt lat="36.03582829437937" lon="-107.09842324537199"><ele>2214.0</ele><time>2026-05-03T15:40:58.999Z</time></trkpt><trkpt lat="36.035815171109796" lon="-107.0982706438608"><ele>2214.4</ele><time>2026-05-03T15:41:00Z</time></trkpt><trkpt lat="36.035816552475254" lon="-107.09812193445457"><ele>2214.8</ele><time>2026-05-03T15:41:00.999Z</time></trkpt><trkpt lat="36.03581947134046" lon="-107.09799431674921"><ele>2215.2</ele><time>2026-05-03T15:41:01.999Z</time></trkpt><trkpt lat="36.03582295168309" lon="-107.09787057530163"><ele>2215.6</ele><time>2026-05-03T15:41:03Z</time></trkpt><trkpt lat="36.03582915171135" lon="-107.09773696054462"><ele>2216.0</ele><time>2026-05-03T15:41:04Z</time></trkpt><trkpt lat="36.035843021618724" lon="-107.09759724324233"><ele>2216.0</ele><time>2026-05-03T15:41:04.999Z</time></trkpt><trkpt lat="36.035853666974994" lon="-107.09745316176134"><ele>2216.0</ele><time>2026-05-03T15:41:06Z</time></trkpt><trkpt lat="36.03585081052731" lon="-107.09729580375381"><ele>2216.0</ele><time>2026-05-03T15:41:07Z</time></trkpt><trkpt lat="36.035850779774236" lon="-107.0971321300456"><ele>2216.0</ele><time>2026-05-03T15:41:08Z</time></trkpt><trkpt lat="36.03584506158026" lon="-107.09696082884993"><ele>2215.4</ele><time>2026-05-03T15:41:09Z</time></trkpt><trkpt lat="36.035846276734205" lon="-107.09681911894606"><ele>2214.8</ele><time>2026-05-03T15:41:10Z</time></trkpt><trkpt lat="36.03585576629744" lon="-107.09668969816512"><ele>2214.2000000000003</ele><time>2026-05-03T15:41:11Z</time></trkpt><trkpt lat="36.03586532114696" lon="-107.09657088462333"><ele>2213.6</ele><time>2026-05-03T15:41:12Z</time></trkpt><trkpt lat="36.03589160663599" lon="-107.09645279994898"><ele>2213.0</ele><time>2026-05-03T15:41:13Z</time></trkpt><trkpt lat="36.03592036504162" lon="-107.09632840237101"><ele>2212.833333333333</ele><time>2026-05-03T15:41:14Z</time></trkpt><trkpt lat="36.03593397563494" lon="-107.09622335485147"><ele>2212.6666666666665</ele><time>2026-05-03T15:41:15Z</time></trkpt><trkpt lat="36.03594153301889" lon="-107.09613231157192"><ele>2212.5</ele><time>2026-05-03T15:41:16Z</time></trkpt><trkpt lat="36.03594685128787" lon="-107.09605183329565"><ele>2212.3333333333335</ele><time>2026-05-03T15:41:17Z</time></trkpt><trkpt lat="36.03596641166968" lon="-107.09596498768461"><ele>2212.166666666667</ele><time>2026-05-03T15:41:18Z</time></trkpt><trkpt lat="36.03597829952421" lon="-107.09587876194756"><ele>2212.0</ele><time>2026-05-03T15:41:19Z</time></trkpt><trkpt lat="36.03595997376875" lon="-107.09577325440753"><ele>2211.0</ele><time>2026-05-03T15:41:20Z</time></trkpt><trkpt lat="36.035937857388795" lon="-107.0956736509806"><ele>2210.0</ele><time>2026-05-03T15:41:21Z</time></trkpt><trkpt lat="36.03593414833646" lon="-107.0955689162531"><ele>2209.0</ele><time>2026-05-03T15:41:22Z</time></trkpt><trkpt lat="36.035928014407126" lon="-107.09544139209632"><ele>2208.0</ele><time>2026-05-03T15:41:23Z</time></trkpt><trkpt lat="36.035925340531946" lon="-107.09530372279092"><ele>2207.0</ele><time>2026-05-03T15:41:24Z</time></trkpt><trkpt lat="36.03591920022161" lon="-107.09516838767497"><ele>2207.0</ele><time>2026-05-03T15:41:25Z</time></trkpt><trkpt lat="36.03590642760573" lon="-107.09502514574824"><ele>2207.0</ele><time>2026-05-03T15:41:26Z</time></trkpt><trkpt lat="36.03588628053624" lon="-107.09486310991318"><ele>2207.0</ele><time>2026-05-03T15:41:27Z</time></trkpt><trkpt lat="36.03587028068591" lon="-107.09470921127132"><ele>2207.0</ele><time>2026-05-03T15:41:28Z</time></trkpt><trkpt lat="36.03585123819819" lon="-107.09455720271188"><ele>2206.833333333333</ele><time>2026-05-03T15:41:29Z</time></trkpt><trkpt lat="36.035828244417296" lon="-107.09444381218339"><ele>2206.6666666666665</ele><time>2026-05-03T15:41:30Z</time></trkpt><trkpt lat="36.03580932222169" lon="-107.09435121427498"><ele>2206.5</ele><time>2026-05-03T15:41:31Z</time></trkpt><trkpt lat="36.03582733375931" lon="-107.09425738165297"><ele>2206.3333333333335</ele><time>2026-05-03T15:41:32Z</time></trkpt><trkpt lat="36.03585500336435" lon="-107.094162756625"><ele>2206.166666666667</ele><time>2026-05-03T15:41:33Z</time></trkpt><trkpt lat="36.035887031018895" lon="-107.09407673672061"><ele>2206.0</ele><time>2026-05-03T15:41:34Z</time></trkpt><trkpt lat="36.035939984274734" lon="-107.09397308932293"><ele>2207.0</ele><time>2026-05-03T15:41:36Z</time></trkpt><trkpt lat="36.03588761973796" lon="-107.09383983736763"><ele>2208.0</ele><time>2026-05-03T15:41:38Z</time></trkpt><trkpt lat="36.03583444686372" lon="-107.09373498500577"><ele>2209.0</ele><time>2026-05-03T15:41:39Z</time></trkpt><trkpt lat="36.03577489646451" lon="-107.0936804578472"><ele>2210.0</ele><time>2026-05-03T15:41:40Z</time></trkpt><trkpt lat="36.03570140307436" lon="-107.09361634971249"><ele>2211.0</ele><time>2026-05-03T15:41:41Z</time></trkpt><trkpt lat="36.03564024356675" lon="-107.09353973649245"><ele>2211.1666666666665</ele><time>2026-05-03T15:41:42Z</time></trkpt><trkpt lat="36.03560563492863" lon="-107.09343794193924"><ele>2211.3333333333335</ele><time>2026-05-03T15:41:43Z</time></trkpt><trkpt lat="36.03558775578563" lon="-107.09335671175204"><ele>2211.5</ele><time>2026-05-03T15:41:44Z</time></trkpt><trkpt lat="36.035566312175405" lon="-107.09327379620078"><ele>2211.666666666667</ele><time>2026-05-03T15:41:45Z</time></trkpt><trkpt lat="36.03555580356331" lon="-107.09317101471494"><ele>2211.8333333333335</ele><time>2026-05-03T15:41:46Z</time></trkpt><trkpt lat="36.035574529883654" lon="-107.09304051221197"><ele>2212.0</ele><time>2026-05-03T15:41:47Z</time></trkpt><trkpt lat="36.03560980719005" lon="-107.09290927106902"><ele>2212.0</ele><time>2026-05-03T15:41:48Z</time></trkpt><trkpt lat="36.035556577731924" lon="-107.09276356545895"><ele>2212.0</ele><time>2026-05-03T15:41:50Z</time></trkpt><trkpt lat="36.035500057113296" lon="-107.09267469693502"><ele>2212.0</ele><time>2026-05-03T15:41:51Z</time></trkpt><trkpt lat="36.035490006372214" lon="-107.09258093361514"><ele>2212.0</ele><time>2026-05-03T15:41:52Z</time></trkpt><trkpt lat="36.03553471869463" lon="-107.09247460555332"><ele>2212.0</ele><time>2026-05-03T15:41:53Z</time></trkpt><trkpt lat="36.035572397131226" lon="-107.09233206224461"><ele>2211.6</ele><time>2026-05-03T15:41:54Z</time></trkpt><trkpt lat="36.03560058210305" lon="-107.09218955159774"><ele>2211.2</ele><time>2026-05-03T15:41:55Z</time></trkpt><trkpt lat="36.03560402174996" lon="-107.092071690258"><ele>2210.8</ele><time>2026-05-03T15:41:56Z</time></trkpt><trkpt lat="36.03560227426907" lon="-107.09193715050002"><ele>2210.4</ele><time>2026-05-03T15:41:57Z</time></trkpt><trkpt lat="36.035610550111734" lon="-107.09179163357015"><ele>2210.0</ele><time>2026-05-03T15:41:58Z</time></trkpt><trkpt lat="36.035637461657004" lon="-107.09169134114788"><ele>2210.0</ele><time>2026-05-03T15:41:59Z</time></trkpt><trkpt lat="36.035686753195634" lon="-107.09163163937929"><ele>2210.0</ele><time>2026-05-03T15:42:00Z</time></trkpt><trkpt lat="36.03562082804445" lon="-107.09151895634955"><ele>2210.0</ele><time>2026-05-03T15:42:03Z</time></trkpt><trkpt lat="36.03551301471505" lon="-107.09146670076639"><ele>2210.0</ele><time>2026-05-03T15:42:04Z</time></trkpt><trkpt lat="36.035405813053835" lon="-107.09135326550569"><ele>2210.0</ele><time>2026-05-03T15:42:05Z</time></trkpt><trkpt lat="36.03530002921488" lon="-107.09127455429707"><ele>2209.8</ele><time>2026-05-03T15:42:06Z</time></trkpt><trkpt lat="36.035200385564735" lon="-107.09123057553725"><ele>2209.6</ele><time>2026-05-03T15:42:07Z</time></trkpt><trkpt lat="36.035108305835706" lon="-107.09118164459512"><ele>2209.4</ele><time>2026-05-03T15:42:08Z</time></trkpt><trkpt lat="36.03502810623886" lon="-107.09112068447021"><ele>2209.2</ele><time>2026-05-03T15:42:09Z</time></trkpt><trkpt lat="36.03495372936824" lon="-107.09104857924137"><ele>2209.0</ele><time>2026-05-03T15:42:10Z</time></trkpt><trkpt lat="36.03486641021626" lon="-107.09098255069374"><ele>2207.6</ele><time>2026-05-03T15:42:11Z</time></trkpt><trkpt lat="36.03476615135801" lon="-107.09090644778587"><ele>2206.2</ele><time>2026-05-03T15:42:12Z</time></trkpt><trkpt lat="36.03468898873986" lon="-107.09084896301788"><ele>2204.7999999999997</ele><time>2026-05-03T15:42:13Z</time></trkpt><trkpt lat="36.03461137695938" lon="-107.09080555777544"><ele>2203.4</ele><time>2026-05-03T15:42:14Z</time></trkpt><trkpt lat="36.03453805202165" lon="-107.09075508980297"><ele>2202.0</ele><time>2026-05-03T15:42:15Z</time></trkpt><trkpt lat="36.03448111572162" lon="-107.09066542214124"><ele>2201.1666666666665</ele><time>2026-05-03T15:42:16Z</time></trkpt><trkpt lat="36.03444744418066" lon="-107.09056301000446"><ele>2200.3333333333335</ele><time>2026-05-03T15:42:17Z</time></trkpt><trkpt lat="36.03443181065974" lon="-107.09046919256079"><ele>2199.5</ele><time>2026-05-03T15:42:18Z</time></trkpt><trkpt lat="36.03445146791582" lon="-107.09038816974181"><ele>2198.666666666667</ele><time>2026-05-03T15:42:19Z</time></trkpt><trkpt lat="36.034505793806325" lon="-107.09030547908692"><ele>2197.8333333333335</ele><time>2026-05-03T15:42:20Z</time></trkpt><trkpt lat="36.034589630824826" lon="-107.09022806432795"><ele>2197.0</ele><time>2026-05-03T15:42:21Z</time></trkpt><trkpt lat="36.0346870018801" lon="-107.09017494401594"><ele>2197.0</ele><time>2026-05-03T15:42:22Z</time></trkpt><trkpt lat="36.03478823724599" lon="-107.09008009635504"><ele>2197.0</ele><time>2026-05-03T15:42:23Z</time></trkpt><trkpt lat="36.034909598344704" lon="-107.08997357847757"><ele>2197.0</ele><time>2026-05-03T15:42:24Z</time></trkpt><trkpt lat="36.03502685608332" lon="-107.08986327015373"><ele>2197.0</ele><time>2026-05-03T15:42:25Z</time></trkpt><trkpt lat="36.035117173056044" lon="-107.08975679079894"><ele>2197.6</ele><time>2026-05-03T15:42:26.001Z</time></trkpt><trkpt lat="36.03519267138953" lon="-107.08971310805399"><ele>2198.2</ele><time>2026-05-03T15:42:27.001Z</time></trkpt><trkpt lat="36.03524466969652" lon="-107.08964146178693"><ele>2198.8</ele><time>2026-05-03T15:42:28.001Z</time></trkpt><trkpt lat="36.03528127154638" lon="-107.0895265071834"><ele>2199.4</ele><time>2026-05-03T15:42:29.001Z</time></trkpt><trkpt lat="36.03531937350528" lon="-107.08935509405353"><ele>2200.0</ele><time>2026-05-03T15:42:30.001Z</time></trkpt><trkpt lat="36.03535674913486" lon="-107.08921752614593"><ele>2200.0</ele><time>2026-05-03T15:42:31.001Z</time></trkpt><trkpt lat="36.03537339400169" lon="-107.08913013879565"><ele>2200.0</ele><time>2026-05-03T15:42:32.001Z</time></trkpt><trkpt lat="36.035369105282356" lon="-107.08900446324363"><ele>2200.0</ele><time>2026-05-03T15:42:33.001Z</time></trkpt><trkpt lat="36.03534561996548" lon="-107.08886029222562"><ele>2200.0</ele><time>2026-05-03T15:42:34.001Z</time></trkpt><trkpt lat="36.035318382770804" lon="-107.08873315452446"><ele>2200.0</ele><time>2026-05-03T15:42:35.001Z</time></trkpt><trkpt lat="36.035307504769904" lon="-107.08858580059888"><ele>2199.75</ele><time>2026-05-03T15:42:36.001Z</time></trkpt><trkpt lat="36.035283675011065" lon="-107.08839119261349"><ele>2199.5</ele><time>2026-05-03T15:42:37.001Z</time></trkpt><trkpt lat="36.035255186415164" lon="-107.0881820507852"><ele>2199.25</ele><time>2026-05-03T15:42:38.001Z</time></trkpt><trkpt lat="36.03523514182105" lon="-107.08805502103033"><ele>2199.0</ele><time>2026-05-03T15:42:39.001Z</time></trkpt><trkpt lat="36.035203895309664" lon="-107.08793786403162"><ele>2198.6</ele><time>2026-05-03T15:42:40.001Z</time></trkpt><trkpt lat="36.035163599167575" lon="-107.0877917204078"><ele>2198.2</ele><time>2026-05-03T15:42:41.001Z</time></trkpt><trkpt lat="36.03512319387257" lon="-107.08763054737736"><ele>2197.7999999999997</ele><time>2026-05-03T15:42:42.001Z</time></trkpt><trkpt lat="36.03509941386876" lon="-107.08750878628385"><ele>2197.4</ele><time>2026-05-03T15:42:43.001Z</time></trkpt><trkpt lat="36.03509289175024" lon="-107.08740799500316"><ele>2197.0</ele><time>2026-05-03T15:42:44.001Z</time></trkpt><trkpt lat="36.035102622803485" lon="-107.08728991799174"><ele>2196.6</ele><time>2026-05-03T15:42:45.001Z</time></trkpt><trkpt lat="36.03512397039595" lon="-107.08717344288465"><ele>2196.2</ele><time>2026-05-03T15:42:46.001Z</time></trkpt><trkpt lat="36.03511178040706" lon="-107.08705120942359"><ele>2195.8</ele><time>2026-05-03T15:42:47.001Z</time></trkpt><trkpt lat="36.035069146531086" lon="-107.08692100676969"><ele>2195.4</ele><time>2026-05-03T15:42:48.001Z</time></trkpt><trkpt lat="36.03505787165207" lon="-107.08681465135565"><ele>2195.0</ele><time>2026-05-03T15:42:49.001Z</time></trkpt><trkpt lat="36.03508736468377" lon="-107.0867063801968"><ele>2194.75</ele><time>2026-05-03T15:42:50.001Z</time></trkpt><trkpt lat="36.035117069533435" lon="-107.08654742917896"><ele>2194.5</ele><time>2026-05-03T15:42:51.001Z</time></trkpt><trkpt lat="36.035127670245934" lon="-107.08636549490258"><ele>2194.25</ele><time>2026-05-03T15:42:52.001Z</time></trkpt><trkpt lat="36.03512959694462" lon="-107.08619836384938"><ele>2194.0</ele><time>2026-05-03T15:42:53.001Z</time></trkpt><trkpt lat="36.035136440598066" lon="-107.08604922422441"><ele>2194.0</ele><time>2026-05-03T15:42:54.001Z</time></trkpt><trkpt lat="36.03513249863492" lon="-107.0858691270455"><ele>2194.0</ele><time>2026-05-03T15:42:55.001Z</time></trkpt><trkpt lat="36.0351332470752" lon="-107.08568745525187"><ele>2194.0</ele><time>2026-05-03T15:42:56.001Z</time></trkpt><trkpt lat="36.03514262115728" lon="-107.08552324435914"><ele>2194.0</ele><time>2026-05-03T15:42:57.001Z</time></trkpt><trkpt lat="36.035145866205404" lon="-107.08534008874169"><ele>2193.5</ele><time>2026-05-03T15:42:58.001Z</time></trkpt><trkpt lat="36.03514941252744" lon="-107.08516285554246"><ele>2193.0</ele><time>2026-05-03T15:42:59.001Z</time></trkpt><trkpt lat="36.03517117124021" lon="-107.08501525213948"><ele>2192.5</ele><time>2026-05-03T15:43:00.001Z</time></trkpt><trkpt lat="36.03519071031189" lon="-107.08487455770403"><ele>2192.0</ele><time>2026-05-03T15:43:01Z</time></trkpt><trkpt lat="36.035197525482374" lon="-107.08473199629935"><ele>2190.75</ele><time>2026-05-03T15:43:02Z</time></trkpt><trkpt lat="36.03520077961396" lon="-107.08457630751451"><ele>2189.5</ele><time>2026-05-03T15:43:03Z</time></trkpt><trkpt lat="36.03519621710722" lon="-107.0844294094708"><ele>2188.25</ele><time>2026-05-03T15:43:04Z</time></trkpt><trkpt lat="36.03518908729373" lon="-107.08427678700589"><ele>2187.0</ele><time>2026-05-03T15:43:05Z</time></trkpt><trkpt lat="36.03518724811197" lon="-107.08411085426954"><ele>2186.2</ele><time>2026-05-03T15:43:06Z</time></trkpt><trkpt lat="36.03518303149373" lon="-107.08394021362889"><ele>2185.3999999999996</ele><time>2026-05-03T15:43:07Z</time></trkpt><trkpt lat="36.0351860502862" lon="-107.08381157488925"><ele>2184.6000000000004</ele><time>2026-05-03T15:43:07.999Z</time></trkpt><trkpt lat="36.03519174993908" lon="-107.08371492778993"><ele>2183.8</ele><time>2026-05-03T15:43:09Z</time></trkpt><trkpt lat="36.035193449962314" lon="-107.08360962165277"><ele>2183.0</ele><time>2026-05-03T15:43:10Z</time></trkpt><trkpt lat="36.035196226751694" lon="-107.0834929837603"><ele>2183.0</ele><time>2026-05-03T15:43:10.999Z</time></trkpt><trkpt lat="36.03519554600777" lon="-107.08339020696758"><ele>2183.0</ele><time>2026-05-03T15:43:11.999Z</time></trkpt><trkpt lat="36.035190520352025" lon="-107.0832839868575"><ele>2183.0</ele><time>2026-05-03T15:43:13Z</time></trkpt><trkpt lat="36.035181378209586" lon="-107.08315541870112"><ele>2183.0</ele><time>2026-05-03T15:43:14Z</time></trkpt><trkpt lat="36.035163606545765" lon="-107.0830209039789"><ele>2183.0</ele><time>2026-05-03T15:43:15Z</time></trkpt><trkpt lat="36.03514550384003" lon="-107.08287157336098"><ele>2182.1666666666665</ele><time>2026-05-03T15:43:16Z</time></trkpt><trkpt lat="36.03514114078784" lon="-107.08274229816614"><ele>2181.333333333333</ele><time>2026-05-03T15:43:17Z</time></trkpt><trkpt lat="36.03514027464371" lon="-107.0826532422215"><ele>2180.5</ele><time>2026-05-03T15:43:18Z</time></trkpt><trkpt lat="36.03514499085798" lon="-107.08256545791754"><ele>2179.6666666666665</ele><time>2026-05-03T15:43:19Z</time></trkpt><trkpt lat="36.03512045747467" lon="-107.0824622894875"><ele>2178.8333333333335</ele><time>2026-05-03T15:43:21Z</time></trkpt><trkpt lat="36.03503522677482" lon="-107.08245827902482"><ele>2178.0</ele><time>2026-05-03T15:43:23Z</time></trkpt><trkpt lat="36.03495730139916" lon="-107.08249209589574"><ele>2177.25</ele><time>2026-05-03T15:43:24Z</time></trkpt><trkpt lat="36.0348665807783" lon="-107.08247744837952"><ele>2176.5</ele><time>2026-05-03T15:43:25Z</time></trkpt><trkpt lat="36.03473118464319" lon="-107.08241771243293"><ele>2175.75</ele><time>2026-05-03T15:43:26Z</time></trkpt><trkpt lat="36.03460085087584" lon="-107.08238386413234"><ele>2175.0</ele><time>2026-05-03T15:43:27Z</time></trkpt><trkpt lat="36.034499658901574" lon="-107.08237808973416"><ele>2175.0</ele><time>2026-05-03T15:43:28Z</time></trkpt><trkpt lat="36.034414822844354" lon="-107.08240660630752"><ele>2175.0</ele><time>2026-05-03T15:43:29Z</time></trkpt><trkpt lat="36.03435205717201" lon="-107.0824559079471"><ele>2175.0</ele><time>2026-05-03T15:43:30Z</time></trkpt><trkpt lat="36.034307066933344" lon="-107.08251213768693"><ele>2175.0</ele><time>2026-05-03T15:43:31Z</time></trkpt><trkpt lat="36.0342476061043" lon="-107.08256206849774"><ele>2175.0</ele><time>2026-05-03T15:43:32Z</time></trkpt><trkpt lat="36.0341515532802" lon="-107.08258061409217"><ele>2175.0</ele><time>2026-05-03T15:43:33Z</time></trkpt><trkpt lat="36.03402179534146" lon="-107.08255674795174"><ele>2174.5</ele><time>2026-05-03T15:43:34Z</time></trkpt><trkpt lat="36.0338877850046" lon="-107.08253710329848"><ele>2174.0</ele><time>2026-05-03T15:43:35Z</time></trkpt><trkpt lat="36.03375955790291" lon="-107.08251748497332"><ele>2173.5</ele><time>2026-05-03T15:43:36Z</time></trkpt><trkpt lat="36.03362712818735" lon="-107.08247003839035"><ele>2173.0</ele><time>2026-05-03T15:43:37Z</time></trkpt><trkpt lat="36.03351843850202" lon="-107.08243439274985"><ele>2173.0</ele><time>2026-05-03T15:43:38Z</time></trkpt><trkpt lat="36.03342691382524" lon="-107.082436407211"><ele>2173.0</ele><time>2026-05-03T15:43:39Z</time></trkpt><trkpt lat="36.033309580932325" lon="-107.08246961839102"><ele>2173.0</ele><time>2026-05-03T15:43:40Z</time></trkpt><trkpt lat="36.03317134279245" lon="-107.08249400000564"><ele>2173.0</ele><time>2026-05-03T15:43:41Z</time></trkpt><trkpt lat="36.0330178471308" lon="-107.08249232770473"><ele>2172.0</ele><time>2026-05-03T15:43:42Z</time></trkpt><trkpt lat="36.03287796433112" lon="-107.0824881309854"><ele>2171.0</ele><time>2026-05-03T15:43:43Z</time></trkpt><trkpt lat="36.032752974138404" lon="-107.08249239004081"><ele>2170.0</ele><time>2026-05-03T15:43:44Z</time></trkpt><trkpt lat="36.0326148387466" lon="-107.08251301595485"><ele>2169.0</ele><time>2026-05-03T15:43:45Z</time></trkpt><trkpt lat="36.03248695158287" lon="-107.0825285316191"><ele>2168.25</ele><time>2026-05-03T15:43:46Z</time></trkpt><trkpt lat="36.032384473033915" lon="-107.08253598075575"><ele>2167.5</ele><time>2026-05-03T15:43:47Z</time></trkpt><trkpt lat="36.03228016009394" lon="-107.08251859987152"><ele>2166.75</ele><time>2026-05-03T15:43:48Z</time></trkpt><trkpt lat="36.032159513107295" lon="-107.08247459156075"><ele>2166.0</ele><time>2026-05-03T15:43:49Z</time></trkpt><trkpt lat="36.03204562167906" lon="-107.08243451355801"><ele>2165.75</ele><time>2026-05-03T15:43:50Z</time></trkpt><trkpt lat="36.031953521315494" lon="-107.0824111851627"><ele>2165.5</ele><time>2026-05-03T15:43:51Z</time></trkpt><trkpt lat="36.03184761917199" lon="-107.08240620364026"><ele>2165.25</ele><time>2026-05-03T15:43:52Z</time></trkpt><trkpt lat="36.03171757063988" lon="-107.08237151792059"><ele>2165.0</ele><time>2026-05-03T15:43:53Z</time></trkpt><trkpt lat="36.031596703079686" lon="-107.0823407736474"><ele>2165.5</ele><time>2026-05-03T15:43:54Z</time></trkpt><trkpt lat="36.03146450329998" lon="-107.08232621152578"><ele>2166.0</ele><time>2026-05-03T15:43:55Z</time></trkpt><trkpt lat="36.03131367581037" lon="-107.08231644469149"><ele>2166.5</ele><time>2026-05-03T15:43:56Z</time></trkpt><trkpt lat="36.031192032440416" lon="-107.08229376559912"><ele>2167.0</ele><time>2026-05-03T15:43:57Z</time></trkpt><trkpt lat="36.031088177939914" lon="-107.08227056941746"><ele>2167.0</ele><time>2026-05-03T15:43:58Z</time></trkpt><trkpt lat="36.03098111479388" lon="-107.08225570495186"><ele>2167.0</ele><time>2026-05-03T15:43:59Z</time></trkpt><trkpt lat="36.03088153578367" lon="-107.08225912548839"><ele>2167.0</ele><time>2026-05-03T15:44:00Z</time></trkpt><trkpt lat="36.030776032473014" lon="-107.08227986691358"><ele>2167.0</ele><time>2026-05-03T15:44:01Z</time></trkpt><trkpt lat="36.03069571843235" lon="-107.08227315099062"><ele>2167.0</ele><time>2026-05-03T15:44:02Z</time></trkpt><trkpt lat="36.0306107724137" lon="-107.08222081063295"><ele>2167.0</ele><time>2026-05-03T15:44:03Z</time></trkpt><trkpt lat="36.03054061175239" lon="-107.08214064834911"><ele>2167.0</ele><time>2026-05-03T15:44:04Z</time></trkpt><trkpt lat="36.03052272184169" lon="-107.08206107367893"><ele>2167.0</ele><time>2026-05-03T15:44:05Z</time></trkpt><trkpt lat="36.03049512625316" lon="-107.08198585802768"><ele>2167.0</ele><time>2026-05-03T15:44:06Z</time></trkpt><trkpt lat="36.030436203283216" lon="-107.08195498816428"><ele>2167.0</ele><time>2026-05-03T15:44:07Z</time></trkpt><trkpt lat="36.030332698958645" lon="-107.08197045548232"><ele>2167.0</ele><time>2026-05-03T15:44:08Z</time></trkpt><trkpt lat="36.03021399131693" lon="-107.08196065012037"><ele>2167.0</ele><time>2026-05-03T15:44:09Z</time></trkpt><trkpt lat="36.03013510911199" lon="-107.08193675964063"><ele>2167.0</ele><time>2026-05-03T15:44:10Z</time></trkpt><trkpt lat="36.030069082846964" lon="-107.08191462179705"><ele>2167.0</ele><time>2026-05-03T15:44:11Z</time></trkpt><trkpt lat="36.02998882905242" lon="-107.08188950785295"><ele>2167.0</ele><time>2026-05-03T15:44:12Z</time></trkpt><trkpt lat="36.02986557982727" lon="-107.08188194056851"><ele>2167.0</ele><time>2026-05-03T15:44:13Z</time></trkpt><trkpt lat="36.02970758011399" lon="-107.08189286219464"><ele>2168.0</ele><time>2026-05-03T15:44:14Z</time></trkpt><trkpt lat="36.02951947670678" lon="-107.08191265067192"><ele>2169.0</ele><time>2026-05-03T15:44:15Z</time></trkpt><trkpt lat="36.02931793326363" lon="-107.08190847478711"><ele>2170.0</ele><time>2026-05-03T15:44:16Z</time></trkpt><trkpt lat="36.029120827038646" lon="-107.08188974519622"><ele>2170.0</ele><time>2026-05-03T15:44:17Z</time></trkpt><trkpt lat="36.02894671695472" lon="-107.08186737933406"><ele>2170.0</ele><time>2026-05-03T15:44:18Z</time></trkpt><trkpt lat="36.0287859304176" lon="-107.08183593457368"><ele>2170.0</ele><time>2026-05-03T15:44:19Z</time></trkpt><trkpt lat="36.02861672584193" lon="-107.08178644473035"><ele>2170.0</ele><time>2026-05-03T15:44:20Z</time></trkpt><trkpt lat="36.02844438809782" lon="-107.08174612528242"><ele>2170.0</ele><time>2026-05-03T15:44:21Z</time></trkpt><trkpt lat="36.02829539398708" lon="-107.08172888360794"><ele>2170.0</ele><time>2026-05-03T15:44:22Z</time></trkpt><trkpt lat="36.028166850820746" lon="-107.08173318583381"><ele>2170.5</ele><time>2026-05-03T15:44:23Z</time></trkpt><trkpt lat="36.028037040086716" lon="-107.0817336380816"><ele>2171.0</ele><time>2026-05-03T15:44:24Z</time></trkpt><trkpt lat="36.02791689460524" lon="-107.0817074493753"><ele>2171.5</ele><time>2026-05-03T15:44:25Z</time></trkpt><trkpt lat="36.02780941292766" lon="-107.08165606970714"><ele>2172.0</ele><time>2026-05-03T15:44:26Z</time></trkpt><trkpt lat="36.02770525910983" lon="-107.08159486067974"><ele>2172.0</ele><time>2026-05-03T15:44:27Z</time></trkpt><trkpt lat="36.02759596610737" lon="-107.08149875879359"><ele>2172.0</ele><time>2026-05-03T15:44:28Z</time></trkpt><trkpt lat="36.02746358221028" lon="-107.08136848117898"><ele>2172.0</ele><time>2026-05-03T15:44:29Z</time></trkpt><trkpt lat="36.02731046445269" lon="-107.08126493222369"><ele>2172.0</ele><time>2026-05-03T15:44:30Z</time></trkpt><trkpt lat="36.027178703852826" lon="-107.08119651870895"><ele>2172.0</ele><time>2026-05-03T15:44:31Z</time></trkpt><trkpt lat="36.027054172998064" lon="-107.08113740129697"><ele>2172.0</ele><time>2026-05-03T15:44:32.001Z</time></trkpt><trkpt lat="36.026911754830415" lon="-107.08108938215098"><ele>2172.0</ele><time>2026-05-03T15:44:33.001Z</time></trkpt><trkpt lat="36.02678440630136" lon="-107.08106609460994"><ele>2172.0</ele><time>2026-05-03T15:44:34.001Z</time></trkpt><trkpt lat="36.026674659553656" lon="-107.08104456597397"><ele>2172.0</ele><time>2026-05-03T15:44:35.001Z</time></trkpt><trkpt lat="36.02655417036658" lon="-107.08102276727462"><ele>2172.0</ele><time>2026-05-03T15:44:36.001Z</time></trkpt><trkpt lat="36.02641714016969" lon="-107.08098153394147"><ele>2172.0</ele><time>2026-05-03T15:44:37.001Z</time></trkpt><trkpt lat="36.0262823379595" lon="-107.08093095084027"><ele>2171.75</ele><time>2026-05-03T15:44:38.001Z</time></trkpt><trkpt lat="36.02615990924817" lon="-107.08090009098343"><ele>2171.5</ele><time>2026-05-03T15:44:39.001Z</time></trkpt><trkpt lat="36.02604267878836" lon="-107.08091145884694"><ele>2171.25</ele><time>2026-05-03T15:44:40.001Z</time></trkpt><trkpt lat="36.02592500388884" lon="-107.08092120534833"><ele>2171.0</ele><time>2026-05-03T15:44:41.001Z</time></trkpt><trkpt lat="36.025816963658066" lon="-107.08090513484967"><ele>2170.25</ele><time>2026-05-03T15:44:42.001Z</time></trkpt><trkpt lat="36.025713899152436" lon="-107.08088395680602"><ele>2169.5</ele><time>2026-05-03T15:44:43.001Z</time></trkpt><trkpt lat="36.025571116389585" lon="-107.08086876586184"><ele>2168.75</ele><time>2026-05-03T15:44:44.001Z</time></trkpt><trkpt lat="36.025409025196716" lon="-107.08086236935266"><ele>2168.0</ele><time>2026-05-03T15:44:45.001Z</time></trkpt><trkpt lat="36.02523451000699" lon="-107.0808508996465"><ele>2168.0</ele><time>2026-05-03T15:44:46.001Z</time></trkpt><trkpt lat="36.02507299944701" lon="-107.0808228511029"><ele>2168.0</ele><time>2026-05-03T15:44:47.001Z</time></trkpt><trkpt lat="36.02493861537517" lon="-107.08078542616273"><ele>2168.0</ele><time>2026-05-03T15:44:48.001Z</time></trkpt><trkpt lat="36.02482575967414" lon="-107.08074621400536"><ele>2168.0</ele><time>2026-05-03T15:44:49.001Z</time></trkpt><trkpt lat="36.024704305309506" lon="-107.08072623555864"><ele>2169.0</ele><time>2026-05-03T15:44:50.001Z</time></trkpt><trkpt lat="36.02455313272727" lon="-107.08070939406487"><ele>2170.0</ele><time>2026-05-03T15:44:51.001Z</time></trkpt><trkpt lat="36.024377069887585" lon="-107.08070283702868"><ele>2171.0</ele><time>2026-05-03T15:44:52.001Z</time></trkpt><trkpt lat="36.02423530796683" lon="-107.08069857866253"><ele>2169.0</ele><time>2026-05-03T15:44:53.001Z</time></trkpt><trkpt lat="36.024119362521255" lon="-107.08069559094824"><ele>2167.0</ele><time>2026-05-03T15:44:54.001Z</time></trkpt><trkpt lat="36.0240082726974" lon="-107.08069273184461"><ele>2165.0</ele><time>2026-05-03T15:44:55.001Z</time></trkpt><trkpt lat="36.02388012204208" lon="-107.08067239845474"><ele>2163.0</ele><time>2026-05-03T15:44:56.001Z</time></trkpt><trkpt lat="36.023752978702355" lon="-107.0806366688617"><ele>2163.0</ele><time>2026-05-03T15:44:57.001Z</time></trkpt><trkpt lat="36.02362918686734" lon="-107.08061663125127"><ele>2163.0</ele><time>2026-05-03T15:44:58.001Z</time></trkpt><trkpt lat="36.02350853336378" lon="-107.0806179146246"><ele>2163.0</ele><time>2026-05-03T15:44:59.001Z</time></trkpt><trkpt lat="36.02339528223569" lon="-107.08064347186095"><ele>2163.0</ele><time>2026-05-03T15:45:00.001Z</time></trkpt><trkpt lat="36.02327155213273" lon="-107.0806976360445"><ele>2161.5</ele><time>2026-05-03T15:45:01.001Z</time></trkpt><trkpt lat="36.02316549946824" lon="-107.08077230375667"><ele>2160.0</ele><time>2026-05-03T15:45:02.001Z</time></trkpt><trkpt lat="36.02305783962737" lon="-107.0808296571716"><ele>2158.5</ele><time>2026-05-03T15:45:03.001Z</time></trkpt><trkpt lat="36.022919374590955" lon="-107.08085333529469"><ele>2157.0</ele><time>2026-05-03T15:45:04.001Z</time></trkpt><trkpt lat="36.02277673465306" lon="-107.08087438689088"><ele>2157.0</ele><time>2026-05-03T15:45:05.001Z</time></trkpt><trkpt lat="36.02267464912612" lon="-107.08092105356258"><ele>2157.0</ele><time>2026-05-03T15:45:06.001Z</time></trkpt><trkpt lat="36.02254266751144" lon="-107.08097101998668"><ele>2157.0</ele><time>2026-05-03T15:45:07Z</time></trkpt><trkpt lat="36.02239981985832" lon="-107.08100302915813"><ele>2157.0</ele><time>2026-05-03T15:45:07.999Z</time></trkpt><trkpt lat="36.02226175418951" lon="-107.08103030673902"><ele>2156.75</ele><time>2026-05-03T15:45:09Z</time></trkpt><trkpt lat="36.02212656291362" lon="-107.08106878110395"><ele>2156.5</ele><time>2026-05-03T15:45:10Z</time></trkpt><trkpt lat="36.02200594682828" lon="-107.08109468924093"><ele>2156.25</ele><time>2026-05-03T15:45:10.999Z</time></trkpt><trkpt lat="36.021892544266066" lon="-107.081094006463"><ele>2156.0</ele><time>2026-05-03T15:45:12Z</time></trkpt><trkpt lat="36.02178142236322" lon="-107.08104797424342"><ele>2156.25</ele><time>2026-05-03T15:45:13Z</time></trkpt><trkpt lat="36.02163828359254" lon="-107.08098430044787"><ele>2156.5</ele><time>2026-05-03T15:45:14Z</time></trkpt><trkpt lat="36.0215008480082" lon="-107.08095045645678"><ele>2156.75</ele><time>2026-05-03T15:45:15Z</time></trkpt><trkpt lat="36.02139117709587" lon="-107.08095914074862"><ele>2157.0</ele><time>2026-05-03T15:45:16Z</time></trkpt><trkpt lat="36.02125681813684" lon="-107.08099280364968"><ele>2157.0</ele><time>2026-05-03T15:45:17Z</time></trkpt><trkpt lat="36.02109461575661" lon="-107.08105363126495"><ele>2157.0</ele><time>2026-05-03T15:45:18Z</time></trkpt><trkpt lat="36.02090247014141" lon="-107.08111017928414"><ele>2157.0</ele><time>2026-05-03T15:45:19Z</time></trkpt><trkpt lat="36.02070109490959" lon="-107.08116932650336"><ele>2157.6666666666665</ele><time>2026-05-03T15:45:20Z</time></trkpt><trkpt lat="36.020527103390684" lon="-107.08121723582654"><ele>2158.333333333333</ele><time>2026-05-03T15:45:21Z</time></trkpt><trkpt lat="36.02036868081494" lon="-107.08125630302644"><ele>2159.0</ele><time>2026-05-03T15:45:22Z</time></trkpt><trkpt lat="36.02022818604902" lon="-107.08130259217751"><ele>2159.0</ele><time>2026-05-03T15:45:23Z</time></trkpt><trkpt lat="36.020079233344596" lon="-107.0813587977811"><ele>2159.0</ele><time>2026-05-03T15:45:24Z</time></trkpt><trkpt lat="36.01993446214846" lon="-107.08140782952033"><ele>2159.0</ele><time>2026-05-03T15:45:25Z</time></trkpt><trkpt lat="36.01978286660004" lon="-107.08145419743045"><ele>2158.75</ele><time>2026-05-03T15:45:26Z</time></trkpt><trkpt lat="36.01961986308678" lon="-107.08150100830629"><ele>2158.5</ele><time>2026-05-03T15:45:27Z</time></trkpt><trkpt lat="36.01948428223399" lon="-107.0815432605448"><ele>2158.25</ele><time>2026-05-03T15:45:28Z</time></trkpt><trkpt lat="36.019373943278765" lon="-107.08156881107539"><ele>2158.0</ele><time>2026-05-03T15:45:29Z</time></trkpt><trkpt lat="36.019239605721346" lon="-107.08156088371813"><ele>2158.666666666667</ele><time>2026-05-03T15:45:30Z</time></trkpt><trkpt lat="36.01908810015201" lon="-107.08153588158866"><ele>2159.3333333333335</ele><time>2026-05-03T15:45:31Z</time></trkpt><trkpt lat="36.01891770888325" lon="-107.08153628027436"><ele>2160.0</ele><time>2026-05-03T15:45:32Z</time></trkpt><trkpt lat="36.01874768633601" lon="-107.08155674151276"><ele>2160.0</ele><time>2026-05-03T15:45:33Z</time></trkpt><trkpt lat="36.01857375061976" lon="-107.08158315178645"><ele>2160.0</ele><time>2026-05-03T15:45:34Z</time></trkpt><trkpt lat="36.01840607064343" lon="-107.08160716017339"><ele>2160.0</ele><time>2026-05-03T15:45:35Z</time></trkpt><trkpt lat="36.01825049451271" lon="-107.0816151816007"><ele>2160.8</ele><time>2026-05-03T15:45:36Z</time></trkpt><trkpt lat="36.01812833069538" lon="-107.08160772130633"><ele>2161.6</ele><time>2026-05-03T15:45:37Z</time></trkpt><trkpt lat="36.0180336487364" lon="-107.0815983100713"><ele>2162.4</ele><time>2026-05-03T15:45:38Z</time></trkpt><trkpt lat="36.01792578295505" lon="-107.08154414420018"><ele>2163.2</ele><time>2026-05-03T15:45:40Z</time></trkpt><trkpt lat="36.017886582806646" lon="-107.08144925782307"><ele>2164.0</ele><time>2026-05-03T15:45:41Z</time></trkpt><trkpt lat="36.01786950841687" lon="-107.08134274761805"><ele>2164.25</ele><time>2026-05-03T15:45:42Z</time></trkpt><trkpt lat="36.01788646316885" lon="-107.081221759563"><ele>2164.5</ele><time>2026-05-03T15:45:43Z</time></trkpt><trkpt lat="36.01793862061007" lon="-107.08108100643216"><ele>2164.75</ele><time>2026-05-03T15:45:44Z</time></trkpt><trkpt lat="36.01800037218724" lon="-107.0809137310901"><ele>2165.0</ele><time>2026-05-03T15:45:45Z</time></trkpt><trkpt lat="36.01805347662649" lon="-107.08071989344248"><ele>2166.25</ele><time>2026-05-03T15:45:46Z</time></trkpt><trkpt lat="36.018088574815856" lon="-107.08052070820303"><ele>2167.5</ele><time>2026-05-03T15:45:47Z</time></trkpt><trkpt lat="36.01811558027895" lon="-107.08035030902693"><ele>2168.75</ele><time>2026-05-03T15:45:48Z</time></trkpt><trkpt lat="36.01815431696779" lon="-107.0801900445227"><ele>2170.0</ele><time>2026-05-03T15:45:49Z</time></trkpt><trkpt lat="36.01818644900481" lon="-107.08005791999402"><ele>2170.2</ele><time>2026-05-03T15:45:50Z</time></trkpt><trkpt lat="36.018217142166186" lon="-107.07991479081726"><ele>2170.4</ele><time>2026-05-03T15:45:51Z</time></trkpt><trkpt lat="36.018235542752414" lon="-107.07979028687535"><ele>2170.6</ele><time>2026-05-03T15:45:52Z</time></trkpt><trkpt lat="36.018202719361334" lon="-107.07972202964251"><ele>2170.8</ele><time>2026-05-03T15:45:54Z</time></trkpt><trkpt lat="36.01810345933799" lon="-107.07966553201378"><ele>2171.0</ele><time>2026-05-03T15:45:56Z</time></trkpt><trkpt lat="36.01800610871828" lon="-107.07961850959862"><ele>2171.0</ele><time>2026-05-03T15:45:57Z</time></trkpt><trkpt lat="36.01788930456917" lon="-107.07957725256303"><ele>2171.0</ele><time>2026-05-03T15:45:58Z</time></trkpt><trkpt lat="36.01777231516915" lon="-107.07953646744821"><ele>2171.0</ele><time>2026-05-03T15:45:59Z</time></trkpt><trkpt lat="36.01766292033453" lon="-107.07948613585326"><ele>2171.0</ele><time>2026-05-03T15:46:00Z</time></trkpt><trkpt lat="36.01757430895534" lon="-107.07944407601416"><ele>2171.0</ele><time>2026-05-03T15:46:01Z</time></trkpt><trkpt lat="36.01749014301897" lon="-107.07941119485555"><ele>2171.0</ele><time>2026-05-03T15:46:02Z</time></trkpt><trkpt lat="36.01739458696306" lon="-107.07939390375869"><ele>2171.0</ele><time>2026-05-03T15:46:03Z</time></trkpt><trkpt lat="36.01732086515386" lon="-107.0793845413456"><ele>2171.0</ele><time>2026-05-03T15:46:04Z</time></trkpt><trkpt lat="36.01725458518961" lon="-107.07936479275165"><ele>2171.0</ele><time>2026-05-03T15:46:05Z</time></trkpt><trkpt lat="36.01719745300172" lon="-107.079305241056"><ele>2171.0</ele><time>2026-05-03T15:46:06Z</time></trkpt><trkpt lat="36.01715491215408" lon="-107.07921467239073"><ele>2172.6</ele><time>2026-05-03T15:46:07Z</time></trkpt><trkpt lat="36.01711241964466" lon="-107.07912970148732"><ele>2174.2</ele><time>2026-05-03T15:46:08Z</time></trkpt><trkpt lat="36.017025884178786" lon="-107.07907416664608"><ele>2175.8</ele><time>2026-05-03T15:46:09Z</time></trkpt><trkpt lat="36.016931683599076" lon="-107.07905094848864"><ele>2177.4</ele><time>2026-05-03T15:46:10Z</time></trkpt><trkpt lat="36.01683541245496" lon="-107.07917225533396"><ele>2179.0</ele><time>2026-05-03T15:46:12Z</time></trkpt><trkpt lat="36.016797588722945" lon="-107.07928001976896"><ele>2179.0</ele><time>2026-05-03T15:46:13Z</time></trkpt><trkpt lat="36.01673625335686" lon="-107.07937805567636"><ele>2179.0</ele><time>2026-05-03T15:46:14Z</time></trkpt><trkpt lat="36.01667051705071" lon="-107.07941742159913"><ele>2179.0</ele><time>2026-05-03T15:46:15Z</time></trkpt><trkpt lat="36.01655940876183" lon="-107.07942229038332"><ele>2179.0</ele><time>2026-05-03T15:46:16Z</time></trkpt><trkpt lat="36.01642090705147" lon="-107.07943335226298"><ele>2179.0</ele><time>2026-05-03T15:46:17Z</time></trkpt><trkpt lat="36.01628050038107" lon="-107.07945185140332"><ele>2180.0</ele><time>2026-05-03T15:46:18Z</time></trkpt><trkpt lat="36.016164540313376" lon="-107.07948980654614"><ele>2181.0</ele><time>2026-05-03T15:46:19Z</time></trkpt><trkpt lat="36.01607953754606" lon="-107.07952266610417"><ele>2182.0</ele><time>2026-05-03T15:46:20Z</time></trkpt><trkpt lat="36.01599828301652" lon="-107.07954982360569"><ele>2183.0</ele><time>2026-05-03T15:46:21Z</time></trkpt><trkpt lat="36.01591579911338" lon="-107.07960131578083"><ele>2184.0</ele><time>2026-05-03T15:46:22Z</time></trkpt><trkpt lat="36.01582045878099" lon="-107.07964483913942"><ele>2183.4</ele><time>2026-05-03T15:46:23Z</time></trkpt><trkpt lat="36.015699122962126" lon="-107.07964530276682"><ele>2182.8</ele><time>2026-05-03T15:46:24Z</time></trkpt><trkpt lat="36.015581689315454" lon="-107.07961911478839"><ele>2182.2</ele><time>2026-05-03T15:46:25Z</time></trkpt><trkpt lat="36.0155083887596" lon="-107.0795833162013"><ele>2181.6</ele><time>2026-05-03T15:46:26Z</time></trkpt><trkpt lat="36.01544642241088" lon="-107.07952562118477"><ele>2181.0</ele><time>2026-05-03T15:46:27Z</time></trkpt><trkpt lat="36.01540287473258" lon="-107.07941601425973"><ele>2181.0</ele><time>2026-05-03T15:46:28Z</time></trkpt><trkpt lat="36.01537770978742" lon="-107.0792515377683"><ele>2181.0</ele><time>2026-05-03T15:46:29Z</time></trkpt><trkpt lat="36.015355838860756" lon="-107.07910478490506"><ele>2181.0</ele><time>2026-05-03T15:46:30Z</time></trkpt><trkpt lat="36.015290496405946" lon="-107.07901192071346"><ele>2181.0</ele><time>2026-05-03T15:46:31Z</time></trkpt><trkpt lat="36.01526197855184" lon="-107.07892634347104"><ele>2181.0</ele><time>2026-05-03T15:46:32Z</time></trkpt><trkpt lat="36.015278631204225" lon="-107.07883552058688"><ele>2182.4</ele><time>2026-05-03T15:46:33Z</time></trkpt><trkpt lat="36.015319076704635" lon="-107.07873593445075"><ele>2183.8</ele><time>2026-05-03T15:46:34Z</time></trkpt><trkpt lat="36.01534529767969" lon="-107.07861596100892"><ele>2185.2000000000003</ele><time>2026-05-03T15:46:35.001Z</time></trkpt><trkpt lat="36.01534183486615" lon="-107.07850426912579"><ele>2186.6</ele><time>2026-05-03T15:46:36.001Z</time></trkpt><trkpt lat="36.01541291577696" lon="-107.07837815144455"><ele>2188.0</ele><time>2026-05-03T15:46:38.001Z</time></trkpt><trkpt lat="36.015479952354326" lon="-107.07830163978015"><ele>2189.0</ele><time>2026-05-03T15:46:39.001Z</time></trkpt><trkpt lat="36.01550565419423" lon="-107.07820193579357"><ele>2190.0</ele><time>2026-05-03T15:46:40.001Z</time></trkpt><trkpt lat="36.015492565420075" lon="-107.07807528908431"><ele>2191.0</ele><time>2026-05-03T15:46:41.001Z</time></trkpt><trkpt lat="36.01546490246205" lon="-107.07795843537306"><ele>2192.0</ele><time>2026-05-03T15:46:42.001Z</time></trkpt><trkpt lat="36.01542799418218" lon="-107.07785788091526"><ele>2193.0</ele><time>2026-05-03T15:46:43.001Z</time></trkpt><trkpt lat="36.01540072752201" lon="-107.07778096683616"><ele>2194.0</ele><time>2026-05-03T15:46:44.001Z</time></trkpt><trkpt lat="36.015489346525044" lon="-107.07762052749425"><ele>2194.0</ele><time>2026-05-03T15:46:46.001Z</time></trkpt><trkpt lat="36.0155746113046" lon="-107.07753363406535"><ele>2194.0</ele><time>2026-05-03T15:46:47.001Z</time></trkpt><trkpt lat="36.015637033246" lon="-107.07751639794982"><ele>2194.0</ele><time>2026-05-03T15:46:48.001Z</time></trkpt><trkpt lat="36.01571687513742" lon="-107.07753546934393"><ele>2194.0</ele><time>2026-05-03T15:46:49.001Z</time></trkpt><trkpt lat="36.01578295398079" lon="-107.07757227856524"><ele>2194.0</ele><time>2026-05-03T15:46:50.001Z</time></trkpt><trkpt lat="36.01587680875929" lon="-107.07747762046705"><ele>2194.0</ele><time>2026-05-03T15:46:52.001Z</time></trkpt><trkpt lat="36.01595590526354" lon="-107.07736282030524"><ele>2195.0</ele><time>2026-05-03T15:46:53.001Z</time></trkpt><trkpt lat="36.01604323847578" lon="-107.07724056647947"><ele>2196.0</ele><time>2026-05-03T15:46:54.001Z</time></trkpt><trkpt lat="36.01608747330176" lon="-107.07713405720574"><ele>2197.0</ele><time>2026-05-03T15:46:55.001Z</time></trkpt><trkpt lat="36.01611981946541" lon="-107.07701754125848"><ele>2198.0</ele><time>2026-05-03T15:46:56.001Z</time></trkpt><trkpt lat="36.01614744645565" lon="-107.07691769329702"><ele>2199.0</ele><time>2026-05-03T15:46:57.001Z</time></trkpt><trkpt lat="36.016187196014954" lon="-107.07685182930409"><ele>2199.0</ele><time>2026-05-03T15:46:58.001Z</time></trkpt><trkpt lat="36.01614186191546" lon="-107.07677939016753"><ele>2199.0</ele><time>2026-05-03T15:47:00.001Z</time></trkpt><trkpt lat="36.01605322453184" lon="-107.07673446784143"><ele>2199.0</ele><time>2026-05-03T15:47:01.001Z</time></trkpt><trkpt lat="36.01595190226615" lon="-107.07666443179171"><ele>2199.0</ele><time>2026-05-03T15:47:02.001Z</time></trkpt><trkpt lat="36.015857356871884" lon="-107.07658205096125"><ele>2199.0</ele><time>2026-05-03T15:47:03.001Z</time></trkpt><trkpt lat="36.01573244860191" lon="-107.07648587582389"><ele>2199.0</ele><time>2026-05-03T15:47:04.001Z</time></trkpt><trkpt lat="36.01561290179378" lon="-107.07642895729695"><ele>2199.0</ele><time>2026-05-03T15:47:05.001Z</time></trkpt><trkpt lat="36.015495088361114" lon="-107.07638990533096"><ele>2199.0</ele><time>2026-05-03T15:47:06.001Z</time></trkpt><trkpt lat="36.015390579837714" lon="-107.07634148673958"><ele>2199.0</ele><time>2026-05-03T15:47:07.001Z</time></trkpt><trkpt lat="36.01526992439906" lon="-107.07630330727302"><ele>2199.0</ele><time>2026-05-03T15:47:08.001Z</time></trkpt><trkpt lat="36.01511466936899" lon="-107.07626540614767"><ele>2199.0</ele><time>2026-05-03T15:47:09.001Z</time></trkpt><trkpt lat="36.01498646506103" lon="-107.07622652791314"><ele>2199.0</ele><time>2026-05-03T15:47:10.001Z</time></trkpt><trkpt lat="36.01489234343048" lon="-107.07620696524553"><ele>2199.0</ele><time>2026-05-03T15:47:11.001Z</time></trkpt><trkpt lat="36.014829935740444" lon="-107.07617771302618"><ele>2199.0</ele><time>2026-05-03T15:47:12.001Z</time></trkpt><trkpt lat="36.01477377082257" lon="-107.0761070402901"><ele>2199.0</ele><time>2026-05-03T15:47:13Z</time></trkpt><trkpt lat="36.014720216965245" lon="-107.07598246769749"><ele>2199.0</ele><time>2026-05-03T15:47:14Z</time></trkpt><trkpt lat="36.01466188035797" lon="-107.07585150001209"><ele>2199.0</ele><time>2026-05-03T15:47:15Z</time></trkpt><trkpt lat="36.01463057955086" lon="-107.07577404469932"><ele>2199.0</ele><time>2026-05-03T15:47:16Z</time></trkpt><trkpt lat="36.014730196127054" lon="-107.07563992800699"><ele>2198.3333333333335</ele><time>2026-05-03T15:47:18Z</time></trkpt><trkpt lat="36.01483097184602" lon="-107.07552067770446"><ele>2197.666666666667</ele><time>2026-05-03T15:47:19Z</time></trkpt><trkpt lat="36.01493447853561" lon="-107.07536662795661"><ele>2197.0</ele><time>2026-05-03T15:47:20Z</time></trkpt><trkpt lat="36.01503962526878" lon="-107.0752040635091"><ele>2196.75</ele><time>2026-05-03T15:47:21Z</time></trkpt><trkpt lat="36.01513189313209" lon="-107.07506289532674"><ele>2196.5</ele><time>2026-05-03T15:47:22Z</time></trkpt><trkpt lat="36.01520411247411" lon="-107.07495130709874"><ele>2196.25</ele><time>2026-05-03T15:47:23Z</time></trkpt><trkpt lat="36.015276432148774" lon="-107.0748380771494"><ele>2196.0</ele><time>2026-05-03T15:47:24Z</time></trkpt><trkpt lat="36.01536581696629" lon="-107.07471762142765"><ele>2195.5</ele><time>2026-05-03T15:47:25Z</time></trkpt><trkpt lat="36.015448246143436" lon="-107.07460811425385"><ele>2195.0</ele><time>2026-05-03T15:47:26Z</time></trkpt><trkpt lat="36.0155370553894" lon="-107.07450791420531"><ele>2194.5</ele><time>2026-05-03T15:47:27Z</time></trkpt><trkpt lat="36.01562577762704" lon="-107.07437971296628"><ele>2194.0</ele><time>2026-05-03T15:47:28Z</time></trkpt><trkpt lat="36.015732861859426" lon="-107.07422823807313"><ele>2194.0</ele><time>2026-05-03T15:47:29Z</time></trkpt><trkpt lat="36.01583093529124" lon="-107.07407065262264"><ele>2194.0</ele><time>2026-05-03T15:47:30Z</time></trkpt><trkpt lat="36.01594296998615" lon="-107.07390191925064"><ele>2194.0</ele><time>2026-05-03T15:47:31Z</time></trkpt><trkpt lat="36.01604722752828" lon="-107.07374870519358"><ele>2194.0</ele><time>2026-05-03T15:47:32Z</time></trkpt><trkpt lat="36.01614996366328" lon="-107.07361475688224"><ele>2194.0</ele><time>2026-05-03T15:47:33Z</time></trkpt><trkpt lat="36.01623361939383" lon="-107.07350087112185"><ele>2194.0</ele><time>2026-05-03T15:47:34Z</time></trkpt><trkpt lat="36.016310337709726" lon="-107.07337838853647"><ele>2194.0</ele><time>2026-05-03T15:47:35Z</time></trkpt><trkpt lat="36.016402902546695" lon="-107.07321780858751"><ele>2195.0</ele><time>2026-05-03T15:47:36Z</time></trkpt><trkpt lat="36.01651446306853" lon="-107.07304884562329"><ele>2196.0</ele><time>2026-05-03T15:47:37Z</time></trkpt><trkpt lat="36.01661519793884" lon="-107.07289712293927"><ele>2197.0</ele><time>2026-05-03T15:47:38Z</time></trkpt><trkpt lat="36.01669588734979" lon="-107.0727689049036"><ele>2195.75</ele><time>2026-05-03T15:47:39Z</time></trkpt><trkpt lat="36.016771930115794" lon="-107.07265151616863"><ele>2194.5</ele><time>2026-05-03T15:47:40Z</time></trkpt><trkpt lat="36.016868798299726" lon="-107.07251478855252"><ele>2193.25</ele><time>2026-05-03T15:47:41Z</time></trkpt><trkpt lat="36.01697118080274" lon="-107.07236769181182"><ele>2192.0</ele><time>2026-05-03T15:47:42Z</time></trkpt><trkpt lat="36.01704861693587" lon="-107.07225638621632"><ele>2192.0</ele><time>2026-05-03T15:47:43Z</time></trkpt><trkpt lat="36.0171319457749" lon="-107.07215943253053"><ele>2192.0</ele><time>2026-05-03T15:47:44Z</time></trkpt><trkpt lat="36.017209797683016" lon="-107.0720362924462"><ele>2192.0</ele><time>2026-05-03T15:47:45Z</time></trkpt><trkpt lat="36.017281593899426" lon="-107.07191696639929"><ele>2192.0</ele><time>2026-05-03T15:47:46Z</time></trkpt><trkpt lat="36.01735206284972" lon="-107.0718096393356"><ele>2192.0</ele><time>2026-05-03T15:47:47Z</time></trkpt><trkpt lat="36.01746821269445" lon="-107.07164780040247"><ele>2192.0</ele><time>2026-05-03T15:47:48Z</time></trkpt><trkpt lat="36.01756441100071" lon="-107.0714878162262"><ele>2192.0</ele><time>2026-05-03T15:47:49Z</time></trkpt><trkpt lat="36.01762954098711" lon="-107.07138543993906"><ele>2192.0</ele><time>2026-05-03T15:47:50Z</time></trkpt><trkpt lat="36.01769547452372" lon="-107.07128048292768"><ele>2190.6</ele><time>2026-05-03T15:47:51Z</time></trkpt><trkpt lat="36.01775597249946" lon="-107.07119470906623"><ele>2189.2</ele><time>2026-05-03T15:47:52Z</time></trkpt><trkpt lat="36.01780549466139" lon="-107.07112376258802"><ele>2187.8</ele><time>2026-05-03T15:47:53Z</time></trkpt><trkpt lat="36.01786345759642" lon="-107.0710584227589"><ele>2186.4</ele><time>2026-05-03T15:47:54Z</time></trkpt><trkpt lat="36.0179261430577" lon="-107.07095446218823"><ele>2185.0</ele><time>2026-05-03T15:47:55Z</time></trkpt><trkpt lat="36.01800118201008" lon="-107.07081731377771"><ele>2184.25</ele><time>2026-05-03T15:47:56Z</time></trkpt><trkpt lat="36.018082408298284" lon="-107.07069018927348"><ele>2183.5</ele><time>2026-05-03T15:47:57Z</time></trkpt><trkpt lat="36.01816105978658" lon="-107.07058689037352"><ele>2182.75</ele><time>2026-05-03T15:47:58Z</time></trkpt><trkpt lat="36.01822484608066" lon="-107.07048953642862"><ele>2182.0</ele><time>2026-05-03T15:47:59Z</time></trkpt><trkpt lat="36.018299926486094" lon="-107.07036786888465"><ele>2181.75</ele><time>2026-05-03T15:48:00Z</time></trkpt><trkpt lat="36.0183958366954" lon="-107.07021829398282"><ele>2181.5</ele><time>2026-05-03T15:48:01Z</time></trkpt><trkpt lat="36.01847231143977" lon="-107.0700842147297"><ele>2181.25</ele><time>2026-05-03T15:48:02Z</time></trkpt><trkpt lat="36.018532076154294" lon="-107.07000005772667"><ele>2181.0</ele><time>2026-05-03T15:48:03Z</time></trkpt><trkpt lat="36.018605818893064" lon="-107.06990909994659"><ele>2180.2</ele><time>2026-05-03T15:48:04Z</time></trkpt><trkpt lat="36.018682357168544" lon="-107.0698003919314"><ele>2179.3999999999996</ele><time>2026-05-03T15:48:05Z</time></trkpt><trkpt lat="36.0187601607679" lon="-107.06970319207326"><ele>2178.6</ele><time>2026-05-03T15:48:06Z</time></trkpt><trkpt lat="36.01883418817984" lon="-107.06960149654105"><ele>2177.7999999999997</ele><time>2026-05-03T15:48:07Z</time></trkpt><trkpt lat="36.018896927932865" lon="-107.06950765453095"><ele>2177.0</ele><time>2026-05-03T15:48:08Z</time></trkpt><trkpt lat="36.01896286696208" lon="-107.06943800785113"><ele>2177.0</ele><time>2026-05-03T15:48:09Z</time></trkpt><trkpt lat="36.01904384486561" lon="-107.06935493887313"><ele>2177.0</ele><time>2026-05-03T15:48:11Z</time></trkpt><trkpt lat="36.019207279618506" lon="-107.06937350002474"><ele>2177.0</ele><time>2026-05-03T15:48:13Z</time></trkpt><trkpt lat="36.019337544757704" lon="-107.06941145896424"><ele>2177.0</ele><time>2026-05-03T15:48:14Z</time></trkpt><trkpt lat="36.01948171746338" lon="-107.06945094581303"><ele>2176.5</ele><time>2026-05-03T15:48:15Z</time></trkpt><trkpt lat="36.01958943623724" lon="-107.06948402755398"><ele>2176.0</ele><time>2026-05-03T15:48:16Z</time></trkpt><trkpt lat="36.01969551900417" lon="-107.06953171331054"><ele>2175.5</ele><time>2026-05-03T15:48:17Z</time></trkpt><trkpt lat="36.0198226335729" lon="-107.0695973888677"><ele>2175.0</ele><time>2026-05-03T15:48:18Z</time></trkpt><trkpt lat="36.01994079104603" lon="-107.06966764184867"><ele>2174.4</ele><time>2026-05-03T15:48:19Z</time></trkpt><trkpt lat="36.02003154292353" lon="-107.06972030459144"><ele>2173.8</ele><time>2026-05-03T15:48:20Z</time></trkpt><trkpt lat="36.02010533999639" lon="-107.069768656497"><ele>2173.2</ele><time>2026-05-03T15:48:21Z</time></trkpt><trkpt lat="36.02016273147556" lon="-107.06986899244552"><ele>2172.6</ele><time>2026-05-03T15:48:23Z</time></trkpt><trkpt lat="36.02014495212908" lon="-107.06998696613"><ele>2172.0</ele><time>2026-05-03T15:48:24Z</time></trkpt><trkpt lat="36.0201093523675" lon="-107.07012850975494"><ele>2171.7999999999997</ele><time>2026-05-03T15:48:25Z</time></trkpt><trkpt lat="36.0200925427625" lon="-107.07029854001607"><ele>2171.6</ele><time>2026-05-03T15:48:26Z</time></trkpt><trkpt lat="36.020080535992484" lon="-107.07044979776015"><ele>2171.3999999999996</ele><time>2026-05-03T15:48:27Z</time></trkpt><trkpt lat="36.02005342773116" lon="-107.07056157340614"><ele>2171.2</ele><time>2026-05-03T15:48:28Z</time></trkpt><trkpt lat="36.02002321288877" lon="-107.0706419711799"><ele>2171.0</ele><time>2026-05-03T15:48:29Z</time></trkpt><trkpt lat="36.01991778998894" lon="-107.07074318817104"><ele>2171.6</ele><time>2026-05-03T15:48:31Z</time></trkpt><trkpt lat="36.01982661404984" lon="-107.07081644759162"><ele>2172.2</ele><time>2026-05-03T15:48:32Z</time></trkpt><trkpt lat="36.01976368994983" lon="-107.07089346324176"><ele>2172.8</ele><time>2026-05-03T15:48:33Z</time></trkpt><trkpt lat="36.019724003806004" lon="-107.07100638375216"><ele>2173.4</ele><time>2026-05-03T15:48:34Z</time></trkpt><trkpt lat="36.019696494354875" lon="-107.0711180090042"><ele>2174.0</ele><time>2026-05-03T15:48:35Z</time></trkpt><trkpt lat="36.01961090866791" lon="-107.07129273409973"><ele>2174.0</ele><time>2026-05-03T15:48:37Z</time></trkpt><trkpt lat="36.01954129889613" lon="-107.07139918919512"><ele>2174.0</ele><time>2026-05-03T15:48:38Z</time></trkpt><trkpt lat="36.019498985063116" lon="-107.0714889186522"><ele>2174.0</ele><time>2026-05-03T15:48:39Z</time></trkpt><trkpt lat="36.01953701499571" lon="-107.07166388197624"><ele>2174.0</ele><time>2026-05-03T15:48:41Z</time></trkpt><trkpt lat="36.019605476461976" lon="-107.0717912915075"><ele>2173.8</ele><time>2026-05-03T15:48:42.001Z</time></trkpt><trkpt lat="36.019669315084776" lon="-107.07189845709159"><ele>2173.6000000000004</ele><time>2026-05-03T15:48:43.001Z</time></trkpt><trkpt lat="36.01970233877824" lon="-107.07196949239335"><ele>2173.4</ele><time>2026-05-03T15:48:44.001Z</time></trkpt><trkpt lat="36.019681758819274" lon="-107.07204383597404"><ele>2173.2000000000003</ele><time>2026-05-03T15:48:45.001Z</time></trkpt><trkpt lat="36.01963234035906" lon="-107.07215237395042"><ele>2173.0</ele><time>2026-05-03T15:48:46.001Z</time></trkpt><trkpt lat="36.01956903087804" lon="-107.07229632544725"><ele>2173.0</ele><time>2026-05-03T15:48:47.001Z</time></trkpt><trkpt lat="36.01950809399207" lon="-107.07241070205265"><ele>2173.0</ele><time>2026-05-03T15:48:48.001Z</time></trkpt><trkpt lat="36.019447832702554" lon="-107.07249395410777"><ele>2173.0</ele><time>2026-05-03T15:48:49.001Z</time></trkpt><trkpt lat="36.019338146414135" lon="-107.07263422388822"><ele>2173.0</ele><time>2026-05-03T15:48:50.001Z</time></trkpt><trkpt lat="36.01929066073173" lon="-107.07275399847903"><ele>2172.25</ele><time>2026-05-03T15:48:51.001Z</time></trkpt><trkpt lat="36.019250714145606" lon="-107.072912072385"><ele>2171.5</ele><time>2026-05-03T15:48:52.001Z</time></trkpt><trkpt lat="36.01920824723663" lon="-107.07306391308077"><ele>2170.75</ele><time>2026-05-03T15:48:53.001Z</time></trkpt><trkpt lat="36.019160726510655" lon="-107.07320687330254"><ele>2170.0</ele><time>2026-05-03T15:48:54.001Z</time></trkpt><trkpt lat="36.01912903835947" lon="-107.07336079903993"><ele>2172.6</ele><time>2026-05-03T15:48:55.001Z</time></trkpt><trkpt lat="36.01909845342143" lon="-107.07350090282036"><ele>2175.2</ele><time>2026-05-03T15:48:56.001Z</time></trkpt><trkpt lat="36.01908677128663" lon="-107.0736014625697"><ele>2177.8</ele><time>2026-05-03T15:48:57.001Z</time></trkpt><trkpt lat="36.0190616493764" lon="-107.0737110828949"><ele>2180.4</ele><time>2026-05-03T15:48:58.001Z</time></trkpt><trkpt lat="36.01901367062359" lon="-107.07382953376235"><ele>2183.0</ele><time>2026-05-03T15:48:59.001Z</time></trkpt><trkpt lat="36.0189500714143" lon="-107.07391612893242"><ele>2183.0</ele><time>2026-05-03T15:49:00.001Z</time></trkpt><trkpt lat="36.018911972288564" lon="-107.07399472500155"><ele>2183.0</ele><time>2026-05-03T15:49:01.001Z</time></trkpt><trkpt lat="36.018942442066304" lon="-107.07417406285553"><ele>2183.0</ele><time>2026-05-03T15:49:03.001Z</time></trkpt><trkpt lat="36.01896144536658" lon="-107.07432360208419"><ele>2183.0</ele><time>2026-05-03T15:49:04.001Z</time></trkpt><trkpt lat="36.01896058031318" lon="-107.07450056568148"><ele>2181.4</ele><time>2026-05-03T15:49:05.001Z</time></trkpt><trkpt lat="36.01896444360209" lon="-107.07461111130826"><ele>2179.8</ele><time>2026-05-03T15:49:06.001Z</time></trkpt><trkpt lat="36.01899682714241" lon="-107.07467790252801"><ele>2178.2</ele><time>2026-05-03T15:49:07.001Z</time></trkpt><trkpt lat="36.01906150021933" lon="-107.074749054664"><ele>2176.6</ele><time>2026-05-03T15:49:08.001Z</time></trkpt><trkpt lat="36.0191553890085" lon="-107.07482341398782"><ele>2175.0</ele><time>2026-05-03T15:49:09.001Z</time></trkpt><trkpt lat="36.01924740680724" lon="-107.07488733839696"><ele>2171.4</ele><time>2026-05-03T15:49:10.001Z</time></trkpt><trkpt lat="36.0193192382226" lon="-107.07497318409688"><ele>2167.8</ele><time>2026-05-03T15:49:11.001Z</time></trkpt><trkpt lat="36.01938545236967" lon="-107.07505081441381"><ele>2164.2</ele><time>2026-05-03T15:49:12.001Z</time></trkpt><trkpt lat="36.01947371655158" lon="-107.07510546841273"><ele>2160.6</ele><time>2026-05-03T15:49:13.001Z</time></trkpt><trkpt lat="36.0195860572255" lon="-107.07517567588627"><ele>2157.0</ele><time>2026-05-03T15:49:14.001Z</time></trkpt><trkpt lat="36.01970051965617" lon="-107.07528203154718"><ele>2157.0</ele><time>2026-05-03T15:49:15.001Z</time></trkpt><trkpt lat="36.019800008157155" lon="-107.07539104960526"><ele>2157.0</ele><time>2026-05-03T15:49:16.001Z</time></trkpt><trkpt lat="36.01988826331124" lon="-107.075481025258"><ele>2157.0</ele><time>2026-05-03T15:49:17.001Z</time></trkpt><trkpt lat="36.01996714445469" lon="-107.07553746245888"><ele>2157.0</ele><time>2026-05-03T15:49:18.001Z</time></trkpt><trkpt lat="36.02005804629597" lon="-107.07556148331412"><ele>2157.0</ele><time>2026-05-03T15:49:19Z</time></trkpt><trkpt lat="36.02019232868538" lon="-107.0755827406478"><ele>2154.6666666666665</ele><time>2026-05-03T15:49:20Z</time></trkpt><trkpt lat="36.02034476421737" lon="-107.07560179038867"><ele>2152.333333333333</ele><time>2026-05-03T15:49:21Z</time></trkpt><trkpt lat="36.02050048615088" lon="-107.0756260879262"><ele>2150.0</ele><time>2026-05-03T15:49:22Z</time></trkpt><trkpt lat="36.02065551437025" lon="-107.07565285742915"><ele>2150.0</ele><time>2026-05-03T15:49:23Z</time></trkpt><trkpt lat="36.02082087871227" lon="-107.07570002492598"><ele>2150.0</ele><time>2026-05-03T15:49:24Z</time></trkpt><trkpt lat="36.02100052242773" lon="-107.07574417436594"><ele>2150.0</ele><time>2026-05-03T15:49:25Z</time></trkpt><trkpt lat="36.02116400228537" lon="-107.07578009367775"><ele>2150.6666666666665</ele><time>2026-05-03T15:49:26Z</time></trkpt><trkpt lat="36.02133436071919" lon="-107.07582289356411"><ele>2151.3333333333335</ele><time>2026-05-03T15:49:27Z</time></trkpt><trkpt lat="36.02148636557403" lon="-107.07586582104533"><ele>2152.0</ele><time>2026-05-03T15:49:28Z</time></trkpt><trkpt lat="36.02161078743559" lon="-107.07590887632043"><ele>2153.2</ele><time>2026-05-03T15:49:29Z</time></trkpt><trkpt lat="36.02171698287033" lon="-107.07594086909938"><ele>2154.3999999999996</ele><time>2026-05-03T15:49:30Z</time></trkpt><trkpt lat="36.021801169249464" lon="-107.0759683629392"><ele>2155.6000000000004</ele><time>2026-05-03T15:49:31Z</time></trkpt><trkpt lat="36.021870906103445" lon="-107.07598312214239"><ele>2156.8</ele><time>2026-05-03T15:49:32Z</time></trkpt><trkpt lat="36.02197008768527" lon="-107.0759354090464"><ele>2158.0</ele><time>2026-05-03T15:49:34Z</time></trkpt><trkpt lat="36.02199197588548" lon="-107.07583318468589"><ele>2158.0</ele><time>2026-05-03T15:49:35Z</time></trkpt><trkpt lat="36.022016580643495" lon="-107.07571578657364"><ele>2158.0</ele><time>2026-05-03T15:49:36Z</time></trkpt><trkpt lat="36.022051332333376" lon="-107.07559389741807"><ele>2158.0</ele><time>2026-05-03T15:49:37Z</time></trkpt><trkpt lat="36.022089179499716" lon="-107.07546071644374"><ele>2158.0</ele><time>2026-05-03T15:49:38Z</time></trkpt><trkpt lat="36.022106276085985" lon="-107.07534485898157"><ele>2158.0</ele><time>2026-05-03T15:49:39Z</time></trkpt><trkpt lat="36.02211840276165" lon="-107.07525711677606"><ele>2158.0</ele><time>2026-05-03T15:49:40Z</time></trkpt><trkpt lat="36.02213420663455" lon="-107.07509910138936"><ele>2158.0</ele><time>2026-05-03T15:49:42Z</time></trkpt><trkpt lat="36.022124487818" lon="-107.07497853107064"><ele>2158.0</ele><time>2026-05-03T15:49:43Z</time></trkpt><trkpt lat="36.02211509017198" lon="-107.07482281931647"><ele>2158.0</ele><time>2026-05-03T15:49:44Z</time></trkpt><trkpt lat="36.02211199641683" lon="-107.07468321168948"><ele>2158.2000000000003</ele><time>2026-05-03T15:49:45Z</time></trkpt><trkpt lat="36.02209432757374" lon="-107.07455878027737"><ele>2158.4</ele><time>2026-05-03T15:49:46Z</time></trkpt><trkpt lat="36.02206556341451" lon="-107.07442683795381"><ele>2158.6000000000004</ele><time>2026-05-03T15:49:47Z</time></trkpt><trkpt lat="36.02205676631043" lon="-107.07428383945455"><ele>2158.8</ele><time>2026-05-03T15:49:48Z</time></trkpt><trkpt lat="36.02205680759017" lon="-107.07416061655147"><ele>2159.0</ele><time>2026-05-03T15:49:49Z</time></trkpt><trkpt lat="36.02207129560197" lon="-107.07402792519473"><ele>2157.8</ele><time>2026-05-03T15:49:50Z</time></trkpt><trkpt lat="36.0220951469854" lon="-107.07389466314264"><ele>2156.6000000000004</ele><time>2026-05-03T15:49:51Z</time></trkpt><trkpt lat="36.02211224052832" lon="-107.0737986692981"><ele>2155.4</ele><time>2026-05-03T15:49:52Z</time></trkpt><trkpt lat="36.02218144816852" lon="-107.07367731660918"><ele>2154.2000000000003</ele><time>2026-05-03T15:49:54Z</time></trkpt><trkpt lat="36.02227050875587" lon="-107.07358225983661"><ele>2153.0</ele><time>2026-05-03T15:49:55Z</time></trkpt><trkpt lat="36.022404611063976" lon="-107.0734641614201"><ele>2155.2000000000003</ele><time>2026-05-03T15:49:56Z</time></trkpt><trkpt lat="36.02249317191568" lon="-107.07336116797308"><ele>2157.4</ele><time>2026-05-03T15:49:57Z</time></trkpt><trkpt lat="36.022549942995845" lon="-107.07332195464669"><ele>2159.6000000000004</ele><time>2026-05-03T15:49:58Z</time></trkpt><trkpt lat="36.02263078634109" lon="-107.07329025673221"><ele>2161.8</ele><time>2026-05-03T15:49:59Z</time></trkpt><trkpt lat="36.02273191881417" lon="-107.07328115632441"><ele>2164.0</ele><time>2026-05-03T15:50:00Z</time></trkpt><trkpt lat="36.02287192439715" lon="-107.07328832369109"><ele>2164.0</ele><time>2026-05-03T15:50:01Z</time></trkpt><trkpt lat="36.022948050275495" lon="-107.07329407001856"><ele>2164.0</ele><time>2026-05-03T15:50:02Z</time></trkpt><trkpt lat="36.02308582634699" lon="-107.07336256216242"><ele>2164.0</ele><time>2026-05-03T15:50:04Z</time></trkpt><trkpt lat="36.023187991775536" lon="-107.07343828389962"><ele>2164.0</ele><time>2026-05-03T15:50:05Z</time></trkpt><trkpt lat="36.023267966821926" lon="-107.07347341768099"><ele>2164.0</ele><time>2026-05-03T15:50:06Z</time></trkpt><trkpt lat="36.02335100493921" lon="-107.07349553907004"><ele>2163.8333333333335</ele><time>2026-05-03T15:50:07Z</time></trkpt><trkpt lat="36.02344830829364" lon="-107.07352627324866"><ele>2163.666666666667</ele><time>2026-05-03T15:50:08Z</time></trkpt><trkpt lat="36.02353193759697" lon="-107.07352645203385"><ele>2163.5</ele><time>2026-05-03T15:50:09Z</time></trkpt><trkpt lat="36.0235949966846" lon="-107.07350866338255"><ele>2163.3333333333335</ele><time>2026-05-03T15:50:10Z</time></trkpt><trkpt lat="36.02365371313091" lon="-107.07346279002924"><ele>2163.1666666666665</ele><time>2026-05-03T15:50:11Z</time></trkpt><trkpt lat="36.0237406961611" lon="-107.07336152233063"><ele>2163.0</ele><time>2026-05-03T15:50:12Z</time></trkpt><trkpt lat="36.02384056107184" lon="-107.07324389451381"><ele>2161.6</ele><time>2026-05-03T15:50:13Z</time></trkpt><trkpt lat="36.02392478185189" lon="-107.07317457391302"><ele>2160.2000000000003</ele><time>2026-05-03T15:50:14Z</time></trkpt><trkpt lat="36.023998487398124" lon="-107.07310596954468"><ele>2158.8</ele><time>2026-05-03T15:50:15Z</time></trkpt><trkpt lat="36.02404285215821" lon="-107.07301827933583"><ele>2157.4</ele><time>2026-05-03T15:50:16Z</time></trkpt><trkpt lat="36.02406011891558" lon="-107.07291768726348"><ele>2156.0</ele><time>2026-05-03T15:50:17Z</time></trkpt><trkpt lat="36.02408442810908" lon="-107.07279694123662"><ele>2156.0</ele><time>2026-05-03T15:50:18Z</time></trkpt><trkpt lat="36.024106141174386" lon="-107.07269059586888"><ele>2156.0</ele><time>2026-05-03T15:50:19Z</time></trkpt><trkpt lat="36.02413296289399" lon="-107.07259046809486"><ele>2156.0</ele><time>2026-05-03T15:50:20Z</time></trkpt><trkpt lat="36.02417281337152" lon="-107.07246236527482"><ele>2156.0</ele><time>2026-05-03T15:50:22Z</time></trkpt><trkpt lat="36.02420282046137" lon="-107.07238280821936"><ele>2156.0</ele><time>2026-05-03T15:50:23Z</time></trkpt><trkpt lat="36.024248565088406" lon="-107.07226681453439"><ele>2156.5</ele><time>2026-05-03T15:50:24Z</time></trkpt><trkpt lat="36.0242916676784" lon="-107.07209089503804"><ele>2157.0</ele><time>2026-05-03T15:50:25Z</time></trkpt><trkpt lat="36.02433051657887" lon="-107.07191355012122"><ele>2157.5</ele><time>2026-05-03T15:50:26Z</time></trkpt><trkpt lat="36.024388599732724" lon="-107.07178620749193"><ele>2158.0</ele><time>2026-05-03T15:50:27Z</time></trkpt><trkpt lat="36.02445701298149" lon="-107.0716351305836"><ele>2157.25</ele><time>2026-05-03T15:50:28Z</time></trkpt><trkpt lat="36.024507609820006" lon="-107.07148251237223"><ele>2156.5</ele><time>2026-05-03T15:50:29Z</time></trkpt><trkpt lat="36.0245153022341" lon="-107.07137680669716"><ele>2155.75</ele><time>2026-05-03T15:50:30Z</time></trkpt><trkpt lat="36.02463038198083" lon="-107.07123636597156"><ele>2155.0</ele><time>2026-05-03T15:50:32Z</time></trkpt><trkpt lat="36.02473549248343" lon="-107.07114467260763"><ele>2155.0</ele><time>2026-05-03T15:50:33Z</time></trkpt><trkpt lat="36.02481846735319" lon="-107.07098086990254"><ele>2155.0</ele><time>2026-05-03T15:50:34Z</time></trkpt><trkpt lat="36.0248795775003" lon="-107.0708199967085"><ele>2155.0</ele><time>2026-05-03T15:50:35Z</time></trkpt><trkpt lat="36.02494581698924" lon="-107.07063730954188"><ele>2156.0</ele><time>2026-05-03T15:50:36Z</time></trkpt><trkpt lat="36.025006773502724" lon="-107.07047743806467"><ele>2157.0</ele><time>2026-05-03T15:50:37Z</time></trkpt><trkpt lat="36.025063268575565" lon="-107.07035820166207"><ele>2158.0</ele><time>2026-05-03T15:50:38Z</time></trkpt><trkpt lat="36.02512847607356" lon="-107.07023434894295"><ele>2159.0</ele><time>2026-05-03T15:50:39Z</time></trkpt><trkpt lat="36.02520205863696" lon="-107.07009098438915"><ele>2159.0</ele><time>2026-05-03T15:50:40Z</time></trkpt><trkpt lat="36.02525579930136" lon="-107.06996060085672"><ele>2159.0</ele><time>2026-05-03T15:50:41Z</time></trkpt><trkpt lat="36.02530537802666" lon="-107.06984300504776"><ele>2159.0</ele><time>2026-05-03T15:50:42Z</time></trkpt><trkpt lat="36.02536750212799" lon="-107.06972586134881"><ele>2159.0</ele><time>2026-05-03T15:50:43Z</time></trkpt><trkpt lat="36.02543748882052" lon="-107.06962443492492"><ele>2159.0</ele><time>2026-05-03T15:50:44Z</time></trkpt><trkpt lat="36.02554556222078" lon="-107.06953360604348"><ele>2158.6666666666665</ele><time>2026-05-03T15:50:45Z</time></trkpt><trkpt lat="36.02560847321298" lon="-107.0694153350587"><ele>2158.333333333333</ele><time>2026-05-03T15:50:46Z</time></trkpt><trkpt lat="36.02564259655882" lon="-107.06932717498563"><ele>2158.0</ele><time>2026-05-03T15:50:47.001Z</time></trkpt><trkpt lat="36.025685634094614" lon="-107.06925725312492"><ele>2157.6666666666665</ele><time>2026-05-03T15:50:48.001Z</time></trkpt><trkpt lat="36.025738809448804" lon="-107.06918319143524"><ele>2157.3333333333335</ele><time>2026-05-03T15:50:49.001Z</time></trkpt><trkpt lat="36.02580438024187" lon="-107.06912123506656"><ele>2157.0</ele><time>2026-05-03T15:50:50.001Z</time></trkpt><trkpt lat="36.025904411113146" lon="-107.06905221338576"><ele>2157.0</ele><time>2026-05-03T15:50:51.001Z</time></trkpt><trkpt lat="36.02602126626867" lon="-107.068959958529"><ele>2157.0</ele><time>2026-05-03T15:50:52.001Z</time></trkpt><trkpt lat="36.02610802837005" lon="-107.06885858431662"><ele>2157.0</ele><time>2026-05-03T15:50:53.001Z</time></trkpt><trkpt lat="36.02614449053373" lon="-107.06877505705586"><ele>2157.0</ele><time>2026-05-03T15:50:54.001Z</time></trkpt><trkpt lat="36.02617648725665" lon="-107.06867776855266"><ele>2157.0</ele><time>2026-05-03T15:50:55.001Z</time></trkpt><trkpt lat="36.026199292418006" lon="-107.06855644272444"><ele>2157.0</ele><time>2026-05-03T15:50:56.001Z</time></trkpt><trkpt lat="36.02621043018928" lon="-107.06842615870612"><ele>2157.0</ele><time>2026-05-03T15:50:57.001Z</time></trkpt><trkpt lat="36.026204551553484" lon="-107.06830753256848"><ele>2157.0</ele><time>2026-05-03T15:50:58.001Z</time></trkpt><trkpt lat="36.02619041242151" lon="-107.06818039702893"><ele>2157.0</ele><time>2026-05-03T15:50:59.001Z</time></trkpt><trkpt lat="36.02618431898182" lon="-107.06803885151585"><ele>2157.0</ele><time>2026-05-03T15:51:00.001Z</time></trkpt><trkpt lat="36.0261865715562" lon="-107.06794189004859"><ele>2157.6666666666665</ele><time>2026-05-03T15:51:01.001Z</time></trkpt><trkpt lat="36.026163565888716" lon="-107.0678630001871"><ele>2158.3333333333335</ele><time>2026-05-03T15:51:02.001Z</time></trkpt><trkpt lat="36.02610544813455" lon="-107.0677910600871"><ele>2159.0</ele><time>2026-05-03T15:51:03.001Z</time></trkpt><trkpt lat="36.02602799901023" lon="-107.06771280348941"><ele>2159.666666666667</ele><time>2026-05-03T15:51:04.001Z</time></trkpt><trkpt lat="36.025956023898665" lon="-107.067642250741"><ele>2160.3333333333335</ele><time>2026-05-03T15:51:05.001Z</time></trkpt><trkpt lat="36.02589781694207" lon="-107.06756465920536"><ele>2161.0</ele><time>2026-05-03T15:51:06.001Z</time></trkpt><trkpt lat="36.025872374709415" lon="-107.06747655121845"><ele>2160.25</ele><time>2026-05-03T15:51:07.001Z</time></trkpt><trkpt lat="36.02583531458371" lon="-107.06732460509072"><ele>2159.5</ele><time>2026-05-03T15:51:08.001Z</time></trkpt><trkpt lat="36.025776010943964" lon="-107.06713692498961"><ele>2158.75</ele><time>2026-05-03T15:51:09.001Z</time></trkpt><trkpt lat="36.025726110310366" lon="-107.06697820529469"><ele>2158.0</ele><time>2026-05-03T15:51:10.001Z</time></trkpt><trkpt lat="36.025692412401455" lon="-107.06685696777453"><ele>2158.0</ele><time>2026-05-03T15:51:11.001Z</time></trkpt><trkpt lat="36.025670921853354" lon="-107.06675213624514"><ele>2158.0</ele><time>2026-05-03T15:51:12.001Z</time></trkpt><trkpt lat="36.02561986559037" lon="-107.06666719089814"><ele>2158.0</ele><time>2026-05-03T15:51:13.001Z</time></trkpt><trkpt lat="36.025572299224365" lon="-107.06659557727998"><ele>2158.0</ele><time>2026-05-03T15:51:14.001Z</time></trkpt><trkpt lat="36.02555184288753" lon="-107.06648942662208"><ele>2158.0</ele><time>2026-05-03T15:51:15.001Z</time></trkpt><trkpt lat="36.025501085079874" lon="-107.06637576811687"><ele>2158.0</ele><time>2026-05-03T15:51:16.001Z</time></trkpt><trkpt lat="36.02544503659815" lon="-107.06625339135076"><ele>2157.75</ele><time>2026-05-03T15:51:17.001Z</time></trkpt><trkpt lat="36.02543412538799" lon="-107.06611920742294"><ele>2157.5</ele><time>2026-05-03T15:51:18.001Z</time></trkpt><trkpt lat="36.025460435832684" lon="-107.06599267052864"><ele>2157.25</ele><time>2026-05-03T15:51:19.001Z</time></trkpt><trkpt lat="36.02549745489095" lon="-107.06583617684694"><ele>2157.0</ele><time>2026-05-03T15:51:20.001Z</time></trkpt><trkpt lat="36.0255281126339" lon="-107.065676301899"><ele>2155.2</ele><time>2026-05-03T15:51:21.001Z</time></trkpt><trkpt lat="36.025542524954645" lon="-107.0655313457333"><ele>2153.3999999999996</ele><time>2026-05-03T15:51:22.001Z</time></trkpt><trkpt lat="36.025551952306" lon="-107.06539314345447"><ele>2151.6000000000004</ele><time>2026-05-03T15:51:23.001Z</time></trkpt><trkpt lat="36.025562363221134" lon="-107.06525696141055"><ele>2149.8</ele><time>2026-05-03T15:51:24.001Z</time></trkpt><trkpt lat="36.02558373893868" lon="-107.0651403562087"><ele>2148.0</ele><time>2026-05-03T15:51:25Z</time></trkpt><trkpt lat="36.025615711012534" lon="-107.06504133166091"><ele>2149.2000000000003</ele><time>2026-05-03T15:51:26Z</time></trkpt><trkpt lat="36.025667801474526" lon="-107.06490945108888"><ele>2150.4</ele><time>2026-05-03T15:51:27Z</time></trkpt><trkpt lat="36.02571135800063" lon="-107.06478610337048"><ele>2151.6000000000004</ele><time>2026-05-03T15:51:28Z</time></trkpt><trkpt lat="36.0257430058292" lon="-107.06468150918928"><ele>2152.8</ele><time>2026-05-03T15:51:29Z</time></trkpt><trkpt lat="36.02580422051203" lon="-107.06457885871595"><ele>2154.0</ele><time>2026-05-03T15:51:31Z</time></trkpt><trkpt lat="36.02589830289767" lon="-107.06454307452366"><ele>2154.0</ele><time>2026-05-03T15:51:32Z</time></trkpt><trkpt lat="36.026003018120036" lon="-107.06447601540468"><ele>2154.0</ele><time>2026-05-03T15:51:33Z</time></trkpt><trkpt lat="36.0260863254785" lon="-107.06439350441322"><ele>2154.0</ele><time>2026-05-03T15:51:34Z</time></trkpt><trkpt lat="36.026171853365916" lon="-107.06430416446534"><ele>2154.0</ele><time>2026-05-03T15:51:35Z</time></trkpt><trkpt lat="36.02626767464128" lon="-107.06421805869626"><ele>2154.0</ele><time>2026-05-03T15:51:36Z</time></trkpt><trkpt lat="36.026347812061594" lon="-107.06413417619171"><ele>2154.0</ele><time>2026-05-03T15:51:37Z</time></trkpt><trkpt lat="36.02641480748588" lon="-107.06407061629663"><ele>2154.0</ele><time>2026-05-03T15:51:38Z</time></trkpt><trkpt lat="36.02649866090653" lon="-107.064027232495"><ele>2154.0</ele><time>2026-05-03T15:51:39Z</time></trkpt><trkpt lat="36.02660890317804" lon="-107.0640034083717"><ele>2154.0</ele><time>2026-05-03T15:51:40Z</time></trkpt><trkpt lat="36.02672580211474" lon="-107.06400491533596"><ele>2155.3333333333335</ele><time>2026-05-03T15:51:41Z</time></trkpt><trkpt lat="36.02682530271722" lon="-107.0639993902001"><ele>2156.6666666666665</ele><time>2026-05-03T15:51:42Z</time></trkpt><trkpt lat="36.02691263400115" lon="-107.06401055631164"><ele>2158.0</ele><time>2026-05-03T15:51:43Z</time></trkpt><trkpt lat="36.026974720828484" lon="-107.06402420684836"><ele>2159.333333333333</ele><time>2026-05-03T15:51:44Z</time></trkpt><trkpt lat="36.02702828181976" lon="-107.06408188478686"><ele>2160.6666666666665</ele><time>2026-05-03T15:51:45Z</time></trkpt><trkpt lat="36.02710631004724" lon="-107.06415720536694"><ele>2162.0</ele><time>2026-05-03T15:51:46Z</time></trkpt><trkpt lat="36.027192971395294" lon="-107.06418579785006"><ele>2163.2</ele><time>2026-05-03T15:51:47Z</time></trkpt><trkpt lat="36.02727325952244" lon="-107.0641667767187"><ele>2164.3999999999996</ele><time>2026-05-03T15:51:48Z</time></trkpt><trkpt lat="36.0273958447159" lon="-107.06418013870997"><ele>2165.6000000000004</ele><time>2026-05-03T15:51:50Z</time></trkpt><trkpt lat="36.02747053877434" lon="-107.06426476095221"><ele>2166.8</ele><time>2026-05-03T15:51:51Z</time></trkpt><trkpt lat="36.027540482836855" lon="-107.06435401589299"><ele>2168.0</ele><time>2026-05-03T15:51:52Z</time></trkpt><trkpt lat="36.027577102877935" lon="-107.06448166204197"><ele>2168.75</ele><time>2026-05-03T15:51:54Z</time></trkpt><trkpt lat="36.02757816129417" lon="-107.06462873244622"><ele>2169.5</ele><time>2026-05-03T15:51:55Z</time></trkpt><trkpt lat="36.02757946559962" lon="-107.06474729639265"><ele>2170.25</ele><time>2026-05-03T15:51:56Z</time></trkpt><trkpt lat="36.0277249829451" lon="-107.06481212220652"><ele>2171.0</ele><time>2026-05-03T15:51:58Z</time></trkpt><trkpt lat="36.02780915054002" lon="-107.06482336869256"><ele>2171.0</ele><time>2026-05-03T15:51:59Z</time></trkpt><trkpt lat="36.02791606748089" lon="-107.06485273196301"><ele>2171.0</ele><time>2026-05-03T15:52:00Z</time></trkpt><trkpt lat="36.027993955528046" lon="-107.06489003461398"><ele>2171.0</ele><time>2026-05-03T15:52:01Z</time></trkpt><trkpt lat="36.028059287345904" lon="-107.06489904477633"><ele>2171.0</ele><time>2026-05-03T15:52:02Z</time></trkpt><trkpt lat="36.02814024233739" lon="-107.06490111419414"><ele>2171.0</ele><time>2026-05-03T15:52:03Z</time></trkpt><trkpt lat="36.02821816314826" lon="-107.06487982024669"><ele>2171.0</ele><time>2026-05-03T15:52:05Z</time></trkpt><trkpt lat="36.02824692314483" lon="-107.06480430754902"><ele>2171.0</ele><time>2026-05-03T15:52:06Z</time></trkpt><trkpt lat="36.028244911375225" lon="-107.06470261552201"><ele>2171.0</ele><time>2026-05-03T15:52:07Z</time></trkpt><trkpt lat="36.02820933891713" lon="-107.06458103156761"><ele>2171.0</ele><time>2026-05-03T15:52:08Z</time></trkpt><trkpt lat="36.02815931742408" lon="-107.06444997763076"><ele>2171.0</ele><time>2026-05-03T15:52:09Z</time></trkpt><trkpt lat="36.02810283922766" lon="-107.06431433801393"><ele>2171.0</ele><time>2026-05-03T15:52:10Z</time></trkpt><trkpt lat="36.0280505314696" lon="-107.06417923799445"><ele>2169.6</ele><time>2026-05-03T15:52:11Z</time></trkpt><trkpt lat="36.02799587547409" lon="-107.0640860706023"><ele>2168.2</ele><time>2026-05-03T15:52:12Z</time></trkpt><trkpt lat="36.0279558358504" lon="-107.06395649671151"><ele>2166.8</ele><time>2026-05-03T15:52:14Z</time></trkpt><trkpt lat="36.02795536748691" lon="-107.06385727635708"><ele>2165.4</ele><time>2026-05-03T15:52:15Z</time></trkpt><trkpt lat="36.027960943480025" lon="-107.06376448361225"><ele>2164.0</ele><time>2026-05-03T15:52:16Z</time></trkpt><trkpt lat="36.02799393953607" lon="-107.06362207797609"><ele>2164.0</ele><time>2026-05-03T15:52:18Z</time></trkpt><trkpt lat="36.02800701605414" lon="-107.06354335268026"><ele>2164.0</ele><time>2026-05-03T15:52:19Z</time></trkpt><trkpt lat="36.028029538583155" lon="-107.06345149548967"><ele>2164.0</ele><time>2026-05-03T15:52:20Z</time></trkpt><trkpt lat="36.028040953184444" lon="-107.06335793417242"><ele>2164.0</ele><time>2026-05-03T15:52:21Z</time></trkpt><trkpt lat="36.028052198724964" lon="-107.06327058708247"><ele>2164.0</ele><time>2026-05-03T15:52:22Z</time></trkpt><trkpt lat="36.02811595582018" lon="-107.06315264536646"><ele>2164.0</ele><time>2026-05-03T15:52:23Z</time></trkpt><trkpt lat="36.028206030224595" lon="-107.06303575167692"><ele>2163.5</ele><time>2026-05-03T15:52:24Z</time></trkpt><trkpt lat="36.02828967547874" lon="-107.06292683088594"><ele>2163.0</ele><time>2026-05-03T15:52:25Z</time></trkpt><trkpt lat="36.0283840365926" lon="-107.0627865922075"><ele>2162.5</ele><time>2026-05-03T15:52:26Z</time></trkpt><trkpt lat="36.028449235999815" lon="-107.06268270315643"><ele>2162.0</ele><time>2026-05-03T15:52:27Z</time></trkpt><trkpt lat="36.028496157181145" lon="-107.06259417338768"><ele>2162.0</ele><time>2026-05-03T15:52:28Z</time></trkpt><trkpt lat="36.028533033958446" lon="-107.06251942984183"><ele>2162.0</ele><time>2026-05-03T15:52:29Z</time></trkpt><trkpt lat="36.028570785201474" lon="-107.0624536434037"><ele>2162.0</ele><time>2026-05-03T15:52:30Z</time></trkpt><trkpt lat="36.02864001333797" lon="-107.0623900229657"><ele>2162.0</ele><time>2026-05-03T15:52:31Z</time></trkpt><trkpt lat="36.028747762656" lon="-107.0623451186637"><ele>2162.0</ele><time>2026-05-03T15:52:32Z</time></trkpt><trkpt lat="36.028872334424726" lon="-107.06232741198748"><ele>2160.2</ele><time>2026-05-03T15:52:33Z</time></trkpt><trkpt lat="36.02898263650801" lon="-107.06231653702538"><ele>2158.3999999999996</ele><time>2026-05-03T15:52:34Z</time></trkpt><trkpt lat="36.02907643587759" lon="-107.06229330765618"><ele>2156.6000000000004</ele><time>2026-05-03T15:52:35Z</time></trkpt><trkpt lat="36.029161026854574" lon="-107.06225973528184"><ele>2154.8</ele><time>2026-05-03T15:52:36Z</time></trkpt><trkpt lat="36.029252823571724" lon="-107.06222847261868"><ele>2153.0</ele><time>2026-05-03T15:52:37Z</time></trkpt><trkpt lat="36.02934486127061" lon="-107.06221507705584"><ele>2152.2000000000003</ele><time>2026-05-03T15:52:38Z</time></trkpt><trkpt lat="36.02941185411828" lon="-107.06216829637422"><ele>2151.4</ele><time>2026-05-03T15:52:39Z</time></trkpt><trkpt lat="36.0295215849329" lon="-107.06221469230441"><ele>2150.6000000000004</ele><time>2026-05-03T15:52:43Z</time></trkpt><trkpt lat="36.0295918643502" lon="-107.0622725834311"><ele>2149.8</ele><time>2026-05-03T15:52:44Z</time></trkpt><trkpt lat="36.02965963215652" lon="-107.06228044969569"><ele>2149.0</ele><time>2026-05-03T15:52:45Z</time></trkpt><trkpt lat="36.02976106975986" lon="-107.06224948891918"><ele>2149.0</ele><time>2026-05-03T15:52:46Z</time></trkpt><trkpt lat="36.02985628904731" lon="-107.06228102715592"><ele>2149.0</ele><time>2026-05-03T15:52:47Z</time></trkpt><trkpt lat="36.029920603480726" lon="-107.06228635629022"><ele>2149.0</ele><time>2026-05-03T15:52:48Z</time></trkpt><trkpt lat="36.02999927168734" lon="-107.06235444921086"><ele>2149.0</ele><time>2026-05-03T15:52:50Z</time></trkpt><trkpt lat="36.03003574706899" lon="-107.06244796842343"><ele>2149.0</ele><time>2026-05-03T15:52:51Z</time></trkpt><trkpt lat="36.03012181020187" lon="-107.0625383845289"><ele>2150.8</ele><time>2026-05-03T15:52:52Z</time></trkpt><trkpt lat="36.03020587667392" lon="-107.06259260642275"><ele>2152.6000000000004</ele><time>2026-05-03T15:52:53.001Z</time></trkpt><trkpt lat="36.030286126859025" lon="-107.06263453530565"><ele>2154.4</ele><time>2026-05-03T15:52:54.001Z</time></trkpt><trkpt lat="36.03037812865304" lon="-107.06264071426537"><ele>2156.2000000000003</ele><time>2026-05-03T15:52:56.001Z</time></trkpt><trkpt lat="36.03042323250254" lon="-107.06258610215866"><ele>2158.0</ele><time>2026-05-03T15:52:59.001Z</time></trkpt><trkpt lat="36.03057686500774" lon="-107.062520974452"><ele>2154.75</ele><time>2026-05-03T15:53:01.001Z</time></trkpt><trkpt lat="36.03060120339574" lon="-107.06237953671686"><ele>2151.5</ele><time>2026-05-03T15:53:03.001Z</time></trkpt><trkpt lat="36.03057001447957" lon="-107.06228849526934"><ele>2148.25</ele><time>2026-05-03T15:53:04.001Z</time></trkpt><trkpt lat="36.030507154076595" lon="-107.06218118650375"><ele>2145.0</ele><time>2026-05-03T15:53:05.001Z</time></trkpt><trkpt lat="36.03041854487387" lon="-107.06201245282986"><ele>2145.0</ele><time>2026-05-03T15:53:06.001Z</time></trkpt><trkpt lat="36.030368629458586" lon="-107.06191020788873"><ele>2145.0</ele><time>2026-05-03T15:53:07.001Z</time></trkpt><trkpt lat="36.0303416858187" lon="-107.06180109886992"><ele>2145.0</ele><time>2026-05-03T15:53:08.001Z</time></trkpt><trkpt lat="36.03032671382694" lon="-107.06169191436115"><ele>2145.0</ele><time>2026-05-03T15:53:09.001Z</time></trkpt><trkpt lat="36.03032941062114" lon="-107.06158379666392"><ele>2145.0</ele><time>2026-05-03T15:53:10.001Z</time></trkpt><trkpt lat="36.030346715269665" lon="-107.06147493400454"><ele>2143.2</ele><time>2026-05-03T15:53:11.001Z</time></trkpt><trkpt lat="36.03034572273649" lon="-107.06134335201233"><ele>2141.4</ele><time>2026-05-03T15:53:12.001Z</time></trkpt><trkpt lat="36.030318152511114" lon="-107.06120906199335"><ele>2139.6</ele><time>2026-05-03T15:53:13.001Z</time></trkpt><trkpt lat="36.03028759633581" lon="-107.06108039264355"><ele>2137.8</ele><time>2026-05-03T15:53:14.001Z</time></trkpt><trkpt lat="36.03022744706407" lon="-107.06098723486417"><ele>2136.0</ele><time>2026-05-03T15:53:15.001Z</time></trkpt><trkpt lat="36.03014185264279" lon="-107.06087084375365"><ele>2135.25</ele><time>2026-05-03T15:53:16.001Z</time></trkpt><trkpt lat="36.030063938469965" lon="-107.06077331129397"><ele>2134.5</ele><time>2026-05-03T15:53:17.001Z</time></trkpt><trkpt lat="36.029998456407434" lon="-107.06066913260112"><ele>2133.75</ele><time>2026-05-03T15:53:18.001Z</time></trkpt><trkpt lat="36.02994793647514" lon="-107.06051766652541"><ele>2133.0</ele><time>2026-05-03T15:53:19.001Z</time></trkpt><trkpt lat="36.029893697581926" lon="-107.06037469953446"><ele>2133.0</ele><time>2026-05-03T15:53:20.001Z</time></trkpt><trkpt lat="36.02984007243156" lon="-107.06027942164916"><ele>2133.0</ele><time>2026-05-03T15:53:21.001Z</time></trkpt><trkpt lat="36.029749295871355" lon="-107.06018346804971"><ele>2133.0</ele><time>2026-05-03T15:53:22.001Z</time></trkpt><trkpt lat="36.0296480668202" lon="-107.06011376538142"><ele>2133.0</ele><time>2026-05-03T15:53:23.001Z</time></trkpt><trkpt lat="36.029533876612476" lon="-107.06004919209201"><ele>2133.0</ele><time>2026-05-03T15:53:24.001Z</time></trkpt><trkpt lat="36.0294006918553" lon="-107.05997056190117"><ele>2133.0</ele><time>2026-05-03T15:53:25.001Z</time></trkpt><trkpt lat="36.029285677269534" lon="-107.05989639980912"><ele>2133.0</ele><time>2026-05-03T15:53:26.001Z</time></trkpt><trkpt lat="36.029162577683465" lon="-107.05982898841808"><ele>2133.0</ele><time>2026-05-03T15:53:27.001Z</time></trkpt><trkpt lat="36.02906071868241" lon="-107.05977197300855"><ele>2132.25</ele><time>2026-05-03T15:53:28.001Z</time></trkpt><trkpt lat="36.02896319288684" lon="-107.05969172631227"><ele>2131.5</ele><time>2026-05-03T15:53:29.001Z</time></trkpt><trkpt lat="36.02885875248372" lon="-107.05957088761402"><ele>2130.75</ele><time>2026-05-03T15:53:30.001Z</time></trkpt><trkpt lat="36.028762700001266" lon="-107.05944919027047"><ele>2130.0</ele><time>2026-05-03T15:53:31Z</time></trkpt><trkpt lat="36.028704565021016" lon="-107.05935204428967"><ele>2130.0</ele><time>2026-05-03T15:53:32Z</time></trkpt><trkpt lat="36.02866938579401" lon="-107.05927224990599"><ele>2130.0</ele><time>2026-05-03T15:53:33Z</time></trkpt><trkpt lat="36.0286358980113" lon="-107.05919546009915"><ele>2130.0</ele><time>2026-05-03T15:53:34Z</time></trkpt><trkpt lat="36.028593613788956" lon="-107.05909879332602"><ele>2130.0</ele><time>2026-05-03T15:53:36Z</time></trkpt><trkpt lat="36.028572800099575" lon="-107.05897423863026"><ele>2130.0</ele><time>2026-05-03T15:53:38Z</time></trkpt><trkpt lat="36.02859571645174" lon="-107.05887841749107"><ele>2130.0</ele><time>2026-05-03T15:53:39Z</time></trkpt><trkpt lat="36.02866204561502" lon="-107.05876299810859"><ele>2129.8</ele><time>2026-05-03T15:53:40Z</time></trkpt><trkpt lat="36.02875068791567" lon="-107.0586613187738"><ele>2129.6</ele><time>2026-05-03T15:53:41Z</time></trkpt><trkpt lat="36.028818485563335" lon="-107.05858989578398"><ele>2129.4</ele><time>2026-05-03T15:53:42Z</time></trkpt><trkpt lat="36.02889528155425" lon="-107.05852031323927"><ele>2129.2</ele><time>2026-05-03T15:53:44Z</time></trkpt><trkpt lat="36.02897509460454" lon="-107.0585037530165"><ele>2129.0</ele><time>2026-05-03T15:53:46Z</time></trkpt><trkpt lat="36.0290531188562" lon="-107.05854590227493"><ele>2129.0</ele><time>2026-05-03T15:53:47Z</time></trkpt><trkpt lat="36.0291354838071" lon="-107.05864786228658"><ele>2129.0</ele><time>2026-05-03T15:53:48Z</time></trkpt><trkpt lat="36.02921252546905" lon="-107.05879738950802"><ele>2129.0</ele><time>2026-05-03T15:53:49Z</time></trkpt><trkpt lat="36.0292948623516" lon="-107.05892244419718"><ele>2129.0</ele><time>2026-05-03T15:53:50Z</time></trkpt><trkpt lat="36.02939212995822" lon="-107.05902183281816"><ele>2129.0</ele><time>2026-05-03T15:53:51Z</time></trkpt><trkpt lat="36.029506497109715" lon="-107.05910612462205"><ele>2129.0</ele><time>2026-05-03T15:53:52Z</time></trkpt><trkpt lat="36.02963955507132" lon="-107.05917907112492"><ele>2129.0</ele><time>2026-05-03T15:53:53Z</time></trkpt><trkpt lat="36.02978099139961" lon="-107.05924055596583"><ele>2129.0</ele><time>2026-05-03T15:53:54Z</time></trkpt><trkpt lat="36.02989611395387" lon="-107.05928113903467"><ele>2129.4</ele><time>2026-05-03T15:53:55Z</time></trkpt><trkpt lat="36.029980389516936" lon="-107.05932564991672"><ele>2129.8</ele><time>2026-05-03T15:53:56Z</time></trkpt><trkpt lat="36.03004596343203" lon="-107.0593723291843"><ele>2130.2</ele><time>2026-05-03T15:53:57Z</time></trkpt><trkpt lat="36.03013365767096" lon="-107.05939173221667"><ele>2130.6</ele><time>2026-05-03T15:53:59Z</time></trkpt><trkpt lat="36.030253870435835" lon="-107.05933516537776"><ele>2131.0</ele><time>2026-05-03T15:54:01Z</time></trkpt><trkpt lat="36.03031874064887" lon="-107.05922762806291"><ele>2131.0</ele><time>2026-05-03T15:54:02Z</time></trkpt><trkpt lat="36.03038025030742" lon="-107.05907909477759"><ele>2131.0</ele><time>2026-05-03T15:54:03Z</time></trkpt><trkpt lat="36.030450467654696" lon="-107.05894929433684"><ele>2131.0</ele><time>2026-05-03T15:54:04Z</time></trkpt><trkpt lat="36.03050191254994" lon="-107.05889390090695"><ele>2131.0</ele><time>2026-05-03T15:54:05Z</time></trkpt><trkpt lat="36.0305799030622" lon="-107.0588787517515"><ele>2131.0</ele><time>2026-05-03T15:54:08Z</time></trkpt><trkpt lat="36.03066549183037" lon="-107.05893607445041"><ele>2131.0</ele><time>2026-05-03T15:54:09Z</time></trkpt><trkpt lat="36.03074223359454" lon="-107.05895650998158"><ele>2131.0</ele><time>2026-05-03T15:54:10Z</time></trkpt><trkpt lat="36.03078682241855" lon="-107.0590486155006"><ele>2131.0</ele><time>2026-05-03T15:54:11Z</time></trkpt><trkpt lat="36.030806620529255" lon="-107.05913117026401"><ele>2131.0</ele><time>2026-05-03T15:54:12Z</time></trkpt><trkpt lat="36.03078735521477" lon="-107.05927755548203"><ele>2131.0</ele><time>2026-05-03T15:54:14Z</time></trkpt><trkpt lat="36.030768877013664" lon="-107.05936684582716"><ele>2131.0</ele><time>2026-05-03T15:54:15Z</time></trkpt><trkpt lat="36.03075659490842" lon="-107.05945806415393"><ele>2131.0</ele><time>2026-05-03T15:54:16Z</time></trkpt><trkpt lat="36.03073393746802" lon="-107.05955479601485"><ele>2131.0</ele><time>2026-05-03T15:54:17Z</time></trkpt><trkpt lat="36.03073936783848" lon="-107.05967493826176"><ele>2131.0</ele><time>2026-05-03T15:54:19Z</time></trkpt><trkpt lat="36.03081080946518" lon="-107.05973774901739"><ele>2131.0</ele><time>2026-05-03T15:54:21Z</time></trkpt><trkpt lat="36.03089662492958" lon="-107.05976542568476"><ele>2131.0</ele><time>2026-05-03T15:54:23Z</time></trkpt><trkpt lat="36.03106039526898" lon="-107.05969899012132"><ele>2131.0</ele><time>2026-05-03T15:54:25Z</time></trkpt><trkpt lat="36.03118544193462" lon="-107.05963934792725"><ele>2131.0</ele><time>2026-05-03T15:54:26Z</time></trkpt><trkpt lat="36.03132704602699" lon="-107.05955229616431"><ele>2131.0</ele><time>2026-05-03T15:54:27Z</time></trkpt><trkpt lat="36.03158766981497" lon="-107.05937908778063"><ele>2131.0</ele><time>2026-05-03T15:54:28Z</time></trkpt><trkpt lat="36.03165970451571" lon="-107.05927076250462"><ele>2131.0</ele><time>2026-05-03T15:54:30Z</time></trkpt><trkpt lat="36.03170859272669" lon="-107.05917136142989"><ele>2131.0</ele><time>2026-05-03T15:54:31Z</time></trkpt><trkpt lat="36.0317535635026" lon="-107.05906944797881"><ele>2131.0</ele><time>2026-05-03T15:54:32Z</time></trkpt><trkpt lat="36.03182777037403" lon="-107.05900686611295"><ele>2131.0</ele><time>2026-05-03T15:54:34Z</time></trkpt><trkpt lat="36.031950778751515" lon="-107.0590161433242"><ele>2131.0</ele><time>2026-05-03T15:54:35Z</time></trkpt><trkpt lat="36.03206412344591" lon="-107.05902513597894"><ele>2131.0</ele><time>2026-05-03T15:54:36Z</time></trkpt><trkpt lat="36.032175821834" lon="-107.0590105660962"><ele>2131.0</ele><time>2026-05-03T15:54:38Z</time></trkpt><trkpt lat="36.03233389739379" lon="-107.05914335757615"><ele>2131.0</ele><time>2026-05-03T15:54:40Z</time></trkpt><trkpt lat="36.032461809541395" lon="-107.05926282978608"><ele>2131.5</ele><time>2026-05-03T15:54:41Z</time></trkpt><trkpt lat="36.03260391180291" lon="-107.05934797098938"><ele>2132.0</ele><time>2026-05-03T15:54:42Z</time></trkpt><trkpt lat="36.032747431861544" lon="-107.05942896009408"><ele>2132.5</ele><time>2026-05-03T15:54:43Z</time></trkpt><trkpt lat="36.03285622142272" lon="-107.05949758629892"><ele>2133.0</ele><time>2026-05-03T15:54:44Z</time></trkpt><trkpt lat="36.03293258129796" lon="-107.05954497341476"><ele>2133.0</ele><time>2026-05-03T15:54:45Z</time></trkpt><trkpt lat="36.03304139494582" lon="-107.05959124931255"><ele>2133.0</ele><time>2026-05-03T15:54:47Z</time></trkpt><trkpt lat="36.03310515661075" lon="-107.05956510483215"><ele>2133.0</ele><time>2026-05-03T15:54:48Z</time></trkpt><trkpt lat="36.03319296164173" lon="-107.05952743505775"><ele>2133.0</ele><time>2026-05-03T15:54:49Z</time></trkpt><trkpt lat="36.03326880491243" lon="-107.05942563955485"><ele>2133.0</ele><time>2026-05-03T15:54:50Z</time></trkpt><trkpt lat="36.03337527936664" lon="-107.05933797481731"><ele>2132.8</ele><time>2026-05-03T15:54:51Z</time></trkpt><trkpt lat="36.03349745518854" lon="-107.05926728783461"><ele>2132.6000000000004</ele><time>2026-05-03T15:54:52Z</time></trkpt><trkpt lat="36.03359389816649" lon="-107.05921226230772"><ele>2132.3999999999996</ele><time>2026-05-03T15:54:53Z</time></trkpt><trkpt lat="36.033660288123656" lon="-107.05917522102929"><ele>2132.2</ele><time>2026-05-03T15:54:54Z</time></trkpt><trkpt lat="36.0337395327823" lon="-107.05915702577114"><ele>2132.0</ele><time>2026-05-03T15:54:55Z</time></trkpt><trkpt lat="36.033834658967976" lon="-107.0591680230511"><ele>2132.0</ele><time>2026-05-03T15:54:56Z</time></trkpt><trkpt lat="36.03394078000313" lon="-107.05919670669337"><ele>2132.0</ele><time>2026-05-03T15:54:57Z</time></trkpt><trkpt lat="36.03404247380655" lon="-107.05924126220673"><ele>2132.0</ele><time>2026-05-03T15:54:58Z</time></trkpt><trkpt lat="36.034155506239635" lon="-107.0592864632409"><ele>2132.0</ele><time>2026-05-03T15:54:59Z</time></trkpt><trkpt lat="36.034259081851005" lon="-107.05932769566033"><ele>2132.0</ele><time>2026-05-03T15:55:01.001Z</time></trkpt><trkpt lat="36.0342951324928" lon="-107.05939942746686"><ele>2132.2</ele><time>2026-05-03T15:55:02.001Z</time></trkpt><trkpt lat="36.03434110276695" lon="-107.05950394503014"><ele>2132.3999999999996</ele><time>2026-05-03T15:55:03.001Z</time></trkpt><trkpt lat="36.03439965048318" lon="-107.05962607610539"><ele>2132.6000000000004</ele><time>2026-05-03T15:55:04.001Z</time></trkpt><trkpt lat="36.034432542675944" lon="-107.05975443637425"><ele>2132.8</ele><time>2026-05-03T15:55:05.001Z</time></trkpt><trkpt lat="36.034432839384536" lon="-107.05988868750612"><ele>2133.0</ele><time>2026-05-03T15:55:06.001Z</time></trkpt><trkpt lat="36.03444975853405" lon="-107.05997800605469"><ele>2133.0</ele><time>2026-05-03T15:55:07.001Z</time></trkpt><trkpt lat="36.03447313546184" lon="-107.06006588526556"><ele>2133.0</ele><time>2026-05-03T15:55:08.001Z</time></trkpt><trkpt lat="36.03451566429375" lon="-107.0601430451104"><ele>2133.0</ele><time>2026-05-03T15:55:09.001Z</time></trkpt><trkpt lat="36.03458456376826" lon="-107.06024366807286"><ele>2133.0</ele><time>2026-05-03T15:55:10.001Z</time></trkpt><trkpt lat="36.034680524357114" lon="-107.06036316281696"><ele>2133.0</ele><time>2026-05-03T15:55:11.001Z</time></trkpt><trkpt lat="36.03478386799823" lon="-107.06047712472137"><ele>2133.0</ele><time>2026-05-03T15:55:12.001Z</time></trkpt><trkpt lat="36.03485867773268" lon="-107.06055788817271"><ele>2133.0</ele><time>2026-05-03T15:55:13.001Z</time></trkpt><trkpt lat="36.03492641260706" lon="-107.06064987304336"><ele>2133.0</ele><time>2026-05-03T15:55:15.001Z</time></trkpt><trkpt lat="36.03507324419926" lon="-107.0606567156571"><ele>2133.0</ele><time>2026-05-03T15:55:17.001Z</time></trkpt><trkpt lat="36.035208745484084" lon="-107.06059984449269"><ele>2133.0</ele><time>2026-05-03T15:55:18.001Z</time></trkpt><trkpt lat="36.03534363608627" lon="-107.06052213456691"><ele>2133.0</ele><time>2026-05-03T15:55:19.001Z</time></trkpt><trkpt lat="36.03549034466365" lon="-107.06044705049804"><ele>2133.0</ele><time>2026-05-03T15:55:20.001Z</time></trkpt><trkpt lat="36.03561918384952" lon="-107.06036844031699"><ele>2133.0</ele><time>2026-05-03T15:55:21.001Z</time></trkpt><trkpt lat="36.03569901489003" lon="-107.06032476870537"><ele>2133.0</ele><time>2026-05-03T15:55:22.001Z</time></trkpt><trkpt lat="36.03577434526353" lon="-107.06030748285015"><ele>2133.0</ele><time>2026-05-03T15:55:23.001Z</time></trkpt><trkpt lat="36.03586592463935" lon="-107.06029623646094"><ele>2133.0</ele><time>2026-05-03T15:55:24.001Z</time></trkpt><trkpt lat="36.035935894964716" lon="-107.06026625684434"><ele>2133.0</ele><time>2026-05-03T15:55:25.001Z</time></trkpt><trkpt lat="36.036000790194606" lon="-107.06019440017681"><ele>2133.0</ele><time>2026-05-03T15:55:26.001Z</time></trkpt><trkpt lat="36.03606840974887" lon="-107.06011071870026"><ele>2133.1666666666665</ele><time>2026-05-03T15:55:27.001Z</time></trkpt><trkpt lat="36.036126279434" lon="-107.06005294305155"><ele>2133.3333333333335</ele><time>2026-05-03T15:55:28.001Z</time></trkpt><trkpt lat="36.03618395626799" lon="-107.06000652564396"><ele>2133.5</ele><time>2026-05-03T15:55:29.001Z</time></trkpt><trkpt lat="36.036217473924985" lon="-107.05993539819305"><ele>2133.666666666667</ele><time>2026-05-03T15:55:31.001Z</time></trkpt><trkpt lat="36.03628868664181" lon="-107.05995307927557"><ele>2133.8333333333335</ele><time>2026-05-03T15:55:32.001Z</time></trkpt><trkpt lat="36.036382365232264" lon="-107.06001568034341"><ele>2134.0</ele><time>2026-05-03T15:55:33.001Z</time></trkpt><trkpt lat="36.03647307029135" lon="-107.06009120630203"><ele>2134.0</ele><time>2026-05-03T15:55:34.001Z</time></trkpt><trkpt lat="36.03656011954877" lon="-107.0601900280853"><ele>2134.0</ele><time>2026-05-03T15:55:35.001Z</time></trkpt><trkpt lat="36.036652683766796" lon="-107.06028043561739"><ele>2134.0</ele><time>2026-05-03T15:55:36.001Z</time></trkpt><trkpt lat="36.03671692698518" lon="-107.06033349836383"><ele>2134.0</ele><time>2026-05-03T15:55:37Z</time></trkpt><trkpt lat="36.036784918492096" lon="-107.06038153849714"><ele>2134.0</ele><time>2026-05-03T15:55:38Z</time></trkpt><trkpt lat="36.036904781048385" lon="-107.06047675429969"><ele>2134.4</ele><time>2026-05-03T15:55:40Z</time></trkpt><trkpt lat="36.0370039890647" lon="-107.0605108888365"><ele>2134.8</ele><time>2026-05-03T15:55:41Z</time></trkpt><trkpt lat="36.03709254362145" lon="-107.06050479594818"><ele>2135.2</ele><time>2026-05-03T15:55:42Z</time></trkpt><trkpt lat="36.03717949138496" lon="-107.06048133627269"><ele>2135.6</ele><time>2026-05-03T15:55:43Z</time></trkpt><trkpt lat="36.03725998799088" lon="-107.06043200233216"><ele>2136.0</ele><time>2026-05-03T15:55:44Z</time></trkpt><trkpt lat="36.03730596455745" lon="-107.06035182267789"><ele>2136.0</ele><time>2026-05-03T15:55:45Z</time></trkpt><trkpt lat="36.0373532534897" lon="-107.06024378781817"><ele>2136.0</ele><time>2026-05-03T15:55:46Z</time></trkpt><trkpt lat="36.037408086159154" lon="-107.06014031376834"><ele>2136.0</ele><time>2026-05-03T15:55:47Z</time></trkpt><trkpt lat="36.03745702330872" lon="-107.06008830000563"><ele>2136.0</ele><time>2026-05-03T15:55:48Z</time></trkpt><trkpt lat="36.03756354186702" lon="-107.0600275589423"><ele>2136.0</ele><time>2026-05-03T15:55:50Z</time></trkpt><trkpt lat="36.03763874361022" lon="-107.05997234768648"><ele>2135.8</ele><time>2026-05-03T15:55:51Z</time></trkpt><trkpt lat="36.0377035135917" lon="-107.05996310035984"><ele>2135.6</ele><time>2026-05-03T15:55:52Z</time></trkpt><trkpt lat="36.03778570690382" lon="-107.05998913214081"><ele>2135.4</ele><time>2026-05-03T15:55:53Z</time></trkpt><trkpt lat="36.037886793585656" lon="-107.06006690617548"><ele>2135.2</ele><time>2026-05-03T15:55:54Z</time></trkpt><trkpt lat="36.03800110744807" lon="-107.06016542434294"><ele>2135.0</ele><time>2026-05-03T15:55:55Z</time></trkpt><trkpt lat="36.03812963988271" lon="-107.06022968188101"><ele>2135.0</ele><time>2026-05-03T15:55:56Z</time></trkpt><trkpt lat="36.0382706714091" lon="-107.06028728359922"><ele>2135.0</ele><time>2026-05-03T15:55:57Z</time></trkpt><trkpt lat="36.03839619645976" lon="-107.06034885119193"><ele>2135.0</ele><time>2026-05-03T15:55:58Z</time></trkpt><trkpt lat="36.03849097958585" lon="-107.06037870962403"><ele>2135.0</ele><time>2026-05-03T15:55:59Z</time></trkpt><trkpt lat="36.038580093732264" lon="-107.06039543289022"><ele>2135.1666666666665</ele><time>2026-05-03T15:56:00Z</time></trkpt><trkpt lat="36.038650265589546" lon="-107.060396829682"><ele>2135.333333333333</ele><time>2026-05-03T15:56:01Z</time></trkpt><trkpt lat="36.03873618807544" lon="-107.06039355560284"><ele>2135.5</ele><time>2026-05-03T15:56:02Z</time></trkpt><trkpt lat="36.038860470183664" lon="-107.060368579355"><ele>2135.6666666666665</ele><time>2026-05-03T15:56:03Z</time></trkpt><trkpt lat="36.03894878611644" lon="-107.06034588129177"><ele>2135.8333333333335</ele><time>2026-05-03T15:56:04Z</time></trkpt><trkpt lat="36.0390195602323" lon="-107.06033762887017"><ele>2136.0</ele><time>2026-05-03T15:56:05Z</time></trkpt><trkpt lat="36.039085859645695" lon="-107.06033127713832"><ele>2136.25</ele><time>2026-05-03T15:56:06Z</time></trkpt><trkpt lat="36.03918915869914" lon="-107.06036734313486"><ele>2136.5</ele><time>2026-05-03T15:56:08Z</time></trkpt><trkpt lat="36.03925023029771" lon="-107.06045881659509"><ele>2136.75</ele><time>2026-05-03T15:56:09Z</time></trkpt><trkpt lat="36.03930839055349" lon="-107.06058563937029"><ele>2137.0</ele><time>2026-05-03T15:56:10Z</time></trkpt><trkpt lat="36.03935260853088" lon="-107.06073953613807"><ele>2137.2</ele><time>2026-05-03T15:56:11Z</time></trkpt><trkpt lat="36.03939674641208" lon="-107.06088108556575"><ele>2137.3999999999996</ele><time>2026-05-03T15:56:12Z</time></trkpt><trkpt lat="36.03943633960122" lon="-107.06100055766636"><ele>2137.6000000000004</ele><time>2026-05-03T15:56:13Z</time></trkpt><trkpt lat="36.03950562395704" lon="-107.06107073645859"><ele>2137.8</ele><time>2026-05-03T15:56:15Z</time></trkpt><trkpt lat="36.0395677951693" lon="-107.06110176863112"><ele>2138.0</ele><time>2026-05-03T15:56:16Z</time></trkpt><trkpt lat="36.03964718806849" lon="-107.06116046969467"><ele>2138.0</ele><time>2026-05-03T15:56:17Z</time></trkpt><trkpt lat="36.0397050087036" lon="-107.06121494626413"><ele>2138.0</ele><time>2026-05-03T15:56:18Z</time></trkpt><trkpt lat="36.03976145757537" lon="-107.06125035996533"><ele>2138.0</ele><time>2026-05-03T15:56:19Z</time></trkpt><trkpt lat="36.039843362205765" lon="-107.06125394709699"><ele>2138.0</ele><time>2026-05-03T15:56:20Z</time></trkpt><trkpt lat="36.03991270333755" lon="-107.06125662370798"><ele>2138.0</ele><time>2026-05-03T15:56:21Z</time></trkpt><trkpt lat="36.03998779116589" lon="-107.06130454889394"><ele>2138.0</ele><time>2026-05-03T15:56:23Z</time></trkpt><trkpt lat="36.04001362804806" lon="-107.06138478875567"><ele>2138.0</ele><time>2026-05-03T15:56:25Z</time></trkpt><trkpt lat="36.03999486002284" lon="-107.06148806843194"><ele>2137.75</ele><time>2026-05-03T15:56:27Z</time></trkpt><trkpt lat="36.04004124698502" lon="-107.06166101962577"><ele>2137.5</ele><time>2026-05-03T15:56:29Z</time></trkpt><trkpt lat="36.0400530666893" lon="-107.06180682328667"><ele>2137.25</ele><time>2026-05-03T15:56:30Z</time></trkpt><trkpt lat="36.040047687083444" lon="-107.06197411350742"><ele>2137.0</ele><time>2026-05-03T15:56:31Z</time></trkpt><trkpt lat="36.040040170783634" lon="-107.06211458151076"><ele>2137.0</ele><time>2026-05-03T15:56:32Z</time></trkpt><trkpt lat="36.04004257575474" lon="-107.06222449966086"><ele>2137.0</ele><time>2026-05-03T15:56:33Z</time></trkpt><trkpt lat="36.04006588533847" lon="-107.06231503610275"><ele>2137.0</ele><time>2026-05-03T15:56:34Z</time></trkpt><trkpt lat="36.04010363673751" lon="-107.06239139156102"><ele>2137.0</ele><time>2026-05-03T15:56:35Z</time></trkpt><trkpt lat="36.04019519879564" lon="-107.06247722021585"><ele>2137.0</ele><time>2026-05-03T15:56:37Z</time></trkpt><trkpt lat="36.04024463818071" lon="-107.06260080830494"><ele>2137.4</ele><time>2026-05-03T15:56:39Z</time></trkpt><trkpt lat="36.040240304870565" lon="-107.06272679549211"><ele>2137.7999999999997</ele><time>2026-05-03T15:56:40Z</time></trkpt><trkpt lat="36.040250497529875" lon="-107.06286908895738"><ele>2138.2</ele><time>2026-05-03T15:56:41Z</time></trkpt><trkpt lat="36.040309988012794" lon="-107.06296626945546"><ele>2138.6</ele><time>2026-05-03T15:56:42Z</time></trkpt><trkpt lat="36.04039078077554" lon="-107.06306476039617"><ele>2139.0</ele><time>2026-05-03T15:56:43Z</time></trkpt><trkpt lat="36.04048661271372" lon="-107.0631736606855"><ele>2139.3333333333335</ele><time>2026-05-03T15:56:44Z</time></trkpt><trkpt lat="36.040597789227014" lon="-107.063287507717"><ele>2139.666666666667</ele><time>2026-05-03T15:56:45Z</time></trkpt><trkpt lat="36.040712697857614" lon="-107.06343383736177"><ele>2140.0</ele><time>2026-05-03T15:56:46Z</time></trkpt><trkpt lat="36.04082501727664" lon="-107.06356811858804"><ele>2140.2</ele><time>2026-05-03T15:56:47Z</time></trkpt><trkpt lat="36.04091737528522" lon="-107.0636791713079"><ele>2140.4</ele><time>2026-05-03T15:56:48Z</time></trkpt><trkpt lat="36.040999400160686" lon="-107.06377159560759"><ele>2140.6</ele><time>2026-05-03T15:56:49Z</time></trkpt><trkpt lat="36.041066793225056" lon="-107.06384594972597"><ele>2140.8</ele><time>2026-05-03T15:56:50Z</time></trkpt><trkpt lat="36.04112224438289" lon="-107.06389129006114"><ele>2141.0</ele><time>2026-05-03T15:56:51Z</time></trkpt><trkpt lat="36.0412189810269" lon="-107.06391763583746"><ele>2141.0</ele><time>2026-05-03T15:56:52Z</time></trkpt><trkpt lat="36.041346856519134" lon="-107.06390146170448"><ele>2141.0</ele><time>2026-05-03T15:56:53Z</time></trkpt><trkpt lat="36.04147396851217" lon="-107.06387611258114"><ele>2141.0</ele><time>2026-05-03T15:56:54Z</time></trkpt><trkpt lat="36.0415542605395" lon="-107.06385686336232"><ele>2141.0</ele><time>2026-05-03T15:56:55Z</time></trkpt><trkpt lat="36.04161898354102" lon="-107.06385246794558"><ele>2141.0</ele><time>2026-05-03T15:56:56Z</time></trkpt><trkpt lat="36.04171463954431" lon="-107.06385731040817"><ele>2141.0</ele><time>2026-05-03T15:56:57Z</time></trkpt><trkpt lat="36.04185425043753" lon="-107.06386759784857"><ele>2141.0</ele><time>2026-05-03T15:56:58Z</time></trkpt><trkpt lat="36.041998886021744" lon="-107.06387017723671"><ele>2141.0</ele><time>2026-05-03T15:56:59Z</time></trkpt><trkpt lat="36.04216392093096" lon="-107.0638535415696"><ele>2141.0</ele><time>2026-05-03T15:57:00Z</time></trkpt><trkpt lat="36.042348574197405" lon="-107.06384131033214"><ele>2141.0</ele><time>2026-05-03T15:57:01.001Z</time></trkpt><trkpt lat="36.04251935577842" lon="-107.06383779721378"><ele>2141.0</ele><time>2026-05-03T15:57:02.001Z</time></trkpt><trkpt lat="36.04268009212351" lon="-107.0638351567755"><ele>2142.0</ele><time>2026-05-03T15:57:03.001Z</time></trkpt><trkpt lat="36.04281842894142" lon="-107.06383637177744"><ele>2143.0</ele><time>2026-05-03T15:57:04.001Z</time></trkpt><trkpt lat="36.04296506547015" lon="-107.06384068800982"><ele>2144.0</ele><time>2026-05-03T15:57:05.001Z</time></trkpt><trkpt lat="36.04311063794852" lon="-107.06384817221802"><ele>2145.0</ele><time>2026-05-03T15:57:06.001Z</time></trkpt><trkpt lat="36.043273199153454" lon="-107.0638435786084"><ele>2146.0</ele><time>2026-05-03T15:57:07.001Z</time></trkpt><trkpt lat="36.04344111284503" lon="-107.06384404803528"><ele>2147.0</ele><time>2026-05-03T15:57:08.001Z</time></trkpt><trkpt lat="36.043614408149644" lon="-107.0638497099509"><ele>2148.0</ele><time>2026-05-03T15:57:09.001Z</time></trkpt><trkpt lat="36.043770931151265" lon="-107.06385990547408"><ele>2148.0</ele><time>2026-05-03T15:57:10.001Z</time></trkpt><trkpt lat="36.04390763286564" lon="-107.06386858675066"><ele>2148.0</ele><time>2026-05-03T15:57:11.001Z</time></trkpt><trkpt lat="36.04403745266747" lon="-107.06387783836539"><ele>2148.0</ele><time>2026-05-03T15:57:12.001Z</time></trkpt><trkpt lat="36.044177497374406" lon="-107.06387219775834"><ele>2148.0</ele><time>2026-05-03T15:57:13.001Z</time></trkpt><trkpt lat="36.04432751994503" lon="-107.06388216192265"><ele>2149.5</ele><time>2026-05-03T15:57:14.001Z</time></trkpt><trkpt lat="36.044457171872274" lon="-107.06389846812132"><ele>2151.0</ele><time>2026-05-03T15:57:15.001Z</time></trkpt><trkpt lat="36.04457174585932" lon="-107.06390064980029"><ele>2152.5</ele><time>2026-05-03T15:57:16.001Z</time></trkpt><trkpt lat="36.044702538139276" lon="-107.06387522806382"><ele>2154.0</ele><time>2026-05-03T15:57:17.001Z</time></trkpt><trkpt lat="36.044852352460495" lon="-107.06385341995932"><ele>2154.6666666666665</ele><time>2026-05-03T15:57:18.001Z</time></trkpt><trkpt lat="36.04501477228624" lon="-107.06387042509603"><ele>2155.333333333333</ele><time>2026-05-03T15:57:19.001Z</time></trkpt><trkpt lat="36.04517471089203" lon="-107.06389708851069"><ele>2156.0</ele><time>2026-05-03T15:57:20.001Z</time></trkpt><trkpt lat="36.04530978405868" lon="-107.06390247435546"><ele>2156.0</ele><time>2026-05-03T15:57:21.001Z</time></trkpt><trkpt lat="36.04542061640935" lon="-107.06387847844546"><ele>2156.0</ele><time>2026-05-03T15:57:22.001Z</time></trkpt><trkpt lat="36.04551950514289" lon="-107.0638527045545"><ele>2156.0</ele><time>2026-05-03T15:57:23.001Z</time></trkpt><trkpt lat="36.04560230795878" lon="-107.06386789008114"><ele>2156.0</ele><time>2026-05-03T15:57:24.001Z</time></trkpt><trkpt lat="36.045701891291536" lon="-107.06389560059176"><ele>2156.0</ele><time>2026-05-03T15:57:25.001Z</time></trkpt><trkpt lat="36.04583673415274" lon="-107.063887637894"><ele>2156.6666666666665</ele><time>2026-05-03T15:57:26.001Z</time></trkpt><trkpt lat="36.04599664147255" lon="-107.06384777916492"><ele>2157.3333333333335</ele><time>2026-05-03T15:57:27.001Z</time></trkpt><trkpt lat="36.04617221589123" lon="-107.06383213621454"><ele>2158.0</ele><time>2026-05-03T15:57:28.001Z</time></trkpt><trkpt lat="36.046325242813374" lon="-107.06383588583033"><ele>2158.0</ele><time>2026-05-03T15:57:29.001Z</time></trkpt><trkpt lat="36.046435741313495" lon="-107.06384319883328"><ele>2158.0</ele><time>2026-05-03T15:57:30.001Z</time></trkpt><trkpt lat="36.046549669532126" lon="-107.0638488763328"><ele>2158.0</ele><time>2026-05-03T15:57:31.001Z</time></trkpt><trkpt lat="36.046645992812216" lon="-107.0638523918354"><ele>2158.0</ele><time>2026-05-03T15:57:32.001Z</time></trkpt><trkpt lat="36.04673224323535" lon="-107.06382286674506"><ele>2158.0</ele><time>2026-05-03T15:57:33.001Z</time></trkpt><trkpt lat="36.04681679932808" lon="-107.06374909452879"><ele>2158.4</ele><time>2026-05-03T15:57:34.001Z</time></trkpt><trkpt lat="36.04691762217548" lon="-107.06364437152759"><ele>2158.8</ele><time>2026-05-03T15:57:35.001Z</time></trkpt><trkpt lat="36.047007388637475" lon="-107.0635445937633"><ele>2159.2</ele><time>2026-05-03T15:57:36.001Z</time></trkpt><trkpt lat="36.047068689050164" lon="-107.06347061555827"><ele>2159.6</ele><time>2026-05-03T15:57:37.001Z</time></trkpt><trkpt lat="36.047139423054396" lon="-107.06343400643287"><ele>2160.0</ele><time>2026-05-03T15:57:38.001Z</time></trkpt><trkpt lat="36.04723482327088" lon="-107.06340369239254"><ele>2160.0</ele><time>2026-05-03T15:57:39.001Z</time></trkpt><trkpt lat="36.04731076226343" lon="-107.06333043023427"><ele>2160.0</ele><time>2026-05-03T15:57:40.001Z</time></trkpt><trkpt lat="36.04739794962765" lon="-107.06324478623226"><ele>2160.0</ele><time>2026-05-03T15:57:41.001Z</time></trkpt><trkpt lat="36.04751091914466" lon="-107.06315476613838"><ele>2160.0</ele><time>2026-05-03T15:57:42.001Z</time></trkpt><trkpt lat="36.047591605590384" lon="-107.06310195325898"><ele>2160.0</ele><time>2026-05-03T15:57:43Z</time></trkpt><trkpt lat="36.04765947222399" lon="-107.06304048744909"><ele>2160.8333333333335</ele><time>2026-05-03T15:57:44Z</time></trkpt><trkpt lat="36.04772573643605" lon="-107.06297103946649"><ele>2161.6666666666665</ele><time>2026-05-03T15:57:45Z</time></trkpt><trkpt lat="36.04777176212525" lon="-107.06289144811674"><ele>2162.5</ele><time>2026-05-03T15:57:46Z</time></trkpt><trkpt lat="36.04779699773317" lon="-107.06281361732516"><ele>2163.333333333333</ele><time>2026-05-03T15:57:47Z</time></trkpt><trkpt lat="36.04790775140138" lon="-107.06277885727717"><ele>2164.1666666666665</ele><time>2026-05-03T15:57:49Z</time></trkpt><trkpt lat="36.04799235758892" lon="-107.06274246614186"><ele>2165.0</ele><time>2026-05-03T15:57:50Z</time></trkpt><trkpt lat="36.04805429075673" lon="-107.06269977943263"><ele>2165.0</ele><time>2026-05-03T15:57:51Z</time></trkpt><trkpt lat="36.048101933653776" lon="-107.06263388833447"><ele>2165.0</ele><time>2026-05-03T15:57:52Z</time></trkpt><trkpt lat="36.048150541411246" lon="-107.06253218721807"><ele>2165.0</ele><time>2026-05-03T15:57:53Z</time></trkpt><trkpt lat="36.048201149542145" lon="-107.06244807759171"><ele>2165.0</ele><time>2026-05-03T15:57:54Z</time></trkpt><trkpt lat="36.04827821918296" lon="-107.0623854418337"><ele>2165.0</ele><time>2026-05-03T15:57:55Z</time></trkpt><trkpt lat="36.048360340930735" lon="-107.06231072222535"><ele>2165.0</ele><time>2026-05-03T15:57:56Z</time></trkpt><trkpt lat="36.048432406336644" lon="-107.06223728548348"><ele>2165.333333333333</ele><time>2026-05-03T15:57:57Z</time></trkpt><trkpt lat="36.04849075158328" lon="-107.06217969765748"><ele>2165.6666666666665</ele><time>2026-05-03T15:57:58Z</time></trkpt><trkpt lat="36.048548510929585" lon="-107.06210365023804"><ele>2166.0</ele><time>2026-05-03T15:57:59Z</time></trkpt><trkpt lat="36.04861810271827" lon="-107.06203781119012"><ele>2166.3333333333335</ele><time>2026-05-03T15:58:00Z</time></trkpt><trkpt lat="36.04869179713074" lon="-107.06196909977349"><ele>2166.666666666667</ele><time>2026-05-03T15:58:01Z</time></trkpt><trkpt lat="36.04876506781113" lon="-107.06190213523517"><ele>2167.0</ele><time>2026-05-03T15:58:02Z</time></trkpt><trkpt lat="36.04884438533872" lon="-107.06184354692016"><ele>2167.0</ele><time>2026-05-03T15:58:03Z</time></trkpt><trkpt lat="36.048902997542626" lon="-107.06181023952338"><ele>2167.0</ele><time>2026-05-03T15:58:04Z</time></trkpt><trkpt lat="36.04896693853286" lon="-107.06180570686324"><ele>2167.0</ele><time>2026-05-03T15:58:05Z</time></trkpt><trkpt lat="36.049051459370155" lon="-107.06178678692898"><ele>2167.0</ele><time>2026-05-03T15:58:06Z</time></trkpt><trkpt lat="36.04913945349048" lon="-107.06173630757947"><ele>2167.0</ele><time>2026-05-03T15:58:07Z</time></trkpt><trkpt lat="36.04920646276422" lon="-107.06165017637689"><ele>2167.0</ele><time>2026-05-03T15:58:08Z</time></trkpt><trkpt lat="36.04927730539838" lon="-107.06156875373594"><ele>2167.4</ele><time>2026-05-03T15:58:09Z</time></trkpt><trkpt lat="36.049374040046324" lon="-107.06150093896751"><ele>2167.7999999999997</ele><time>2026-05-03T15:58:10Z</time></trkpt><trkpt lat="36.049441339635706" lon="-107.0614248370984"><ele>2168.2</ele><time>2026-05-03T15:58:11Z</time></trkpt><trkpt lat="36.049478031753516" lon="-107.0613176782434"><ele>2168.6</ele><time>2026-05-03T15:58:12Z</time></trkpt><trkpt lat="36.049510666189214" lon="-107.06121146190421"><ele>2169.0</ele><time>2026-05-03T15:58:13Z</time></trkpt><trkpt lat="36.04956427728327" lon="-107.06114732196346"><ele>2169.0</ele><time>2026-05-03T15:58:14Z</time></trkpt><trkpt lat="36.049634603371715" lon="-107.06109456917896"><ele>2169.0</ele><time>2026-05-03T15:58:15Z</time></trkpt><trkpt lat="36.049682446261045" lon="-107.0610411398893"><ele>2169.0</ele><time>2026-05-03T15:58:16Z</time></trkpt><trkpt lat="36.04964055107019" lon="-107.0608796551386"><ele>2169.0</ele><time>2026-05-03T15:58:18Z</time></trkpt><trkpt lat="36.04963228594411" lon="-107.06076233028737"><ele>2169.0</ele><time>2026-05-03T15:58:20Z</time></trkpt><trkpt lat="36.04966134798263" lon="-107.06067190750014"><ele>2170.0</ele><time>2026-05-03T15:58:21Z</time></trkpt><trkpt lat="36.049684161037725" lon="-107.06053916342671"><ele>2171.0</ele><time>2026-05-03T15:58:22Z</time></trkpt><trkpt lat="36.04970984964642" lon="-107.06042582483788"><ele>2172.0</ele><time>2026-05-03T15:58:23Z</time></trkpt><trkpt lat="36.04974183397944" lon="-107.06033395373763"><ele>2173.0</ele><time>2026-05-03T15:58:24Z</time></trkpt><trkpt lat="36.049839330822884" lon="-107.06026033711112"><ele>2174.0</ele><time>2026-05-03T15:58:26Z</time></trkpt><trkpt lat="36.04989485052209" lon="-107.06020886423059"><ele>2174.0</ele><time>2026-05-03T15:58:27Z</time></trkpt><trkpt lat="36.04992555869748" lon="-107.06013822575825"><ele>2174.0</ele><time>2026-05-03T15:58:28Z</time></trkpt><trkpt lat="36.05001898309315" lon="-107.06006635378557"><ele>2174.0</ele><time>2026-05-03T15:58:30Z</time></trkpt><trkpt lat="36.05011339063516" lon="-107.0599314926452"><ele>2174.0</ele><time>2026-05-03T15:58:32Z</time></trkpt><trkpt lat="36.05012756647246" lon="-107.0598045579191"><ele>2174.0</ele><time>2026-05-03T15:58:33Z</time></trkpt><trkpt lat="36.05016558384387" lon="-107.05967954517875"><ele>2174.4</ele><time>2026-05-03T15:58:34Z</time></trkpt><trkpt lat="36.0502494261371" lon="-107.0596097890725"><ele>2174.8</ele><time>2026-05-03T15:58:35Z</time></trkpt><trkpt lat="36.05035000945808" lon="-107.05954257842748"><ele>2175.2</ele><time>2026-05-03T15:58:36Z</time></trkpt><trkpt lat="36.050413631823076" lon="-107.05948562998076"><ele>2175.6</ele><time>2026-05-03T15:58:37Z</time></trkpt><trkpt lat="36.05044577250644" lon="-107.05940868765828"><ele>2176.0</ele><time>2026-05-03T15:58:38Z</time></trkpt><trkpt lat="36.05050984108933" lon="-107.05929414463684"><ele>2176.0</ele><time>2026-05-03T15:58:39Z</time></trkpt><trkpt lat="36.05059069426438" lon="-107.05917863285211"><ele>2176.0</ele><time>2026-05-03T15:58:40Z</time></trkpt><trkpt lat="36.050655767796" lon="-107.05908877756839"><ele>2176.0</ele><time>2026-05-03T15:58:41Z</time></trkpt><trkpt lat="36.05069427251161" lon="-107.05898112980584"><ele>2176.0</ele><time>2026-05-03T15:58:42Z</time></trkpt><trkpt lat="36.050726183746846" lon="-107.05883134436706"><ele>2176.0</ele><time>2026-05-03T15:58:43Z</time></trkpt><trkpt lat="36.05078310920535" lon="-107.0586767430546"><ele>2177.5</ele><time>2026-05-03T15:58:44Z</time></trkpt><trkpt lat="36.05083064004921" lon="-107.05856053934275"><ele>2179.0</ele><time>2026-05-03T15:58:45Z</time></trkpt><trkpt lat="36.05093706097328" lon="-107.0584448133207"><ele>2180.5</ele><time>2026-05-03T15:58:47Z</time></trkpt><trkpt lat="36.05102612754081" lon="-107.05836172334875"><ele>2182.0</ele><time>2026-05-03T15:58:48Z</time></trkpt><trkpt lat="36.051119307183995" lon="-107.05824859503137"><ele>2183.0</ele><time>2026-05-03T15:58:49Z</time></trkpt><trkpt lat="36.051195578201224" lon="-107.05815924640454"><ele>2184.0</ele><time>2026-05-03T15:58:50Z</time></trkpt><trkpt lat="36.051271584113614" lon="-107.05805124235897"><ele>2185.0</ele><time>2026-05-03T15:58:51Z</time></trkpt><trkpt lat="36.051358868535075" lon="-107.05793149730644"><ele>2186.0</ele><time>2026-05-03T15:58:52Z</time></trkpt><trkpt lat="36.05143961902709" lon="-107.0578110267635"><ele>2186.0</ele><time>2026-05-03T15:58:53Z</time></trkpt><trkpt lat="36.05149956520896" lon="-107.05770290163342"><ele>2186.0</ele><time>2026-05-03T15:58:54Z</time></trkpt><trkpt lat="36.05154190001411" lon="-107.0576031641269"><ele>2186.0</ele><time>2026-05-03T15:58:55Z</time></trkpt><trkpt lat="36.051574470310136" lon="-107.05748105510132"><ele>2186.0</ele><time>2026-05-03T15:58:56Z</time></trkpt><trkpt lat="36.05159338994851" lon="-107.05738968222245"><ele>2186.0</ele><time>2026-05-03T15:58:57Z</time></trkpt><trkpt lat="36.0516073719288" lon="-107.05731226619116"><ele>2186.0</ele><time>2026-05-03T15:58:58Z</time></trkpt><trkpt lat="36.05159280195256" lon="-107.05723529961976"><ele>2187.2</ele><time>2026-05-03T15:58:59Z</time></trkpt><trkpt lat="36.05155192712525" lon="-107.05713798294127"><ele>2188.3999999999996</ele><time>2026-05-03T15:59:00Z</time></trkpt><trkpt lat="36.051482160534135" lon="-107.05704544331378"><ele>2189.6</ele><time>2026-05-03T15:59:01Z</time></trkpt><trkpt lat="36.051400210115155" lon="-107.0569068784992"><ele>2190.7999999999997</ele><time>2026-05-03T15:59:02Z</time></trkpt><trkpt lat="36.05148848166779" lon="-107.05682408235516"><ele>2192.0</ele><time>2026-05-03T15:59:06Z</time></trkpt><trkpt lat="36.051588628958726" lon="-107.05681302309776"><ele>2192.0</ele><time>2026-05-03T15:59:07Z</time></trkpt><trkpt lat="36.05171154743791" lon="-107.05678086770382"><ele>2192.0</ele><time>2026-05-03T15:59:08.001Z</time></trkpt><trkpt lat="36.05181445030159" lon="-107.0567487121428"><ele>2192.0</ele><time>2026-05-03T15:59:09.001Z</time></trkpt><trkpt lat="36.05188185977309" lon="-107.05670873180588"><ele>2192.0</ele><time>2026-05-03T15:59:10.001Z</time></trkpt><trkpt lat="36.05192137498742" lon="-107.0566420790948"><ele>2192.0</ele><time>2026-05-03T15:59:11.001Z</time></trkpt><trkpt lat="36.05197037996242" lon="-107.0565227578123"><ele>2192.833333333333</ele><time>2026-05-03T15:59:12.001Z</time></trkpt><trkpt lat="36.051995373669705" lon="-107.05642481678956"><ele>2193.6666666666665</ele><time>2026-05-03T15:59:13.001Z</time></trkpt><trkpt lat="36.05197577824489" lon="-107.0563149531409"><ele>2194.5</ele><time>2026-05-03T15:59:14.001Z</time></trkpt><trkpt lat="36.05194178103894" lon="-107.05618190642541"><ele>2195.3333333333335</ele><time>2026-05-03T15:59:15.001Z</time></trkpt><trkpt lat="36.05193564159063" lon="-107.05608225961035"><ele>2196.166666666667</ele><time>2026-05-03T15:59:16.001Z</time></trkpt><trkpt lat="36.05196995023203" lon="-107.05599097220086"><ele>2197.0</ele><time>2026-05-03T15:59:17.001Z</time></trkpt><trkpt lat="36.05202777452264" lon="-107.05588373769262"><ele>2198.4</ele><time>2026-05-03T15:59:18.001Z</time></trkpt><trkpt lat="36.05208672802622" lon="-107.05578114291961"><ele>2199.7999999999997</ele><time>2026-05-03T15:59:19.001Z</time></trkpt><trkpt lat="36.05215427291094" lon="-107.05570951715329"><ele>2201.2</ele><time>2026-05-03T15:59:20.001Z</time></trkpt><trkpt lat="36.05223768092512" lon="-107.05564155218526"><ele>2202.6</ele><time>2026-05-03T15:59:21.001Z</time></trkpt><trkpt lat="36.05227879516154" lon="-107.05555785143572"><ele>2204.0</ele><time>2026-05-03T15:59:22.001Z</time></trkpt><trkpt lat="36.05227777190663" lon="-107.05545532916469"><ele>2204.0</ele><time>2026-05-03T15:59:23.001Z</time></trkpt><trkpt lat="36.05222962344427" lon="-107.05532225238636"><ele>2204.0</ele><time>2026-05-03T15:59:24.001Z</time></trkpt><trkpt lat="36.052188202906024" lon="-107.05518881190918"><ele>2204.0</ele><time>2026-05-03T15:59:25.001Z</time></trkpt><trkpt lat="36.05208867868933" lon="-107.0551513556573"><ele>2204.0</ele><time>2026-05-03T15:59:27.001Z</time></trkpt><trkpt lat="36.051993204343546" lon="-107.05515916207159"><ele>2204.0</ele><time>2026-05-03T15:59:28.001Z</time></trkpt><trkpt lat="36.05191759163662" lon="-107.05516961735142"><ele>2204.0</ele><time>2026-05-03T15:59:29.001Z</time></trkpt><trkpt lat="36.05189950982653" lon="-107.05504100580997"><ele>2204.0</ele><time>2026-05-03T15:59:31.001Z</time></trkpt><trkpt lat="36.05190239341382" lon="-107.05491493538273"><ele>2204.0</ele><time>2026-05-03T15:59:32.001Z</time></trkpt><trkpt lat="36.05192291715873" lon="-107.05480232049645"><ele>2204.0</ele><time>2026-05-03T15:59:33.001Z</time></trkpt><trkpt lat="36.0519923057456" lon="-107.0547025843919"><ele>2204.0</ele><time>2026-05-03T15:59:34.001Z</time></trkpt><trkpt lat="36.05207798743687" lon="-107.05464386574579"><ele>2205.5</ele><time>2026-05-03T15:59:35.001Z</time></trkpt><trkpt lat="36.05215563479779" lon="-107.0545289575897"><ele>2207.0</ele><time>2026-05-03T15:59:36.001Z</time></trkpt><trkpt lat="36.052218280786654" lon="-107.05438766731326"><ele>2208.5</ele><time>2026-05-03T15:59:37.001Z</time></trkpt><trkpt lat="36.05228229756804" lon="-107.05423751338718"><ele>2210.0</ele><time>2026-05-03T15:59:38.001Z</time></trkpt><trkpt lat="36.05233791113804" lon="-107.05417108763125"><ele>2211.0</ele><time>2026-05-03T15:59:39.001Z</time></trkpt><trkpt lat="36.05242689757265" lon="-107.05410085024413"><ele>2212.0</ele><time>2026-05-03T15:59:40.001Z</time></trkpt><trkpt lat="36.05251591950421" lon="-107.05403648233485"><ele>2213.0</ele><time>2026-05-03T15:59:41.001Z</time></trkpt><trkpt lat="36.0525778990338" lon="-107.05398097866187"><ele>2214.0</ele><time>2026-05-03T15:59:42.001Z</time></trkpt><trkpt lat="36.05261609617985" lon="-107.05389807672769"><ele>2215.0</ele><time>2026-05-03T15:59:43.001Z</time></trkpt><trkpt lat="36.052668424143036" lon="-107.0537917386137"><ele>2215.0</ele><time>2026-05-03T15:59:44.001Z</time></trkpt><trkpt lat="36.052746088844984" lon="-107.05368059260225"><ele>2215.0</ele><time>2026-05-03T15:59:46.001Z</time></trkpt><trkpt lat="36.052753572450285" lon="-107.05356521464407"><ele>2215.0</ele><time>2026-05-03T15:59:47.001Z</time></trkpt><trkpt lat="36.05276228516074" lon="-107.05344817019083"><ele>2215.0</ele><time>2026-05-03T15:59:48.001Z</time></trkpt><trkpt lat="36.05280201178624" lon="-107.05334494670136"><ele>2215.0</ele><time>2026-05-03T15:59:49Z</time></trkpt><trkpt lat="36.05281578092829" lon="-107.05325147813751"><ele>2216.0</ele><time>2026-05-03T15:59:50Z</time></trkpt><trkpt lat="36.052824786717295" lon="-107.05317171330755"><ele>2217.0</ele><time>2026-05-03T15:59:51Z</time></trkpt><trkpt lat="36.052865772802924" lon="-107.05308099765556"><ele>2218.0</ele><time>2026-05-03T15:59:52Z</time></trkpt><trkpt lat="36.052908087717256" lon="-107.05297392031596"><ele>2219.0</ele><time>2026-05-03T15:59:53Z</time></trkpt><trkpt lat="36.052925941197586" lon="-107.05288217039933"><ele>2220.0</ele><time>2026-05-03T15:59:54Z</time></trkpt><trkpt lat="36.05291679518365" lon="-107.05277971838458"><ele>2221.0</ele><time>2026-05-03T15:59:55Z</time></trkpt><trkpt lat="36.052906031805506" lon="-107.052669999046"><ele>2221.0</ele><time>2026-05-03T15:59:56Z</time></trkpt><trkpt lat="36.05290557446331" lon="-107.05256533564372"><ele>2221.0</ele><time>2026-05-03T15:59:57Z</time></trkpt><trkpt lat="36.05289836787741" lon="-107.05246362988537"><ele>2221.0</ele><time>2026-05-03T15:59:58Z</time></trkpt><trkpt lat="36.05286392729931" lon="-107.0523696609635"><ele>2221.0</ele><time>2026-05-03T15:59:59Z</time></trkpt><trkpt lat="36.05280878612983" lon="-107.05226973888297"><ele>2221.0</ele><time>2026-05-03T16:00:00Z</time></trkpt><trkpt lat="36.052766587140624" lon="-107.05218362934066"><ele>2221.0</ele><time>2026-05-03T16:00:01Z</time></trkpt><trkpt lat="36.052734953265386" lon="-107.05207628715742"><ele>2221.5</ele><time>2026-05-03T16:00:02Z</time></trkpt><trkpt lat="36.0527022549357" lon="-107.05200089522369"><ele>2222.0</ele><time>2026-05-03T16:00:03Z</time></trkpt><trkpt lat="36.052652416291444" lon="-107.05194478296549"><ele>2222.5</ele><time>2026-05-03T16:00:04Z</time></trkpt><trkpt lat="36.05259396221823" lon="-107.05182601949986"><ele>2223.0</ele><time>2026-05-03T16:00:05Z</time></trkpt><trkpt lat="36.05252694681603" lon="-107.0517278991928"><ele>2223.5</ele><time>2026-05-03T16:00:06Z</time></trkpt><trkpt lat="36.052466732596244" lon="-107.05168440385278"><ele>2224.0</ele><time>2026-05-03T16:00:07Z</time></trkpt><trkpt lat="36.052393117832544" lon="-107.05167196809712"><ele>2222.0</ele><time>2026-05-03T16:00:08Z</time></trkpt><trkpt lat="36.052306467572876" lon="-107.05169002562582"><ele>2220.0</ele><time>2026-05-03T16:00:09Z</time></trkpt><trkpt lat="36.05220884641861" lon="-107.0517651357099"><ele>2218.0</ele><time>2026-05-03T16:00:10Z</time></trkpt><trkpt lat="36.052122413631345" lon="-107.05184751067459"><ele>2216.0</ele><time>2026-05-03T16:00:11Z</time></trkpt><trkpt lat="36.05205177451183" lon="-107.05186633520668"><ele>2214.0</ele><time>2026-05-03T16:00:12Z</time></trkpt><trkpt lat="36.0519742952138" lon="-107.05182061682694"><ele>2214.0</ele><time>2026-05-03T16:00:13Z</time></trkpt><trkpt lat="36.05185172184316" lon="-107.05175316102924"><ele>2214.0</ele><time>2026-05-03T16:00:14Z</time></trkpt><trkpt lat="36.05174366703837" lon="-107.05170915504982"><ele>2214.0</ele><time>2026-05-03T16:00:15Z</time></trkpt><trkpt lat="36.05163594791212" lon="-107.05171834209818"><ele>2214.0</ele><time>2026-05-03T16:00:16Z</time></trkpt><trkpt lat="36.05151907467724" lon="-107.05172204256921"><ele>2213.5</ele><time>2026-05-03T16:00:17Z</time></trkpt><trkpt lat="36.05140368314575" lon="-107.05168991289159"><ele>2213.0</ele><time>2026-05-03T16:00:18Z</time></trkpt><trkpt lat="36.051314004468836" lon="-107.05162717708522"><ele>2212.5</ele><time>2026-05-03T16:00:19Z</time></trkpt><trkpt lat="36.05122265274914" lon="-107.05153686910931"><ele>2212.0</ele><time>2026-05-03T16:00:20Z</time></trkpt><trkpt lat="36.05113369464131" lon="-107.0514087671105"><ele>2211.5</ele><time>2026-05-03T16:00:21Z</time></trkpt><trkpt lat="36.05104445478906" lon="-107.05125472899633"><ele>2211.0</ele><time>2026-05-03T16:00:22Z</time></trkpt><trkpt lat="36.05095349345494" lon="-107.05110969174657"><ele>2210.5</ele><time>2026-05-03T16:00:23Z</time></trkpt><trkpt lat="36.05086739339944" lon="-107.05102490501558"><ele>2210.0</ele><time>2026-05-03T16:00:24Z</time></trkpt><trkpt lat="36.05080368993584" lon="-107.05095492477375"><ele>2210.0</ele><time>2026-05-03T16:00:25Z</time></trkpt><trkpt lat="36.05082320808499" lon="-107.05082558542136"><ele>2210.0</ele><time>2026-05-03T16:00:28Z</time></trkpt><trkpt lat="36.050864689067616" lon="-107.05071009674516"><ele>2210.0</ele><time>2026-05-03T16:00:29Z</time></trkpt><trkpt lat="36.05091338152093" lon="-107.05060560248306"><ele>2210.0</ele><time>2026-05-03T16:00:30Z</time></trkpt><trkpt lat="36.05097296939555" lon="-107.05052561116364"><ele>2210.0</ele><time>2026-05-03T16:00:31Z</time></trkpt><trkpt lat="36.05107330950186" lon="-107.05047203750111"><ele>2210.0</ele><time>2026-05-03T16:00:32Z</time></trkpt><trkpt lat="36.05121226696886" lon="-107.05037771813318"><ele>2210.0</ele><time>2026-05-03T16:00:33Z</time></trkpt><trkpt lat="36.05137574990055" lon="-107.05030047087881"><ele>2210.0</ele><time>2026-05-03T16:00:34Z</time></trkpt><trkpt lat="36.05154174721327" lon="-107.05025652955528"><ele>2211.25</ele><time>2026-05-03T16:00:35Z</time></trkpt><trkpt lat="36.051699864771564" lon="-107.05019477287887"><ele>2212.5</ele><time>2026-05-03T16:00:36Z</time></trkpt><trkpt lat="36.051838516367525" lon="-107.0501695996366"><ele>2213.75</ele><time>2026-05-03T16:00:37Z</time></trkpt><trkpt lat="36.05196856699592" lon="-107.05017107172206"><ele>2215.0</ele><time>2026-05-03T16:00:38Z</time></trkpt><trkpt lat="36.05207375148343" lon="-107.05019070279802"><ele>2215.0</ele><time>2026-05-03T16:00:39Z</time></trkpt><trkpt lat="36.052186375682936" lon="-107.05024666685121"><ele>2215.0</ele><time>2026-05-03T16:00:40Z</time></trkpt><trkpt lat="36.05229462433746" lon="-107.0503059708815"><ele>2215.0</ele><time>2026-05-03T16:00:41Z</time></trkpt><trkpt lat="36.05236637715125" lon="-107.0503230454987"><ele>2215.0</ele><time>2026-05-03T16:00:42Z</time></trkpt><trkpt lat="36.052449633821396" lon="-107.05027415379186"><ele>2215.0</ele><time>2026-05-03T16:00:43Z</time></trkpt><trkpt lat="36.05256937740863" lon="-107.0502030616397"><ele>2216.0</ele><time>2026-05-03T16:00:44Z</time></trkpt><trkpt lat="36.05269912826178" lon="-107.05016956059063"><ele>2217.0</ele><time>2026-05-03T16:00:45Z</time></trkpt><trkpt lat="36.05284636414676" lon="-107.05016398772588"><ele>2218.0</ele><time>2026-05-03T16:00:46Z</time></trkpt><trkpt lat="36.052984634938575" lon="-107.05018485178778"><ele>2219.0</ele><time>2026-05-03T16:00:47Z</time></trkpt><trkpt lat="36.05310110140308" lon="-107.05021155926109"><ele>2219.0</ele><time>2026-05-03T16:00:48Z</time></trkpt><trkpt lat="36.05321922641018" lon="-107.05022983912764"><ele>2219.0</ele><time>2026-05-03T16:00:49Z</time></trkpt><trkpt lat="36.0533120352593" lon="-107.05024318870346"><ele>2219.0</ele><time>2026-05-03T16:00:50Z</time></trkpt><trkpt lat="36.05341428539385" lon="-107.05031633705188"><ele>2219.0</ele><time>2026-05-03T16:00:51Z</time></trkpt><trkpt lat="36.05351829531306" lon="-107.05043047999465"><ele>2220.5</ele><time>2026-05-03T16:00:52Z</time></trkpt><trkpt lat="36.05363124114733" lon="-107.0505315348676"><ele>2222.0</ele><time>2026-05-03T16:00:53Z</time></trkpt><trkpt lat="36.053749297262534" lon="-107.05057149226273"><ele>2223.5</ele><time>2026-05-03T16:00:54Z</time></trkpt><trkpt lat="36.05387292610683" lon="-107.0505855234884"><ele>2225.0</ele><time>2026-05-03T16:00:55Z</time></trkpt><trkpt lat="36.05399489043271" lon="-107.05059373896158"><ele>2225.0</ele><time>2026-05-03T16:00:56Z</time></trkpt><trkpt lat="36.054088439588675" lon="-107.05064280200327"><ele>2225.0</ele><time>2026-05-03T16:00:57Z</time></trkpt><trkpt lat="36.05419399185156" lon="-107.05076173605889"><ele>2225.0</ele><time>2026-05-03T16:00:58Z</time></trkpt><trkpt lat="36.054295450486094" lon="-107.05086784699208"><ele>2225.0</ele><time>2026-05-03T16:00:59Z</time></trkpt><trkpt lat="36.05438810044345" lon="-107.05096901839664"><ele>2226.0</ele><time>2026-05-03T16:01:00Z</time></trkpt><trkpt lat="36.0544574709543" lon="-107.05106867835744"><ele>2227.0</ele><time>2026-05-03T16:01:01Z</time></trkpt><trkpt lat="36.054516708924034" lon="-107.0511736517704"><ele>2228.0</ele><time>2026-05-03T16:01:02Z</time></trkpt><trkpt lat="36.05457143034296" lon="-107.05125762414121"><ele>2229.0</ele><time>2026-05-03T16:01:03Z</time></trkpt><trkpt lat="36.05453340896156" lon="-107.05134017248756"><ele>2230.0</ele><time>2026-05-03T16:01:06Z</time></trkpt><trkpt lat="36.054571885179" lon="-107.05141500673105"><ele>2231.0</ele><time>2026-05-03T16:01:09Z</time></trkpt><trkpt lat="36.05465193048898" lon="-107.05146251479482"><ele>2231.0</ele><time>2026-05-03T16:01:10Z</time></trkpt><trkpt lat="36.05473840112261" lon="-107.0515122537602"><ele>2231.0</ele><time>2026-05-03T16:01:11Z</time></trkpt><trkpt lat="36.05482385015762" lon="-107.05156827907211"><ele>2231.0</ele><time>2026-05-03T16:01:12Z</time></trkpt><trkpt lat="36.054889989093944" lon="-107.05153863895671"><ele>2231.0</ele><time>2026-05-03T16:01:13Z</time></trkpt><trkpt lat="36.054958773614864" lon="-107.05146638024854"><ele>2231.0</ele><time>2026-05-03T16:01:14Z</time></trkpt><trkpt lat="36.05505800462361" lon="-107.05140816830796"><ele>2231.6666666666665</ele><time>2026-05-03T16:01:15Z</time></trkpt><trkpt lat="36.05513169128371" lon="-107.05138284184844"><ele>2232.333333333333</ele><time>2026-05-03T16:01:16.001Z</time></trkpt><trkpt lat="36.05522317943507" lon="-107.0514112690105"><ele>2233.0</ele><time>2026-05-03T16:01:18.001Z</time></trkpt><trkpt lat="36.055303133807406" lon="-107.05144950601618"><ele>2233.6666666666665</ele><time>2026-05-03T16:01:19.001Z</time></trkpt><trkpt lat="36.05539330283257" lon="-107.0514674496199"><ele>2234.3333333333335</ele><time>2026-05-03T16:01:20.001Z</time></trkpt><trkpt lat="36.055470157963676" lon="-107.05141512711276"><ele>2235.0</ele><time>2026-05-03T16:01:21.001Z</time></trkpt><trkpt lat="36.05555188395411" lon="-107.05136879183135"><ele>2235.0</ele><time>2026-05-03T16:01:22.001Z</time></trkpt><trkpt lat="36.05562432831356" lon="-107.05134785427619"><ele>2235.0</ele><time>2026-05-03T16:01:23.001Z</time></trkpt><trkpt lat="36.05568519090829" lon="-107.05131972508234"><ele>2235.0</ele><time>2026-05-03T16:01:24.001Z</time></trkpt><trkpt lat="36.05574326012881" lon="-107.05124347767955"><ele>2235.0</ele><time>2026-05-03T16:01:25.001Z</time></trkpt><trkpt lat="36.055798351668145" lon="-107.05112169209049"><ele>2235.0</ele><time>2026-05-03T16:01:26.001Z</time></trkpt><trkpt lat="36.05585944069352" lon="-107.05098615581944"><ele>2236.0</ele><time>2026-05-03T16:01:27.001Z</time></trkpt><trkpt lat="36.05594287438327" lon="-107.0508673174899"><ele>2237.0</ele><time>2026-05-03T16:01:28.001Z</time></trkpt><trkpt lat="36.05603155871537" lon="-107.05076337856009"><ele>2238.0</ele><time>2026-05-03T16:01:29.001Z</time></trkpt><trkpt lat="36.056119346820736" lon="-107.05068173115625"><ele>2239.0</ele><time>2026-05-03T16:01:30.001Z</time></trkpt><trkpt lat="36.05619996412801" lon="-107.05059688319174"><ele>2239.25</ele><time>2026-05-03T16:01:31.001Z</time></trkpt><trkpt lat="36.0562925752723" lon="-107.05050273710131"><ele>2239.5</ele><time>2026-05-03T16:01:32.001Z</time></trkpt><trkpt lat="36.056392010330484" lon="-107.05038037127619"><ele>2239.75</ele><time>2026-05-03T16:01:33.001Z</time></trkpt><trkpt lat="36.05649179304395" lon="-107.05026604548381"><ele>2240.0</ele><time>2026-05-03T16:01:34.001Z</time></trkpt><trkpt lat="36.0565729029522" lon="-107.05016585557199"><ele>2239.8</ele><time>2026-05-03T16:01:35.001Z</time></trkpt><trkpt lat="36.05662921990387" lon="-107.05008572401698"><ele>2239.6</ele><time>2026-05-03T16:01:36.001Z</time></trkpt><trkpt lat="36.056669951237275" lon="-107.04999705983334"><ele>2239.4</ele><time>2026-05-03T16:01:37.001Z</time></trkpt><trkpt lat="36.056712460543054" lon="-107.04988364829823"><ele>2239.2</ele><time>2026-05-03T16:01:38.001Z</time></trkpt><trkpt lat="36.05673912187304" lon="-107.04977523742863"><ele>2239.0</ele><time>2026-05-03T16:01:39.001Z</time></trkpt><trkpt lat="36.056714020879504" lon="-107.04965010695354"><ele>2238.25</ele><time>2026-05-03T16:01:40.001Z</time></trkpt><trkpt lat="36.05670774709216" lon="-107.04952432673697"><ele>2237.5</ele><time>2026-05-03T16:01:41.001Z</time></trkpt><trkpt lat="36.056745530046925" lon="-107.0493882318309"><ele>2236.75</ele><time>2026-05-03T16:01:42.001Z</time></trkpt><trkpt lat="36.056787040887784" lon="-107.04922939893206"><ele>2236.0</ele><time>2026-05-03T16:01:43.001Z</time></trkpt><trkpt lat="36.05681842176482" lon="-107.04908606567508"><ele>2235.5</ele><time>2026-05-03T16:01:44.001Z</time></trkpt><trkpt lat="36.0568348654442" lon="-107.0489347836176"><ele>2235.0</ele><time>2026-05-03T16:01:45.001Z</time></trkpt><trkpt lat="36.05683945211889" lon="-107.0487725820826"><ele>2234.5</ele><time>2026-05-03T16:01:46.001Z</time></trkpt><trkpt lat="36.05684389654972" lon="-107.04860859536585"><ele>2234.0</ele><time>2026-05-03T16:01:47.001Z</time></trkpt><trkpt lat="36.05684452306026" lon="-107.04848182422431"><ele>2234.0</ele><time>2026-05-03T16:01:48.001Z</time></trkpt><trkpt lat="36.056845193939964" lon="-107.04835797766036"><ele>2234.0</ele><time>2026-05-03T16:01:49.001Z</time></trkpt><trkpt lat="36.05684875196489" lon="-107.04820977185749"><ele>2234.0</ele><time>2026-05-03T16:01:50.001Z</time></trkpt><trkpt lat="36.05686224539787" lon="-107.04807246678833"><ele>2234.0</ele><time>2026-05-03T16:01:51.001Z</time></trkpt><trkpt lat="36.05686050226716" lon="-107.04796578471772"><ele>2234.0</ele><time>2026-05-03T16:01:52.001Z</time></trkpt><trkpt lat="36.056868589727934" lon="-107.04786210767425"><ele>2233.2</ele><time>2026-05-03T16:01:53.001Z</time></trkpt><trkpt lat="36.0568882619132" lon="-107.04775292663058"><ele>2232.4</ele><time>2026-05-03T16:01:54.001Z</time></trkpt><trkpt lat="36.056928107076054" lon="-107.04764016599239"><ele>2231.6</ele><time>2026-05-03T16:01:55Z</time></trkpt><trkpt lat="36.05694330404375" lon="-107.04750634166761"><ele>2230.8</ele><time>2026-05-03T16:01:56Z</time></trkpt><trkpt lat="36.05693439865626" lon="-107.04739168987311"><ele>2230.0</ele><time>2026-05-03T16:01:57Z</time></trkpt><trkpt lat="36.05691334620689" lon="-107.04724645756431"><ele>2228.75</ele><time>2026-05-03T16:01:58Z</time></trkpt><trkpt lat="36.05689803540469" lon="-107.04708419923216"><ele>2227.5</ele><time>2026-05-03T16:01:59Z</time></trkpt><trkpt lat="36.056882861440975" lon="-107.04691770310802"><ele>2226.25</ele><time>2026-05-03T16:02:00Z</time></trkpt><trkpt lat="36.056868333456585" lon="-107.04674982190086"><ele>2225.0</ele><time>2026-05-03T16:02:01Z</time></trkpt><trkpt lat="36.056857074032735" lon="-107.0465877572585"><ele>2225.0</ele><time>2026-05-03T16:02:02Z</time></trkpt><trkpt lat="36.05685270876114" lon="-107.04644704083906"><ele>2225.0</ele><time>2026-05-03T16:02:03Z</time></trkpt><trkpt lat="36.05685803982096" lon="-107.04632505775238"><ele>2225.0</ele><time>2026-05-03T16:02:04Z</time></trkpt><trkpt lat="36.05686223605023" lon="-107.04622261624297"><ele>2225.0</ele><time>2026-05-03T16:02:05Z</time></trkpt><trkpt lat="36.05690430687794" lon="-107.04610246348888"><ele>2225.0</ele><time>2026-05-03T16:02:07Z</time></trkpt><trkpt lat="36.05695480040231" lon="-107.04605488526833"><ele>2225.0</ele><time>2026-05-03T16:02:09Z</time></trkpt><trkpt lat="36.05689949800238" lon="-107.04601282351979"><ele>2225.0</ele><time>2026-05-03T16:02:10Z</time></trkpt><trkpt lat="36.05681709365302" lon="-107.04601148869865"><ele>2225.0</ele><time>2026-05-03T16:02:11Z</time></trkpt><trkpt lat="36.05671693282523" lon="-107.04603434285075"><ele>2225.0</ele><time>2026-05-03T16:02:12Z</time></trkpt><trkpt lat="36.056596773391455" lon="-107.0460582407139"><ele>2225.0</ele><time>2026-05-03T16:02:13Z</time></trkpt><trkpt lat="36.05645812938928" lon="-107.04608110798827"><ele>2227.25</ele><time>2026-05-03T16:02:14Z</time></trkpt><trkpt lat="36.05631160488056" lon="-107.04609389124634"><ele>2229.5</ele><time>2026-05-03T16:02:15Z</time></trkpt><trkpt lat="36.05615414257321" lon="-107.04607540302216"><ele>2231.75</ele><time>2026-05-03T16:02:16Z</time></trkpt><trkpt lat="36.05605109866312" lon="-107.04607743501072"><ele>2234.0</ele><time>2026-05-03T16:02:17Z</time></trkpt><trkpt lat="36.0559806510111" lon="-107.04602920425734"><ele>2234.0</ele><time>2026-05-03T16:02:19Z</time></trkpt><trkpt lat="36.05592704923254" lon="-107.04595367139602"><ele>2234.0</ele><time>2026-05-03T16:02:20Z</time></trkpt><trkpt lat="36.05589802676193" lon="-107.04586958100049"><ele>2234.0</ele><time>2026-05-03T16:02:21Z</time></trkpt><trkpt lat="36.05587709040348" lon="-107.04572906160394"><ele>2234.0</ele><time>2026-05-03T16:02:23Z</time></trkpt><trkpt lat="36.05578634617372" lon="-107.04572008669214"><ele>2234.0</ele><time>2026-05-03T16:02:25Z</time></trkpt><trkpt lat="36.05572013358908" lon="-107.0457353789345"><ele>2234.0</ele><time>2026-05-03T16:02:26Z</time></trkpt><trkpt lat="36.05560389188205" lon="-107.04567675378657"><ele>2235.2</ele><time>2026-05-03T16:02:28Z</time></trkpt><trkpt lat="36.055520977155176" lon="-107.04559882952941"><ele>2236.4</ele><time>2026-05-03T16:02:29Z</time></trkpt><trkpt lat="36.05545065227046" lon="-107.04551202290027"><ele>2237.6</ele><time>2026-05-03T16:02:30Z</time></trkpt><trkpt lat="36.05538353804026" lon="-107.04540469604574"><ele>2238.8</ele><time>2026-05-03T16:02:31Z</time></trkpt><trkpt lat="36.05531539207998" lon="-107.04531511268114"><ele>2240.0</ele><time>2026-05-03T16:02:32Z</time></trkpt><trkpt lat="36.05523521562062" lon="-107.04526425258196"><ele>2240.0</ele><time>2026-05-03T16:02:33Z</time></trkpt><trkpt lat="36.05513772850037" lon="-107.04523128506031"><ele>2240.0</ele><time>2026-05-03T16:02:34Z</time></trkpt><trkpt lat="36.05503849949575" lon="-107.04522540519552"><ele>2240.0</ele><time>2026-05-03T16:02:35Z</time></trkpt><trkpt lat="36.054940439532885" lon="-107.04521130366338"><ele>2240.0</ele><time>2026-05-03T16:02:36Z</time></trkpt><trkpt lat="36.054875985183436" lon="-107.04516842610636"><ele>2240.0</ele><time>2026-05-03T16:02:37Z</time></trkpt><trkpt lat="36.05483981976096" lon="-107.04507617790065"><ele>2239.833333333333</ele><time>2026-05-03T16:02:38Z</time></trkpt><trkpt lat="36.05484691071086" lon="-107.04496170087728"><ele>2239.6666666666665</ele><time>2026-05-03T16:02:39Z</time></trkpt><trkpt lat="36.0548932658713" lon="-107.04485952584237"><ele>2239.5</ele><time>2026-05-03T16:02:40Z</time></trkpt><trkpt lat="36.054958008937234" lon="-107.04479494063389"><ele>2239.3333333333335</ele><time>2026-05-03T16:02:41Z</time></trkpt><trkpt lat="36.05502918557829" lon="-107.0447732237288"><ele>2239.166666666667</ele><time>2026-05-03T16:02:42Z</time></trkpt><trkpt lat="36.05509871538027" lon="-107.04478209472136"><ele>2239.0</ele><time>2026-05-03T16:02:43Z</time></trkpt><trkpt lat="36.055164392777215" lon="-107.04468694389686"><ele>2239.0</ele><time>2026-05-03T16:02:45Z</time></trkpt><trkpt lat="36.055237461507225" lon="-107.0446070416067"><ele>2239.0</ele><time>2026-05-03T16:02:46Z</time></trkpt><trkpt lat="36.0553113352755" lon="-107.0445434688175"><ele>2239.0</ele><time>2026-05-03T16:02:47Z</time></trkpt><trkpt lat="36.05536790699662" lon="-107.04444342185222"><ele>2239.0</ele><time>2026-05-03T16:02:48Z</time></trkpt><trkpt lat="36.05535568901931" lon="-107.04434101645407"><ele>2239.0</ele><time>2026-05-03T16:02:50Z</time></trkpt><trkpt lat="36.05525551183696" lon="-107.04427474445602"><ele>2239.0</ele><time>2026-05-03T16:02:53Z</time></trkpt><trkpt lat="36.055169497739094" lon="-107.04417720756074"><ele>2239.0</ele><time>2026-05-03T16:02:54Z</time></trkpt><trkpt lat="36.0550903945793" lon="-107.04408035033606"><ele>2239.0</ele><time>2026-05-03T16:02:55Z</time></trkpt><trkpt lat="36.05506398271165" lon="-107.04399845364178"><ele>2239.0</ele><time>2026-05-03T16:02:56Z</time></trkpt><trkpt lat="36.05503699479646" lon="-107.0438881641933"><ele>2239.0</ele><time>2026-05-03T16:02:57Z</time></trkpt><trkpt lat="36.05497173916113" lon="-107.04379485545769"><ele>2237.0</ele><time>2026-05-03T16:02:58Z</time></trkpt><trkpt lat="36.05487667191419" lon="-107.04371878237161"><ele>2235.0</ele><time>2026-05-03T16:02:59Z</time></trkpt><trkpt lat="36.05478911161586" lon="-107.04363299987669"><ele>2233.0</ele><time>2026-05-03T16:03:00Z</time></trkpt><trkpt lat="36.05473390641792" lon="-107.04353204465595"><ele>2231.0</ele><time>2026-05-03T16:03:01Z</time></trkpt><trkpt lat="36.05469440389075" lon="-107.04345187071917"><ele>2229.0</ele><time>2026-05-03T16:03:02Z</time></trkpt><trkpt lat="36.054676559691266" lon="-107.04336988200507"><ele>2228.4</ele><time>2026-05-03T16:03:03Z</time></trkpt><trkpt lat="36.054672013541825" lon="-107.0432830738984"><ele>2227.8</ele><time>2026-05-03T16:03:04Z</time></trkpt><trkpt lat="36.05464849753252" lon="-107.04317542681507"><ele>2227.2</ele><time>2026-05-03T16:03:06Z</time></trkpt><trkpt lat="36.05464651837741" lon="-107.04302234465285"><ele>2226.6</ele><time>2026-05-03T16:03:09Z</time></trkpt><trkpt lat="36.05462159970076" lon="-107.04292123578148"><ele>2226.0</ele><time>2026-05-03T16:03:10Z</time></trkpt><trkpt lat="36.05457174503102" lon="-107.0428272809737"><ele>2226.0</ele><time>2026-05-03T16:03:11Z</time></trkpt><trkpt lat="36.054502409825105" lon="-107.04274000025605"><ele>2226.0</ele><time>2026-05-03T16:03:12Z</time></trkpt><trkpt lat="36.054457191258585" lon="-107.0426431951314"><ele>2226.0</ele><time>2026-05-03T16:03:13Z</time></trkpt><trkpt lat="36.05443167254798" lon="-107.04251603857045"><ele>2226.0</ele><time>2026-05-03T16:03:14Z</time></trkpt><trkpt lat="36.054380122936195" lon="-107.04240022551107"><ele>2226.0</ele><time>2026-05-03T16:03:15Z</time></trkpt><trkpt lat="36.054317704548104" lon="-107.04230422741838"><ele>2225.0</ele><time>2026-05-03T16:03:16Z</time></trkpt><trkpt lat="36.054269308743514" lon="-107.04223279489034"><ele>2224.0</ele><time>2026-05-03T16:03:17Z</time></trkpt><trkpt lat="36.05420724572426" lon="-107.04217465233457"><ele>2223.0</ele><time>2026-05-03T16:03:18Z</time></trkpt><trkpt lat="36.05412840249113" lon="-107.04211447165117"><ele>2222.0</ele><time>2026-05-03T16:03:20Z</time></trkpt><trkpt lat="36.05411389327426" lon="-107.04200866318763"><ele>2221.0</ele><time>2026-05-03T16:03:22Z</time></trkpt><trkpt lat="36.054096841337845" lon="-107.04187208809816"><ele>2220.0</ele><time>2026-05-03T16:03:23Z</time></trkpt><trkpt lat="36.05405314485691" lon="-107.04176579124946"><ele>2219.5</ele><time>2026-05-03T16:03:24Z</time></trkpt><trkpt lat="36.053996912300114" lon="-107.04168919379418"><ele>2219.0</ele><time>2026-05-03T16:03:25Z</time></trkpt><trkpt lat="36.05395689924283" lon="-107.04160889236289"><ele>2218.5</ele><time>2026-05-03T16:03:26Z</time></trkpt><trkpt lat="36.05392070059345" lon="-107.04150320527732"><ele>2218.0</ele><time>2026-05-03T16:03:27.001Z</time></trkpt><trkpt lat="36.05388700613737" lon="-107.04140325765239"><ele>2217.5</ele><time>2026-05-03T16:03:28.001Z</time></trkpt><trkpt lat="36.0538690120643" lon="-107.04130731546577"><ele>2217.0</ele><time>2026-05-03T16:03:29.001Z</time></trkpt><trkpt lat="36.05384952896847" lon="-107.04122222613847"><ele>2216.6</ele><time>2026-05-03T16:03:30.001Z</time></trkpt><trkpt lat="36.05379165865756" lon="-107.0411728909508"><ele>2216.2</ele><time>2026-05-03T16:03:31.001Z</time></trkpt><trkpt lat="36.05371279733536" lon="-107.04110024093964"><ele>2215.8</ele><time>2026-05-03T16:03:32.001Z</time></trkpt><trkpt lat="36.05363242879067" lon="-107.04103873153568"><ele>2215.4</ele><time>2026-05-03T16:03:33.001Z</time></trkpt><trkpt lat="36.05353410198869" lon="-107.04097906907715"><ele>2215.0</ele><time>2026-05-03T16:03:34.001Z</time></trkpt><trkpt lat="36.053439700811055" lon="-107.04090090350566"><ele>2215.0</ele><time>2026-05-03T16:03:35.001Z</time></trkpt><trkpt lat="36.053363932932136" lon="-107.04083055879502"><ele>2215.0</ele><time>2026-05-03T16:03:36.001Z</time></trkpt><trkpt lat="36.053283045547936" lon="-107.04076267930698"><ele>2215.0</ele><time>2026-05-03T16:03:38.001Z</time></trkpt><trkpt lat="36.05321986307533" lon="-107.04073405521325"><ele>2215.0</ele><time>2026-05-03T16:03:39.001Z</time></trkpt><trkpt lat="36.053140130156216" lon="-107.04070531415258"><ele>2215.0</ele><time>2026-05-03T16:03:40.001Z</time></trkpt><trkpt lat="36.053025756036455" lon="-107.04072627564997"><ele>2214.0</ele><time>2026-05-03T16:03:42.001Z</time></trkpt><trkpt lat="36.0529648632266" lon="-107.04077131829595"><ele>2213.0</ele><time>2026-05-03T16:03:43.001Z</time></trkpt><trkpt lat="36.05290197600274" lon="-107.04080191007678"><ele>2212.0</ele><time>2026-05-03T16:03:44.001Z</time></trkpt><trkpt lat="36.05283290800311" lon="-107.04078487860046"><ele>2211.0</ele><time>2026-05-03T16:03:45.001Z</time></trkpt><trkpt lat="36.052784819767496" lon="-107.04067909336149"><ele>2210.0</ele><time>2026-05-03T16:03:47.001Z</time></trkpt><trkpt lat="36.05279810198692" lon="-107.04058516757269"><ele>2209.0</ele><time>2026-05-03T16:03:48.001Z</time></trkpt><trkpt lat="36.05279634259843" lon="-107.04048896902104"><ele>2209.0</ele><time>2026-05-03T16:03:49.001Z</time></trkpt><trkpt lat="36.05288324355457" lon="-107.04032343970545"><ele>2209.0</ele><time>2026-05-03T16:03:51.001Z</time></trkpt><trkpt lat="36.05292098622332" lon="-107.04019856346518"><ele>2209.0</ele><time>2026-05-03T16:03:52.001Z</time></trkpt><trkpt lat="36.05292102543854" lon="-107.04010186955956"><ele>2209.0</ele><time>2026-05-03T16:03:53.001Z</time></trkpt><trkpt lat="36.05285275615354" lon="-107.0399965332556"><ele>2207.6</ele><time>2026-05-03T16:03:55.001Z</time></trkpt><trkpt lat="36.05282347270512" lon="-107.03989634304936"><ele>2206.2</ele><time>2026-05-03T16:03:57.001Z</time></trkpt><trkpt lat="36.052858284711824" lon="-107.03982216072097"><ele>2204.7999999999997</ele><time>2026-05-03T16:03:58.001Z</time></trkpt><trkpt lat="36.05291851483814" lon="-107.0397225569803"><ele>2203.4</ele><time>2026-05-03T16:03:59.001Z</time></trkpt><trkpt lat="36.052976244355385" lon="-107.03963001941679"><ele>2202.0</ele><time>2026-05-03T16:04:00.001Z</time></trkpt><trkpt lat="36.053068681433075" lon="-107.03953008673119"><ele>2202.0</ele><time>2026-05-03T16:04:02Z</time></trkpt><trkpt lat="36.05312746081201" lon="-107.03947848117862"><ele>2202.0</ele><time>2026-05-03T16:04:03Z</time></trkpt><trkpt lat="36.053183928177404" lon="-107.03944160446194"><ele>2202.0</ele><time>2026-05-03T16:04:04Z</time></trkpt><trkpt lat="36.05326908887984" lon="-107.03938788061336"><ele>2202.0</ele><time>2026-05-03T16:04:05Z</time></trkpt><trkpt lat="36.05334432231221" lon="-107.03933188990203"><ele>2202.0</ele><time>2026-05-03T16:04:06Z</time></trkpt><trkpt lat="36.05342437802518" lon="-107.03924020000764"><ele>2202.0</ele><time>2026-05-03T16:04:08Z</time></trkpt><trkpt lat="36.05349917662575" lon="-107.03918765562754"><ele>2201.1666666666665</ele><time>2026-05-03T16:04:10Z</time></trkpt><trkpt lat="36.05354972213168" lon="-107.03908874748119"><ele>2200.3333333333335</ele><time>2026-05-03T16:04:11Z</time></trkpt><trkpt lat="36.053598404976924" lon="-107.03896972064182"><ele>2199.5</ele><time>2026-05-03T16:04:12Z</time></trkpt><trkpt lat="36.05363074755066" lon="-107.0388977423982"><ele>2198.666666666667</ele><time>2026-05-03T16:04:13Z</time></trkpt><trkpt lat="36.05361280256651" lon="-107.03880281781119"><ele>2197.8333333333335</ele><time>2026-05-03T16:04:15Z</time></trkpt><trkpt lat="36.05356717191113" lon="-107.03870414717551"><ele>2197.0</ele><time>2026-05-03T16:04:16Z</time></trkpt><trkpt lat="36.05352707815542" lon="-107.03858588722179"><ele>2197.0</ele><time>2026-05-03T16:04:17Z</time></trkpt><trkpt lat="36.05348979460003" lon="-107.03846066525954"><ele>2197.0</ele><time>2026-05-03T16:04:18Z</time></trkpt><trkpt lat="36.05342751977151" lon="-107.03840398685341"><ele>2197.0</ele><time>2026-05-03T16:04:19Z</time></trkpt><trkpt lat="36.053327760730475" lon="-107.03835462692662"><ele>2197.0</ele><time>2026-05-03T16:04:20Z</time></trkpt><trkpt lat="36.05319302018257" lon="-107.03828430396536"><ele>2197.0</ele><time>2026-05-03T16:04:21Z</time></trkpt><trkpt lat="36.05304989211298" lon="-107.03819365053586"><ele>2195.4</ele><time>2026-05-03T16:04:22Z</time></trkpt><trkpt lat="36.052928447255674" lon="-107.03810671246782"><ele>2193.7999999999997</ele><time>2026-05-03T16:04:23Z</time></trkpt><trkpt lat="36.052836442326594" lon="-107.03804339123211"><ele>2192.2</ele><time>2026-05-03T16:04:24Z</time></trkpt><trkpt lat="36.05275645616612" lon="-107.03799114595715"><ele>2190.6</ele><time>2026-05-03T16:04:25Z</time></trkpt><trkpt lat="36.052681297979355" lon="-107.03795080007886"><ele>2189.0</ele><time>2026-05-03T16:04:26Z</time></trkpt><trkpt lat="36.05260397894769" lon="-107.03791632897327"><ele>2189.0</ele><time>2026-05-03T16:04:27Z</time></trkpt><trkpt lat="36.052518245583656" lon="-107.03788904218395"><ele>2189.0</ele><time>2026-05-03T16:04:28Z</time></trkpt><trkpt lat="36.05240666268671" lon="-107.03785883996349"><ele>2189.0</ele><time>2026-05-03T16:04:29Z</time></trkpt><trkpt lat="36.052266145934134" lon="-107.0378130319397"><ele>2189.0</ele><time>2026-05-03T16:04:30Z</time></trkpt><trkpt lat="36.05212463625815" lon="-107.03775692648523"><ele>2189.25</ele><time>2026-05-03T16:04:31Z</time></trkpt><trkpt lat="36.05198422261946" lon="-107.03769762700692"><ele>2189.5</ele><time>2026-05-03T16:04:32Z</time></trkpt><trkpt lat="36.05185605487082" lon="-107.03764736156306"><ele>2189.75</ele><time>2026-05-03T16:04:33Z</time></trkpt><trkpt lat="36.05170612943369" lon="-107.03759490137485"><ele>2190.0</ele><time>2026-05-03T16:04:34Z</time></trkpt><trkpt lat="36.05155939280172" lon="-107.03754868362624"><ele>2190.25</ele><time>2026-05-03T16:04:35.001Z</time></trkpt><trkpt lat="36.051398706268756" lon="-107.0375006813979"><ele>2190.5</ele><time>2026-05-03T16:04:36.001Z</time></trkpt><trkpt lat="36.05125251407991" lon="-107.03744597240684"><ele>2190.75</ele><time>2026-05-03T16:04:37.001Z</time></trkpt><trkpt lat="36.051132622762395" lon="-107.03739174564747"><ele>2191.0</ele><time>2026-05-03T16:04:38.001Z</time></trkpt><trkpt lat="36.05104896054805" lon="-107.03732519516745"><ele>2191.0</ele><time>2026-05-03T16:04:39.001Z</time></trkpt><trkpt lat="36.05095702448113" lon="-107.03720555082253"><ele>2191.0</ele><time>2026-05-03T16:04:40.001Z</time></trkpt><trkpt lat="36.05085770540792" lon="-107.037100359684"><ele>2191.0</ele><time>2026-05-03T16:04:41.001Z</time></trkpt><trkpt lat="36.050757512917116" lon="-107.03702153532001"><ele>2191.0</ele><time>2026-05-03T16:04:42.001Z</time></trkpt><trkpt lat="36.05064436585033" lon="-107.03695719287798"><ele>2191.0</ele><time>2026-05-03T16:04:43.001Z</time></trkpt><trkpt lat="36.05052287714982" lon="-107.03691150302525"><ele>2191.0</ele><time>2026-05-03T16:04:44.001Z</time></trkpt><trkpt lat="36.05039877938377" lon="-107.03686730952917"><ele>2191.0</ele><time>2026-05-03T16:04:45.001Z</time></trkpt><trkpt lat="36.05026804080189" lon="-107.0368188051808"><ele>2191.0</ele><time>2026-05-03T16:04:46.001Z</time></trkpt><trkpt lat="36.05015128759192" lon="-107.03676689249187"><ele>2191.0</ele><time>2026-05-03T16:04:47.001Z</time></trkpt><trkpt lat="36.05003887372099" lon="-107.0367302678798"><ele>2191.0</ele><time>2026-05-03T16:04:48.001Z</time></trkpt><trkpt lat="36.04993105423006" lon="-107.03670487769797"><ele>2191.0</ele><time>2026-05-03T16:04:49.001Z</time></trkpt><trkpt lat="36.04983202260207" lon="-107.0366777911838"><ele>2191.0</ele><time>2026-05-03T16:04:50.001Z</time></trkpt><trkpt lat="36.049745633575995" lon="-107.03664837156151"><ele>2191.0</ele><time>2026-05-03T16:04:51.001Z</time></trkpt><trkpt lat="36.04965463367423" lon="-107.0366569927395"><ele>2190.8333333333335</ele><time>2026-05-03T16:04:52.001Z</time></trkpt><trkpt lat="36.04956014182589" lon="-107.03668085749537"><ele>2190.666666666667</ele><time>2026-05-03T16:04:53.001Z</time></trkpt><trkpt lat="36.04947655359608" lon="-107.0366820232385"><ele>2190.5</ele><time>2026-05-03T16:04:54.001Z</time></trkpt><trkpt lat="36.0494070673258" lon="-107.03664228910426"><ele>2190.3333333333335</ele><time>2026-05-03T16:04:55.001Z</time></trkpt><trkpt lat="36.04933785098633" lon="-107.03657563748669"><ele>2190.1666666666665</ele><time>2026-05-03T16:04:56.001Z</time></trkpt><trkpt lat="36.04927707269701" lon="-107.03655416439547"><ele>2190.0</ele><time>2026-05-03T16:04:57.001Z</time></trkpt><trkpt lat="36.04920716473175" lon="-107.03654471294514"><ele>2188.75</ele><time>2026-05-03T16:04:58.001Z</time></trkpt><trkpt lat="36.049115942663825" lon="-107.03652555364809"><ele>2187.5</ele><time>2026-05-03T16:04:59.001Z</time></trkpt><trkpt lat="36.04899222012702" lon="-107.03651260328003"><ele>2186.25</ele><time>2026-05-03T16:05:00.001Z</time></trkpt><trkpt lat="36.04884575029491" lon="-107.03644176276325"><ele>2185.0</ele><time>2026-05-03T16:05:01.001Z</time></trkpt><trkpt lat="36.04872969250063" lon="-107.03636535089646"><ele>2185.0</ele><time>2026-05-03T16:05:02.001Z</time></trkpt><trkpt lat="36.04861757362934" lon="-107.03630498826863"><ele>2185.0</ele><time>2026-05-03T16:05:03.001Z</time></trkpt><trkpt lat="36.04849623430845" lon="-107.03626385562279"><ele>2185.0</ele><time>2026-05-03T16:05:04.001Z</time></trkpt><trkpt lat="36.0483730618153" lon="-107.03623067911104"><ele>2185.0</ele><time>2026-05-03T16:05:05.001Z</time></trkpt><trkpt lat="36.04824412471268" lon="-107.03621274081364"><ele>2185.75</ele><time>2026-05-03T16:05:06.001Z</time></trkpt><trkpt lat="36.048137174119155" lon="-107.0361947957651"><ele>2186.5</ele><time>2026-05-03T16:05:07.001Z</time></trkpt><trkpt lat="36.04804419849903" lon="-107.03615425064945"><ele>2187.25</ele><time>2026-05-03T16:05:08.001Z</time></trkpt><trkpt lat="36.04793307748536" lon="-107.03608308195018"><ele>2188.0</ele><time>2026-05-03T16:05:09.001Z</time></trkpt><trkpt lat="36.0478088693233" lon="-107.03600983397095"><ele>2188.0</ele><time>2026-05-03T16:05:10.001Z</time></trkpt><trkpt lat="36.04767485050924" lon="-107.03596454347795"><ele>2188.0</ele><time>2026-05-03T16:05:11.001Z</time></trkpt><trkpt lat="36.04752057497912" lon="-107.0359354618058"><ele>2188.0</ele><time>2026-05-03T16:05:12.001Z</time></trkpt><trkpt lat="36.04736459392227" lon="-107.03590057435449"><ele>2188.0</ele><time>2026-05-03T16:05:13.001Z</time></trkpt><trkpt lat="36.04722956335591" lon="-107.0358762460851"><ele>2188.0</ele><time>2026-05-03T16:05:14.001Z</time></trkpt><trkpt lat="36.047114829289455" lon="-107.03584276736441"><ele>2188.0</ele><time>2026-05-03T16:05:15.001Z</time></trkpt><trkpt lat="36.04699919111184" lon="-107.03581751326703"><ele>2188.0</ele><time>2026-05-03T16:05:16.001Z</time></trkpt><trkpt lat="36.046880296279156" lon="-107.0358005030342"><ele>2187.2000000000003</ele><time>2026-05-03T16:05:17.001Z</time></trkpt><trkpt lat="36.04676168362369" lon="-107.0357833672657"><ele>2186.4</ele><time>2026-05-03T16:05:18.001Z</time></trkpt><trkpt lat="36.046686471424906" lon="-107.03576092934753"><ele>2185.6000000000004</ele><time>2026-05-03T16:05:19.001Z</time></trkpt><trkpt lat="36.04661668050619" lon="-107.03570851812684"><ele>2184.8</ele><time>2026-05-03T16:05:20.001Z</time></trkpt><trkpt lat="36.04651515046494" lon="-107.03566706841671"><ele>2184.0</ele><time>2026-05-03T16:05:21.001Z</time></trkpt><trkpt lat="36.046385396870434" lon="-107.03561637668774"><ele>2184.0</ele><time>2026-05-03T16:05:22.001Z</time></trkpt><trkpt lat="36.046280085278205" lon="-107.03557480428604"><ele>2184.0</ele><time>2026-05-03T16:05:23.001Z</time></trkpt><trkpt lat="36.0461756246999" lon="-107.03553259502603"><ele>2184.0</ele><time>2026-05-03T16:05:24.001Z</time></trkpt><trkpt lat="36.04605789981924" lon="-107.03549361040109"><ele>2184.0</ele><time>2026-05-03T16:05:25.001Z</time></trkpt><trkpt lat="36.045931685155075" lon="-107.03545614830182"><ele>2184.0</ele><time>2026-05-03T16:05:26.001Z</time></trkpt><trkpt lat="36.04581612354986" lon="-107.03541333394648"><ele>2184.0</ele><time>2026-05-03T16:05:27.001Z</time></trkpt><trkpt lat="36.04572868590618" lon="-107.03537174604652"><ele>2184.0</ele><time>2026-05-03T16:05:28.001Z</time></trkpt><trkpt lat="36.04565719549198" lon="-107.0353524591265"><ele>2184.0</ele><time>2026-05-03T16:05:29.001Z</time></trkpt><trkpt lat="36.045568215928604" lon="-107.03536992989814"><ele>2184.0</ele><time>2026-05-03T16:05:30.001Z</time></trkpt><trkpt lat="36.045481956840206" lon="-107.03540746140207"><ele>2185.0</ele><time>2026-05-03T16:05:31.001Z</time></trkpt><trkpt lat="36.04540312716188" lon="-107.03545089965884"><ele>2186.0</ele><time>2026-05-03T16:05:32.001Z</time></trkpt><trkpt lat="36.04531822539207" lon="-107.03546459330913"><ele>2187.0</ele><time>2026-05-03T16:05:33.001Z</time></trkpt><trkpt lat="36.04520605612948" lon="-107.03543524354237"><ele>2188.0</ele><time>2026-05-03T16:05:34.002Z</time></trkpt><trkpt lat="36.04509187923004" lon="-107.03541942068472"><ele>2189.0</ele><time>2026-05-03T16:05:35.002Z</time></trkpt><trkpt lat="36.04498554301547" lon="-107.03543573183252"><ele>2188.5</ele><time>2026-05-03T16:05:36.002Z</time></trkpt><trkpt lat="36.044871563407035" lon="-107.03545301750421"><ele>2188.0</ele><time>2026-05-03T16:05:37.002Z</time></trkpt><trkpt lat="36.04476495757827" lon="-107.0354347200234"><ele>2187.5</ele><time>2026-05-03T16:05:38.002Z</time></trkpt><trkpt lat="36.044634255057844" lon="-107.03539111659883"><ele>2187.0</ele><time>2026-05-03T16:05:39.002Z</time></trkpt><trkpt lat="36.04450595268742" lon="-107.03538263228505"><ele>2187.0</ele><time>2026-05-03T16:05:40.002Z</time></trkpt><trkpt lat="36.04438437310661" lon="-107.03539237165873"><ele>2187.0</ele><time>2026-05-03T16:05:41.002Z</time></trkpt><trkpt lat="36.04427872494293" lon="-107.03537315751727"><ele>2187.0</ele><time>2026-05-03T16:05:42.002Z</time></trkpt><trkpt lat="36.04417532295775" lon="-107.03531965159009"><ele>2187.0</ele><time>2026-05-03T16:05:43.002Z</time></trkpt><trkpt lat="36.04406940527721" lon="-107.03527347530759"><ele>2186.75</ele><time>2026-05-03T16:05:44.002Z</time></trkpt><trkpt lat="36.04397780260815" lon="-107.03525880920762"><ele>2186.5</ele><time>2026-05-03T16:05:45.002Z</time></trkpt><trkpt lat="36.04386363441496" lon="-107.03525187868789"><ele>2186.25</ele><time>2026-05-03T16:05:46.002Z</time></trkpt><trkpt lat="36.04372620851178" lon="-107.03524202141273"><ele>2186.0</ele><time>2026-05-03T16:05:47.002Z</time></trkpt><trkpt lat="36.04356810978016" lon="-107.03520198203832"><ele>2186.0</ele><time>2026-05-03T16:05:48.002Z</time></trkpt><trkpt lat="36.04341390328373" lon="-107.03517055230162"><ele>2186.0</ele><time>2026-05-03T16:05:49.002Z</time></trkpt><trkpt lat="36.04328781037429" lon="-107.0351523969161"><ele>2186.0</ele><time>2026-05-03T16:05:50.002Z</time></trkpt><trkpt lat="36.043152972921" lon="-107.03512267607243"><ele>2186.0</ele><time>2026-05-03T16:05:51.002Z</time></trkpt><trkpt lat="36.043015162904695" lon="-107.03508976539305"><ele>2186.4</ele><time>2026-05-03T16:05:52.002Z</time></trkpt><trkpt lat="36.04288317212346" lon="-107.0350532680114"><ele>2186.8</ele><time>2026-05-03T16:05:53.002Z</time></trkpt><trkpt lat="36.04276095413257" lon="-107.03501909050685"><ele>2187.2000000000003</ele><time>2026-05-03T16:05:54.002Z</time></trkpt><trkpt lat="36.04266172446554" lon="-107.03499959369745"><ele>2187.6</ele><time>2026-05-03T16:05:55.002Z</time></trkpt><trkpt lat="36.04258207186691" lon="-107.03497832355946"><ele>2188.0</ele><time>2026-05-03T16:05:56.002Z</time></trkpt><trkpt lat="36.0425220490633" lon="-107.03495435104726"><ele>2188.666666666667</ele><time>2026-05-03T16:05:57.002Z</time></trkpt><trkpt lat="36.04245407117424" lon="-107.03495539428806"><ele>2189.3333333333335</ele><time>2026-05-03T16:05:58.002Z</time></trkpt><trkpt lat="36.0423601636531" lon="-107.03499949570778"><ele>2190.0</ele><time>2026-05-03T16:05:59.002Z</time></trkpt><trkpt lat="36.04227166410132" lon="-107.03506044390679"><ele>2190.6666666666665</ele><time>2026-05-03T16:06:00.002Z</time></trkpt><trkpt lat="36.04218326449125" lon="-107.03504474672985"><ele>2191.333333333333</ele><time>2026-05-03T16:06:02.002Z</time></trkpt><trkpt lat="36.04212453018528" lon="-107.03496433992879"><ele>2192.0</ele><time>2026-05-03T16:06:03.002Z</time></trkpt><trkpt lat="36.04206820098494" lon="-107.03488029066082"><ele>2190.0</ele><time>2026-05-03T16:06:04.002Z</time></trkpt><trkpt lat="36.04198829530718" lon="-107.03484499428676"><ele>2188.0</ele><time>2026-05-03T16:06:05.002Z</time></trkpt><trkpt lat="36.04185437920754" lon="-107.03482363409883"><ele>2186.0</ele><time>2026-05-03T16:06:06.002Z</time></trkpt><trkpt lat="36.041705445987205" lon="-107.03479385006713"><ele>2184.0</ele><time>2026-05-03T16:06:07Z</time></trkpt><trkpt lat="36.04156121969514" lon="-107.03474404909714"><ele>2184.0</ele><time>2026-05-03T16:06:08Z</time></trkpt><trkpt lat="36.041432294254996" lon="-107.0347012478928"><ele>2184.0</ele><time>2026-05-03T16:06:09.001Z</time></trkpt><trkpt lat="36.0413202463694" lon="-107.03466760930392"><ele>2184.0</ele><time>2026-05-03T16:06:10Z</time></trkpt><trkpt lat="36.04123957044702" lon="-107.03463816435624"><ele>2184.0</ele><time>2026-05-03T16:06:11Z</time></trkpt><trkpt lat="36.04117469184174" lon="-107.03461253170236"><ele>2184.0</ele><time>2026-05-03T16:06:12Z</time></trkpt><trkpt lat="36.04111206257916" lon="-107.0345411130935"><ele>2184.0</ele><time>2026-05-03T16:06:13Z</time></trkpt><trkpt lat="36.04102327142251" lon="-107.03442857905357"><ele>2184.0</ele><time>2026-05-03T16:06:14Z</time></trkpt><trkpt lat="36.04092505375059" lon="-107.03432939007858"><ele>2184.0</ele><time>2026-05-03T16:06:15Z</time></trkpt><trkpt lat="36.04084712744743" lon="-107.03427427335862"><ele>2184.0</ele><time>2026-05-03T16:06:16Z</time></trkpt><trkpt lat="36.040756038810535" lon="-107.03423659631389"><ele>2184.0</ele><time>2026-05-03T16:06:17Z</time></trkpt><trkpt lat="36.040644996206964" lon="-107.03419287727247"><ele>2183.0</ele><time>2026-05-03T16:06:18.001Z</time></trkpt><trkpt lat="36.040560589602926" lon="-107.03412681029225"><ele>2182.0</ele><time>2026-05-03T16:06:19Z</time></trkpt><trkpt lat="36.04050848786328" lon="-107.03407959353332"><ele>2181.0</ele><time>2026-05-03T16:06:20Z</time></trkpt><trkpt lat="36.04036835345425" lon="-107.03411717048512"><ele>2180.0</ele><time>2026-05-03T16:06:22.001Z</time></trkpt><trkpt lat="36.040243092798455" lon="-107.03411925767155"><ele>2179.0</ele><time>2026-05-03T16:06:23.001Z</time></trkpt><trkpt lat="36.04012604008156" lon="-107.03411091544031"><ele>2179.0</ele><time>2026-05-03T16:06:24.001Z</time></trkpt><trkpt lat="36.04002014915007" lon="-107.03409385555915"><ele>2179.0</ele><time>2026-05-03T16:06:25.001Z</time></trkpt><trkpt lat="36.03990037410287" lon="-107.03407687292325"><ele>2179.0</ele><time>2026-05-03T16:06:26.001Z</time></trkpt><trkpt lat="36.03976839253926" lon="-107.03405666919599"><ele>2179.0</ele><time>2026-05-03T16:06:27.001Z</time></trkpt><trkpt lat="36.0396404017285" lon="-107.03403290827995"><ele>2178.8</ele><time>2026-05-03T16:06:28.001Z</time></trkpt><trkpt lat="36.03951908435673" lon="-107.03403145006928"><ele>2178.6000000000004</ele><time>2026-05-03T16:06:29.001Z</time></trkpt><trkpt lat="36.039419015484974" lon="-107.03402362793611"><ele>2178.4</ele><time>2026-05-03T16:06:30.001Z</time></trkpt><trkpt lat="36.03930851846855" lon="-107.03400268685819"><ele>2178.2000000000003</ele><time>2026-05-03T16:06:31.001Z</time></trkpt><trkpt lat="36.03919857563521" lon="-107.03399933457995"><ele>2178.0</ele><time>2026-05-03T16:06:32.001Z</time></trkpt><trkpt lat="36.03906834544869" lon="-107.03401004787021"><ele>2178.4</ele><time>2026-05-03T16:06:33.001Z</time></trkpt><trkpt lat="36.038927479013765" lon="-107.03400151045115"><ele>2178.8</ele><time>2026-05-03T16:06:34.001Z</time></trkpt><trkpt lat="36.038814252789315" lon="-107.03399706955277"><ele>2179.2</ele><time>2026-05-03T16:06:35.001Z</time></trkpt><trkpt lat="36.03873666819068" lon="-107.0339861228345"><ele>2179.6</ele><time>2026-05-03T16:06:36.001Z</time></trkpt><trkpt lat="36.038659306653635" lon="-107.03393965946132"><ele>2180.0</ele><time>2026-05-03T16:06:37.001Z</time></trkpt><trkpt lat="36.03856522508041" lon="-107.03384730730473"><ele>2180.0</ele><time>2026-05-03T16:06:38.001Z</time></trkpt><trkpt lat="36.03845102304224" lon="-107.03374957226832"><ele>2180.0</ele><time>2026-05-03T16:06:39.001Z</time></trkpt><trkpt lat="36.03834310673476" lon="-107.03366696135608"><ele>2180.0</ele><time>2026-05-03T16:06:40.001Z</time></trkpt><trkpt lat="36.038243578975475" lon="-107.03358595076153"><ele>2180.0</ele><time>2026-05-03T16:06:41.001Z</time></trkpt><trkpt lat="36.038164704207006" lon="-107.03352195585487"><ele>2179.5</ele><time>2026-05-03T16:06:42.001Z</time></trkpt><trkpt lat="36.038078337758684" lon="-107.03346946859108"><ele>2179.0</ele><time>2026-05-03T16:06:43.001Z</time></trkpt><trkpt lat="36.03795112447839" lon="-107.03342402739334"><ele>2178.5</ele><time>2026-05-03T16:06:44.001Z</time></trkpt><trkpt lat="36.03780650527296" lon="-107.0333577691538"><ele>2178.0</ele><time>2026-05-03T16:06:45.001Z</time></trkpt><trkpt lat="36.0376958498097" lon="-107.03329497719885"><ele>2178.0</ele><time>2026-05-03T16:06:46.001Z</time></trkpt><trkpt lat="36.037594312954354" lon="-107.03325142651956"><ele>2178.0</ele><time>2026-05-03T16:06:47.001Z</time></trkpt><trkpt lat="36.03746999407706" lon="-107.03323342188651"><ele>2178.0</ele><time>2026-05-03T16:06:48.001Z</time></trkpt><trkpt lat="36.037336004670905" lon="-107.03320598751691"><ele>2178.0</ele><time>2026-05-03T16:06:49.001Z</time></trkpt><trkpt lat="36.03717536362509" lon="-107.03315686193372"><ele>2178.0</ele><time>2026-05-03T16:06:50.001Z</time></trkpt><trkpt lat="36.03699970036375" lon="-107.03308595783655"><ele>2178.0</ele><time>2026-05-03T16:06:51.001Z</time></trkpt><trkpt lat="36.03681208424715" lon="-107.03301084654473"><ele>2178.0</ele><time>2026-05-03T16:06:52.001Z</time></trkpt><trkpt lat="36.036677991593244" lon="-107.03297192439156"><ele>2178.25</ele><time>2026-05-03T16:06:53.001Z</time></trkpt><trkpt lat="36.03654795335857" lon="-107.03295192580525"><ele>2178.5</ele><time>2026-05-03T16:06:54.001Z</time></trkpt><trkpt lat="36.03641749295869" lon="-107.03295974717739"><ele>2178.75</ele><time>2026-05-03T16:06:55.001Z</time></trkpt><trkpt lat="36.03628520798969" lon="-107.03299923228366"><ele>2179.0</ele><time>2026-05-03T16:06:56.001Z</time></trkpt><trkpt lat="36.03612484417007" lon="-107.03307445466878"><ele>2179.0</ele><time>2026-05-03T16:06:57.001Z</time></trkpt><trkpt lat="36.03596767216614" lon="-107.03316032119518"><ele>2179.0</ele><time>2026-05-03T16:06:58.001Z</time></trkpt><trkpt lat="36.03584481077507" lon="-107.03322045035422"><ele>2179.0</ele><time>2026-05-03T16:06:59.001Z</time></trkpt><trkpt lat="36.0357539153847" lon="-107.03324728915234"><ele>2179.0</ele><time>2026-05-03T16:07:00.001Z</time></trkpt><trkpt lat="36.035688911865336" lon="-107.03326370305727"><ele>2179.6</ele><time>2026-05-03T16:07:01.001Z</time></trkpt><trkpt lat="36.03560986080939" lon="-107.03324509278436"><ele>2180.2</ele><time>2026-05-03T16:07:03.001Z</time></trkpt><trkpt lat="36.03555449581565" lon="-107.03318970561017"><ele>2180.7999999999997</ele><time>2026-05-03T16:07:04.001Z</time></trkpt><trkpt lat="36.03546239705325" lon="-107.03309031993925"><ele>2181.4</ele><time>2026-05-03T16:07:05.001Z</time></trkpt><trkpt lat="36.03535687178374" lon="-107.03299585740501"><ele>2182.0</ele><time>2026-05-03T16:07:06.001Z</time></trkpt><trkpt lat="36.03523984385617" lon="-107.03292385839673"><ele>2182.0</ele><time>2026-05-03T16:07:07.001Z</time></trkpt><trkpt lat="36.035080417291496" lon="-107.03284070646548"><ele>2182.0</ele><time>2026-05-03T16:07:08.001Z</time></trkpt><trkpt lat="36.034907054564705" lon="-107.0327558999661"><ele>2182.0</ele><time>2026-05-03T16:07:09.001Z</time></trkpt><trkpt lat="36.034748921021325" lon="-107.03268140185098"><ele>2182.75</ele><time>2026-05-03T16:07:10.001Z</time></trkpt><trkpt lat="36.034620011688084" lon="-107.03261858486199"><ele>2183.5</ele><time>2026-05-03T16:07:11.001Z</time></trkpt><trkpt lat="36.034505613035265" lon="-107.03257692116613"><ele>2184.25</ele><time>2026-05-03T16:07:12.001Z</time></trkpt><trkpt lat="36.0343907219559" lon="-107.03254337402299"><ele>2185.0</ele><time>2026-05-03T16:07:13.001Z</time></trkpt><trkpt lat="36.03427182253453" lon="-107.03250297731742"><ele>2183.75</ele><time>2026-05-03T16:07:14.001Z</time></trkpt><trkpt lat="36.034155078316886" lon="-107.03243888217042"><ele>2182.5</ele><time>2026-05-03T16:07:15.001Z</time></trkpt><trkpt lat="36.03402998413517" lon="-107.03235175921925"><ele>2181.25</ele><time>2026-05-03T16:07:16.001Z</time></trkpt><trkpt lat="36.03390620402393" lon="-107.03225925441646"><ele>2180.0</ele><time>2026-05-03T16:07:17.001Z</time></trkpt><trkpt lat="36.03377526961216" lon="-107.0321658261618"><ele>2179.8</ele><time>2026-05-03T16:07:18.001Z</time></trkpt><trkpt lat="36.03365117064746" lon="-107.03207428748345"><ele>2179.6</ele><time>2026-05-03T16:07:19.001Z</time></trkpt><trkpt lat="36.0335629907125" lon="-107.03199562711767"><ele>2179.4</ele><time>2026-05-03T16:07:20.001Z</time></trkpt><trkpt lat="36.03348915068712" lon="-107.03195119221388"><ele>2179.2</ele><time>2026-05-03T16:07:21.001Z</time></trkpt><trkpt lat="36.03339834831564" lon="-107.03194716475402"><ele>2179.0</ele><time>2026-05-03T16:07:22.001Z</time></trkpt><trkpt lat="36.03331718171424" lon="-107.03196529270923"><ele>2179.2</ele><time>2026-05-03T16:07:23.001Z</time></trkpt><trkpt lat="36.033254457486485" lon="-107.03201527074371"><ele>2179.4</ele><time>2026-05-03T16:07:24.001Z</time></trkpt><trkpt lat="36.03317011479492" lon="-107.03211602620046"><ele>2179.6</ele><time>2026-05-03T16:07:26.001Z</time></trkpt><trkpt lat="36.033110301339676" lon="-107.03217612786096"><ele>2179.8</ele><time>2026-05-03T16:07:27.001Z</time></trkpt><trkpt lat="36.03304449945011" lon="-107.03224337008146"><ele>2180.0</ele><time>2026-05-03T16:07:28.001Z</time></trkpt><trkpt lat="36.0329539036924" lon="-107.03227977115743"><ele>2180.0</ele><time>2026-05-03T16:07:29.001Z</time></trkpt><trkpt lat="36.03284397527589" lon="-107.03229915780452"><ele>2180.0</ele><time>2026-05-03T16:07:30.001Z</time></trkpt><trkpt lat="36.03275543340801" lon="-107.0323210625961"><ele>2180.0</ele><time>2026-05-03T16:07:31.001Z</time></trkpt><trkpt lat="36.03266197312538" lon="-107.0323725047978"><ele>2180.0</ele><time>2026-05-03T16:07:32.001Z</time></trkpt><trkpt lat="36.0325872789421" lon="-107.03242769990544"><ele>2180.0</ele><time>2026-05-03T16:07:33.001Z</time></trkpt><trkpt lat="36.032517685358904" lon="-107.03242923259185"><ele>2182.5</ele><time>2026-05-03T16:07:34.001Z</time></trkpt><trkpt lat="36.0324177830538" lon="-107.03239060236598"><ele>2185.0</ele><time>2026-05-03T16:07:35.001Z</time></trkpt><trkpt lat="36.032311983632255" lon="-107.03239492862521"><ele>2187.5</ele><time>2026-05-03T16:07:36.001Z</time></trkpt><trkpt lat="36.03217877472219" lon="-107.0324568214119"><ele>2190.0</ele><time>2026-05-03T16:07:37.001Z</time></trkpt><trkpt lat="36.0320073055531" lon="-107.03251496093402"><ele>2190.0</ele><time>2026-05-03T16:07:38.001Z</time></trkpt><trkpt lat="36.031858732657994" lon="-107.032562153322"><ele>2190.0</ele><time>2026-05-03T16:07:39.001Z</time></trkpt><trkpt lat="36.03176500741926" lon="-107.03259203637107"><ele>2190.0</ele><time>2026-05-03T16:07:40.001Z</time></trkpt><trkpt lat="36.031686470389715" lon="-107.03260215166932"><ele>2190.0</ele><time>2026-05-03T16:07:41.001Z</time></trkpt><trkpt lat="36.03160088126281" lon="-107.03260447417269"><ele>2190.0</ele><time>2026-05-03T16:07:42.001Z</time></trkpt><trkpt lat="36.03152591501385" lon="-107.0326203070566"><ele>2192.0</ele><time>2026-05-03T16:07:43.002Z</time></trkpt><trkpt lat="36.03146153249984" lon="-107.03260602515466"><ele>2194.0</ele><time>2026-05-03T16:07:44.002Z</time></trkpt><trkpt lat="36.03144693476325" lon="-107.03246375369136"><ele>2196.0</ele><time>2026-05-03T16:07:46.002Z</time></trkpt><trkpt lat="36.031477182399044" lon="-107.03235556554458"><ele>2198.0</ele><time>2026-05-03T16:07:47.002Z</time></trkpt><trkpt lat="36.03153892256257" lon="-107.03221837604688"><ele>2200.0</ele><time>2026-05-03T16:07:48.002Z</time></trkpt><trkpt lat="36.03161750242511" lon="-107.03206338886912"><ele>2198.8</ele><time>2026-05-03T16:07:49.002Z</time></trkpt><trkpt lat="36.03168061462795" lon="-107.03191276426575"><ele>2197.6</ele><time>2026-05-03T16:07:50.002Z</time></trkpt><trkpt lat="36.031691477256054" lon="-107.03180178712446"><ele>2196.4</ele><time>2026-05-03T16:07:51.002Z</time></trkpt><trkpt lat="36.03167237681829" lon="-107.0317194129541"><ele>2195.2</ele><time>2026-05-03T16:07:52.002Z</time></trkpt><trkpt lat="36.03163394314775" lon="-107.03160698934335"><ele>2194.0</ele><time>2026-05-03T16:07:53.002Z</time></trkpt><trkpt lat="36.03159493482412" lon="-107.03149557832887"><ele>2194.4</ele><time>2026-05-03T16:07:54.002Z</time></trkpt><trkpt lat="36.031598184637005" lon="-107.03137442263987"><ele>2194.8</ele><time>2026-05-03T16:07:55.002Z</time></trkpt><trkpt lat="36.031624516494745" lon="-107.03124313803835"><ele>2195.2</ele><time>2026-05-03T16:07:56.002Z</time></trkpt><trkpt lat="36.031662494026044" lon="-107.03112317641514"><ele>2195.6</ele><time>2026-05-03T16:07:57.002Z</time></trkpt><trkpt lat="36.03172376843915" lon="-107.03100247513669"><ele>2196.0</ele><time>2026-05-03T16:07:58.002Z</time></trkpt><trkpt lat="36.03177507881708" lon="-107.03088429417753"><ele>2195.4</ele><time>2026-05-03T16:07:59.002Z</time></trkpt><trkpt lat="36.03179698927245" lon="-107.03079297395777"><ele>2194.8</ele><time>2026-05-03T16:08:00.002Z</time></trkpt><trkpt lat="36.031781533901146" lon="-107.03071590319269"><ele>2194.2000000000003</ele><time>2026-05-03T16:08:01.002Z</time></trkpt><trkpt lat="36.03174113949198" lon="-107.03062389014545"><ele>2193.6</ele><time>2026-05-03T16:08:02.002Z</time></trkpt><trkpt lat="36.03167370704926" lon="-107.03049969026574"><ele>2193.0</ele><time>2026-05-03T16:08:03.002Z</time></trkpt><trkpt lat="36.03159047762266" lon="-107.03035515309439"><ele>2193.0</ele><time>2026-05-03T16:08:04.002Z</time></trkpt><trkpt lat="36.03151311107048" lon="-107.0302403870226"><ele>2193.0</ele><time>2026-05-03T16:08:05.002Z</time></trkpt><trkpt lat="36.031419943729276" lon="-107.03016085868522"><ele>2193.0</ele><time>2026-05-03T16:08:06.002Z</time></trkpt><trkpt lat="36.03131103394242" lon="-107.03009896295951"><ele>2193.0</ele><time>2026-05-03T16:08:07.002Z</time></trkpt><trkpt lat="36.03118288870759" lon="-107.03004537060822"><ele>2193.0</ele><time>2026-05-03T16:08:08.002Z</time></trkpt><trkpt lat="36.03106594428192" lon="-107.02998617444912"><ele>2193.0</ele><time>2026-05-03T16:08:09.002Z</time></trkpt><trkpt lat="36.03096443893043" lon="-107.02995605069928"><ele>2193.0</ele><time>2026-05-03T16:08:10.002Z</time></trkpt><trkpt lat="36.030846115886895" lon="-107.0299403283452"><ele>2193.0</ele><time>2026-05-03T16:08:11.002Z</time></trkpt><trkpt lat="36.03071274343294" lon="-107.02991581824425"><ele>2191.6</ele><time>2026-05-03T16:08:12.002Z</time></trkpt><trkpt lat="36.03060198145696" lon="-107.0298931960915"><ele>2190.2000000000003</ele><time>2026-05-03T16:08:13Z</time></trkpt><trkpt lat="36.03048514791554" lon="-107.02989347129504"><ele>2188.8</ele><time>2026-05-03T16:08:14Z</time></trkpt><trkpt lat="36.03037035761574" lon="-107.02991390898424"><ele>2187.4</ele><time>2026-05-03T16:08:15Z</time></trkpt><trkpt lat="36.03027608226783" lon="-107.0299230648425"><ele>2186.0</ele><time>2026-05-03T16:08:16Z</time></trkpt><trkpt lat="36.03018664708466" lon="-107.02991385767696"><ele>2186.0</ele><time>2026-05-03T16:08:17Z</time></trkpt><trkpt lat="36.0300955565245" lon="-107.02988662366707"><ele>2186.0</ele><time>2026-05-03T16:08:18Z</time></trkpt><trkpt lat="36.03000814660465" lon="-107.029845830724"><ele>2186.0</ele><time>2026-05-03T16:08:19Z</time></trkpt><trkpt lat="36.029904438416224" lon="-107.02980180735938"><ele>2186.0</ele><time>2026-05-03T16:08:20Z</time></trkpt><trkpt lat="36.02977252149096" lon="-107.0297408240215"><ele>2186.0</ele><time>2026-05-03T16:08:21Z</time></trkpt><trkpt lat="36.029643643568825" lon="-107.02968637997914"><ele>2187.25</ele><time>2026-05-03T16:08:22Z</time></trkpt><trkpt lat="36.029511928616024" lon="-107.0296514125353"><ele>2188.5</ele><time>2026-05-03T16:08:23Z</time></trkpt><trkpt lat="36.02938799350564" lon="-107.02961557107973"><ele>2189.75</ele><time>2026-05-03T16:08:24Z</time></trkpt><trkpt lat="36.02928000414255" lon="-107.02957737543143"><ele>2191.0</ele><time>2026-05-03T16:08:25Z</time></trkpt><trkpt lat="36.02917236674448" lon="-107.02951739572943"><ele>2192.2</ele><time>2026-05-03T16:08:26Z</time></trkpt><trkpt lat="36.02906922202778" lon="-107.02947655423037"><ele>2193.3999999999996</ele><time>2026-05-03T16:08:27Z</time></trkpt><trkpt lat="36.02894361524478" lon="-107.02944692097314"><ele>2194.6</ele><time>2026-05-03T16:08:28Z</time></trkpt><trkpt lat="36.028834828339804" lon="-107.0294237661029"><ele>2195.7999999999997</ele><time>2026-05-03T16:08:29.001Z</time></trkpt><trkpt lat="36.028766270668854" lon="-107.0294039773517"><ele>2197.0</ele><time>2026-05-03T16:08:30.001Z</time></trkpt><trkpt lat="36.02868525959" lon="-107.0293803371813"><ele>2197.0</ele><time>2026-05-03T16:08:31.001Z</time></trkpt><trkpt lat="36.02856881584403" lon="-107.02934893862674"><ele>2197.0</ele><time>2026-05-03T16:08:32.001Z</time></trkpt><trkpt lat="36.02845870500254" lon="-107.02928407289893"><ele>2197.0</ele><time>2026-05-03T16:08:33.001Z</time></trkpt><trkpt lat="36.028398137811145" lon="-107.02925931512597"><ele>2197.0</ele><time>2026-05-03T16:08:34.001Z</time></trkpt><trkpt lat="36.02832554040834" lon="-107.02929029007691"><ele>2197.0</ele><time>2026-05-03T16:08:35.001Z</time></trkpt><trkpt lat="36.0282058194597" lon="-107.02933870702216"><ele>2197.2</ele><time>2026-05-03T16:08:36.001Z</time></trkpt><trkpt lat="36.0280840533897" lon="-107.02936287600396"><ele>2197.3999999999996</ele><time>2026-05-03T16:08:37.001Z</time></trkpt><trkpt lat="36.027981477613444" lon="-107.0293910993115"><ele>2197.6000000000004</ele><time>2026-05-03T16:08:38.001Z</time></trkpt><trkpt lat="36.02788857179088" lon="-107.0294001835182"><ele>2197.8</ele><time>2026-05-03T16:08:39.001Z</time></trkpt><trkpt lat="36.027779048544524" lon="-107.02942436975367"><ele>2198.0</ele><time>2026-05-03T16:08:40.001Z</time></trkpt><trkpt lat="36.027675678121945" lon="-107.0294749342135"><ele>2198.0</ele><time>2026-05-03T16:08:41.001Z</time></trkpt><trkpt lat="36.027590390754476" lon="-107.02949810508122"><ele>2198.0</ele><time>2026-05-03T16:08:42.001Z</time></trkpt><trkpt lat="36.02752638481328" lon="-107.02949529832435"><ele>2198.0</ele><time>2026-05-03T16:08:43.001Z</time></trkpt><trkpt lat="36.0274350143594" lon="-107.02945564431631"><ele>2198.0</ele><time>2026-05-03T16:08:44.001Z</time></trkpt><trkpt lat="36.02732691676428" lon="-107.02942776779503"><ele>2198.0</ele><time>2026-05-03T16:08:45.001Z</time></trkpt><trkpt lat="36.02724611795375" lon="-107.02939437075236"><ele>2198.0</ele><time>2026-05-03T16:08:46.001Z</time></trkpt><trkpt lat="36.027112852969125" lon="-107.02941092962904"><ele>2198.25</ele><time>2026-05-03T16:08:48.001Z</time></trkpt><trkpt lat="36.02701074877271" lon="-107.02944166588757"><ele>2198.5</ele><time>2026-05-03T16:08:49.001Z</time></trkpt><trkpt lat="36.026907051083185" lon="-107.02941743402342"><ele>2198.75</ele><time>2026-05-03T16:08:50.001Z</time></trkpt><trkpt lat="36.026762451033285" lon="-107.029384203802"><ele>2199.0</ele><time>2026-05-03T16:08:51.001Z</time></trkpt><trkpt lat="36.02662923351082" lon="-107.02938096308105"><ele>2198.2</ele><time>2026-05-03T16:08:52.001Z</time></trkpt><trkpt lat="36.026512838035586" lon="-107.02939863864273"><ele>2197.4</ele><time>2026-05-03T16:08:53.001Z</time></trkpt><trkpt lat="36.02641538456306" lon="-107.02940740738778"><ele>2196.6</ele><time>2026-05-03T16:08:54.001Z</time></trkpt><trkpt lat="36.026325024761626" lon="-107.02939574454824"><ele>2195.8</ele><time>2026-05-03T16:08:55.001Z</time></trkpt><trkpt lat="36.02626050463157" lon="-107.0293613560825"><ele>2195.0</ele><time>2026-05-03T16:08:56.001Z</time></trkpt><trkpt lat="36.02619978148798" lon="-107.02928712630676"><ele>2195.0</ele><time>2026-05-03T16:08:57.001Z</time></trkpt><trkpt lat="36.02615168715339" lon="-107.02920336685868"><ele>2195.0</ele><time>2026-05-03T16:08:58.001Z</time></trkpt><trkpt lat="36.02609646797435" lon="-107.0290973866469"><ele>2195.0</ele><time>2026-05-03T16:08:59.001Z</time></trkpt><trkpt lat="36.026042235533325" lon="-107.02898595516713"><ele>2195.0</ele><time>2026-05-03T16:09:00.001Z</time></trkpt><trkpt lat="36.02598242233403" lon="-107.02890086128237"><ele>2195.0</ele><time>2026-05-03T16:09:01.001Z</time></trkpt><trkpt lat="36.02592421060394" lon="-107.02884022021976"><ele>2193.2</ele><time>2026-05-03T16:09:02.001Z</time></trkpt><trkpt lat="36.025863702801004" lon="-107.02877678044187"><ele>2191.4</ele><time>2026-05-03T16:09:03.001Z</time></trkpt><trkpt lat="36.02581262318694" lon="-107.02872897679569"><ele>2189.6</ele><time>2026-05-03T16:09:04.001Z</time></trkpt><trkpt lat="36.025703505798695" lon="-107.0287080119487"><ele>2187.8</ele><time>2026-05-03T16:09:06.001Z</time></trkpt><trkpt lat="36.02561132959773" lon="-107.02877399962466"><ele>2186.0</ele><time>2026-05-03T16:09:07.001Z</time></trkpt><trkpt lat="36.025520230756094" lon="-107.02887968853608"><ele>2186.25</ele><time>2026-05-03T16:09:08.001Z</time></trkpt><trkpt lat="36.02543473270865" lon="-107.02903274345555"><ele>2186.5</ele><time>2026-05-03T16:09:09.001Z</time></trkpt><trkpt lat="36.025380689427536" lon="-107.02916498576755"><ele>2186.75</ele><time>2026-05-03T16:09:10.001Z</time></trkpt><trkpt lat="36.02532460553067" lon="-107.02925003262463"><ele>2187.0</ele><time>2026-05-03T16:09:11.001Z</time></trkpt><trkpt lat="36.02524092643275" lon="-107.02931362338303"><ele>2187.0</ele><time>2026-05-03T16:09:12.001Z</time></trkpt><trkpt lat="36.02516277979506" lon="-107.0293368928683"><ele>2187.0</ele><time>2026-05-03T16:09:13.001Z</time></trkpt><trkpt lat="36.02510052097891" lon="-107.0293585576263"><ele>2187.0</ele><time>2026-05-03T16:09:14.001Z</time></trkpt><trkpt lat="36.025032283636456" lon="-107.02938621848868"><ele>2187.0</ele><time>2026-05-03T16:09:15.001Z</time></trkpt><trkpt lat="36.02493617678202" lon="-107.02938958113837"><ele>2187.0</ele><time>2026-05-03T16:09:16.001Z</time></trkpt><trkpt lat="36.024815074632144" lon="-107.02937510916513"><ele>2187.0</ele><time>2026-05-03T16:09:17.001Z</time></trkpt><trkpt lat="36.02470154698278" lon="-107.02937522654317"><ele>2186.0</ele><time>2026-05-03T16:09:18.001Z</time></trkpt><trkpt lat="36.02460333307737" lon="-107.02928308909559"><ele>2185.0</ele><time>2026-05-03T16:09:20.001Z</time></trkpt><trkpt lat="36.024555868461185" lon="-107.02920364537952"><ele>2184.0</ele><time>2026-05-03T16:09:21.001Z</time></trkpt><trkpt lat="36.024525526021144" lon="-107.02913215992355"><ele>2183.0</ele><time>2026-05-03T16:09:23.001Z</time></trkpt><trkpt lat="36.02461226903269" lon="-107.02904134470847"><ele>2182.0</ele><time>2026-05-03T16:09:25.001Z</time></trkpt><trkpt lat="36.02474461611811" lon="-107.02897401867526"><ele>2181.75</ele><time>2026-05-03T16:09:26.001Z</time></trkpt><trkpt lat="36.02486668674608" lon="-107.02893290035075"><ele>2181.5</ele><time>2026-05-03T16:09:27.001Z</time></trkpt><trkpt lat="36.02495407785978" lon="-107.02888619737338"><ele>2181.25</ele><time>2026-05-03T16:09:28.001Z</time></trkpt><trkpt lat="36.02502866624591" lon="-107.02871789925207"><ele>2181.0</ele><time>2026-05-03T16:09:30.001Z</time></trkpt><trkpt lat="36.02508043612597" lon="-107.02857731404218"><ele>2181.0</ele><time>2026-05-03T16:09:31.001Z</time></trkpt><trkpt lat="36.02512499883326" lon="-107.02843691803514"><ele>2181.0</ele><time>2026-05-03T16:09:32.001Z</time></trkpt><trkpt lat="36.02516465623002" lon="-107.02834849933403"><ele>2181.0</ele><time>2026-05-03T16:09:33.001Z</time></trkpt><trkpt lat="36.02521145142716" lon="-107.02825509042906"><ele>2181.0</ele><time>2026-05-03T16:09:35.001Z</time></trkpt><trkpt lat="36.02530976533447" lon="-107.02827299269597"><ele>2181.0</ele><time>2026-05-03T16:09:37.001Z</time></trkpt><trkpt lat="36.0254026436605" lon="-107.02826328161835"><ele>2179.75</ele><time>2026-05-03T16:09:38.001Z</time></trkpt><trkpt lat="36.02551031641246" lon="-107.02821985135762"><ele>2178.5</ele><time>2026-05-03T16:09:39.001Z</time></trkpt><trkpt lat="36.0256285142792" lon="-107.02819817332633"><ele>2177.25</ele><time>2026-05-03T16:09:40.001Z</time></trkpt><trkpt lat="36.02574429478468" lon="-107.02819511111466"><ele>2176.0</ele><time>2026-05-03T16:09:41.001Z</time></trkpt><trkpt lat="36.02586363570668" lon="-107.02820488040108"><ele>2176.0</ele><time>2026-05-03T16:09:42.001Z</time></trkpt><trkpt lat="36.02598510009196" lon="-107.02821322956636"><ele>2176.0</ele><time>2026-05-03T16:09:43.001Z</time></trkpt><trkpt lat="36.02607296853021" lon="-107.02820288732809"><ele>2176.0</ele><time>2026-05-03T16:09:44.001Z</time></trkpt><trkpt lat="36.02613717524794" lon="-107.02820886775962"><ele>2176.0</ele><time>2026-05-03T16:09:45.001Z</time></trkpt><trkpt lat="36.026191593678476" lon="-107.02809728632592"><ele>2176.0</ele><time>2026-05-03T16:09:48.001Z</time></trkpt><trkpt lat="36.02622016069577" lon="-107.02797815966373"><ele>2176.0</ele><time>2026-05-03T16:09:49.002Z</time></trkpt><trkpt lat="36.026260305201454" lon="-107.02788799860768"><ele>2176.0</ele><time>2026-05-03T16:09:50.002Z</time></trkpt><trkpt lat="36.02630954680041" lon="-107.02776180428782"><ele>2176.0</ele><time>2026-05-03T16:09:52.002Z</time></trkpt><trkpt lat="36.02633936794842" lon="-107.02766032594691"><ele>2176.0</ele><time>2026-05-03T16:09:54.002Z</time></trkpt><trkpt lat="36.02632988541366" lon="-107.02753321607575"><ele>2176.0</ele><time>2026-05-03T16:09:56.002Z</time></trkpt><trkpt lat="36.02627918481004" lon="-107.02747975492478"><ele>2173.4</ele><time>2026-05-03T16:09:57.002Z</time></trkpt><trkpt lat="36.02621547722547" lon="-107.02745549905254"><ele>2170.8</ele><time>2026-05-03T16:09:58.002Z</time></trkpt><trkpt lat="36.02613462564138" lon="-107.02744400438252"><ele>2168.2000000000003</ele><time>2026-05-03T16:09:59.002Z</time></trkpt><trkpt lat="36.02606245068857" lon="-107.02739349955569"><ele>2165.6</ele><time>2026-05-03T16:10:00.002Z</time></trkpt><trkpt lat="36.0260003601957" lon="-107.02724779425236"><ele>2163.0</ele><time>2026-05-03T16:10:02.002Z</time></trkpt><trkpt lat="36.02590426785659" lon="-107.02715106653464"><ele>2163.0</ele><time>2026-05-03T16:10:04.002Z</time></trkpt><trkpt lat="36.02585046249104" lon="-107.02706730315055"><ele>2163.0</ele><time>2026-05-03T16:10:08.002Z</time></trkpt><trkpt lat="36.025809448044186" lon="-107.02699931388953"><ele>2163.0</ele><time>2026-05-03T16:10:12.002Z</time></trkpt><trkpt lat="36.02576313400156" lon="-107.02692889865614"><ele>2163.0</ele><time>2026-05-03T16:10:18.002Z</time></trkpt><trkpt lat="36.02576284890182" lon="-107.02684945101537"><ele>2163.0</ele><time>2026-05-03T16:10:24Z</time></trkpt><trkpt lat="36.025697740887644" lon="-107.02673975786158"><ele>2163.0</ele><time>2026-05-03T16:10:26Z</time></trkpt><trkpt lat="36.025731031096946" lon="-107.02666914052803"><ele>2162.0</ele><time>2026-05-03T16:10:30Z</time></trkpt><trkpt lat="36.02566832118829" lon="-107.02657579532544"><ele>2161.0</ele><time>2026-05-03T16:10:32Z</time></trkpt><trkpt lat="36.0252396191039" lon="-107.02675513944236"><ele>2161.0</ele><time>2026-05-03T16:10:33Z</time></trkpt><trkpt lat="36.025120345416255" lon="-107.0267551358804"><ele>2161.0</ele><time>2026-05-03T16:10:34Z</time></trkpt><trkpt lat="36.0250354538387" lon="-107.02674315394563"><ele>2161.0</ele><time>2026-05-03T16:10:35Z</time></trkpt><trkpt lat="36.02489253211503" lon="-107.0268130024061"><ele>2161.0</ele><time>2026-05-03T16:10:37.001Z</time></trkpt><trkpt lat="36.0247666997706" lon="-107.02685339097138"><ele>2160.5</ele><time>2026-05-03T16:10:38.001Z</time></trkpt><trkpt lat="36.0246863815858" lon="-107.02687740252237"><ele>2160.0</ele><time>2026-05-03T16:10:39.001Z</time></trkpt><trkpt lat="36.02460228898818" lon="-107.02692419547543"><ele>2159.5</ele><time>2026-05-03T16:10:40.001Z</time></trkpt><trkpt lat="36.02452226020644" lon="-107.02698018200508"><ele>2159.0</ele><time>2026-05-03T16:10:41.001Z</time></trkpt><trkpt lat="36.02446878300014" lon="-107.02704434230012"><ele>2158.5</ele><time>2026-05-03T16:10:42.001Z</time></trkpt><trkpt lat="36.0244251597322" lon="-107.02712225784632"><ele>2158.0</ele><time>2026-05-03T16:10:43.001Z</time></trkpt><trkpt lat="36.024330345274684" lon="-107.02716938609679"><ele>2158.0</ele><time>2026-05-03T16:10:45.001Z</time></trkpt><trkpt lat="36.02423783837641" lon="-107.02718380560844"><ele>2158.0</ele><time>2026-05-03T16:10:46.001Z</time></trkpt><trkpt lat="36.02411860974895" lon="-107.02718376504444"><ele>2158.0</ele><time>2026-05-03T16:10:47.001Z</time></trkpt><trkpt lat="36.02402112524486" lon="-107.02719389067198"><ele>2158.0</ele><time>2026-05-03T16:10:48.001Z</time></trkpt><trkpt lat="36.02391361379298" lon="-107.02722743687839"><ele>2158.0</ele><time>2026-05-03T16:10:49.001Z</time></trkpt><trkpt lat="36.02379458038188" lon="-107.02725077567838"><ele>2158.0</ele><time>2026-05-03T16:10:50.001Z</time></trkpt><trkpt lat="36.023697081054195" lon="-107.02728566554062"><ele>2158.0</ele><time>2026-05-03T16:10:51.001Z</time></trkpt><trkpt lat="36.02362629942981" lon="-107.02731580576835"><ele>2158.0</ele><time>2026-05-03T16:10:52.001Z</time></trkpt><trkpt lat="36.023518362279155" lon="-107.02739436695015"><ele>2158.0</ele><time>2026-05-03T16:10:54.001Z</time></trkpt><trkpt lat="36.023472986272644" lon="-107.02746676405796"><ele>2158.0</ele><time>2026-05-03T16:10:55.001Z</time></trkpt><trkpt lat="36.02338290810982" lon="-107.02753773266126"><ele>2158.0</ele><time>2026-05-03T16:10:56.001Z</time></trkpt><trkpt lat="36.023261925974836" lon="-107.02762425764368"><ele>2158.0</ele><time>2026-05-03T16:10:57.001Z</time></trkpt><trkpt lat="36.023144237049614" lon="-107.02772132738765"><ele>2158.0</ele><time>2026-05-03T16:10:58.001Z</time></trkpt><trkpt lat="36.02304443186132" lon="-107.02780272688862"><ele>2158.0</ele><time>2026-05-03T16:10:59.001Z</time></trkpt><trkpt lat="36.02294365065776" lon="-107.02789942577964"><ele>2158.0</ele><time>2026-05-03T16:11:00.001Z</time></trkpt><trkpt lat="36.02283888944409" lon="-107.02799186930797"><ele>2158.0</ele><time>2026-05-03T16:11:01.001Z</time></trkpt><trkpt lat="36.022744671792644" lon="-107.02806627300102"><ele>2158.0</ele><time>2026-05-03T16:11:02.001Z</time></trkpt><trkpt lat="36.02263098031404" lon="-107.02811117422513"><ele>2158.0</ele><time>2026-05-03T16:11:03.001Z</time></trkpt><trkpt lat="36.022521731640076" lon="-107.02814696094937"><ele>2158.25</ele><time>2026-05-03T16:11:04.001Z</time></trkpt><trkpt lat="36.02240978217089" lon="-107.0281754553492"><ele>2158.5</ele><time>2026-05-03T16:11:05.001Z</time></trkpt><trkpt lat="36.0222860123946" lon="-107.02819997620261"><ele>2158.75</ele><time>2026-05-03T16:11:06.001Z</time></trkpt><trkpt lat="36.02214524818287" lon="-107.02822918651209"><ele>2159.0</ele><time>2026-05-03T16:11:07.001Z</time></trkpt><trkpt lat="36.02198923041534" lon="-107.02827738398575"><ele>2157.333333333333</ele><time>2026-05-03T16:11:08.001Z</time></trkpt><trkpt lat="36.02182530496989" lon="-107.0283194200657"><ele>2155.6666666666665</ele><time>2026-05-03T16:11:09.001Z</time></trkpt><trkpt lat="36.02165315541382" lon="-107.0283620628864"><ele>2154.0</ele><time>2026-05-03T16:11:10.001Z</time></trkpt><trkpt lat="36.021479444765994" lon="-107.02840714085009"><ele>2153.0</ele><time>2026-05-03T16:11:11.001Z</time></trkpt><trkpt lat="36.02129062973646" lon="-107.0284449166578"><ele>2152.0</ele><time>2026-05-03T16:11:12.001Z</time></trkpt><trkpt lat="36.02112435254169" lon="-107.02846198236374"><ele>2151.0</ele><time>2026-05-03T16:11:13.001Z</time></trkpt><trkpt lat="36.02096671555423" lon="-107.02847290153791"><ele>2151.0</ele><time>2026-05-03T16:11:14.001Z</time></trkpt><trkpt lat="36.02084636174122" lon="-107.02849453217152"><ele>2151.0</ele><time>2026-05-03T16:11:15.001Z</time></trkpt><trkpt lat="36.02075208317496" lon="-107.0285245860623"><ele>2151.0</ele><time>2026-05-03T16:11:16.001Z</time></trkpt><trkpt lat="36.02068311603133" lon="-107.02855248372592"><ele>2151.0</ele><time>2026-05-03T16:11:17.001Z</time></trkpt><trkpt lat="36.02062012940449" lon="-107.02858563594486"><ele>2151.0</ele><time>2026-05-03T16:11:18.001Z</time></trkpt><trkpt lat="36.02054581289494" lon="-107.02865223357087"><ele>2150.6</ele><time>2026-05-03T16:11:19.001Z</time></trkpt><trkpt lat="36.02046983333876" lon="-107.02874711344315"><ele>2150.2</ele><time>2026-05-03T16:11:20.001Z</time></trkpt><trkpt lat="36.02039939179678" lon="-107.0288409208858"><ele>2149.8</ele><time>2026-05-03T16:11:21.001Z</time></trkpt><trkpt lat="36.02034230716261" lon="-107.02892901470153"><ele>2149.4</ele><time>2026-05-03T16:11:22.001Z</time></trkpt><trkpt lat="36.02029556086586" lon="-107.02898933109249"><ele>2149.0</ele><time>2026-05-03T16:11:23.001Z</time></trkpt><trkpt lat="36.02019707415345" lon="-107.02909872050597"><ele>2149.25</ele><time>2026-05-03T16:11:25.001Z</time></trkpt><trkpt lat="36.020137590289536" lon="-107.02916869790849"><ele>2149.5</ele><time>2026-05-03T16:11:26.001Z</time></trkpt><trkpt lat="36.02002574283749" lon="-107.02930624978237"><ele>2149.75</ele><time>2026-05-03T16:11:28.001Z</time></trkpt><trkpt lat="36.01992408371679" lon="-107.02940197789336"><ele>2150.0</ele><time>2026-05-03T16:11:29.001Z</time></trkpt><trkpt lat="36.01984728381212" lon="-107.02948146582064"><ele>2150.0</ele><time>2026-05-03T16:11:30.001Z</time></trkpt><trkpt lat="36.01977825707749" lon="-107.02953824933871"><ele>2150.0</ele><time>2026-05-03T16:11:31.001Z</time></trkpt><trkpt lat="36.01971685083259" lon="-107.02958461773937"><ele>2150.0</ele><time>2026-05-03T16:11:32.001Z</time></trkpt><trkpt lat="36.01962533605546" lon="-107.02962066531654"><ele>2150.0</ele><time>2026-05-03T16:11:33.001Z</time></trkpt><trkpt lat="36.019539132657926" lon="-107.0296405860236"><ele>2150.0</ele><time>2026-05-03T16:11:34.001Z</time></trkpt><trkpt lat="36.01943495068926" lon="-107.02968408365345"><ele>2150.0</ele><time>2026-05-03T16:11:36.001Z</time></trkpt><trkpt lat="36.01937037279662" lon="-107.02978734628145"><ele>2150.0</ele><time>2026-05-03T16:11:37.001Z</time></trkpt><trkpt lat="36.01929631531349" lon="-107.02986353827497"><ele>2150.0</ele><time>2026-05-03T16:11:38.001Z</time></trkpt><trkpt lat="36.01923680639949" lon="-107.02989859787984"><ele>2150.0</ele><time>2026-05-03T16:11:39.001Z</time></trkpt><trkpt lat="36.019126574460074" lon="-107.0298992646613"><ele>2150.0</ele><time>2026-05-03T16:11:41.001Z</time></trkpt><trkpt lat="36.01905636623921" lon="-107.02991430887654"><ele>2150.0</ele><time>2026-05-03T16:11:42.001Z</time></trkpt><trkpt lat="36.01898335806322" lon="-107.02991339295008"><ele>2150.0</ele><time>2026-05-03T16:11:43.001Z</time></trkpt><trkpt lat="36.0188966656804" lon="-107.02989044477256"><ele>2149.5</ele><time>2026-05-03T16:11:44.001Z</time></trkpt><trkpt lat="36.018779973908096" lon="-107.02984931529618"><ele>2149.0</ele><time>2026-05-03T16:11:45.001Z</time></trkpt><trkpt lat="36.01870252037508" lon="-107.02984029082116"><ele>2148.5</ele><time>2026-05-03T16:11:46.001Z</time></trkpt><trkpt lat="36.01862973965189" lon="-107.02986697531128"><ele>2148.0</ele><time>2026-05-03T16:11:47.001Z</time></trkpt><trkpt lat="36.01856489016944" lon="-107.02988928709773"><ele>2147.5</ele><time>2026-05-03T16:11:48.001Z</time></trkpt><trkpt lat="36.01849756324082" lon="-107.02986069327797"><ele>2147.0</ele><time>2026-05-03T16:11:49.001Z</time></trkpt><trkpt lat="36.0184299213582" lon="-107.02986900035161"><ele>2147.0</ele><time>2026-05-03T16:11:50.001Z</time></trkpt><trkpt lat="36.01832617407111" lon="-107.02988611030482"><ele>2147.0</ele><time>2026-05-03T16:11:51.001Z</time></trkpt><trkpt lat="36.01822251481524" lon="-107.02987006588438"><ele>2147.0</ele><time>2026-05-03T16:11:52.001Z</time></trkpt><trkpt lat="36.01811654395124" lon="-107.02982896464664"><ele>2147.0</ele><time>2026-05-03T16:11:53.001Z</time></trkpt><trkpt lat="36.01803199480038" lon="-107.02982896509388"><ele>2147.0</ele><time>2026-05-03T16:11:54.001Z</time></trkpt><trkpt lat="36.01795743782436" lon="-107.02985811392779"><ele>2146.5</ele><time>2026-05-03T16:11:55.001Z</time></trkpt><trkpt lat="36.01787321666133" lon="-107.02989871154988"><ele>2146.0</ele><time>2026-05-03T16:11:56.001Z</time></trkpt><trkpt lat="36.0178016760227" lon="-107.02991569933292"><ele>2145.5</ele><time>2026-05-03T16:11:57.002Z</time></trkpt><trkpt lat="36.017729466253975" lon="-107.02988067323294"><ele>2145.0</ele><time>2026-05-03T16:11:58.002Z</time></trkpt><trkpt lat="36.017649702600586" lon="-107.02981861198168"><ele>2144.5</ele><time>2026-05-03T16:11:59.002Z</time></trkpt><trkpt lat="36.01757640689615" lon="-107.0297327170989"><ele>2144.0</ele><time>2026-05-03T16:12:00.002Z</time></trkpt><trkpt lat="36.017543195406226" lon="-107.02965445683813"><ele>2144.0</ele><time>2026-05-03T16:12:01.002Z</time></trkpt><trkpt lat="36.017557971085715" lon="-107.0295237863934"><ele>2144.0</ele><time>2026-05-03T16:12:03.002Z</time></trkpt><trkpt lat="36.01752369230856" lon="-107.02940365761282"><ele>2144.0</ele><time>2026-05-03T16:12:05.002Z</time></trkpt><trkpt lat="36.017437635320675" lon="-107.0293522074234"><ele>2144.0</ele><time>2026-05-03T16:12:06.002Z</time></trkpt><trkpt lat="36.017353034925186" lon="-107.02932178371486"><ele>2144.0</ele><time>2026-05-03T16:12:07.002Z</time></trkpt><trkpt lat="36.01728230963862" lon="-107.02933058657452"><ele>2144.25</ele><time>2026-05-03T16:12:08.002Z</time></trkpt><trkpt lat="36.01720150124365" lon="-107.02939236160714"><ele>2144.5</ele><time>2026-05-03T16:12:09.002Z</time></trkpt><trkpt lat="36.01711357920283" lon="-107.02950480717918"><ele>2144.75</ele><time>2026-05-03T16:12:10.002Z</time></trkpt><trkpt lat="36.01703686443007" lon="-107.02964239013538"><ele>2145.0</ele><time>2026-05-03T16:12:11.002Z</time></trkpt><trkpt lat="36.016947010251755" lon="-107.02978602253955"><ele>2145.0</ele><time>2026-05-03T16:12:12.002Z</time></trkpt><trkpt lat="36.01684644642983" lon="-107.02993302228069"><ele>2145.0</ele><time>2026-05-03T16:12:13.002Z</time></trkpt><trkpt lat="36.01676025755533" lon="-107.03006022254084"><ele>2145.0</ele><time>2026-05-03T16:12:14.002Z</time></trkpt><trkpt lat="36.0166834928137" lon="-107.03014627430888"><ele>2145.0</ele><time>2026-05-03T16:12:15.002Z</time></trkpt><trkpt lat="36.01660924869959" lon="-107.03020138493518"><ele>2144.6</ele><time>2026-05-03T16:12:16.002Z</time></trkpt><trkpt lat="36.016550334604084" lon="-107.0302418850884"><ele>2144.2</ele><time>2026-05-03T16:12:17.002Z</time></trkpt><trkpt lat="36.016448734455146" lon="-107.03021654379674"><ele>2143.8</ele><time>2026-05-03T16:12:19.002Z</time></trkpt><trkpt lat="36.016386503789995" lon="-107.03013397912548"><ele>2143.4</ele><time>2026-05-03T16:12:20.002Z</time></trkpt><trkpt lat="36.01629825600267" lon="-107.03004630021552"><ele>2143.0</ele><time>2026-05-03T16:12:21.002Z</time></trkpt><trkpt lat="36.016180882646076" lon="-107.0299894613512"><ele>2143.0</ele><time>2026-05-03T16:12:22.002Z</time></trkpt><trkpt lat="36.0160315175488" lon="-107.02994711257521"><ele>2143.0</ele><time>2026-05-03T16:12:23.002Z</time></trkpt><trkpt lat="36.01587948723706" lon="-107.02989870474391"><ele>2143.0</ele><time>2026-05-03T16:12:24.002Z</time></trkpt><trkpt lat="36.015720727468896" lon="-107.02988203209985"><ele>2142.6</ele><time>2026-05-03T16:12:25Z</time></trkpt><trkpt lat="36.015580092454535" lon="-107.02988538976616"><ele>2142.2000000000003</ele><time>2026-05-03T16:12:26Z</time></trkpt><trkpt lat="36.0154851546976" lon="-107.02987972051353"><ele>2141.8</ele><time>2026-05-03T16:12:27Z</time></trkpt><trkpt lat="36.01540842748521" lon="-107.02986160003047"><ele>2141.4</ele><time>2026-05-03T16:12:28Z</time></trkpt><trkpt lat="36.01534734500377" lon="-107.0298336646142"><ele>2141.0</ele><time>2026-05-03T16:12:29Z</time></trkpt><trkpt lat="36.015291919101905" lon="-107.02975558446424"><ele>2141.0</ele><time>2026-05-03T16:12:30Z</time></trkpt><trkpt lat="36.01524429230948" lon="-107.02959412754991"><ele>2141.0</ele><time>2026-05-03T16:12:31Z</time></trkpt><trkpt lat="36.01519133017514" lon="-107.02943564784863"><ele>2141.0</ele><time>2026-05-03T16:12:32Z</time></trkpt><trkpt lat="36.015134141289764" lon="-107.02929619704489"><ele>2141.0</ele><time>2026-05-03T16:12:33Z</time></trkpt><trkpt lat="36.01508268572277" lon="-107.02920412746352"><ele>2141.4</ele><time>2026-05-03T16:12:34Z</time></trkpt><trkpt lat="36.015025824088134" lon="-107.02913615714824"><ele>2141.8</ele><time>2026-05-03T16:12:35Z</time></trkpt><trkpt lat="36.014924794336885" lon="-107.02906669814584"><ele>2142.2000000000003</ele><time>2026-05-03T16:12:36Z</time></trkpt><trkpt lat="36.01480622084125" lon="-107.02901383655667"><ele>2142.6</ele><time>2026-05-03T16:12:37Z</time></trkpt><trkpt lat="36.01472707603395" lon="-107.02899574010516"><ele>2143.0</ele><time>2026-05-03T16:12:38Z</time></trkpt><trkpt lat="36.01466199351356" lon="-107.0289988542359"><ele>2143.0</ele><time>2026-05-03T16:12:39Z</time></trkpt><trkpt lat="36.014574849100505" lon="-107.02903477960959"><ele>2143.0</ele><time>2026-05-03T16:12:40Z</time></trkpt><trkpt lat="36.01445973050964" lon="-107.0290963354513"><ele>2143.0</ele><time>2026-05-03T16:12:41Z</time></trkpt><trkpt lat="36.014343383151925" lon="-107.02918870931266"><ele>2143.0</ele><time>2026-05-03T16:12:42Z</time></trkpt><trkpt lat="36.014251707596344" lon="-107.02931500435159"><ele>2142.2000000000003</ele><time>2026-05-03T16:12:43.001Z</time></trkpt><trkpt lat="36.01419403819747" lon="-107.02941029698633"><ele>2141.4</ele><time>2026-05-03T16:12:44.001Z</time></trkpt><trkpt lat="36.01418318781347" lon="-107.02950122288819"><ele>2140.6000000000004</ele><time>2026-05-03T16:12:45.001Z</time></trkpt><trkpt lat="36.01418171123128" lon="-107.02963852026119"><ele>2139.8</ele><time>2026-05-03T16:12:46.001Z</time></trkpt><trkpt lat="36.01417459972007" lon="-107.02979251012681"><ele>2139.0</ele><time>2026-05-03T16:12:47.001Z</time></trkpt><trkpt lat="36.014171587264286" lon="-107.029911673224"><ele>2139.25</ele><time>2026-05-03T16:12:48.001Z</time></trkpt><trkpt lat="36.014154366577266" lon="-107.02999708680011"><ele>2139.5</ele><time>2026-05-03T16:12:49.001Z</time></trkpt><trkpt lat="36.01402780018896" lon="-107.03009421827974"><ele>2139.75</ele><time>2026-05-03T16:12:51.001Z</time></trkpt><trkpt lat="36.01390782920609" lon="-107.0301087261567"><ele>2140.0</ele><time>2026-05-03T16:12:52.001Z</time></trkpt><trkpt lat="36.01377962728673" lon="-107.03008958032488"><ele>2140.0</ele><time>2026-05-03T16:12:53.001Z</time></trkpt><trkpt lat="36.01366472387566" lon="-107.03002770240364"><ele>2140.0</ele><time>2026-05-03T16:12:54.001Z</time></trkpt><trkpt lat="36.013545047236526" lon="-107.02991566275598"><ele>2140.0</ele><time>2026-05-03T16:12:55.001Z</time></trkpt><trkpt lat="36.013417061973755" lon="-107.02979205634566"><ele>2140.0</ele><time>2026-05-03T16:12:56.001Z</time></trkpt><trkpt lat="36.01329384786898" lon="-107.02966839504278"><ele>2139.8</ele><time>2026-05-03T16:12:57.001Z</time></trkpt><trkpt lat="36.01321951550604" lon="-107.0295499774483"><ele>2139.6</ele><time>2026-05-03T16:12:58.001Z</time></trkpt><trkpt lat="36.01315973482616" lon="-107.02948375700123"><ele>2139.4</ele><time>2026-05-03T16:12:59.001Z</time></trkpt><trkpt lat="36.01308863238537" lon="-107.029535982026"><ele>2139.2</ele><time>2026-05-03T16:13:02.001Z</time></trkpt><trkpt lat="36.01302990827627" lon="-107.02958070279423"><ele>2139.0</ele><time>2026-05-03T16:13:03.001Z</time></trkpt><trkpt lat="36.012938096058406" lon="-107.02963621890876"><ele>2139.0</ele><time>2026-05-03T16:13:04.001Z</time></trkpt><trkpt lat="36.01282415471333" lon="-107.02968001665485"><ele>2139.0</ele><time>2026-05-03T16:13:05.001Z</time></trkpt><trkpt lat="36.012700194687994" lon="-107.02971588082785"><ele>2139.0</ele><time>2026-05-03T16:13:06.001Z</time></trkpt><trkpt lat="36.01258062168199" lon="-107.02973192650514"><ele>2139.0</ele><time>2026-05-03T16:13:07.001Z</time></trkpt><trkpt lat="36.01246812134581" lon="-107.02972370760806"><ele>2139.0</ele><time>2026-05-03T16:13:08.001Z</time></trkpt><trkpt lat="36.01233822231772" lon="-107.02969443726788"><ele>2139.0</ele><time>2026-05-03T16:13:09.001Z</time></trkpt><trkpt lat="36.01220975220255" lon="-107.02966244083744"><ele>2139.0</ele><time>2026-05-03T16:13:10.001Z</time></trkpt><trkpt lat="36.01207290899599" lon="-107.0296313475791"><ele>2139.0</ele><time>2026-05-03T16:13:11.001Z</time></trkpt><trkpt lat="36.01194738286247" lon="-107.0296049858246"><ele>2139.0</ele><time>2026-05-03T16:13:12.001Z</time></trkpt><trkpt lat="36.01181996997458" lon="-107.0295976080737"><ele>2139.0</ele><time>2026-05-03T16:13:13.001Z</time></trkpt><trkpt lat="36.01168955995125" lon="-107.02960602396777"><ele>2139.0</ele><time>2026-05-03T16:13:14.001Z</time></trkpt><trkpt lat="36.01157174892498" lon="-107.02962596078889"><ele>2139.0</ele><time>2026-05-03T16:13:15.001Z</time></trkpt><trkpt lat="36.011454761810384" lon="-107.02966424799017"><ele>2138.6666666666665</ele><time>2026-05-03T16:13:16.001Z</time></trkpt><trkpt lat="36.011328534076256" lon="-107.02973899095329"><ele>2138.333333333333</ele><time>2026-05-03T16:13:17.001Z</time></trkpt><trkpt lat="36.011197389002334" lon="-107.02984745306561"><ele>2138.0</ele><time>2026-05-03T16:13:18.001Z</time></trkpt><trkpt lat="36.011070333348734" lon="-107.02996383026074"><ele>2137.5</ele><time>2026-05-03T16:13:19.001Z</time></trkpt><trkpt lat="36.010939366395526" lon="-107.03008645427788"><ele>2137.0</ele><time>2026-05-03T16:13:20.001Z</time></trkpt><trkpt lat="36.010841367620834" lon="-107.0302001433248"><ele>2136.5</ele><time>2026-05-03T16:13:21.001Z</time></trkpt><trkpt lat="36.010759777069" lon="-107.0303264541638"><ele>2136.0</ele><time>2026-05-03T16:13:22.001Z</time></trkpt><trkpt lat="36.010693591638535" lon="-107.03047704178964"><ele>2136.0</ele><time>2026-05-03T16:13:23.001Z</time></trkpt><trkpt lat="36.01063352908862" lon="-107.03064929973847"><ele>2136.0</ele><time>2026-05-03T16:13:24.001Z</time></trkpt><trkpt lat="36.01058670970372" lon="-107.03085690956424"><ele>2136.0</ele><time>2026-05-03T16:13:25.001Z</time></trkpt><trkpt lat="36.01053373006355" lon="-107.03106951891513"><ele>2135.25</ele><time>2026-05-03T16:13:26.001Z</time></trkpt><trkpt lat="36.010484666073125" lon="-107.03125583431806"><ele>2134.5</ele><time>2026-05-03T16:13:27.001Z</time></trkpt><trkpt lat="36.010444759309244" lon="-107.03138872615048"><ele>2133.75</ele><time>2026-05-03T16:13:28.001Z</time></trkpt><trkpt lat="36.010400248986336" lon="-107.0314800912495"><ele>2133.0</ele><time>2026-05-03T16:13:29.001Z</time></trkpt><trkpt lat="36.01032398292543" lon="-107.03160615845863"><ele>2132.8</ele><time>2026-05-03T16:13:30.001Z</time></trkpt><trkpt lat="36.010233143750305" lon="-107.0317140528991"><ele>2132.6000000000004</ele><time>2026-05-03T16:13:31.001Z</time></trkpt><trkpt lat="36.01014141665423" lon="-107.03177639472756"><ele>2132.3999999999996</ele><time>2026-05-03T16:13:32.001Z</time></trkpt><trkpt lat="36.01003723873087" lon="-107.03180265649657"><ele>2132.2</ele><time>2026-05-03T16:13:33.001Z</time></trkpt><trkpt lat="36.009932446192224" lon="-107.03179396219139"><ele>2132.0</ele><time>2026-05-03T16:13:34.001Z</time></trkpt><trkpt lat="36.00983853827008" lon="-107.03173763746355"><ele>2132.0</ele><time>2026-05-03T16:13:35.001Z</time></trkpt><trkpt lat="36.00976696321128" lon="-107.0316635593894"><ele>2132.0</ele><time>2026-05-03T16:13:36.001Z</time></trkpt><trkpt lat="36.009720253595894" lon="-107.03159383174646"><ele>2132.0</ele><time>2026-05-03T16:13:37.001Z</time></trkpt><trkpt lat="36.009667479933796" lon="-107.03149011032963"><ele>2132.0</ele><time>2026-05-03T16:13:38.001Z</time></trkpt><trkpt lat="36.009621865165315" lon="-107.03140908165891"><ele>2132.0</ele><time>2026-05-03T16:13:39.001Z</time></trkpt><trkpt lat="36.00950281598077" lon="-107.03137916302714"><ele>2132.0</ele><time>2026-05-03T16:13:41.001Z</time></trkpt><trkpt lat="36.009411299915946" lon="-107.03140075351196"><ele>2132.0</ele><time>2026-05-03T16:13:42.001Z</time></trkpt><trkpt lat="36.009319969761044" lon="-107.03147181948358"><ele>2132.0</ele><time>2026-05-03T16:13:43.001Z</time></trkpt><trkpt lat="36.00919481210928" lon="-107.03154657419512"><ele>2132.0</ele><time>2026-05-03T16:13:44.001Z</time></trkpt><trkpt lat="36.009117091513225" lon="-107.03161986016934"><ele>2132.0</ele><time>2026-05-03T16:13:45.001Z</time></trkpt><trkpt lat="36.0090902957591" lon="-107.03175223451399"><ele>2131.7999999999997</ele><time>2026-05-03T16:13:47.001Z</time></trkpt><trkpt lat="36.00910982865893" lon="-107.03183247659595"><ele>2131.6</ele><time>2026-05-03T16:13:48.001Z</time></trkpt><trkpt lat="36.00917072539277" lon="-107.03194314978005"><ele>2131.3999999999996</ele><time>2026-05-03T16:13:49.001Z</time></trkpt><trkpt lat="36.00925784914723" lon="-107.0320578697293"><ele>2131.2</ele><time>2026-05-03T16:13:50.001Z</time></trkpt><trkpt lat="36.009338479588095" lon="-107.03219058199421"><ele>2131.0</ele><time>2026-05-03T16:13:51.001Z</time></trkpt><trkpt lat="36.00938314890242" lon="-107.03229044568346"><ele>2131.0</ele><time>2026-05-03T16:13:52.001Z</time></trkpt><trkpt lat="36.009389411252606" lon="-107.03244708683391"><ele>2131.0</ele><time>2026-05-03T16:13:54.001Z</time></trkpt><trkpt lat="36.00934795181185" lon="-107.03255762786083"><ele>2131.0</ele><time>2026-05-03T16:13:55.001Z</time></trkpt><trkpt lat="36.00926265285365" lon="-107.03270196143819"><ele>2131.0</ele><time>2026-05-03T16:13:56.001Z</time></trkpt><trkpt lat="36.0091699464685" lon="-107.03284975612681"><ele>2131.0</ele><time>2026-05-03T16:13:57.001Z</time></trkpt><trkpt lat="36.00906814091897" lon="-107.03300021764157"><ele>2131.0</ele><time>2026-05-03T16:13:58.001Z</time></trkpt><trkpt lat="36.00895597626231" lon="-107.0331619563801"><ele>2131.0</ele><time>2026-05-03T16:13:59.001Z</time></trkpt><trkpt lat="36.008843733932316" lon="-107.03332719775806"><ele>2130.666666666667</ele><time>2026-05-03T16:14:00.001Z</time></trkpt><trkpt lat="36.008728781203324" lon="-107.03349874449859"><ele>2130.3333333333335</ele><time>2026-05-03T16:14:01.001Z</time></trkpt><trkpt lat="36.0086149344703" lon="-107.03367764806542"><ele>2130.0</ele><time>2026-05-03T16:14:02.002Z</time></trkpt><trkpt lat="36.008509897411535" lon="-107.03385390956512"><ele>2130.0</ele><time>2026-05-03T16:14:03.002Z</time></trkpt><trkpt lat="36.008416562251554" lon="-107.03401313979526"><ele>2130.0</ele><time>2026-05-03T16:14:04.002Z</time></trkpt><trkpt lat="36.00833944770638" lon="-107.03417359870778"><ele>2130.0</ele><time>2026-05-03T16:14:05.002Z</time></trkpt><trkpt lat="36.00827089976035" lon="-107.03434958371344"><ele>2129.25</ele><time>2026-05-03T16:14:06.002Z</time></trkpt><trkpt lat="36.00820970414154" lon="-107.03453765966904"><ele>2128.5</ele><time>2026-05-03T16:14:07.002Z</time></trkpt><trkpt lat="36.008150855182926" lon="-107.03470661491825"><ele>2127.75</ele><time>2026-05-03T16:14:08.002Z</time></trkpt><trkpt lat="36.00808918715737" lon="-107.03485475324442"><ele>2127.0</ele><time>2026-05-03T16:14:09.002Z</time></trkpt><trkpt lat="36.00802182625006" lon="-107.03497577472281"><ele>2127.0</ele><time>2026-05-03T16:14:10.002Z</time></trkpt><trkpt lat="36.007944031787694" lon="-107.03506671567206"><ele>2127.0</ele><time>2026-05-03T16:14:11.002Z</time></trkpt><trkpt lat="36.00784042949657" lon="-107.03515309640072"><ele>2127.0</ele><time>2026-05-03T16:14:12.002Z</time></trkpt><trkpt lat="36.00771736766675" lon="-107.03521425060211"><ele>2127.0</ele><time>2026-05-03T16:14:13.002Z</time></trkpt><trkpt lat="36.00758123296543" lon="-107.0352630216571"><ele>2127.0</ele><time>2026-05-03T16:14:14.002Z</time></trkpt><trkpt lat="36.00747524606685" lon="-107.03531024926856"><ele>2127.0</ele><time>2026-05-03T16:14:15.002Z</time></trkpt><trkpt lat="36.00739464392154" lon="-107.03536726799723"><ele>2127.0</ele><time>2026-05-03T16:14:16.002Z</time></trkpt><trkpt lat="36.00733410313763" lon="-107.03543047321132"><ele>2127.0</ele><time>2026-05-03T16:14:17.002Z</time></trkpt><trkpt lat="36.00728778924138" lon="-107.0355402444325"><ele>2127.0</ele><time>2026-05-03T16:14:18.002Z</time></trkpt><trkpt lat="36.00726130256279" lon="-107.03568903657589"><ele>2126.3333333333335</ele><time>2026-05-03T16:14:19.002Z</time></trkpt><trkpt lat="36.00724248528913" lon="-107.03586290180723"><ele>2125.666666666667</ele><time>2026-05-03T16:14:20.002Z</time></trkpt><trkpt lat="36.007247018731995" lon="-107.03605206418504"><ele>2125.0</ele><time>2026-05-03T16:14:21.002Z</time></trkpt><trkpt lat="36.00726525357498" lon="-107.03625068176656"><ele>2125.0</ele><time>2026-05-03T16:14:22.002Z</time></trkpt><trkpt lat="36.00727903387957" lon="-107.03642768803883"><ele>2125.0</ele><time>2026-05-03T16:14:23.002Z</time></trkpt><trkpt lat="36.00727652467413" lon="-107.03656461368"><ele>2125.0</ele><time>2026-05-03T16:14:24.002Z</time></trkpt><trkpt lat="36.007269080163255" lon="-107.03667817023248"><ele>2125.0</ele><time>2026-05-03T16:14:25.002Z</time></trkpt><trkpt lat="36.00726003023234" lon="-107.03675729770474"><ele>2125.0</ele><time>2026-05-03T16:14:26.002Z</time></trkpt><trkpt lat="36.007155972200486" lon="-107.03685262851783"><ele>2124.5</ele><time>2026-05-03T16:14:28.002Z</time></trkpt><trkpt lat="36.007039307704176" lon="-107.03688490363348"><ele>2124.0</ele><time>2026-05-03T16:14:29.002Z</time></trkpt><trkpt lat="36.00689743742181" lon="-107.03690730108622"><ele>2123.5</ele><time>2026-05-03T16:14:30.002Z</time></trkpt><trkpt lat="36.00677478672871" lon="-107.03690041590141"><ele>2123.0</ele><time>2026-05-03T16:14:31Z</time></trkpt><trkpt lat="36.00668746269091" lon="-107.03690118160586"><ele>2122.8</ele><time>2026-05-03T16:14:32Z</time></trkpt><trkpt lat="36.0066202052725" lon="-107.03685732916874"><ele>2122.6000000000004</ele><time>2026-05-03T16:14:33Z</time></trkpt><trkpt lat="36.00655445731406" lon="-107.03681617925838"><ele>2122.3999999999996</ele><time>2026-05-03T16:14:34Z</time></trkpt><trkpt lat="36.00649621405975" lon="-107.0366919106971"><ele>2122.2</ele><time>2026-05-03T16:14:36Z</time></trkpt><trkpt lat="36.0065288497068" lon="-107.03658678365603"><ele>2122.0</ele><time>2026-05-03T16:14:37Z</time></trkpt><trkpt lat="36.00655132427694" lon="-107.03646069314472"><ele>2122.4</ele><time>2026-05-03T16:14:38Z</time></trkpt><trkpt lat="36.006558233071345" lon="-107.036336804044"><ele>2122.7999999999997</ele><time>2026-05-03T16:14:39Z</time></trkpt><trkpt lat="36.006584271956505" lon="-107.03618952774337"><ele>2123.2</ele><time>2026-05-03T16:14:40Z</time></trkpt><trkpt lat="36.006581768193456" lon="-107.03609083196233"><ele>2123.6</ele><time>2026-05-03T16:14:41Z</time></trkpt><trkpt lat="36.00655110627613" lon="-107.03597879161079"><ele>2124.0</ele><time>2026-05-03T16:14:43Z</time></trkpt><trkpt lat="36.00647744539238" lon="-107.03592874026312"><ele>2124.0</ele><time>2026-05-03T16:14:44Z</time></trkpt><trkpt lat="36.0063929816586" lon="-107.03588478453942"><ele>2124.0</ele><time>2026-05-03T16:14:45Z</time></trkpt><trkpt lat="36.00630626761853" lon="-107.03591928516595"><ele>2124.0</ele><time>2026-05-03T16:14:47.001Z</time></trkpt><trkpt lat="36.00628311009379" lon="-107.03604198381852"><ele>2124.0</ele><time>2026-05-03T16:14:49.001Z</time></trkpt><trkpt lat="36.006297265178716" lon="-107.03613051921843"><ele>2124.0</ele><time>2026-05-03T16:14:50.001Z</time></trkpt><trkpt lat="36.00629229812418" lon="-107.03622128089114"><ele>2124.0</ele><time>2026-05-03T16:14:51.001Z</time></trkpt><trkpt lat="36.00625960514049" lon="-107.03629131595503"><ele>2124.0</ele><time>2026-05-03T16:14:52.001Z</time></trkpt><trkpt lat="36.006190785753766" lon="-107.03633419786466"><ele>2124.0</ele><time>2026-05-03T16:14:53.001Z</time></trkpt><trkpt lat="36.00609533055438" lon="-107.0364090471279"><ele>2124.0</ele><time>2026-05-03T16:14:54.001Z</time></trkpt><trkpt lat="36.00601260043104" lon="-107.03650541503326"><ele>2124.0</ele><time>2026-05-03T16:14:55.001Z</time></trkpt><trkpt lat="36.005948286860885" lon="-107.03657301874051"><ele>2124.0</ele><time>2026-05-03T16:14:56.001Z</time></trkpt><trkpt lat="36.00588140474775" lon="-107.03664520406767"><ele>2123.25</ele><time>2026-05-03T16:14:57.001Z</time></trkpt><trkpt lat="36.005811466118466" lon="-107.03675428625111"><ele>2122.5</ele><time>2026-05-03T16:14:58.001Z</time></trkpt><trkpt lat="36.00573632063102" lon="-107.03689598838075"><ele>2121.75</ele><time>2026-05-03T16:14:59.001Z</time></trkpt><trkpt lat="36.005664120320276" lon="-107.03703798986615"><ele>2121.0</ele><time>2026-05-03T16:15:00.001Z</time></trkpt><trkpt lat="36.005604235111356" lon="-107.0371139607458"><ele>2121.0</ele><time>2026-05-03T16:15:01.001Z</time></trkpt><trkpt lat="36.00556232046213" lon="-107.03717479858989"><ele>2121.0</ele><time>2026-05-03T16:15:02.001Z</time></trkpt><trkpt lat="36.00551622445327" lon="-107.03729284303058"><ele>2121.0</ele><time>2026-05-03T16:15:04.001Z</time></trkpt><trkpt lat="36.005575190206" lon="-107.03739821025975"><ele>2121.0</ele><time>2026-05-03T16:15:06.001Z</time></trkpt><trkpt lat="36.00564412735592" lon="-107.03743790943153"><ele>2121.0</ele><time>2026-05-03T16:15:07.001Z</time></trkpt><trkpt lat="36.00570332990998" lon="-107.03747472582842"><ele>2121.0</ele><time>2026-05-03T16:15:08.001Z</time></trkpt><trkpt lat="36.00575426907301" lon="-107.0375264365134"><ele>2121.0</ele><time>2026-05-03T16:15:09.001Z</time></trkpt><trkpt lat="36.005793241240966" lon="-107.03758811050379"><ele>2121.0</ele><time>2026-05-03T16:15:10.001Z</time></trkpt><trkpt lat="36.005820426846014" lon="-107.0376804422371"><ele>2121.0</ele><time>2026-05-03T16:15:11.001Z</time></trkpt><trkpt lat="36.0058156316446" lon="-107.03782083988985"><ele>2121.0</ele><time>2026-05-03T16:15:12.001Z</time></trkpt><trkpt lat="36.00575462507133" lon="-107.03796727478797"><ele>2121.0</ele><time>2026-05-03T16:15:13.001Z</time></trkpt><trkpt lat="36.0056906394433" lon="-107.0381036595226"><ele>2121.0</ele><time>2026-05-03T16:15:14.001Z</time></trkpt><trkpt lat="36.00563366198502" lon="-107.03827184489047"><ele>2121.0</ele><time>2026-05-03T16:15:15.001Z</time></trkpt><trkpt lat="36.00556594136162" lon="-107.03845161518305"><ele>2121.0</ele><time>2026-05-03T16:15:16.001Z</time></trkpt><trkpt lat="36.00547335533218" lon="-107.03862175420292"><ele>2120.3333333333335</ele><time>2026-05-03T16:15:17.001Z</time></trkpt><trkpt lat="36.00535513917476" lon="-107.03878136935705"><ele>2119.666666666667</ele><time>2026-05-03T16:15:18.001Z</time></trkpt><trkpt lat="36.00522377617458" lon="-107.0389379729449"><ele>2119.0</ele><time>2026-05-03T16:15:19.001Z</time></trkpt><trkpt lat="36.00507177256231" lon="-107.03909192175719"><ele>2118.0</ele><time>2026-05-03T16:15:20.001Z</time></trkpt><trkpt lat="36.004917209161974" lon="-107.03924797830315"><ele>2117.0</ele><time>2026-05-03T16:15:21.001Z</time></trkpt><trkpt lat="36.0047664972329" lon="-107.03937767799543"><ele>2116.0</ele><time>2026-05-03T16:15:22.001Z</time></trkpt><trkpt lat="36.004607100326496" lon="-107.03947592449633"><ele>2116.0</ele><time>2026-05-03T16:15:23.001Z</time></trkpt><trkpt lat="36.00443176655087" lon="-107.03956991378028"><ele>2116.0</ele><time>2026-05-03T16:15:24.001Z</time></trkpt><trkpt lat="36.004244266994114" lon="-107.03967155339068"><ele>2116.0</ele><time>2026-05-03T16:15:25.001Z</time></trkpt><trkpt lat="36.00405424190538" lon="-107.03977936977984"><ele>2116.0</ele><time>2026-05-03T16:15:26.001Z</time></trkpt><trkpt lat="36.00388187510848" lon="-107.039882778864"><ele>2116.0</ele><time>2026-05-03T16:15:27.001Z</time></trkpt><trkpt lat="36.00371862031317" lon="-107.03997957312022"><ele>2116.0</ele><time>2026-05-03T16:15:28.001Z</time></trkpt><trkpt lat="36.003571660237256" lon="-107.04007591986002"><ele>2116.0</ele><time>2026-05-03T16:15:29.001Z</time></trkpt><trkpt lat="36.003437930758565" lon="-107.04017553102469"><ele>2116.0</ele><time>2026-05-03T16:15:30.001Z</time></trkpt><trkpt lat="36.00333458092798" lon="-107.04027122218157"><ele>2116.0</ele><time>2026-05-03T16:15:31.001Z</time></trkpt><trkpt lat="36.00324123387628" lon="-107.04037493456343"><ele>2116.0</ele><time>2026-05-03T16:15:32.001Z</time></trkpt><trkpt lat="36.00315073581615" lon="-107.04048311861924"><ele>2115.75</ele><time>2026-05-03T16:15:33.001Z</time></trkpt><trkpt lat="36.00306688092917" lon="-107.04060366805777"><ele>2115.5</ele><time>2026-05-03T16:15:34.001Z</time></trkpt><trkpt lat="36.00298743246651" lon="-107.04074711634193"><ele>2115.25</ele><time>2026-05-03T16:15:35.001Z</time></trkpt><trkpt lat="36.002920091528686" lon="-107.04089037280936"><ele>2115.0</ele><time>2026-05-03T16:15:36.001Z</time></trkpt><trkpt lat="36.002865843083924" lon="-107.04103246236188"><ele>2114.6666666666665</ele><time>2026-05-03T16:15:37.001Z</time></trkpt><trkpt lat="36.00279914714626" lon="-107.04122080395129"><ele>2114.333333333333</ele><time>2026-05-03T16:15:38.001Z</time></trkpt><trkpt lat="36.00272478931801" lon="-107.0414140514277"><ele>2114.0</ele><time>2026-05-03T16:15:39.001Z</time></trkpt><trkpt lat="36.00266217360315" lon="-107.04157819327527"><ele>2114.0</ele><time>2026-05-03T16:15:40.001Z</time></trkpt><trkpt lat="36.00260830927841" lon="-107.04170211340316"><ele>2114.0</ele><time>2026-05-03T16:15:41.001Z</time></trkpt><trkpt lat="36.0025543103312" lon="-107.04179248320902"><ele>2114.0</ele><time>2026-05-03T16:15:42.001Z</time></trkpt><trkpt lat="36.00247323501796" lon="-107.04188559862027"><ele>2114.0</ele><time>2026-05-03T16:15:43.001Z</time></trkpt><trkpt lat="36.00240829125181" lon="-107.04196654373075"><ele>2114.0</ele><time>2026-05-03T16:15:44.001Z</time></trkpt><trkpt lat="36.00235379243603" lon="-107.04205397284348"><ele>2113.833333333333</ele><time>2026-05-03T16:15:45.001Z</time></trkpt><trkpt lat="36.002304832079346" lon="-107.04213664498347"><ele>2113.6666666666665</ele><time>2026-05-03T16:15:46.001Z</time></trkpt><trkpt lat="36.002270580178156" lon="-107.04220682115344"><ele>2113.5</ele><time>2026-05-03T16:15:47.001Z</time></trkpt><trkpt lat="36.0022651674864" lon="-107.04229070060795"><ele>2113.3333333333335</ele><time>2026-05-03T16:15:48.001Z</time></trkpt><trkpt lat="36.00229413813982" lon="-107.04237896341336"><ele>2113.166666666667</ele><time>2026-05-03T16:15:49.001Z</time></trkpt><trkpt lat="36.002331932198075" lon="-107.0424784660301"><ele>2113.0</ele><time>2026-05-03T16:15:50.001Z</time></trkpt><trkpt lat="36.00234373027581" lon="-107.0425968371944"><ele>2113.0</ele><time>2026-05-03T16:15:51.001Z</time></trkpt><trkpt lat="36.0023727494874" lon="-107.04273739233129"><ele>2113.0</ele><time>2026-05-03T16:15:52.001Z</time></trkpt><trkpt lat="36.002429194900294" lon="-107.04290647174057"><ele>2113.0</ele><time>2026-05-03T16:15:53.001Z</time></trkpt><trkpt lat="36.002479221034164" lon="-107.04303712107857"><ele>2113.0</ele><time>2026-05-03T16:15:54.001Z</time></trkpt><trkpt lat="36.00250565479558" lon="-107.04312260473178"><ele>2113.0</ele><time>2026-05-03T16:15:55.001Z</time></trkpt><trkpt lat="36.00247789202802" lon="-107.04327016656292"><ele>2113.0</ele><time>2026-05-03T16:15:57.001Z</time></trkpt><trkpt lat="36.00239840520001" lon="-107.0433480289116"><ele>2113.0</ele><time>2026-05-03T16:15:58.001Z</time></trkpt><trkpt lat="36.00228480338249" lon="-107.0434004376365"><ele>2113.0</ele><time>2026-05-03T16:15:59.001Z</time></trkpt><trkpt lat="36.00218482739645" lon="-107.0434716884016"><ele>2112.6</ele><time>2026-05-03T16:16:00.001Z</time></trkpt><trkpt lat="36.00212625249988" lon="-107.04353525537934"><ele>2112.2000000000003</ele><time>2026-05-03T16:16:01.001Z</time></trkpt><trkpt lat="36.00208597916622" lon="-107.0436084315027"><ele>2111.8</ele><time>2026-05-03T16:16:02.001Z</time></trkpt><trkpt lat="36.00207256183615" lon="-107.04370103633045"><ele>2111.4</ele><time>2026-05-03T16:16:03.001Z</time></trkpt><trkpt lat="36.00205209298085" lon="-107.04384538609287"><ele>2111.0</ele><time>2026-05-03T16:16:04.001Z</time></trkpt><trkpt lat="36.00202833636131" lon="-107.04401542604806"><ele>2110.333333333333</ele><time>2026-05-03T16:16:05.001Z</time></trkpt><trkpt lat="36.00202401176288" lon="-107.04420454756594"><ele>2109.6666666666665</ele><time>2026-05-03T16:16:06.002Z</time></trkpt><trkpt lat="36.002018258170985" lon="-107.04438894629523"><ele>2109.0</ele><time>2026-05-03T16:16:07.002Z</time></trkpt><trkpt lat="36.00201605146549" lon="-107.04460498156553"><ele>2109.0</ele><time>2026-05-03T16:16:08.002Z</time></trkpt><trkpt lat="36.00201640395807" lon="-107.04479840130575"><ele>2109.0</ele><time>2026-05-03T16:16:09.002Z</time></trkpt><trkpt lat="36.001999972018936" lon="-107.04497898206337"><ele>2109.0</ele><time>2026-05-03T16:16:10.002Z</time></trkpt><trkpt lat="36.00197183681233" lon="-107.04514309459402"><ele>2109.0</ele><time>2026-05-03T16:16:11.002Z</time></trkpt><trkpt lat="36.00193045209033" lon="-107.04529085476331"><ele>2109.0</ele><time>2026-05-03T16:16:12.002Z</time></trkpt><trkpt lat="36.00187359913973" lon="-107.04543864053066"><ele>2109.0</ele><time>2026-05-03T16:16:13.002Z</time></trkpt><trkpt lat="36.001802855392775" lon="-107.04559638094297"><ele>2109.0</ele><time>2026-05-03T16:16:14.002Z</time></trkpt><trkpt lat="36.00173040477385" lon="-107.0457668928116"><ele>2109.0</ele><time>2026-05-03T16:16:15.002Z</time></trkpt><trkpt lat="36.001684097871546" lon="-107.04591130804955"><ele>2108.8</ele><time>2026-05-03T16:16:16.002Z</time></trkpt><trkpt lat="36.00166098536234" lon="-107.04601726930088"><ele>2108.6000000000004</ele><time>2026-05-03T16:16:17.002Z</time></trkpt><trkpt lat="36.00166355578097" lon="-107.04615618091512"><ele>2108.4</ele><time>2026-05-03T16:16:19.002Z</time></trkpt><trkpt lat="36.00171165641374" lon="-107.04628498027576"><ele>2108.2000000000003</ele><time>2026-05-03T16:16:21.002Z</time></trkpt><trkpt lat="36.001773049251156" lon="-107.04636442121897"><ele>2108.0</ele><time>2026-05-03T16:16:22.002Z</time></trkpt><trkpt lat="36.00183264382217" lon="-107.0464503494291"><ele>2108.0</ele><time>2026-05-03T16:16:23.002Z</time></trkpt><trkpt lat="36.0018614573898" lon="-107.04654279003275"><ele>2108.0</ele><time>2026-05-03T16:16:24.002Z</time></trkpt><trkpt lat="36.001852352933575" lon="-107.04662792732704"><ele>2108.0</ele><time>2026-05-03T16:16:25.002Z</time></trkpt><trkpt lat="36.00182038740172" lon="-107.04673559053599"><ele>2108.0</ele><time>2026-05-03T16:16:26.002Z</time></trkpt><trkpt lat="36.00177051314738" lon="-107.04685814963493"><ele>2108.0</ele><time>2026-05-03T16:16:27.002Z</time></trkpt><trkpt lat="36.00170456493048" lon="-107.04697676771117"><ele>2107.0</ele><time>2026-05-03T16:16:28.002Z</time></trkpt><trkpt lat="36.001625582555164" lon="-107.04707700173797"><ele>2106.0</ele><time>2026-05-03T16:16:29.002Z</time></trkpt><trkpt lat="36.001538217757194" lon="-107.04715788131602"><ele>2105.0</ele><time>2026-05-03T16:16:30.002Z</time></trkpt><trkpt lat="36.00144901715746" lon="-107.04723388354766"><ele>2104.0</ele><time>2026-05-03T16:16:31.002Z</time></trkpt><trkpt lat="36.00134305912529" lon="-107.0473041365149"><ele>2104.0</ele><time>2026-05-03T16:16:32.002Z</time></trkpt><trkpt lat="36.0011971613765" lon="-107.0473533254029"><ele>2104.0</ele><time>2026-05-03T16:16:33.002Z</time></trkpt><trkpt lat="36.00104762641372" lon="-107.04736920352266"><ele>2104.0</ele><time>2026-05-03T16:16:34.002Z</time></trkpt><trkpt lat="36.00093400495421" lon="-107.04742573335471"><ele>2104.0</ele><time>2026-05-03T16:16:35.002Z</time></trkpt><trkpt lat="36.00081551374121" lon="-107.04751468165321"><ele>2103.666666666667</ele><time>2026-05-03T16:16:36.002Z</time></trkpt><trkpt lat="36.00067180929632" lon="-107.04761416471892"><ele>2103.3333333333335</ele><time>2026-05-03T16:16:37.001Z</time></trkpt><trkpt lat="36.00052078716499" lon="-107.0477171286909"><ele>2103.0</ele><time>2026-05-03T16:16:38Z</time></trkpt><trkpt lat="36.00036443155222" lon="-107.04781948891271"><ele>2103.0</ele><time>2026-05-03T16:16:39.001Z</time></trkpt><trkpt lat="36.000215463375035" lon="-107.04791984010637"><ele>2103.0</ele><time>2026-05-03T16:16:40.001Z</time></trkpt><trkpt lat="36.00007986463577" lon="-107.04800888763232"><ele>2103.0</ele><time>2026-05-03T16:16:41Z</time></trkpt><trkpt lat="35.999966217158544" lon="-107.04807728106701"><ele>2103.0</ele><time>2026-05-03T16:16:42.001Z</time></trkpt><trkpt lat="35.99986735157466" lon="-107.04812727558802"><ele>2103.0</ele><time>2026-05-03T16:16:43Z</time></trkpt><trkpt lat="35.999756803905875" lon="-107.04815337893294"><ele>2103.0</ele><time>2026-05-03T16:16:44Z</time></trkpt><trkpt lat="35.99961113508727" lon="-107.04814682928303"><ele>2103.0</ele><time>2026-05-03T16:16:45.001Z</time></trkpt><trkpt lat="35.99943932089024" lon="-107.04812254029544"><ele>2103.0</ele><time>2026-05-03T16:16:46Z</time></trkpt><trkpt lat="35.9992669046912" lon="-107.04811413348463"><ele>2103.0</ele><time>2026-05-03T16:16:47Z</time></trkpt><trkpt lat="35.99910306399504" lon="-107.04812494959207"><ele>2103.0</ele><time>2026-05-03T16:16:48Z</time></trkpt><trkpt lat="35.9989368356092" lon="-107.0481430726228"><ele>2103.3333333333335</ele><time>2026-05-03T16:16:49Z</time></trkpt><trkpt lat="35.99876557291763" lon="-107.0481693486888"><ele>2103.666666666667</ele><time>2026-05-03T16:16:50Z</time></trkpt><trkpt lat="35.998591636777434" lon="-107.0482018000483"><ele>2104.0</ele><time>2026-05-03T16:16:51Z</time></trkpt><trkpt lat="35.998408411609574" lon="-107.04823623751368"><ele>2104.3333333333335</ele><time>2026-05-03T16:16:52.001Z</time></trkpt><trkpt lat="35.99821919971377" lon="-107.04827482999663"><ele>2104.6666666666665</ele><time>2026-05-03T16:16:53.001Z</time></trkpt><trkpt lat="35.9980703242272" lon="-107.04831152526569"><ele>2105.0</ele><time>2026-05-03T16:16:54.001Z</time></trkpt><trkpt lat="35.99792729228015" lon="-107.0483455675087"><ele>2104.25</ele><time>2026-05-03T16:16:55.001Z</time></trkpt><trkpt lat="35.9977854278892" lon="-107.04837624546565"><ele>2103.5</ele><time>2026-05-03T16:16:56.001Z</time></trkpt><trkpt lat="35.99764512653077" lon="-107.04838899921477"><ele>2102.75</ele><time>2026-05-03T16:16:57.001Z</time></trkpt><trkpt lat="35.99751077653978" lon="-107.04839034431679"><ele>2102.0</ele><time>2026-05-03T16:16:58.001Z</time></trkpt><trkpt lat="35.997385583677875" lon="-107.04838072238114"><ele>2102.0</ele><time>2026-05-03T16:16:59.001Z</time></trkpt><trkpt lat="35.99725782637338" lon="-107.04836579288329"><ele>2102.0</ele><time>2026-05-03T16:17:00.001Z</time></trkpt><trkpt lat="35.99713862879565" lon="-107.04833262513874"><ele>2102.0</ele><time>2026-05-03T16:17:01.001Z</time></trkpt><trkpt lat="35.997024912713044" lon="-107.04827640699854"><ele>2102.0</ele><time>2026-05-03T16:17:02.001Z</time></trkpt><trkpt lat="35.996917723863795" lon="-107.04820209042842"><ele>2102.0</ele><time>2026-05-03T16:17:03.001Z</time></trkpt><trkpt lat="35.996830716197564" lon="-107.04812446110573"><ele>2102.0</ele><time>2026-05-03T16:17:04.001Z</time></trkpt><trkpt lat="35.996756733772806" lon="-107.04805295585022"><ele>2102.0</ele><time>2026-05-03T16:17:05.001Z</time></trkpt><trkpt lat="35.996708920433946" lon="-107.04797937786257"><ele>2102.0</ele><time>2026-05-03T16:17:06.001Z</time></trkpt><trkpt lat="35.99669509735952" lon="-107.04783358517157"><ele>2102.0</ele><time>2026-05-03T16:17:08.001Z</time></trkpt><trkpt lat="35.996715711581956" lon="-107.0477540444039"><ele>2102.0</ele><time>2026-05-03T16:17:09.001Z</time></trkpt><trkpt lat="35.996829106850804" lon="-107.04768141922203"><ele>2102.0</ele><time>2026-05-03T16:17:11.001Z</time></trkpt><trkpt lat="35.99682553587294" lon="-107.04755683359211"><ele>2102.0</ele><time>2026-05-03T16:17:13.001Z</time></trkpt><trkpt lat="35.99677403615877" lon="-107.04750134814772"><ele>2102.0</ele><time>2026-05-03T16:17:14.001Z</time></trkpt><trkpt lat="35.996721672072155" lon="-107.04745585931136"><ele>2102.0</ele><time>2026-05-03T16:17:15.001Z</time></trkpt><trkpt lat="35.99666857606944" lon="-107.04740544431242"><ele>2102.0</ele><time>2026-05-03T16:17:16.001Z</time></trkpt><trkpt lat="35.9966055090144" lon="-107.04732936896406"><ele>2103.25</ele><time>2026-05-03T16:17:17.001Z</time></trkpt><trkpt lat="35.996503635008494" lon="-107.04725983898486"><ele>2104.5</ele><time>2026-05-03T16:17:18.001Z</time></trkpt><trkpt lat="35.996389828205544" lon="-107.04720368503028"><ele>2105.75</ele><time>2026-05-03T16:17:19.001Z</time></trkpt><trkpt lat="35.99625353666281" lon="-107.04714394253348"><ele>2107.0</ele><time>2026-05-03T16:17:20.001Z</time></trkpt><trkpt lat="35.99609803979686" lon="-107.0471001530485"><ele>2107.0</ele><time>2026-05-03T16:17:21.001Z</time></trkpt><trkpt lat="35.99593293118892" lon="-107.04705235643972"><ele>2107.0</ele><time>2026-05-03T16:17:22.001Z</time></trkpt><trkpt lat="35.995802911800396" lon="-107.04701591980945"><ele>2107.0</ele><time>2026-05-03T16:17:23.001Z</time></trkpt><trkpt lat="35.99569487462442" lon="-107.04699697234571"><ele>2107.0</ele><time>2026-05-03T16:17:24.001Z</time></trkpt><trkpt lat="35.995604420778754" lon="-107.04698274036475"><ele>2106.666666666667</ele><time>2026-05-03T16:17:25.001Z</time></trkpt><trkpt lat="35.99554070027453" lon="-107.04698071600038"><ele>2106.3333333333335</ele><time>2026-05-03T16:17:26.001Z</time></trkpt><trkpt lat="35.99549262810765" lon="-107.04706370143005"><ele>2106.0</ele><time>2026-05-03T16:17:28.001Z</time></trkpt><trkpt lat="35.995487634211486" lon="-107.04715275144517"><ele>2105.6666666666665</ele><time>2026-05-03T16:17:29.001Z</time></trkpt><trkpt lat="35.99547779726107" lon="-107.04725614783706"><ele>2105.333333333333</ele><time>2026-05-03T16:17:30.001Z</time></trkpt><trkpt lat="35.99545180575911" lon="-107.04736381462467"><ele>2105.0</ele><time>2026-05-03T16:17:31.001Z</time></trkpt><trkpt lat="35.995418317594556" lon="-107.04751490447543"><ele>2103.75</ele><time>2026-05-03T16:17:32.001Z</time></trkpt><trkpt lat="35.99538221862881" lon="-107.04770030496528"><ele>2102.5</ele><time>2026-05-03T16:17:33.001Z</time></trkpt><trkpt lat="35.99534604766144" lon="-107.04785682929797"><ele>2101.25</ele><time>2026-05-03T16:17:34.001Z</time></trkpt><trkpt lat="35.995309618311" lon="-107.04799238297109"><ele>2100.0</ele><time>2026-05-03T16:17:35.001Z</time></trkpt><trkpt lat="35.99527221377002" lon="-107.04810133486914"><ele>2100.0</ele><time>2026-05-03T16:17:36.001Z</time></trkpt><trkpt lat="35.995230966731164" lon="-107.04818214154626"><ele>2100.0</ele><time>2026-05-03T16:17:37.001Z</time></trkpt><trkpt lat="35.995155149531435" lon="-107.04824310697715"><ele>2100.0</ele><time>2026-05-03T16:17:38.001Z</time></trkpt><trkpt lat="35.995049957503355" lon="-107.04828105183192"><ele>2100.0</ele><time>2026-05-03T16:17:39.001Z</time></trkpt><trkpt lat="35.99492621199251" lon="-107.04831641127599"><ele>2100.0</ele><time>2026-05-03T16:17:40.001Z</time></trkpt><trkpt lat="35.99479509273635" lon="-107.04834890183932"><ele>2100.0</ele><time>2026-05-03T16:17:41.001Z</time></trkpt><trkpt lat="35.994643560378414" lon="-107.04834763809014"><ele>2100.0</ele><time>2026-05-03T16:17:42.001Z</time></trkpt><trkpt lat="35.99448336710046" lon="-107.04831421420829"><ele>2100.0</ele><time>2026-05-03T16:17:43.001Z</time></trkpt><trkpt lat="35.994312578624466" lon="-107.04826297685176"><ele>2101.0</ele><time>2026-05-03T16:17:44.001Z</time></trkpt><trkpt lat="35.99414579130854" lon="-107.04821439114221"><ele>2102.0</ele><time>2026-05-03T16:17:45.001Z</time></trkpt><trkpt lat="35.993977991076825" lon="-107.04817385827077"><ele>2103.0</ele><time>2026-05-03T16:17:46.001Z</time></trkpt><trkpt lat="35.99379621310807" lon="-107.04813271360598"><ele>2103.0</ele><time>2026-05-03T16:17:47.001Z</time></trkpt><trkpt lat="35.99361330827656" lon="-107.04808394995034"><ele>2103.0</ele><time>2026-05-03T16:17:48.001Z</time></trkpt><trkpt lat="35.99345649166439" lon="-107.04803717249516"><ele>2103.0</ele><time>2026-05-03T16:17:49.001Z</time></trkpt><trkpt lat="35.99332225781772" lon="-107.04799658109272"><ele>2103.0</ele><time>2026-05-03T16:17:50.001Z</time></trkpt><trkpt lat="35.99322500011502" lon="-107.04797063990003"><ele>2103.0</ele><time>2026-05-03T16:17:51.001Z</time></trkpt><trkpt lat="35.99315000690513" lon="-107.04795865935505"><ele>2103.0</ele><time>2026-05-03T16:17:52.001Z</time></trkpt><trkpt lat="35.99308354359997" lon="-107.04793035427096"><ele>2103.0</ele><time>2026-05-03T16:17:53.001Z</time></trkpt><trkpt lat="35.99301647641895" lon="-107.04788968160625"><ele>2103.0</ele><time>2026-05-03T16:17:54.001Z</time></trkpt><trkpt lat="35.99291552978578" lon="-107.0478043321637"><ele>2103.0</ele><time>2026-05-03T16:17:56.001Z</time></trkpt><trkpt lat="35.99284129615856" lon="-107.04775110154127"><ele>2103.0</ele><time>2026-05-03T16:17:57.001Z</time></trkpt><trkpt lat="35.992713601660235" lon="-107.04768780727522"><ele>2103.0</ele><time>2026-05-03T16:17:58.001Z</time></trkpt><trkpt lat="35.992582576555606" lon="-107.04763019741932"><ele>2103.0</ele><time>2026-05-03T16:17:59.001Z</time></trkpt><trkpt lat="35.992479572030255" lon="-107.04758987293897"><ele>2103.0</ele><time>2026-05-03T16:18:00.001Z</time></trkpt><trkpt lat="35.99235718652515" lon="-107.04755059160182"><ele>2103.2000000000003</ele><time>2026-05-03T16:18:01.001Z</time></trkpt><trkpt lat="35.99222828823842" lon="-107.04748961427642"><ele>2103.4</ele><time>2026-05-03T16:18:02.001Z</time></trkpt><trkpt lat="35.99212605737813" lon="-107.04743977673158"><ele>2103.6000000000004</ele><time>2026-05-03T16:18:03.001Z</time></trkpt><trkpt lat="35.992048071422616" lon="-107.0474117827107"><ele>2103.8</ele><time>2026-05-03T16:18:04.001Z</time></trkpt><trkpt lat="35.99194048718062" lon="-107.04737757893119"><ele>2104.0</ele><time>2026-05-03T16:18:05.001Z</time></trkpt><trkpt lat="35.99182163758397" lon="-107.04731119984449"><ele>2104.0</ele><time>2026-05-03T16:18:06.001Z</time></trkpt><trkpt lat="35.99172531118367" lon="-107.04724353244131"><ele>2104.0</ele><time>2026-05-03T16:18:07.001Z</time></trkpt><trkpt lat="35.991656641691655" lon="-107.0471888803115"><ele>2104.0</ele><time>2026-05-03T16:18:08.001Z</time></trkpt><trkpt lat="35.991580643280585" lon="-107.0470895924804"><ele>2104.0</ele><time>2026-05-03T16:18:09.001Z</time></trkpt><trkpt lat="35.99147706195946" lon="-107.04696839892635"><ele>2104.0</ele><time>2026-05-03T16:18:10.001Z</time></trkpt><trkpt lat="35.991366422817755" lon="-107.0468640909706"><ele>2104.6</ele><time>2026-05-03T16:18:11.001Z</time></trkpt><trkpt lat="35.99128528327041" lon="-107.04678956532689"><ele>2105.2</ele><time>2026-05-03T16:18:12.001Z</time></trkpt><trkpt lat="35.99121009260281" lon="-107.04671250588063"><ele>2105.7999999999997</ele><time>2026-05-03T16:18:13.002Z</time></trkpt><trkpt lat="35.991123070068404" lon="-107.04663456600426"><ele>2106.4</ele><time>2026-05-03T16:18:14.002Z</time></trkpt><trkpt lat="35.99104260781215" lon="-107.04657059149301"><ele>2107.0</ele><time>2026-05-03T16:18:15.002Z</time></trkpt><trkpt lat="35.9909796526496" lon="-107.046506241508"><ele>2107.0</ele><time>2026-05-03T16:18:16.002Z</time></trkpt><trkpt lat="35.990926285182425" lon="-107.04640813452224"><ele>2107.0</ele><time>2026-05-03T16:18:17.002Z</time></trkpt><trkpt lat="35.99086961235825" lon="-107.04629320999001"><ele>2107.0</ele><time>2026-05-03T16:18:18.002Z</time></trkpt><trkpt lat="35.990809557237405" lon="-107.04616794942419"><ele>2107.0</ele><time>2026-05-03T16:18:19.002Z</time></trkpt><trkpt lat="35.99074813417005" lon="-107.0460363392239"><ele>2107.0</ele><time>2026-05-03T16:18:20.002Z</time></trkpt><trkpt lat="35.99068026810893" lon="-107.04589861599158"><ele>2105.6</ele><time>2026-05-03T16:18:21.002Z</time></trkpt><trkpt lat="35.99061944420298" lon="-107.04576958771553"><ele>2104.2</ele><time>2026-05-03T16:18:22.002Z</time></trkpt><trkpt lat="35.9905620754256" lon="-107.04565293186269"><ele>2102.8</ele><time>2026-05-03T16:18:23.002Z</time></trkpt><trkpt lat="35.99051871509249" lon="-107.0455473761523"><ele>2101.4</ele><time>2026-05-03T16:18:24.002Z</time></trkpt><trkpt lat="35.99049352404447" lon="-107.0454710776556"><ele>2100.0</ele><time>2026-05-03T16:18:25.002Z</time></trkpt><trkpt lat="35.990465402568496" lon="-107.04533655642864"><ele>2100.0</ele><time>2026-05-03T16:18:27.002Z</time></trkpt><trkpt lat="35.990483800093784" lon="-107.0452307820373"><ele>2100.0</ele><time>2026-05-03T16:18:28.002Z</time></trkpt><trkpt lat="35.990487690276616" lon="-107.04507740515912"><ele>2100.0</ele><time>2026-05-03T16:18:29.002Z</time></trkpt><trkpt lat="35.99048925904743" lon="-107.0449077011823"><ele>2100.0</ele><time>2026-05-03T16:18:30.002Z</time></trkpt><trkpt lat="35.99051089917688" lon="-107.04474939800826"><ele>2099.75</ele><time>2026-05-03T16:18:31.002Z</time></trkpt><trkpt lat="35.99054351980385" lon="-107.04459331295273"><ele>2099.5</ele><time>2026-05-03T16:18:32.002Z</time></trkpt><trkpt lat="35.99057762160515" lon="-107.04444025253754"><ele>2099.25</ele><time>2026-05-03T16:18:33.002Z</time></trkpt><trkpt lat="35.9906083690912" lon="-107.0443112220412"><ele>2099.0</ele><time>2026-05-03T16:18:34.002Z</time></trkpt><trkpt lat="35.99063442212003" lon="-107.04418761307524"><ele>2098.6</ele><time>2026-05-03T16:18:35.002Z</time></trkpt><trkpt lat="35.99065357319938" lon="-107.04405610004511"><ele>2098.2</ele><time>2026-05-03T16:18:36.002Z</time></trkpt><trkpt lat="35.99066527259018" lon="-107.04391957400314"><ele>2097.7999999999997</ele><time>2026-05-03T16:18:37.002Z</time></trkpt><trkpt lat="35.99066913294955" lon="-107.04378246447982"><ele>2097.4</ele><time>2026-05-03T16:18:38.002Z</time></trkpt><trkpt lat="35.990674350520685" lon="-107.04367534436182"><ele>2097.0</ele><time>2026-05-03T16:18:39.002Z</time></trkpt><trkpt lat="35.990688250153795" lon="-107.04359198287565"><ele>2097.0</ele><time>2026-05-03T16:18:40.002Z</time></trkpt><trkpt lat="35.99069991660894" lon="-107.04349569519486"><ele>2097.0</ele><time>2026-05-03T16:18:41.002Z</time></trkpt><trkpt lat="35.99069194357717" lon="-107.04341115332312"><ele>2097.0</ele><time>2026-05-03T16:18:42.002Z</time></trkpt><trkpt lat="35.99068846815356" lon="-107.04325330448924"><ele>2097.0</ele><time>2026-05-03T16:18:44.001Z</time></trkpt><trkpt lat="35.990684657390936" lon="-107.04317269924239"><ele>2097.0</ele><time>2026-05-03T16:18:45.001Z</time></trkpt><trkpt lat="35.990670836260826" lon="-107.04308825745646"><ele>2097.0</ele><time>2026-05-03T16:18:46.001Z</time></trkpt><trkpt lat="35.99066341268108" lon="-107.04296562174675"><ele>2097.0</ele><time>2026-05-03T16:18:47.001Z</time></trkpt><trkpt lat="35.99064604778117" lon="-107.04282656253659"><ele>2097.0</ele><time>2026-05-03T16:18:48.001Z</time></trkpt><trkpt lat="35.990636435027405" lon="-107.04271064405386"><ele>2097.0</ele><time>2026-05-03T16:18:49.001Z</time></trkpt><trkpt lat="35.99062907150304" lon="-107.04253796655678"><ele>2097.0</ele><time>2026-05-03T16:18:51.001Z</time></trkpt><trkpt lat="35.99062590518355" lon="-107.04241836971082"><ele>2097.0</ele><time>2026-05-03T16:18:52.001Z</time></trkpt><trkpt lat="35.99060763626306" lon="-107.0422931689789"><ele>2097.0</ele><time>2026-05-03T16:18:53.001Z</time></trkpt><trkpt lat="35.99056549342542" lon="-107.04214715513531"><ele>2097.0</ele><time>2026-05-03T16:18:54.001Z</time></trkpt><trkpt lat="35.990539764064124" lon="-107.04198429816876"><ele>2097.0</ele><time>2026-05-03T16:18:55.001Z</time></trkpt><trkpt lat="35.9905420810968" lon="-107.04186361953133"><ele>2097.0</ele><time>2026-05-03T16:18:56.001Z</time></trkpt><trkpt lat="35.99053327120525" lon="-107.04176974469041"><ele>2097.0</ele><time>2026-05-03T16:18:57.001Z</time></trkpt><trkpt lat="35.99051512210456" lon="-107.04165828617985"><ele>2097.0</ele><time>2026-05-03T16:18:59.001Z</time></trkpt><trkpt lat="35.99046331952285" lon="-107.04152680801943"><ele>2097.0</ele><time>2026-05-03T16:19:01.001Z</time></trkpt><trkpt lat="35.9904776318886" lon="-107.04143332212264"><ele>2097.0</ele><time>2026-05-03T16:19:02.001Z</time></trkpt><trkpt lat="35.99052529004581" lon="-107.04131508909991"><ele>2097.0</ele><time>2026-05-03T16:19:03.001Z</time></trkpt><trkpt lat="35.99052572252758" lon="-107.04118159850799"><ele>2097.0</ele><time>2026-05-03T16:19:04.001Z</time></trkpt><trkpt lat="35.99049538251127" lon="-107.04105290343368"><ele>2097.0</ele><time>2026-05-03T16:19:05.001Z</time></trkpt><trkpt lat="35.99048637497025" lon="-107.04096631595624"><ele>2097.0</ele><time>2026-05-03T16:19:06.001Z</time></trkpt><trkpt lat="35.990467423134554" lon="-107.04088030594487"><ele>2097.0</ele><time>2026-05-03T16:19:07.001Z</time></trkpt><trkpt lat="35.99043517722432" lon="-107.04080738308011"><ele>2097.0</ele><time>2026-05-03T16:19:08.001Z</time></trkpt><trkpt lat="35.99044443690233" lon="-107.04064797274317"><ele>2097.0</ele><time>2026-05-03T16:19:10.001Z</time></trkpt><trkpt lat="35.990417085568254" lon="-107.04053468132356"><ele>2097.0</ele><time>2026-05-03T16:19:11.001Z</time></trkpt><trkpt lat="35.99037824258981" lon="-107.04039396274047"><ele>2098.2</ele><time>2026-05-03T16:19:12.001Z</time></trkpt><trkpt lat="35.99032779093838" lon="-107.04026676702472"><ele>2099.3999999999996</ele><time>2026-05-03T16:19:13.001Z</time></trkpt><trkpt lat="35.99027155763681" lon="-107.04016224150298"><ele>2100.6000000000004</ele><time>2026-05-03T16:19:14.001Z</time></trkpt><trkpt lat="35.99021910578902" lon="-107.04009227651838"><ele>2101.8</ele><time>2026-05-03T16:19:15.001Z</time></trkpt><trkpt lat="35.990149940545855" lon="-107.04002840456447"><ele>2103.0</ele><time>2026-05-03T16:19:16.001Z</time></trkpt><trkpt lat="35.99005428190216" lon="-107.03996141045997"><ele>2102.0</ele><time>2026-05-03T16:19:17.001Z</time></trkpt><trkpt lat="35.98996661078169" lon="-107.0399039891397"><ele>2101.0</ele><time>2026-05-03T16:19:18.001Z</time></trkpt><trkpt lat="35.98987221118153" lon="-107.03987215297275"><ele>2100.0</ele><time>2026-05-03T16:19:19.001Z</time></trkpt><trkpt lat="35.98973357785606" lon="-107.0398603438031"><ele>2099.0</ele><time>2026-05-03T16:19:20.001Z</time></trkpt><trkpt lat="35.98956230468311" lon="-107.03986376413317"><ele>2099.0</ele><time>2026-05-03T16:19:21.001Z</time></trkpt><trkpt lat="35.98936829680613" lon="-107.03984699792804"><ele>2099.0</ele><time>2026-05-03T16:19:22.001Z</time></trkpt><trkpt lat="35.98915777798629" lon="-107.03982336583107"><ele>2099.0</ele><time>2026-05-03T16:19:23.001Z</time></trkpt><trkpt lat="35.98898537870803" lon="-107.0398143639065"><ele>2098.333333333333</ele><time>2026-05-03T16:19:24.001Z</time></trkpt><trkpt lat="35.98880395110876" lon="-107.03980243556757"><ele>2097.6666666666665</ele><time>2026-05-03T16:19:25.001Z</time></trkpt><trkpt lat="35.98860769407398" lon="-107.03977520354329"><ele>2097.0</ele><time>2026-05-03T16:19:26.001Z</time></trkpt><trkpt lat="35.988435908778825" lon="-107.03974627190111"><ele>2097.0</ele><time>2026-05-03T16:19:27.001Z</time></trkpt><trkpt lat="35.988285742589326" lon="-107.03972144440552"><ele>2097.0</ele><time>2026-05-03T16:19:28.001Z</time></trkpt><trkpt lat="35.98814029974929" lon="-107.03970006155997"><ele>2097.0</ele><time>2026-05-03T16:19:29.001Z</time></trkpt><trkpt lat="35.98801134263096" lon="-107.0396801148855"><ele>2097.0</ele><time>2026-05-03T16:19:30.001Z</time></trkpt><trkpt lat="35.987883521254254" lon="-107.03964450698183"><ele>2097.0</ele><time>2026-05-03T16:19:31.001Z</time></trkpt><trkpt lat="35.98774176194748" lon="-107.03959364917353"><ele>2097.0</ele><time>2026-05-03T16:19:32.001Z</time></trkpt><trkpt lat="35.987628104754506" lon="-107.0395359039504"><ele>2097.0</ele><time>2026-05-03T16:19:33.001Z</time></trkpt><trkpt lat="35.987523074658476" lon="-107.03945467282809"><ele>2097.0</ele><time>2026-05-03T16:19:34.001Z</time></trkpt><trkpt lat="35.98739908741872" lon="-107.03935117202637"><ele>2097.0</ele><time>2026-05-03T16:19:35.001Z</time></trkpt><trkpt lat="35.987261886668726" lon="-107.03925792622819"><ele>2097.0</ele><time>2026-05-03T16:19:36.001Z</time></trkpt><trkpt lat="35.98714264946054" lon="-107.0391917480214"><ele>2097.0</ele><time>2026-05-03T16:19:37.001Z</time></trkpt><trkpt lat="35.987013587494296" lon="-107.03911622391976"><ele>2097.0</ele><time>2026-05-03T16:19:38.001Z</time></trkpt><trkpt lat="35.98689017907598" lon="-107.03901328410873"><ele>2096.6666666666665</ele><time>2026-05-03T16:19:39.001Z</time></trkpt><trkpt lat="35.986760992702806" lon="-107.03891951638725"><ele>2096.333333333333</ele><time>2026-05-03T16:19:40.001Z</time></trkpt><trkpt lat="35.98661601070843" lon="-107.03885151054831"><ele>2096.0</ele><time>2026-05-03T16:19:41.001Z</time></trkpt><trkpt lat="35.9864663083001" lon="-107.03879849684871"><ele>2096.0</ele><time>2026-05-03T16:19:42.001Z</time></trkpt><trkpt lat="35.98631368591321" lon="-107.0387463363037"><ele>2096.0</ele><time>2026-05-03T16:19:43.001Z</time></trkpt><trkpt lat="35.98616562172433" lon="-107.03867210299002"><ele>2096.0</ele><time>2026-05-03T16:19:44.001Z</time></trkpt><trkpt lat="35.986038399961174" lon="-107.03857794174745"><ele>2096.0</ele><time>2026-05-03T16:19:45.001Z</time></trkpt><trkpt lat="35.985921956705525" lon="-107.03847146447409"><ele>2096.0</ele><time>2026-05-03T16:19:46.001Z</time></trkpt><trkpt lat="35.985804213648144" lon="-107.03836692442428"><ele>2096.0</ele><time>2026-05-03T16:19:47.001Z</time></trkpt><trkpt lat="35.985690376707616" lon="-107.03827436002712"><ele>2096.0</ele><time>2026-05-03T16:19:48.001Z</time></trkpt><trkpt lat="35.98557589604199" lon="-107.03819400764537"><ele>2096.25</ele><time>2026-05-03T16:19:49.001Z</time></trkpt><trkpt lat="35.98545721889403" lon="-107.03812822330595"><ele>2096.5</ele><time>2026-05-03T16:19:50.001Z</time></trkpt><trkpt lat="35.9853373768235" lon="-107.03806224072392"><ele>2096.75</ele><time>2026-05-03T16:19:51.001Z</time></trkpt><trkpt lat="35.98523221647353" lon="-107.03799683681947"><ele>2097.0</ele><time>2026-05-03T16:19:52.001Z</time></trkpt><trkpt lat="35.98514622888997" lon="-107.03793939545363"><ele>2097.0</ele><time>2026-05-03T16:19:53.001Z</time></trkpt><trkpt lat="35.98506942440736" lon="-107.03787915513306"><ele>2097.0</ele><time>2026-05-03T16:19:54.001Z</time></trkpt><trkpt lat="35.98499139060407" lon="-107.03779739605277"><ele>2097.0</ele><time>2026-05-03T16:19:56.001Z</time></trkpt><trkpt lat="35.9849699289879" lon="-107.03771786115992"><ele>2097.0</ele><time>2026-05-03T16:19:57.001Z</time></trkpt><trkpt lat="35.98495415721797" lon="-107.03761223899485"><ele>2097.0</ele><time>2026-05-03T16:19:58.001Z</time></trkpt><trkpt lat="35.98492497395385" lon="-107.03747661695657"><ele>2097.0</ele><time>2026-05-03T16:19:59.001Z</time></trkpt><trkpt lat="35.98489305115906" lon="-107.03733088875201"><ele>2097.0</ele><time>2026-05-03T16:20:00.001Z</time></trkpt><trkpt lat="35.98487731359771" lon="-107.03717485471965"><ele>2097.0</ele><time>2026-05-03T16:20:01.001Z</time></trkpt><trkpt lat="35.98491697167349" lon="-107.03704337012807"><ele>2097.0</ele><time>2026-05-03T16:20:02.001Z</time></trkpt><trkpt lat="35.98498010773382" lon="-107.03692992255758"><ele>2099.6666666666665</ele><time>2026-05-03T16:20:03.001Z</time></trkpt><trkpt lat="35.985082843616084" lon="-107.03679989669627"><ele>2102.333333333333</ele><time>2026-05-03T16:20:04.001Z</time></trkpt><trkpt lat="35.98523215400877" lon="-107.03666618523819"><ele>2105.0</ele><time>2026-05-03T16:20:05.001Z</time></trkpt><trkpt lat="35.985389525547895" lon="-107.03653652179368"><ele>2105.5</ele><time>2026-05-03T16:20:06.001Z</time></trkpt><trkpt lat="35.98550733217451" lon="-107.03640276335429"><ele>2106.0</ele><time>2026-05-03T16:20:07.001Z</time></trkpt><trkpt lat="35.98558713048221" lon="-107.03625941981035"><ele>2106.5</ele><time>2026-05-03T16:20:08.001Z</time></trkpt><trkpt lat="35.985662892184465" lon="-107.03612751838621"><ele>2107.0</ele><time>2026-05-03T16:20:09.001Z</time></trkpt><trkpt lat="35.985721791340254" lon="-107.03601904612162"><ele>2107.0</ele><time>2026-05-03T16:20:10.001Z</time></trkpt><trkpt lat="35.98574810099272" lon="-107.03590099736664"><ele>2107.0</ele><time>2026-05-03T16:20:12.001Z</time></trkpt><trkpt lat="35.98574123773454" lon="-107.03573221085269"><ele>2107.0</ele><time>2026-05-03T16:20:14.001Z</time></trkpt><trkpt lat="35.98572495541662" lon="-107.03561558127896"><ele>2107.0</ele><time>2026-05-03T16:20:15.001Z</time></trkpt><trkpt lat="35.98572193790382" lon="-107.03547254898452"><ele>2107.0</ele><time>2026-05-03T16:20:16.001Z</time></trkpt><trkpt lat="35.98572598328103" lon="-107.03537424286652"><ele>2106.3333333333335</ele><time>2026-05-03T16:20:17.001Z</time></trkpt><trkpt lat="35.98579774996378" lon="-107.03529083479896"><ele>2105.666666666667</ele><time>2026-05-03T16:20:19.001Z</time></trkpt><trkpt lat="35.985878469249364" lon="-107.03524870411462"><ele>2105.0</ele><time>2026-05-03T16:20:20.002Z</time></trkpt><trkpt lat="35.98595636922288" lon="-107.03519753656971"><ele>2104.3333333333335</ele><time>2026-05-03T16:20:21.002Z</time></trkpt><trkpt lat="35.986003945213135" lon="-107.03512035745514"><ele>2103.6666666666665</ele><time>2026-05-03T16:20:22.002Z</time></trkpt><trkpt lat="35.986019641090735" lon="-107.03503898967656"><ele>2103.0</ele><time>2026-05-03T16:20:23.002Z</time></trkpt><trkpt lat="35.98597277208744" lon="-107.03492290096717"><ele>2103.0</ele><time>2026-05-03T16:20:25.002Z</time></trkpt><trkpt lat="35.985942031769675" lon="-107.03483639818567"><ele>2103.0</ele><time>2026-05-03T16:20:26.002Z</time></trkpt><trkpt lat="35.985923338658246" lon="-107.03472574605588"><ele>2103.0</ele><time>2026-05-03T16:20:27.002Z</time></trkpt><trkpt lat="35.98589112951557" lon="-107.03460153342299"><ele>2103.0</ele><time>2026-05-03T16:20:28.002Z</time></trkpt><trkpt lat="35.98585015407004" lon="-107.03451256320066"><ele>2103.0</ele><time>2026-05-03T16:20:29.002Z</time></trkpt><trkpt lat="35.985810698443835" lon="-107.03442045632524"><ele>2103.0</ele><time>2026-05-03T16:20:31.002Z</time></trkpt><trkpt lat="35.98583392336365" lon="-107.0343001660457"><ele>2103.0</ele><time>2026-05-03T16:20:33.002Z</time></trkpt><trkpt lat="35.98583146310702" lon="-107.03421423256847"><ele>2103.0</ele><time>2026-05-03T16:20:34.002Z</time></trkpt><trkpt lat="35.98577134917875" lon="-107.03414038700053"><ele>2103.0</ele><time>2026-05-03T16:20:35.002Z</time></trkpt><trkpt lat="35.985720914844585" lon="-107.0340758578651"><ele>2103.0</ele><time>2026-05-03T16:20:36.002Z</time></trkpt><trkpt lat="35.985721499048175" lon="-107.03395710068514"><ele>2103.0</ele><time>2026-05-03T16:20:37.002Z</time></trkpt><trkpt lat="35.98573596836974" lon="-107.03383253860106"><ele>2103.0</ele><time>2026-05-03T16:20:38.002Z</time></trkpt><trkpt lat="35.98574146062301" lon="-107.03372860359974"><ele>2103.5</ele><time>2026-05-03T16:20:39.002Z</time></trkpt><trkpt lat="35.98572606644972" lon="-107.03361673732873"><ele>2104.0</ele><time>2026-05-03T16:20:40.002Z</time></trkpt><trkpt lat="35.98568048148499" lon="-107.03351008315146"><ele>2104.5</ele><time>2026-05-03T16:20:41.002Z</time></trkpt><trkpt lat="35.985630011599234" lon="-107.033442716773"><ele>2105.0</ele><time>2026-05-03T16:20:42.002Z</time></trkpt><trkpt lat="35.98557448302472" lon="-107.03339667878147"><ele>2105.5</ele><time>2026-05-03T16:20:43.002Z</time></trkpt><trkpt lat="35.98548666788945" lon="-107.03337042755636"><ele>2106.0</ele><time>2026-05-03T16:20:44.002Z</time></trkpt><trkpt lat="35.98537907326164" lon="-107.03335774805399"><ele>2106.0</ele><time>2026-05-03T16:20:45.002Z</time></trkpt><trkpt lat="35.98529719215229" lon="-107.03334499823357"><ele>2106.0</ele><time>2026-05-03T16:20:46.002Z</time></trkpt><trkpt lat="35.98523402682214" lon="-107.03332822227098"><ele>2106.0</ele><time>2026-05-03T16:20:47.002Z</time></trkpt><trkpt lat="35.98515983320889" lon="-107.03333692875093"><ele>2106.0</ele><time>2026-05-03T16:20:48.002Z</time></trkpt><trkpt lat="35.98505840538608" lon="-107.03334000335045"><ele>2106.0</ele><time>2026-05-03T16:20:49.001Z</time></trkpt><trkpt lat="35.98498562448855" lon="-107.03331722669502"><ele>2106.0</ele><time>2026-05-03T16:20:50Z</time></trkpt><trkpt lat="35.98492286614722" lon="-107.03320483094373"><ele>2106.5</ele><time>2026-05-03T16:20:52Z</time></trkpt><trkpt lat="35.984890306863925" lon="-107.03309735507278"><ele>2107.0</ele><time>2026-05-03T16:20:53Z</time></trkpt><trkpt lat="35.984830150176606" lon="-107.03295469381864"><ele>2107.5</ele><time>2026-05-03T16:20:54.001Z</time></trkpt><trkpt lat="35.98472487323525" lon="-107.03282189665167"><ele>2108.0</ele><time>2026-05-03T16:20:55Z</time></trkpt><trkpt lat="35.98465239541338" lon="-107.03267640587721"><ele>2108.0</ele><time>2026-05-03T16:20:56Z</time></trkpt><trkpt lat="35.98459969300768" lon="-107.03251113506253"><ele>2108.0</ele><time>2026-05-03T16:20:57.001Z</time></trkpt><trkpt lat="35.98453224350397" lon="-107.03235566238139"><ele>2108.0</ele><time>2026-05-03T16:20:58Z</time></trkpt><trkpt lat="35.984449109873694" lon="-107.03224156720731"><ele>2108.0</ele><time>2026-05-03T16:20:59Z</time></trkpt><trkpt lat="35.984362427003056" lon="-107.0321550740505"><ele>2110.0</ele><time>2026-05-03T16:21:00.001Z</time></trkpt><trkpt lat="35.98430261160971" lon="-107.03209261195165"><ele>2112.0</ele><time>2026-05-03T16:21:01Z</time></trkpt><trkpt lat="35.98426695133847" lon="-107.03195143230982"><ele>2114.0</ele><time>2026-05-03T16:21:03.001Z</time></trkpt><trkpt lat="35.984267229512376" lon="-107.03180636119367"><ele>2116.0</ele><time>2026-05-03T16:21:04.001Z</time></trkpt><trkpt lat="35.98423514050421" lon="-107.03164093691525"><ele>2115.2</ele><time>2026-05-03T16:21:05.001Z</time></trkpt><trkpt lat="35.98422372314642" lon="-107.03154054081317"><ele>2114.3999999999996</ele><time>2026-05-03T16:21:06.001Z</time></trkpt><trkpt lat="35.98423440058301" lon="-107.0314375637796"><ele>2113.6</ele><time>2026-05-03T16:21:07.001Z</time></trkpt><trkpt lat="35.984271763158794" lon="-107.03130632360305"><ele>2112.7999999999997</ele><time>2026-05-03T16:21:08.001Z</time></trkpt><trkpt lat="35.98431716235188" lon="-107.031145430348"><ele>2112.0</ele><time>2026-05-03T16:21:09.001Z</time></trkpt><trkpt lat="35.98432143817603" lon="-107.0310323548166"><ele>2112.0</ele><time>2026-05-03T16:21:11.001Z</time></trkpt><trkpt lat="35.98421559358077" lon="-107.03095979245046"><ele>2112.0</ele><time>2026-05-03T16:21:13.001Z</time></trkpt><trkpt lat="35.98411753613198" lon="-107.03097870375277"><ele>2112.0</ele><time>2026-05-03T16:21:14.001Z</time></trkpt><trkpt lat="35.98399095101263" lon="-107.03104930776804"><ele>2112.0</ele><time>2026-05-03T16:21:15.001Z</time></trkpt><trkpt lat="35.98384159066178" lon="-107.03111706740755"><ele>2110.6666666666665</ele><time>2026-05-03T16:21:16.001Z</time></trkpt><trkpt lat="35.98373691705638" lon="-107.03113211891167"><ele>2109.3333333333335</ele><time>2026-05-03T16:21:17.001Z</time></trkpt><trkpt lat="35.983653273287544" lon="-107.03111539378436"><ele>2108.0</ele><time>2026-05-03T16:21:18.001Z</time></trkpt><trkpt lat="35.98359225843083" lon="-107.03108070716164"><ele>2106.666666666667</ele><time>2026-05-03T16:21:19.001Z</time></trkpt><trkpt lat="35.983569185479745" lon="-107.03100087641079"><ele>2105.3333333333335</ele><time>2026-05-03T16:21:21.001Z</time></trkpt><trkpt lat="35.9835413966105" lon="-107.03085350711304"><ele>2104.0</ele><time>2026-05-03T16:21:23.001Z</time></trkpt><trkpt lat="35.98359358609789" lon="-107.03077884740637"><ele>2103.6</ele><time>2026-05-03T16:21:24.001Z</time></trkpt><trkpt lat="35.98364227271998" lon="-107.03072300265406"><ele>2103.2</ele><time>2026-05-03T16:21:25.001Z</time></trkpt><trkpt lat="35.98370587373456" lon="-107.0306642550128"><ele>2102.7999999999997</ele><time>2026-05-03T16:21:26.001Z</time></trkpt><trkpt lat="35.983804116487946" lon="-107.03055340837547"><ele>2102.4</ele><time>2026-05-03T16:21:27.001Z</time></trkpt><trkpt lat="35.983876158567895" lon="-107.03045935639157"><ele>2102.0</ele><time>2026-05-03T16:21:28.001Z</time></trkpt><trkpt lat="35.98394016606375" lon="-107.03037136171191"><ele>2102.0</ele><time>2026-05-03T16:21:29.001Z</time></trkpt><trkpt lat="35.98400945413698" lon="-107.03027054884498"><ele>2102.0</ele><time>2026-05-03T16:21:30.001Z</time></trkpt><trkpt lat="35.98407773222629" lon="-107.03017237133261"><ele>2102.0</ele><time>2026-05-03T16:21:31.001Z</time></trkpt><trkpt lat="35.984149732058626" lon="-107.03009520559002"><ele>2102.0</ele><time>2026-05-03T16:21:32.001Z</time></trkpt><trkpt lat="35.98420582389165" lon="-107.03005451556737"><ele>2102.0</ele><time>2026-05-03T16:21:33.001Z</time></trkpt><trkpt lat="35.98428712814728" lon="-107.03004708580124"><ele>2102.6</ele><time>2026-05-03T16:21:35.001Z</time></trkpt><trkpt lat="35.984380856189254" lon="-107.03007987493898"><ele>2103.2</ele><time>2026-05-03T16:21:36.001Z</time></trkpt><trkpt lat="35.984476687540486" lon="-107.03010395995217"><ele>2103.8</ele><time>2026-05-03T16:21:37.001Z</time></trkpt><trkpt lat="35.98456924111776" lon="-107.03011454187718"><ele>2104.4</ele><time>2026-05-03T16:21:38.001Z</time></trkpt><trkpt lat="35.98468827912409" lon="-107.03004806566543"><ele>2105.0</ele><time>2026-05-03T16:21:40.001Z</time></trkpt><trkpt lat="35.98475169998066" lon="-107.02999352324548"><ele>2104.5</ele><time>2026-05-03T16:21:41.001Z</time></trkpt><trkpt lat="35.98486245236481" lon="-107.02990008161368"><ele>2104.0</ele><time>2026-05-03T16:21:42.001Z</time></trkpt><trkpt lat="35.98500836697235" lon="-107.02983149121687"><ele>2103.5</ele><time>2026-05-03T16:21:43.001Z</time></trkpt><trkpt lat="35.98508687839791" lon="-107.02975767054431"><ele>2103.0</ele><time>2026-05-03T16:21:44.001Z</time></trkpt><trkpt lat="35.98515005325027" lon="-107.02965341267578"><ele>2103.2000000000003</ele><time>2026-05-03T16:21:45.001Z</time></trkpt><trkpt lat="35.98518756556386" lon="-107.029561627205"><ele>2103.4</ele><time>2026-05-03T16:21:46.001Z</time></trkpt><trkpt lat="35.985232767036756" lon="-107.02945319682459"><ele>2103.6000000000004</ele><time>2026-05-03T16:21:48.001Z</time></trkpt><trkpt lat="35.98523492595976" lon="-107.02934616000827"><ele>2103.8</ele><time>2026-05-03T16:21:49.001Z</time></trkpt><trkpt lat="35.98521996304088" lon="-107.02918448275986"><ele>2104.0</ele><time>2026-05-03T16:21:50.001Z</time></trkpt><trkpt lat="35.98518969547099" lon="-107.02900785983763"><ele>2104.0</ele><time>2026-05-03T16:21:51.001Z</time></trkpt><trkpt lat="35.98516203751352" lon="-107.02887279371474"><ele>2104.0</ele><time>2026-05-03T16:21:52.001Z</time></trkpt><trkpt lat="35.98516287229949" lon="-107.02871395415761"><ele>2104.0</ele><time>2026-05-03T16:21:54.001Z</time></trkpt><trkpt lat="35.985202830585216" lon="-107.02859162636986"><ele>2104.0</ele><time>2026-05-03T16:21:55.001Z</time></trkpt><trkpt lat="35.98521941414355" lon="-107.0284701036301"><ele>2104.0</ele><time>2026-05-03T16:21:56.001Z</time></trkpt><trkpt lat="35.98520197458021" lon="-107.0283380212319"><ele>2104.0</ele><time>2026-05-03T16:21:57.001Z</time></trkpt><trkpt lat="35.985162083991" lon="-107.02820938559015"><ele>2104.0</ele><time>2026-05-03T16:21:58.001Z</time></trkpt><trkpt lat="35.98512923752043" lon="-107.02806375611371"><ele>2104.0</ele><time>2026-05-03T16:21:59.001Z</time></trkpt><trkpt lat="35.98511403845647" lon="-107.02789539843764"><ele>2104.0</ele><time>2026-05-03T16:22:00.001Z</time></trkpt><trkpt lat="35.985102541727166" lon="-107.02775843218842"><ele>2104.0</ele><time>2026-05-03T16:22:01.001Z</time></trkpt><trkpt lat="35.98509832539887" lon="-107.02766935444876"><ele>2104.0</ele><time>2026-05-03T16:22:02.001Z</time></trkpt><trkpt lat="35.985111766371524" lon="-107.02758864032916"><ele>2104.0</ele><time>2026-05-03T16:22:03.001Z</time></trkpt><trkpt lat="35.98514265017955" lon="-107.02748336726404"><ele>2104.0</ele><time>2026-05-03T16:22:04.001Z</time></trkpt><trkpt lat="35.98517273020628" lon="-107.02735189925174"><ele>2104.0</ele><time>2026-05-03T16:22:05.001Z</time></trkpt><trkpt lat="35.98519099412022" lon="-107.02720380161956"><ele>2104.4</ele><time>2026-05-03T16:22:06.001Z</time></trkpt><trkpt lat="35.985192772845465" lon="-107.02710092153943"><ele>2104.8</ele><time>2026-05-03T16:22:07.001Z</time></trkpt><trkpt lat="35.98519795748014" lon="-107.02699871052884"><ele>2105.2</ele><time>2026-05-03T16:22:08.001Z</time></trkpt><trkpt lat="35.98521580356724" lon="-107.02687766183622"><ele>2105.6</ele><time>2026-05-03T16:22:09.001Z</time></trkpt><trkpt lat="35.9852402980775" lon="-107.0267370819586"><ele>2106.0</ele><time>2026-05-03T16:22:10.001Z</time></trkpt><trkpt lat="35.98524241508712" lon="-107.02659545778403"><ele>2107.2</ele><time>2026-05-03T16:22:11.001Z</time></trkpt><trkpt lat="35.98524393676174" lon="-107.02645186082468"><ele>2108.3999999999996</ele><time>2026-05-03T16:22:12.001Z</time></trkpt><trkpt lat="35.98525590958954" lon="-107.02635176629934"><ele>2109.6</ele><time>2026-05-03T16:22:13.001Z</time></trkpt><trkpt lat="35.98526691701533" lon="-107.02626568663543"><ele>2110.7999999999997</ele><time>2026-05-03T16:22:14.001Z</time></trkpt><trkpt lat="35.98527945223992" lon="-107.02617918428722"><ele>2112.0</ele><time>2026-05-03T16:22:15.001Z</time></trkpt><trkpt lat="35.98520136496771" lon="-107.02602927771977"><ele>2112.0</ele><time>2026-05-03T16:22:17.001Z</time></trkpt><trkpt lat="35.985153306087454" lon="-107.02591825186956"><ele>2112.0</ele><time>2026-05-03T16:22:18.001Z</time></trkpt><trkpt lat="35.98514057534711" lon="-107.02582359130251"><ele>2112.0</ele><time>2026-05-03T16:22:19.001Z</time></trkpt><trkpt lat="35.98517554599533" lon="-107.02570408965852"><ele>2112.0</ele><time>2026-05-03T16:22:21.001Z</time></trkpt><trkpt lat="35.985211929559966" lon="-107.02562929027046"><ele>2112.0</ele><time>2026-05-03T16:22:22.001Z</time></trkpt><trkpt lat="35.98527716658384" lon="-107.02556277807756"><ele>2112.0</ele><time>2026-05-03T16:22:23.001Z</time></trkpt><trkpt lat="35.98538294334417" lon="-107.02548876276074"><ele>2112.0</ele><time>2026-05-03T16:22:24.001Z</time></trkpt><trkpt lat="35.98549840429249" lon="-107.02541675075753"><ele>2112.0</ele><time>2026-05-03T16:22:25.002Z</time></trkpt><trkpt lat="35.98559436877901" lon="-107.02534994471623"><ele>2112.0</ele><time>2026-05-03T16:22:26.002Z</time></trkpt><trkpt lat="35.985673362514774" lon="-107.02526550099091"><ele>2112.0</ele><time>2026-05-03T16:22:27.002Z</time></trkpt><trkpt lat="35.98573362330402" lon="-107.02516911067913"><ele>2112.0</ele><time>2026-05-03T16:22:28.002Z</time></trkpt><trkpt lat="35.98578423920149" lon="-107.02508943128797"><ele>2112.0</ele><time>2026-05-03T16:22:29.002Z</time></trkpt><trkpt lat="35.98585266247656" lon="-107.02501680357527"><ele>2112.0</ele><time>2026-05-03T16:22:31.002Z</time></trkpt><trkpt lat="35.9859759295996" lon="-107.02498640461702"><ele>2112.0</ele><time>2026-05-03T16:22:33.002Z</time></trkpt><trkpt lat="35.98604000200108" lon="-107.02493730223536"><ele>2112.0</ele><time>2026-05-03T16:22:34.002Z</time></trkpt><trkpt lat="35.98609698101733" lon="-107.02486582404148"><ele>2112.0</ele><time>2026-05-03T16:22:35.002Z</time></trkpt><trkpt lat="35.98613992730211" lon="-107.0247349470372"><ele>2112.4</ele><time>2026-05-03T16:22:36.002Z</time></trkpt><trkpt lat="35.98618363549943" lon="-107.0245665634092"><ele>2112.7999999999997</ele><time>2026-05-03T16:22:37.002Z</time></trkpt><trkpt lat="35.98623359827231" lon="-107.02441164550966"><ele>2113.2</ele><time>2026-05-03T16:22:38.002Z</time></trkpt><trkpt lat="35.98627579130677" lon="-107.02432039492366"><ele>2113.6</ele><time>2026-05-03T16:22:39.002Z</time></trkpt><trkpt lat="35.986330725176394" lon="-107.02424110153224"><ele>2114.0</ele><time>2026-05-03T16:22:41.002Z</time></trkpt><trkpt lat="35.98644418261548" lon="-107.02419795028081"><ele>2114.0</ele><time>2026-05-03T16:22:43.002Z</time></trkpt><trkpt lat="35.9865600773045" lon="-107.02425837897391"><ele>2114.0</ele><time>2026-05-03T16:22:45.002Z</time></trkpt><trkpt lat="35.98661707730943" lon="-107.02429307287744"><ele>2114.0</ele><time>2026-05-03T16:22:46.002Z</time></trkpt><trkpt lat="35.986687056457505" lon="-107.02420572893777"><ele>2114.0</ele><time>2026-05-03T16:22:48.002Z</time></trkpt><trkpt lat="35.9866931186584" lon="-107.02408041183577"><ele>2114.0</ele><time>2026-05-03T16:22:49.002Z</time></trkpt><trkpt lat="35.98665869522225" lon="-107.02393590177543"><ele>2114.333333333333</ele><time>2026-05-03T16:22:50.002Z</time></trkpt><trkpt lat="35.98665135319323" lon="-107.02384249350249"><ele>2114.6666666666665</ele><time>2026-05-03T16:22:51.002Z</time></trkpt><trkpt lat="35.986668132673465" lon="-107.02375186038672"><ele>2115.0</ele><time>2026-05-03T16:22:52.002Z</time></trkpt><trkpt lat="35.98664629678965" lon="-107.02364697126093"><ele>2115.3333333333335</ele><time>2026-05-03T16:22:54.002Z</time></trkpt><trkpt lat="35.98659364525165" lon="-107.0235937178992"><ele>2115.666666666667</ele><time>2026-05-03T16:22:55.001Z</time></trkpt><trkpt lat="35.986557553885994" lon="-107.02351864838356"><ele>2116.0</ele><time>2026-05-03T16:22:56.001Z</time></trkpt><trkpt lat="35.98659963425759" lon="-107.02338069065848"><ele>2116.4</ele><time>2026-05-03T16:22:58.001Z</time></trkpt><trkpt lat="35.9866685626679" lon="-107.0232894921466"><ele>2116.8</ele><time>2026-05-03T16:22:59.001Z</time></trkpt><trkpt lat="35.986664604024966" lon="-107.02313981402314"><ele>2117.2000000000003</ele><time>2026-05-03T16:23:01.001Z</time></trkpt><trkpt lat="35.98660939860536" lon="-107.0230557805076"><ele>2117.6</ele><time>2026-05-03T16:23:02.001Z</time></trkpt><trkpt lat="35.98655048710518" lon="-107.0229700841672"><ele>2118.0</ele><time>2026-05-03T16:23:04.001Z</time></trkpt><trkpt lat="35.98661878228893" lon="-107.02281012632722"><ele>2118.0</ele><time>2026-05-03T16:23:06.001Z</time></trkpt><trkpt lat="35.98663935224661" lon="-107.02268962160065"><ele>2118.0</ele><time>2026-05-03T16:23:07.001Z</time></trkpt><trkpt lat="35.98660106410597" lon="-107.02258879706169"><ele>2118.0</ele><time>2026-05-03T16:23:09.001Z</time></trkpt><trkpt lat="35.98654584264321" lon="-107.0225042256416"><ele>2118.0</ele><time>2026-05-03T16:23:11.001Z</time></trkpt><trkpt lat="35.98656051304333" lon="-107.02236635137359"><ele>2118.0</ele><time>2026-05-03T16:23:13.001Z</time></trkpt><trkpt lat="35.98654514205842" lon="-107.02225121476164"><ele>2118.6</ele><time>2026-05-03T16:23:14.001Z</time></trkpt><trkpt lat="35.98651020237138" lon="-107.02216702788469"><ele>2119.2000000000003</ele><time>2026-05-03T16:23:16.001Z</time></trkpt><trkpt lat="35.98654349751682" lon="-107.02208217334382"><ele>2119.8</ele><time>2026-05-03T16:23:18.001Z</time></trkpt><trkpt lat="35.98646667770632" lon="-107.0218975972285"><ele>2120.4</ele><time>2026-05-03T16:23:21.001Z</time></trkpt><trkpt lat="35.986404157901944" lon="-107.02180313782347"><ele>2121.0</ele><time>2026-05-03T16:23:23.001Z</time></trkpt><trkpt lat="35.9863350724341" lon="-107.02168786858599"><ele>2121.4</ele><time>2026-05-03T16:23:25.001Z</time></trkpt><trkpt lat="35.986253247873215" lon="-107.02162719009588"><ele>2121.8</ele><time>2026-05-03T16:23:27.001Z</time></trkpt><trkpt lat="35.986240061581135" lon="-107.02151669373545"><ele>2122.2000000000003</ele><time>2026-05-03T16:23:29.001Z</time></trkpt><trkpt lat="35.98624706989324" lon="-107.02139721822387"><ele>2122.6</ele><time>2026-05-03T16:23:31.001Z</time></trkpt><trkpt lat="35.986220144436444" lon="-107.02131947481024"><ele>2123.0</ele><time>2026-05-03T16:23:33.001Z</time></trkpt><trkpt lat="35.98614106692714" lon="-107.0212415152893"><ele>2123.0</ele><time>2026-05-03T16:23:35.001Z</time></trkpt><trkpt lat="35.98608247835762" lon="-107.02119662471014"><ele>2123.0</ele><time>2026-05-03T16:23:36.001Z</time></trkpt><trkpt lat="35.98601850359339" lon="-107.02117153886569"><ele>2123.0</ele><time>2026-05-03T16:23:37.001Z</time></trkpt><trkpt lat="35.98592053425102" lon="-107.02123551936963"><ele>2123.0</ele><time>2026-05-03T16:23:38.001Z</time></trkpt><trkpt lat="35.985851708662295" lon="-107.02127298335019"><ele>2123.0</ele><time>2026-05-03T16:23:39.001Z</time></trkpt><trkpt lat="35.9857134118508" lon="-107.02147526031222"><ele>2122.833333333333</ele><time>2026-05-03T16:23:41.001Z</time></trkpt><trkpt lat="35.98564880170183" lon="-107.0215207683454"><ele>2122.6666666666665</ele><time>2026-05-03T16:23:42.001Z</time></trkpt><trkpt lat="35.985654640208594" lon="-107.02166522709888"><ele>2122.5</ele><time>2026-05-03T16:23:44.001Z</time></trkpt><trkpt lat="35.98569068478652" lon="-107.02174609746356"><ele>2122.3333333333335</ele><time>2026-05-03T16:23:45.001Z</time></trkpt><trkpt lat="35.98575070910453" lon="-107.02182681673483"><ele>2122.166666666667</ele><time>2026-05-03T16:23:46.001Z</time></trkpt><trkpt lat="35.98580566918816" lon="-107.02187474823425"><ele>2122.0</ele><time>2026-05-03T16:23:47.001Z</time></trkpt><trkpt lat="35.985895224529536" lon="-107.02189637161389"><ele>2121.7999999999997</ele><time>2026-05-03T16:23:48.001Z</time></trkpt><trkpt lat="35.98601122701074" lon="-107.02189597402047"><ele>2121.6</ele><time>2026-05-03T16:23:49.001Z</time></trkpt><trkpt lat="35.986095891591326" lon="-107.02192371865364"><ele>2121.3999999999996</ele><time>2026-05-03T16:23:50.001Z</time></trkpt><trkpt lat="35.986134631458945" lon="-107.02199100571133"><ele>2121.2</ele><time>2026-05-03T16:23:51.001Z</time></trkpt><trkpt lat="35.9861765212649" lon="-107.02208808508541"><ele>2121.0</ele><time>2026-05-03T16:23:52.001Z</time></trkpt><trkpt lat="35.986181705155715" lon="-107.02220948063746"><ele>2121.0</ele><time>2026-05-03T16:23:53.001Z</time></trkpt><trkpt lat="35.986179245679246" lon="-107.02233403304261"><ele>2121.0</ele><time>2026-05-03T16:23:54.001Z</time></trkpt><trkpt lat="35.9861522314586" lon="-107.02250136806"><ele>2121.0</ele><time>2026-05-03T16:23:55.001Z</time></trkpt><trkpt lat="35.9861185491439" lon="-107.02270287305937"><ele>2121.0</ele><time>2026-05-03T16:23:56.001Z</time></trkpt><trkpt lat="35.98610176514494" lon="-107.0228849648208"><ele>2120.25</ele><time>2026-05-03T16:23:57.001Z</time></trkpt><trkpt lat="35.986087980212616" lon="-107.02303512680982"><ele>2119.5</ele><time>2026-05-03T16:23:58.001Z</time></trkpt><trkpt lat="35.98605494099952" lon="-107.02319991334572"><ele>2118.75</ele><time>2026-05-03T16:23:59.001Z</time></trkpt><trkpt lat="35.98603701624991" lon="-107.02336239972199"><ele>2118.0</ele><time>2026-05-03T16:24:00.001Z</time></trkpt><trkpt lat="35.986019630101914" lon="-107.02351864489385"><ele>2118.25</ele><time>2026-05-03T16:24:01.001Z</time></trkpt><trkpt lat="35.985976033544254" lon="-107.02366761313291"><ele>2118.5</ele><time>2026-05-03T16:24:02.001Z</time></trkpt><trkpt lat="35.98591929155495" lon="-107.02382785236708"><ele>2118.75</ele><time>2026-05-03T16:24:03.001Z</time></trkpt><trkpt lat="35.98586563044148" lon="-107.02395880172242"><ele>2119.0</ele><time>2026-05-03T16:24:04.001Z</time></trkpt><trkpt lat="35.98580507492555" lon="-107.02409271007726"><ele>2118.0</ele><time>2026-05-03T16:24:05.001Z</time></trkpt><trkpt lat="35.98575651197642" lon="-107.02422653386878"><ele>2117.0</ele><time>2026-05-03T16:24:06.001Z</time></trkpt><trkpt lat="35.98571458632219" lon="-107.02432981595061"><ele>2116.0</ele><time>2026-05-03T16:24:07.001Z</time></trkpt><trkpt lat="35.985635073744696" lon="-107.02436818627959"><ele>2115.0</ele><time>2026-05-03T16:24:09.001Z</time></trkpt><trkpt lat="35.98552211119136" lon="-107.02431834739286"><ele>2114.0</ele><time>2026-05-03T16:24:10.001Z</time></trkpt><trkpt lat="35.985411141753175" lon="-107.02432771962955"><ele>2114.0</ele><time>2026-05-03T16:24:11.001Z</time></trkpt><trkpt lat="35.98535113888185" lon="-107.02439605349079"><ele>2114.0</ele><time>2026-05-03T16:24:12.001Z</time></trkpt><trkpt lat="35.985285149007964" lon="-107.02451067974235"><ele>2114.0</ele><time>2026-05-03T16:24:13.001Z</time></trkpt><trkpt lat="35.98518748433782" lon="-107.0246288646463"><ele>2114.0</ele><time>2026-05-03T16:24:14.001Z</time></trkpt><trkpt lat="35.985091304990235" lon="-107.02471635889161"><ele>2114.0</ele><time>2026-05-03T16:24:15.001Z</time></trkpt><trkpt lat="35.985050662497834" lon="-107.02478122618584"><ele>2114.0</ele><time>2026-05-03T16:24:16.001Z</time></trkpt><trkpt lat="35.98504291268787" lon="-107.02497208599847"><ele>2114.0</ele><time>2026-05-03T16:24:18.001Z</time></trkpt><trkpt lat="35.98503161445276" lon="-107.02510950302741"><ele>2114.0</ele><time>2026-05-03T16:24:19.001Z</time></trkpt><trkpt lat="35.9849753971638" lon="-107.02520476017453"><ele>2114.0</ele><time>2026-05-03T16:24:20.001Z</time></trkpt><trkpt lat="35.98490271310549" lon="-107.02529235453942"><ele>2113.4</ele><time>2026-05-03T16:24:21.001Z</time></trkpt><trkpt lat="35.98483554682666" lon="-107.0253511862371"><ele>2112.8</ele><time>2026-05-03T16:24:22.001Z</time></trkpt><trkpt lat="35.98475623215835" lon="-107.02539367400082"><ele>2112.2</ele><time>2026-05-03T16:24:23.001Z</time></trkpt><trkpt lat="35.98465228271436" lon="-107.02538653767284"><ele>2111.6</ele><time>2026-05-03T16:24:25.001Z</time></trkpt><trkpt lat="35.98457205213764" lon="-107.02535073669381"><ele>2111.0</ele><time>2026-05-03T16:24:26.001Z</time></trkpt><trkpt lat="35.98444357537113" lon="-107.02533429639598"><ele>2111.0</ele><time>2026-05-03T16:24:27.001Z</time></trkpt><trkpt lat="35.98431263575629" lon="-107.0253404641799"><ele>2111.0</ele><time>2026-05-03T16:24:28.001Z</time></trkpt><trkpt lat="35.98424322022105" lon="-107.02534157092491"><ele>2111.0</ele><time>2026-05-03T16:24:29.001Z</time></trkpt><trkpt lat="35.98417302101104" lon="-107.02536308933281"><ele>2111.0</ele><time>2026-05-03T16:24:30.001Z</time></trkpt><trkpt lat="35.984078312394075" lon="-107.02539837246405"><ele>2111.0</ele><time>2026-05-03T16:24:31.001Z</time></trkpt><trkpt lat="35.983980947021834" lon="-107.02544762530435"><ele>2112.0</ele><time>2026-05-03T16:24:32.001Z</time></trkpt><trkpt lat="35.98389004823111" lon="-107.025510906606"><ele>2113.0</ele><time>2026-05-03T16:24:33.002Z</time></trkpt><trkpt lat="35.98379741504443" lon="-107.02559862889855"><ele>2114.0</ele><time>2026-05-03T16:24:34.002Z</time></trkpt><trkpt lat="35.9837147285454" lon="-107.02568156802765"><ele>2115.0</ele><time>2026-05-03T16:24:35.002Z</time></trkpt><trkpt lat="35.983615629240134" lon="-107.0257139598462"><ele>2116.0</ele><time>2026-05-03T16:24:36.002Z</time></trkpt><trkpt lat="35.983490582120666" lon="-107.02571925243012"><ele>2116.0</ele><time>2026-05-03T16:24:37.002Z</time></trkpt><trkpt lat="35.983412118066475" lon="-107.02570914437175"><ele>2116.0</ele><time>2026-05-03T16:24:38.002Z</time></trkpt><trkpt lat="35.983343810247966" lon="-107.0256389457401"><ele>2116.0</ele><time>2026-05-03T16:24:40.002Z</time></trkpt><trkpt lat="35.98335430575851" lon="-107.02545500214596"><ele>2116.0</ele><time>2026-05-03T16:24:42.002Z</time></trkpt><trkpt lat="35.98341211585728" lon="-107.02531254781448"><ele>2116.0</ele><time>2026-05-03T16:24:43.002Z</time></trkpt><trkpt lat="35.98344935571606" lon="-107.02518145960396"><ele>2116.0</ele><time>2026-05-03T16:24:44.002Z</time></trkpt><trkpt lat="35.98346889502922" lon="-107.0250764610815"><ele>2116.0</ele><time>2026-05-03T16:24:46.002Z</time></trkpt><trkpt lat="35.98333233038949" lon="-107.02503852717899"><ele>2116.0</ele><time>2026-05-03T16:24:48.002Z</time></trkpt><trkpt lat="35.983235235575634" lon="-107.02504272504181"><ele>2116.0</ele><time>2026-05-03T16:24:49.002Z</time></trkpt><trkpt lat="35.983154973047256" lon="-107.02506932513722"><ele>2116.0</ele><time>2026-05-03T16:24:50.002Z</time></trkpt><trkpt lat="35.98308667408308" lon="-107.02509990388127"><ele>2115.0</ele><time>2026-05-03T16:24:51.002Z</time></trkpt><trkpt lat="35.983019533527305" lon="-107.02513814254341"><ele>2114.0</ele><time>2026-05-03T16:24:52.002Z</time></trkpt><trkpt lat="35.98297802990128" lon="-107.02519768644206"><ele>2113.0</ele><time>2026-05-03T16:24:53.002Z</time></trkpt><trkpt lat="35.982919116950164" lon="-107.02528566312286"><ele>2112.0</ele><time>2026-05-03T16:24:54.002Z</time></trkpt><trkpt lat="35.98285850599489" lon="-107.02535971718862"><ele>2111.0</ele><time>2026-05-03T16:24:55.002Z</time></trkpt><trkpt lat="35.9827980445487" lon="-107.02549479206766"><ele>2110.0</ele><time>2026-05-03T16:24:57.002Z</time></trkpt><trkpt lat="35.98276477083447" lon="-107.02556202865556"><ele>2110.0</ele><time>2026-05-03T16:24:58.002Z</time></trkpt><trkpt lat="35.98264296422058" lon="-107.02562890887368"><ele>2110.0</ele><time>2026-05-03T16:25:00.002Z</time></trkpt><trkpt lat="35.98254957262481" lon="-107.0256297790069"><ele>2110.0</ele><time>2026-05-03T16:25:01.001Z</time></trkpt><trkpt lat="35.98245324353403" lon="-107.02561331539188"><ele>2110.0</ele><time>2026-05-03T16:25:02.001Z</time></trkpt><trkpt lat="35.98238153617966" lon="-107.02559229894635"><ele>2110.0</ele><time>2026-05-03T16:25:03.001Z</time></trkpt><trkpt lat="35.982237150330306" lon="-107.02560197056633"><ele>2109.8</ele><time>2026-05-03T16:25:05.001Z</time></trkpt><trkpt lat="35.982147411613596" lon="-107.02550985342334"><ele>2109.6</ele><time>2026-05-03T16:25:07.001Z</time></trkpt><trkpt lat="35.98213292656745" lon="-107.02538635725236"><ele>2109.4</ele><time>2026-05-03T16:25:08.001Z</time></trkpt><trkpt lat="35.982099947088344" lon="-107.02527330866954"><ele>2109.2</ele><time>2026-05-03T16:25:09.001Z</time></trkpt><trkpt lat="35.98197559300878" lon="-107.02528337943721"><ele>2109.0</ele><time>2026-05-03T16:25:12.001Z</time></trkpt><trkpt lat="35.981881827300285" lon="-107.02536148100116"><ele>2109.0</ele><time>2026-05-03T16:25:13.001Z</time></trkpt><trkpt lat="35.981771337500675" lon="-107.02547230684222"><ele>2109.0</ele><time>2026-05-03T16:25:14Z</time></trkpt><trkpt lat="35.9816654196387" lon="-107.02560448729739"><ele>2109.0</ele><time>2026-05-03T16:25:15.001Z</time></trkpt><trkpt lat="35.98159029511768" lon="-107.02571726642876"><ele>2109.0</ele><time>2026-05-03T16:25:16.001Z</time></trkpt><trkpt lat="35.98153659484072" lon="-107.0258022920311"><ele>2108.3333333333335</ele><time>2026-05-03T16:25:17.001Z</time></trkpt><trkpt lat="35.98148209502222" lon="-107.02587121928765"><ele>2107.6666666666665</ele><time>2026-05-03T16:25:18.001Z</time></trkpt><trkpt lat="35.98146226390232" lon="-107.0260131883402"><ele>2107.0</ele><time>2026-05-03T16:25:21.001Z</time></trkpt><trkpt lat="35.98140751942708" lon="-107.02608595805698"><ele>2106.333333333333</ele><time>2026-05-03T16:25:22.001Z</time></trkpt><trkpt lat="35.981343786160636" lon="-107.02613507648357"><ele>2105.6666666666665</ele><time>2026-05-03T16:25:23.001Z</time></trkpt><trkpt lat="35.98126962363775" lon="-107.0262046038156"><ele>2105.0</ele><time>2026-05-03T16:25:24.001Z</time></trkpt><trkpt lat="35.98119307742594" lon="-107.02626733915463"><ele>2105.0</ele><time>2026-05-03T16:25:25.001Z</time></trkpt><trkpt lat="35.98114379784662" lon="-107.02633666807286"><ele>2105.0</ele><time>2026-05-03T16:25:26.001Z</time></trkpt><trkpt lat="35.98107714714173" lon="-107.02640094284311"><ele>2105.0</ele><time>2026-05-03T16:25:28.001Z</time></trkpt><trkpt lat="35.981044041242185" lon="-107.02632827133569"><ele>2105.0</ele><time>2026-05-03T16:25:30.001Z</time></trkpt><trkpt lat="35.9809887041851" lon="-107.02626524183471"><ele>2105.0</ele><time>2026-05-03T16:25:32.001Z</time></trkpt><trkpt lat="35.98092811108051" lon="-107.02615245110563"><ele>2105.0</ele><time>2026-05-03T16:25:33.001Z</time></trkpt><trkpt lat="35.980934478253495" lon="-107.02602218149023"><ele>2105.0</ele><time>2026-05-03T16:25:34.001Z</time></trkpt><trkpt lat="35.98097191826599" lon="-107.02592411416974"><ele>2105.0</ele><time>2026-05-03T16:25:35.001Z</time></trkpt><trkpt lat="35.981024176484816" lon="-107.02583234417787"><ele>2105.0</ele><time>2026-05-03T16:25:36.001Z</time></trkpt><trkpt lat="35.98107313989522" lon="-107.02573909378687"><ele>2105.0</ele><time>2026-05-03T16:25:37.001Z</time></trkpt><trkpt lat="35.98106845769747" lon="-107.02563560017971"><ele>2105.0</ele><time>2026-05-03T16:25:38.001Z</time></trkpt><trkpt lat="35.98103194864679" lon="-107.0254926762681"><ele>2105.75</ele><time>2026-05-03T16:25:39.001Z</time></trkpt><trkpt lat="35.98096717689205" lon="-107.02532347373968"><ele>2106.5</ele><time>2026-05-03T16:25:40.001Z</time></trkpt><trkpt lat="35.98091233783645" lon="-107.02516316786915"><ele>2107.25</ele><time>2026-05-03T16:25:41.001Z</time></trkpt><trkpt lat="35.980856339763136" lon="-107.02500788567028"><ele>2108.0</ele><time>2026-05-03T16:25:42.001Z</time></trkpt><trkpt lat="35.98088501608489" lon="-107.02486616688722"><ele>2108.25</ele><time>2026-05-03T16:25:44.001Z</time></trkpt><trkpt lat="35.980922055248655" lon="-107.02476318186254"><ele>2108.5</ele><time>2026-05-03T16:25:45.001Z</time></trkpt><trkpt lat="35.980980326718395" lon="-107.02463594585038"><ele>2108.75</ele><time>2026-05-03T16:25:46.001Z</time></trkpt><trkpt lat="35.98103789164416" lon="-107.02448209220184"><ele>2109.0</ele><time>2026-05-03T16:25:47.001Z</time></trkpt><trkpt lat="35.98106737946218" lon="-107.02436005908422"><ele>2109.0</ele><time>2026-05-03T16:25:48.001Z</time></trkpt><trkpt lat="35.981006281613" lon="-107.02428358710127"><ele>2109.0</ele><time>2026-05-03T16:25:50.001Z</time></trkpt><trkpt lat="35.98094036249867" lon="-107.02424643428064"><ele>2109.0</ele><time>2026-05-03T16:25:51.001Z</time></trkpt><trkpt lat="35.98084927873343" lon="-107.02419285346896"><ele>2109.0</ele><time>2026-05-03T16:25:52.001Z</time></trkpt><trkpt lat="35.980750333413354" lon="-107.02415574185137"><ele>2109.0</ele><time>2026-05-03T16:25:53.001Z</time></trkpt><trkpt lat="35.98067176827455" lon="-107.02408947944163"><ele>2107.75</ele><time>2026-05-03T16:25:55.001Z</time></trkpt><trkpt lat="35.98064929605276" lon="-107.02399987337837"><ele>2106.5</ele><time>2026-05-03T16:25:57.001Z</time></trkpt><trkpt lat="35.980699766919344" lon="-107.02382635605902"><ele>2105.25</ele><time>2026-05-03T16:25:59.001Z</time></trkpt><trkpt lat="35.980741316167276" lon="-107.02368320723964"><ele>2104.0</ele><time>2026-05-03T16:26:00.001Z</time></trkpt><trkpt lat="35.98081197097684" lon="-107.0235207084999"><ele>2104.4</ele><time>2026-05-03T16:26:01.001Z</time></trkpt><trkpt lat="35.980867866318015" lon="-107.0234197410228"><ele>2104.8</ele><time>2026-05-03T16:26:02.001Z</time></trkpt><trkpt lat="35.98096437798452" lon="-107.02333995299618"><ele>2105.2</ele><time>2026-05-03T16:26:04.001Z</time></trkpt><trkpt lat="35.98105991588845" lon="-107.0233217430829"><ele>2105.6</ele><time>2026-05-03T16:26:05.001Z</time></trkpt><trkpt lat="35.98118603590948" lon="-107.02329697675592"><ele>2106.0</ele><time>2026-05-03T16:26:06.001Z</time></trkpt><trkpt lat="35.98128491639581" lon="-107.02326887379614"><ele>2106.5</ele><time>2026-05-03T16:26:07.001Z</time></trkpt><trkpt lat="35.98136834362394" lon="-107.02326260186474"><ele>2107.0</ele><time>2026-05-03T16:26:08.001Z</time></trkpt><trkpt lat="35.981433191034505" lon="-107.02326199322106"><ele>2107.5</ele><time>2026-05-03T16:26:09.001Z</time></trkpt><trkpt lat="35.98153994058372" lon="-107.02317917282531"><ele>2108.0</ele><time>2026-05-03T16:26:11.001Z</time></trkpt><trkpt lat="35.98160310541943" lon="-107.02311961414091"><ele>2108.5</ele><time>2026-05-03T16:26:12.001Z</time></trkpt><trkpt lat="35.98167174514391" lon="-107.02306290553611"><ele>2109.0</ele><time>2026-05-03T16:26:13.001Z</time></trkpt><trkpt lat="35.9817257992744" lon="-107.02301436959513"><ele>2109.0</ele><time>2026-05-03T16:26:14.001Z</time></trkpt><trkpt lat="35.98179072162465" lon="-107.02297662688686"><ele>2109.0</ele><time>2026-05-03T16:26:15.001Z</time></trkpt><trkpt lat="35.98184732063859" lon="-107.02292427059987"><ele>2109.0</ele><time>2026-05-03T16:26:16.001Z</time></trkpt><trkpt lat="35.981888467392665" lon="-107.02285946374549"><ele>2109.0</ele><time>2026-05-03T16:26:18.001Z</time></trkpt><trkpt lat="35.98184276513631" lon="-107.02275518880259"><ele>2109.0</ele><time>2026-05-03T16:26:19.001Z</time></trkpt><trkpt lat="35.98179350291386" lon="-107.02262921621328"><ele>2109.0</ele><time>2026-05-03T16:26:20.001Z</time></trkpt><trkpt lat="35.98174806859175" lon="-107.02252500515009"><ele>2109.0</ele><time>2026-05-03T16:26:21.001Z</time></trkpt><trkpt lat="35.98171694272539" lon="-107.02241518686529"><ele>2109.0</ele><time>2026-05-03T16:26:23.001Z</time></trkpt><trkpt lat="35.98163159222429" lon="-107.0224171309861"><ele>2109.0</ele><time>2026-05-03T16:26:26.001Z</time></trkpt><trkpt lat="35.98157628254877" lon="-107.02250510478481"><ele>2109.0</ele><time>2026-05-03T16:26:27.001Z</time></trkpt><trkpt lat="35.98152286900209" lon="-107.0225816993904"><ele>2109.0</ele><time>2026-05-03T16:26:28.001Z</time></trkpt><trkpt lat="35.98144670741253" lon="-107.02264874388685"><ele>2109.0</ele><time>2026-05-03T16:26:29.001Z</time></trkpt><trkpt lat="35.98134724378435" lon="-107.02273074577313"><ele>2109.0</ele><time>2026-05-03T16:26:30.001Z</time></trkpt><trkpt lat="35.98123733565804" lon="-107.02281335262614"><ele>2109.0</ele><time>2026-05-03T16:26:31.001Z</time></trkpt><trkpt lat="35.981104976147755" lon="-107.02289216672955"><ele>2109.0</ele><time>2026-05-03T16:26:32.001Z</time></trkpt><trkpt lat="35.98099356167546" lon="-107.02295849770967"><ele>2109.0</ele><time>2026-05-03T16:26:33.001Z</time></trkpt><trkpt lat="35.98093373887844" lon="-107.02301050713108"><ele>2109.0</ele><time>2026-05-03T16:26:34.001Z</time></trkpt><trkpt lat="35.98086341197739" lon="-107.0231132117073"><ele>2109.0</ele><time>2026-05-03T16:26:35.001Z</time></trkpt><trkpt lat="35.98078832208698" lon="-107.02319776953284"><ele>2109.0</ele><time>2026-05-03T16:26:36.001Z</time></trkpt><trkpt lat="35.980729523557436" lon="-107.02324113950267"><ele>2109.0</ele><time>2026-05-03T16:26:37.001Z</time></trkpt><trkpt lat="35.98066463252001" lon="-107.02326074021052"><ele>2109.0</ele><time>2026-05-03T16:26:38.001Z</time></trkpt><trkpt lat="35.98057179619126" lon="-107.02325983417364"><ele>2109.0</ele><time>2026-05-03T16:26:39.002Z</time></trkpt><trkpt lat="35.98045775506494" lon="-107.02326798023634"><ele>2109.2</ele><time>2026-05-03T16:26:40.002Z</time></trkpt><trkpt lat="35.98035395664689" lon="-107.02330059362126"><ele>2109.4</ele><time>2026-05-03T16:26:41.002Z</time></trkpt><trkpt lat="35.98028355848622" lon="-107.02335779676042"><ele>2109.6</ele><time>2026-05-03T16:26:42.002Z</time></trkpt><trkpt lat="35.98021605006234" lon="-107.02342665048032"><ele>2109.8</ele><time>2026-05-03T16:26:43.002Z</time></trkpt><trkpt lat="35.98015785329127" lon="-107.02351037102682"><ele>2110.0</ele><time>2026-05-03T16:26:44.002Z</time></trkpt><trkpt lat="35.980130989591316" lon="-107.02360570361517"><ele>2109.0</ele><time>2026-05-03T16:26:45.002Z</time></trkpt><trkpt lat="35.980129315232524" lon="-107.02370529466482"><ele>2108.0</ele><time>2026-05-03T16:26:46.002Z</time></trkpt><trkpt lat="35.980129245987605" lon="-107.02380008086901"><ele>2107.0</ele><time>2026-05-03T16:26:47.002Z</time></trkpt><trkpt lat="35.98010554827788" lon="-107.02390096607326"><ele>2106.0</ele><time>2026-05-03T16:26:48.002Z</time></trkpt><trkpt lat="35.98008744819583" lon="-107.02400396080648"><ele>2105.0</ele><time>2026-05-03T16:26:49.002Z</time></trkpt><trkpt lat="35.98008638414122" lon="-107.02411580759976"><ele>2104.0</ele><time>2026-05-03T16:26:50.002Z</time></trkpt><trkpt lat="35.980066114781096" lon="-107.02423564281543"><ele>2104.0</ele><time>2026-05-03T16:26:51.002Z</time></trkpt><trkpt lat="35.980049809422994" lon="-107.02435706795652"><ele>2104.0</ele><time>2026-05-03T16:26:52.002Z</time></trkpt><trkpt lat="35.980062709439615" lon="-107.02448350953917"><ele>2104.0</ele><time>2026-05-03T16:26:53.002Z</time></trkpt><trkpt lat="35.98006967791044" lon="-107.02460233081997"><ele>2104.0</ele><time>2026-05-03T16:26:54.002Z</time></trkpt><trkpt lat="35.98005839623624" lon="-107.0246826606538"><ele>2104.0</ele><time>2026-05-03T16:26:55.002Z</time></trkpt><trkpt lat="35.9799954884785" lon="-107.02479963439808"><ele>2103.166666666667</ele><time>2026-05-03T16:26:57.002Z</time></trkpt><trkpt lat="35.97990527159639" lon="-107.02484782487963"><ele>2102.3333333333335</ele><time>2026-05-03T16:26:58.002Z</time></trkpt><trkpt lat="35.979809432369855" lon="-107.02490694843598"><ele>2101.5</ele><time>2026-05-03T16:26:59.002Z</time></trkpt><trkpt lat="35.97975194699957" lon="-107.02496584652775"><ele>2100.6666666666665</ele><time>2026-05-03T16:27:00.002Z</time></trkpt><trkpt lat="35.979700061545905" lon="-107.0250572231446"><ele>2099.833333333333</ele><time>2026-05-03T16:27:02.002Z</time></trkpt><trkpt lat="35.97962903751671" lon="-107.02504520592632"><ele>2099.0</ele><time>2026-05-03T16:27:04.002Z</time></trkpt><trkpt lat="35.97956037462057" lon="-107.02500891211905"><ele>2099.0</ele><time>2026-05-03T16:27:05.002Z</time></trkpt><trkpt lat="35.97952902493677" lon="-107.0251320601921"><ele>2099.0</ele><time>2026-05-03T16:27:08Z</time></trkpt><trkpt lat="35.97948555198625" lon="-107.0252070090799"><ele>2099.0</ele><time>2026-05-03T16:27:11Z</time></trkpt><trkpt lat="35.97941483618919" lon="-107.02524534445601"><ele>2099.0</ele><time>2026-05-03T16:27:12.001Z</time></trkpt><trkpt lat="35.9793360402603" lon="-107.02528269039365"><ele>2099.0</ele><time>2026-05-03T16:27:13Z</time></trkpt><trkpt lat="35.97925588318398" lon="-107.02532211636101"><ele>2099.0</ele><time>2026-05-03T16:27:14Z</time></trkpt><trkpt lat="35.97917599351564" lon="-107.02535561710282"><ele>2099.4</ele><time>2026-05-03T16:27:15Z</time></trkpt><trkpt lat="35.97909901424817" lon="-107.02538685115188"><ele>2099.8</ele><time>2026-05-03T16:27:16Z</time></trkpt><trkpt lat="35.97901811169011" lon="-107.02544143796453"><ele>2100.2</ele><time>2026-05-03T16:27:18Z</time></trkpt><trkpt lat="35.97899181213645" lon="-107.02558604032612"><ele>2100.6</ele><time>2026-05-03T16:27:20Z</time></trkpt><trkpt lat="35.97892685202852" lon="-107.02569379834871"><ele>2101.0</ele><time>2026-05-03T16:27:21Z</time></trkpt><trkpt lat="35.9788716428265" lon="-107.02576361866002"><ele>2100.4</ele><time>2026-05-03T16:27:22Z</time></trkpt><trkpt lat="35.9788405551671" lon="-107.02589624180526"><ele>2099.8</ele><time>2026-05-03T16:27:24.001Z</time></trkpt><trkpt lat="35.97878995211418" lon="-107.02596714935405"><ele>2099.2000000000003</ele><time>2026-05-03T16:27:25.001Z</time></trkpt><trkpt lat="35.97869132309148" lon="-107.0260197270826"><ele>2098.6</ele><time>2026-05-03T16:27:27.001Z</time></trkpt><trkpt lat="35.97860349800756" lon="-107.02613540564492"><ele>2098.0</ele><time>2026-05-03T16:27:29.001Z</time></trkpt><trkpt lat="35.978549347073674" lon="-107.02623583372623"><ele>2098.0</ele><time>2026-05-03T16:27:30.001Z</time></trkpt><trkpt lat="35.97849013958887" lon="-107.02631939148459"><ele>2098.0</ele><time>2026-05-03T16:27:31.001Z</time></trkpt><trkpt lat="35.97842209292081" lon="-107.02636350819577"><ele>2098.0</ele><time>2026-05-03T16:27:32.001Z</time></trkpt><trkpt lat="35.97833720806972" lon="-107.0264170421832"><ele>2098.0</ele><time>2026-05-03T16:27:33.001Z</time></trkpt><trkpt lat="35.97826976614584" lon="-107.02646077090017"><ele>2098.0</ele><time>2026-05-03T16:27:34.001Z</time></trkpt><trkpt lat="35.97821007694677" lon="-107.02653760152182"><ele>2098.0</ele><time>2026-05-03T16:27:36.001Z</time></trkpt><trkpt lat="35.978159017664254" lon="-107.02660635532236"><ele>2098.166666666667</ele><time>2026-05-03T16:27:37.001Z</time></trkpt><trkpt lat="35.978089399996186" lon="-107.02662705260337"><ele>2098.3333333333335</ele><time>2026-05-03T16:27:38.001Z</time></trkpt><trkpt lat="35.97802677356835" lon="-107.02666860902362"><ele>2098.5</ele><time>2026-05-03T16:27:39.001Z</time></trkpt><trkpt lat="35.97795569251062" lon="-107.02672054413314"><ele>2098.6666666666665</ele><time>2026-05-03T16:27:41.001Z</time></trkpt><trkpt lat="35.978006781292336" lon="-107.02680858608231"><ele>2098.833333333333</ele><time>2026-05-03T16:27:44.001Z</time></trkpt><trkpt lat="35.97808346198892" lon="-107.0268468817114"><ele>2099.0</ele><time>2026-05-03T16:27:45.001Z</time></trkpt><trkpt lat="35.97814055431781" lon="-107.02690381997866"><ele>2098.6</ele><time>2026-05-03T16:27:46.001Z</time></trkpt><trkpt lat="35.97810934473521" lon="-107.02702245246209"><ele>2098.2</ele><time>2026-05-03T16:27:48.001Z</time></trkpt><trkpt lat="35.978013655930525" lon="-107.02716089709446"><ele>2097.7999999999997</ele><time>2026-05-03T16:27:51.001Z</time></trkpt><trkpt lat="35.97796429553375" lon="-107.02721774262409"><ele>2097.4</ele><time>2026-05-03T16:27:52.001Z</time></trkpt><trkpt lat="35.97790722125858" lon="-107.02727163928252"><ele>2097.0</ele><time>2026-05-03T16:27:53.001Z</time></trkpt><trkpt lat="35.97784580893316" lon="-107.0273171085682"><ele>2097.0</ele><time>2026-05-03T16:27:54.001Z</time></trkpt><trkpt lat="35.9777802539671" lon="-107.02736657515307"><ele>2097.0</ele><time>2026-05-03T16:27:55.001Z</time></trkpt><trkpt lat="35.97771479847338" lon="-107.02741599689793"><ele>2097.0</ele><time>2026-05-03T16:27:56.001Z</time></trkpt><trkpt lat="35.97764515260557" lon="-107.02745533561054"><ele>2097.0</ele><time>2026-05-03T16:27:57.001Z</time></trkpt><trkpt lat="35.97757822337413" lon="-107.02747637860968"><ele>2097.0</ele><time>2026-05-03T16:27:58.001Z</time></trkpt><trkpt lat="35.97749266903497" lon="-107.02744682898665"><ele>2097.0</ele><time>2026-05-03T16:28:00.001Z</time></trkpt><trkpt lat="35.977474148865035" lon="-107.02733432250544"><ele>2097.4</ele><time>2026-05-03T16:28:02.001Z</time></trkpt><trkpt lat="35.97741375640976" lon="-107.02728366012813"><ele>2097.7999999999997</ele><time>2026-05-03T16:28:04.001Z</time></trkpt><trkpt lat="35.97730949089701" lon="-107.02724400157678"><ele>2098.2</ele><time>2026-05-03T16:28:06.001Z</time></trkpt><trkpt lat="35.97719704660877" lon="-107.02719681195929"><ele>2098.6</ele><time>2026-05-03T16:28:08.001Z</time></trkpt><trkpt lat="35.97712326555651" lon="-107.02714644329532"><ele>2099.0</ele><time>2026-05-03T16:28:09.001Z</time></trkpt><trkpt lat="35.977043241583594" lon="-107.02719221520513"><ele>2099.0</ele><time>2026-05-03T16:28:11.001Z</time></trkpt><trkpt lat="35.97700857856107" lon="-107.027279131385"><ele>2099.0</ele><time>2026-05-03T16:28:12.001Z</time></trkpt><trkpt lat="35.97688856176054" lon="-107.02724110259548"><ele>2099.0</ele><time>2026-05-03T16:28:15.001Z</time></trkpt><trkpt lat="35.97680921601977" lon="-107.027180455292"><ele>2099.0</ele><time>2026-05-03T16:28:16.001Z</time></trkpt><trkpt lat="35.976737956777605" lon="-107.027174392632"><ele>2099.0</ele><time>2026-05-03T16:28:17.001Z</time></trkpt><trkpt lat="35.976654642261515" lon="-107.02716225591104"><ele>2098.2</ele><time>2026-05-03T16:28:18.001Z</time></trkpt><trkpt lat="35.97658935172867" lon="-107.0271511144479"><ele>2097.4</ele><time>2026-05-03T16:28:19.001Z</time></trkpt><trkpt lat="35.97652370025875" lon="-107.02716191725798"><ele>2096.6</ele><time>2026-05-03T16:28:20.001Z</time></trkpt><trkpt lat="35.97644631900464" lon="-107.02720604808884"><ele>2095.8</ele><time>2026-05-03T16:28:22.001Z</time></trkpt><trkpt lat="35.97642182987503" lon="-107.02736955747312"><ele>2095.0</ele><time>2026-05-03T16:28:24.001Z</time></trkpt><trkpt lat="35.976406966087275" lon="-107.02750746242924"><ele>2095.0</ele><time>2026-05-03T16:28:25.001Z</time></trkpt><trkpt lat="35.976385640073666" lon="-107.0275933961909"><ele>2095.0</ele><time>2026-05-03T16:28:26.001Z</time></trkpt><trkpt lat="35.97636225984377" lon="-107.02767961944198"><ele>2095.0</ele><time>2026-05-03T16:28:27.001Z</time></trkpt><trkpt lat="35.976353261782265" lon="-107.02777784141959"><ele>2095.0</ele><time>2026-05-03T16:28:28.001Z</time></trkpt><trkpt lat="35.976342368973626" lon="-107.0278606418915"><ele>2095.0</ele><time>2026-05-03T16:28:29.001Z</time></trkpt><trkpt lat="35.9761877706633" lon="-107.02788437000315"><ele>2095.0</ele><time>2026-05-03T16:28:32.001Z</time></trkpt><trkpt lat="35.97607057548984" lon="-107.02792918394663"><ele>2095.0</ele><time>2026-05-03T16:28:33.001Z</time></trkpt><trkpt lat="35.9759994452784" lon="-107.02796686375106"><ele>2095.0</ele><time>2026-05-03T16:28:34.001Z</time></trkpt><trkpt lat="35.97593028103652" lon="-107.02792938595734"><ele>2095.0</ele><time>2026-05-03T16:28:36.001Z</time></trkpt><trkpt lat="35.97584340825276" lon="-107.02791097789046"><ele>2095.0</ele><time>2026-05-03T16:28:37.001Z</time></trkpt><trkpt lat="35.975791409136285" lon="-107.0279853661123"><ele>2095.0</ele><time>2026-05-03T16:28:38.001Z</time></trkpt><trkpt lat="35.97570370530331" lon="-107.02797742013567"><ele>2094.4</ele><time>2026-05-03T16:28:40.001Z</time></trkpt><trkpt lat="35.975657912520234" lon="-107.02807963785065"><ele>2093.8</ele><time>2026-05-03T16:28:42.001Z</time></trkpt><trkpt lat="35.97567268822354" lon="-107.02822630030818"><ele>2093.2</ele><time>2026-05-03T16:28:44.001Z</time></trkpt><trkpt lat="35.9756133742527" lon="-107.02834742302088"><ele>2092.6</ele><time>2026-05-03T16:28:49.002Z</time></trkpt><trkpt lat="35.975572493094056" lon="-107.02847768465372"><ele>2092.0</ele><time>2026-05-03T16:28:51.002Z</time></trkpt><trkpt lat="35.975569475570566" lon="-107.0285623077065"><ele>2091.666666666667</ele><time>2026-05-03T16:28:52.002Z</time></trkpt><trkpt lat="35.97555351237999" lon="-107.02866603605379"><ele>2091.3333333333335</ele><time>2026-05-03T16:28:53.002Z</time></trkpt><trkpt lat="35.97552690472478" lon="-107.02877438485604"><ele>2091.0</ele><time>2026-05-03T16:28:54.002Z</time></trkpt><trkpt lat="35.97550191499214" lon="-107.02886576384228"><ele>2090.6666666666665</ele><time>2026-05-03T16:28:55.002Z</time></trkpt><trkpt lat="35.975469535688035" lon="-107.02894263831118"><ele>2090.333333333333</ele><time>2026-05-03T16:28:56.002Z</time></trkpt><trkpt lat="35.9753616769181" lon="-107.02895709971428"><ele>2090.0</ele><time>2026-05-03T16:28:58.002Z</time></trkpt><trkpt lat="35.9752776587913" lon="-107.02893566657217"><ele>2090.0</ele><time>2026-05-03T16:28:59.002Z</time></trkpt><trkpt lat="35.97518390907716" lon="-107.0289615522577"><ele>2090.0</ele><time>2026-05-03T16:29:00.002Z</time></trkpt><trkpt lat="35.975120434554775" lon="-107.02899054006235"><ele>2090.0</ele><time>2026-05-03T16:29:01.002Z</time></trkpt><trkpt lat="35.97505099006414" lon="-107.02894772774255"><ele>2090.0</ele><time>2026-05-03T16:29:02.002Z</time></trkpt><trkpt lat="35.974959434425976" lon="-107.02889647721015"><ele>2090.0</ele><time>2026-05-03T16:29:03.002Z</time></trkpt><trkpt lat="35.974869457761024" lon="-107.02890805287036"><ele>2090.0</ele><time>2026-05-03T16:29:04.002Z</time></trkpt><trkpt lat="35.97480436020328" lon="-107.02892521288946"><ele>2089.8</ele><time>2026-05-03T16:29:05.002Z</time></trkpt><trkpt lat="35.97472626921321" lon="-107.02888768672074"><ele>2089.6</ele><time>2026-05-03T16:29:07.002Z</time></trkpt><trkpt lat="35.974651300991184" lon="-107.02887780056984"><ele>2089.4</ele><time>2026-05-03T16:29:08.002Z</time></trkpt><trkpt lat="35.97456549539817" lon="-107.02885187912972"><ele>2089.2</ele><time>2026-05-03T16:29:09.002Z</time></trkpt><trkpt lat="35.9744604990938" lon="-107.02878349690904"><ele>2089.0</ele><time>2026-05-03T16:29:10.002Z</time></trkpt><trkpt lat="35.9743319379161" lon="-107.0287086851828"><ele>2089.0</ele><time>2026-05-03T16:29:11.002Z</time></trkpt><trkpt lat="35.9742486137623" lon="-107.02867513983493"><ele>2089.0</ele><time>2026-05-03T16:29:12.002Z</time></trkpt><trkpt lat="35.974170565775054" lon="-107.02868524994082"><ele>2089.0</ele><time>2026-05-03T16:29:13.001Z</time></trkpt><trkpt lat="35.97408695937048" lon="-107.02868920180501"><ele>2089.0</ele><time>2026-05-03T16:29:14.001Z</time></trkpt><trkpt lat="35.974020268871286" lon="-107.0286853177162"><ele>2089.0</ele><time>2026-05-03T16:29:15.001Z</time></trkpt><trkpt lat="35.973914563767124" lon="-107.02875766886335"><ele>2089.0</ele><time>2026-05-03T16:29:17.001Z</time></trkpt><trkpt lat="35.9738482920684" lon="-107.02878081832456"><ele>2088.4</ele><time>2026-05-03T16:29:18.001Z</time></trkpt><trkpt lat="35.973757193078065" lon="-107.02874783334086"><ele>2087.8</ele><time>2026-05-03T16:29:19.001Z</time></trkpt><trkpt lat="35.97366047107905" lon="-107.02872425879382"><ele>2087.2</ele><time>2026-05-03T16:29:20.001Z</time></trkpt><trkpt lat="35.97357732180105" lon="-107.02872660488117"><ele>2086.6</ele><time>2026-05-03T16:29:21.001Z</time></trkpt><trkpt lat="35.97350689398725" lon="-107.02878815789094"><ele>2086.0</ele><time>2026-05-03T16:29:23.001Z</time></trkpt><trkpt lat="35.973490990990655" lon="-107.0289297612487"><ele>2086.0</ele><time>2026-05-03T16:29:25.001Z</time></trkpt><trkpt lat="35.97350194378215" lon="-107.02906496878207"><ele>2086.0</ele><time>2026-05-03T16:29:27.001Z</time></trkpt><trkpt lat="35.97350848774663" lon="-107.0291599056562"><ele>2086.0</ele><time>2026-05-03T16:29:28.001Z</time></trkpt><trkpt lat="35.97355270393113" lon="-107.0292360536082"><ele>2086.0</ele><time>2026-05-03T16:29:29.001Z</time></trkpt><trkpt lat="35.973601486341906" lon="-107.02930136675398"><ele>2086.0</ele><time>2026-05-03T16:29:30.001Z</time></trkpt><trkpt lat="35.973631064035" lon="-107.02939154041694"><ele>2086.0</ele><time>2026-05-03T16:29:31.001Z</time></trkpt><trkpt lat="35.973649793765844" lon="-107.02947307139956"><ele>2086.6</ele><time>2026-05-03T16:29:32.001Z</time></trkpt><trkpt lat="35.97366973190044" lon="-107.02957197825809"><ele>2087.2</ele><time>2026-05-03T16:29:33.001Z</time></trkpt><trkpt lat="35.97369747316688" lon="-107.02969593193863"><ele>2087.8</ele><time>2026-05-03T16:29:34.001Z</time></trkpt><trkpt lat="35.973719208581606" lon="-107.02981450995044"><ele>2088.4</ele><time>2026-05-03T16:29:35.001Z</time></trkpt><trkpt lat="35.973752848024716" lon="-107.02992339972143"><ele>2089.0</ele><time>2026-05-03T16:29:36.001Z</time></trkpt><trkpt lat="35.97378485296402" lon="-107.03001708630468"><ele>2089.3333333333335</ele><time>2026-05-03T16:29:37.001Z</time></trkpt><trkpt lat="35.97386620263397" lon="-107.030101508999"><ele>2089.666666666667</ele><time>2026-05-03T16:29:39.001Z</time></trkpt><trkpt lat="35.97394068659835" lon="-107.03015800033297"><ele>2090.0</ele><time>2026-05-03T16:29:40.001Z</time></trkpt><trkpt lat="35.97399798916075" lon="-107.03021704276163"><ele>2090.3333333333335</ele><time>2026-05-03T16:29:41.001Z</time></trkpt><trkpt lat="35.97402759142658" lon="-107.03030534431993"><ele>2090.6666666666665</ele><time>2026-05-03T16:29:43.001Z</time></trkpt><trkpt lat="35.97403250155431" lon="-107.03041059967376"><ele>2091.0</ele><time>2026-05-03T16:29:45.001Z</time></trkpt><trkpt lat="35.9740307753069" lon="-107.03054264660875"><ele>2091.0</ele><time>2026-05-03T16:29:47.001Z</time></trkpt><trkpt lat="35.974034726005804" lon="-107.03066603218623"><ele>2091.0</ele><time>2026-05-03T16:29:49.001Z</time></trkpt><trkpt lat="35.974051284790505" lon="-107.0307856088176"><ele>2091.0</ele><time>2026-05-03T16:29:51.001Z</time></trkpt><trkpt lat="35.97407588127235" lon="-107.03091406254477"><ele>2091.0</ele><time>2026-05-03T16:29:53.001Z</time></trkpt><trkpt lat="35.97409620497119" lon="-107.03102662563039"><ele>2091.0</ele><time>2026-05-03T16:29:55.001Z</time></trkpt><trkpt lat="35.974112758597016" lon="-107.03115717986952"><ele>2090.8333333333335</ele><time>2026-05-03T16:29:57.001Z</time></trkpt><trkpt lat="35.974111697710576" lon="-107.03123649299093"><ele>2090.6666666666665</ele><time>2026-05-03T16:30:35.001Z</time></trkpt><trkpt lat="35.97409899662398" lon="-107.03132004264974"><ele>2090.5</ele><time>2026-05-03T16:30:36.001Z</time></trkpt><trkpt lat="35.97408590320794" lon="-107.03140802201419"><ele>2090.333333333333</ele><time>2026-05-03T16:30:37.001Z</time></trkpt><trkpt lat="35.974074761611405" lon="-107.03149387881929"><ele>2090.1666666666665</ele><time>2026-05-03T16:30:38.001Z</time></trkpt><trkpt lat="35.97405920632469" lon="-107.03158281435114"><ele>2090.0</ele><time>2026-05-03T16:30:39.001Z</time></trkpt><trkpt lat="35.97403063709178" lon="-107.03170979527019"><ele>2090.0</ele><time>2026-05-03T16:30:41.001Z</time></trkpt><trkpt lat="35.97396969894656" lon="-107.03174976784274"><ele>2090.0</ele><time>2026-05-03T16:30:43.001Z</time></trkpt><trkpt lat="35.97391896912067" lon="-107.03189523677833"><ele>2090.0</ele><time>2026-05-03T16:30:45.001Z</time></trkpt><trkpt lat="35.97385719614116" lon="-107.03203318409822"><ele>2090.0</ele><time>2026-05-03T16:30:46.001Z</time></trkpt><trkpt lat="35.97375838655485" lon="-107.03218343804082"><ele>2090.0</ele><time>2026-05-03T16:30:47.001Z</time></trkpt><trkpt lat="35.97364453129646" lon="-107.03231962120854"><ele>2090.0</ele><time>2026-05-03T16:30:48.001Z</time></trkpt><trkpt lat="35.97354462103355" lon="-107.0324187851261"><ele>2090.0</ele><time>2026-05-03T16:30:49.001Z</time></trkpt><trkpt lat="35.973458968757974" lon="-107.03248959889045"><ele>2090.0</ele><time>2026-05-03T16:30:50.001Z</time></trkpt><trkpt lat="35.973394357495486" lon="-107.03251703782932"><ele>2090.5</ele><time>2026-05-03T16:30:51.001Z</time></trkpt><trkpt lat="35.973265166918885" lon="-107.03248556424538"><ele>2091.0</ele><time>2026-05-03T16:30:53.001Z</time></trkpt><trkpt lat="35.97317746622907" lon="-107.03241395377367"><ele>2091.5</ele><time>2026-05-03T16:30:54.001Z</time></trkpt><trkpt lat="35.973066250045775" lon="-107.03233579435646"><ele>2092.0</ele><time>2026-05-03T16:30:55.002Z</time></trkpt><trkpt lat="35.97293175812886" lon="-107.03227714485062"><ele>2092.0</ele><time>2026-05-03T16:30:56.002Z</time></trkpt><trkpt lat="35.97281974697666" lon="-107.03224880511299"><ele>2092.0</ele><time>2026-05-03T16:30:57.002Z</time></trkpt><trkpt lat="35.97272300886264" lon="-107.03225114031389"><ele>2092.0</ele><time>2026-05-03T16:30:58.002Z</time></trkpt><trkpt lat="35.972656043292254" lon="-107.03225958100306"><ele>2092.0</ele><time>2026-05-03T16:30:59.002Z</time></trkpt><trkpt lat="35.97258473184161" lon="-107.03227374867848"><ele>2092.0</ele><time>2026-05-03T16:31:00.002Z</time></trkpt><trkpt lat="35.972483987296364" lon="-107.0322773896072"><ele>2092.2</ele><time>2026-05-03T16:31:01.002Z</time></trkpt><trkpt lat="35.97237101484341" lon="-107.03226768401986"><ele>2092.3999999999996</ele><time>2026-05-03T16:31:02.002Z</time></trkpt><trkpt lat="35.97225776444897" lon="-107.03225227748088"><ele>2092.6000000000004</ele><time>2026-05-03T16:31:03.002Z</time></trkpt><trkpt lat="35.97219018810869" lon="-107.03222947381305"><ele>2092.8</ele><time>2026-05-03T16:31:04.002Z</time></trkpt><trkpt lat="35.97211485005025" lon="-107.03216149348096"><ele>2093.0</ele><time>2026-05-03T16:31:05.002Z</time></trkpt><trkpt lat="35.97203485724484" lon="-107.03212267509312"><ele>2093.0</ele><time>2026-05-03T16:31:07.002Z</time></trkpt><trkpt lat="35.971961556740574" lon="-107.03222163164654"><ele>2093.0</ele><time>2026-05-03T16:31:09.002Z</time></trkpt><trkpt lat="35.97189433079248" lon="-107.03231145929486"><ele>2093.0</ele><time>2026-05-03T16:31:10.002Z</time></trkpt><trkpt lat="35.971835116804954" lon="-107.03240942883336"><ele>2093.0</ele><time>2026-05-03T16:31:11.002Z</time></trkpt><trkpt lat="35.97176323622604" lon="-107.0324873740531"><ele>2093.0</ele><time>2026-05-03T16:31:12.002Z</time></trkpt><trkpt lat="35.97168004166791" lon="-107.03256240400776"><ele>2092.833333333333</ele><time>2026-05-03T16:31:13.002Z</time></trkpt><trkpt lat="35.97161115654253" lon="-107.03263509679235"><ele>2092.6666666666665</ele><time>2026-05-03T16:31:14.002Z</time></trkpt><trkpt lat="35.971561570304964" lon="-107.03271917868845"><ele>2092.5</ele><time>2026-05-03T16:31:15.002Z</time></trkpt><trkpt lat="35.97150927445578" lon="-107.03281673640679"><ele>2092.3333333333335</ele><time>2026-05-03T16:31:16.002Z</time></trkpt><trkpt lat="35.97146065770792" lon="-107.03290758373582"><ele>2092.166666666667</ele><time>2026-05-03T16:31:17.002Z</time></trkpt><trkpt lat="35.971424716469045" lon="-107.03298812116857"><ele>2092.0</ele><time>2026-05-03T16:31:18.002Z</time></trkpt><trkpt lat="35.97139014175715" lon="-107.03309526004568"><ele>2092.0</ele><time>2026-05-03T16:31:19Z</time></trkpt><trkpt lat="35.97134294334616" lon="-107.03323350150261"><ele>2092.0</ele><time>2026-05-03T16:31:20Z</time></trkpt><trkpt lat="35.97129093417386" lon="-107.0333620033433"><ele>2092.0</ele><time>2026-05-03T16:31:21Z</time></trkpt><trkpt lat="35.97125061891842" lon="-107.03345906410048"><ele>2092.0</ele><time>2026-05-03T16:31:22Z</time></trkpt><trkpt lat="35.97122238330558" lon="-107.03356200044803"><ele>2092.0</ele><time>2026-05-03T16:31:23Z</time></trkpt><trkpt lat="35.971200911673556" lon="-107.03367904705152"><ele>2092.3333333333335</ele><time>2026-05-03T16:31:24Z</time></trkpt><trkpt lat="35.97119319690388" lon="-107.03377952251479"><ele>2092.666666666667</ele><time>2026-05-03T16:31:25Z</time></trkpt><trkpt lat="35.97120256243271" lon="-107.03388849965793"><ele>2093.0</ele><time>2026-05-03T16:31:26Z</time></trkpt><trkpt lat="35.97116211892358" lon="-107.03397971890277"><ele>2093.3333333333335</ele><time>2026-05-03T16:31:28Z</time></trkpt><trkpt lat="35.971087866491466" lon="-107.03401581687793"><ele>2093.6666666666665</ele><time>2026-05-03T16:31:29Z</time></trkpt><trkpt lat="35.971035099399316" lon="-107.03407671794956"><ele>2094.0</ele><time>2026-05-03T16:31:30Z</time></trkpt><trkpt lat="35.9710247472617" lon="-107.03416211561714"><ele>2094.0</ele><time>2026-05-03T16:31:31Z</time></trkpt><trkpt lat="35.97100043525537" lon="-107.03428724640796"><ele>2094.0</ele><time>2026-05-03T16:31:32Z</time></trkpt><trkpt lat="35.970973458680014" lon="-107.03441686926091"><ele>2094.0</ele><time>2026-05-03T16:31:33Z</time></trkpt><trkpt lat="35.970925282780804" lon="-107.03452915645872"><ele>2094.0</ele><time>2026-05-03T16:31:34Z</time></trkpt><trkpt lat="35.97085537043673" lon="-107.03465662656285"><ele>2094.0</ele><time>2026-05-03T16:31:35.001Z</time></trkpt><trkpt lat="35.97078582873185" lon="-107.03480808213666"><ele>2091.6666666666665</ele><time>2026-05-03T16:31:36.001Z</time></trkpt><trkpt lat="35.97072559777172" lon="-107.03494605069919"><ele>2089.333333333333</ele><time>2026-05-03T16:31:37.001Z</time></trkpt><trkpt lat="35.970684727028605" lon="-107.0350754752692"><ele>2087.0</ele><time>2026-05-03T16:31:38.001Z</time></trkpt><trkpt lat="35.97046684891275" lon="-107.03513349132525"><ele>2086.25</ele><time>2026-05-03T16:31:39.001Z</time></trkpt><trkpt lat="35.97042301790666" lon="-107.03528283736613"><ele>2085.5</ele><time>2026-05-03T16:31:40.001Z</time></trkpt><trkpt lat="35.97037466693075" lon="-107.03544764770392"><ele>2084.75</ele><time>2026-05-03T16:31:41.001Z</time></trkpt><trkpt lat="35.97032650042011" lon="-107.0356118293806"><ele>2084.0</ele><time>2026-05-03T16:31:42.001Z</time></trkpt><trkpt lat="35.97028430611316" lon="-107.03575565387452"><ele>2083.6</ele><time>2026-05-03T16:31:43.001Z</time></trkpt><trkpt lat="35.970247117133376" lon="-107.03588241731939"><ele>2083.2</ele><time>2026-05-03T16:31:44.001Z</time></trkpt><trkpt lat="35.970224438527424" lon="-107.03595972020804"><ele>2082.7999999999997</ele><time>2026-05-03T16:31:45.001Z</time></trkpt><trkpt lat="35.970196889730666" lon="-107.03605362374407"><ele>2082.4</ele><time>2026-05-03T16:31:46.001Z</time></trkpt><trkpt lat="35.970163346464524" lon="-107.0361679601029"><ele>2082.0</ele><time>2026-05-03T16:31:47.001Z</time></trkpt><trkpt lat="35.97012543012308" lon="-107.03629720279524"><ele>2082.0</ele><time>2026-05-03T16:31:48.001Z</time></trkpt><trkpt lat="35.97008742541425" lon="-107.03642674667446"><ele>2082.0</ele><time>2026-05-03T16:31:49.001Z</time></trkpt><trkpt lat="35.970053625660725" lon="-107.03654195734151"><ele>2082.0</ele><time>2026-05-03T16:31:50.001Z</time></trkpt><trkpt lat="35.97001875080412" lon="-107.03666108370122"><ele>2082.0</ele><time>2026-05-03T16:31:51.001Z</time></trkpt><trkpt lat="35.969982155126324" lon="-107.03678618139669"><ele>2082.0</ele><time>2026-05-03T16:31:52.001Z</time></trkpt><trkpt lat="35.969943183323004" lon="-107.0369194015072"><ele>2081.7999999999997</ele><time>2026-05-03T16:31:53.001Z</time></trkpt><trkpt lat="35.96990555472128" lon="-107.03704803009106"><ele>2081.6</ele><time>2026-05-03T16:31:54.001Z</time></trkpt><trkpt lat="35.96986966197463" lon="-107.0371707248787"><ele>2081.3999999999996</ele><time>2026-05-03T16:31:55.001Z</time></trkpt><trkpt lat="35.96983661940336" lon="-107.0372836767065"><ele>2081.2</ele><time>2026-05-03T16:31:56.001Z</time></trkpt><trkpt lat="35.969813269491176" lon="-107.03736349544471"><ele>2081.0</ele><time>2026-05-03T16:31:57.001Z</time></trkpt><trkpt lat="35.96978992884956" lon="-107.03744328248439"><ele>2080.8</ele><time>2026-05-03T16:31:59.001Z</time></trkpt><trkpt lat="35.969758124672765" lon="-107.03755200098449"><ele>2080.6</ele><time>2026-05-03T16:32:01.001Z</time></trkpt><trkpt lat="35.96972621270646" lon="-107.03766108801355"><ele>2080.4</ele><time>2026-05-03T16:32:02.001Z</time></trkpt><trkpt lat="35.969688283021036" lon="-107.03779074577726"><ele>2080.2</ele><time>2026-05-03T16:32:03.001Z</time></trkpt><trkpt lat="35.9696523264373" lon="-107.03791367724583"><ele>2080.0</ele><time>2026-05-03T16:32:04.001Z</time></trkpt><trkpt lat="35.96961978433197" lon="-107.0380253462681"><ele>2080.0</ele><time>2026-05-03T16:32:05.001Z</time></trkpt><trkpt lat="35.96958746511057" lon="-107.0381362504877"><ele>2080.0</ele><time>2026-05-03T16:32:06.001Z</time></trkpt><trkpt lat="35.96955591016937" lon="-107.03824453201969"><ele>2080.0</ele><time>2026-05-03T16:32:07.001Z</time></trkpt><trkpt lat="35.96951681200267" lon="-107.03837649083754"><ele>2080.0</ele><time>2026-05-03T16:32:08.001Z</time></trkpt><trkpt lat="35.96946604654894" lon="-107.03854527832516"><ele>2080.0</ele><time>2026-05-03T16:32:09.001Z</time></trkpt><trkpt lat="35.96941915860779" lon="-107.0387011735458"><ele>2080.0</ele><time>2026-05-03T16:32:10.001Z</time></trkpt><trkpt lat="35.969378809632865" lon="-107.03883532783865"><ele>2080.0</ele><time>2026-05-03T16:32:11.001Z</time></trkpt><trkpt lat="35.9693399162262" lon="-107.03896781105978"><ele>2080.0</ele><time>2026-05-03T16:32:12.001Z</time></trkpt><trkpt lat="35.96931061370787" lon="-107.03906808745097"><ele>2080.0</ele><time>2026-05-03T16:32:13.001Z</time></trkpt><trkpt lat="35.969288835950124" lon="-107.0391426133485"><ele>2080.0</ele><time>2026-05-03T16:32:14.001Z</time></trkpt><trkpt lat="35.969260198847564" lon="-107.0392406126827"><ele>2079.0</ele><time>2026-05-03T16:32:16.001Z</time></trkpt><trkpt lat="35.96977714397128" lon="-107.03954346117311"><ele>2079.0</ele><time>2026-05-03T16:32:19.001Z</time></trkpt><trkpt lat="35.969876841907514" lon="-107.03957970059297"><ele>2079.0</ele><time>2026-05-03T16:32:20.001Z</time></trkpt><trkpt lat="35.969947631925876" lon="-107.03962557938809"><ele>2079.0</ele><time>2026-05-03T16:32:21.001Z</time></trkpt><trkpt lat="35.970007998915214" lon="-107.03965318250596"><ele>2079.0</ele><time>2026-05-03T16:32:22.001Z</time></trkpt><trkpt lat="35.970096802948625" lon="-107.03967437405784"><ele>2079.0</ele><time>2026-05-03T16:32:23.001Z</time></trkpt><trkpt lat="35.970217482828616" lon="-107.03969025657462"><ele>2079.2</ele><time>2026-05-03T16:32:24.001Z</time></trkpt><trkpt lat="35.9703444031416" lon="-107.03972349887003"><ele>2079.4</ele><time>2026-05-03T16:32:25.001Z</time></trkpt><trkpt lat="35.970456016311665" lon="-107.03976578168631"><ele>2079.6</ele><time>2026-05-03T16:32:26.001Z</time></trkpt><trkpt lat="35.970531655209854" lon="-107.03979954849353"><ele>2079.8</ele><time>2026-05-03T16:32:27.001Z</time></trkpt><trkpt lat="35.97062058212187" lon="-107.0398360370708"><ele>2080.0</ele><time>2026-05-03T16:32:29.001Z</time></trkpt><trkpt lat="35.97068337404284" lon="-107.03982765688207"><ele>2080.0</ele><time>2026-05-03T16:32:31.001Z</time></trkpt><trkpt lat="35.970748576688756" lon="-107.03978934863146"><ele>2080.0</ele><time>2026-05-03T16:32:33.001Z</time></trkpt><trkpt lat="35.970833774084625" lon="-107.0397636148924"><ele>2080.0</ele><time>2026-05-03T16:32:34.001Z</time></trkpt><trkpt lat="35.97093385091251" lon="-107.03975490446311"><ele>2080.0</ele><time>2026-05-03T16:32:35.001Z</time></trkpt><trkpt lat="35.97102270270812" lon="-107.03977384766368"><ele>2080.0</ele><time>2026-05-03T16:32:36.001Z</time></trkpt><trkpt lat="35.971109990422974" lon="-107.03981400261279"><ele>2080.0</ele><time>2026-05-03T16:32:37.001Z</time></trkpt><trkpt lat="35.971196167421965" lon="-107.03984816560501"><ele>2079.8333333333335</ele><time>2026-05-03T16:32:38.001Z</time></trkpt><trkpt lat="35.9712921576074" lon="-107.03989750850823"><ele>2079.666666666667</ele><time>2026-05-03T16:32:39.001Z</time></trkpt><trkpt lat="35.971391046743754" lon="-107.03995902626897"><ele>2079.5</ele><time>2026-05-03T16:32:40.001Z</time></trkpt><trkpt lat="35.971468757322775" lon="-107.04001850867324"><ele>2079.3333333333335</ele><time>2026-05-03T16:32:41.001Z</time></trkpt><trkpt lat="35.9715312639065" lon="-107.04005216176898"><ele>2079.1666666666665</ele><time>2026-05-03T16:32:42.001Z</time></trkpt><trkpt lat="35.9716002626685" lon="-107.04005217457214"><ele>2079.0</ele><time>2026-05-03T16:32:43.001Z</time></trkpt><trkpt lat="35.97167782525133" lon="-107.0400328675709"><ele>2079.2</ele><time>2026-05-03T16:32:44.001Z</time></trkpt><trkpt lat="35.971762973643784" lon="-107.03999461188458"><ele>2079.4</ele><time>2026-05-03T16:32:45.001Z</time></trkpt><trkpt lat="35.971819212344634" lon="-107.03994465464991"><ele>2079.6</ele><time>2026-05-03T16:32:46.001Z</time></trkpt><trkpt lat="35.97191824941538" lon="-107.03994018223804"><ele>2079.8</ele><time>2026-05-03T16:32:48.001Z</time></trkpt><trkpt lat="35.9720433707786" lon="-107.03994909915241"><ele>2080.0</ele><time>2026-05-03T16:32:50.001Z</time></trkpt><trkpt lat="35.97215377202214" lon="-107.03996813871221"><ele>2080.0</ele><time>2026-05-03T16:32:51.001Z</time></trkpt><trkpt lat="35.97226394731731" lon="-107.04001731177334"><ele>2080.0</ele><time>2026-05-03T16:32:52.001Z</time></trkpt><trkpt lat="35.97232869177356" lon="-107.04003904929003"><ele>2080.0</ele><time>2026-05-03T16:32:53.001Z</time></trkpt><trkpt lat="35.97245448187054" lon="-107.04002193041234"><ele>2080.0</ele><time>2026-05-03T16:32:55.001Z</time></trkpt><trkpt lat="35.97252517079537" lon="-107.04000787300724"><ele>2080.0</ele><time>2026-05-03T16:32:56.001Z</time></trkpt><trkpt lat="35.97260497648081" lon="-107.03997174763646"><ele>2080.6</ele><time>2026-05-03T16:32:57.001Z</time></trkpt><trkpt lat="35.97269502196478" lon="-107.03991564799763"><ele>2081.2</ele><time>2026-05-03T16:32:58.001Z</time></trkpt><trkpt lat="35.972783106781584" lon="-107.0398362058031"><ele>2081.8</ele><time>2026-05-03T16:32:59.001Z</time></trkpt><trkpt lat="35.97286285506191" lon="-107.03974266364267"><ele>2082.4</ele><time>2026-05-03T16:33:00.001Z</time></trkpt><trkpt lat="35.972939693551915" lon="-107.03966413170707"><ele>2083.0</ele><time>2026-05-03T16:33:01.001Z</time></trkpt><trkpt lat="35.97303601361162" lon="-107.03960255488974"><ele>2083.0</ele><time>2026-05-03T16:33:02.001Z</time></trkpt><trkpt lat="35.973152495956604" lon="-107.03953040491287"><ele>2083.0</ele><time>2026-05-03T16:33:03.002Z</time></trkpt><trkpt lat="35.97325823516966" lon="-107.03943815426807"><ele>2083.0</ele><time>2026-05-03T16:33:04.002Z</time></trkpt><trkpt lat="35.973355523184594" lon="-107.03934185295424"><ele>2083.0</ele><time>2026-05-03T16:33:05.002Z</time></trkpt><trkpt lat="35.97344872549887" lon="-107.03925797456834"><ele>2083.2000000000003</ele><time>2026-05-03T16:33:06.002Z</time></trkpt><trkpt lat="35.973546252745074" lon="-107.03920082267229"><ele>2083.4</ele><time>2026-05-03T16:33:07.002Z</time></trkpt><trkpt lat="35.973664239368084" lon="-107.03913316243413"><ele>2083.6000000000004</ele><time>2026-05-03T16:33:08.002Z</time></trkpt><trkpt lat="35.97376703565394" lon="-107.03907479603537"><ele>2083.8</ele><time>2026-05-03T16:33:09.002Z</time></trkpt><trkpt lat="35.97385480392485" lon="-107.03904291141579"><ele>2084.0</ele><time>2026-05-03T16:33:10.002Z</time></trkpt><trkpt lat="35.973936906912634" lon="-107.03906022311543"><ele>2084.0</ele><time>2026-05-03T16:33:11.002Z</time></trkpt><trkpt lat="35.9740051538943" lon="-107.03907180490316"><ele>2084.0</ele><time>2026-05-03T16:33:12.002Z</time></trkpt><trkpt lat="35.97405793564474" lon="-107.0391790580243"><ele>2084.0</ele><time>2026-05-03T16:33:15.002Z</time></trkpt><trkpt lat="35.97412398961225" lon="-107.039298620624"><ele>2084.0</ele><time>2026-05-03T16:33:16.002Z</time></trkpt><trkpt lat="35.97419461856269" lon="-107.0394096185775"><ele>2084.0</ele><time>2026-05-03T16:33:17.002Z</time></trkpt><trkpt lat="35.974284078115794" lon="-107.03953675928557"><ele>2083.5</ele><time>2026-05-03T16:33:18.002Z</time></trkpt><trkpt lat="35.97438110169954" lon="-107.03968870358722"><ele>2083.0</ele><time>2026-05-03T16:33:19.002Z</time></trkpt><trkpt lat="35.97447448413354" lon="-107.0398059491957"><ele>2082.5</ele><time>2026-05-03T16:33:20.002Z</time></trkpt><trkpt lat="35.9745446625943" lon="-107.03992947395976"><ele>2082.0</ele><time>2026-05-03T16:33:21.002Z</time></trkpt><trkpt lat="35.97460384848874" lon="-107.0400390537988"><ele>2082.0</ele><time>2026-05-03T16:33:22.002Z</time></trkpt><trkpt lat="35.9746488519712" lon="-107.04013236684209"><ele>2082.0</ele><time>2026-05-03T16:33:23.002Z</time></trkpt><trkpt lat="35.97467202509945" lon="-107.04020945684638"><ele>2082.0</ele><time>2026-05-03T16:33:24.002Z</time></trkpt><trkpt lat="35.97470211219791" lon="-107.0403124944711"><ele>2082.0</ele><time>2026-05-03T16:33:25.001Z</time></trkpt><trkpt lat="35.97475325488238" lon="-107.04041918193803"><ele>2082.0</ele><time>2026-05-03T16:33:26.001Z</time></trkpt><trkpt lat="35.97481548727519" lon="-107.04050050952637"><ele>2082.0</ele><time>2026-05-03T16:33:27.001Z</time></trkpt><trkpt lat="35.974887044861646" lon="-107.04056308726886"><ele>2082.0</ele><time>2026-05-03T16:33:28.001Z</time></trkpt><trkpt lat="35.97497921881964" lon="-107.0406409846749"><ele>2082.0</ele><time>2026-05-03T16:33:29.001Z</time></trkpt><trkpt lat="35.975057721593785" lon="-107.040758331004"><ele>2082.0</ele><time>2026-05-03T16:33:30.001Z</time></trkpt><trkpt lat="35.97511033705934" lon="-107.04089124768832"><ele>2082.0</ele><time>2026-05-03T16:33:31.001Z</time></trkpt><trkpt lat="35.97516711952361" lon="-107.04101142292448"><ele>2082.0</ele><time>2026-05-03T16:33:32.001Z</time></trkpt><trkpt lat="35.97522312936658" lon="-107.04113347741695"><ele>2082.0</ele><time>2026-05-03T16:33:33.001Z</time></trkpt><trkpt lat="35.97528875586746" lon="-107.04128076195609"><ele>2082.0</ele><time>2026-05-03T16:33:34.001Z</time></trkpt><trkpt lat="35.97535349857627" lon="-107.0414315253245"><ele>2082.0</ele><time>2026-05-03T16:33:35Z</time></trkpt><trkpt lat="35.97540265362385" lon="-107.04156256167865"><ele>2081.5</ele><time>2026-05-03T16:33:36.001Z</time></trkpt><trkpt lat="35.97545231782076" lon="-107.04170127291145"><ele>2081.0</ele><time>2026-05-03T16:33:37Z</time></trkpt><trkpt lat="35.975516676989976" lon="-107.04186252438934"><ele>2080.5</ele><time>2026-05-03T16:33:38Z</time></trkpt><trkpt lat="35.97558613011542" lon="-107.0420278056401"><ele>2080.0</ele><time>2026-05-03T16:33:39Z</time></trkpt><trkpt lat="35.97565379847183" lon="-107.04217935156049"><ele>2080.0</ele><time>2026-05-03T16:33:40.001Z</time></trkpt><trkpt lat="35.97571330091139" lon="-107.04231028240771"><ele>2080.0</ele><time>2026-05-03T16:33:41.001Z</time></trkpt><trkpt lat="35.97575711010703" lon="-107.04240529931242"><ele>2080.0</ele><time>2026-05-03T16:33:42.001Z</time></trkpt><trkpt lat="35.9758190497438" lon="-107.0424978873898"><ele>2080.0</ele><time>2026-05-03T16:33:44.001Z</time></trkpt><trkpt lat="35.975869970825684" lon="-107.04257115821054"><ele>2080.0</ele><time>2026-05-03T16:33:46.001Z</time></trkpt><trkpt lat="35.97592122917378" lon="-107.04265382194833"><ele>2080.5</ele><time>2026-05-03T16:33:47.001Z</time></trkpt><trkpt lat="35.97601415864241" lon="-107.04277431422054"><ele>2081.0</ele><time>2026-05-03T16:33:48.001Z</time></trkpt><trkpt lat="35.97609991734771" lon="-107.0429181834302"><ele>2081.5</ele><time>2026-05-03T16:33:49.001Z</time></trkpt><trkpt lat="35.97618949850891" lon="-107.04304685089907"><ele>2082.0</ele><time>2026-05-03T16:33:50.001Z</time></trkpt><trkpt lat="35.976320414259234" lon="-107.04317417020263"><ele>2082.6666666666665</ele><time>2026-05-03T16:33:51.001Z</time></trkpt><trkpt lat="35.976476116535416" lon="-107.043323074811"><ele>2083.333333333333</ele><time>2026-05-03T16:33:52.001Z</time></trkpt><trkpt lat="35.97662747457968" lon="-107.04347081485508"><ele>2084.0</ele><time>2026-05-03T16:33:53.001Z</time></trkpt><trkpt lat="35.97675553389273" lon="-107.04359761935015"><ele>2084.0</ele><time>2026-05-03T16:33:54.001Z</time></trkpt><trkpt lat="35.97687347098677" lon="-107.043719855836"><ele>2084.0</ele><time>2026-05-03T16:33:55.001Z</time></trkpt><trkpt lat="35.97698220084285" lon="-107.04383041869902"><ele>2084.0</ele><time>2026-05-03T16:33:56.001Z</time></trkpt><trkpt lat="35.97706986812157" lon="-107.0439351417989"><ele>2084.0</ele><time>2026-05-03T16:33:57.001Z</time></trkpt><trkpt lat="35.977142604145186" lon="-107.04403588437192"><ele>2083.8</ele><time>2026-05-03T16:33:58.001Z</time></trkpt><trkpt lat="35.97718982300113" lon="-107.04413879498476"><ele>2083.6000000000004</ele><time>2026-05-03T16:33:59.001Z</time></trkpt><trkpt lat="35.97722727728168" lon="-107.0442614122779"><ele>2083.4</ele><time>2026-05-03T16:34:00.001Z</time></trkpt><trkpt lat="35.97728521432973" lon="-107.0443809791351"><ele>2083.2000000000003</ele><time>2026-05-03T16:34:01.001Z</time></trkpt><trkpt lat="35.97731415966933" lon="-107.04450007648288"><ele>2083.0</ele><time>2026-05-03T16:34:02.001Z</time></trkpt><trkpt lat="35.97730328069396" lon="-107.04463593817816"><ele>2083.0</ele><time>2026-05-03T16:34:03.001Z</time></trkpt><trkpt lat="35.97731983548702" lon="-107.04477557792363"><ele>2083.0</ele><time>2026-05-03T16:34:04.001Z</time></trkpt><trkpt lat="35.97738131727329" lon="-107.04490020599435"><ele>2083.0</ele><time>2026-05-03T16:34:05.001Z</time></trkpt><trkpt lat="35.97746037583025" lon="-107.04504188923927"><ele>2083.0</ele><time>2026-05-03T16:34:06.001Z</time></trkpt><trkpt lat="35.97752077795569" lon="-107.04519013412582"><ele>2083.8</ele><time>2026-05-03T16:34:07.001Z</time></trkpt><trkpt lat="35.977551343315646" lon="-107.04531024001204"><ele>2084.6000000000004</ele><time>2026-05-03T16:34:08.001Z</time></trkpt><trkpt lat="35.97756382167677" lon="-107.04541407768707"><ele>2085.3999999999996</ele><time>2026-05-03T16:34:09.001Z</time></trkpt><trkpt lat="35.97756613465333" lon="-107.04551892570505"><ele>2086.2</ele><time>2026-05-03T16:34:10.001Z</time></trkpt><trkpt lat="35.97755941228603" lon="-107.04562423589293"><ele>2087.0</ele><time>2026-05-03T16:34:11.001Z</time></trkpt><trkpt lat="35.977540741355746" lon="-107.04574499997531"><ele>2087.25</ele><time>2026-05-03T16:34:13.001Z</time></trkpt><trkpt lat="35.977564677426734" lon="-107.04589915830984"><ele>2087.5</ele><time>2026-05-03T16:34:15.001Z</time></trkpt><trkpt lat="35.97763538658204" lon="-107.04601738633"><ele>2087.75</ele><time>2026-05-03T16:34:16.001Z</time></trkpt><trkpt lat="35.97775238661065" lon="-107.04611777433709"><ele>2088.0</ele><time>2026-05-03T16:34:17.001Z</time></trkpt><trkpt lat="35.977877191295605" lon="-107.04623734957978"><ele>2088.0</ele><time>2026-05-03T16:34:18.001Z</time></trkpt><trkpt lat="35.97797334373298" lon="-107.04635997495468"><ele>2088.0</ele><time>2026-05-03T16:34:19.001Z</time></trkpt><trkpt lat="35.97804460801662" lon="-107.04647725098141"><ele>2088.0</ele><time>2026-05-03T16:34:20.001Z</time></trkpt><trkpt lat="35.978100409440486" lon="-107.04659177592077"><ele>2088.0</ele><time>2026-05-03T16:34:21.001Z</time></trkpt><trkpt lat="35.978144575828736" lon="-107.04672851671704"><ele>2088.0</ele><time>2026-05-03T16:34:22.001Z</time></trkpt><trkpt lat="35.97821373269742" lon="-107.04689792155398"><ele>2088.0</ele><time>2026-05-03T16:34:23.001Z</time></trkpt><trkpt lat="35.97830511581388" lon="-107.04707117500536"><ele>2088.0</ele><time>2026-05-03T16:34:24.001Z</time></trkpt><trkpt lat="35.97839104468425" lon="-107.04722324811708"><ele>2087.8</ele><time>2026-05-03T16:34:25.001Z</time></trkpt><trkpt lat="35.978435566060696" lon="-107.04732831487482"><ele>2087.6000000000004</ele><time>2026-05-03T16:34:26.001Z</time></trkpt><trkpt lat="35.978465461253926" lon="-107.04742017132986"><ele>2087.3999999999996</ele><time>2026-05-03T16:34:27.001Z</time></trkpt><trkpt lat="35.97849471085767" lon="-107.04750851035178"><ele>2087.2</ele><time>2026-05-03T16:34:28.001Z</time></trkpt><trkpt lat="35.978561562943426" lon="-107.04760971284723"><ele>2087.0</ele><time>2026-05-03T16:34:29.001Z</time></trkpt><trkpt lat="35.978638825743765" lon="-107.04768399429167"><ele>2086.7999999999997</ele><time>2026-05-03T16:34:30.001Z</time></trkpt><trkpt lat="35.97871773630302" lon="-107.04772937678553"><ele>2086.6</ele><time>2026-05-03T16:34:31.001Z</time></trkpt><trkpt lat="35.978803757381854" lon="-107.04775203357492"><ele>2086.3999999999996</ele><time>2026-05-03T16:34:32.001Z</time></trkpt><trkpt lat="35.97890179740242" lon="-107.04776151980764"><ele>2086.2</ele><time>2026-05-03T16:34:33.001Z</time></trkpt><trkpt lat="35.97901338778676" lon="-107.04774017331705"><ele>2086.0</ele><time>2026-05-03T16:34:34.001Z</time></trkpt><trkpt lat="35.97913405678539" lon="-107.04768717664447"><ele>2086.5</ele><time>2026-05-03T16:34:35.001Z</time></trkpt><trkpt lat="35.97925624535106" lon="-107.04761904126832"><ele>2087.0</ele><time>2026-05-03T16:34:36.001Z</time></trkpt><trkpt lat="35.97939372389063" lon="-107.04755142796132"><ele>2087.5</ele><time>2026-05-03T16:34:37.001Z</time></trkpt><trkpt lat="35.979540147152306" lon="-107.04748246761716"><ele>2088.0</ele><time>2026-05-03T16:34:38.001Z</time></trkpt><trkpt lat="35.97968457118314" lon="-107.047405490567"><ele>2088.0</ele><time>2026-05-03T16:34:39.001Z</time></trkpt><trkpt lat="35.979832340431365" lon="-107.04731735206035"><ele>2088.0</ele><time>2026-05-03T16:34:40.001Z</time></trkpt><trkpt lat="35.9799872345418" lon="-107.04721914339636"><ele>2088.0</ele><time>2026-05-03T16:34:41.001Z</time></trkpt><trkpt lat="35.980155381553686" lon="-107.0471263719017"><ele>2088.6666666666665</ele><time>2026-05-03T16:34:42.001Z</time></trkpt><trkpt lat="35.98032725766855" lon="-107.04704178856976"><ele>2089.333333333333</ele><time>2026-05-03T16:34:43.001Z</time></trkpt><trkpt lat="35.98049729798848" lon="-107.04696831519026"><ele>2090.0</ele><time>2026-05-03T16:34:44.001Z</time></trkpt><trkpt lat="35.980667370336434" lon="-107.04691568998773"><ele>2090.0</ele><time>2026-05-03T16:34:45.001Z</time></trkpt><trkpt lat="35.98084113138871" lon="-107.04685745788231"><ele>2090.0</ele><time>2026-05-03T16:34:46.001Z</time></trkpt><trkpt lat="35.98100972563197" lon="-107.0468187250607"><ele>2090.0</ele><time>2026-05-03T16:34:47.001Z</time></trkpt><trkpt lat="35.9811842392598" lon="-107.04680387251511"><ele>2089.333333333333</ele><time>2026-05-03T16:34:48.001Z</time></trkpt><trkpt lat="35.981369813558445" lon="-107.04680618765782"><ele>2088.6666666666665</ele><time>2026-05-03T16:34:49.001Z</time></trkpt><trkpt lat="35.98156135904703" lon="-107.04682625627731"><ele>2088.0</ele><time>2026-05-03T16:34:50.001Z</time></trkpt><trkpt lat="35.98175762973341" lon="-107.04685843433846"><ele>2088.0</ele><time>2026-05-03T16:34:51.001Z</time></trkpt><trkpt lat="35.98195762610982" lon="-107.04689860886333"><ele>2088.0</ele><time>2026-05-03T16:34:52.001Z</time></trkpt><trkpt lat="35.982128296444536" lon="-107.04694856181169"><ele>2088.0</ele><time>2026-05-03T16:34:53.001Z</time></trkpt><trkpt lat="35.98228585561097" lon="-107.04700826924739"><ele>2088.0</ele><time>2026-05-03T16:34:54.001Z</time></trkpt><trkpt lat="35.98244177353465" lon="-107.04707058666774"><ele>2088.0</ele><time>2026-05-03T16:34:55.001Z</time></trkpt><trkpt lat="35.982597032946224" lon="-107.04713766741831"><ele>2088.0</ele><time>2026-05-03T16:34:56.001Z</time></trkpt><trkpt lat="35.98272929930923" lon="-107.04720357422576"><ele>2088.4</ele><time>2026-05-03T16:34:57.001Z</time></trkpt><trkpt lat="35.98282829867318" lon="-107.04725380104986"><ele>2088.8</ele><time>2026-05-03T16:34:58.001Z</time></trkpt><trkpt lat="35.98291440048439" lon="-107.04730232132484"><ele>2089.2</ele><time>2026-05-03T16:34:59.001Z</time></trkpt><trkpt lat="35.98298394603088" lon="-107.04736451981964"><ele>2089.6</ele><time>2026-05-03T16:35:00.001Z</time></trkpt><trkpt lat="35.98306634590256" lon="-107.04744159742023"><ele>2090.0</ele><time>2026-05-03T16:35:01.001Z</time></trkpt><trkpt lat="35.98314219720842" lon="-107.04751294207854"><ele>2090.0</ele><time>2026-05-03T16:35:02.001Z</time></trkpt><trkpt lat="35.98318800037999" lon="-107.04760175633766"><ele>2090.0</ele><time>2026-05-03T16:35:03.001Z</time></trkpt><trkpt lat="35.98324511796789" lon="-107.04773580505422"><ele>2090.0</ele><time>2026-05-03T16:35:04.001Z</time></trkpt><trkpt lat="35.98331249156213" lon="-107.04782106408472"><ele>2090.0</ele><time>2026-05-03T16:35:05.001Z</time></trkpt><trkpt lat="35.98336855544256" lon="-107.04788303201786"><ele>2090.0</ele><time>2026-05-03T16:35:06.001Z</time></trkpt><trkpt lat="35.98342087983023" lon="-107.0479900349857"><ele>2090.0</ele><time>2026-05-03T16:35:07.001Z</time></trkpt><trkpt lat="35.983508998252525" lon="-107.04812581032387"><ele>2090.0</ele><time>2026-05-03T16:35:08.001Z</time></trkpt><trkpt lat="35.98358578392501" lon="-107.04824453427914"><ele>2090.0</ele><time>2026-05-03T16:35:09.001Z</time></trkpt><trkpt lat="35.98366710302809" lon="-107.04838138514816"><ele>2090.0</ele><time>2026-05-03T16:35:10.002Z</time></trkpt><trkpt lat="35.98375361328001" lon="-107.04850417140032"><ele>2089.75</ele><time>2026-05-03T16:35:11.002Z</time></trkpt><trkpt lat="35.98384364535254" lon="-107.04863071873947"><ele>2089.5</ele><time>2026-05-03T16:35:12.002Z</time></trkpt><trkpt lat="35.98393137781479" lon="-107.04874907616544"><ele>2089.25</ele><time>2026-05-03T16:35:13.002Z</time></trkpt><trkpt lat="35.98400449676621" lon="-107.04884966456692"><ele>2089.0</ele><time>2026-05-03T16:35:14.002Z</time></trkpt><trkpt lat="35.98407191627552" lon="-107.04897361874619"><ele>2089.0</ele><time>2026-05-03T16:35:15.002Z</time></trkpt><trkpt lat="35.98415481567715" lon="-107.04911934608624"><ele>2089.0</ele><time>2026-05-03T16:35:16.002Z</time></trkpt><trkpt lat="35.984240012039464" lon="-107.04926227170073"><ele>2089.0</ele><time>2026-05-03T16:35:17.002Z</time></trkpt><trkpt lat="35.98432778393335" lon="-107.04940434704965"><ele>2089.0</ele><time>2026-05-03T16:35:18.002Z</time></trkpt><trkpt lat="35.98443934820349" lon="-107.04957558481726"><ele>2090.3333333333335</ele><time>2026-05-03T16:35:19.002Z</time></trkpt><trkpt lat="35.9845535966163" lon="-107.04975753028894"><ele>2091.6666666666665</ele><time>2026-05-03T16:35:20.002Z</time></trkpt><trkpt lat="35.984646854938426" lon="-107.04991057439582"><ele>2093.0</ele><time>2026-05-03T16:35:21.002Z</time></trkpt><trkpt lat="35.984735833004805" lon="-107.0500530215825"><ele>2092.75</ele><time>2026-05-03T16:35:22.002Z</time></trkpt><trkpt lat="35.984820296998436" lon="-107.05018196089267"><ele>2092.5</ele><time>2026-05-03T16:35:23.002Z</time></trkpt><trkpt lat="35.984910086533006" lon="-107.05032248328817"><ele>2092.25</ele><time>2026-05-03T16:35:24.002Z</time></trkpt><trkpt lat="35.98500585465138" lon="-107.05047015345359"><ele>2092.0</ele><time>2026-05-03T16:35:25.002Z</time></trkpt><trkpt lat="35.98511135991752" lon="-107.05063023263764"><ele>2092.0</ele><time>2026-05-03T16:35:26.002Z</time></trkpt><trkpt lat="35.98520204408689" lon="-107.05078543617772"><ele>2092.0</ele><time>2026-05-03T16:35:27.002Z</time></trkpt><trkpt lat="35.98527771053766" lon="-107.0509330804874"><ele>2092.0</ele><time>2026-05-03T16:35:28.002Z</time></trkpt><trkpt lat="35.985338293066974" lon="-107.05106290495931"><ele>2092.0</ele><time>2026-05-03T16:35:29.002Z</time></trkpt><trkpt lat="35.985378225306164" lon="-107.0511917541593"><ele>2092.0</ele><time>2026-05-03T16:35:30.002Z</time></trkpt><trkpt lat="35.98538760591994" lon="-107.05134094372542"><ele>2092.0</ele><time>2026-05-03T16:35:31.001Z</time></trkpt><trkpt lat="35.98537978588095" lon="-107.05150678394054"><ele>2092.0</ele><time>2026-05-03T16:35:32.001Z</time></trkpt><trkpt lat="35.98536324409568" lon="-107.05169802750218"><ele>2092.0</ele><time>2026-05-03T16:35:33.001Z</time></trkpt><trkpt lat="35.98533616765241" lon="-107.05188123697894"><ele>2092.0</ele><time>2026-05-03T16:35:34.001Z</time></trkpt><trkpt lat="35.98530402902065" lon="-107.05206170812372"><ele>2092.0</ele><time>2026-05-03T16:35:35.001Z</time></trkpt><trkpt lat="35.98528315201986" lon="-107.05222337318476"><ele>2092.0</ele><time>2026-05-03T16:35:36.001Z</time></trkpt><trkpt lat="35.985271033505526" lon="-107.0523954970789"><ele>2092.0</ele><time>2026-05-03T16:35:37.001Z</time></trkpt><trkpt lat="35.985281478147634" lon="-107.05255025381709"><ele>2092.4</ele><time>2026-05-03T16:35:38.001Z</time></trkpt><trkpt lat="35.98531460049232" lon="-107.05267921691551"><ele>2092.7999999999997</ele><time>2026-05-03T16:35:39.001Z</time></trkpt><trkpt lat="35.985343596832976" lon="-107.05277665889388"><ele>2093.2</ele><time>2026-05-03T16:35:40.001Z</time></trkpt><trkpt lat="35.98541373131704" lon="-107.05287603261155"><ele>2093.6</ele><time>2026-05-03T16:35:42.001Z</time></trkpt><trkpt lat="35.98548473681671" lon="-107.05288460184218"><ele>2094.0</ele><time>2026-05-03T16:35:43Z</time></trkpt><trkpt lat="35.985582195141674" lon="-107.05286137854355"><ele>2094.0</ele><time>2026-05-03T16:35:44Z</time></trkpt><trkpt lat="35.98569851512726" lon="-107.05278357965837"><ele>2094.0</ele><time>2026-05-03T16:35:45Z</time></trkpt><trkpt lat="35.98583862509237" lon="-107.05267310927435"><ele>2094.0</ele><time>2026-05-03T16:35:46.001Z</time></trkpt><trkpt lat="35.98600068435939" lon="-107.05255459108871"><ele>2094.0</ele><time>2026-05-03T16:35:47.001Z</time></trkpt><trkpt lat="35.98614495194916" lon="-107.0524527276241"><ele>2094.0</ele><time>2026-05-03T16:35:48.001Z</time></trkpt><trkpt lat="35.98627277070247" lon="-107.05237916080375"><ele>2094.0</ele><time>2026-05-03T16:35:49.001Z</time></trkpt><trkpt lat="35.98639401014225" lon="-107.0523066644211"><ele>2094.0</ele><time>2026-05-03T16:35:50.001Z</time></trkpt><trkpt lat="35.98651711341067" lon="-107.05224163193367"><ele>2094.0</ele><time>2026-05-03T16:35:51.001Z</time></trkpt><trkpt lat="35.98664706702327" lon="-107.05218596020337"><ele>2094.0</ele><time>2026-05-03T16:35:52.001Z</time></trkpt><trkpt lat="35.986774015989575" lon="-107.05213592024964"><ele>2094.0</ele><time>2026-05-03T16:35:53.001Z</time></trkpt><trkpt lat="35.98690184398771" lon="-107.0520902337074"><ele>2094.0</ele><time>2026-05-03T16:35:54.001Z</time></trkpt><trkpt lat="35.987029377331204" lon="-107.05204916801056"><ele>2094.0</ele><time>2026-05-03T16:35:55.001Z</time></trkpt><trkpt lat="35.987166396848764" lon="-107.05200604710824"><ele>2094.0</ele><time>2026-05-03T16:35:56.001Z</time></trkpt><trkpt lat="35.98729555603431" lon="-107.0519633011365"><ele>2094.0</ele><time>2026-05-03T16:35:57.001Z</time></trkpt><trkpt lat="35.98741860136593" lon="-107.05192194151938"><ele>2094.0</ele><time>2026-05-03T16:35:58.001Z</time></trkpt><trkpt lat="35.987545927651276" lon="-107.05187738590207"><ele>2094.0</ele><time>2026-05-03T16:35:59.001Z</time></trkpt><trkpt lat="35.987677783058324" lon="-107.05184169307731"><ele>2094.0</ele><time>2026-05-03T16:36:00.001Z</time></trkpt><trkpt lat="35.987816590353404" lon="-107.05181935229268"><ele>2094.0</ele><time>2026-05-03T16:36:01.001Z</time></trkpt><trkpt lat="35.987960391867716" lon="-107.05181693176527"><ele>2094.0</ele><time>2026-05-03T16:36:02.001Z</time></trkpt><trkpt lat="35.988102932447866" lon="-107.05184089420202"><ele>2094.0</ele><time>2026-05-03T16:36:03.001Z</time></trkpt><trkpt lat="35.98821932427231" lon="-107.05189299994936"><ele>2094.0</ele><time>2026-05-03T16:36:04.001Z</time></trkpt><trkpt lat="35.98830995664457" lon="-107.05196591738338"><ele>2094.0</ele><time>2026-05-03T16:36:05.001Z</time></trkpt><trkpt lat="35.988382043369775" lon="-107.05205367056716"><ele>2094.0</ele><time>2026-05-03T16:36:06.001Z</time></trkpt><trkpt lat="35.98845279669681" lon="-107.05217725505493"><ele>2094.0</ele><time>2026-05-03T16:36:07.001Z</time></trkpt><trkpt lat="35.98854320799357" lon="-107.05232350985443"><ele>2094.0</ele><time>2026-05-03T16:36:08.001Z</time></trkpt><trkpt lat="35.988630495898676" lon="-107.05243059858081"><ele>2094.0</ele><time>2026-05-03T16:36:09.001Z</time></trkpt><trkpt lat="35.98869914043913" lon="-107.05250719754943"><ele>2094.0</ele><time>2026-05-03T16:36:10.001Z</time></trkpt><trkpt lat="35.98876747663964" lon="-107.05257447656207"><ele>2094.0</ele><time>2026-05-03T16:36:11.001Z</time></trkpt><trkpt lat="35.988846597505855" lon="-107.05264112059567"><ele>2094.0</ele><time>2026-05-03T16:36:12.001Z</time></trkpt><trkpt lat="35.98892739302479" lon="-107.05273492763008"><ele>2094.0</ele><time>2026-05-03T16:36:13.001Z</time></trkpt><trkpt lat="35.98899548404831" lon="-107.05286686161044"><ele>2094.0</ele><time>2026-05-03T16:36:14.001Z</time></trkpt><trkpt lat="35.98906492452776" lon="-107.05303415996256"><ele>2094.0</ele><time>2026-05-03T16:36:15.001Z</time></trkpt><trkpt lat="35.9891410164409" lon="-107.05319084194556"><ele>2094.0</ele><time>2026-05-03T16:36:16.001Z</time></trkpt><trkpt lat="35.989208204027065" lon="-107.05333850607428"><ele>2094.0</ele><time>2026-05-03T16:36:17.001Z</time></trkpt><trkpt lat="35.98927373752027" lon="-107.05350573245762"><ele>2094.0</ele><time>2026-05-03T16:36:18.001Z</time></trkpt><trkpt lat="35.98932189706207" lon="-107.05365075077036"><ele>2094.4</ele><time>2026-05-03T16:36:19.001Z</time></trkpt><trkpt lat="35.98936260114207" lon="-107.05377732391167"><ele>2094.8</ele><time>2026-05-03T16:36:20.001Z</time></trkpt><trkpt lat="35.98940113095276" lon="-107.05389316575442"><ele>2095.2</ele><time>2026-05-03T16:36:21.001Z</time></trkpt><trkpt lat="35.98942741324757" lon="-107.0540022933951"><ele>2095.6</ele><time>2026-05-03T16:36:22.001Z</time></trkpt><trkpt lat="35.98944085364676" lon="-107.05409740029974"><ele>2096.0</ele><time>2026-05-03T16:36:23.001Z</time></trkpt><trkpt lat="35.989475595844794" lon="-107.05421292751349"><ele>2096.25</ele><time>2026-05-03T16:36:25.001Z</time></trkpt><trkpt lat="35.989493730364835" lon="-107.05432761596239"><ele>2096.5</ele><time>2026-05-03T16:36:26.001Z</time></trkpt><trkpt lat="35.9895241149646" lon="-107.0544812919732"><ele>2096.75</ele><time>2026-05-03T16:36:27.001Z</time></trkpt><trkpt lat="35.98956301450216" lon="-107.05465262362678"><ele>2097.0</ele><time>2026-05-03T16:36:28.001Z</time></trkpt><trkpt lat="35.98959778887652" lon="-107.05478622856026"><ele>2097.0</ele><time>2026-05-03T16:36:29.001Z</time></trkpt><trkpt lat="35.98962348417924" lon="-107.05491445952502"><ele>2097.0</ele><time>2026-05-03T16:36:30.001Z</time></trkpt><trkpt lat="35.989661052917356" lon="-107.0550615323043"><ele>2097.0</ele><time>2026-05-03T16:36:31.001Z</time></trkpt><trkpt lat="35.98970890922916" lon="-107.055206376495"><ele>2097.0</ele><time>2026-05-03T16:36:32.001Z</time></trkpt><trkpt lat="35.98975725129635" lon="-107.05534347123823"><ele>2097.6666666666665</ele><time>2026-05-03T16:36:33.001Z</time></trkpt><trkpt lat="35.98980127888927" lon="-107.05545616453655"><ele>2098.3333333333335</ele><time>2026-05-03T16:36:34.001Z</time></trkpt><trkpt lat="35.98983475093374" lon="-107.05555826319049"><ele>2099.0</ele><time>2026-05-03T16:36:35.001Z</time></trkpt><trkpt lat="35.98983778638121" lon="-107.05564188193225"><ele>2099.666666666667</ele><time>2026-05-03T16:36:36.001Z</time></trkpt><trkpt lat="35.98982435274738" lon="-107.05572895549881"><ele>2100.3333333333335</ele><time>2026-05-03T16:36:37.001Z</time></trkpt><trkpt lat="35.98980692903784" lon="-107.05580654147636"><ele>2101.0</ele><time>2026-05-03T16:36:38.001Z</time></trkpt><trkpt lat="35.989778095314406" lon="-107.05590677943079"><ele>2101.6</ele><time>2026-05-03T16:36:39.001Z</time></trkpt><trkpt lat="35.98973901161268" lon="-107.0560263091593"><ele>2102.2</ele><time>2026-05-03T16:36:40.001Z</time></trkpt><trkpt lat="35.989668488247816" lon="-107.05614656579235"><ele>2102.8</ele><time>2026-05-03T16:36:42.001Z</time></trkpt><trkpt lat="35.989613090292266" lon="-107.05620325398554"><ele>2103.4</ele><time>2026-05-03T16:36:43.001Z</time></trkpt><trkpt lat="35.989468925045905" lon="-107.05625310785652"><ele>2104.0</ele><time>2026-05-03T16:36:45.001Z</time></trkpt><trkpt lat="35.98939226924326" lon="-107.0562792110738"><ele>2104.0</ele><time>2026-05-03T16:36:46.001Z</time></trkpt><trkpt lat="35.9893349639378" lon="-107.05631221629189"><ele>2104.0</ele><time>2026-05-03T16:36:47.001Z</time></trkpt><trkpt lat="35.98922890503866" lon="-107.05636712024283"><ele>2104.0</ele><time>2026-05-03T16:36:49.001Z</time></trkpt><trkpt lat="35.98915384742" lon="-107.05639124387909"><ele>2104.0</ele><time>2026-05-03T16:36:50.001Z</time></trkpt><trkpt lat="35.98907303195723" lon="-107.05640548519187"><ele>2104.0</ele><time>2026-05-03T16:36:51.001Z</time></trkpt><trkpt lat="35.98899980738774" lon="-107.05644531255903"><ele>2104.0</ele><time>2026-05-03T16:36:52.001Z</time></trkpt><trkpt lat="35.988945573163285" lon="-107.0565136794366"><ele>2105.6</ele><time>2026-05-03T16:36:53.001Z</time></trkpt><trkpt lat="35.988842596779264" lon="-107.05658355355988"><ele>2107.2</ele><time>2026-05-03T16:36:55.001Z</time></trkpt><trkpt lat="35.98876591667124" lon="-107.05659973168203"><ele>2108.7999999999997</ele><time>2026-05-03T16:36:56.001Z</time></trkpt><trkpt lat="35.98868105829866" lon="-107.05666173449599"><ele>2110.4</ele><time>2026-05-03T16:36:57.001Z</time></trkpt><trkpt lat="35.98861245963598" lon="-107.0567295607548"><ele>2112.0</ele><time>2026-05-03T16:36:58.001Z</time></trkpt><trkpt lat="35.988527064061955" lon="-107.05682319481579"><ele>2112.0</ele><time>2026-05-03T16:36:59.001Z</time></trkpt><trkpt lat="35.98842922387955" lon="-107.05691499740618"><ele>2112.0</ele><time>2026-05-03T16:37:00.001Z</time></trkpt><trkpt lat="35.98834265448467" lon="-107.05699107598626"><ele>2112.0</ele><time>2026-05-03T16:37:01.001Z</time></trkpt><trkpt lat="35.98826315784001" lon="-107.05706142364687"><ele>2112.0</ele><time>2026-05-03T16:37:02.001Z</time></trkpt><trkpt lat="35.98818651516123" lon="-107.05714196915078"><ele>2112.0</ele><time>2026-05-03T16:37:03.001Z</time></trkpt><trkpt lat="35.98812525535849" lon="-107.057203002869"><ele>2112.6</ele><time>2026-05-03T16:37:04.001Z</time></trkpt><trkpt lat="35.98806325378153" lon="-107.05723556175576"><ele>2113.2</ele><time>2026-05-03T16:37:05.001Z</time></trkpt><trkpt lat="35.98797266016958" lon="-107.05723533895507"><ele>2113.8</ele><time>2026-05-03T16:37:06.001Z</time></trkpt><trkpt lat="35.987848006605674" lon="-107.05723680683585"><ele>2114.4</ele><time>2026-05-03T16:37:07.001Z</time></trkpt><trkpt lat="35.987733329850435" lon="-107.05725921768222"><ele>2115.0</ele><time>2026-05-03T16:37:08.001Z</time></trkpt><trkpt lat="35.98762672093841" lon="-107.05729474976184"><ele>2114.4</ele><time>2026-05-03T16:37:09.001Z</time></trkpt><trkpt lat="35.987510155250725" lon="-107.05732787333821"><ele>2113.8</ele><time>2026-05-03T16:37:10.001Z</time></trkpt><trkpt lat="35.987408252274925" lon="-107.05736682830947"><ele>2113.2</ele><time>2026-05-03T16:37:11.001Z</time></trkpt><trkpt lat="35.98733427789948" lon="-107.05744481397612"><ele>2112.6</ele><time>2026-05-03T16:37:12.001Z</time></trkpt><trkpt lat="35.987252502318455" lon="-107.05755435194055"><ele>2112.0</ele><time>2026-05-03T16:37:13.001Z</time></trkpt><trkpt lat="35.98717646462817" lon="-107.05767190298467"><ele>2114.25</ele><time>2026-05-03T16:37:14.001Z</time></trkpt><trkpt lat="35.987111044479725" lon="-107.0578003986987"><ele>2116.5</ele><time>2026-05-03T16:37:15.001Z</time></trkpt><trkpt lat="35.98703178484235" lon="-107.05794597593838"><ele>2118.75</ele><time>2026-05-03T16:37:16.001Z</time></trkpt><trkpt lat="35.986957524037386" lon="-107.05807559022159"><ele>2121.0</ele><time>2026-05-03T16:37:17.001Z</time></trkpt><trkpt lat="35.98688139701712" lon="-107.05819877542066"><ele>2120.25</ele><time>2026-05-03T16:37:18.001Z</time></trkpt><trkpt lat="35.986803993570874" lon="-107.0583173000643"><ele>2119.5</ele><time>2026-05-03T16:37:19.001Z</time></trkpt><trkpt lat="35.98672507697133" lon="-107.05842265978923"><ele>2118.75</ele><time>2026-05-03T16:37:20.002Z</time></trkpt><trkpt lat="35.986637258558765" lon="-107.05849786777296"><ele>2118.0</ele><time>2026-05-03T16:37:21.002Z</time></trkpt><trkpt lat="35.98653701272695" lon="-107.05856875092633"><ele>2119.75</ele><time>2026-05-03T16:37:22.002Z</time></trkpt><trkpt lat="35.986418977874045" lon="-107.05866003508326"><ele>2121.5</ele><time>2026-05-03T16:37:23.002Z</time></trkpt><trkpt lat="35.98631213498276" lon="-107.05875135247642"><ele>2123.25</ele><time>2026-05-03T16:37:24.002Z</time></trkpt><trkpt lat="35.98623405598802" lon="-107.05884661699886"><ele>2125.0</ele><time>2026-05-03T16:37:25.002Z</time></trkpt><trkpt lat="35.98616485716853" lon="-107.05894408611876"><ele>2125.0</ele><time>2026-05-03T16:37:26.002Z</time></trkpt><trkpt lat="35.98607769314172" lon="-107.05900784826329"><ele>2125.0</ele><time>2026-05-03T16:37:27.002Z</time></trkpt><trkpt lat="35.985964000085254" lon="-107.05904269794749"><ele>2125.0</ele><time>2026-05-03T16:37:28.002Z</time></trkpt><trkpt lat="35.985820782231116" lon="-107.05908010682526"><ele>2125.0</ele><time>2026-05-03T16:37:29.002Z</time></trkpt><trkpt lat="35.98569387956827" lon="-107.05914449087516"><ele>2125.4</ele><time>2026-05-03T16:37:30.002Z</time></trkpt><trkpt lat="35.98562285385861" lon="-107.0591953448046"><ele>2125.8</ele><time>2026-05-03T16:37:31.002Z</time></trkpt><trkpt lat="35.985571827287714" lon="-107.05926146343704"><ele>2126.2</ele><time>2026-05-03T16:37:32.002Z</time></trkpt><trkpt lat="35.98549819272818" lon="-107.05934850122802"><ele>2126.6</ele><time>2026-05-03T16:37:33.002Z</time></trkpt><trkpt lat="35.98540119963769" lon="-107.05939719648126"><ele>2127.0</ele><time>2026-05-03T16:37:34.002Z</time></trkpt><trkpt lat="35.985276649815034" lon="-107.05942660803593"><ele>2127.0</ele><time>2026-05-03T16:37:35.002Z</time></trkpt><trkpt lat="35.98516588097023" lon="-107.05948256704475"><ele>2127.0</ele><time>2026-05-03T16:37:36.002Z</time></trkpt><trkpt lat="35.98508392399635" lon="-107.05956480628691"><ele>2127.0</ele><time>2026-05-03T16:37:37Z</time></trkpt><trkpt lat="35.98501387934154" lon="-107.0596385992064"><ele>2127.0</ele><time>2026-05-03T16:37:38Z</time></trkpt><trkpt lat="35.984915098849214" lon="-107.05967980361119"><ele>2127.0</ele><time>2026-05-03T16:37:39Z</time></trkpt><trkpt lat="35.9847783927322" lon="-107.05969590208596"><ele>2127.6</ele><time>2026-05-03T16:37:40Z</time></trkpt><trkpt lat="35.98466495667041" lon="-107.05969552612405"><ele>2128.2</ele><time>2026-05-03T16:37:41Z</time></trkpt><trkpt lat="35.984600003767426" lon="-107.05971233821602"><ele>2128.8</ele><time>2026-05-03T16:37:42Z</time></trkpt><trkpt lat="35.98453869048629" lon="-107.05975931224442"><ele>2129.4</ele><time>2026-05-03T16:37:43Z</time></trkpt><trkpt lat="35.98447458228575" lon="-107.05986520358347"><ele>2130.0</ele><time>2026-05-03T16:37:44Z</time></trkpt><trkpt lat="35.98442954855599" lon="-107.06000193155299"><ele>2130.0</ele><time>2026-05-03T16:37:45Z</time></trkpt><trkpt lat="35.98439484132792" lon="-107.06016020989138"><ele>2130.0</ele><time>2026-05-03T16:37:46Z</time></trkpt><trkpt lat="35.98438993961899" lon="-107.06030523713558"><ele>2130.0</ele><time>2026-05-03T16:37:47Z</time></trkpt><trkpt lat="35.984406771383966" lon="-107.06045941856972"><ele>2130.0</ele><time>2026-05-03T16:37:48Z</time></trkpt><trkpt lat="35.98442511250301" lon="-107.06065074790453"><ele>2129.5</ele><time>2026-05-03T16:37:49Z</time></trkpt><trkpt lat="35.984427735313396" lon="-107.06086164986125"><ele>2129.0</ele><time>2026-05-03T16:37:50Z</time></trkpt><trkpt lat="35.98443102909403" lon="-107.06105165721156"><ele>2128.5</ele><time>2026-05-03T16:37:51Z</time></trkpt><trkpt lat="35.98444044489839" lon="-107.06120558894582"><ele>2128.0</ele><time>2026-05-03T16:37:52Z</time></trkpt><trkpt lat="35.98445410186227" lon="-107.0613798737032"><ele>2128.0</ele><time>2026-05-03T16:37:53Z</time></trkpt><trkpt lat="35.98446027574367" lon="-107.0615626591705"><ele>2128.0</ele><time>2026-05-03T16:37:54Z</time></trkpt><trkpt lat="35.98446076555875" lon="-107.06174330370523"><ele>2128.0</ele><time>2026-05-03T16:37:55Z</time></trkpt><trkpt lat="35.98446863914438" lon="-107.06192849059634"><ele>2128.0</ele><time>2026-05-03T16:37:56.001Z</time></trkpt><trkpt lat="35.9844742996759" lon="-107.06210984516841"><ele>2127.5</ele><time>2026-05-03T16:37:57.001Z</time></trkpt><trkpt lat="35.984475834143325" lon="-107.0622893788718"><ele>2127.0</ele><time>2026-05-03T16:37:58.001Z</time></trkpt><trkpt lat="35.984480498572374" lon="-107.06244380638849"><ele>2126.5</ele><time>2026-05-03T16:37:59.001Z</time></trkpt><trkpt lat="35.984488764455314" lon="-107.06257792733668"><ele>2126.0</ele><time>2026-05-03T16:38:00.001Z</time></trkpt><trkpt lat="35.98449860256746" lon="-107.06271786237005"><ele>2125.25</ele><time>2026-05-03T16:38:01.001Z</time></trkpt><trkpt lat="35.9845020423159" lon="-107.06286236946401"><ele>2124.5</ele><time>2026-05-03T16:38:02.001Z</time></trkpt><trkpt lat="35.9845068303171" lon="-107.06302443714937"><ele>2123.75</ele><time>2026-05-03T16:38:03.001Z</time></trkpt><trkpt lat="35.984516028480044" lon="-107.06317469080821"><ele>2123.0</ele><time>2026-05-03T16:38:04.001Z</time></trkpt><trkpt lat="35.98452834084228" lon="-107.06330800108162"><ele>2123.0</ele><time>2026-05-03T16:38:05.001Z</time></trkpt><trkpt lat="35.984530171289485" lon="-107.0634710233813"><ele>2123.0</ele><time>2026-05-03T16:38:06.001Z</time></trkpt><trkpt lat="35.98454437960487" lon="-107.06366534419942"><ele>2123.0</ele><time>2026-05-03T16:38:07.001Z</time></trkpt><trkpt lat="35.98455051681954" lon="-107.06386649574095"><ele>2123.0</ele><time>2026-05-03T16:38:08.001Z</time></trkpt><trkpt lat="35.98455777858338" lon="-107.06404716323041"><ele>2123.0</ele><time>2026-05-03T16:38:09.001Z</time></trkpt><trkpt lat="35.98456928343099" lon="-107.06423027708404"><ele>2123.0</ele><time>2026-05-03T16:38:10.001Z</time></trkpt><trkpt lat="35.984577473273006" lon="-107.0644094406279"><ele>2123.0</ele><time>2026-05-03T16:38:11.001Z</time></trkpt><trkpt lat="35.9845864792486" lon="-107.06459703062609"><ele>2123.0</ele><time>2026-05-03T16:38:12.001Z</time></trkpt><trkpt lat="35.984594492414665" lon="-107.0648019237535"><ele>2123.0</ele><time>2026-05-03T16:38:13.001Z</time></trkpt><trkpt lat="35.984602301114606" lon="-107.06501648683862"><ele>2123.0</ele><time>2026-05-03T16:38:14.001Z</time></trkpt><trkpt lat="35.98460660168208" lon="-107.06519733726121"><ele>2123.0</ele><time>2026-05-03T16:38:15.001Z</time></trkpt><trkpt lat="35.984612210176294" lon="-107.06532596913613"><ele>2123.0</ele><time>2026-05-03T16:38:16.001Z</time></trkpt><trkpt lat="35.98461038118598" lon="-107.0654508880988"><ele>2123.0</ele><time>2026-05-03T16:38:17.001Z</time></trkpt><trkpt lat="35.98461212422887" lon="-107.06560774074127"><ele>2123.0</ele><time>2026-05-03T16:38:18.001Z</time></trkpt><trkpt lat="35.98463011360217" lon="-107.06578422262697"><ele>2123.333333333333</ele><time>2026-05-03T16:38:19.001Z</time></trkpt><trkpt lat="35.98464050716309" lon="-107.06598543091118"><ele>2123.6666666666665</ele><time>2026-05-03T16:38:20.001Z</time></trkpt><trkpt lat="35.98463674026672" lon="-107.06618443429535"><ele>2124.0</ele><time>2026-05-03T16:38:21.001Z</time></trkpt><trkpt lat="35.98463329340279" lon="-107.06635530903829"><ele>2124.0</ele><time>2026-05-03T16:38:22.001Z</time></trkpt><trkpt lat="35.984627478586475" lon="-107.06647390394647"><ele>2124.0</ele><time>2026-05-03T16:38:23.001Z</time></trkpt><trkpt lat="35.98462714144148" lon="-107.0665720666754"><ele>2124.0</ele><time>2026-05-03T16:38:24.001Z</time></trkpt><trkpt lat="35.98464995827367" lon="-107.06668004352622"><ele>2124.0</ele><time>2026-05-03T16:38:25.001Z</time></trkpt><trkpt lat="35.98467026680749" lon="-107.06680959946904"><ele>2124.0</ele><time>2026-05-03T16:38:26.001Z</time></trkpt><trkpt lat="35.984666039042594" lon="-107.0669407647657"><ele>2124.5</ele><time>2026-05-03T16:38:27.001Z</time></trkpt><trkpt lat="35.98466484494393" lon="-107.06707895990506"><ele>2125.0</ele><time>2026-05-03T16:38:28.001Z</time></trkpt><trkpt lat="35.984665346466535" lon="-107.06722513123312"><ele>2125.5</ele><time>2026-05-03T16:38:29.001Z</time></trkpt><trkpt lat="35.98466712400644" lon="-107.06736216929745"><ele>2126.0</ele><time>2026-05-03T16:38:30.001Z</time></trkpt><trkpt lat="35.984670211338276" lon="-107.06751192591585"><ele>2126.2</ele><time>2026-05-03T16:38:31.001Z</time></trkpt><trkpt lat="35.984671720288404" lon="-107.06762219700101"><ele>2126.3999999999996</ele><time>2026-05-03T16:38:32.001Z</time></trkpt><trkpt lat="35.98467491508789" lon="-107.0677092222098"><ele>2126.6</ele><time>2026-05-03T16:38:33.001Z</time></trkpt><trkpt lat="35.98470192536983" lon="-107.06786168100264"><ele>2126.7999999999997</ele><time>2026-05-03T16:38:35.001Z</time></trkpt><trkpt lat="35.98470521134248" lon="-107.06797836740716"><ele>2127.0</ele><time>2026-05-03T16:38:36.001Z</time></trkpt><trkpt lat="35.984710248752684" lon="-107.06814706427875"><ele>2127.4</ele><time>2026-05-03T16:38:37.001Z</time></trkpt><trkpt lat="35.984718333092644" lon="-107.06832041372115"><ele>2127.7999999999997</ele><time>2026-05-03T16:38:38.001Z</time></trkpt><trkpt lat="35.984720776078184" lon="-107.06847868309364"><ele>2128.2</ele><time>2026-05-03T16:38:39.001Z</time></trkpt><trkpt lat="35.984728648384625" lon="-107.06858530348559"><ele>2128.6</ele><time>2026-05-03T16:38:40.001Z</time></trkpt><trkpt lat="35.98476482786982" lon="-107.06868860556521"><ele>2129.0</ele><time>2026-05-03T16:38:42.001Z</time></trkpt><trkpt lat="35.984904943421675" lon="-107.06872634968562"><ele>2129.0</ele><time>2026-05-03T16:38:44.001Z</time></trkpt><trkpt lat="35.98499218765903" lon="-107.06875245114104"><ele>2129.0</ele><time>2026-05-03T16:38:45.001Z</time></trkpt><trkpt lat="35.98510166142854" lon="-107.06880214299848"><ele>2129.0</ele><time>2026-05-03T16:38:46.001Z</time></trkpt><trkpt lat="35.985218864596746" lon="-107.06884932388476"><ele>2129.0</ele><time>2026-05-03T16:38:47.001Z</time></trkpt><trkpt lat="35.98528566978044" lon="-107.06889025228506"><ele>2129.0</ele><time>2026-05-03T16:38:48.001Z</time></trkpt><trkpt lat="35.98532411240018" lon="-107.0689576980864"><ele>2129.1428571428573</ele><time>2026-05-03T16:38:49.001Z</time></trkpt><trkpt lat="35.985351359940715" lon="-107.06903971412439"><ele>2129.285714285714</ele><time>2026-05-03T16:38:50.001Z</time></trkpt><trkpt lat="35.9853646409356" lon="-107.0691345451607"><ele>2129.4285714285716</ele><time>2026-05-03T16:38:51.001Z</time></trkpt><trkpt lat="35.985388439317745" lon="-107.06921809737574"><ele>2129.5714285714284</ele><time>2026-05-03T16:38:52.001Z</time></trkpt><trkpt lat="35.98543235203851" lon="-107.06927746238871"><ele>2129.714285714286</ele><time>2026-05-03T16:38:53.001Z</time></trkpt><trkpt lat="35.98549517303935" lon="-107.06933853670472"><ele>2129.857142857143</ele><time>2026-05-03T16:38:54.001Z</time></trkpt><trkpt lat="35.98554244508195" lon="-107.06939258424543"><ele>2130.0</ele><time>2026-05-03T16:38:55.001Z</time></trkpt><trkpt lat="35.98555242225513" lon="-107.06949592901927"><ele>2130.4</ele><time>2026-05-03T16:38:56.001Z</time></trkpt><trkpt lat="35.98556283682012" lon="-107.06961518646438"><ele>2130.8</ele><time>2026-05-03T16:38:57.001Z</time></trkpt><trkpt lat="35.98567982401181" lon="-107.06968968175745"><ele>2131.2</ele><time>2026-05-03T16:38:59.001Z</time></trkpt><trkpt lat="35.98578079179955" lon="-107.06971151174021"><ele>2131.6</ele><time>2026-05-03T16:39:00.001Z</time></trkpt><trkpt lat="35.98586888936988" lon="-107.06975504041287"><ele>2132.0</ele><time>2026-05-03T16:39:01.001Z</time></trkpt><trkpt lat="35.985954482820574" lon="-107.06983159735533"><ele>2131.333333333333</ele><time>2026-05-03T16:39:02.001Z</time></trkpt><trkpt lat="35.986025666546105" lon="-107.06987697288201"><ele>2130.6666666666665</ele><time>2026-05-03T16:39:03.001Z</time></trkpt><trkpt lat="35.986091449429836" lon="-107.06990348718885"><ele>2130.0</ele><time>2026-05-03T16:39:04.001Z</time></trkpt><trkpt lat="35.98614355406478" lon="-107.07000382378708"><ele>2129.3333333333335</ele><time>2026-05-03T16:39:06.001Z</time></trkpt><trkpt lat="35.98613844975844" lon="-107.07010085962214"><ele>2128.666666666667</ele><time>2026-05-03T16:39:07.001Z</time></trkpt><trkpt lat="35.98612835061681" lon="-107.07022803206999"><ele>2128.0</ele><time>2026-05-03T16:39:08.001Z</time></trkpt><trkpt lat="35.98614872359037" lon="-107.07030437370665"><ele>2128.0</ele><time>2026-05-03T16:39:09.001Z</time></trkpt><trkpt lat="35.986199927799944" lon="-107.07035834407732"><ele>2128.0</ele><time>2026-05-03T16:39:10.001Z</time></trkpt><trkpt lat="35.98626543906476" lon="-107.07039379544419"><ele>2128.0</ele><time>2026-05-03T16:39:11.001Z</time></trkpt><trkpt lat="35.98636061011225" lon="-107.07042019661071"><ele>2128.0</ele><time>2026-05-03T16:39:12.001Z</time></trkpt><trkpt lat="35.986480042227484" lon="-107.0704364971495"><ele>2128.0</ele><time>2026-05-03T16:39:13.001Z</time></trkpt><trkpt lat="35.98658565899279" lon="-107.07045467669535"><ele>2127.3333333333335</ele><time>2026-05-03T16:39:14.001Z</time></trkpt><trkpt lat="35.98668788776694" lon="-107.07048459202166"><ele>2126.666666666667</ele><time>2026-05-03T16:39:15.001Z</time></trkpt><trkpt lat="35.986781994007806" lon="-107.07050159237218"><ele>2126.0</ele><time>2026-05-03T16:39:16.001Z</time></trkpt><trkpt lat="35.98686220401839" lon="-107.07048986913084"><ele>2125.3333333333335</ele><time>2026-05-03T16:39:17.001Z</time></trkpt><trkpt lat="35.98692747479879" lon="-107.07052710121098"><ele>2124.6666666666665</ele><time>2026-05-03T16:39:18.001Z</time></trkpt><trkpt lat="35.986984505006916" lon="-107.07058918021286"><ele>2124.0</ele><time>2026-05-03T16:39:19.001Z</time></trkpt><trkpt lat="35.98706943028809" lon="-107.07060820949086"><ele>2124.0</ele><time>2026-05-03T16:39:21.001Z</time></trkpt><trkpt lat="35.987141792069195" lon="-107.07052305962064"><ele>2124.0</ele><time>2026-05-03T16:39:22.001Z</time></trkpt><trkpt lat="35.98720122774477" lon="-107.07045914434691"><ele>2124.0</ele><time>2026-05-03T16:39:23.001Z</time></trkpt><trkpt lat="35.98725222597549" lon="-107.07050985330575"><ele>2124.0</ele><time>2026-05-03T16:39:26.001Z</time></trkpt><trkpt lat="35.98741793249912" lon="-107.07048142890062"><ele>2124.0</ele><time>2026-05-03T16:39:27.001Z</time></trkpt><trkpt lat="35.987531816744635" lon="-107.07055953218912"><ele>2123.3333333333335</ele><time>2026-05-03T16:39:29.002Z</time></trkpt><trkpt lat="35.987597086285554" lon="-107.07064767200424"><ele>2122.6666666666665</ele><time>2026-05-03T16:39:31.002Z</time></trkpt><trkpt lat="35.98767241642529" lon="-107.07067752592823"><ele>2122.0</ele><time>2026-05-03T16:39:33.002Z</time></trkpt><trkpt lat="35.9877469838185" lon="-107.0706319187594"><ele>2121.333333333333</ele><time>2026-05-03T16:39:35.002Z</time></trkpt><trkpt lat="35.987811163286025" lon="-107.07061773402485"><ele>2120.6666666666665</ele><time>2026-05-03T16:39:36.002Z</time></trkpt><trkpt lat="35.987890358969615" lon="-107.07061198699857"><ele>2120.0</ele><time>2026-05-03T16:39:37.002Z</time></trkpt><trkpt lat="35.98798134913844" lon="-107.07061281529433"><ele>2120.0</ele><time>2026-05-03T16:39:38.002Z</time></trkpt><trkpt lat="35.988087830106" lon="-107.07067717631811"><ele>2120.0</ele><time>2026-05-03T16:39:40.002Z</time></trkpt><trkpt lat="35.988127528129745" lon="-107.07074530365648"><ele>2120.0</ele><time>2026-05-03T16:39:41.002Z</time></trkpt><trkpt lat="35.9881710779441" lon="-107.07084034797478"><ele>2120.0</ele><time>2026-05-03T16:39:42.002Z</time></trkpt><trkpt lat="35.988238157768336" lon="-107.07091893215497"><ele>2120.0</ele><time>2026-05-03T16:39:43Z</time></trkpt><trkpt lat="35.988268153433154" lon="-107.07101480860464"><ele>2121.0</ele><time>2026-05-03T16:39:44Z</time></trkpt><trkpt lat="35.988285522262885" lon="-107.07109444830319"><ele>2122.0</ele><time>2026-05-03T16:39:45Z</time></trkpt><trkpt lat="35.98831181965436" lon="-107.0711830528127"><ele>2123.0</ele><time>2026-05-03T16:39:47Z</time></trkpt><trkpt lat="35.988090407742675" lon="-107.07140090547009"><ele>2124.0</ele><time>2026-05-03T16:39:48Z</time></trkpt><trkpt lat="35.98802626943788" lon="-107.0715417426893"><ele>2123.5</ele><time>2026-05-03T16:39:49Z</time></trkpt><trkpt lat="35.98797907228103" lon="-107.07165236008888"><ele>2123.0</ele><time>2026-05-03T16:39:50Z</time></trkpt><trkpt lat="35.98797920717358" lon="-107.07176169144378"><ele>2122.5</ele><time>2026-05-03T16:39:52Z</time></trkpt><trkpt lat="35.98813691056085" lon="-107.07187419429884"><ele>2122.0</ele><time>2026-05-03T16:39:54Z</time></trkpt><trkpt lat="35.98827198586983" lon="-107.07193495483739"><ele>2122.3333333333335</ele><time>2026-05-03T16:39:55Z</time></trkpt><trkpt lat="35.98840360672756" lon="-107.0720129458946"><ele>2122.6666666666665</ele><time>2026-05-03T16:39:56Z</time></trkpt><trkpt lat="35.98853935571842" lon="-107.07209606342252"><ele>2123.0</ele><time>2026-05-03T16:39:57Z</time></trkpt><trkpt lat="35.988678015184576" lon="-107.07217529927517"><ele>2123.0</ele><time>2026-05-03T16:39:58Z</time></trkpt><trkpt lat="35.98881025555666" lon="-107.07224417607841"><ele>2123.0</ele><time>2026-05-03T16:39:59Z</time></trkpt><trkpt lat="35.98892029619274" lon="-107.07228524763845"><ele>2123.0</ele><time>2026-05-03T16:40:00Z</time></trkpt><trkpt lat="35.98901486053189" lon="-107.07233165463775"><ele>2123.0</ele><time>2026-05-03T16:40:01Z</time></trkpt><trkpt lat="35.989113093661246" lon="-107.07242000580736"><ele>2123.2000000000003</ele><time>2026-05-03T16:40:02Z</time></trkpt><trkpt lat="35.98923442154277" lon="-107.07250943362975"><ele>2123.4</ele><time>2026-05-03T16:40:03Z</time></trkpt><trkpt lat="35.98933707039658" lon="-107.0725547655342"><ele>2123.6000000000004</ele><time>2026-05-03T16:40:04Z</time></trkpt><trkpt lat="35.98942709257504" lon="-107.07259668706999"><ele>2123.8</ele><time>2026-05-03T16:40:05.001Z</time></trkpt><trkpt lat="35.989502281370875" lon="-107.07262203113888"><ele>2124.0</ele><time>2026-05-03T16:40:06.001Z</time></trkpt><trkpt lat="35.989582953351615" lon="-107.07264871417642"><ele>2124.0</ele><time>2026-05-03T16:40:07.001Z</time></trkpt><trkpt lat="35.989696891160094" lon="-107.07270628662724"><ele>2124.0</ele><time>2026-05-03T16:40:08.001Z</time></trkpt><trkpt lat="35.98983669466796" lon="-107.07278414054306"><ele>2124.0</ele><time>2026-05-03T16:40:09.001Z</time></trkpt><trkpt lat="35.98997419653706" lon="-107.07286668728162"><ele>2124.0</ele><time>2026-05-03T16:40:10.001Z</time></trkpt><trkpt lat="35.9900862726798" lon="-107.07293110121313"><ele>2124.25</ele><time>2026-05-03T16:40:11.001Z</time></trkpt><trkpt lat="35.990199136681305" lon="-107.0730144986657"><ele>2124.5</ele><time>2026-05-03T16:40:12.001Z</time></trkpt><trkpt lat="35.99031358098009" lon="-107.07309178563327"><ele>2124.75</ele><time>2026-05-03T16:40:13.001Z</time></trkpt><trkpt lat="35.99042422583465" lon="-107.07316854590428"><ele>2125.0</ele><time>2026-05-03T16:40:14.001Z</time></trkpt><trkpt lat="35.99053704679185" lon="-107.0732336829911"><ele>2126.0</ele><time>2026-05-03T16:40:15.001Z</time></trkpt><trkpt lat="35.990652399174934" lon="-107.0732902287138"><ele>2127.0</ele><time>2026-05-03T16:40:16.001Z</time></trkpt><trkpt lat="35.990739868054796" lon="-107.07334628057592"><ele>2128.0</ele><time>2026-05-03T16:40:17.001Z</time></trkpt><trkpt lat="35.99083469508773" lon="-107.07340996892137"><ele>2129.0</ele><time>2026-05-03T16:40:18.001Z</time></trkpt><trkpt lat="35.99095185174546" lon="-107.07347360155447"><ele>2131.6666666666665</ele><time>2026-05-03T16:40:19.001Z</time></trkpt><trkpt lat="35.99109244701318" lon="-107.0735291529738"><ele>2134.3333333333335</ele><time>2026-05-03T16:40:20.001Z</time></trkpt><trkpt lat="35.99124546551466" lon="-107.07358768947867"><ele>2137.0</ele><time>2026-05-03T16:40:21.001Z</time></trkpt><trkpt lat="35.991402707977784" lon="-107.07366583202331"><ele>2137.0</ele><time>2026-05-03T16:40:22.001Z</time></trkpt><trkpt lat="35.99150256948745" lon="-107.07374304974235"><ele>2137.0</ele><time>2026-05-03T16:40:23.001Z</time></trkpt><trkpt lat="35.991588197198695" lon="-107.07382522490464"><ele>2137.0</ele><time>2026-05-03T16:40:24.001Z</time></trkpt><trkpt lat="35.99165156083606" lon="-107.0739245890228"><ele>2137.0</ele><time>2026-05-03T16:40:25.001Z</time></trkpt><trkpt lat="35.991688303202544" lon="-107.07405144484515"><ele>2137.0</ele><time>2026-05-03T16:40:26.001Z</time></trkpt><trkpt lat="35.99170236553135" lon="-107.07422646271256"><ele>2136.25</ele><time>2026-05-03T16:40:27.001Z</time></trkpt><trkpt lat="35.99171775422225" lon="-107.07442242571861"><ele>2135.5</ele><time>2026-05-03T16:40:28.001Z</time></trkpt><trkpt lat="35.99176500886975" lon="-107.0745964198557"><ele>2134.75</ele><time>2026-05-03T16:40:29.001Z</time></trkpt><trkpt lat="35.99182938101425" lon="-107.0747514830779"><ele>2134.0</ele><time>2026-05-03T16:40:30.001Z</time></trkpt><trkpt lat="35.99189550505981" lon="-107.07488892462224"><ele>2132.666666666667</ele><time>2026-05-03T16:40:31.001Z</time></trkpt><trkpt lat="35.99197769283207" lon="-107.0750298432671"><ele>2131.3333333333335</ele><time>2026-05-03T16:40:32.001Z</time></trkpt><trkpt lat="35.99208130034916" lon="-107.07516756959154"><ele>2130.0</ele><time>2026-05-03T16:40:33.001Z</time></trkpt><trkpt lat="35.992203455729374" lon="-107.07530306234469"><ele>2130.0</ele><time>2026-05-03T16:40:34.001Z</time></trkpt><trkpt lat="35.992349199930004" lon="-107.07546233439011"><ele>2130.0</ele><time>2026-05-03T16:40:35.001Z</time></trkpt><trkpt lat="35.992487173444395" lon="-107.07561684409791"><ele>2130.0</ele><time>2026-05-03T16:40:36.001Z</time></trkpt><trkpt lat="35.99258766741955" lon="-107.07574026987558"><ele>2129.0</ele><time>2026-05-03T16:40:37.001Z</time></trkpt><trkpt lat="35.99265751178188" lon="-107.07583401436546"><ele>2128.0</ele><time>2026-05-03T16:40:38.001Z</time></trkpt><trkpt lat="35.99271261257738" lon="-107.07590806283075"><ele>2127.0</ele><time>2026-05-03T16:40:39.001Z</time></trkpt><trkpt lat="35.992767586673565" lon="-107.07597699139531"><ele>2126.0</ele><time>2026-05-03T16:40:40.001Z</time></trkpt><trkpt lat="35.9928040721644" lon="-107.0760588356392"><ele>2125.0</ele><time>2026-05-03T16:40:42.001Z</time></trkpt><trkpt lat="35.99272834885964" lon="-107.07610358913317"><ele>2124.0</ele><time>2026-05-03T16:40:44.001Z</time></trkpt><trkpt lat="35.99266956206154" lon="-107.07606678696175"><ele>2124.0</ele><time>2026-05-03T16:40:45.001Z</time></trkpt><trkpt lat="35.99260591278063" lon="-107.07597411567987"><ele>2124.0</ele><time>2026-05-03T16:40:46.001Z</time></trkpt><trkpt lat="35.992534238635805" lon="-107.07589120269421"><ele>2124.0</ele><time>2026-05-03T16:40:47.001Z</time></trkpt><trkpt lat="35.99242695032621" lon="-107.0757808434068"><ele>2124.0</ele><time>2026-05-03T16:40:48.001Z</time></trkpt><trkpt lat="35.99230429351628" lon="-107.07565035806941"><ele>2125.2</ele><time>2026-05-03T16:40:49.001Z</time></trkpt><trkpt lat="35.99220670591587" lon="-107.07554698292005"><ele>2126.4</ele><time>2026-05-03T16:40:50.001Z</time></trkpt><trkpt lat="35.99212927325652" lon="-107.07546055970396"><ele>2127.6</ele><time>2026-05-03T16:40:51.001Z</time></trkpt><trkpt lat="35.99206122397345" lon="-107.07538089921223"><ele>2128.8</ele><time>2026-05-03T16:40:52.001Z</time></trkpt><trkpt lat="35.99199123483982" lon="-107.07527920641611"><ele>2130.0</ele><time>2026-05-03T16:40:53.001Z</time></trkpt><trkpt lat="35.991919013952575" lon="-107.07518869432327"><ele>2130.0</ele><time>2026-05-03T16:40:54.001Z</time></trkpt><trkpt lat="35.99187175121196" lon="-107.07511927350394"><ele>2130.0</ele><time>2026-05-03T16:40:55.001Z</time></trkpt><trkpt lat="35.99180887670157" lon="-107.07505509557504"><ele>2130.0</ele><time>2026-05-03T16:40:56.001Z</time></trkpt><trkpt lat="35.991737380284626" lon="-107.07502710883868"><ele>2130.0</ele><time>2026-05-03T16:40:57.001Z</time></trkpt><trkpt lat="35.99166528611722" lon="-107.0750173239455"><ele>2130.0</ele><time>2026-05-03T16:40:58.001Z</time></trkpt><trkpt lat="35.99158912263929" lon="-107.07499582464627"><ele>2130.0</ele><time>2026-05-03T16:40:59.001Z</time></trkpt><trkpt lat="35.99153618840117" lon="-107.07493464716423"><ele>2130.8333333333335</ele><time>2026-05-03T16:41:00.001Z</time></trkpt><trkpt lat="35.99149381498312" lon="-107.07486662699864"><ele>2131.6666666666665</ele><time>2026-05-03T16:41:01.001Z</time></trkpt><trkpt lat="35.99138718991829" lon="-107.07479488505112"><ele>2132.5</ele><time>2026-05-03T16:41:03.001Z</time></trkpt><trkpt lat="35.99132765657658" lon="-107.07475808429743"><ele>2133.333333333333</ele><time>2026-05-03T16:41:04.001Z</time></trkpt><trkpt lat="35.99126253951793" lon="-107.07475702991614"><ele>2134.1666666666665</ele><time>2026-05-03T16:41:05.001Z</time></trkpt><trkpt lat="35.99118411842246" lon="-107.07480030031078"><ele>2135.0</ele><time>2026-05-03T16:41:07.001Z</time></trkpt><trkpt lat="35.991199529954535" lon="-107.07498440990393"><ele>2135.0</ele><time>2026-05-03T16:41:09.001Z</time></trkpt><trkpt lat="35.99117848418624" lon="-107.07512639487199"><ele>2135.0</ele><time>2026-05-03T16:41:10.001Z</time></trkpt><trkpt lat="35.991127778701525" lon="-107.07523785287002"><ele>2135.0</ele><time>2026-05-03T16:41:11.001Z</time></trkpt><trkpt lat="35.99106814872558" lon="-107.07530166566553"><ele>2135.0</ele><time>2026-05-03T16:41:12.001Z</time></trkpt><trkpt lat="35.99099216042244" lon="-107.07535310296134"><ele>2135.0</ele><time>2026-05-03T16:41:13.001Z</time></trkpt><trkpt lat="35.99090748103406" lon="-107.07542277447243"><ele>2135.333333333333</ele><time>2026-05-03T16:41:14.001Z</time></trkpt><trkpt lat="35.99081540047493" lon="-107.0754897127379"><ele>2135.6666666666665</ele><time>2026-05-03T16:41:15.001Z</time></trkpt><trkpt lat="35.99071571049714" lon="-107.07552895245274"><ele>2136.0</ele><time>2026-05-03T16:41:16.001Z</time></trkpt><trkpt lat="35.99062949649454" lon="-107.07554550665851"><ele>2136.3333333333335</ele><time>2026-05-03T16:41:17.001Z</time></trkpt><trkpt lat="35.99054827506741" lon="-107.07556711593227"><ele>2136.666666666667</ele><time>2026-05-03T16:41:18.001Z</time></trkpt><trkpt lat="35.99049554328942" lon="-107.07561392318398"><ele>2137.0</ele><time>2026-05-03T16:41:19.001Z</time></trkpt><trkpt lat="35.99045320144815" lon="-107.07568360646412"><ele>2137.0</ele><time>2026-05-03T16:41:20.001Z</time></trkpt><trkpt lat="35.990413379615894" lon="-107.07576291245714"><ele>2137.0</ele><time>2026-05-03T16:41:21.001Z</time></trkpt><trkpt lat="35.990366457389655" lon="-107.0758486279722"><ele>2137.0</ele><time>2026-05-03T16:41:22.001Z</time></trkpt><trkpt lat="35.99029801105262" lon="-107.07593277431953"><ele>2137.0</ele><time>2026-05-03T16:41:23.001Z</time></trkpt><trkpt lat="35.99022601337228" lon="-107.07601684309238"><ele>2137.0</ele><time>2026-05-03T16:41:24.001Z</time></trkpt><trkpt lat="35.99018015375587" lon="-107.07609617624753"><ele>2137.0</ele><time>2026-05-03T16:41:25.001Z</time></trkpt><trkpt lat="35.99013556770923" lon="-107.07617652538124"><ele>2138.7999999999997</ele><time>2026-05-03T16:41:26.001Z</time></trkpt><trkpt lat="35.9900673356593" lon="-107.0762737845278"><ele>2140.6</ele><time>2026-05-03T16:41:27.001Z</time></trkpt><trkpt lat="35.99001256258883" lon="-107.0763846467706"><ele>2142.3999999999996</ele><time>2026-05-03T16:41:28.001Z</time></trkpt><trkpt lat="35.98997972575927" lon="-107.07647936882252"><ele>2144.2</ele><time>2026-05-03T16:41:29.001Z</time></trkpt><trkpt lat="35.98995232427768" lon="-107.07657340412875"><ele>2146.0</ele><time>2026-05-03T16:41:30.001Z</time></trkpt><trkpt lat="35.989898711554325" lon="-107.07665029722068"><ele>2147.0</ele><time>2026-05-03T16:41:31.001Z</time></trkpt><trkpt lat="35.9898237810361" lon="-107.07669851384573"><ele>2148.0</ele><time>2026-05-03T16:41:32.001Z</time></trkpt><trkpt lat="35.989739895171674" lon="-107.0767412495794"><ele>2149.0</ele><time>2026-05-03T16:41:33.001Z</time></trkpt><trkpt lat="35.989651665356305" lon="-107.07680596607369"><ele>2150.0</ele><time>2026-05-03T16:41:34.001Z</time></trkpt><trkpt lat="35.98960584510709" lon="-107.07688351389915"><ele>2151.0</ele><time>2026-05-03T16:41:35.001Z</time></trkpt><trkpt lat="35.98956412540517" lon="-107.07696652930021"><ele>2152.0</ele><time>2026-05-03T16:41:36.001Z</time></trkpt><trkpt lat="35.98948917056987" lon="-107.077088407929"><ele>2152.0</ele><time>2026-05-03T16:41:38.001Z</time></trkpt><trkpt lat="35.98937902992888" lon="-107.07710747224982"><ele>2152.0</ele><time>2026-05-03T16:41:40.002Z</time></trkpt><trkpt lat="35.98929256619947" lon="-107.07710150811458"><ele>2152.0</ele><time>2026-05-03T16:41:41.002Z</time></trkpt><trkpt lat="35.98919943899691" lon="-107.0771157668643"><ele>2152.0</ele><time>2026-05-03T16:41:42.002Z</time></trkpt><trkpt lat="35.98911737114083" lon="-107.07714879736947"><ele>2152.0</ele><time>2026-05-03T16:41:43.002Z</time></trkpt><trkpt lat="35.98904674364699" lon="-107.07717389264754"><ele>2152.0</ele><time>2026-05-03T16:41:44.002Z</time></trkpt><trkpt lat="35.98898780143132" lon="-107.07712162614969"><ele>2152.0</ele><time>2026-05-03T16:41:45.002Z</time></trkpt><trkpt lat="35.98891043028429" lon="-107.07705389457145"><ele>2152.0</ele><time>2026-05-03T16:41:46.002Z</time></trkpt><trkpt lat="35.988830234652426" lon="-107.07700312054516"><ele>2152.0</ele><time>2026-05-03T16:41:47.002Z</time></trkpt><trkpt lat="35.988769774350956" lon="-107.07696627657806"><ele>2152.0</ele><time>2026-05-03T16:41:48.002Z</time></trkpt><trkpt lat="35.988692816650904" lon="-107.07695734535699"><ele>2152.0</ele><time>2026-05-03T16:41:50Z</time></trkpt><trkpt lat="35.988620919463244" lon="-107.07696295545867"><ele>2152.0</ele><time>2026-05-03T16:41:55Z</time></trkpt><trkpt lat="35.9885289810101" lon="-107.07692690215303"><ele>2152.0</ele><time>2026-05-03T16:41:57Z</time></trkpt><trkpt lat="35.98846219951778" lon="-107.07689640698526"><ele>2152.0</ele><time>2026-05-03T16:42:02Z</time></trkpt><trkpt lat="35.988329803822914" lon="-107.07685854575807"><ele>2152.0</ele><time>2026-05-03T16:42:04Z</time></trkpt><trkpt lat="35.98826559984605" lon="-107.0768145392558"><ele>2152.0</ele><time>2026-05-03T16:42:05Z</time></trkpt><trkpt lat="35.98818253484127" lon="-107.07675844363571"><ele>2151.5</ele><time>2026-05-03T16:42:06Z</time></trkpt><trkpt lat="35.988077354663375" lon="-107.07669103918879"><ele>2151.0</ele><time>2026-05-03T16:42:07Z</time></trkpt><trkpt lat="35.9879867081071" lon="-107.07664246395345"><ele>2150.5</ele><time>2026-05-03T16:42:08Z</time></trkpt><trkpt lat="35.9878467929726" lon="-107.07654366054025"><ele>2150.0</ele><time>2026-05-03T16:42:09Z</time></trkpt><trkpt lat="35.98769798032516" lon="-107.07643286428218"><ele>2150.0</ele><time>2026-05-03T16:42:10Z</time></trkpt><trkpt lat="35.98755083905307" lon="-107.07633001059345"><ele>2150.0</ele><time>2026-05-03T16:42:11Z</time></trkpt><trkpt lat="35.98742983185542" lon="-107.07624877863282"><ele>2150.0</ele><time>2026-05-03T16:42:12.001Z</time></trkpt><trkpt lat="35.98732836690386" lon="-107.07616559649995"><ele>2150.0</ele><time>2026-05-03T16:42:13.001Z</time></trkpt><trkpt lat="35.987230611052276" lon="-107.07607563654149"><ele>2150.0</ele><time>2026-05-03T16:42:14.001Z</time></trkpt><trkpt lat="35.987150047260904" lon="-107.07598051750564"><ele>2150.0</ele><time>2026-05-03T16:42:15.001Z</time></trkpt><trkpt lat="35.98706647909877" lon="-107.07591911816853"><ele>2150.0</ele><time>2026-05-03T16:42:16.001Z</time></trkpt><trkpt lat="35.986975754040685" lon="-107.07586031383403"><ele>2150.0</ele><time>2026-05-03T16:42:17.001Z</time></trkpt><trkpt lat="35.98687249186527" lon="-107.07580535877332"><ele>2150.0</ele><time>2026-05-03T16:42:18.001Z</time></trkpt><trkpt lat="35.986753810209336" lon="-107.07573485352425"><ele>2153.6666666666665</ele><time>2026-05-03T16:42:19.001Z</time></trkpt><trkpt lat="35.986623120987964" lon="-107.07565722433795"><ele>2157.3333333333335</ele><time>2026-05-03T16:42:20.001Z</time></trkpt><trkpt lat="35.986488791560355" lon="-107.07558054912728"><ele>2161.0</ele><time>2026-05-03T16:42:21.001Z</time></trkpt><trkpt lat="35.98633560258714" lon="-107.07549519962217"><ele>2161.0</ele><time>2026-05-03T16:42:22.001Z</time></trkpt><trkpt lat="35.98617667531044" lon="-107.07540173228257"><ele>2161.0</ele><time>2026-05-03T16:42:23.001Z</time></trkpt><trkpt lat="35.9859983123433" lon="-107.0752471238637"><ele>2161.0</ele><time>2026-05-03T16:42:24.001Z</time></trkpt><trkpt lat="35.98589188317393" lon="-107.0751569696225"><ele>2160.8</ele><time>2026-05-03T16:42:25.001Z</time></trkpt><trkpt lat="35.985785567807" lon="-107.07508075306937"><ele>2160.6</ele><time>2026-05-03T16:42:26.001Z</time></trkpt><trkpt lat="35.98569196686097" lon="-107.07502988637123"><ele>2160.4</ele><time>2026-05-03T16:42:27.001Z</time></trkpt><trkpt lat="35.985587677906025" lon="-107.07498415742218"><ele>2160.2</ele><time>2026-05-03T16:42:28.001Z</time></trkpt><trkpt lat="35.98548428020695" lon="-107.07493957020803"><ele>2160.0</ele><time>2026-05-03T16:42:29.001Z</time></trkpt><trkpt lat="35.985393770102895" lon="-107.07492606821438"><ele>2160.0</ele><time>2026-05-03T16:42:30.001Z</time></trkpt><trkpt lat="35.985296366361595" lon="-107.07495215636919"><ele>2160.0</ele><time>2026-05-03T16:42:31.001Z</time></trkpt><trkpt lat="35.985179248389755" lon="-107.0749616976249"><ele>2160.0</ele><time>2026-05-03T16:42:32.001Z</time></trkpt><trkpt lat="35.98508994441202" lon="-107.0749457531497"><ele>2160.0</ele><time>2026-05-03T16:42:33.001Z</time></trkpt><trkpt lat="35.985015270990466" lon="-107.07498248876449"><ele>2160.0</ele><time>2026-05-03T16:42:35.001Z</time></trkpt><trkpt lat="35.98500264419796" lon="-107.07507884198027"><ele>2160.0</ele><time>2026-05-03T16:42:36.001Z</time></trkpt><trkpt lat="35.98502476005782" lon="-107.07521217374527"><ele>2160.0</ele><time>2026-05-03T16:42:37.001Z</time></trkpt><trkpt lat="35.98507428119786" lon="-107.07537675204586"><ele>2160.0</ele><time>2026-05-03T16:42:38.001Z</time></trkpt><trkpt lat="35.98509657572453" lon="-107.0755311342689"><ele>2160.0</ele><time>2026-05-03T16:42:39.001Z</time></trkpt><trkpt lat="35.98511815356732" lon="-107.07566848249486"><ele>2159.8</ele><time>2026-05-03T16:42:40.001Z</time></trkpt><trkpt lat="35.98514190020169" lon="-107.0758096029316"><ele>2159.6</ele><time>2026-05-03T16:42:41.001Z</time></trkpt><trkpt lat="35.98516366614321" lon="-107.07593610780376"><ele>2159.4</ele><time>2026-05-03T16:42:42.001Z</time></trkpt><trkpt lat="35.98517928727127" lon="-107.0760551990823"><ele>2159.2</ele><time>2026-05-03T16:42:43.001Z</time></trkpt><trkpt lat="35.985184943303366" lon="-107.07616175396063"><ele>2159.0</ele><time>2026-05-03T16:42:44.001Z</time></trkpt><trkpt lat="35.985181825035994" lon="-107.0763026940138"><ele>2159.0</ele><time>2026-05-03T16:42:45.001Z</time></trkpt><trkpt lat="35.985179220266176" lon="-107.07647821337494"><ele>2159.0</ele><time>2026-05-03T16:42:46.001Z</time></trkpt><trkpt lat="35.98518386285093" lon="-107.07662506942856"><ele>2159.0</ele><time>2026-05-03T16:42:47.001Z</time></trkpt><trkpt lat="35.98519622460149" lon="-107.07677552414042"><ele>2159.0</ele><time>2026-05-03T16:42:48.001Z</time></trkpt><trkpt lat="35.98521829835016" lon="-107.07694486105606"><ele>2158.25</ele><time>2026-05-03T16:42:49.001Z</time></trkpt><trkpt lat="35.98523357405435" lon="-107.07712618954264"><ele>2157.5</ele><time>2026-05-03T16:42:50.001Z</time></trkpt><trkpt lat="35.98524256637307" lon="-107.07730336274372"><ele>2156.75</ele><time>2026-05-03T16:42:51.001Z</time></trkpt><trkpt lat="35.985249203570234" lon="-107.07749081765687"><ele>2156.0</ele><time>2026-05-03T16:42:52.001Z</time></trkpt><trkpt lat="35.98526503138232" lon="-107.07768077770815"><ele>2156.0</ele><time>2026-05-03T16:42:53.001Z</time></trkpt><trkpt lat="35.98527994934993" lon="-107.07786995268938"><ele>2156.0</ele><time>2026-05-03T16:42:54.001Z</time></trkpt><trkpt lat="35.98529551343677" lon="-107.0780415044718"><ele>2156.0</ele><time>2026-05-03T16:42:55.001Z</time></trkpt><trkpt lat="35.98530429093698" lon="-107.07819674814333"><ele>2156.0</ele><time>2026-05-03T16:42:56.001Z</time></trkpt><trkpt lat="35.985316760630674" lon="-107.07836459411706"><ele>2156.25</ele><time>2026-05-03T16:42:57.001Z</time></trkpt><trkpt lat="35.98532858077316" lon="-107.0785387177693"><ele>2156.5</ele><time>2026-05-03T16:42:58.001Z</time></trkpt><trkpt lat="35.98533135895006" lon="-107.07870564652245"><ele>2156.75</ele><time>2026-05-03T16:42:59.001Z</time></trkpt><trkpt lat="35.98533220506073" lon="-107.07887955966518"><ele>2157.0</ele><time>2026-05-03T16:43:00.001Z</time></trkpt><trkpt lat="35.985336746893296" lon="-107.07907460509016"><ele>2156.5</ele><time>2026-05-03T16:43:01.001Z</time></trkpt><trkpt lat="35.985343433584845" lon="-107.07926362160559"><ele>2156.0</ele><time>2026-05-03T16:43:02.001Z</time></trkpt><trkpt lat="35.98535285590933" lon="-107.07943793205625"><ele>2155.5</ele><time>2026-05-03T16:43:03.001Z</time></trkpt><trkpt lat="35.985367059842936" lon="-107.07961432560901"><ele>2155.0</ele><time>2026-05-03T16:43:04.001Z</time></trkpt><trkpt lat="35.985378725406925" lon="-107.07977196896763"><ele>2155.0</ele><time>2026-05-03T16:43:05.001Z</time></trkpt><trkpt lat="35.98537762402725" lon="-107.07990094591375"><ele>2155.0</ele><time>2026-05-03T16:43:06.001Z</time></trkpt><trkpt lat="35.98537744113715" lon="-107.0800118988368"><ele>2155.0</ele><time>2026-05-03T16:43:07.001Z</time></trkpt><trkpt lat="35.98540280353016" lon="-107.08014312684334"><ele>2155.0</ele><time>2026-05-03T16:43:09.001Z</time></trkpt><trkpt lat="35.98552808762672" lon="-107.08020993391276"><ele>2155.0</ele><time>2026-05-03T16:43:11.001Z</time></trkpt><trkpt lat="35.985630701045544" lon="-107.08020041345422"><ele>2155.0</ele><time>2026-05-03T16:43:12.001Z</time></trkpt><trkpt lat="35.985756843767284" lon="-107.08020111403172"><ele>2155.0</ele><time>2026-05-03T16:43:13.001Z</time></trkpt><trkpt lat="35.98589575484799" lon="-107.0801997761016"><ele>2155.0</ele><time>2026-05-03T16:43:14.001Z</time></trkpt><trkpt lat="35.98602600661407" lon="-107.08018536930504"><ele>2155.0</ele><time>2026-05-03T16:43:15.001Z</time></trkpt><trkpt lat="35.986145980740496" lon="-107.08019140601472"><ele>2156.0</ele><time>2026-05-03T16:43:16.001Z</time></trkpt><trkpt lat="35.98624639195803" lon="-107.08022469777202"><ele>2157.0</ele><time>2026-05-03T16:43:17.001Z</time></trkpt><trkpt lat="35.98634144018193" lon="-107.08027085301353"><ele>2158.0</ele><time>2026-05-03T16:43:18.001Z</time></trkpt><trkpt lat="35.98645651341449" lon="-107.08028640142993"><ele>2159.0</ele><time>2026-05-03T16:43:19.001Z</time></trkpt><trkpt lat="35.98657286332643" lon="-107.0803215915176"><ele>2160.0</ele><time>2026-05-03T16:43:20.001Z</time></trkpt><trkpt lat="35.98668080540409" lon="-107.08038319593433"><ele>2160.0</ele><time>2026-05-03T16:43:21.001Z</time></trkpt><trkpt lat="35.98677344413895" lon="-107.08041810903116"><ele>2160.0</ele><time>2026-05-03T16:43:22.001Z</time></trkpt><trkpt lat="35.986858945715625" lon="-107.08040735653114"><ele>2160.0</ele><time>2026-05-03T16:43:23.001Z</time></trkpt><trkpt lat="35.986968068719484" lon="-107.08046278701183"><ele>2160.0</ele><time>2026-05-03T16:43:25.001Z</time></trkpt><trkpt lat="35.98699320434198" lon="-107.08057911003091"><ele>2160.0</ele><time>2026-05-03T16:43:26.001Z</time></trkpt><trkpt lat="35.987036725669945" lon="-107.080719665496"><ele>2159.25</ele><time>2026-05-03T16:43:27.001Z</time></trkpt><trkpt lat="35.98711586154224" lon="-107.08085240411535"><ele>2158.5</ele><time>2026-05-03T16:43:28.001Z</time></trkpt><trkpt lat="35.98721061965479" lon="-107.08095508324178"><ele>2157.75</ele><time>2026-05-03T16:43:29.001Z</time></trkpt><trkpt lat="35.987286227481576" lon="-107.08105767481206"><ele>2157.0</ele><time>2026-05-03T16:43:30.001Z</time></trkpt><trkpt lat="35.98734179896715" lon="-107.08115019298579"><ele>2157.0</ele><time>2026-05-03T16:43:31.001Z</time></trkpt><trkpt lat="35.98737576572572" lon="-107.08125180747147"><ele>2157.0</ele><time>2026-05-03T16:43:32.001Z</time></trkpt><trkpt lat="35.98733464966453" lon="-107.08136294658698"><ele>2157.0</ele><time>2026-05-03T16:43:34.001Z</time></trkpt><trkpt lat="35.9872825597896" lon="-107.08147628258577"><ele>2157.0</ele><time>2026-05-03T16:43:35.001Z</time></trkpt><trkpt lat="35.987247425300964" lon="-107.0816144819616"><ele>2157.0</ele><time>2026-05-03T16:43:36.001Z</time></trkpt><trkpt lat="35.98723574877897" lon="-107.08173955015452"><ele>2156.8333333333335</ele><time>2026-05-03T16:43:37.001Z</time></trkpt><trkpt lat="35.98722673177902" lon="-107.08186676653293"><ele>2156.6666666666665</ele><time>2026-05-03T16:43:38.001Z</time></trkpt><trkpt lat="35.987216894023184" lon="-107.08198633999791"><ele>2156.5</ele><time>2026-05-03T16:43:39.001Z</time></trkpt><trkpt lat="35.98719346263729" lon="-107.08207933564668"><ele>2156.333333333333</ele><time>2026-05-03T16:43:40.001Z</time></trkpt><trkpt lat="35.98719799475926" lon="-107.08218579129465"><ele>2156.1666666666665</ele><time>2026-05-03T16:43:41.001Z</time></trkpt><trkpt lat="35.98722104247578" lon="-107.08227128278943"><ele>2156.0</ele><time>2026-05-03T16:43:42.001Z</time></trkpt><trkpt lat="35.98727863429252" lon="-107.08239384893517"><ele>2155.2</ele><time>2026-05-03T16:43:44.001Z</time></trkpt><trkpt lat="35.98739078060007" lon="-107.08247493872362"><ele>2154.3999999999996</ele><time>2026-05-03T16:43:46.002Z</time></trkpt><trkpt lat="35.98744724388628" lon="-107.08259038131493"><ele>2153.6</ele><time>2026-05-03T16:43:48.002Z</time></trkpt><trkpt lat="35.98747382674216" lon="-107.08268172666948"><ele>2152.7999999999997</ele><time>2026-05-03T16:43:49.002Z</time></trkpt><trkpt lat="35.9875029392777" lon="-107.08275991202804"><ele>2152.0</ele><time>2026-05-03T16:43:50.002Z</time></trkpt><trkpt lat="35.987540369803135" lon="-107.08282895420308"><ele>2151.3333333333335</ele><time>2026-05-03T16:43:51.002Z</time></trkpt><trkpt lat="35.98755339566807" lon="-107.08291607664391"><ele>2150.666666666667</ele><time>2026-05-03T16:43:52.002Z</time></trkpt><trkpt lat="35.98754827718472" lon="-107.08299645907816"><ele>2150.0</ele><time>2026-05-03T16:43:53.002Z</time></trkpt><trkpt lat="35.98760808170451" lon="-107.08304114441381"><ele>2149.3333333333335</ele><time>2026-05-03T16:43:55Z</time></trkpt><trkpt lat="35.98770218989008" lon="-107.08304696215285"><ele>2148.6666666666665</ele><time>2026-05-03T16:43:56Z</time></trkpt><trkpt lat="35.98778285099742" lon="-107.08306036967362"><ele>2148.0</ele><time>2026-05-03T16:43:58Z</time></trkpt><trkpt lat="35.987813308154045" lon="-107.08321534453786"><ele>2146.75</ele><time>2026-05-03T16:44:00Z</time></trkpt><trkpt lat="35.98787597790132" lon="-107.0833048167352"><ele>2145.5</ele><time>2026-05-03T16:44:02Z</time></trkpt><trkpt lat="35.98800458783305" lon="-107.08342061919505"><ele>2144.25</ele><time>2026-05-03T16:44:06Z</time></trkpt><trkpt lat="35.98811372090342" lon="-107.08333984245692"><ele>2143.0</ele><time>2026-05-03T16:44:08Z</time></trkpt><trkpt lat="35.98820002764532" lon="-107.08334611708928"><ele>2143.0</ele><time>2026-05-03T16:44:10Z</time></trkpt><trkpt lat="35.9883104224086" lon="-107.08336153356721"><ele>2143.0</ele><time>2026-05-03T16:44:12Z</time></trkpt><trkpt lat="35.9884211398487" lon="-107.08342877694902"><ele>2143.0</ele><time>2026-05-03T16:44:14Z</time></trkpt><trkpt lat="35.988463062169316" lon="-107.08349490612954"><ele>2143.0</ele><time>2026-05-03T16:44:15Z</time></trkpt><trkpt lat="35.98849222859476" lon="-107.08356544099314"><ele>2143.0</ele><time>2026-05-03T16:44:16Z</time></trkpt><trkpt lat="35.988518830727415" lon="-107.08368536123707"><ele>2143.2000000000003</ele><time>2026-05-03T16:44:18Z</time></trkpt><trkpt lat="35.9885917547525" lon="-107.08375954152082"><ele>2143.4</ele><time>2026-05-03T16:44:20Z</time></trkpt><trkpt lat="35.98867791419993" lon="-107.0838082857871"><ele>2143.6000000000004</ele><time>2026-05-03T16:44:22.001Z</time></trkpt><trkpt lat="35.98880278980373" lon="-107.08381100994214"><ele>2143.8</ele><time>2026-05-03T16:44:24.001Z</time></trkpt><trkpt lat="35.988868594592525" lon="-107.08387683050798"><ele>2144.0</ele><time>2026-05-03T16:44:25.001Z</time></trkpt><trkpt lat="35.98897006503962" lon="-107.08389389267953"><ele>2144.0</ele><time>2026-05-03T16:44:27.001Z</time></trkpt><trkpt lat="35.989018431932784" lon="-107.08405332917869"><ele>2144.0</ele><time>2026-05-03T16:44:29.001Z</time></trkpt><trkpt lat="35.98902093400503" lon="-107.08413958539232"><ele>2144.0</ele><time>2026-05-03T16:44:30.001Z</time></trkpt><trkpt lat="35.98906333999135" lon="-107.08425585827173"><ele>2144.0</ele><time>2026-05-03T16:44:32.001Z</time></trkpt><trkpt lat="35.98913166361375" lon="-107.08430247156238"><ele>2144.0</ele><time>2026-05-03T16:44:33.001Z</time></trkpt><trkpt lat="35.98918563447528" lon="-107.08443215205914"><ele>2144.2</ele><time>2026-05-03T16:44:35.001Z</time></trkpt><trkpt lat="35.98919882468619" lon="-107.0845414696508"><ele>2144.4</ele><time>2026-05-03T16:44:36.001Z</time></trkpt><trkpt lat="35.98926611173638" lon="-107.08462161678993"><ele>2144.6</ele><time>2026-05-03T16:44:37.001Z</time></trkpt><trkpt lat="35.98931357371121" lon="-107.0846889607212"><ele>2144.8</ele><time>2026-05-03T16:44:38.001Z</time></trkpt><trkpt lat="35.98937917839607" lon="-107.08478313102248"><ele>2145.0</ele><time>2026-05-03T16:44:40.001Z</time></trkpt><trkpt lat="35.98932372913875" lon="-107.08490664085511"><ele>2145.0</ele><time>2026-05-03T16:44:42.001Z</time></trkpt><trkpt lat="35.98927038889254" lon="-107.08497638951131"><ele>2145.0</ele><time>2026-05-03T16:44:43.001Z</time></trkpt><trkpt lat="35.98920781204723" lon="-107.08512263774084"><ele>2145.0</ele><time>2026-05-03T16:44:45.001Z</time></trkpt><trkpt lat="35.98912298422574" lon="-107.08524175683515"><ele>2145.0</ele><time>2026-05-03T16:44:47.001Z</time></trkpt><trkpt lat="35.9890588459808" lon="-107.08534888439553"><ele>2145.0</ele><time>2026-05-03T16:44:49.001Z</time></trkpt><trkpt lat="35.9890489104484" lon="-107.0854384327079"><ele>2145.0</ele><time>2026-05-03T16:44:50.001Z</time></trkpt><trkpt lat="35.98896432373879" lon="-107.08556677741919"><ele>2145.0</ele><time>2026-05-03T16:44:52.001Z</time></trkpt><trkpt lat="35.98888061854068" lon="-107.0856428236449"><ele>2145.0</ele><time>2026-05-03T16:44:53.001Z</time></trkpt><trkpt lat="35.98879355789777" lon="-107.08572446857248"><ele>2145.0</ele><time>2026-05-03T16:44:54.001Z</time></trkpt><trkpt lat="35.988730856734115" lon="-107.08578566258907"><ele>2145.0</ele><time>2026-05-03T16:44:55.001Z</time></trkpt><trkpt lat="35.98862648628647" lon="-107.08588492228033"><ele>2145.4</ele><time>2026-05-03T16:44:57.001Z</time></trkpt><trkpt lat="35.988555883637616" lon="-107.08595370743757"><ele>2145.8</ele><time>2026-05-03T16:44:58.001Z</time></trkpt><trkpt lat="35.988515236759355" lon="-107.08602323562285"><ele>2146.2</ele><time>2026-05-03T16:44:59.001Z</time></trkpt><trkpt lat="35.988516764337476" lon="-107.08618128186262"><ele>2146.6</ele><time>2026-05-03T16:45:01.001Z</time></trkpt><trkpt lat="35.988484014934635" lon="-107.08625830193941"><ele>2147.0</ele><time>2026-05-03T16:45:02.001Z</time></trkpt><trkpt lat="35.98841076686955" lon="-107.08633379644908"><ele>2147.0</ele><time>2026-05-03T16:45:03.001Z</time></trkpt><trkpt lat="35.98835705391733" lon="-107.0864163793449"><ele>2147.0</ele><time>2026-05-03T16:45:04.001Z</time></trkpt><trkpt lat="35.988331103029616" lon="-107.08649048027223"><ele>2147.0</ele><time>2026-05-03T16:45:05.001Z</time></trkpt><trkpt lat="35.98825585326624" lon="-107.08655176210573"><ele>2147.0</ele><time>2026-05-03T16:45:07.001Z</time></trkpt><trkpt lat="35.98821595526685" lon="-107.08662024131861"><ele>2147.0</ele><time>2026-05-03T16:45:09.001Z</time></trkpt><trkpt lat="35.988242281088745" lon="-107.08671564653586"><ele>2147.0</ele><time>2026-05-03T16:45:10.001Z</time></trkpt><trkpt lat="35.98833411955384" lon="-107.086771975861"><ele>2146.5</ele><time>2026-05-03T16:45:12.001Z</time></trkpt><trkpt lat="35.98835285742707" lon="-107.08687820908412"><ele>2146.0</ele><time>2026-05-03T16:45:14.001Z</time></trkpt><trkpt lat="35.9882786436999" lon="-107.08704629592155"><ele>2145.5</ele><time>2026-05-03T16:45:16.001Z</time></trkpt><trkpt lat="35.98829046618265" lon="-107.0871774827741"><ele>2145.0</ele><time>2026-05-03T16:45:17.001Z</time></trkpt><trkpt lat="35.98824276234679" lon="-107.08729573772682"><ele>2146.0</ele><time>2026-05-03T16:45:19.001Z</time></trkpt><trkpt lat="35.98823753325192" lon="-107.08738376671347"><ele>2147.0</ele><time>2026-05-03T16:45:21.001Z</time></trkpt><trkpt lat="35.98824931789791" lon="-107.08747923798204"><ele>2148.0</ele><time>2026-05-03T16:45:23.001Z</time></trkpt><trkpt lat="35.98817702291022" lon="-107.0876462954547"><ele>2149.0</ele><time>2026-05-03T16:45:25.001Z</time></trkpt><trkpt lat="35.988137057794184" lon="-107.08775146091394"><ele>2150.0</ele><time>2026-05-03T16:45:26.001Z</time></trkpt><trkpt lat="35.98813406740921" lon="-107.08783253609492"><ele>2150.0</ele><time>2026-05-03T16:45:27.001Z</time></trkpt><trkpt lat="35.98817911848466" lon="-107.0879671730864"><ele>2150.0</ele><time>2026-05-03T16:45:29.001Z</time></trkpt><trkpt lat="35.9881590532547" lon="-107.08811301581727"><ele>2150.0</ele><time>2026-05-03T16:45:31.001Z</time></trkpt><trkpt lat="35.988169205421734" lon="-107.0881962602644"><ele>2150.0</ele><time>2026-05-03T16:45:32.001Z</time></trkpt><trkpt lat="35.98818400413281" lon="-107.08827367097751"><ele>2150.0</ele><time>2026-05-03T16:45:33.001Z</time></trkpt><trkpt lat="35.98817184284968" lon="-107.08840821621256"><ele>2149.8</ele><time>2026-05-03T16:45:35.001Z</time></trkpt><trkpt lat="35.988162274290374" lon="-107.08849018353085"><ele>2149.6</ele><time>2026-05-03T16:45:36.001Z</time></trkpt><trkpt lat="35.98815583691901" lon="-107.08862560611855"><ele>2149.4</ele><time>2026-05-03T16:45:37.001Z</time></trkpt><trkpt lat="35.98812672177243" lon="-107.08874836512499"><ele>2149.2</ele><time>2026-05-03T16:45:39.001Z</time></trkpt><trkpt lat="35.98807518038377" lon="-107.08883020851103"><ele>2149.0</ele><time>2026-05-03T16:45:40.001Z</time></trkpt><trkpt lat="35.9880304303" lon="-107.08893783178078"><ele>2149.0</ele><time>2026-05-03T16:45:41.001Z</time></trkpt><trkpt lat="35.98794801799541" lon="-107.08904813750688"><ele>2149.0</ele><time>2026-05-03T16:45:43.001Z</time></trkpt><trkpt lat="35.9878749093855" lon="-107.08908665392838"><ele>2149.0</ele><time>2026-05-03T16:45:44.001Z</time></trkpt><trkpt lat="35.98788269565756" lon="-107.08920466553108"><ele>2149.0</ele><time>2026-05-03T16:45:46.001Z</time></trkpt><trkpt lat="35.98791044443683" lon="-107.08932381852179"><ele>2149.0</ele><time>2026-05-03T16:45:47.001Z</time></trkpt><trkpt lat="35.98791394392394" lon="-107.0894603667301"><ele>2148.5</ele><time>2026-05-03T16:45:48.001Z</time></trkpt><trkpt lat="35.98792210044309" lon="-107.08954385314645"><ele>2148.0</ele><time>2026-05-03T16:45:49.001Z</time></trkpt><trkpt lat="35.98802030154898" lon="-107.08955919439944"><ele>2147.5</ele><time>2026-05-03T16:45:52.001Z</time></trkpt><trkpt lat="35.98807708862279" lon="-107.08952239640507"><ele>2147.0</ele><time>2026-05-03T16:45:53.001Z</time></trkpt><trkpt lat="35.98808378596679" lon="-107.08970121106185"><ele>2146.5</ele><time>2026-05-03T16:45:54.001Z</time></trkpt><trkpt lat="35.988150507383644" lon="-107.08966892183726"><ele>2146.0</ele><time>2026-05-03T16:45:55.001Z</time></trkpt><trkpt lat="35.98822113819741" lon="-107.08965276167861"><ele>2143.0</ele><time>2026-05-03T16:45:56.001Z</time></trkpt><trkpt lat="35.98838827228739" lon="-107.08950774827"><ele>2140.0</ele><time>2026-05-03T16:45:57.001Z</time></trkpt><trkpt lat="35.988543024754044" lon="-107.08944338697617"><ele>2137.0</ele><time>2026-05-03T16:45:58.001Z</time></trkpt><trkpt lat="35.98870272992435" lon="-107.08935332127129"><ele>2137.0</ele><time>2026-05-03T16:45:59.002Z</time></trkpt><trkpt lat="35.98886647400503" lon="-107.08926471199834"><ele>2137.0</ele><time>2026-05-03T16:46:00.002Z</time></trkpt><trkpt lat="35.98903185910011" lon="-107.08916264766567"><ele>2137.0</ele><time>2026-05-03T16:46:01Z</time></trkpt><trkpt lat="35.989205526484604" lon="-107.08904614761705"><ele>2137.0</ele><time>2026-05-03T16:46:02Z</time></trkpt><trkpt lat="35.98937145995668" lon="-107.0889407713115"><ele>2137.0</ele><time>2026-05-03T16:46:03Z</time></trkpt><trkpt lat="35.98955855321592" lon="-107.08881057920075"><ele>2137.0</ele><time>2026-05-03T16:46:04Z</time></trkpt><trkpt lat="35.98974265140147" lon="-107.08869122973623"><ele>2137.0</ele><time>2026-05-03T16:46:05Z</time></trkpt><trkpt lat="35.98994200224565" lon="-107.08855849469725"><ele>2137.0</ele><time>2026-05-03T16:46:06Z</time></trkpt><trkpt lat="35.99017229940929" lon="-107.08839163808344"><ele>2139.0</ele><time>2026-05-03T16:46:07Z</time></trkpt><trkpt lat="35.9903970345587" lon="-107.08822571947964"><ele>2141.0</ele><time>2026-05-03T16:46:08Z</time></trkpt><trkpt lat="35.990606310471115" lon="-107.08809264211594"><ele>2141.0</ele><time>2026-05-03T16:46:09Z</time></trkpt><trkpt lat="35.99078567281602" lon="-107.08798443684688"><ele>2141.0</ele><time>2026-05-03T16:46:10Z</time></trkpt><trkpt lat="35.99095502093746" lon="-107.08787848550112"><ele>2141.0</ele><time>2026-05-03T16:46:11Z</time></trkpt><trkpt lat="35.991073858993396" lon="-107.08779686805354"><ele>2141.25</ele><time>2026-05-03T16:46:12Z</time></trkpt><trkpt lat="35.9911717915404" lon="-107.0877345387626"><ele>2141.5</ele><time>2026-05-03T16:46:13Z</time></trkpt><trkpt lat="35.991253302911495" lon="-107.08772355755244"><ele>2141.75</ele><time>2026-05-03T16:46:14Z</time></trkpt><trkpt lat="35.99124333663406" lon="-107.08794737890167"><ele>2142.0</ele><time>2026-05-03T16:46:15Z</time></trkpt><trkpt lat="35.99138964522623" lon="-107.08802792065816"><ele>2142.0</ele><time>2026-05-03T16:46:16Z</time></trkpt><trkpt lat="35.99149097037824" lon="-107.08811834564136"><ele>2142.0</ele><time>2026-05-03T16:46:17Z</time></trkpt><trkpt lat="35.99156349195649" lon="-107.08821322333861"><ele>2142.0</ele><time>2026-05-03T16:46:18Z</time></trkpt><trkpt lat="35.99159439805949" lon="-107.08828498545256"><ele>2142.0</ele><time>2026-05-03T16:46:19Z</time></trkpt><trkpt lat="35.99158842074456" lon="-107.08837741717201"><ele>2142.0</ele><time>2026-05-03T16:46:20Z</time></trkpt><trkpt lat="35.99155441259722" lon="-107.08851518482064"><ele>2141.5</ele><time>2026-05-03T16:46:21Z</time></trkpt><trkpt lat="35.991512381961186" lon="-107.08866486559234"><ele>2141.0</ele><time>2026-05-03T16:46:22Z</time></trkpt><trkpt lat="35.991477591285616" lon="-107.0888305579862"><ele>2140.5</ele><time>2026-05-03T16:46:23Z</time></trkpt><trkpt lat="35.991448227827604" lon="-107.08901847110668"><ele>2140.0</ele><time>2026-05-03T16:46:24Z</time></trkpt><trkpt lat="35.99142185353445" lon="-107.08919862253543"><ele>2141.0</ele><time>2026-05-03T16:46:25Z</time></trkpt><trkpt lat="35.991415413965356" lon="-107.08936233884013"><ele>2142.0</ele><time>2026-05-03T16:46:26Z</time></trkpt><trkpt lat="35.99138895762398" lon="-107.08950495936966"><ele>2143.0</ele><time>2026-05-03T16:46:27Z</time></trkpt><trkpt lat="35.99138918338265" lon="-107.08964964222189"><ele>2144.0</ele><time>2026-05-03T16:46:28Z</time></trkpt><trkpt lat="35.99139462266142" lon="-107.08982542715594"><ele>2145.25</ele><time>2026-05-03T16:46:29Z</time></trkpt><trkpt lat="35.991369732931624" lon="-107.09001410347939"><ele>2146.5</ele><time>2026-05-03T16:46:30Z</time></trkpt><trkpt lat="35.991344079353006" lon="-107.0901766671953"><ele>2147.75</ele><time>2026-05-03T16:46:31Z</time></trkpt><trkpt lat="35.99134429291719" lon="-107.09032370205145"><ele>2149.0</ele><time>2026-05-03T16:46:32.001Z</time></trkpt><trkpt lat="35.991358662578165" lon="-107.09049223508298"><ele>2149.0</ele><time>2026-05-03T16:46:33.001Z</time></trkpt><trkpt lat="35.99137401337379" lon="-107.0906387498515"><ele>2149.0</ele><time>2026-05-03T16:46:34.001Z</time></trkpt><trkpt lat="35.99137733225904" lon="-107.09076092373692"><ele>2149.0</ele><time>2026-05-03T16:46:35.001Z</time></trkpt><trkpt lat="35.991369571185004" lon="-107.09086141570657"><ele>2149.0</ele><time>2026-05-03T16:46:36.001Z</time></trkpt><trkpt lat="35.991366548597355" lon="-107.09095067965852"><ele>2149.0</ele><time>2026-05-03T16:46:37.001Z</time></trkpt><trkpt lat="35.99139533726722" lon="-107.09103283466824"><ele>2149.0</ele><time>2026-05-03T16:46:38.001Z</time></trkpt><trkpt lat="35.99145723905875" lon="-107.09112139320808"><ele>2148.4</ele><time>2026-05-03T16:46:39.001Z</time></trkpt><trkpt lat="35.99154401202065" lon="-107.09123156690768"><ele>2147.8</ele><time>2026-05-03T16:46:40.001Z</time></trkpt><trkpt lat="35.99160609382876" lon="-107.09132050385303"><ele>2147.2</ele><time>2026-05-03T16:46:41.001Z</time></trkpt><trkpt lat="35.99162667166135" lon="-107.09139538733022"><ele>2146.6</ele><time>2026-05-03T16:46:43.001Z</time></trkpt><trkpt lat="35.99150928677886" lon="-107.09146978559254"><ele>2146.0</ele><time>2026-05-03T16:46:47.001Z</time></trkpt><trkpt lat="35.99142909040338" lon="-107.09150251233247"><ele>2146.2</ele><time>2026-05-03T16:46:48.001Z</time></trkpt><trkpt lat="35.99140522077294" lon="-107.09159070328965"><ele>2146.3999999999996</ele><time>2026-05-03T16:46:50.001Z</time></trkpt><trkpt lat="35.991440589373696" lon="-107.09173410525312"><ele>2146.6</ele><time>2026-05-03T16:46:52.001Z</time></trkpt><trkpt lat="35.99147401776739" lon="-107.09183413450864"><ele>2146.7999999999997</ele><time>2026-05-03T16:46:53.001Z</time></trkpt><trkpt lat="35.99152582096152" lon="-107.09195503662588"><ele>2147.0</ele><time>2026-05-03T16:46:54.001Z</time></trkpt><trkpt lat="35.99163165296255" lon="-107.09211785893466"><ele>2147.75</ele><time>2026-05-03T16:46:55.001Z</time></trkpt><trkpt lat="35.99172386395462" lon="-107.09223537117309"><ele>2148.5</ele><time>2026-05-03T16:46:56.001Z</time></trkpt><trkpt lat="35.99183962779363" lon="-107.09233489488214"><ele>2149.25</ele><time>2026-05-03T16:46:57.001Z</time></trkpt><trkpt lat="35.99194127481566" lon="-107.09243791671857"><ele>2150.0</ele><time>2026-05-03T16:46:58.001Z</time></trkpt><trkpt lat="35.99201657555925" lon="-107.09257863619077"><ele>2150.0</ele><time>2026-05-03T16:46:59.001Z</time></trkpt><trkpt lat="35.99211189637588" lon="-107.09269942262017"><ele>2150.0</ele><time>2026-05-03T16:47:00.001Z</time></trkpt><trkpt lat="35.99218930765104" lon="-107.09278947687572"><ele>2150.0</ele><time>2026-05-03T16:47:01.001Z</time></trkpt><trkpt lat="35.99227070378152" lon="-107.09279804981655"><ele>2150.0</ele><time>2026-05-03T16:47:02.001Z</time></trkpt><trkpt lat="35.992380830487164" lon="-107.09283660152356"><ele>2150.0</ele><time>2026-05-03T16:47:03.001Z</time></trkpt><trkpt lat="35.99248702816862" lon="-107.09291197334625"><ele>2150.6</ele><time>2026-05-03T16:47:04.001Z</time></trkpt><trkpt lat="35.99256776351012" lon="-107.092999612237"><ele>2151.2</ele><time>2026-05-03T16:47:05.001Z</time></trkpt><trkpt lat="35.992653861431705" lon="-107.09305636731017"><ele>2151.8</ele><time>2026-05-03T16:47:06.001Z</time></trkpt><trkpt lat="35.99272808021148" lon="-107.09306569385436"><ele>2152.4</ele><time>2026-05-03T16:47:07.001Z</time></trkpt><trkpt lat="35.99283602441343" lon="-107.09308068715336"><ele>2153.0</ele><time>2026-05-03T16:47:08.001Z</time></trkpt><trkpt lat="35.99294267643313" lon="-107.09309259505497"><ele>2153.0</ele><time>2026-05-03T16:47:09.001Z</time></trkpt><trkpt lat="35.99303407566348" lon="-107.09307781227314"><ele>2153.0</ele><time>2026-05-03T16:47:10.001Z</time></trkpt><trkpt lat="35.99314105892154" lon="-107.09303906709019"><ele>2153.0</ele><time>2026-05-03T16:47:11.001Z</time></trkpt><trkpt lat="35.993247125021945" lon="-107.09302009516523"><ele>2153.0</ele><time>2026-05-03T16:47:12.001Z</time></trkpt><trkpt lat="35.99334678624297" lon="-107.09295471277333"><ele>2153.0</ele><time>2026-05-03T16:47:13.001Z</time></trkpt><trkpt lat="35.9934072232306" lon="-107.09289537836644"><ele>2154.0</ele><time>2026-05-03T16:47:14.001Z</time></trkpt><trkpt lat="35.99350127076908" lon="-107.09283599860174"><ele>2155.0</ele><time>2026-05-03T16:47:15.001Z</time></trkpt><trkpt lat="35.99361073770182" lon="-107.09276239057361"><ele>2156.0</ele><time>2026-05-03T16:47:16.001Z</time></trkpt><trkpt lat="35.99371488977804" lon="-107.09269803515929"><ele>2157.0</ele><time>2026-05-03T16:47:17.001Z</time></trkpt><trkpt lat="35.99378027231698" lon="-107.09266288078786"><ele>2158.0</ele><time>2026-05-03T16:47:18.001Z</time></trkpt><trkpt lat="35.99383289962298" lon="-107.09276290802886"><ele>2158.0</ele><time>2026-05-03T16:47:21.001Z</time></trkpt><trkpt lat="35.99383462606383" lon="-107.09285860291408"><ele>2158.0</ele><time>2026-05-03T16:47:22.001Z</time></trkpt><trkpt lat="35.993842674668116" lon="-107.0929912106448"><ele>2158.0</ele><time>2026-05-03T16:47:23.001Z</time></trkpt><trkpt lat="35.99386519000578" lon="-107.09310565763558"><ele>2158.0</ele><time>2026-05-03T16:47:24.001Z</time></trkpt><trkpt lat="35.99391768308328" lon="-107.09317160629512"><ele>2158.0</ele><time>2026-05-03T16:47:26.001Z</time></trkpt><trkpt lat="35.99403103043533" lon="-107.09314039300858"><ele>2158.0</ele><time>2026-05-03T16:47:28.001Z</time></trkpt><trkpt lat="35.994140549136354" lon="-107.09310529531085"><ele>2158.0</ele><time>2026-05-03T16:47:29.001Z</time></trkpt><trkpt lat="35.99425340702788" lon="-107.09306334356091"><ele>2158.0</ele><time>2026-05-03T16:47:30.001Z</time></trkpt><trkpt lat="35.994355419875745" lon="-107.09300547994124"><ele>2158.0</ele><time>2026-05-03T16:47:31.001Z</time></trkpt><trkpt lat="35.99445791231253" lon="-107.09293283791241"><ele>2157.6</ele><time>2026-05-03T16:47:32.001Z</time></trkpt><trkpt lat="35.99456091137601" lon="-107.09288492317825"><ele>2157.2000000000003</ele><time>2026-05-03T16:47:33.001Z</time></trkpt><trkpt lat="35.994664742982174" lon="-107.09286894746025"><ele>2156.8</ele><time>2026-05-03T16:47:34.001Z</time></trkpt><trkpt lat="35.99475110861933" lon="-107.09285726002946"><ele>2156.4</ele><time>2026-05-03T16:47:35.001Z</time></trkpt><trkpt lat="35.99482084498232" lon="-107.09281513531563"><ele>2156.0</ele><time>2026-05-03T16:47:36.001Z</time></trkpt><trkpt lat="35.99487007774178" lon="-107.09274941880929"><ele>2156.0</ele><time>2026-05-03T16:47:37.001Z</time></trkpt><trkpt lat="35.99490379730703" lon="-107.09267033455662"><ele>2156.0</ele><time>2026-05-03T16:47:38.001Z</time></trkpt><trkpt lat="35.994926500888084" lon="-107.09258535073866"><ele>2156.0</ele><time>2026-05-03T16:47:39.001Z</time></trkpt><trkpt lat="35.99495750696963" lon="-107.09249163154179"><ele>2156.0</ele><time>2026-05-03T16:47:40.001Z</time></trkpt><trkpt lat="35.995007577121264" lon="-107.09241439278543"><ele>2156.0</ele><time>2026-05-03T16:47:41.001Z</time></trkpt><trkpt lat="35.995089307962566" lon="-107.09236871811557"><ele>2156.0</ele><time>2026-05-03T16:47:42.001Z</time></trkpt><trkpt lat="35.99517855465468" lon="-107.09233027239007"><ele>2156.0</ele><time>2026-05-03T16:47:43.001Z</time></trkpt><trkpt lat="35.9952173656054" lon="-107.09225248211331"><ele>2156.0</ele><time>2026-05-03T16:47:45.001Z</time></trkpt><trkpt lat="35.9951927432008" lon="-107.09217952604601"><ele>2156.0</ele><time>2026-05-03T16:47:46.001Z</time></trkpt><trkpt lat="35.99516774509688" lon="-107.0920638388654"><ele>2156.0</ele><time>2026-05-03T16:47:47.001Z</time></trkpt><trkpt lat="35.99516946713072" lon="-107.09192687384162"><ele>2156.0</ele><time>2026-05-03T16:47:48.001Z</time></trkpt><trkpt lat="35.995205142327706" lon="-107.0917766872462"><ele>2156.0</ele><time>2026-05-03T16:47:49.001Z</time></trkpt><trkpt lat="35.995249277589096" lon="-107.09165174631792"><ele>2156.0</ele><time>2026-05-03T16:47:50.001Z</time></trkpt><trkpt lat="35.99527507586404" lon="-107.09157245051126"><ele>2156.0</ele><time>2026-05-03T16:47:51.001Z</time></trkpt><trkpt lat="35.9952942263266" lon="-107.0914887265852"><ele>2156.0</ele><time>2026-05-03T16:47:53.001Z</time></trkpt><trkpt lat="35.99523384994106" lon="-107.09132048328273"><ele>2156.0</ele><time>2026-05-03T16:47:55.001Z</time></trkpt><trkpt lat="35.995156486880276" lon="-107.09121074114795"><ele>2156.8</ele><time>2026-05-03T16:47:56.001Z</time></trkpt><trkpt lat="35.99511193772316" lon="-107.09110915196014"><ele>2157.6</ele><time>2026-05-03T16:47:57.001Z</time></trkpt><trkpt lat="35.99502641976648" lon="-107.09110359184467"><ele>2158.4</ele><time>2026-05-03T16:47:59.001Z</time></trkpt><trkpt lat="35.995026400177835" lon="-107.09096442729992"><ele>2159.2</ele><time>2026-05-03T16:48:02.001Z</time></trkpt><trkpt lat="35.995079517773746" lon="-107.09087572500577"><ele>2160.0</ele><time>2026-05-03T16:48:05.001Z</time></trkpt><trkpt lat="35.9949717896557" lon="-107.09078047138486"><ele>2161.0</ele><time>2026-05-03T16:48:07Z</time></trkpt><trkpt lat="35.99494764084958" lon="-107.09070796376226"><ele>2162.0</ele><time>2026-05-03T16:48:08Z</time></trkpt><trkpt lat="35.9949211722435" lon="-107.09060432930815"><ele>2163.0</ele><time>2026-05-03T16:48:09Z</time></trkpt><trkpt lat="35.99488582038653" lon="-107.09047104578045"><ele>2164.0</ele><time>2026-05-03T16:48:10Z</time></trkpt><trkpt lat="35.99485994339058" lon="-107.09036118767331"><ele>2165.0</ele><time>2026-05-03T16:48:11Z</time></trkpt><trkpt lat="35.99483700341894" lon="-107.09027385823737"><ele>2166.0</ele><time>2026-05-03T16:48:12Z</time></trkpt><trkpt lat="35.99483143155392" lon="-107.09016560302184"><ele>2166.0</ele><time>2026-05-03T16:48:13Z</time></trkpt><trkpt lat="35.994816357866476" lon="-107.09004829363184"><ele>2166.0</ele><time>2026-05-03T16:48:14Z</time></trkpt><trkpt lat="35.99480643279529" lon="-107.08992992663643"><ele>2166.0</ele><time>2026-05-03T16:48:15Z</time></trkpt><trkpt lat="35.994796581239484" lon="-107.08983462531002"><ele>2166.0</ele><time>2026-05-03T16:48:16Z</time></trkpt><trkpt lat="35.994767691198014" lon="-107.08975559433713"><ele>2166.0</ele><time>2026-05-03T16:48:17Z</time></trkpt><trkpt lat="35.99474747196435" lon="-107.08967932312031"><ele>2166.0</ele><time>2026-05-03T16:48:18Z</time></trkpt><trkpt lat="35.99469764481124" lon="-107.0895833862211"><ele>2166.5</ele><time>2026-05-03T16:48:20Z</time></trkpt><trkpt lat="35.994581303831026" lon="-107.08954814630424"><ele>2167.0</ele><time>2026-05-03T16:48:22Z</time></trkpt><trkpt lat="35.99451002264957" lon="-107.08950068659556"><ele>2167.5</ele><time>2026-05-03T16:48:23Z</time></trkpt><trkpt lat="35.99445028100839" lon="-107.0894557289272"><ele>2168.0</ele><time>2026-05-03T16:48:24Z</time></trkpt><trkpt lat="35.99421797737327" lon="-107.08965260879508"><ele>2168.714285714286</ele><time>2026-05-03T16:48:25Z</time></trkpt><trkpt lat="35.994153290125695" lon="-107.08967842581225"><ele>2169.4285714285716</ele><time>2026-05-03T16:48:26Z</time></trkpt><trkpt lat="35.99408733495031" lon="-107.08970264897899"><ele>2170.1428571428573</ele><time>2026-05-03T16:48:27Z</time></trkpt><trkpt lat="35.99406270643767" lon="-107.08961862208827"><ele>2170.857142857143</ele><time>2026-05-03T16:48:29Z</time></trkpt><trkpt lat="35.99408145477108" lon="-107.08949932857105"><ele>2171.571428571429</ele><time>2026-05-03T16:48:30Z</time></trkpt><trkpt lat="35.99409723319334" lon="-107.08941697472632"><ele>2172.285714285714</ele><time>2026-05-03T16:48:31Z</time></trkpt><trkpt lat="35.99412402533315" lon="-107.08933422059845"><ele>2173.0</ele><time>2026-05-03T16:48:32Z</time></trkpt><trkpt lat="35.99413090337919" lon="-107.08925084976725"><ele>2173.0</ele><time>2026-05-03T16:48:33Z</time></trkpt><trkpt lat="35.99403330147802" lon="-107.08923025620074"><ele>2173.0</ele><time>2026-05-03T16:48:36Z</time></trkpt><trkpt lat="35.994030118108995" lon="-107.0890674448295"><ele>2173.0</ele><time>2026-05-03T16:48:37Z</time></trkpt><trkpt lat="35.99399136193967" lon="-107.08897881630156"><ele>2173.0</ele><time>2026-05-03T16:48:39Z</time></trkpt><trkpt lat="35.993987431733316" lon="-107.08889830049249"><ele>2173.0</ele><time>2026-05-03T16:48:40.001Z</time></trkpt><trkpt lat="35.99398819432066" lon="-107.08881484452172"><ele>2173.0</ele><time>2026-05-03T16:48:41.001Z</time></trkpt><trkpt lat="35.99405160973115" lon="-107.08870787088952"><ele>2172.666666666667</ele><time>2026-05-03T16:48:43.001Z</time></trkpt><trkpt lat="35.994128837596655" lon="-107.08860458270738"><ele>2172.3333333333335</ele><time>2026-05-03T16:48:45.001Z</time></trkpt><trkpt lat="35.99419405086379" lon="-107.08856693974657"><ele>2172.0</ele><time>2026-05-03T16:48:46.001Z</time></trkpt><trkpt lat="35.9942733247819" lon="-107.08854151874304"><ele>2171.6666666666665</ele><time>2026-05-03T16:48:47.001Z</time></trkpt><trkpt lat="35.99435436661547" lon="-107.08850952949933"><ele>2171.333333333333</ele><time>2026-05-03T16:48:48.001Z</time></trkpt><trkpt lat="35.99441943022593" lon="-107.08845753280701"><ele>2171.0</ele><time>2026-05-03T16:48:49.001Z</time></trkpt><trkpt lat="35.994471568456426" lon="-107.08840150967532"><ele>2170.6666666666665</ele><time>2026-05-03T16:48:50.001Z</time></trkpt><trkpt lat="35.99456209203511" lon="-107.08834911146353"><ele>2170.333333333333</ele><time>2026-05-03T16:48:52.001Z</time></trkpt><trkpt lat="35.99463198595487" lon="-107.08834891700059"><ele>2170.0</ele><time>2026-05-03T16:48:53.001Z</time></trkpt><trkpt lat="35.99471592203753" lon="-107.08835686187189"><ele>2169.6666666666665</ele><time>2026-05-03T16:48:54.001Z</time></trkpt><trkpt lat="35.99480673427125" lon="-107.0883749083406"><ele>2169.3333333333335</ele><time>2026-05-03T16:48:55.001Z</time></trkpt><trkpt lat="35.99490684382701" lon="-107.0883918474825"><ele>2169.0</ele><time>2026-05-03T16:48:56.001Z</time></trkpt><trkpt lat="35.994989083856304" lon="-107.08840804540216"><ele>2168.6666666666665</ele><time>2026-05-03T16:48:57.001Z</time></trkpt><trkpt lat="35.99507322485457" lon="-107.08834481741707"><ele>2168.3333333333335</ele><time>2026-05-03T16:49:00.001Z</time></trkpt><trkpt lat="35.995151116906634" lon="-107.08830540357859"><ele>2168.0</ele><time>2026-05-03T16:49:01.001Z</time></trkpt><trkpt lat="35.995222916885965" lon="-107.08827709286398"><ele>2167.666666666667</ele><time>2026-05-03T16:49:02.001Z</time></trkpt><trkpt lat="35.99527431128178" lon="-107.08819599490313"><ele>2167.3333333333335</ele><time>2026-05-03T16:49:03.001Z</time></trkpt><trkpt lat="35.99531878851109" lon="-107.08811161057585"><ele>2167.0</ele><time>2026-05-03T16:49:04.001Z</time></trkpt><trkpt lat="35.99533437749876" lon="-107.08794760216924"><ele>2167.0</ele><time>2026-05-03T16:49:06.001Z</time></trkpt><trkpt lat="35.99532413406941" lon="-107.08781229401413"><ele>2167.0</ele><time>2026-05-03T16:49:07.001Z</time></trkpt><trkpt lat="35.99533526971257" lon="-107.08766709157949"><ele>2167.0</ele><time>2026-05-03T16:49:08.001Z</time></trkpt><trkpt lat="35.99534563292866" lon="-107.0875606453189"><ele>2167.0</ele><time>2026-05-03T16:49:09.001Z</time></trkpt><trkpt lat="35.995346489011276" lon="-107.0874771625356"><ele>2167.0</ele><time>2026-05-03T16:49:10.001Z</time></trkpt><trkpt lat="35.995347233410286" lon="-107.08738274181074"><ele>2167.0</ele><time>2026-05-03T16:49:11.001Z</time></trkpt><trkpt lat="35.99533305748964" lon="-107.08727295567324"><ele>2167.0</ele><time>2026-05-03T16:49:12.001Z</time></trkpt><trkpt lat="35.99533213893168" lon="-107.08718293263668"><ele>2167.0</ele><time>2026-05-03T16:49:13.001Z</time></trkpt><trkpt lat="35.995325484433536" lon="-107.08707577250036"><ele>2167.0</ele><time>2026-05-03T16:49:15.001Z</time></trkpt><trkpt lat="35.995293292484675" lon="-107.08697479369488"><ele>2167.0</ele><time>2026-05-03T16:49:17.001Z</time></trkpt><trkpt lat="35.99532019888289" lon="-107.08685189993085"><ele>2167.0</ele><time>2026-05-03T16:49:18.001Z</time></trkpt><trkpt lat="35.99537260009055" lon="-107.08671380071252"><ele>2167.0</ele><time>2026-05-03T16:49:19.001Z</time></trkpt><trkpt lat="35.99539486075396" lon="-107.08661248945268"><ele>2167.0</ele><time>2026-05-03T16:49:20.001Z</time></trkpt><trkpt lat="35.99536672867552" lon="-107.08649278840623"><ele>2167.0</ele><time>2026-05-03T16:49:22.001Z</time></trkpt><trkpt lat="35.99542363883635" lon="-107.08639085154938"><ele>2167.0</ele><time>2026-05-03T16:49:24.001Z</time></trkpt><trkpt lat="35.99548182264068" lon="-107.0863299780745"><ele>2167.0</ele><time>2026-05-03T16:49:25.001Z</time></trkpt><trkpt lat="35.99553507937273" lon="-107.08627927960572"><ele>2167.0</ele><time>2026-05-03T16:49:26.001Z</time></trkpt><trkpt lat="35.99555440388682" lon="-107.08617530062169"><ele>2167.2</ele><time>2026-05-03T16:49:28.001Z</time></trkpt><trkpt lat="35.99554024186611" lon="-107.0860096593433"><ele>2167.3999999999996</ele><time>2026-05-03T16:49:30.001Z</time></trkpt><trkpt lat="35.99560923740957" lon="-107.0859209437018"><ele>2167.6000000000004</ele><time>2026-05-03T16:49:31.001Z</time></trkpt><trkpt lat="35.995670545363076" lon="-107.08580425237655"><ele>2167.8</ele><time>2026-05-03T16:49:32.001Z</time></trkpt><trkpt lat="35.99569306024389" lon="-107.08568848095018"><ele>2168.0</ele><time>2026-05-03T16:49:33.001Z</time></trkpt><trkpt lat="35.995751646980146" lon="-107.08555509410672"><ele>2166.333333333333</ele><time>2026-05-03T16:49:35.001Z</time></trkpt><trkpt lat="35.99580614129149" lon="-107.08548893249652"><ele>2164.6666666666665</ele><time>2026-05-03T16:49:36.001Z</time></trkpt><trkpt lat="35.99585218185884" lon="-107.08539970437306"><ele>2163.0</ele><time>2026-05-03T16:49:38.001Z</time></trkpt><trkpt lat="35.995884891505625" lon="-107.08528183425808"><ele>2161.3333333333335</ele><time>2026-05-03T16:49:40.001Z</time></trkpt><trkpt lat="35.995936177154604" lon="-107.08523470424394"><ele>2159.666666666667</ele><time>2026-05-03T16:49:41.001Z</time></trkpt><trkpt lat="35.996044554789606" lon="-107.08520008083026"><ele>2158.0</ele><time>2026-05-03T16:49:43.001Z</time></trkpt><trkpt lat="35.99607989218372" lon="-107.08511675655271"><ele>2158.0</ele><time>2026-05-03T16:49:45.001Z</time></trkpt><trkpt lat="35.99611996244592" lon="-107.08504960420731"><ele>2158.0</ele><time>2026-05-03T16:49:47.001Z</time></trkpt><trkpt lat="35.99618631330309" lon="-107.08503117174295"><ele>2158.0</ele><time>2026-05-03T16:49:49.001Z</time></trkpt><trkpt lat="35.996265296059455" lon="-107.08503478074331"><ele>2158.0</ele><time>2026-05-03T16:49:50.001Z</time></trkpt><trkpt lat="35.99633689905592" lon="-107.08504487188924"><ele>2158.0</ele><time>2026-05-03T16:49:51.001Z</time></trkpt><trkpt lat="35.996369929937444" lon="-107.08496507921524"><ele>2158.0</ele><time>2026-05-03T16:49:53.001Z</time></trkpt><trkpt lat="35.99638488965951" lon="-107.08487715598648"><ele>2158.0</ele><time>2026-05-03T16:49:54.001Z</time></trkpt><trkpt lat="35.996406474769515" lon="-107.08478358568905"><ele>2158.0</ele><time>2026-05-03T16:49:56.001Z</time></trkpt><trkpt lat="35.99647323147655" lon="-107.08476438582989"><ele>2158.0</ele><time>2026-05-03T16:49:58.001Z</time></trkpt><trkpt lat="35.99655323650146" lon="-107.08477989345843"><ele>2158.0</ele><time>2026-05-03T16:50:01.001Z</time></trkpt><trkpt lat="35.99657849706596" lon="-107.08486689740869"><ele>2158.0</ele><time>2026-05-03T16:50:03.001Z</time></trkpt><trkpt lat="35.996586325649886" lon="-107.08503532710932"><ele>2158.0</ele><time>2026-05-03T16:50:05.001Z</time></trkpt><trkpt lat="35.99660569423509" lon="-107.08512239429488"><ele>2158.0</ele><time>2026-05-03T16:50:06.001Z</time></trkpt><trkpt lat="35.99662950826581" lon="-107.08520301915371"><ele>2158.0</ele><time>2026-05-03T16:50:07.001Z</time></trkpt><trkpt lat="35.996649565184896" lon="-107.08527883821044"><ele>2158.0</ele><time>2026-05-03T16:50:08.001Z</time></trkpt><trkpt lat="35.9966845251544" lon="-107.08534895317305"><ele>2158.0</ele><time>2026-05-03T16:50:09.001Z</time></trkpt><trkpt lat="35.9967545997769" lon="-107.0854190813024"><ele>2158.0</ele><time>2026-05-03T16:50:10.001Z</time></trkpt><trkpt lat="35.996850532718796" lon="-107.08551329722773"><ele>2158.0</ele><time>2026-05-03T16:50:11.001Z</time></trkpt><trkpt lat="35.996891703391434" lon="-107.08564039829392"><ele>2161.0</ele><time>2026-05-03T16:50:12.001Z</time></trkpt><trkpt lat="35.99690272361147" lon="-107.08579374535513"><ele>2164.0</ele><time>2026-05-03T16:50:13Z</time></trkpt><trkpt lat="35.99688248542814" lon="-107.08591282020677"><ele>2167.0</ele><time>2026-05-03T16:50:14Z</time></trkpt><trkpt lat="35.99683949529175" lon="-107.08605621629988"><ele>2170.0</ele><time>2026-05-03T16:50:15Z</time></trkpt><trkpt lat="35.9968237282082" lon="-107.08624720576033"><ele>2170.0</ele><time>2026-05-03T16:50:16Z</time></trkpt><trkpt lat="35.99682969341098" lon="-107.08639186538073"><ele>2170.0</ele><time>2026-05-03T16:50:17Z</time></trkpt><trkpt lat="35.99684417877394" lon="-107.0864828908327"><ele>2170.0</ele><time>2026-05-03T16:50:18Z</time></trkpt><trkpt lat="35.996903124433295" lon="-107.08655763275041"><ele>2170.0</ele><time>2026-05-03T16:50:21Z</time></trkpt><trkpt lat="35.99687326855267" lon="-107.08663771139578"><ele>2170.0</ele><time>2026-05-03T16:50:23Z</time></trkpt><trkpt lat="35.99683678621451" lon="-107.08670738431626"><ele>2170.0</ele><time>2026-05-03T16:50:24Z</time></trkpt><trkpt lat="35.996793281552634" lon="-107.08679362540423"><ele>2171.6</ele><time>2026-05-03T16:50:25Z</time></trkpt><trkpt lat="35.99682817166471" lon="-107.08687962167839"><ele>2173.2</ele><time>2026-05-03T16:50:27Z</time></trkpt><trkpt lat="35.99689678812078" lon="-107.08694063219373"><ele>2174.8</ele><time>2026-05-03T16:50:29Z</time></trkpt><trkpt lat="35.99695259728666" lon="-107.08702230784736"><ele>2176.4</ele><time>2026-05-03T16:50:30Z</time></trkpt><trkpt lat="35.996990888681616" lon="-107.08717757250629"><ele>2178.0</ele><time>2026-05-03T16:50:32Z</time></trkpt><trkpt lat="35.997042378830045" lon="-107.08724930120945"><ele>2178.0</ele><time>2026-05-03T16:50:33Z</time></trkpt><trkpt lat="35.99704742479541" lon="-107.08733090434434"><ele>2178.0</ele><time>2026-05-03T16:50:36Z</time></trkpt><trkpt lat="35.997124102251725" lon="-107.08752421339015"><ele>2178.0</ele><time>2026-05-03T16:50:38Z</time></trkpt><trkpt lat="35.9971546710145" lon="-107.0876298155726"><ele>2178.0</ele><time>2026-05-03T16:50:40Z</time></trkpt><trkpt lat="35.997158730358784" lon="-107.08770797051949"><ele>2178.0</ele><time>2026-05-03T16:50:41Z</time></trkpt><trkpt lat="35.99717712311969" lon="-107.08779008105283"><ele>2177.3333333333335</ele><time>2026-05-03T16:50:42Z</time></trkpt><trkpt lat="35.99720542678915" lon="-107.08788031434776"><ele>2176.6666666666665</ele><time>2026-05-03T16:50:43Z</time></trkpt><trkpt lat="35.99724084931634" lon="-107.08799353781048"><ele>2176.0</ele><time>2026-05-03T16:50:44Z</time></trkpt><trkpt lat="35.99727057972094" lon="-107.08809599229137"><ele>2175.333333333333</ele><time>2026-05-03T16:50:45Z</time></trkpt><trkpt lat="35.99730608353359" lon="-107.08820104090043"><ele>2174.6666666666665</ele><time>2026-05-03T16:50:46Z</time></trkpt><trkpt lat="35.997308361875895" lon="-107.0883010775145"><ele>2174.0</ele><time>2026-05-03T16:50:47Z</time></trkpt><trkpt lat="35.99728920894946" lon="-107.088417625629"><ele>2174.0</ele><time>2026-05-03T16:50:48Z</time></trkpt><trkpt lat="35.99724425485908" lon="-107.08852795080016"><ele>2174.0</ele><time>2026-05-03T16:50:49.001Z</time></trkpt><trkpt lat="35.997216062198575" lon="-107.08863859430737"><ele>2174.0</ele><time>2026-05-03T16:50:50.001Z</time></trkpt><trkpt lat="35.997185232072894" lon="-107.08878520494714"><ele>2174.0</ele><time>2026-05-03T16:50:51.001Z</time></trkpt><trkpt lat="35.99716915438643" lon="-107.08894716043038"><ele>2174.0</ele><time>2026-05-03T16:50:52.001Z</time></trkpt><trkpt lat="35.997179273689284" lon="-107.08910496093259"><ele>2172.6</ele><time>2026-05-03T16:50:53.001Z</time></trkpt><trkpt lat="35.997198066737724" lon="-107.08923943453026"><ele>2171.2</ele><time>2026-05-03T16:50:54.001Z</time></trkpt><trkpt lat="35.9972064044465" lon="-107.08935734017909"><ele>2169.7999999999997</ele><time>2026-05-03T16:50:55.001Z</time></trkpt><trkpt lat="35.99720614166657" lon="-107.08946976128233"><ele>2168.4</ele><time>2026-05-03T16:50:56.001Z</time></trkpt><trkpt lat="35.99719459069157" lon="-107.08958637449167"><ele>2167.0</ele><time>2026-05-03T16:50:57.001Z</time></trkpt><trkpt lat="35.99713859289936" lon="-107.08972934281378"><ele>2167.0</ele><time>2026-05-03T16:50:58.001Z</time></trkpt><trkpt lat="35.99711410148523" lon="-107.089870207826"><ele>2167.0</ele><time>2026-05-03T16:50:59.001Z</time></trkpt><trkpt lat="35.99713154687868" lon="-107.08998293071556"><ele>2167.0</ele><time>2026-05-03T16:51:00.001Z</time></trkpt><trkpt lat="35.99717270731816" lon="-107.09012645280828"><ele>2167.0</ele><time>2026-05-03T16:51:01.001Z</time></trkpt><trkpt lat="35.99723518985073" lon="-107.0902766941345"><ele>2166.6</ele><time>2026-05-03T16:51:02.001Z</time></trkpt><trkpt lat="35.99729357891722" lon="-107.09042933550886"><ele>2166.2</ele><time>2026-05-03T16:51:03.001Z</time></trkpt><trkpt lat="35.99733902239684" lon="-107.09055610874334"><ele>2165.8</ele><time>2026-05-03T16:51:04.001Z</time></trkpt><trkpt lat="35.9973613703083" lon="-107.09064701541598"><ele>2165.4</ele><time>2026-05-03T16:51:05.001Z</time></trkpt><trkpt lat="35.99738818365218" lon="-107.09072131074024"><ele>2165.0</ele><time>2026-05-03T16:51:06.001Z</time></trkpt><trkpt lat="35.9974266406974" lon="-107.09079051110487"><ele>2164.4</ele><time>2026-05-03T16:51:07.001Z</time></trkpt><trkpt lat="35.99748991812841" lon="-107.09085611860665"><ele>2163.8</ele><time>2026-05-03T16:51:08.001Z</time></trkpt><trkpt lat="35.997558621705906" lon="-107.09091709742495"><ele>2163.2</ele><time>2026-05-03T16:51:09.001Z</time></trkpt><trkpt lat="35.99762955383191" lon="-107.09095175147321"><ele>2162.6</ele><time>2026-05-03T16:51:10.001Z</time></trkpt><trkpt lat="35.99768989566907" lon="-107.09104542735976"><ele>2162.0</ele><time>2026-05-03T16:51:12.001Z</time></trkpt><trkpt lat="35.99762080902197" lon="-107.09118887289793"><ele>2162.0</ele><time>2026-05-03T16:51:14.001Z</time></trkpt><trkpt lat="35.997553826870956" lon="-107.09128260854108"><ele>2162.0</ele><time>2026-05-03T16:51:15.001Z</time></trkpt><trkpt lat="35.99748407768645" lon="-107.09135801715797"><ele>2162.0</ele><time>2026-05-03T16:51:16.001Z</time></trkpt><trkpt lat="35.99739163754004" lon="-107.09145179957143"><ele>2162.0</ele><time>2026-05-03T16:51:17.001Z</time></trkpt><trkpt lat="35.9973161748965" lon="-107.09153574008056"><ele>2162.0</ele><time>2026-05-03T16:51:18.001Z</time></trkpt><trkpt lat="35.99728724245353" lon="-107.09160559758585"><ele>2161.2</ele><time>2026-05-03T16:51:20.001Z</time></trkpt><trkpt lat="35.99725401869207" lon="-107.09170263698478"><ele>2160.3999999999996</ele><time>2026-05-03T16:51:21.001Z</time></trkpt><trkpt lat="35.99720157142949" lon="-107.0917834260381"><ele>2159.6000000000004</ele><time>2026-05-03T16:51:22.001Z</time></trkpt><trkpt lat="35.997085989732184" lon="-107.09185511022629"><ele>2158.8</ele><time>2026-05-03T16:51:24.001Z</time></trkpt><trkpt lat="35.99697630000127" lon="-107.09184851346596"><ele>2158.0</ele><time>2026-05-03T16:51:26.001Z</time></trkpt><trkpt lat="35.99692880679434" lon="-107.09177977326526"><ele>2158.0</ele><time>2026-05-03T16:51:27.001Z</time></trkpt><trkpt lat="35.99686445034886" lon="-107.091668863303"><ele>2158.0</ele><time>2026-05-03T16:51:28.001Z</time></trkpt><trkpt lat="35.99679812026313" lon="-107.09158158387743"><ele>2158.0</ele><time>2026-05-03T16:51:29.001Z</time></trkpt><trkpt lat="35.99668761166441" lon="-107.09155412187883"><ele>2158.0</ele><time>2026-05-03T16:51:31.001Z</time></trkpt><trkpt lat="35.99659454769081" lon="-107.09159995791158"><ele>2158.0</ele><time>2026-05-03T16:51:32.001Z</time></trkpt><trkpt lat="35.99649974072128" lon="-107.09162005692059"><ele>2158.0</ele><time>2026-05-03T16:51:33.001Z</time></trkpt><trkpt lat="35.99641501955757" lon="-107.0915794417507"><ele>2158.0</ele><time>2026-05-03T16:51:34.001Z</time></trkpt><trkpt lat="35.99632569836152" lon="-107.09154235927271"><ele>2158.0</ele><time>2026-05-03T16:51:35.001Z</time></trkpt><trkpt lat="35.99622354164878" lon="-107.09160572793566"><ele>2158.0</ele><time>2026-05-03T16:51:37.001Z</time></trkpt><trkpt lat="35.99618396159395" lon="-107.09171123127967"><ele>2158.0</ele><time>2026-05-03T16:51:38.001Z</time></trkpt><trkpt lat="35.99612039864959" lon="-107.09182941899304"><ele>2157.8</ele><time>2026-05-03T16:51:39.001Z</time></trkpt><trkpt lat="35.996038352045225" lon="-107.09192573669765"><ele>2157.6000000000004</ele><time>2026-05-03T16:51:40.001Z</time></trkpt><trkpt lat="35.995982333796185" lon="-107.09198560697821"><ele>2157.3999999999996</ele><time>2026-05-03T16:51:41.001Z</time></trkpt><trkpt lat="35.995954099989014" lon="-107.09211789102018"><ele>2157.2</ele><time>2026-05-03T16:51:43.001Z</time></trkpt><trkpt lat="35.99595930602571" lon="-107.09222751952188"><ele>2157.0</ele><time>2026-05-03T16:51:44.001Z</time></trkpt><trkpt lat="35.995945717335196" lon="-107.0923792200933"><ele>2156.6</ele><time>2026-05-03T16:51:45.001Z</time></trkpt><trkpt lat="35.995925017943314" lon="-107.09251913850757"><ele>2156.2</ele><time>2026-05-03T16:51:46.001Z</time></trkpt><trkpt lat="35.995927583851376" lon="-107.09261402488481"><ele>2155.8</ele><time>2026-05-03T16:51:47.001Z</time></trkpt><trkpt lat="35.99595820800719" lon="-107.09271230000022"><ele>2155.4</ele><time>2026-05-03T16:51:48.001Z</time></trkpt><trkpt lat="35.99597227877935" lon="-107.0928070461662"><ele>2155.0</ele><time>2026-05-03T16:51:49.001Z</time></trkpt><trkpt lat="35.995904636232446" lon="-107.09292466383506"><ele>2154.6</ele><time>2026-05-03T16:51:51.001Z</time></trkpt><trkpt lat="35.995828850600304" lon="-107.09301067296308"><ele>2154.2</ele><time>2026-05-03T16:51:52.001Z</time></trkpt><trkpt lat="35.99580285717657" lon="-107.09312000583435"><ele>2153.8</ele><time>2026-05-03T16:51:53.001Z</time></trkpt><trkpt lat="35.99578783151962" lon="-107.09324280367564"><ele>2153.4</ele><time>2026-05-03T16:51:54.001Z</time></trkpt><trkpt lat="35.99574655864533" lon="-107.09336445676877"><ele>2153.0</ele><time>2026-05-03T16:51:55.001Z</time></trkpt><trkpt lat="35.99569660349151" lon="-107.09343880093975"><ele>2152.6</ele><time>2026-05-03T16:51:56.001Z</time></trkpt><trkpt lat="35.99562830751085" lon="-107.09349965826522"><ele>2152.2000000000003</ele><time>2026-05-03T16:51:57.001Z</time></trkpt><trkpt lat="35.995552164447766" lon="-107.09357861643124"><ele>2151.8</ele><time>2026-05-03T16:51:58.001Z</time></trkpt><trkpt lat="35.99549738257799" lon="-107.09367960728434"><ele>2151.4</ele><time>2026-05-03T16:51:59.001Z</time></trkpt><trkpt lat="35.99546186880628" lon="-107.09381341810666"><ele>2151.0</ele><time>2026-05-03T16:52:00.001Z</time></trkpt><trkpt lat="35.995401200282835" lon="-107.09393363561017"><ele>2151.0</ele><time>2026-05-03T16:52:01.001Z</time></trkpt><trkpt lat="35.99533829334362" lon="-107.09403061288921"><ele>2151.0</ele><time>2026-05-03T16:52:02.001Z</time></trkpt><trkpt lat="35.99526402427943" lon="-107.09412592367612"><ele>2151.0</ele><time>2026-05-03T16:52:03.001Z</time></trkpt><trkpt lat="35.995182464762905" lon="-107.09422684959307"><ele>2151.0</ele><time>2026-05-03T16:52:04.001Z</time></trkpt><trkpt lat="35.995131382530595" lon="-107.09434396519698"><ele>2151.0</ele><time>2026-05-03T16:52:05.001Z</time></trkpt><trkpt lat="35.99507811971703" lon="-107.09447405633003"><ele>2150.6</ele><time>2026-05-03T16:52:06.001Z</time></trkpt><trkpt lat="35.99501064987411" lon="-107.09459000762395"><ele>2150.2</ele><time>2026-05-03T16:52:07.001Z</time></trkpt><trkpt lat="35.99494035804571" lon="-107.09468638159059"><ele>2149.8</ele><time>2026-05-03T16:52:08.001Z</time></trkpt><trkpt lat="35.99489806596367" lon="-107.09476519113292"><ele>2149.4</ele><time>2026-05-03T16:52:09.001Z</time></trkpt><trkpt lat="35.99486880611559" lon="-107.09487026435474"><ele>2149.0</ele><time>2026-05-03T16:52:10.001Z</time></trkpt><trkpt lat="35.994847716516155" lon="-107.09500266186193"><ele>2148.6</ele><time>2026-05-03T16:52:11.001Z</time></trkpt><trkpt lat="35.994840570295864" lon="-107.09512165444977"><ele>2148.2</ele><time>2026-05-03T16:52:12.001Z</time></trkpt><trkpt lat="35.99483997344512" lon="-107.09525139367327"><ele>2147.7999999999997</ele><time>2026-05-03T16:52:13.001Z</time></trkpt><trkpt lat="35.994834998017716" lon="-107.09537315841028"><ele>2147.4</ele><time>2026-05-03T16:52:14.001Z</time></trkpt><trkpt lat="35.99482578317154" lon="-107.09548221463373"><ele>2147.0</ele><time>2026-05-03T16:52:15.001Z</time></trkpt><trkpt lat="35.994828393504356" lon="-107.0955738516838"><ele>2147.0</ele><time>2026-05-03T16:52:16.001Z</time></trkpt><trkpt lat="35.994804308235594" lon="-107.09567722792374"><ele>2147.0</ele><time>2026-05-03T16:52:17.001Z</time></trkpt><trkpt lat="35.994788560523666" lon="-107.09578825164459"><ele>2147.0</ele><time>2026-05-03T16:52:18.001Z</time></trkpt><trkpt lat="35.994814320564075" lon="-107.09589379768978"><ele>2147.0</ele><time>2026-05-03T16:52:19Z</time></trkpt><trkpt lat="35.994849058976826" lon="-107.09601440898129"><ele>2147.0</ele><time>2026-05-03T16:52:20Z</time></trkpt><trkpt lat="35.99486868817606" lon="-107.09613938465516"><ele>2147.1666666666665</ele><time>2026-05-03T16:52:21Z</time></trkpt><trkpt lat="35.99488893257515" lon="-107.0962413622066"><ele>2147.333333333333</ele><time>2026-05-03T16:52:22Z</time></trkpt><trkpt lat="35.99489748151513" lon="-107.09632962736212"><ele>2147.5</ele><time>2026-05-03T16:52:23Z</time></trkpt><trkpt lat="35.99486865664416" lon="-107.09641970759844"><ele>2147.6666666666665</ele><time>2026-05-03T16:52:24Z</time></trkpt><trkpt lat="35.99481005210547" lon="-107.09652565701597"><ele>2147.8333333333335</ele><time>2026-05-03T16:52:25Z</time></trkpt><trkpt lat="35.99475746222689" lon="-107.09660337188123"><ele>2148.0</ele><time>2026-05-03T16:52:26Z</time></trkpt><trkpt lat="35.994697834946685" lon="-107.09663457074491"><ele>2147.2000000000003</ele><time>2026-05-03T16:52:27Z</time></trkpt><trkpt lat="35.994609602215895" lon="-107.0966419501522"><ele>2146.4</ele><time>2026-05-03T16:52:28Z</time></trkpt><trkpt lat="35.99449044998427" lon="-107.09665762959226"><ele>2145.6000000000004</ele><time>2026-05-03T16:52:29Z</time></trkpt><trkpt lat="35.994362974302035" lon="-107.09669147636426"><ele>2144.8</ele><time>2026-05-03T16:52:30Z</time></trkpt><trkpt lat="35.994260660667074" lon="-107.09674178976918"><ele>2144.0</ele><time>2026-05-03T16:52:31Z</time></trkpt><trkpt lat="35.99415969996187" lon="-107.09677924008508"><ele>2144.0</ele><time>2026-05-03T16:52:32Z</time></trkpt><trkpt lat="35.9940605352602" lon="-107.09682294410975"><ele>2144.0</ele><time>2026-05-03T16:52:33Z</time></trkpt><trkpt lat="35.99396071600162" lon="-107.09689708467609"><ele>2144.0</ele><time>2026-05-03T16:52:34Z</time></trkpt><trkpt lat="35.99386585828497" lon="-107.09696447815831"><ele>2144.0</ele><time>2026-05-03T16:52:35Z</time></trkpt><trkpt lat="35.99377626002847" lon="-107.0970067012001"><ele>2144.0</ele><time>2026-05-03T16:52:36Z</time></trkpt><trkpt lat="35.9936960768415" lon="-107.09705620254176"><ele>2144.0</ele><time>2026-05-03T16:52:37Z</time></trkpt><trkpt lat="35.99364111926469" lon="-107.09711454318071"><ele>2144.0</ele><time>2026-05-03T16:52:38Z</time></trkpt><trkpt lat="35.99358661476758" lon="-107.09722299079705"><ele>2144.0</ele><time>2026-05-03T16:52:40Z</time></trkpt><trkpt lat="35.99359597074918" lon="-107.0973072968584"><ele>2144.0</ele><time>2026-05-03T16:52:41Z</time></trkpt><trkpt lat="35.993615172852415" lon="-107.09744416903587"><ele>2144.0</ele><time>2026-05-03T16:52:42Z</time></trkpt><trkpt lat="35.99362566269179" lon="-107.09759181053117"><ele>2143.4</ele><time>2026-05-03T16:52:43Z</time></trkpt><trkpt lat="35.99360939337695" lon="-107.09768534852262"><ele>2142.8</ele><time>2026-05-03T16:52:44Z</time></trkpt><trkpt lat="35.9935536996626" lon="-107.0978340392433"><ele>2142.2</ele><time>2026-05-03T16:52:46Z</time></trkpt><trkpt lat="35.99348887834382" lon="-107.09794014954927"><ele>2141.6</ele><time>2026-05-03T16:52:47Z</time></trkpt><trkpt lat="35.99339810600513" lon="-107.09803653732612"><ele>2141.0</ele><time>2026-05-03T16:52:48Z</time></trkpt><trkpt lat="35.99330988234423" lon="-107.09812880981275"><ele>2140.6</ele><time>2026-05-03T16:52:49Z</time></trkpt><trkpt lat="35.99322772746515" lon="-107.09822455338872"><ele>2140.2</ele><time>2026-05-03T16:52:50Z</time></trkpt><trkpt lat="35.993138243629694" lon="-107.09831684207833"><ele>2139.8</ele><time>2026-05-03T16:52:51Z</time></trkpt><trkpt lat="35.99306584654449" lon="-107.09839062638208"><ele>2139.4</ele><time>2026-05-03T16:52:52Z</time></trkpt><trkpt lat="35.99301851243815" lon="-107.09845221577554"><ele>2139.0</ele><time>2026-05-03T16:52:53Z</time></trkpt><trkpt lat="35.99296029552824" lon="-107.09854751722449"><ele>2139.0</ele><time>2026-05-03T16:52:54Z</time></trkpt><trkpt lat="35.992907290801" lon="-107.09864555004322"><ele>2139.0</ele><time>2026-05-03T16:52:55Z</time></trkpt><trkpt lat="35.992869744917435" lon="-107.0987490096473"><ele>2139.0</ele><time>2026-05-03T16:52:56Z</time></trkpt><trkpt lat="35.992844168128144" lon="-107.09886878201037"><ele>2139.0</ele><time>2026-05-03T16:52:57.001Z</time></trkpt><trkpt lat="35.99283088789094" lon="-107.0990026262554"><ele>2139.0</ele><time>2026-05-03T16:52:58.001Z</time></trkpt><trkpt lat="35.992816615033995" lon="-107.09914841094073"><ele>2138.6</ele><time>2026-05-03T16:52:59.001Z</time></trkpt><trkpt lat="35.992793698562544" lon="-107.09926929128395"><ele>2138.2</ele><time>2026-05-03T16:53:00.001Z</time></trkpt><trkpt lat="35.9927587580202" lon="-107.09939079795107"><ele>2137.7999999999997</ele><time>2026-05-03T16:53:01.001Z</time></trkpt><trkpt lat="35.99271964036834" lon="-107.09951562248352"><ele>2137.4</ele><time>2026-05-03T16:53:02.001Z</time></trkpt><trkpt lat="35.9926733306381" lon="-107.09965143832025"><ele>2137.0</ele><time>2026-05-03T16:53:03.001Z</time></trkpt><trkpt lat="35.992614192774944" lon="-107.0997911927645"><ele>2136.7999999999997</ele><time>2026-05-03T16:53:04.001Z</time></trkpt><trkpt lat="35.99255456316329" lon="-107.09992386482486"><ele>2136.6</ele><time>2026-05-03T16:53:05.001Z</time></trkpt><trkpt lat="35.99250085986925" lon="-107.10003051260563"><ele>2136.3999999999996</ele><time>2026-05-03T16:53:06.001Z</time></trkpt><trkpt lat="35.99243195751123" lon="-107.10012824251208"><ele>2136.2</ele><time>2026-05-03T16:53:07.001Z</time></trkpt><trkpt lat="35.99235376454881" lon="-107.10021035133916"><ele>2136.0</ele><time>2026-05-03T16:53:08.001Z</time></trkpt><trkpt lat="35.99226647961711" lon="-107.10026119927356"><ele>2135.8</ele><time>2026-05-03T16:53:09.001Z</time></trkpt><trkpt lat="35.99217044184442" lon="-107.10029205927641"><ele>2135.6</ele><time>2026-05-03T16:53:10.001Z</time></trkpt><trkpt lat="35.99208115055047" lon="-107.10030025970809"><ele>2135.4</ele><time>2026-05-03T16:53:11.001Z</time></trkpt><trkpt lat="35.99198180509153" lon="-107.10028325691802"><ele>2135.2</ele><time>2026-05-03T16:53:12.001Z</time></trkpt><trkpt lat="35.99186471989058" lon="-107.10025952773778"><ele>2135.0</ele><time>2026-05-03T16:53:13.001Z</time></trkpt><trkpt lat="35.99174174284517" lon="-107.10024000985015"><ele>2133.75</ele><time>2026-05-03T16:53:14.001Z</time></trkpt><trkpt lat="35.99160647055579" lon="-107.10022546599282"><ele>2132.5</ele><time>2026-05-03T16:53:15.001Z</time></trkpt><trkpt lat="35.991486042422295" lon="-107.10021007387556"><ele>2131.25</ele><time>2026-05-03T16:53:16.001Z</time></trkpt><trkpt lat="35.991367483530965" lon="-107.10018716248128"><ele>2130.0</ele><time>2026-05-03T16:53:17.001Z</time></trkpt><trkpt lat="35.99127168654604" lon="-107.10015213258652"><ele>2130.0</ele><time>2026-05-03T16:53:18.001Z</time></trkpt><trkpt lat="35.99118436989673" lon="-107.10009928497023"><ele>2130.0</ele><time>2026-05-03T16:53:19.001Z</time></trkpt><trkpt lat="35.99107756785826" lon="-107.10005893528391"><ele>2130.0</ele><time>2026-05-03T16:53:20.001Z</time></trkpt><trkpt lat="35.99095288247686" lon="-107.10003838562062"><ele>2130.0</ele><time>2026-05-03T16:53:21.001Z</time></trkpt><trkpt lat="35.990843579837446" lon="-107.10004647222817"><ele>2130.0</ele><time>2026-05-03T16:53:22.001Z</time></trkpt><trkpt lat="35.99072999067571" lon="-107.10006686473963"><ele>2129.6666666666665</ele><time>2026-05-03T16:53:23.001Z</time></trkpt><trkpt lat="35.990593711636805" lon="-107.10008213370332"><ele>2129.333333333333</ele><time>2026-05-03T16:53:24.001Z</time></trkpt><trkpt lat="35.99042456647918" lon="-107.10009478656538"><ele>2129.0</ele><time>2026-05-03T16:53:25.001Z</time></trkpt><trkpt lat="35.99024807224193" lon="-107.10009148971162"><ele>2129.0</ele><time>2026-05-03T16:53:26.001Z</time></trkpt><trkpt lat="35.99008701303731" lon="-107.10008665135685"><ele>2129.0</ele><time>2026-05-03T16:53:27.001Z</time></trkpt><trkpt lat="35.98995489546174" lon="-107.10008723535152"><ele>2129.0</ele><time>2026-05-03T16:53:28.001Z</time></trkpt><trkpt lat="35.98983136468996" lon="-107.10009273774439"><ele>2129.0</ele><time>2026-05-03T16:53:29.001Z</time></trkpt><trkpt lat="35.989710494588124" lon="-107.10009721193386"><ele>2128.75</ele><time>2026-05-03T16:53:30.001Z</time></trkpt><trkpt lat="35.9895884716193" lon="-107.10010309999058"><ele>2128.5</ele><time>2026-05-03T16:53:31.001Z</time></trkpt><trkpt lat="35.989468385115444" lon="-107.1001095442979"><ele>2128.25</ele><time>2026-05-03T16:53:32.001Z</time></trkpt><trkpt lat="35.989351357301814" lon="-107.10011320863443"><ele>2128.0</ele><time>2026-05-03T16:53:33.001Z</time></trkpt><trkpt lat="35.98921524576098" lon="-107.10011842389339"><ele>2127.75</ele><time>2026-05-03T16:53:34.001Z</time></trkpt><trkpt lat="35.98905124741091" lon="-107.10011935999209"><ele>2127.5</ele><time>2026-05-03T16:53:35.001Z</time></trkpt><trkpt lat="35.988905160418" lon="-107.10010157032161"><ele>2127.25</ele><time>2026-05-03T16:53:36.001Z</time></trkpt><trkpt lat="35.98877241875972" lon="-107.10007635338876"><ele>2127.0</ele><time>2026-05-03T16:53:37.001Z</time></trkpt><trkpt lat="35.98862732529137" lon="-107.1000367487996"><ele>2127.0</ele><time>2026-05-03T16:53:38.001Z</time></trkpt><trkpt lat="35.98848770502631" lon="-107.10000520066968"><ele>2127.0</ele><time>2026-05-03T16:53:39.001Z</time></trkpt><trkpt lat="35.98834928477444" lon="-107.09998969375546"><ele>2127.0</ele><time>2026-05-03T16:53:40.001Z</time></trkpt><trkpt lat="35.98818214657383" lon="-107.09999898764052"><ele>2127.0</ele><time>2026-05-03T16:53:41.001Z</time></trkpt><trkpt lat="35.988021653746124" lon="-107.09999494773741"><ele>2126.5</ele><time>2026-05-03T16:53:42.001Z</time></trkpt><trkpt lat="35.9878965742067" lon="-107.09998886572323"><ele>2126.0</ele><time>2026-05-03T16:53:43.001Z</time></trkpt><trkpt lat="35.987799825232166" lon="-107.10000632108763"><ele>2125.5</ele><time>2026-05-03T16:53:44.001Z</time></trkpt><trkpt lat="35.98769993526022" lon="-107.1000543899496"><ele>2125.0</ele><time>2026-05-03T16:53:45.001Z</time></trkpt><trkpt lat="35.987582927297645" lon="-107.10012884377875"><ele>2125.25</ele><time>2026-05-03T16:53:46.001Z</time></trkpt><trkpt lat="35.98747079765004" lon="-107.10020630084969"><ele>2125.5</ele><time>2026-05-03T16:53:47.001Z</time></trkpt><trkpt lat="35.98737435654964" lon="-107.10027111017625"><ele>2125.75</ele><time>2026-05-03T16:53:48.001Z</time></trkpt><trkpt lat="35.987282672383365" lon="-107.10033249472046"><ele>2126.0</ele><time>2026-05-03T16:53:49.001Z</time></trkpt><trkpt lat="35.987183610817894" lon="-107.10039785478837"><ele>2126.0</ele><time>2026-05-03T16:53:50.001Z</time></trkpt><trkpt lat="35.98709076962463" lon="-107.10045746658305"><ele>2126.0</ele><time>2026-05-03T16:53:51.001Z</time></trkpt><trkpt lat="35.986994915728346" lon="-107.10051423732673"><ele>2126.0</ele><time>2026-05-03T16:53:52.001Z</time></trkpt><trkpt lat="35.98687086836944" lon="-107.10057730851298"><ele>2126.0</ele><time>2026-05-03T16:53:53.001Z</time></trkpt><trkpt lat="35.98674718933193" lon="-107.10063727616793"><ele>2126.0</ele><time>2026-05-03T16:53:54.001Z</time></trkpt><trkpt lat="35.98664095763561" lon="-107.10068449418858"><ele>2126.0</ele><time>2026-05-03T16:53:55.001Z</time></trkpt><trkpt lat="35.98654300797913" lon="-107.10072043164783"><ele>2126.0</ele><time>2026-05-03T16:53:56.001Z</time></trkpt><trkpt lat="35.98645037241872" lon="-107.1007530557315"><ele>2126.0</ele><time>2026-05-03T16:53:57.001Z</time></trkpt><trkpt lat="35.986357524892256" lon="-107.10077426762457"><ele>2126.0</ele><time>2026-05-03T16:53:58.001Z</time></trkpt><trkpt lat="35.98625699847678" lon="-107.10077400590332"><ele>2125.6</ele><time>2026-05-03T16:53:59.001Z</time></trkpt><trkpt lat="35.986152867376404" lon="-107.10077343701936"><ele>2125.2</ele><time>2026-05-03T16:54:00.001Z</time></trkpt><trkpt lat="35.986064668449636" lon="-107.10076832243682"><ele>2124.8</ele><time>2026-05-03T16:54:01.001Z</time></trkpt><trkpt lat="35.985963082994395" lon="-107.10076400013918"><ele>2124.4</ele><time>2026-05-03T16:54:02.001Z</time></trkpt><trkpt lat="35.985867194158914" lon="-107.10077318976893"><ele>2124.0</ele><time>2026-05-03T16:54:03.001Z</time></trkpt><trkpt lat="35.985779391721685" lon="-107.1007593610688"><ele>2123.8333333333335</ele><time>2026-05-03T16:54:04.001Z</time></trkpt><trkpt lat="35.98569958176102" lon="-107.10074853807484"><ele>2123.6666666666665</ele><time>2026-05-03T16:54:05.001Z</time></trkpt><trkpt lat="35.98563502744709" lon="-107.10076246972083"><ele>2123.5</ele><time>2026-05-03T16:54:06.001Z</time></trkpt><trkpt lat="35.98557368723263" lon="-107.10080848803216"><ele>2123.333333333333</ele><time>2026-05-03T16:54:07.001Z</time></trkpt><trkpt lat="35.98549867607162" lon="-107.10087972074928"><ele>2123.1666666666665</ele><time>2026-05-03T16:54:08.001Z</time></trkpt><trkpt lat="35.9854215502955" lon="-107.10093899757041"><ele>2123.0</ele><time>2026-05-03T16:54:09.001Z</time></trkpt><trkpt lat="35.985355340172156" lon="-107.10096323141569"><ele>2123.0</ele><time>2026-05-03T16:54:10.001Z</time></trkpt><trkpt lat="35.98524696500103" lon="-107.10107609699052"><ele>2123.0</ele><time>2026-05-03T16:54:12.001Z</time></trkpt><trkpt lat="35.985181070623916" lon="-107.10116051291818"><ele>2123.0</ele><time>2026-05-03T16:54:13.001Z</time></trkpt><trkpt lat="35.9851054273358" lon="-107.1012428972281"><ele>2123.0</ele><time>2026-05-03T16:54:14.001Z</time></trkpt><trkpt lat="35.98503470773998" lon="-107.10132270572144"><ele>2123.0</ele><time>2026-05-03T16:54:15.001Z</time></trkpt><trkpt lat="35.98496700417318" lon="-107.10139573000498"><ele>2122.8</ele><time>2026-05-03T16:54:16.001Z</time></trkpt><trkpt lat="35.984905226955135" lon="-107.1014620642724"><ele>2122.6000000000004</ele><time>2026-05-03T16:54:17.001Z</time></trkpt><trkpt lat="35.984854274740215" lon="-107.10155359039882"><ele>2122.3999999999996</ele><time>2026-05-03T16:54:18.001Z</time></trkpt><trkpt lat="35.984796080855226" lon="-107.10164293442082"><ele>2122.2</ele><time>2026-05-03T16:54:19.001Z</time></trkpt><trkpt lat="35.984706674055744" lon="-107.10173697884456"><ele>2122.0</ele><time>2026-05-03T16:54:20.001Z</time></trkpt><trkpt lat="35.9846267733882" lon="-107.10181369500089"><ele>2122.0</ele><time>2026-05-03T16:54:21.001Z</time></trkpt><trkpt lat="35.984573270901606" lon="-107.10188135696741"><ele>2122.0</ele><time>2026-05-03T16:54:22.001Z</time></trkpt><trkpt lat="35.98453851274521" lon="-107.10195887271668"><ele>2122.0</ele><time>2026-05-03T16:54:23.001Z</time></trkpt><trkpt lat="35.98454166013748" lon="-107.10206000725309"><ele>2122.0</ele><time>2026-05-03T16:54:25Z</time></trkpt><trkpt lat="35.98448573090343" lon="-107.1021199966726"><ele>2122.0</ele><time>2026-05-03T16:54:26Z</time></trkpt><trkpt lat="35.984405135209286" lon="-107.10219444465115"><ele>2122.0</ele><time>2026-05-03T16:54:27Z</time></trkpt><trkpt lat="35.98433918147728" lon="-107.1022781071561"><ele>2122.0</ele><time>2026-05-03T16:54:28Z</time></trkpt><trkpt lat="35.98428421473429" lon="-107.10236923147971"><ele>2122.0</ele><time>2026-05-03T16:54:30Z</time></trkpt><trkpt lat="35.984334886261394" lon="-107.10243542935179"><ele>2122.0</ele><time>2026-05-03T16:54:32Z</time></trkpt><trkpt lat="35.98442709238417" lon="-107.10249718369064"><ele>2122.0</ele><time>2026-05-03T16:54:33Z</time></trkpt><trkpt lat="35.98452908823093" lon="-107.10256277636462"><ele>2122.0</ele><time>2026-05-03T16:54:34Z</time></trkpt><trkpt lat="35.984642746846944" lon="-107.10263513309987"><ele>2122.0</ele><time>2026-05-03T16:54:35Z</time></trkpt><trkpt lat="35.984768671828135" lon="-107.10271947788425"><ele>2122.0</ele><time>2026-05-03T16:54:36Z</time></trkpt><trkpt lat="35.984859986039616" lon="-107.10278496694805"><ele>2122.0</ele><time>2026-05-03T16:54:37Z</time></trkpt><trkpt lat="35.984919744442905" lon="-107.1028455922072"><ele>2122.0</ele><time>2026-05-03T16:54:38Z</time></trkpt><trkpt lat="35.98493725490774" lon="-107.10292195175518"><ele>2122.0</ele><time>2026-05-03T16:54:39Z</time></trkpt><trkpt lat="35.984934556196635" lon="-107.10302792434815"><ele>2122.0</ele><time>2026-05-03T16:54:40Z</time></trkpt><trkpt lat="35.9849149783415" lon="-107.10312837648742"><ele>2122.0</ele><time>2026-05-03T16:54:41Z</time></trkpt><trkpt lat="35.98493846410056" lon="-107.10324067210905"><ele>2122.0</ele><time>2026-05-03T16:54:43Z</time></trkpt><trkpt lat="35.98506815911007" lon="-107.10328305836238"><ele>2122.0</ele><time>2026-05-03T16:54:45Z</time></trkpt><trkpt lat="35.985157543346375" lon="-107.10326763842171"><ele>2122.0</ele><time>2026-05-03T16:54:46Z</time></trkpt><trkpt lat="35.985276675230956" lon="-107.10322723819284"><ele>2121.8333333333335</ele><time>2026-05-03T16:54:47Z</time></trkpt><trkpt lat="35.985387195098404" lon="-107.10320089721914"><ele>2121.666666666667</ele><time>2026-05-03T16:54:48Z</time></trkpt><trkpt lat="35.98545809494808" lon="-107.10322162093651"><ele>2121.5</ele><time>2026-05-03T16:54:49Z</time></trkpt><trkpt lat="35.98553367372104" lon="-107.10325357851913"><ele>2121.3333333333335</ele><time>2026-05-03T16:54:50Z</time></trkpt><trkpt lat="35.9856294950471" lon="-107.10328541486058"><ele>2121.1666666666665</ele><time>2026-05-03T16:54:51Z</time></trkpt><trkpt lat="35.98570370856739" lon="-107.10325764031623"><ele>2121.0</ele><time>2026-05-03T16:54:52Z</time></trkpt><trkpt lat="35.985804511234505" lon="-107.10318460880579"><ele>2121.2</ele><time>2026-05-03T16:54:53Z</time></trkpt><trkpt lat="35.98591967130955" lon="-107.10310838791196"><ele>2121.3999999999996</ele><time>2026-05-03T16:54:54Z</time></trkpt><trkpt lat="35.986039574760426" lon="-107.10308017034133"><ele>2121.6</ele><time>2026-05-03T16:54:55Z</time></trkpt><trkpt lat="35.98613141938245" lon="-107.10306105086599"><ele>2121.7999999999997</ele><time>2026-05-03T16:54:56Z</time></trkpt><trkpt lat="35.98619312255942" lon="-107.10301892521136"><ele>2122.0</ele><time>2026-05-03T16:54:57Z</time></trkpt><trkpt lat="35.98623232064674" lon="-107.10295708176086"><ele>2122.0</ele><time>2026-05-03T16:54:58Z</time></trkpt><trkpt lat="35.986277697789404" lon="-107.10287074148576"><ele>2122.0</ele><time>2026-05-03T16:54:59Z</time></trkpt><trkpt lat="35.98630008453783" lon="-107.10277301433717"><ele>2122.0</ele><time>2026-05-03T16:55:00Z</time></trkpt><trkpt lat="35.986298520367164" lon="-107.10266200153558"><ele>2122.0</ele><time>2026-05-03T16:55:01Z</time></trkpt><trkpt lat="35.986309825703785" lon="-107.10257892642232"><ele>2122.0</ele><time>2026-05-03T16:55:03Z</time></trkpt><trkpt lat="35.986401105765125" lon="-107.1025525998448"><ele>2122.0</ele><time>2026-05-03T16:55:08.001Z</time></trkpt><trkpt lat="35.986451286879614" lon="-107.10248805488962"><ele>2122.2</ele><time>2026-05-03T16:55:09.001Z</time></trkpt><trkpt lat="35.986515660916744" lon="-107.1024107084312"><ele>2122.3999999999996</ele><time>2026-05-03T16:55:10.001Z</time></trkpt><trkpt lat="35.98659808503183" lon="-107.10233125261114"><ele>2122.6000000000004</ele><time>2026-05-03T16:55:11.001Z</time></trkpt><trkpt lat="35.986688840519726" lon="-107.1022507459596"><ele>2122.8</ele><time>2026-05-03T16:55:12.001Z</time></trkpt><trkpt lat="35.986789685072395" lon="-107.10218051345562"><ele>2123.0</ele><time>2026-05-03T16:55:13.001Z</time></trkpt><trkpt lat="35.986888812372904" lon="-107.10213293609877"><ele>2123.0</ele><time>2026-05-03T16:55:14.001Z</time></trkpt><trkpt lat="35.98698663764491" lon="-107.10208883453703"><ele>2123.0</ele><time>2026-05-03T16:55:15.001Z</time></trkpt><trkpt lat="35.987060896473174" lon="-107.10204050874499"><ele>2123.0</ele><time>2026-05-03T16:55:16.001Z</time></trkpt><trkpt lat="35.98713731133035" lon="-107.10196841753326"><ele>2123.0</ele><time>2026-05-03T16:55:17.001Z</time></trkpt><trkpt lat="35.98722822063623" lon="-107.10189167378701"><ele>2123.0</ele><time>2026-05-03T16:55:18.001Z</time></trkpt><trkpt lat="35.98732302125227" lon="-107.10183169508925"><ele>2123.0</ele><time>2026-05-03T16:55:19.001Z</time></trkpt><trkpt lat="35.98741142353484" lon="-107.10179552284659"><ele>2123.0</ele><time>2026-05-03T16:55:20.001Z</time></trkpt><trkpt lat="35.98751209320728" lon="-107.10177305420011"><ele>2123.0</ele><time>2026-05-03T16:55:21.001Z</time></trkpt><trkpt lat="35.98763146668618" lon="-107.101767839447"><ele>2123.0</ele><time>2026-05-03T16:55:22.001Z</time></trkpt><trkpt lat="35.98774481466933" lon="-107.1017746842633"><ele>2123.0</ele><time>2026-05-03T16:55:23.001Z</time></trkpt><trkpt lat="35.98786363027617" lon="-107.10176125506406"><ele>2123.1666666666665</ele><time>2026-05-03T16:55:25.001Z</time></trkpt><trkpt lat="35.98793867744922" lon="-107.10178959580429"><ele>2123.333333333333</ele><time>2026-05-03T16:55:26.001Z</time></trkpt><trkpt lat="35.98803179270503" lon="-107.10183125107793"><ele>2123.5</ele><time>2026-05-03T16:55:27.001Z</time></trkpt><trkpt lat="35.98813063527383" lon="-107.10186761617517"><ele>2123.6666666666665</ele><time>2026-05-03T16:55:28.001Z</time></trkpt><trkpt lat="35.98821061405759" lon="-107.10188296410702"><ele>2123.8333333333335</ele><time>2026-05-03T16:55:29.001Z</time></trkpt><trkpt lat="35.98829150780142" lon="-107.10189184131572"><ele>2124.0</ele><time>2026-05-03T16:55:30.001Z</time></trkpt><trkpt lat="35.98840633694947" lon="-107.1018955219536"><ele>2124.6</ele><time>2026-05-03T16:55:31.001Z</time></trkpt><trkpt lat="35.988532869726484" lon="-107.10190311469836"><ele>2125.2</ele><time>2026-05-03T16:55:32.001Z</time></trkpt><trkpt lat="35.98860888597031" lon="-107.10194566655575"><ele>2125.7999999999997</ele><time>2026-05-03T16:55:33.001Z</time></trkpt><trkpt lat="35.98867841396869" lon="-107.10200923828017"><ele>2126.4</ele><time>2026-05-03T16:55:34.001Z</time></trkpt><trkpt lat="35.988760497874985" lon="-107.10210363082133"><ele>2127.0</ele><time>2026-05-03T16:55:35.001Z</time></trkpt><trkpt lat="35.98881287092134" lon="-107.10217958927828"><ele>2127.0</ele><time>2026-05-03T16:55:36.001Z</time></trkpt><trkpt lat="35.98891298901576" lon="-107.10216160014745"><ele>2127.0</ele><time>2026-05-03T16:55:38.001Z</time></trkpt><trkpt lat="35.98898669427837" lon="-107.10214300153147"><ele>2127.0</ele><time>2026-05-03T16:55:39.001Z</time></trkpt><trkpt lat="35.989055373297674" lon="-107.10211417068399"><ele>2127.0</ele><time>2026-05-03T16:55:40.001Z</time></trkpt><trkpt lat="35.989138295880544" lon="-107.10207307249966"><ele>2127.0</ele><time>2026-05-03T16:55:41.001Z</time></trkpt><trkpt lat="35.98917722931671" lon="-107.10199976237294"><ele>2127.0</ele><time>2026-05-03T16:55:42.001Z</time></trkpt><trkpt lat="35.98928838856316" lon="-107.10198319212479"><ele>2127.0</ele><time>2026-05-03T16:55:44.001Z</time></trkpt><trkpt lat="35.98937082740837" lon="-107.10204332055562"><ele>2127.0</ele><time>2026-05-03T16:55:45.001Z</time></trkpt><trkpt lat="35.98944092942561" lon="-107.10217142117706"><ele>2127.0</ele><time>2026-05-03T16:55:46.001Z</time></trkpt><trkpt lat="35.989514098943964" lon="-107.1022886223274"><ele>2127.0</ele><time>2026-05-03T16:55:47.001Z</time></trkpt><trkpt lat="35.98955919527052" lon="-107.10238622532815"><ele>2127.0</ele><time>2026-05-03T16:55:49.001Z</time></trkpt><trkpt lat="35.98960106579996" lon="-107.10252305463482"><ele>2126.7999999999997</ele><time>2026-05-03T16:55:51.001Z</time></trkpt><trkpt lat="35.98969787712147" lon="-107.10255866096057"><ele>2126.6</ele><time>2026-05-03T16:55:53.001Z</time></trkpt><trkpt lat="35.989827491600835" lon="-107.10253267398723"><ele>2126.3999999999996</ele><time>2026-05-03T16:55:55.001Z</time></trkpt><trkpt lat="35.989937846565965" lon="-107.10251722310595"><ele>2126.2</ele><time>2026-05-03T16:55:56.001Z</time></trkpt><trkpt lat="35.9900041903107" lon="-107.10250019983916"><ele>2126.0</ele><time>2026-05-03T16:55:57.001Z</time></trkpt><trkpt lat="35.990105333502854" lon="-107.10248426299155"><ele>2126.75</ele><time>2026-05-03T16:55:59.001Z</time></trkpt><trkpt lat="35.9901823412637" lon="-107.10253669103483"><ele>2127.5</ele><time>2026-05-03T16:56:00.001Z</time></trkpt><trkpt lat="35.99028704269708" lon="-107.10262932626435"><ele>2128.25</ele><time>2026-05-03T16:56:01.001Z</time></trkpt><trkpt lat="35.990394565146225" lon="-107.10270930728542"><ele>2129.0</ele><time>2026-05-03T16:56:02.001Z</time></trkpt><trkpt lat="35.990494772091296" lon="-107.10276229286637"><ele>2129.0</ele><time>2026-05-03T16:56:03.001Z</time></trkpt><trkpt lat="35.99059036884146" lon="-107.10281480669832"><ele>2129.0</ele><time>2026-05-03T16:56:04.001Z</time></trkpt><trkpt lat="35.99066307402121" lon="-107.10286692642516"><ele>2129.0</ele><time>2026-05-03T16:56:05.001Z</time></trkpt><trkpt lat="35.99072941359798" lon="-107.10290962455095"><ele>2129.0</ele><time>2026-05-03T16:56:06.001Z</time></trkpt><trkpt lat="35.99082751060051" lon="-107.10294119754245"><ele>2129.0</ele><time>2026-05-03T16:56:07.001Z</time></trkpt><trkpt lat="35.990967432086414" lon="-107.10295330793673"><ele>2129.5</ele><time>2026-05-03T16:56:08.001Z</time></trkpt><trkpt lat="35.99111274822418" lon="-107.10297077586472"><ele>2130.0</ele><time>2026-05-03T16:56:09.001Z</time></trkpt><trkpt lat="35.99124185949754" lon="-107.10301865674568"><ele>2130.5</ele><time>2026-05-03T16:56:10.001Z</time></trkpt><trkpt lat="35.9913503926763" lon="-107.10306803137811"><ele>2131.0</ele><time>2026-05-03T16:56:11.001Z</time></trkpt><trkpt lat="35.991433522288936" lon="-107.10311585065708"><ele>2131.0</ele><time>2026-05-03T16:56:12.001Z</time></trkpt><trkpt lat="35.991522669786995" lon="-107.10320196209378"><ele>2131.0</ele><time>2026-05-03T16:56:13.001Z</time></trkpt><trkpt lat="35.99159373226481" lon="-107.10330029920189"><ele>2131.0</ele><time>2026-05-03T16:56:14.001Z</time></trkpt><trkpt lat="35.99165386488498" lon="-107.10336306707663"><ele>2131.0</ele><time>2026-05-03T16:56:15.001Z</time></trkpt><trkpt lat="35.991778304333714" lon="-107.10339589475024"><ele>2131.0</ele><time>2026-05-03T16:56:17.001Z</time></trkpt><trkpt lat="35.99187689168545" lon="-107.10334377625676"><ele>2131.2</ele><time>2026-05-03T16:56:18.001Z</time></trkpt><trkpt lat="35.991955272957384" lon="-107.10326588024137"><ele>2131.3999999999996</ele><time>2026-05-03T16:56:19.001Z</time></trkpt><trkpt lat="35.992023536146206" lon="-107.10320664447414"><ele>2131.6</ele><time>2026-05-03T16:56:20.001Z</time></trkpt><trkpt lat="35.99209536698549" lon="-107.10317381077316"><ele>2131.7999999999997</ele><time>2026-05-03T16:56:21.001Z</time></trkpt><trkpt lat="35.992184244665836" lon="-107.10315645328193"><ele>2132.0</ele><time>2026-05-03T16:56:22.001Z</time></trkpt><trkpt lat="35.99228719363608" lon="-107.10316268999715"><ele>2132.0</ele><time>2026-05-03T16:56:23.001Z</time></trkpt><trkpt lat="35.9924186892655" lon="-107.1031962658727"><ele>2132.0</ele><time>2026-05-03T16:56:24.001Z</time></trkpt><trkpt lat="35.99256691483506" lon="-107.1032393698894"><ele>2132.0</ele><time>2026-05-03T16:56:25.001Z</time></trkpt><trkpt lat="35.99270817785028" lon="-107.103263303911"><ele>2132.0</ele><time>2026-05-03T16:56:26.001Z</time></trkpt><trkpt lat="35.99284936529823" lon="-107.1032578866271"><ele>2132.0</ele><time>2026-05-03T16:56:27.001Z</time></trkpt><trkpt lat="35.99297413235216" lon="-107.10323650287387"><ele>2132.0</ele><time>2026-05-03T16:56:28.001Z</time></trkpt><trkpt lat="35.9930724894883" lon="-107.10321881930116"><ele>2132.0</ele><time>2026-05-03T16:56:29.001Z</time></trkpt><trkpt lat="35.99314064671961" lon="-107.10322709407583"><ele>2132.0</ele><time>2026-05-03T16:56:30.001Z</time></trkpt><trkpt lat="35.993219779366996" lon="-107.10328783874007"><ele>2132.0</ele><time>2026-05-03T16:56:32Z</time></trkpt><trkpt lat="35.99319231593268" lon="-107.10339393394746"><ele>2132.0</ele><time>2026-05-03T16:56:34Z</time></trkpt><trkpt lat="35.99315010631166" lon="-107.1035165425571"><ele>2132.0</ele><time>2026-05-03T16:56:36Z</time></trkpt><trkpt lat="35.99316445798492" lon="-107.10362910049527"><ele>2132.0</ele><time>2026-05-03T16:56:37Z</time></trkpt><trkpt lat="35.993191103024365" lon="-107.10372976453816"><ele>2132.0</ele><time>2026-05-03T16:56:38Z</time></trkpt><trkpt lat="35.99316391622976" lon="-107.10385994638922"><ele>2132.0</ele><time>2026-05-03T16:56:40Z</time></trkpt><trkpt lat="35.9932081994171" lon="-107.10397738010649"><ele>2132.0</ele><time>2026-05-03T16:56:42Z</time></trkpt><trkpt lat="35.993287369306856" lon="-107.10405408552441"><ele>2132.0</ele><time>2026-05-03T16:56:43Z</time></trkpt><trkpt lat="35.993403928952056" lon="-107.10412005041206"><ele>2132.0</ele><time>2026-05-03T16:56:44Z</time></trkpt><trkpt lat="35.99353639324886" lon="-107.10418962847714"><ele>2132.0</ele><time>2026-05-03T16:56:45Z</time></trkpt><trkpt lat="35.993677632428444" lon="-107.10426325664403"><ele>2132.6666666666665</ele><time>2026-05-03T16:56:46Z</time></trkpt><trkpt lat="35.993817445793816" lon="-107.1043603272989"><ele>2133.3333333333335</ele><time>2026-05-03T16:56:47Z</time></trkpt><trkpt lat="35.99394937498596" lon="-107.10447918016997"><ele>2134.0</ele><time>2026-05-03T16:56:48Z</time></trkpt><trkpt lat="35.99405831817438" lon="-107.10457561612967"><ele>2134.0</ele><time>2026-05-03T16:56:49Z</time></trkpt><trkpt lat="35.99416280595722" lon="-107.10466264547239"><ele>2134.0</ele><time>2026-05-03T16:56:50Z</time></trkpt><trkpt lat="35.994284866447295" lon="-107.10474068423403"><ele>2134.0</ele><time>2026-05-03T16:56:51Z</time></trkpt><trkpt lat="35.99441779524158" lon="-107.10481446114707"><ele>2134.0</ele><time>2026-05-03T16:56:52Z</time></trkpt><trkpt lat="35.99452863642381" lon="-107.10486460003625"><ele>2134.25</ele><time>2026-05-03T16:56:53Z</time></trkpt><trkpt lat="35.99464255174504" lon="-107.10488105712614"><ele>2134.5</ele><time>2026-05-03T16:56:54Z</time></trkpt><trkpt lat="35.99476338222891" lon="-107.1048861014213"><ele>2134.75</ele><time>2026-05-03T16:56:55Z</time></trkpt><trkpt lat="35.99488888418251" lon="-107.10488967419855"><ele>2135.0</ele><time>2026-05-03T16:56:56Z</time></trkpt><trkpt lat="35.9950252338032" lon="-107.10488657002163"><ele>2135.5</ele><time>2026-05-03T16:56:57Z</time></trkpt><trkpt lat="35.995141212597574" lon="-107.10488920526566"><ele>2136.0</ele><time>2026-05-03T16:56:58Z</time></trkpt><trkpt lat="35.995239205330726" lon="-107.10491241480484"><ele>2136.5</ele><time>2026-05-03T16:56:59Z</time></trkpt><trkpt lat="35.99532224739802" lon="-107.10500441217059"><ele>2137.0</ele><time>2026-05-03T16:57:00Z</time></trkpt><trkpt lat="35.99541041738104" lon="-107.10512182964658"><ele>2137.4</ele><time>2026-05-03T16:57:01Z</time></trkpt><trkpt lat="35.99546135700452" lon="-107.10523040526779"><ele>2137.7999999999997</ele><time>2026-05-03T16:57:02Z</time></trkpt><trkpt lat="35.995475390611475" lon="-107.10534301508861"><ele>2138.2</ele><time>2026-05-03T16:57:03Z</time></trkpt><trkpt lat="35.995480152439804" lon="-107.10545034936463"><ele>2138.6</ele><time>2026-05-03T16:57:04Z</time></trkpt><trkpt lat="35.99551273219587" lon="-107.10558099991559"><ele>2139.0</ele><time>2026-05-03T16:57:06Z</time></trkpt><trkpt lat="35.99560581962054" lon="-107.1057792371036"><ele>2139.25</ele><time>2026-05-03T16:57:08Z</time></trkpt><trkpt lat="35.99570119288335" lon="-107.10589657435104"><ele>2139.5</ele><time>2026-05-03T16:57:09Z</time></trkpt><trkpt lat="35.99580066840281" lon="-107.10600326863944"><ele>2139.75</ele><time>2026-05-03T16:57:10Z</time></trkpt><trkpt lat="35.99591720739729" lon="-107.10613127796795"><ele>2140.0</ele><time>2026-05-03T16:57:11Z</time></trkpt><trkpt lat="35.99603511993379" lon="-107.1062730354385"><ele>2140.5</ele><time>2026-05-03T16:57:12Z</time></trkpt><trkpt lat="35.996130493420694" lon="-107.10638885033119"><ele>2141.0</ele><time>2026-05-03T16:57:13Z</time></trkpt><trkpt lat="35.99621084343305" lon="-107.10650059062385"><ele>2141.5</ele><time>2026-05-03T16:57:14.001Z</time></trkpt><trkpt lat="35.996278052768446" lon="-107.10661969119555"><ele>2142.0</ele><time>2026-05-03T16:57:15.001Z</time></trkpt><trkpt lat="35.9963336545357" lon="-107.10673133675593"><ele>2142.25</ele><time>2026-05-03T16:57:16.001Z</time></trkpt><trkpt lat="35.996382472937995" lon="-107.10686615928476"><ele>2142.5</ele><time>2026-05-03T16:57:17.001Z</time></trkpt><trkpt lat="35.99643210370975" lon="-107.10700678710057"><ele>2142.75</ele><time>2026-05-03T16:57:18.001Z</time></trkpt><trkpt lat="35.996473623585075" lon="-107.10714405240807"><ele>2143.0</ele><time>2026-05-03T16:57:19.001Z</time></trkpt><trkpt lat="35.99650612330143" lon="-107.1072455983703"><ele>2143.0</ele><time>2026-05-03T16:57:20.001Z</time></trkpt><trkpt lat="35.99656330350853" lon="-107.1073260501034"><ele>2143.0</ele><time>2026-05-03T16:57:21.001Z</time></trkpt><trkpt lat="35.996660799425676" lon="-107.10741641066527"><ele>2143.0</ele><time>2026-05-03T16:57:22.001Z</time></trkpt><trkpt lat="35.99674561014599" lon="-107.10749058767269"><ele>2143.0</ele><time>2026-05-03T16:57:23.001Z</time></trkpt><trkpt lat="35.996877117176496" lon="-107.10751148224898"><ele>2143.0</ele><time>2026-05-03T16:57:25.001Z</time></trkpt><trkpt lat="35.99699186646985" lon="-107.10747328537008"><ele>2143.75</ele><time>2026-05-03T16:57:26.001Z</time></trkpt><trkpt lat="35.99715116358167" lon="-107.10743446034036"><ele>2144.5</ele><time>2026-05-03T16:57:27.001Z</time></trkpt><trkpt lat="35.997298746615705" lon="-107.1074032911637"><ele>2145.25</ele><time>2026-05-03T16:57:28.001Z</time></trkpt><trkpt lat="35.997433453632134" lon="-107.10737887459418"><ele>2146.0</ele><time>2026-05-03T16:57:29.001Z</time></trkpt><trkpt lat="35.99757269183916" lon="-107.10734810851712"><ele>2147.25</ele><time>2026-05-03T16:57:30.001Z</time></trkpt><trkpt lat="35.99771639057667" lon="-107.10730825070424"><ele>2148.5</ele><time>2026-05-03T16:57:31.001Z</time></trkpt><trkpt lat="35.99784567761983" lon="-107.1072603690754"><ele>2149.75</ele><time>2026-05-03T16:57:32.001Z</time></trkpt><trkpt lat="35.997969568169346" lon="-107.10719783860381"><ele>2151.0</ele><time>2026-05-03T16:57:33.001Z</time></trkpt><trkpt lat="35.998095940437956" lon="-107.10709600184089"><ele>2151.0</ele><time>2026-05-03T16:57:34.001Z</time></trkpt><trkpt lat="35.99823590308316" lon="-107.10696022048192"><ele>2151.0</ele><time>2026-05-03T16:57:35.001Z</time></trkpt><trkpt lat="35.99836159370932" lon="-107.10682659364234"><ele>2151.0</ele><time>2026-05-03T16:57:36.001Z</time></trkpt><trkpt lat="35.9984857454401" lon="-107.10670805787278"><ele>2150.3333333333335</ele><time>2026-05-03T16:57:37.001Z</time></trkpt><trkpt lat="35.99861224771903" lon="-107.10658649974388"><ele>2149.666666666667</ele><time>2026-05-03T16:57:38.001Z</time></trkpt><trkpt lat="35.99874881090221" lon="-107.10646031778596"><ele>2149.0</ele><time>2026-05-03T16:57:39.001Z</time></trkpt><trkpt lat="35.99888396476815" lon="-107.10633891587234"><ele>2149.0</ele><time>2026-05-03T16:57:40.001Z</time></trkpt><trkpt lat="35.999016217869475" lon="-107.10622825142336"><ele>2149.0</ele><time>2026-05-03T16:57:41.001Z</time></trkpt><trkpt lat="35.99916488903275" lon="-107.10613030859302"><ele>2149.0</ele><time>2026-05-03T16:57:42.001Z</time></trkpt><trkpt lat="35.99933119073302" lon="-107.10603020733403"><ele>2149.0</ele><time>2026-05-03T16:57:43.001Z</time></trkpt><trkpt lat="35.99946959839027" lon="-107.10594075090025"><ele>2149.0</ele><time>2026-05-03T16:57:44.001Z</time></trkpt><trkpt lat="35.99959687662898" lon="-107.10585433320594"><ele>2149.0</ele><time>2026-05-03T16:57:45.001Z</time></trkpt><trkpt lat="35.99970441785954" lon="-107.1057750697966"><ele>2149.0</ele><time>2026-05-03T16:57:46.001Z</time></trkpt><trkpt lat="35.99981073504866" lon="-107.10572395360948"><ele>2149.0</ele><time>2026-05-03T16:57:47.001Z</time></trkpt><trkpt lat="35.99993085566608" lon="-107.1057003531119"><ele>2149.0</ele><time>2026-05-03T16:57:48.001Z</time></trkpt><trkpt lat="36.00006343931778" lon="-107.1056976813293"><ele>2149.0</ele><time>2026-05-03T16:57:49.001Z</time></trkpt><trkpt lat="36.00020126301246" lon="-107.10571319987442"><ele>2149.0</ele><time>2026-05-03T16:57:50.001Z</time></trkpt><trkpt lat="36.00033238948287" lon="-107.1057369440021"><ele>2149.6</ele><time>2026-05-03T16:57:51.001Z</time></trkpt><trkpt lat="36.00043744587581" lon="-107.1057634143807"><ele>2150.2</ele><time>2026-05-03T16:57:52.001Z</time></trkpt><trkpt lat="36.000525950101476" lon="-107.10579281304616"><ele>2150.7999999999997</ele><time>2026-05-03T16:57:53.001Z</time></trkpt><trkpt lat="36.00061345020897" lon="-107.10582402932653"><ele>2151.4</ele><time>2026-05-03T16:57:54.001Z</time></trkpt><trkpt lat="36.00070114775077" lon="-107.1058364276642"><ele>2152.0</ele><time>2026-05-03T16:57:55.001Z</time></trkpt><trkpt lat="36.000794385201" lon="-107.1058535427301"><ele>2152.0</ele><time>2026-05-03T16:57:56.001Z</time></trkpt><trkpt lat="36.00092226288842" lon="-107.10587521828961"><ele>2152.0</ele><time>2026-05-03T16:57:57.001Z</time></trkpt><trkpt lat="36.00107124545646" lon="-107.10589614655963"><ele>2152.0</ele><time>2026-05-03T16:57:58.001Z</time></trkpt><trkpt lat="36.00122149569305" lon="-107.10590888713456"><ele>2152.0</ele><time>2026-05-03T16:57:59.001Z</time></trkpt><trkpt lat="36.00136621634877" lon="-107.10590329356907"><ele>2152.0</ele><time>2026-05-03T16:58:00.001Z</time></trkpt><trkpt lat="36.00151785031241" lon="-107.1058733197417"><ele>2152.0</ele><time>2026-05-03T16:58:01.001Z</time></trkpt><trkpt lat="36.00164789861132" lon="-107.10582845937435"><ele>2152.0</ele><time>2026-05-03T16:58:02.001Z</time></trkpt><trkpt lat="36.001751256818764" lon="-107.10576403224779"><ele>2152.0</ele><time>2026-05-03T16:58:03.001Z</time></trkpt><trkpt lat="36.001860764809024" lon="-107.10565763610198"><ele>2152.5</ele><time>2026-05-03T16:58:04.001Z</time></trkpt><trkpt lat="36.0019846951792" lon="-107.10553450357533"><ele>2153.0</ele><time>2026-05-03T16:58:05.001Z</time></trkpt><trkpt lat="36.0020884369379" lon="-107.1054669418091"><ele>2153.5</ele><time>2026-05-03T16:58:06.001Z</time></trkpt><trkpt lat="36.0021626746808" lon="-107.10546265199856"><ele>2154.0</ele><time>2026-05-03T16:58:07.001Z</time></trkpt><trkpt lat="36.00226737252956" lon="-107.10549825943863"><ele>2154.0</ele><time>2026-05-03T16:58:08.001Z</time></trkpt><trkpt lat="36.00239611420041" lon="-107.10553193880298"><ele>2154.0</ele><time>2026-05-03T16:58:09.001Z</time></trkpt><trkpt lat="36.002516029255226" lon="-107.10551806215649"><ele>2154.0</ele><time>2026-05-03T16:58:10.001Z</time></trkpt><trkpt lat="36.002655606272434" lon="-107.10546733498511"><ele>2154.0</ele><time>2026-05-03T16:58:11.001Z</time></trkpt><trkpt lat="36.002817009908455" lon="-107.10539025774419"><ele>2154.0</ele><time>2026-05-03T16:58:12.001Z</time></trkpt><trkpt lat="36.00297542059844" lon="-107.10533284108485"><ele>2154.0</ele><time>2026-05-03T16:58:13.001Z</time></trkpt><trkpt lat="36.0031022647273" lon="-107.10528734759717"><ele>2154.0</ele><time>2026-05-03T16:58:14.001Z</time></trkpt><trkpt lat="36.003227524831516" lon="-107.10526670116515"><ele>2154.0</ele><time>2026-05-03T16:58:15.001Z</time></trkpt><trkpt lat="36.00335843113679" lon="-107.10522077334426"><ele>2155.0</ele><time>2026-05-03T16:58:16.001Z</time></trkpt><trkpt lat="36.00350674777798" lon="-107.10515868540855"><ele>2156.0</ele><time>2026-05-03T16:58:17.001Z</time></trkpt><trkpt lat="36.003683878990046" lon="-107.10510310856424"><ele>2157.0</ele><time>2026-05-03T16:58:18.001Z</time></trkpt><trkpt lat="36.00387440282227" lon="-107.10503618090063"><ele>2157.0</ele><time>2026-05-03T16:58:19.001Z</time></trkpt><trkpt lat="36.00408335620077" lon="-107.1049563325678"><ele>2157.0</ele><time>2026-05-03T16:58:20.001Z</time></trkpt><trkpt lat="36.00430695387986" lon="-107.10486298483497"><ele>2157.5</ele><time>2026-05-03T16:58:21.001Z</time></trkpt><trkpt lat="36.00453195727885" lon="-107.10477317571821"><ele>2158.0</ele><time>2026-05-03T16:58:22.001Z</time></trkpt><trkpt lat="36.004743022980925" lon="-107.10469079443834"><ele>2158.0</ele><time>2026-05-03T16:58:23.001Z</time></trkpt><trkpt lat="36.004938782731614" lon="-107.10461541729795"><ele>2158.0</ele><time>2026-05-03T16:58:24.001Z</time></trkpt><trkpt lat="36.00510847467278" lon="-107.10454771658944"><ele>2158.0</ele><time>2026-05-03T16:58:25.001Z</time></trkpt><trkpt lat="36.00526007587739" lon="-107.10449027641585"><ele>2158.75</ele><time>2026-05-03T16:58:26.001Z</time></trkpt><trkpt lat="36.00539154510701" lon="-107.10445281020299"><ele>2159.5</ele><time>2026-05-03T16:58:27.001Z</time></trkpt><trkpt lat="36.00551710683532" lon="-107.10442218652037"><ele>2160.25</ele><time>2026-05-03T16:58:28.001Z</time></trkpt><trkpt lat="36.00564989574992" lon="-107.10439784143544"><ele>2161.0</ele><time>2026-05-03T16:58:29.001Z</time></trkpt><trkpt lat="36.00580847480905" lon="-107.10437435225869"><ele>2161.4</ele><time>2026-05-03T16:58:30.001Z</time></trkpt><trkpt lat="36.00593604504799" lon="-107.1043367014549"><ele>2161.8</ele><time>2026-05-03T16:58:31.001Z</time></trkpt><trkpt lat="36.00601185752476" lon="-107.10431370991932"><ele>2162.2000000000003</ele><time>2026-05-03T16:58:32.001Z</time></trkpt><trkpt lat="36.00611415964206" lon="-107.10428848926483"><ele>2162.6</ele><time>2026-05-03T16:58:34.001Z</time></trkpt><trkpt lat="36.00621095674582" lon="-107.10428243566207"><ele>2163.0</ele><time>2026-05-03T16:58:35.001Z</time></trkpt><trkpt lat="36.00633960883208" lon="-107.10428652987106"><ele>2163.0</ele><time>2026-05-03T16:58:36.001Z</time></trkpt><trkpt lat="36.006417383590396" lon="-107.10426338098482"><ele>2163.0</ele><time>2026-05-03T16:58:38Z</time></trkpt><trkpt lat="36.00650714545833" lon="-107.10414024919724"><ele>2163.0</ele><time>2026-05-03T16:58:40Z</time></trkpt><trkpt lat="36.006569488826095" lon="-107.10407259802884"><ele>2163.0</ele><time>2026-05-03T16:58:41Z</time></trkpt><trkpt lat="36.006695721888896" lon="-107.10402936455468"><ele>2163.0</ele><time>2026-05-03T16:58:43Z</time></trkpt><trkpt lat="36.006773532679105" lon="-107.1040205996811"><ele>2163.8333333333335</ele><time>2026-05-03T16:58:44Z</time></trkpt><trkpt lat="36.00685504587993" lon="-107.10402590205922"><ele>2164.6666666666665</ele><time>2026-05-03T16:58:45Z</time></trkpt><trkpt lat="36.00692480724301" lon="-107.10400569475114"><ele>2165.5</ele><time>2026-05-03T16:58:46Z</time></trkpt><trkpt lat="36.0070230256873" lon="-107.1039851625167"><ele>2166.333333333333</ele><time>2026-05-03T16:58:47Z</time></trkpt><trkpt lat="36.00710486075165" lon="-107.10395630598467"><ele>2167.1666666666665</ele><time>2026-05-03T16:58:48Z</time></trkpt><trkpt lat="36.00716816558862" lon="-107.10394219125241"><ele>2168.0</ele><time>2026-05-03T16:58:49Z</time></trkpt><trkpt lat="36.00725023656966" lon="-107.10398250684197"><ele>2168.0</ele><time>2026-05-03T16:58:51Z</time></trkpt><trkpt lat="36.00734822179508" lon="-107.10398766003681"><ele>2168.0</ele><time>2026-05-03T16:58:53Z</time></trkpt><trkpt lat="36.00739099236575" lon="-107.10390786289871"><ele>2168.0</ele><time>2026-05-03T16:58:55Z</time></trkpt><trkpt lat="36.00743618480555" lon="-107.10384801043855"><ele>2168.0</ele><time>2026-05-03T16:58:56Z</time></trkpt><trkpt lat="36.0075114187058" lon="-107.10379253859351"><ele>2168.0</ele><time>2026-05-03T16:58:57Z</time></trkpt><trkpt lat="36.007605973799244" lon="-107.10371846633423"><ele>2168.0</ele><time>2026-05-03T16:58:58Z</time></trkpt><trkpt lat="36.007665932333545" lon="-107.10366939424068"><ele>2168.1666666666665</ele><time>2026-05-03T16:58:59Z</time></trkpt><trkpt lat="36.00775681605596" lon="-107.103587639776"><ele>2168.333333333333</ele><time>2026-05-03T16:59:01Z</time></trkpt><trkpt lat="36.00783505749869" lon="-107.10356777702629"><ele>2168.5</ele><time>2026-05-03T16:59:02Z</time></trkpt><trkpt lat="36.00792399204145" lon="-107.10356040777822"><ele>2168.6666666666665</ele><time>2026-05-03T16:59:03Z</time></trkpt><trkpt lat="36.00800060899441" lon="-107.1035785081772"><ele>2168.8333333333335</ele><time>2026-05-03T16:59:04Z</time></trkpt><trkpt lat="36.00806509013052" lon="-107.10358152142518"><ele>2169.0</ele><time>2026-05-03T16:59:05Z</time></trkpt><trkpt lat="36.008177923816916" lon="-107.10347828964703"><ele>2169.0</ele><time>2026-05-03T16:59:07Z</time></trkpt><trkpt lat="36.00828314193498" lon="-107.10341479315937"><ele>2169.0</ele><time>2026-05-03T16:59:08Z</time></trkpt><trkpt lat="36.00836157883742" lon="-107.10337098701903"><ele>2169.0</ele><time>2026-05-03T16:59:09Z</time></trkpt><trkpt lat="36.00843198192204" lon="-107.10334906014606"><ele>2169.0</ele><time>2026-05-03T16:59:12Z</time></trkpt><trkpt lat="36.008501080669525" lon="-107.10335835464583"><ele>2169.0</ele><time>2026-05-03T16:59:14Z</time></trkpt><trkpt lat="36.008557657785545" lon="-107.10330006774267"><ele>2169.0</ele><time>2026-05-03T16:59:15Z</time></trkpt><trkpt lat="36.00863591812934" lon="-107.10324581803152"><ele>2169.8</ele><time>2026-05-03T16:59:17Z</time></trkpt><trkpt lat="36.00874427281309" lon="-107.10316431011418"><ele>2170.6000000000004</ele><time>2026-05-03T16:59:19Z</time></trkpt><trkpt lat="36.00883549693324" lon="-107.10315086229468"><ele>2171.4</ele><time>2026-05-03T16:59:21.001Z</time></trkpt><trkpt lat="36.008913706852724" lon="-107.10322381190721"><ele>2172.2000000000003</ele><time>2026-05-03T16:59:24.001Z</time></trkpt><trkpt lat="36.00899554634248" lon="-107.10328304578576"><ele>2173.0</ele><time>2026-05-03T16:59:26.001Z</time></trkpt><trkpt lat="36.009084454877524" lon="-107.10324592261532"><ele>2173.6</ele><time>2026-05-03T16:59:28.001Z</time></trkpt><trkpt lat="36.009114938914024" lon="-107.10313899529827"><ele>2174.2000000000003</ele><time>2026-05-03T16:59:30.001Z</time></trkpt><trkpt lat="36.00917209195478" lon="-107.10307524239045"><ele>2174.8</ele><time>2026-05-03T16:59:32.001Z</time></trkpt><trkpt lat="36.009242707411666" lon="-107.1029820002242"><ele>2175.4</ele><time>2026-05-03T16:59:34.001Z</time></trkpt><trkpt lat="36.0092809177128" lon="-107.10290069309016"><ele>2176.0</ele><time>2026-05-03T16:59:36.001Z</time></trkpt><trkpt lat="36.00938111351758" lon="-107.10293044884907"><ele>2176.2</ele><time>2026-05-03T16:59:38.001Z</time></trkpt><trkpt lat="36.00948153296626" lon="-107.10293063344099"><ele>2176.3999999999996</ele><time>2026-05-03T16:59:40.001Z</time></trkpt><trkpt lat="36.00957083085025" lon="-107.10292285824755"><ele>2176.6</ele><time>2026-05-03T16:59:42.001Z</time></trkpt><trkpt lat="36.00960700968889" lon="-107.10278694087934"><ele>2176.7999999999997</ele><time>2026-05-03T16:59:45.001Z</time></trkpt><trkpt lat="36.00965076861802" lon="-107.10269956832808"><ele>2177.0</ele><time>2026-05-03T16:59:47.001Z</time></trkpt><trkpt lat="36.009761333712234" lon="-107.10262982578278"><ele>2177.0</ele><time>2026-05-03T16:59:49.001Z</time></trkpt><trkpt lat="36.00981513150289" lon="-107.1025893203886"><ele>2177.0</ele><time>2026-05-03T16:59:50.001Z</time></trkpt><trkpt lat="36.00991577810704" lon="-107.10260735123823"><ele>2177.0</ele><time>2026-05-03T16:59:51.001Z</time></trkpt><trkpt lat="36.00998193727121" lon="-107.1025719417794"><ele>2177.0</ele><time>2026-05-03T16:59:52.001Z</time></trkpt><trkpt lat="36.01007276093126" lon="-107.10249865896179"><ele>2177.0</ele><time>2026-05-03T16:59:53.001Z</time></trkpt><trkpt lat="36.01018432003024" lon="-107.10244389472334"><ele>2177.5</ele><time>2026-05-03T16:59:54.001Z</time></trkpt><trkpt lat="36.01033788114268" lon="-107.10223208706964"><ele>2178.0</ele><time>2026-05-03T16:59:55.001Z</time></trkpt><trkpt lat="36.01037269838949" lon="-107.10216103736903"><ele>2178.5</ele><time>2026-05-03T16:59:56.001Z</time></trkpt><trkpt lat="36.01045070542038" lon="-107.10213351576496"><ele>2179.0</ele><time>2026-05-03T16:59:57.001Z</time></trkpt><trkpt lat="36.010522024548436" lon="-107.10206593542377"><ele>2179.0</ele><time>2026-05-03T16:59:58.001Z</time></trkpt><trkpt lat="36.010561036000134" lon="-107.10198927062376"><ele>2179.0</ele><time>2026-05-03T16:59:59.001Z</time></trkpt><trkpt lat="36.01061547257985" lon="-107.1019238121762"><ele>2179.0</ele><time>2026-05-03T17:00:00.001Z</time></trkpt><trkpt lat="36.01067971249585" lon="-107.1018793727272"><ele>2179.0</ele><time>2026-05-03T17:00:01.001Z</time></trkpt><trkpt lat="36.01074859002603" lon="-107.10183319215412"><ele>2179.0</ele><time>2026-05-03T17:00:02.001Z</time></trkpt><trkpt lat="36.010825641608314" lon="-107.10178792712394"><ele>2179.0</ele><time>2026-05-03T17:00:03.001Z</time></trkpt><trkpt lat="36.01089079580673" lon="-107.10176211360533"><ele>2179.3333333333335</ele><time>2026-05-03T17:00:04.001Z</time></trkpt><trkpt lat="36.01096365402068" lon="-107.10175786489877"><ele>2179.666666666667</ele><time>2026-05-03T17:00:05.001Z</time></trkpt><trkpt lat="36.01106761353353" lon="-107.10175043165302"><ele>2180.0</ele><time>2026-05-03T17:00:06.001Z</time></trkpt><trkpt lat="36.01114557434019" lon="-107.10173328699582"><ele>2180.3333333333335</ele><time>2026-05-03T17:00:07.001Z</time></trkpt><trkpt lat="36.01122923749746" lon="-107.10176798609912"><ele>2180.6666666666665</ele><time>2026-05-03T17:00:09.001Z</time></trkpt><trkpt lat="36.01124415119743" lon="-107.10184860684858"><ele>2181.0</ele><time>2026-05-03T17:00:11.001Z</time></trkpt><trkpt lat="36.01122509141446" lon="-107.10197755177437"><ele>2181.0</ele><time>2026-05-03T17:00:13.001Z</time></trkpt><trkpt lat="36.01120932759088" lon="-107.10206047229347"><ele>2181.0</ele><time>2026-05-03T17:00:16.001Z</time></trkpt><trkpt lat="36.0113755584749" lon="-107.1020401120463"><ele>2181.0</ele><time>2026-05-03T17:00:17.001Z</time></trkpt><trkpt lat="36.01131263382987" lon="-107.10219216929762"><ele>2181.0</ele><time>2026-05-03T17:00:18.001Z</time></trkpt><trkpt lat="36.01130949432919" lon="-107.10231524199293"><ele>2180.8333333333335</ele><time>2026-05-03T17:00:19.001Z</time></trkpt><trkpt lat="36.01129738672414" lon="-107.10244040071863"><ele>2180.6666666666665</ele><time>2026-05-03T17:00:20.001Z</time></trkpt><trkpt lat="36.01131647557313" lon="-107.10252131216062"><ele>2180.5</ele><time>2026-05-03T17:00:21.001Z</time></trkpt><trkpt lat="36.01135738222696" lon="-107.10258290232754"><ele>2180.333333333333</ele><time>2026-05-03T17:00:22.001Z</time></trkpt><trkpt lat="36.01144814326071" lon="-107.10259545493192"><ele>2180.1666666666665</ele><time>2026-05-03T17:00:23.001Z</time></trkpt><trkpt lat="36.01154251553873" lon="-107.10259309790136"><ele>2180.0</ele><time>2026-05-03T17:00:24.001Z</time></trkpt><trkpt lat="36.01163510632893" lon="-107.10257050233227"><ele>2180.5</ele><time>2026-05-03T17:00:25.001Z</time></trkpt><trkpt lat="36.01172120349086" lon="-107.10253442912139"><ele>2181.0</ele><time>2026-05-03T17:00:26.001Z</time></trkpt><trkpt lat="36.01179623011" lon="-107.10253354919124"><ele>2181.5</ele><time>2026-05-03T17:00:27.001Z</time></trkpt><trkpt lat="36.01186030133079" lon="-107.1025288344857"><ele>2182.0</ele><time>2026-05-03T17:00:28.001Z</time></trkpt><trkpt lat="36.011957929416376" lon="-107.1024702740827"><ele>2182.5</ele><time>2026-05-03T17:00:30.001Z</time></trkpt><trkpt lat="36.01201282682238" lon="-107.10242414853025"><ele>2183.0</ele><time>2026-05-03T17:00:31.001Z</time></trkpt><trkpt lat="36.01208621972254" lon="-107.10237028943736"><ele>2183.0</ele><time>2026-05-03T17:00:32.001Z</time></trkpt><trkpt lat="36.012162979396564" lon="-107.10231873462988"><ele>2183.0</ele><time>2026-05-03T17:00:33.001Z</time></trkpt><trkpt lat="36.0122462285663" lon="-107.10227735101134"><ele>2183.0</ele><time>2026-05-03T17:00:34.001Z</time></trkpt><trkpt lat="36.012336771192665" lon="-107.10223789586533"><ele>2183.0</ele><time>2026-05-03T17:00:35.001Z</time></trkpt><trkpt lat="36.01244610663501" lon="-107.10216656836259"><ele>2183.0</ele><time>2026-05-03T17:00:36.001Z</time></trkpt><trkpt lat="36.01261085894593" lon="-107.10202084352588"><ele>2183.333333333333</ele><time>2026-05-03T17:00:37.001Z</time></trkpt><trkpt lat="36.01269700810485" lon="-107.1019818978658"><ele>2183.6666666666665</ele><time>2026-05-03T17:00:38.001Z</time></trkpt><trkpt lat="36.012757014816444" lon="-107.1019544372144"><ele>2184.0</ele><time>2026-05-03T17:00:39.001Z</time></trkpt><trkpt lat="36.01284412864774" lon="-107.10193975067448"><ele>2184.3333333333335</ele><time>2026-05-03T17:00:40.001Z</time></trkpt><trkpt lat="36.01295276772699" lon="-107.10193614206977"><ele>2184.666666666667</ele><time>2026-05-03T17:00:41.001Z</time></trkpt><trkpt lat="36.01304529806476" lon="-107.1019405647906"><ele>2185.0</ele><time>2026-05-03T17:00:42.001Z</time></trkpt><trkpt lat="36.013115348815745" lon="-107.10194871474812"><ele>2185.0</ele><time>2026-05-03T17:00:43Z</time></trkpt><trkpt lat="36.013185482865985" lon="-107.10193616728796"><ele>2185.0</ele><time>2026-05-03T17:00:44Z</time></trkpt><trkpt lat="36.01326212596788" lon="-107.10189607279848"><ele>2185.0</ele><time>2026-05-03T17:00:45Z</time></trkpt><trkpt lat="36.013366036349865" lon="-107.10187831701774"><ele>2185.0</ele><time>2026-05-03T17:00:46Z</time></trkpt><trkpt lat="36.0134996812624" lon="-107.10186164541017"><ele>2185.0</ele><time>2026-05-03T17:00:47Z</time></trkpt><trkpt lat="36.01360101296854" lon="-107.10186399498407"><ele>2186.2</ele><time>2026-05-03T17:00:48Z</time></trkpt><trkpt lat="36.01370933657124" lon="-107.10185442845594"><ele>2187.4</ele><time>2026-05-03T17:00:49Z</time></trkpt><trkpt lat="36.01382219313147" lon="-107.10184444876538"><ele>2188.6</ele><time>2026-05-03T17:00:50Z</time></trkpt><trkpt lat="36.013931993009805" lon="-107.10182480698514"><ele>2189.8</ele><time>2026-05-03T17:00:51Z</time></trkpt><trkpt lat="36.014033797118095" lon="-107.10181440756601"><ele>2191.0</ele><time>2026-05-03T17:00:52Z</time></trkpt><trkpt lat="36.0141274704089" lon="-107.10181610720377"><ele>2191.666666666667</ele><time>2026-05-03T17:00:53Z</time></trkpt><trkpt lat="36.01421481630102" lon="-107.10180725272066"><ele>2192.3333333333335</ele><time>2026-05-03T17:00:54Z</time></trkpt><trkpt lat="36.01429037351851" lon="-107.10180343442987"><ele>2193.0</ele><time>2026-05-03T17:00:55Z</time></trkpt><trkpt lat="36.01435784756232" lon="-107.10178182616588"><ele>2193.6666666666665</ele><time>2026-05-03T17:00:56Z</time></trkpt><trkpt lat="36.01442254928714" lon="-107.10172927339543"><ele>2194.333333333333</ele><time>2026-05-03T17:00:57Z</time></trkpt><trkpt lat="36.01449866005047" lon="-107.10168905306712"><ele>2195.0</ele><time>2026-05-03T17:00:58Z</time></trkpt><trkpt lat="36.01457600953269" lon="-107.10164080871736"><ele>2195.0</ele><time>2026-05-03T17:00:59Z</time></trkpt><trkpt lat="36.01463468937027" lon="-107.10160204177225"><ele>2195.0</ele><time>2026-05-03T17:01:00Z</time></trkpt><trkpt lat="36.01469719630067" lon="-107.10150269411047"><ele>2195.0</ele><time>2026-05-03T17:01:02Z</time></trkpt><trkpt lat="36.01474658098549" lon="-107.10143496298917"><ele>2195.0</ele><time>2026-05-03T17:01:03Z</time></trkpt><trkpt lat="36.01482943255967" lon="-107.10134656141801"><ele>2195.0</ele><time>2026-05-03T17:01:05Z</time></trkpt><trkpt lat="36.01495621559931" lon="-107.10126345733903"><ele>2196.2</ele><time>2026-05-03T17:01:07Z</time></trkpt><trkpt lat="36.015036107623274" lon="-107.10119624518528"><ele>2197.4</ele><time>2026-05-03T17:01:08Z</time></trkpt><trkpt lat="36.015119609339386" lon="-107.1011205571453"><ele>2198.6</ele><time>2026-05-03T17:01:09Z</time></trkpt><trkpt lat="36.01518862736925" lon="-107.10102683563555"><ele>2199.8</ele><time>2026-05-03T17:01:10Z</time></trkpt><trkpt lat="36.01525312542544" lon="-107.10096582843646"><ele>2201.0</ele><time>2026-05-03T17:01:11Z</time></trkpt><trkpt lat="36.01533049962562" lon="-107.1009224331706"><ele>2201.0</ele><time>2026-05-03T17:01:12Z</time></trkpt><trkpt lat="36.01541556912925" lon="-107.10086700611822"><ele>2201.0</ele><time>2026-05-03T17:01:13Z</time></trkpt><trkpt lat="36.015502047653264" lon="-107.10083059758361"><ele>2201.0</ele><time>2026-05-03T17:01:14Z</time></trkpt><trkpt lat="36.01560500720711" lon="-107.1008015279636"><ele>2201.0</ele><time>2026-05-03T17:01:15Z</time></trkpt><trkpt lat="36.01569948318626" lon="-107.10072650045188"><ele>2201.0</ele><time>2026-05-03T17:01:16Z</time></trkpt><trkpt lat="36.015792397199505" lon="-107.10066184911435"><ele>2202.4</ele><time>2026-05-03T17:01:17Z</time></trkpt><trkpt lat="36.01587508051793" lon="-107.10060175768514"><ele>2203.8</ele><time>2026-05-03T17:01:18Z</time></trkpt><trkpt lat="36.015973924741665" lon="-107.10054958830844"><ele>2205.2000000000003</ele><time>2026-05-03T17:01:19Z</time></trkpt><trkpt lat="36.01608232996983" lon="-107.10049263365892"><ele>2206.6</ele><time>2026-05-03T17:01:20Z</time></trkpt><trkpt lat="36.01617238102179" lon="-107.10043246166705"><ele>2208.0</ele><time>2026-05-03T17:01:21Z</time></trkpt><trkpt lat="36.01625251659201" lon="-107.100373763134"><ele>2208.0</ele><time>2026-05-03T17:01:22Z</time></trkpt><trkpt lat="36.016310748414554" lon="-107.1003182180558"><ele>2208.0</ele><time>2026-05-03T17:01:23Z</time></trkpt><trkpt lat="36.01637104341301" lon="-107.10023443711482"><ele>2208.0</ele><time>2026-05-03T17:01:24Z</time></trkpt><trkpt lat="36.01641533635087" lon="-107.1001470854175"><ele>2208.0</ele><time>2026-05-03T17:01:25Z</time></trkpt><trkpt lat="36.01644506591103" lon="-107.10006578220994"><ele>2208.0</ele><time>2026-05-03T17:01:26Z</time></trkpt><trkpt lat="36.016514157781046" lon="-107.10000693347376"><ele>2208.0</ele><time>2026-05-03T17:01:27Z</time></trkpt><trkpt lat="36.01661615929867" lon="-107.09994897122677"><ele>2208.3333333333335</ele><time>2026-05-03T17:01:28Z</time></trkpt><trkpt lat="36.01670695457825" lon="-107.0998968964599"><ele>2208.6666666666665</ele><time>2026-05-03T17:01:29.001Z</time></trkpt><trkpt lat="36.01677912616121" lon="-107.09985492356311"><ele>2209.0</ele><time>2026-05-03T17:01:30.001Z</time></trkpt><trkpt lat="36.01683802590425" lon="-107.0998266997245"><ele>2209.333333333333</ele><time>2026-05-03T17:01:31.001Z</time></trkpt><trkpt lat="36.01694770914861" lon="-107.09983279957251"><ele>2209.6666666666665</ele><time>2026-05-03T17:01:33.001Z</time></trkpt><trkpt lat="36.0170320742253" lon="-107.09982882749236"><ele>2210.0</ele><time>2026-05-03T17:01:35.001Z</time></trkpt><trkpt lat="36.017107768364845" lon="-107.09978543063066"><ele>2210.0</ele><time>2026-05-03T17:01:36.001Z</time></trkpt><trkpt lat="36.01718873665764" lon="-107.0996828728395"><ele>2210.0</ele><time>2026-05-03T17:01:37.001Z</time></trkpt><trkpt lat="36.01726572161124" lon="-107.09957637362689"><ele>2210.0</ele><time>2026-05-03T17:01:38.001Z</time></trkpt><trkpt lat="36.01730140217709" lon="-107.09944040999662"><ele>2210.0</ele><time>2026-05-03T17:01:40.001Z</time></trkpt><trkpt lat="36.01739687717691" lon="-107.0994103973746"><ele>2210.0</ele><time>2026-05-03T17:01:42.001Z</time></trkpt><trkpt lat="36.01747727492909" lon="-107.0994216536776"><ele>2210.0</ele><time>2026-05-03T17:01:43.001Z</time></trkpt><trkpt lat="36.01758476238706" lon="-107.09941961671717"><ele>2210.0</ele><time>2026-05-03T17:01:45.001Z</time></trkpt><trkpt lat="36.0176806108882" lon="-107.09938317536651"><ele>2210.0</ele><time>2026-05-03T17:01:47.001Z</time></trkpt><trkpt lat="36.01776111576115" lon="-107.09931151343169"><ele>2210.0</ele><time>2026-05-03T17:01:49.001Z</time></trkpt><trkpt lat="36.017839891190455" lon="-107.09924657151237"><ele>2210.0</ele><time>2026-05-03T17:01:51.001Z</time></trkpt><trkpt lat="36.017877972230636" lon="-107.09918050303693"><ele>2210.0</ele><time>2026-05-03T17:01:52.001Z</time></trkpt><trkpt lat="36.01791653409663" lon="-107.09910480577015"><ele>2210.0</ele><time>2026-05-03T17:01:53.001Z</time></trkpt><trkpt lat="36.01797355427297" lon="-107.09901923379704"><ele>2210.0</ele><time>2026-05-03T17:01:55.001Z</time></trkpt><trkpt lat="36.018050517935286" lon="-107.09901055389331"><ele>2210.0</ele><time>2026-05-03T17:01:56.001Z</time></trkpt><trkpt lat="36.018117356412525" lon="-107.09901438916353"><ele>2210.0</ele><time>2026-05-03T17:01:57.001Z</time></trkpt><trkpt lat="36.01817895341728" lon="-107.09905013964219"><ele>2210.0</ele><time>2026-05-03T17:01:59.001Z</time></trkpt><trkpt lat="36.01831046635651" lon="-107.09912275386625"><ele>2211.5</ele><time>2026-05-03T17:02:01.001Z</time></trkpt><trkpt lat="36.01837966879254" lon="-107.09913650382626"><ele>2213.0</ele><time>2026-05-03T17:02:02.001Z</time></trkpt><trkpt lat="36.01841807182052" lon="-107.09904146828781"><ele>2214.5</ele><time>2026-05-03T17:02:05.001Z</time></trkpt><trkpt lat="36.018587239447626" lon="-107.09898767157767"><ele>2216.0</ele><time>2026-05-03T17:02:08.001Z</time></trkpt><trkpt lat="36.01863052149776" lon="-107.09883812086292"><ele>2216.4</ele><time>2026-05-03T17:02:10.001Z</time></trkpt><trkpt lat="36.01867938195031" lon="-107.09872056895061"><ele>2216.8</ele><time>2026-05-03T17:02:11.001Z</time></trkpt><trkpt lat="36.01871696606825" lon="-107.09862215024005"><ele>2217.2000000000003</ele><time>2026-05-03T17:02:12.001Z</time></trkpt><trkpt lat="36.018700880635635" lon="-107.09852080462753"><ele>2217.6</ele><time>2026-05-03T17:02:13.001Z</time></trkpt><trkpt lat="36.01869646521977" lon="-107.09839771253955"><ele>2218.0</ele><time>2026-05-03T17:02:15.001Z</time></trkpt><trkpt lat="36.01867520654871" lon="-107.09830046954978"><ele>2218.2000000000003</ele><time>2026-05-03T17:02:17.001Z</time></trkpt><trkpt lat="36.01866830882408" lon="-107.09820194163694"><ele>2218.4</ele><time>2026-05-03T17:02:19.001Z</time></trkpt><trkpt lat="36.01875196004211" lon="-107.09815804811284"><ele>2218.6000000000004</ele><time>2026-05-03T17:02:23.001Z</time></trkpt><trkpt lat="36.018824531719154" lon="-107.09812471591225"><ele>2218.8</ele><time>2026-05-03T17:02:26.001Z</time></trkpt><trkpt lat="36.018889466484275" lon="-107.0980426851102"><ele>2219.0</ele><time>2026-05-03T17:02:28.001Z</time></trkpt><trkpt lat="36.018992614484695" lon="-107.09798670808871"><ele>2219.0</ele><time>2026-05-03T17:02:30.001Z</time></trkpt><trkpt lat="36.01907508467327" lon="-107.09792158723151"><ele>2219.0</ele><time>2026-05-03T17:02:31.001Z</time></trkpt><trkpt lat="36.01915665791699" lon="-107.09783091779752"><ele>2219.0</ele><time>2026-05-03T17:02:32.001Z</time></trkpt><trkpt lat="36.01923871399236" lon="-107.09775187264667"><ele>2219.0</ele><time>2026-05-03T17:02:33.001Z</time></trkpt><trkpt lat="36.01931266364074" lon="-107.09768656272462"><ele>2219.0</ele><time>2026-05-03T17:02:34.001Z</time></trkpt><trkpt lat="36.0193702309635" lon="-107.0976285949629"><ele>2221.4</ele><time>2026-05-03T17:02:35.001Z</time></trkpt><trkpt lat="36.019436516728085" lon="-107.09756571042936"><ele>2223.8</ele><time>2026-05-03T17:02:36.001Z</time></trkpt><trkpt lat="36.01952671123109" lon="-107.09756107898576"><ele>2226.2</ele><time>2026-05-03T17:02:37.001Z</time></trkpt><trkpt lat="36.01963426802457" lon="-107.09755162270739"><ele>2228.6</ele><time>2026-05-03T17:02:38.001Z</time></trkpt><trkpt lat="36.019724757908094" lon="-107.09751726813211"><ele>2231.0</ele><time>2026-05-03T17:02:39.001Z</time></trkpt><trkpt lat="36.01978969642475" lon="-107.09744748161422"><ele>2231.8</ele><time>2026-05-03T17:02:40.001Z</time></trkpt><trkpt lat="36.01986169502937" lon="-107.0973665839232"><ele>2232.6</ele><time>2026-05-03T17:02:41.001Z</time></trkpt><trkpt lat="36.01996152851588" lon="-107.09730462412622"><ele>2233.4</ele><time>2026-05-03T17:02:42.001Z</time></trkpt><trkpt lat="36.020059549269085" lon="-107.09726241226551"><ele>2234.2</ele><time>2026-05-03T17:02:43.001Z</time></trkpt><trkpt lat="36.020137093171485" lon="-107.09720859464116"><ele>2235.0</ele><time>2026-05-03T17:02:44.001Z</time></trkpt><trkpt lat="36.020217111659605" lon="-107.09714793851954"><ele>2237.4</ele><time>2026-05-03T17:02:45.001Z</time></trkpt><trkpt lat="36.02030519695703" lon="-107.09706921128817"><ele>2239.8</ele><time>2026-05-03T17:02:46.001Z</time></trkpt><trkpt lat="36.020373689475164" lon="-107.09701031320841"><ele>2242.2</ele><time>2026-05-03T17:02:47.001Z</time></trkpt><trkpt lat="36.02049514931585" lon="-107.09693017887759"><ele>2244.6</ele><time>2026-05-03T17:02:49Z</time></trkpt><trkpt lat="36.020583320929205" lon="-107.09688622234435"><ele>2247.0</ele><time>2026-05-03T17:02:50Z</time></trkpt><trkpt lat="36.020662276922785" lon="-107.09682364566407"><ele>2247.0</ele><time>2026-05-03T17:02:51Z</time></trkpt><trkpt lat="36.02074209236721" lon="-107.09675125827229"><ele>2247.0</ele><time>2026-05-03T17:02:52Z</time></trkpt><trkpt lat="36.02084014526064" lon="-107.09668777854446"><ele>2247.0</ele><time>2026-05-03T17:02:53Z</time></trkpt><trkpt lat="36.02093831592144" lon="-107.09663781831046"><ele>2247.0</ele><time>2026-05-03T17:02:54Z</time></trkpt><trkpt lat="36.02101915407609" lon="-107.09657978542064"><ele>2247.0</ele><time>2026-05-03T17:02:55Z</time></trkpt><trkpt lat="36.02108109890627" lon="-107.09653808133643"><ele>2246.4</ele><time>2026-05-03T17:02:56Z</time></trkpt><trkpt lat="36.0212083431942" lon="-107.09659118459403"><ele>2245.7999999999997</ele><time>2026-05-03T17:02:58Z</time></trkpt><trkpt lat="36.021281766425766" lon="-107.09663686043382"><ele>2245.2</ele><time>2026-05-03T17:02:59Z</time></trkpt><trkpt lat="36.021346820520634" lon="-107.09669998471685"><ele>2244.6</ele><time>2026-05-03T17:03:00Z</time></trkpt><trkpt lat="36.02141640992121" lon="-107.09676274624312"><ele>2244.0</ele><time>2026-05-03T17:03:01Z</time></trkpt><trkpt lat="36.021498522336174" lon="-107.09682147171434"><ele>2244.0</ele><time>2026-05-03T17:03:02Z</time></trkpt><trkpt lat="36.02155800448511" lon="-107.09686192645407"><ele>2244.0</ele><time>2026-05-03T17:03:03Z</time></trkpt><trkpt lat="36.02160880042833" lon="-107.096927583233"><ele>2244.0</ele><time>2026-05-03T17:03:04Z</time></trkpt><trkpt lat="36.02167875929542" lon="-107.09700687380543"><ele>2244.0</ele><time>2026-05-03T17:03:05Z</time></trkpt><trkpt lat="36.02175279314011" lon="-107.09706002122017"><ele>2244.0</ele><time>2026-05-03T17:03:06Z</time></trkpt><trkpt lat="36.02181930803649" lon="-107.09711894054121"><ele>2244.0</ele><time>2026-05-03T17:03:07Z</time></trkpt><trkpt lat="36.02188702912507" lon="-107.09716587540639"><ele>2243.6</ele><time>2026-05-03T17:03:08Z</time></trkpt><trkpt lat="36.02196715253303" lon="-107.09720344678193"><ele>2243.2</ele><time>2026-05-03T17:03:09Z</time></trkpt><trkpt lat="36.02202787500077" lon="-107.09723271453906"><ele>2242.7999999999997</ele><time>2026-05-03T17:03:10Z</time></trkpt><trkpt lat="36.02215678043608" lon="-107.09725985504176"><ele>2242.4</ele><time>2026-05-03T17:03:12Z</time></trkpt><trkpt lat="36.022264684178026" lon="-107.0972216577699"><ele>2242.0</ele><time>2026-05-03T17:03:13Z</time></trkpt><trkpt lat="36.02239923376456" lon="-107.09713951770587"><ele>2239.666666666667</ele><time>2026-05-03T17:03:14Z</time></trkpt><trkpt lat="36.02257132707977" lon="-107.09705203211615"><ele>2237.3333333333335</ele><time>2026-05-03T17:03:15Z</time></trkpt><trkpt lat="36.0227681073118" lon="-107.09700369433014"><ele>2235.0</ele><time>2026-05-03T17:03:16Z</time></trkpt><trkpt lat="36.02297819688929" lon="-107.09694755985075"><ele>2235.0</ele><time>2026-05-03T17:03:17Z</time></trkpt><trkpt lat="36.02317495554487" lon="-107.09689688353103"><ele>2235.0</ele><time>2026-05-03T17:03:18Z</time></trkpt><trkpt lat="36.02333994706801" lon="-107.09685858996305"><ele>2235.0</ele><time>2026-05-03T17:03:19Z</time></trkpt><trkpt lat="36.02349529436866" lon="-107.0968000813161"><ele>2232.6666666666665</ele><time>2026-05-03T17:03:20Z</time></trkpt><trkpt lat="36.02364196169992" lon="-107.09672131294748"><ele>2230.333333333333</ele><time>2026-05-03T17:03:21Z</time></trkpt><trkpt lat="36.02377744689131" lon="-107.0966624365191"><ele>2228.0</ele><time>2026-05-03T17:03:22Z</time></trkpt><trkpt lat="36.023922161557174" lon="-107.09662802737378"><ele>2228.0</ele><time>2026-05-03T17:03:23Z</time></trkpt><trkpt lat="36.02406186985783" lon="-107.0965873376841"><ele>2228.0</ele><time>2026-05-03T17:03:24Z</time></trkpt><trkpt lat="36.02418055347498" lon="-107.09655055810407"><ele>2228.0</ele><time>2026-05-03T17:03:25Z</time></trkpt><trkpt lat="36.02426250156293" lon="-107.0965332308337"><ele>2228.0</ele><time>2026-05-03T17:03:26Z</time></trkpt><trkpt lat="36.02435748989009" lon="-107.09658024149492"><ele>2226.75</ele><time>2026-05-03T17:03:28Z</time></trkpt><trkpt lat="36.02441681210054" lon="-107.09673293210442"><ele>2225.5</ele><time>2026-05-03T17:03:30Z</time></trkpt><trkpt lat="36.02441030826302" lon="-107.09685601843869"><ele>2224.25</ele><time>2026-05-03T17:03:31Z</time></trkpt><trkpt lat="36.02441738996579" lon="-107.09701093610121"><ele>2223.0</ele><time>2026-05-03T17:03:32Z</time></trkpt><trkpt lat="36.02446477402822" lon="-107.09715724171441"><ele>2223.0</ele><time>2026-05-03T17:03:33Z</time></trkpt><trkpt lat="36.024536831491794" lon="-107.09730158788773"><ele>2223.0</ele><time>2026-05-03T17:03:34Z</time></trkpt><trkpt lat="36.02463593202439" lon="-107.09742807896625"><ele>2223.0</ele><time>2026-05-03T17:03:35Z</time></trkpt><trkpt lat="36.02470711446128" lon="-107.0975152469679"><ele>2223.0</ele><time>2026-05-03T17:03:36Z</time></trkpt><trkpt lat="36.02478785803291" lon="-107.09754335079816"><ele>2223.25</ele><time>2026-05-03T17:03:37.001Z</time></trkpt><trkpt lat="36.02489782510426" lon="-107.0975477643326"><ele>2223.5</ele><time>2026-05-03T17:03:38.001Z</time></trkpt><trkpt lat="36.02503154902569" lon="-107.09754690222032"><ele>2223.75</ele><time>2026-05-03T17:03:39.001Z</time></trkpt><trkpt lat="36.02516791873529" lon="-107.09756587665319"><ele>2224.0</ele><time>2026-05-03T17:03:40.001Z</time></trkpt><trkpt lat="36.02526454945019" lon="-107.09762645427635"><ele>2223.6</ele><time>2026-05-03T17:03:41.001Z</time></trkpt><trkpt lat="36.0253698558897" lon="-107.09768398379667"><ele>2223.2</ele><time>2026-05-03T17:03:42.001Z</time></trkpt><trkpt lat="36.02547103153053" lon="-107.09774646881422"><ele>2222.7999999999997</ele><time>2026-05-03T17:03:43.001Z</time></trkpt><trkpt lat="36.025561073773204" lon="-107.09783325308808"><ele>2222.4</ele><time>2026-05-03T17:03:44.001Z</time></trkpt><trkpt lat="36.025630291333954" lon="-107.09789882407068"><ele>2222.0</ele><time>2026-05-03T17:03:45.001Z</time></trkpt><trkpt lat="36.02572525203108" lon="-107.09792443404505"><ele>2222.2</ele><time>2026-05-03T17:03:46.001Z</time></trkpt><trkpt lat="36.025827315470366" lon="-107.09791861141473"><ele>2222.3999999999996</ele><time>2026-05-03T17:03:47.001Z</time></trkpt><trkpt lat="36.02591178008918" lon="-107.09788944269926"><ele>2222.6000000000004</ele><time>2026-05-03T17:03:48.001Z</time></trkpt><trkpt lat="36.02599420399371" lon="-107.09782655803184"><ele>2222.8</ele><time>2026-05-03T17:03:49.001Z</time></trkpt><trkpt lat="36.026092458311396" lon="-107.09776821606879"><ele>2223.0</ele><time>2026-05-03T17:03:50.001Z</time></trkpt><trkpt lat="36.026214909771696" lon="-107.09774002928222"><ele>2223.0</ele><time>2026-05-03T17:03:51.001Z</time></trkpt><trkpt lat="36.0263414425111" lon="-107.09771734683079"><ele>2223.0</ele><time>2026-05-03T17:03:52.001Z</time></trkpt><trkpt lat="36.026465816975346" lon="-107.09770044752497"><ele>2223.0</ele><time>2026-05-03T17:03:53.001Z</time></trkpt><trkpt lat="36.02661044319459" lon="-107.09771241986087"><ele>2223.0</ele><time>2026-05-03T17:03:54.001Z</time></trkpt><trkpt lat="36.026790611090576" lon="-107.09774815344949"><ele>2222.6666666666665</ele><time>2026-05-03T17:03:55.001Z</time></trkpt><trkpt lat="36.02698738109201" lon="-107.09777597712964"><ele>2222.333333333333</ele><time>2026-05-03T17:03:56.001Z</time></trkpt><trkpt lat="36.027158675268154" lon="-107.09779507641544"><ele>2222.0</ele><time>2026-05-03T17:03:57.001Z</time></trkpt><trkpt lat="36.02730578961156" lon="-107.09782245931243"><ele>2222.0</ele><time>2026-05-03T17:03:58.001Z</time></trkpt><trkpt lat="36.02743095682639" lon="-107.09785453246957"><ele>2222.0</ele><time>2026-05-03T17:03:59.001Z</time></trkpt><trkpt lat="36.0275623036833" lon="-107.09787241768916"><ele>2222.0</ele><time>2026-05-03T17:04:00.001Z</time></trkpt><trkpt lat="36.02768932748249" lon="-107.09790317946126"><ele>2222.0</ele><time>2026-05-03T17:04:01.001Z</time></trkpt><trkpt lat="36.027793949826005" lon="-107.09798487961109"><ele>2222.0</ele><time>2026-05-03T17:04:02.001Z</time></trkpt><trkpt lat="36.02789896357944" lon="-107.09808272827293"><ele>2222.0</ele><time>2026-05-03T17:04:03.001Z</time></trkpt><trkpt lat="36.02800108859569" lon="-107.09816828318542"><ele>2222.0</ele><time>2026-05-03T17:04:04.001Z</time></trkpt><trkpt lat="36.028112493629315" lon="-107.09824845380558"><ele>2222.0</ele><time>2026-05-03T17:04:05.001Z</time></trkpt><trkpt lat="36.02824050488819" lon="-107.09834041516508"><ele>2222.75</ele><time>2026-05-03T17:04:06.001Z</time></trkpt><trkpt lat="36.02835462195328" lon="-107.09846373793866"><ele>2223.5</ele><time>2026-05-03T17:04:07.001Z</time></trkpt><trkpt lat="36.028465701849555" lon="-107.0985808852564"><ele>2224.25</ele><time>2026-05-03T17:04:08.001Z</time></trkpt><trkpt lat="36.02857174970042" lon="-107.09866042551509"><ele>2225.0</ele><time>2026-05-03T17:04:09.001Z</time></trkpt><trkpt lat="36.0286816841632" lon="-107.09872612229202"><ele>2225.0</ele><time>2026-05-03T17:04:10.001Z</time></trkpt><trkpt lat="36.02879401598706" lon="-107.09881248968406"><ele>2225.0</ele><time>2026-05-03T17:04:11.001Z</time></trkpt><trkpt lat="36.0289091006956" lon="-107.09893287319845"><ele>2225.0</ele><time>2026-05-03T17:04:12.001Z</time></trkpt><trkpt lat="36.0290379351479" lon="-107.09904500856251"><ele>2225.0</ele><time>2026-05-03T17:04:13.001Z</time></trkpt><trkpt lat="36.029130316755854" lon="-107.09911840879471"><ele>2225.0</ele><time>2026-05-03T17:04:14.001Z</time></trkpt><trkpt lat="36.02922532968996" lon="-107.09915351583723"><ele>2225.0</ele><time>2026-05-03T17:04:15.001Z</time></trkpt><trkpt lat="36.02933273407799" lon="-107.09916151564893"><ele>2225.0</ele><time>2026-05-03T17:04:16.001Z</time></trkpt><trkpt lat="36.02946444056552" lon="-107.09919154741056"><ele>2225.0</ele><time>2026-05-03T17:04:17.001Z</time></trkpt><trkpt lat="36.029590118989645" lon="-107.09921732215372"><ele>2225.0</ele><time>2026-05-03T17:04:18.001Z</time></trkpt><trkpt lat="36.029725519454814" lon="-107.09924354182375"><ele>2225.0</ele><time>2026-05-03T17:04:19.001Z</time></trkpt><trkpt lat="36.0298757735828" lon="-107.09927701600395"><ele>2225.0</ele><time>2026-05-03T17:04:20.001Z</time></trkpt><trkpt lat="36.03002306010987" lon="-107.09932312615182"><ele>2225.0</ele><time>2026-05-03T17:04:21.001Z</time></trkpt><trkpt lat="36.03015784678846" lon="-107.09935123262714"><ele>2225.4</ele><time>2026-05-03T17:04:22.001Z</time></trkpt><trkpt lat="36.030286747534085" lon="-107.09936488536135"><ele>2225.8</ele><time>2026-05-03T17:04:23.001Z</time></trkpt><trkpt lat="36.030398485202014" lon="-107.09937045190738"><ele>2226.2</ele><time>2026-05-03T17:04:24.001Z</time></trkpt><trkpt lat="36.03050116331109" lon="-107.09935507662968"><ele>2226.6</ele><time>2026-05-03T17:04:25.001Z</time></trkpt><trkpt lat="36.03059785040359" lon="-107.09932767555334"><ele>2227.0</ele><time>2026-05-03T17:04:26.001Z</time></trkpt><trkpt lat="36.03073374993248" lon="-107.09937168226172"><ele>2226.3333333333335</ele><time>2026-05-03T17:04:28.001Z</time></trkpt><trkpt lat="36.03085723906223" lon="-107.09942098061408"><ele>2225.6666666666665</ele><time>2026-05-03T17:04:29.001Z</time></trkpt><trkpt lat="36.031026247549214" lon="-107.0994448283785"><ele>2225.0</ele><time>2026-05-03T17:04:30.001Z</time></trkpt><trkpt lat="36.031208516477314" lon="-107.09946172477743"><ele>2225.0</ele><time>2026-05-03T17:04:31.001Z</time></trkpt><trkpt lat="36.03136508284504" lon="-107.09946309639541"><ele>2225.0</ele><time>2026-05-03T17:04:32.001Z</time></trkpt><trkpt lat="36.03151085925217" lon="-107.099452908948"><ele>2225.0</ele><time>2026-05-03T17:04:33.001Z</time></trkpt><trkpt lat="36.03164693881318" lon="-107.09943508002686"><ele>2225.0</ele><time>2026-05-03T17:04:34.001Z</time></trkpt><trkpt lat="36.03178812886879" lon="-107.09942039706178"><ele>2224.333333333333</ele><time>2026-05-03T17:04:35.001Z</time></trkpt><trkpt lat="36.031937708496564" lon="-107.09942404803537"><ele>2223.6666666666665</ele><time>2026-05-03T17:04:36.001Z</time></trkpt><trkpt lat="36.03209019866941" lon="-107.09942297128259"><ele>2223.0</ele><time>2026-05-03T17:04:37.001Z</time></trkpt><trkpt lat="36.032245012003244" lon="-107.09943066892379"><ele>2223.0</ele><time>2026-05-03T17:04:38.001Z</time></trkpt><trkpt lat="36.032410654414996" lon="-107.09943949674441"><ele>2223.0</ele><time>2026-05-03T17:04:39.001Z</time></trkpt><trkpt lat="36.03257530618838" lon="-107.09944782984331"><ele>2223.0</ele><time>2026-05-03T17:04:40.001Z</time></trkpt><trkpt lat="36.03272338448099" lon="-107.09945639557202"><ele>2222.75</ele><time>2026-05-03T17:04:41.001Z</time></trkpt><trkpt lat="36.032869769536845" lon="-107.09944933913143"><ele>2222.5</ele><time>2026-05-03T17:04:42.001Z</time></trkpt><trkpt lat="36.03301107021446" lon="-107.09943132922157"><ele>2222.25</ele><time>2026-05-03T17:04:43.001Z</time></trkpt><trkpt lat="36.033146789624254" lon="-107.09941634465532"><ele>2222.0</ele><time>2026-05-03T17:04:44.001Z</time></trkpt><trkpt lat="36.03328298679055" lon="-107.09938505389088"><ele>2221.75</ele><time>2026-05-03T17:04:45.001Z</time></trkpt><trkpt lat="36.03339146442579" lon="-107.09935821164737"><ele>2221.5</ele><time>2026-05-03T17:04:46.001Z</time></trkpt><trkpt lat="36.03345778325534" lon="-107.09933367392088"><ele>2221.25</ele><time>2026-05-03T17:04:47.001Z</time></trkpt><trkpt lat="36.03359415952055" lon="-107.09938245503936"><ele>2221.0</ele><time>2026-05-03T17:04:49.001Z</time></trkpt><trkpt lat="36.03371764076882" lon="-107.09944649934194"><ele>2221.0</ele><time>2026-05-03T17:04:50.001Z</time></trkpt><trkpt lat="36.033841641090646" lon="-107.09945426137571"><ele>2221.0</ele><time>2026-05-03T17:04:51.001Z</time></trkpt><trkpt lat="36.03398129448772" lon="-107.09943425961714"><ele>2221.0</ele><time>2026-05-03T17:04:52.001Z</time></trkpt><trkpt lat="36.034143821097686" lon="-107.09941917745914"><ele>2221.0</ele><time>2026-05-03T17:04:53.001Z</time></trkpt><trkpt lat="36.0342814693636" lon="-107.09942559388365"><ele>2220.4</ele><time>2026-05-03T17:04:54.001Z</time></trkpt><trkpt lat="36.0343772952053" lon="-107.0994239688755"><ele>2219.8</ele><time>2026-05-03T17:04:55Z</time></trkpt><trkpt lat="36.03446026607324" lon="-107.09938621927148"><ele>2219.2000000000003</ele><time>2026-05-03T17:04:56Z</time></trkpt><trkpt lat="36.03451808986888" lon="-107.0993219671684"><ele>2218.6</ele><time>2026-05-03T17:04:57Z</time></trkpt><trkpt lat="36.0345752558855" lon="-107.09922111175968"><ele>2218.0</ele><time>2026-05-03T17:04:58Z</time></trkpt><trkpt lat="36.03462516820846" lon="-107.09912607482623"><ele>2218.0</ele><time>2026-05-03T17:04:59Z</time></trkpt><trkpt lat="36.03467978956403" lon="-107.09907762626142"><ele>2218.0</ele><time>2026-05-03T17:05:00Z</time></trkpt><trkpt lat="36.03475184328548" lon="-107.09908852114764"><ele>2218.0</ele><time>2026-05-03T17:05:01Z</time></trkpt><trkpt lat="36.034853405769766" lon="-107.09913043096026"><ele>2218.0</ele><time>2026-05-03T17:05:02Z</time></trkpt><trkpt lat="36.034976457865774" lon="-107.0991921724984"><ele>2218.0</ele><time>2026-05-03T17:05:03Z</time></trkpt><trkpt lat="36.035069965545276" lon="-107.0992439323777"><ele>2217.8</ele><time>2026-05-03T17:05:04Z</time></trkpt><trkpt lat="36.03515467691845" lon="-107.09928129162545"><ele>2217.6000000000004</ele><time>2026-05-03T17:05:05Z</time></trkpt><trkpt lat="36.0352663971781" lon="-107.09927637593395"><ele>2217.3999999999996</ele><time>2026-05-03T17:05:06Z</time></trkpt><trkpt lat="36.035392267543216" lon="-107.09927882180247"><ele>2217.2</ele><time>2026-05-03T17:05:07Z</time></trkpt><trkpt lat="36.03548331650277" lon="-107.09928781798739"><ele>2217.0</ele><time>2026-05-03T17:05:08Z</time></trkpt><trkpt lat="36.03556073941711" lon="-107.09927020389648"><ele>2217.0</ele><time>2026-05-03T17:05:09Z</time></trkpt><trkpt lat="36.03564789383045" lon="-107.09922297489669"><ele>2217.0</ele><time>2026-05-03T17:05:10Z</time></trkpt><trkpt lat="36.0357163274219" lon="-107.09914002039024"><ele>2217.0</ele><time>2026-05-03T17:05:11Z</time></trkpt><trkpt lat="36.03576827912618" lon="-107.09902210643378"><ele>2217.0</ele><time>2026-05-03T17:05:12Z</time></trkpt><trkpt lat="36.035804927020095" lon="-107.09887915894063"><ele>2217.0</ele><time>2026-05-03T17:05:13Z</time></trkpt><trkpt lat="36.0358306399533" lon="-107.09871393318893"><ele>2216.75</ele><time>2026-05-03T17:05:14Z</time></trkpt><trkpt lat="36.03584653363313" lon="-107.09856802591328"><ele>2216.5</ele><time>2026-05-03T17:05:15Z</time></trkpt><trkpt lat="36.03583425222604" lon="-107.09843173371769"><ele>2216.25</ele><time>2026-05-03T17:05:16Z</time></trkpt><trkpt lat="36.03581934920048" lon="-107.09827063227426"><ele>2216.0</ele><time>2026-05-03T17:05:17Z</time></trkpt><trkpt lat="36.035821274686974" lon="-107.09811490380005"><ele>2216.0</ele><time>2026-05-03T17:05:18Z</time></trkpt><trkpt lat="36.03582149284633" lon="-107.09797657690842"><ele>2216.0</ele><time>2026-05-03T17:05:19Z</time></trkpt><trkpt lat="36.03582267171844" lon="-107.09785592753404"><ele>2216.0</ele><time>2026-05-03T17:05:20Z</time></trkpt><trkpt lat="36.035835877413895" lon="-107.09772393261686"><ele>2216.0</ele><time>2026-05-03T17:05:21Z</time></trkpt><trkpt lat="36.03585410131961" lon="-107.09758210307872"><ele>2216.0</ele><time>2026-05-03T17:05:22Z</time></trkpt><trkpt lat="36.035860660409604" lon="-107.09744472774432"><ele>2215.25</ele><time>2026-05-03T17:05:23Z</time></trkpt><trkpt lat="36.03586132391432" lon="-107.09730161355516"><ele>2214.5</ele><time>2026-05-03T17:05:24Z</time></trkpt><trkpt lat="36.03585978782373" lon="-107.09714722333253"><ele>2213.75</ele><time>2026-05-03T17:05:25Z</time></trkpt><trkpt lat="36.035857294908894" lon="-107.09697499573032"><ele>2213.0</ele><time>2026-05-03T17:05:26Z</time></trkpt><trkpt lat="36.0358535512441" lon="-107.09679828342729"><ele>2213.0</ele><time>2026-05-03T17:05:27Z</time></trkpt><trkpt lat="36.035865968195054" lon="-107.09663743299268"><ele>2213.0</ele><time>2026-05-03T17:05:28Z</time></trkpt><trkpt lat="36.03588163944979" lon="-107.09651610256523"><ele>2213.0</ele><time>2026-05-03T17:05:29Z</time></trkpt><trkpt lat="36.03591308808487" lon="-107.09636614538793"><ele>2213.0</ele><time>2026-05-03T17:05:30Z</time></trkpt><trkpt lat="36.03594429505712" lon="-107.09619854613261"><ele>2212.833333333333</ele><time>2026-05-03T17:05:31Z</time></trkpt><trkpt lat="36.035954411275895" lon="-107.09608241204988"><ele>2212.6666666666665</ele><time>2026-05-03T17:05:32Z</time></trkpt><trkpt lat="36.03596450684516" lon="-107.09599633615353"><ele>2212.5</ele><time>2026-05-03T17:05:33Z</time></trkpt><trkpt lat="36.03598598679613" lon="-107.09592261452454"><ele>2212.3333333333335</ele><time>2026-05-03T17:05:34Z</time></trkpt><trkpt lat="36.03598525413053" lon="-107.09582592697403"><ele>2212.166666666667</ele><time>2026-05-03T17:05:35Z</time></trkpt><trkpt lat="36.03595921988028" lon="-107.09572272639812"><ele>2212.0</ele><time>2026-05-03T17:05:36Z</time></trkpt><trkpt lat="36.03594075557773" lon="-107.09562148927247"><ele>2211.0</ele><time>2026-05-03T17:05:37Z</time></trkpt><trkpt lat="36.035945759306756" lon="-107.09551090849172"><ele>2210.0</ele><time>2026-05-03T17:05:38Z</time></trkpt><trkpt lat="36.03593177399339" lon="-107.09538746806493"><ele>2209.0</ele><time>2026-05-03T17:05:39Z</time></trkpt><trkpt lat="36.03593319654988" lon="-107.09527175530336"><ele>2208.0</ele><time>2026-05-03T17:05:40Z</time></trkpt><trkpt lat="36.03593603677614" lon="-107.09515460548366"><ele>2207.0</ele><time>2026-05-03T17:05:41Z</time></trkpt><trkpt lat="36.0359221969961" lon="-107.09502252758384"><ele>2206.75</ele><time>2026-05-03T17:05:42Z</time></trkpt><trkpt lat="36.035907585296975" lon="-107.09487021422473"><ele>2206.5</ele><time>2026-05-03T17:05:43.001Z</time></trkpt><trkpt lat="36.035888349482846" lon="-107.09470943777072"><ele>2206.25</ele><time>2026-05-03T17:05:44.001Z</time></trkpt><trkpt lat="36.03587211051334" lon="-107.09457064475305"><ele>2206.0</ele><time>2026-05-03T17:05:45.001Z</time></trkpt><trkpt lat="36.03584485538894" lon="-107.09444829196828"><ele>2206.0</ele><time>2026-05-03T17:05:46.001Z</time></trkpt><trkpt lat="36.03583531759876" lon="-107.09433415054318"><ele>2206.0</ele><time>2026-05-03T17:05:47.001Z</time></trkpt><trkpt lat="36.03584347904814" lon="-107.09422846794462"><ele>2206.0</ele><time>2026-05-03T17:05:48.001Z</time></trkpt><trkpt lat="36.0358731236526" lon="-107.09412971217614"><ele>2206.0</ele><time>2026-05-03T17:05:49.001Z</time></trkpt><trkpt lat="36.0359173385833" lon="-107.09404841054236"><ele>2206.0</ele><time>2026-05-03T17:05:50.001Z</time></trkpt><trkpt lat="36.03595881541674" lon="-107.09393696164115"><ele>2206.0</ele><time>2026-05-03T17:05:52.001Z</time></trkpt><trkpt lat="36.03592823919783" lon="-107.09386706168576"><ele>2207.0</ele><time>2026-05-03T17:05:53.001Z</time></trkpt><trkpt lat="36.03588047861154" lon="-107.09376226458421"><ele>2208.0</ele><time>2026-05-03T17:05:54.001Z</time></trkpt><trkpt lat="36.03581464755007" lon="-107.09368635963153"><ele>2209.0</ele><time>2026-05-03T17:05:55.001Z</time></trkpt><trkpt lat="36.035745973427424" lon="-107.09364224645694"><ele>2210.0</ele><time>2026-05-03T17:05:56.001Z</time></trkpt><trkpt lat="36.03567686925124" lon="-107.0935630275817"><ele>2211.0</ele><time>2026-05-03T17:05:57.001Z</time></trkpt><trkpt lat="36.03562468499612" lon="-107.09345917638204"><ele>2211.1666666666665</ele><time>2026-05-03T17:05:58.001Z</time></trkpt><trkpt lat="36.03560561582632" lon="-107.0933686962578"><ele>2211.3333333333335</ele><time>2026-05-03T17:05:59.001Z</time></trkpt><trkpt lat="36.03557690406943" lon="-107.09329576179171"><ele>2211.5</ele><time>2026-05-03T17:06:00.001Z</time></trkpt><trkpt lat="36.03557004261513" lon="-107.09319155513091"><ele>2211.666666666667</ele><time>2026-05-03T17:06:01.001Z</time></trkpt><trkpt lat="36.03558965427949" lon="-107.09305753368025"><ele>2211.8333333333335</ele><time>2026-05-03T17:06:02.001Z</time></trkpt><trkpt lat="36.03561544665983" lon="-107.09292873269678"><ele>2212.0</ele><time>2026-05-03T17:06:03.001Z</time></trkpt><trkpt lat="36.035593943383454" lon="-107.09279242728489"><ele>2212.0</ele><time>2026-05-03T17:06:05.001Z</time></trkpt><trkpt lat="36.035545990213606" lon="-107.09269101834754"><ele>2212.0</ele><time>2026-05-03T17:06:06.001Z</time></trkpt><trkpt lat="36.035505763512376" lon="-107.09259273358971"><ele>2212.0</ele><time>2026-05-03T17:06:07.001Z</time></trkpt><trkpt lat="36.03553474841964" lon="-107.09248747976012"><ele>2212.0</ele><time>2026-05-03T17:06:08.001Z</time></trkpt><trkpt lat="36.03558228167171" lon="-107.09235975569271"><ele>2212.0</ele><time>2026-05-03T17:06:09.001Z</time></trkpt><trkpt lat="36.035603025640214" lon="-107.09221808632485"><ele>2211.6</ele><time>2026-05-03T17:06:10.001Z</time></trkpt><trkpt lat="36.03561447383668" lon="-107.09209428515263"><ele>2211.2</ele><time>2026-05-03T17:06:11.001Z</time></trkpt><trkpt lat="36.035623443912584" lon="-107.09194955634615"><ele>2210.8</ele><time>2026-05-03T17:06:12.001Z</time></trkpt><trkpt lat="36.035631749332374" lon="-107.09180280759965"><ele>2210.4</ele><time>2026-05-03T17:06:13.001Z</time></trkpt><trkpt lat="36.03565307302306" lon="-107.09169258120926"><ele>2210.0</ele><time>2026-05-03T17:06:14.001Z</time></trkpt><trkpt lat="36.035699182115366" lon="-107.09161895726217"><ele>2209.8</ele><time>2026-05-03T17:06:15.001Z</time></trkpt><trkpt lat="36.03570359126894" lon="-107.09153457485132"><ele>2209.6</ele><time>2026-05-03T17:06:17.001Z</time></trkpt><trkpt lat="36.03563199370209" lon="-107.09149679594591"><ele>2209.4</ele><time>2026-05-03T17:06:18.001Z</time></trkpt><trkpt lat="36.03552179582619" lon="-107.09143331514308"><ele>2209.2</ele><time>2026-05-03T17:06:19.001Z</time></trkpt><trkpt lat="36.035408890099795" lon="-107.09134722535325"><ele>2209.0</ele><time>2026-05-03T17:06:20.001Z</time></trkpt><trkpt lat="36.0353162786732" lon="-107.09127891519246"><ele>2209.0</ele><time>2026-05-03T17:06:21.001Z</time></trkpt><trkpt lat="36.035209177633604" lon="-107.09122214922417"><ele>2209.0</ele><time>2026-05-03T17:06:22.001Z</time></trkpt><trkpt lat="36.03511279022373" lon="-107.09116273204127"><ele>2209.0</ele><time>2026-05-03T17:06:23.001Z</time></trkpt><trkpt lat="36.03502383667655" lon="-107.09109303544463"><ele>2209.0</ele><time>2026-05-03T17:06:24.001Z</time></trkpt><trkpt lat="36.034950693407005" lon="-107.09102126123702"><ele>2209.0</ele><time>2026-05-03T17:06:25.001Z</time></trkpt><trkpt lat="36.03484956184135" lon="-107.09094472291525"><ele>2207.6</ele><time>2026-05-03T17:06:26.001Z</time></trkpt><trkpt lat="36.034744090920555" lon="-107.09086738249282"><ele>2206.2</ele><time>2026-05-03T17:06:27.001Z</time></trkpt><trkpt lat="36.03467077945139" lon="-107.0908058317554"><ele>2204.7999999999997</ele><time>2026-05-03T17:06:28.001Z</time></trkpt><trkpt lat="36.03459441971251" lon="-107.09077003696835"><ele>2203.4</ele><time>2026-05-03T17:06:29.001Z</time></trkpt><trkpt lat="36.03452494500058" lon="-107.09069773693857"><ele>2202.0</ele><time>2026-05-03T17:06:30.001Z</time></trkpt><trkpt lat="36.03447537479024" lon="-107.09059331852282"><ele>2201.0</ele><time>2026-05-03T17:06:31.001Z</time></trkpt><trkpt lat="36.03445493831255" lon="-107.0905086984853"><ele>2200.0</ele><time>2026-05-03T17:06:32.001Z</time></trkpt><trkpt lat="36.03449215433167" lon="-107.09037078474147"><ele>2199.0</ele><time>2026-05-03T17:06:34.001Z</time></trkpt><trkpt lat="36.034541741576696" lon="-107.0902861824613"><ele>2198.0</ele><time>2026-05-03T17:06:35.001Z</time></trkpt><trkpt lat="36.0346224289563" lon="-107.09022210161712"><ele>2197.0</ele><time>2026-05-03T17:06:36.001Z</time></trkpt><trkpt lat="36.034703087623605" lon="-107.09015592083358"><ele>2197.0</ele><time>2026-05-03T17:06:37.001Z</time></trkpt><trkpt lat="36.03478014611471" lon="-107.09007390918335"><ele>2197.0</ele><time>2026-05-03T17:06:38.001Z</time></trkpt><trkpt lat="36.034871046684025" lon="-107.09001575339212"><ele>2197.0</ele><time>2026-05-03T17:06:39.001Z</time></trkpt><trkpt lat="36.034944153127725" lon="-107.08994107368305"><ele>2197.0</ele><time>2026-05-03T17:06:40.001Z</time></trkpt><trkpt lat="36.03505258576667" lon="-107.08981891466586"><ele>2197.0</ele><time>2026-05-03T17:06:41.001Z</time></trkpt><trkpt lat="36.035153791159686" lon="-107.08974655298489"><ele>2197.6</ele><time>2026-05-03T17:06:42.001Z</time></trkpt><trkpt lat="36.035217551924674" lon="-107.0896818399046"><ele>2198.2</ele><time>2026-05-03T17:06:43.001Z</time></trkpt><trkpt lat="36.03526539059729" lon="-107.0895864011499"><ele>2198.8</ele><time>2026-05-03T17:06:44.001Z</time></trkpt><trkpt lat="36.03530445624911" lon="-107.08944213164934"><ele>2199.4</ele><time>2026-05-03T17:06:45.001Z</time></trkpt><trkpt lat="36.03534460018327" lon="-107.08928575371031"><ele>2200.0</ele><time>2026-05-03T17:06:46.001Z</time></trkpt><trkpt lat="36.035372889034164" lon="-107.08918127199189"><ele>2200.0</ele><time>2026-05-03T17:06:47.001Z</time></trkpt><trkpt lat="36.03538469362092" lon="-107.0890997158757"><ele>2200.0</ele><time>2026-05-03T17:06:48.001Z</time></trkpt><trkpt lat="36.03537140507752" lon="-107.08899371568774"><ele>2200.0</ele><time>2026-05-03T17:06:49.001Z</time></trkpt><trkpt lat="36.035349652483795" lon="-107.08886626580289"><ele>2200.0</ele><time>2026-05-03T17:06:50.001Z</time></trkpt><trkpt lat="36.035320876246274" lon="-107.08875444997001"><ele>2200.0</ele><time>2026-05-03T17:06:51.001Z</time></trkpt><trkpt lat="36.0353081272284" lon="-107.08862192207421"><ele>2199.75</ele><time>2026-05-03T17:06:52.001Z</time></trkpt><trkpt lat="36.03529211692921" lon="-107.08846114778918"><ele>2199.5</ele><time>2026-05-03T17:06:53.001Z</time></trkpt><trkpt lat="36.03527541446298" lon="-107.08828522674659"><ele>2199.25</ele><time>2026-05-03T17:06:54.001Z</time></trkpt><trkpt lat="36.035252931027586" lon="-107.08813226371075"><ele>2199.0</ele><time>2026-05-03T17:06:55.001Z</time></trkpt><trkpt lat="36.035212685908085" lon="-107.08798548715927"><ele>2198.5</ele><time>2026-05-03T17:06:56.001Z</time></trkpt><trkpt lat="36.035178766862614" lon="-107.08783334859386"><ele>2198.0</ele><time>2026-05-03T17:06:57.001Z</time></trkpt><trkpt lat="36.03514376355629" lon="-107.08767098664114"><ele>2197.5</ele><time>2026-05-03T17:06:58.001Z</time></trkpt><trkpt lat="36.03511252899059" lon="-107.08752574963324"><ele>2197.0</ele><time>2026-05-03T17:06:59.001Z</time></trkpt><trkpt lat="36.035111227141755" lon="-107.08741135627939"><ele>2196.6</ele><time>2026-05-03T17:07:00.001Z</time></trkpt><trkpt lat="36.03512503555826" lon="-107.08728033172554"><ele>2196.2</ele><time>2026-05-03T17:07:01Z</time></trkpt><trkpt lat="36.03513503653115" lon="-107.08715100847029"><ele>2195.8</ele><time>2026-05-03T17:07:02Z</time></trkpt><trkpt lat="36.035117092116664" lon="-107.08702745014999"><ele>2195.4</ele><time>2026-05-03T17:07:03Z</time></trkpt><trkpt lat="36.03508774582968" lon="-107.08691193215856"><ele>2195.0</ele><time>2026-05-03T17:07:04Z</time></trkpt><trkpt lat="36.035080645679415" lon="-107.08679749030696"><ele>2195.0</ele><time>2026-05-03T17:07:05Z</time></trkpt><trkpt lat="36.03509814895549" lon="-107.08668020559232"><ele>2195.0</ele><time>2026-05-03T17:07:06Z</time></trkpt><trkpt lat="36.03512189794604" lon="-107.08652454702614"><ele>2195.0</ele><time>2026-05-03T17:07:07Z</time></trkpt><trkpt lat="36.03513202075946" lon="-107.08635369765554"><ele>2195.0</ele><time>2026-05-03T17:07:08Z</time></trkpt><trkpt lat="36.03514373687167" lon="-107.08617416574731"><ele>2194.75</ele><time>2026-05-03T17:07:09Z</time></trkpt><trkpt lat="36.035150322311544" lon="-107.0860093299933"><ele>2194.5</ele><time>2026-05-03T17:07:10Z</time></trkpt><trkpt lat="36.0351570589704" lon="-107.08583595788348"><ele>2194.25</ele><time>2026-05-03T17:07:11Z</time></trkpt><trkpt lat="36.03515572959953" lon="-107.08566429116208"><ele>2194.0</ele><time>2026-05-03T17:07:12Z</time></trkpt><trkpt lat="36.03515641749993" lon="-107.08551113559324"><ele>2193.5</ele><time>2026-05-03T17:07:13Z</time></trkpt><trkpt lat="36.03515952205167" lon="-107.0853418620572"><ele>2193.0</ele><time>2026-05-03T17:07:14Z</time></trkpt><trkpt lat="36.03516650455677" lon="-107.08517273248259"><ele>2192.5</ele><time>2026-05-03T17:07:15Z</time></trkpt><trkpt lat="36.035184664288956" lon="-107.08501912172544"><ele>2192.0</ele><time>2026-05-03T17:07:16Z</time></trkpt><trkpt lat="36.03520259033262" lon="-107.08487121189374"><ele>2190.75</ele><time>2026-05-03T17:07:17Z</time></trkpt><trkpt lat="36.03521180205731" lon="-107.08471701432558"><ele>2189.5</ele><time>2026-05-03T17:07:18Z</time></trkpt><trkpt lat="36.03521537984729" lon="-107.08456446475769"><ele>2188.25</ele><time>2026-05-03T17:07:19Z</time></trkpt><trkpt lat="36.0352183402484" lon="-107.08442434284619"><ele>2187.0</ele><time>2026-05-03T17:07:20Z</time></trkpt><trkpt lat="36.03520747738149" lon="-107.08428437988023"><ele>2187.0</ele><time>2026-05-03T17:07:21Z</time></trkpt><trkpt lat="36.03519731625448" lon="-107.08413460785354"><ele>2187.0</ele><time>2026-05-03T17:07:22Z</time></trkpt><trkpt lat="36.03519763306508" lon="-107.08397836176884"><ele>2187.0</ele><time>2026-05-03T17:07:23Z</time></trkpt><trkpt lat="36.03519235826698" lon="-107.08385476086636"><ele>2187.0</ele><time>2026-05-03T17:07:24Z</time></trkpt><trkpt lat="36.03519276202968" lon="-107.08372348780183"><ele>2186.2</ele><time>2026-05-03T17:07:25Z</time></trkpt><trkpt lat="36.03518696669301" lon="-107.0835924340553"><ele>2185.3999999999996</ele><time>2026-05-03T17:07:26Z</time></trkpt><trkpt lat="36.03519367656197" lon="-107.08347330908651"><ele>2184.6000000000004</ele><time>2026-05-03T17:07:27Z</time></trkpt><trkpt lat="36.03519064040384" lon="-107.08334828725879"><ele>2183.8</ele><time>2026-05-03T17:07:28Z</time></trkpt><trkpt lat="36.03518185014639" lon="-107.08317913152516"><ele>2183.0</ele><time>2026-05-03T17:07:29Z</time></trkpt><trkpt lat="36.03516755457588" lon="-107.08298142296609"><ele>2182.0</ele><time>2026-05-03T17:07:30Z</time></trkpt><trkpt lat="36.03515447392191" lon="-107.08280310029457"><ele>2181.0</ele><time>2026-05-03T17:07:31Z</time></trkpt><trkpt lat="36.035150530179166" lon="-107.08268364566804"><ele>2180.0</ele><time>2026-05-03T17:07:32Z</time></trkpt><trkpt lat="36.03515687046904" lon="-107.08258495226194"><ele>2179.0</ele><time>2026-05-03T17:07:33Z</time></trkpt><trkpt lat="36.03514220019063" lon="-107.08246467983395"><ele>2178.0</ele><time>2026-05-03T17:07:35Z</time></trkpt><trkpt lat="36.03505987395911" lon="-107.08243537035779"><ele>2178.0</ele><time>2026-05-03T17:07:37Z</time></trkpt><trkpt lat="36.034975182417035" lon="-107.08245584655745"><ele>2178.0</ele><time>2026-05-03T17:07:38Z</time></trkpt><trkpt lat="36.034862348583964" lon="-107.08245971883375"><ele>2178.0</ele><time>2026-05-03T17:07:39Z</time></trkpt><trkpt lat="36.034726466056995" lon="-107.0824000984978"><ele>2178.0</ele><time>2026-05-03T17:07:40Z</time></trkpt><trkpt lat="36.03460613918214" lon="-107.08236458621663"><ele>2177.5</ele><time>2026-05-03T17:07:41Z</time></trkpt><trkpt lat="36.03451161140027" lon="-107.08235998574494"><ele>2177.0</ele><time>2026-05-03T17:07:42Z</time></trkpt><trkpt lat="36.03443577303233" lon="-107.08238711426701"><ele>2176.5</ele><time>2026-05-03T17:07:43Z</time></trkpt><trkpt lat="36.0343657356655" lon="-107.08243939945577"><ele>2176.0</ele><time>2026-05-03T17:07:44Z</time></trkpt><trkpt lat="36.03431071886383" lon="-107.0825065243357"><ele>2175.5</ele><time>2026-05-03T17:07:45Z</time></trkpt><trkpt lat="36.034240471240594" lon="-107.08255748423402"><ele>2175.0</ele><time>2026-05-03T17:07:46Z</time></trkpt><trkpt lat="36.03413984345257" lon="-107.08256825157252"><ele>2174.5</ele><time>2026-05-03T17:07:47Z</time></trkpt><trkpt lat="36.03400181766216" lon="-107.08252927687059"><ele>2174.0</ele><time>2026-05-03T17:07:48Z</time></trkpt><trkpt lat="36.033872844476605" lon="-107.08251355573286"><ele>2173.5</ele><time>2026-05-03T17:07:49Z</time></trkpt><trkpt lat="36.033736493795516" lon="-107.08248013597408"><ele>2173.0</ele><time>2026-05-03T17:07:50Z</time></trkpt><trkpt lat="36.03360503610461" lon="-107.08243248359217"><ele>2172.5</ele><time>2026-05-03T17:07:51Z</time></trkpt><trkpt lat="36.033502923826234" lon="-107.08240560415238"><ele>2172.0</ele><time>2026-05-03T17:07:52Z</time></trkpt><trkpt lat="36.033398250806144" lon="-107.0824256002211"><ele>2171.5</ele><time>2026-05-03T17:07:53.001Z</time></trkpt><trkpt lat="36.03325287910413" lon="-107.08245931364912"><ele>2171.0</ele><time>2026-05-03T17:07:54.001Z</time></trkpt><trkpt lat="36.03310843002865" lon="-107.08247564768035"><ele>2170.5</ele><time>2026-05-03T17:07:55.001Z</time></trkpt><trkpt lat="36.03296730084532" lon="-107.0824706657277"><ele>2170.0</ele><time>2026-05-03T17:07:56.001Z</time></trkpt><trkpt lat="36.03284636254268" lon="-107.08246541959986"><ele>2169.5</ele><time>2026-05-03T17:07:57.001Z</time></trkpt><trkpt lat="36.03271575577101" lon="-107.0824813962397"><ele>2169.0</ele><time>2026-05-03T17:07:58.001Z</time></trkpt><trkpt lat="36.03260047851804" lon="-107.08249867471706"><ele>2169.0</ele><time>2026-05-03T17:07:59.001Z</time></trkpt><trkpt lat="36.032518441969884" lon="-107.08250759837037"><ele>2169.0</ele><time>2026-05-03T17:08:00.001Z</time></trkpt><trkpt lat="36.03241317450233" lon="-107.08251691048737"><ele>2169.0</ele><time>2026-05-03T17:08:01.001Z</time></trkpt><trkpt lat="36.032294066469994" lon="-107.08249611208475"><ele>2169.0</ele><time>2026-05-03T17:08:02.001Z</time></trkpt><trkpt lat="36.03214924441484" lon="-107.08244676506351"><ele>2168.0</ele><time>2026-05-03T17:08:03.001Z</time></trkpt><trkpt lat="36.03204460418399" lon="-107.08240953384812"><ele>2167.0</ele><time>2026-05-03T17:08:04.001Z</time></trkpt><trkpt lat="36.03194770587238" lon="-107.08238964295478"><ele>2166.0</ele><time>2026-05-03T17:08:05.001Z</time></trkpt><trkpt lat="36.03182172429891" lon="-107.08237692194368"><ele>2165.0</ele><time>2026-05-03T17:08:06.001Z</time></trkpt><trkpt lat="36.03168570081507" lon="-107.08233928266029"><ele>2165.5</ele><time>2026-05-03T17:08:07.001Z</time></trkpt><trkpt lat="36.03155645450083" lon="-107.08231428242425"><ele>2166.0</ele><time>2026-05-03T17:08:08.001Z</time></trkpt><trkpt lat="36.031413015780046" lon="-107.08230451145893"><ele>2166.5</ele><time>2026-05-03T17:08:09.001Z</time></trkpt><trkpt lat="36.03126887362097" lon="-107.08228970475021"><ele>2167.0</ele><time>2026-05-03T17:08:10.001Z</time></trkpt><trkpt lat="36.031144171224085" lon="-107.08226288602339"><ele>2167.0</ele><time>2026-05-03T17:08:11.001Z</time></trkpt><trkpt lat="36.03102316284366" lon="-107.0822401414459"><ele>2167.0</ele><time>2026-05-03T17:08:12.001Z</time></trkpt><trkpt lat="36.03091458115696" lon="-107.08223942218392"><ele>2167.0</ele><time>2026-05-03T17:08:13.001Z</time></trkpt><trkpt lat="36.0308057175243" lon="-107.08225896961105"><ele>2167.0</ele><time>2026-05-03T17:08:14.001Z</time></trkpt><trkpt lat="36.03072166208454" lon="-107.08225659176473"><ele>2167.0</ele><time>2026-05-03T17:08:15.001Z</time></trkpt><trkpt lat="36.030631356980656" lon="-107.08219961989474"><ele>2167.0</ele><time>2026-05-03T17:08:16.001Z</time></trkpt><trkpt lat="36.03056916064621" lon="-107.08212334877263"><ele>2167.0</ele><time>2026-05-03T17:08:17.001Z</time></trkpt><trkpt lat="36.03053779486163" lon="-107.08202187523926"><ele>2167.0</ele><time>2026-05-03T17:08:18.001Z</time></trkpt><trkpt lat="36.03047631014656" lon="-107.08194177293431"><ele>2167.0</ele><time>2026-05-03T17:08:20.001Z</time></trkpt><trkpt lat="36.030382384320646" lon="-107.08195429195065"><ele>2167.0</ele><time>2026-05-03T17:08:21.001Z</time></trkpt><trkpt lat="36.03026159266675" lon="-107.08194491167878"><ele>2167.0</ele><time>2026-05-03T17:08:22.001Z</time></trkpt><trkpt lat="36.03017145243561" lon="-107.08191795388858"><ele>2167.0</ele><time>2026-05-03T17:08:23.001Z</time></trkpt><trkpt lat="36.0301085159853" lon="-107.08189280296439"><ele>2167.0</ele><time>2026-05-03T17:08:24.001Z</time></trkpt><trkpt lat="36.03004115852551" lon="-107.08186901096067"><ele>2167.0</ele><time>2026-05-03T17:08:25.001Z</time></trkpt><trkpt lat="36.02992797003513" lon="-107.08186018393296"><ele>2167.0</ele><time>2026-05-03T17:08:26.001Z</time></trkpt><trkpt lat="36.02978163216214" lon="-107.0818571378193"><ele>2168.0</ele><time>2026-05-03T17:08:27.001Z</time></trkpt><trkpt lat="36.029620982794434" lon="-107.08188261972496"><ele>2169.0</ele><time>2026-05-03T17:08:28.001Z</time></trkpt><trkpt lat="36.02943378485959" lon="-107.08189414504191"><ele>2170.0</ele><time>2026-05-03T17:08:29.001Z</time></trkpt><trkpt lat="36.02923417872612" lon="-107.08187709335749"><ele>2170.0</ele><time>2026-05-03T17:08:30.001Z</time></trkpt><trkpt lat="36.029023852514044" lon="-107.08184979291113"><ele>2170.0</ele><time>2026-05-03T17:08:31.001Z</time></trkpt><trkpt lat="36.028840517051734" lon="-107.08182086182163"><ele>2170.0</ele><time>2026-05-03T17:08:32.001Z</time></trkpt><trkpt lat="36.028677311709174" lon="-107.08178533049622"><ele>2170.0</ele><time>2026-05-03T17:08:33.001Z</time></trkpt><trkpt lat="36.028525513234385" lon="-107.08175505195737"><ele>2170.0</ele><time>2026-05-03T17:08:34.001Z</time></trkpt><trkpt lat="36.02834945123918" lon="-107.08173179872794"><ele>2170.0</ele><time>2026-05-03T17:08:35.001Z</time></trkpt><trkpt lat="36.028187462960126" lon="-107.08171766328942"><ele>2170.5</ele><time>2026-05-03T17:08:36.001Z</time></trkpt><trkpt lat="36.02803819106767" lon="-107.08170364564104"><ele>2171.0</ele><time>2026-05-03T17:08:37.001Z</time></trkpt><trkpt lat="36.02791298347819" lon="-107.08167196025659"><ele>2171.5</ele><time>2026-05-03T17:08:38.001Z</time></trkpt><trkpt lat="36.027805427402306" lon="-107.08162009389672"><ele>2172.0</ele><time>2026-05-03T17:08:39.001Z</time></trkpt><trkpt lat="36.02769733515678" lon="-107.08154555429127"><ele>2172.0</ele><time>2026-05-03T17:08:40.001Z</time></trkpt><trkpt lat="36.02758240051717" lon="-107.08143015429359"><ele>2172.0</ele><time>2026-05-03T17:08:41.001Z</time></trkpt><trkpt lat="36.027447118126794" lon="-107.08131543260461"><ele>2172.0</ele><time>2026-05-03T17:08:42.001Z</time></trkpt><trkpt lat="36.02728333433103" lon="-107.0812145360838"><ele>2172.0</ele><time>2026-05-03T17:08:43.001Z</time></trkpt><trkpt lat="36.0271286543104" lon="-107.08113264817594"><ele>2172.0</ele><time>2026-05-03T17:08:44.001Z</time></trkpt><trkpt lat="36.026984964826916" lon="-107.08107995882195"><ele>2172.0</ele><time>2026-05-03T17:08:45.001Z</time></trkpt><trkpt lat="36.026843615871634" lon="-107.08105053843515"><ele>2172.0</ele><time>2026-05-03T17:08:46.001Z</time></trkpt><trkpt lat="36.02671346858902" lon="-107.08102435239267"><ele>2172.0</ele><time>2026-05-03T17:08:47.001Z</time></trkpt><trkpt lat="36.02657941502237" lon="-107.08099917874611"><ele>2172.0</ele><time>2026-05-03T17:08:48.001Z</time></trkpt><trkpt lat="36.02644188360416" lon="-107.0809665461677"><ele>2172.0</ele><time>2026-05-03T17:08:49.001Z</time></trkpt><trkpt lat="36.026312783398296" lon="-107.080916640133"><ele>2171.75</ele><time>2026-05-03T17:08:50.001Z</time></trkpt><trkpt lat="36.026197020859684" lon="-107.08088759015185"><ele>2171.5</ele><time>2026-05-03T17:08:51.001Z</time></trkpt><trkpt lat="36.026070206872156" lon="-107.08089307753411"><ele>2171.25</ele><time>2026-05-03T17:08:52.001Z</time></trkpt><trkpt lat="36.02595753129795" lon="-107.0808946576141"><ele>2171.0</ele><time>2026-05-03T17:08:53.001Z</time></trkpt><trkpt lat="36.02585886435709" lon="-107.0808687526345"><ele>2170.25</ele><time>2026-05-03T17:08:54.001Z</time></trkpt><trkpt lat="36.025750609607286" lon="-107.08084580940945"><ele>2169.5</ele><time>2026-05-03T17:08:55.001Z</time></trkpt><trkpt lat="36.02561258006113" lon="-107.08084975764528"><ele>2168.75</ele><time>2026-05-03T17:08:56.001Z</time></trkpt><trkpt lat="36.02544632427967" lon="-107.08084744760261"><ele>2168.0</ele><time>2026-05-03T17:08:57.001Z</time></trkpt><trkpt lat="36.02528080802003" lon="-107.08082475121797"><ele>2168.0</ele><time>2026-05-03T17:08:58.001Z</time></trkpt><trkpt lat="36.025126723368544" lon="-107.08080638827735"><ele>2168.0</ele><time>2026-05-03T17:08:59.001Z</time></trkpt><trkpt lat="36.024981937943195" lon="-107.08077207992338"><ele>2168.0</ele><time>2026-05-03T17:09:00.001Z</time></trkpt><trkpt lat="36.024857403061624" lon="-107.08071893956158"><ele>2168.0</ele><time>2026-05-03T17:09:01.001Z</time></trkpt><trkpt lat="36.02471694752581" lon="-107.08069422722252"><ele>2169.0</ele><time>2026-05-03T17:09:02.001Z</time></trkpt><trkpt lat="36.02454321090711" lon="-107.08068287574787"><ele>2170.0</ele><time>2026-05-03T17:09:03.001Z</time></trkpt><trkpt lat="36.0243579155033" lon="-107.08067242362087"><ele>2171.0</ele><time>2026-05-03T17:09:04.001Z</time></trkpt><trkpt lat="36.02421503780429" lon="-107.08067104279414"><ele>2169.0</ele><time>2026-05-03T17:09:05.001Z</time></trkpt><trkpt lat="36.024115077617665" lon="-107.08067692255014"><ele>2167.0</ele><time>2026-05-03T17:09:06Z</time></trkpt><trkpt lat="36.02401319716755" lon="-107.08067361931013"><ele>2165.0</ele><time>2026-05-03T17:09:07Z</time></trkpt><trkpt lat="36.023887052905245" lon="-107.08064582062978"><ele>2163.0</ele><time>2026-05-03T17:09:08Z</time></trkpt><trkpt lat="36.02374303868349" lon="-107.08061304611304"><ele>2163.0</ele><time>2026-05-03T17:09:09Z</time></trkpt><trkpt lat="36.023611236689256" lon="-107.08059208409726"><ele>2163.0</ele><time>2026-05-03T17:09:10Z</time></trkpt><trkpt lat="36.02349456131765" lon="-107.08060700296348"><ele>2163.0</ele><time>2026-05-03T17:09:11Z</time></trkpt><trkpt lat="36.02337010038474" lon="-107.08064145479685"><ele>2163.0</ele><time>2026-05-03T17:09:12Z</time></trkpt><trkpt lat="36.023251347687435" lon="-107.0807092567296"><ele>2161.5</ele><time>2026-05-03T17:09:13Z</time></trkpt><trkpt lat="36.02313610995818" lon="-107.08078191448297"><ele>2160.0</ele><time>2026-05-03T17:09:14Z</time></trkpt><trkpt lat="36.02302074675287" lon="-107.08081859562206"><ele>2158.5</ele><time>2026-05-03T17:09:15Z</time></trkpt><trkpt lat="36.022878882480256" lon="-107.08083409611616"><ele>2157.0</ele><time>2026-05-03T17:09:16Z</time></trkpt><trkpt lat="36.022768113396175" lon="-107.08087435071289"><ele>2157.0</ele><time>2026-05-03T17:09:17Z</time></trkpt><trkpt lat="36.02265603747657" lon="-107.08092186116716"><ele>2157.0</ele><time>2026-05-03T17:09:18Z</time></trkpt><trkpt lat="36.02251877291955" lon="-107.08096810859544"><ele>2157.0</ele><time>2026-05-03T17:09:19Z</time></trkpt><trkpt lat="36.02236313482626" lon="-107.0809901454012"><ele>2157.0</ele><time>2026-05-03T17:09:20Z</time></trkpt><trkpt lat="36.02223508252094" lon="-107.08103120581688"><ele>2156.7999999999997</ele><time>2026-05-03T17:09:21Z</time></trkpt><trkpt lat="36.022109935429114" lon="-107.08107511206772"><ele>2156.6</ele><time>2026-05-03T17:09:22Z</time></trkpt><trkpt lat="36.02199460717225" lon="-107.08109424067275"><ele>2156.3999999999996</ele><time>2026-05-03T17:09:23Z</time></trkpt><trkpt lat="36.02189669783666" lon="-107.08106753912078"><ele>2156.2</ele><time>2026-05-03T17:09:24Z</time></trkpt><trkpt lat="36.02181038451277" lon="-107.08100008020698"><ele>2156.0</ele><time>2026-05-03T17:09:25Z</time></trkpt><trkpt lat="36.02170997696081" lon="-107.08096169190783"><ele>2156.25</ele><time>2026-05-03T17:09:26Z</time></trkpt><trkpt lat="36.02158629072549" lon="-107.08093477537079"><ele>2156.5</ele><time>2026-05-03T17:09:27Z</time></trkpt><trkpt lat="36.02146040023723" lon="-107.08092043338134"><ele>2156.75</ele><time>2026-05-03T17:09:28Z</time></trkpt><trkpt lat="36.02134199220472" lon="-107.08095205561767"><ele>2157.0</ele><time>2026-05-03T17:09:29Z</time></trkpt><trkpt lat="36.021193181413835" lon="-107.08099533884359"><ele>2157.0</ele><time>2026-05-03T17:09:30Z</time></trkpt><trkpt lat="36.021005807621776" lon="-107.08106027815002"><ele>2157.0</ele><time>2026-05-03T17:09:31Z</time></trkpt><trkpt lat="36.0208093443411" lon="-107.08111466423844"><ele>2157.0</ele><time>2026-05-03T17:09:32Z</time></trkpt><trkpt lat="36.02062857073469" lon="-107.08117084721013"><ele>2157.6666666666665</ele><time>2026-05-03T17:09:33Z</time></trkpt><trkpt lat="36.02045315363937" lon="-107.0812157967701"><ele>2158.333333333333</ele><time>2026-05-03T17:09:34Z</time></trkpt><trkpt lat="36.02031538819449" lon="-107.08125256147974"><ele>2159.0</ele><time>2026-05-03T17:09:35Z</time></trkpt><trkpt lat="36.02018814035455" lon="-107.08129878614177"><ele>2159.0</ele><time>2026-05-03T17:09:36Z</time></trkpt><trkpt lat="36.02004948673556" lon="-107.08135406860806"><ele>2159.0</ele><time>2026-05-03T17:09:37Z</time></trkpt><trkpt lat="36.01988273513762" lon="-107.08140587393213"><ele>2159.0</ele><time>2026-05-03T17:09:38Z</time></trkpt><trkpt lat="36.0197042737772" lon="-107.081455866677"><ele>2158.75</ele><time>2026-05-03T17:09:39Z</time></trkpt><trkpt lat="36.019555668980615" lon="-107.08150517954935"><ele>2158.5</ele><time>2026-05-03T17:09:40Z</time></trkpt><trkpt lat="36.0194418565572" lon="-107.08153327814918"><ele>2158.25</ele><time>2026-05-03T17:09:41Z</time></trkpt><trkpt lat="36.01931225230419" lon="-107.08153895054788"><ele>2158.0</ele><time>2026-05-03T17:09:42Z</time></trkpt><trkpt lat="36.01914940331049" lon="-107.08151639251989"><ele>2158.666666666667</ele><time>2026-05-03T17:09:43Z</time></trkpt><trkpt lat="36.01896836079538" lon="-107.08150484538369"><ele>2159.3333333333335</ele><time>2026-05-03T17:09:44Z</time></trkpt><trkpt lat="36.018807894626214" lon="-107.0815217334362"><ele>2160.0</ele><time>2026-05-03T17:09:45Z</time></trkpt><trkpt lat="36.01864786430018" lon="-107.08154722793513"><ele>2160.0</ele><time>2026-05-03T17:09:46Z</time></trkpt><trkpt lat="36.018474432819026" lon="-107.08157284892029"><ele>2160.0</ele><time>2026-05-03T17:09:47Z</time></trkpt><trkpt lat="36.01831829993167" lon="-107.0815888864395"><ele>2160.0</ele><time>2026-05-03T17:09:48Z</time></trkpt><trkpt lat="36.01819045648521" lon="-107.08158241520253"><ele>2161.0</ele><time>2026-05-03T17:09:49Z</time></trkpt><trkpt lat="36.01808709946992" lon="-107.08157464843126"><ele>2162.0</ele><time>2026-05-03T17:09:50Z</time></trkpt><trkpt lat="36.018017429551705" lon="-107.08156748444982"><ele>2163.0</ele><time>2026-05-03T17:09:51Z</time></trkpt><trkpt lat="36.01791878225893" lon="-107.08147846936119"><ele>2164.0</ele><time>2026-05-03T17:09:53Z</time></trkpt><trkpt lat="36.01789592761344" lon="-107.08137154233624"><ele>2165.0</ele><time>2026-05-03T17:09:54Z</time></trkpt><trkpt lat="36.017902716984366" lon="-107.08123867129305"><ele>2165.0</ele><time>2026-05-03T17:09:55Z</time></trkpt><trkpt lat="36.017945914673895" lon="-107.08109400738893"><ele>2165.0</ele><time>2026-05-03T17:09:56Z</time></trkpt><trkpt lat="36.01799922997015" lon="-107.08093729903571"><ele>2165.0</ele><time>2026-05-03T17:09:57Z</time></trkpt><trkpt lat="36.018043207366134" lon="-107.08076941084688"><ele>2165.0</ele><time>2026-05-03T17:09:58.001Z</time></trkpt><trkpt lat="36.0180870163917" lon="-107.08059763332298"><ele>2166.25</ele><time>2026-05-03T17:09:59.001Z</time></trkpt><trkpt lat="36.018117553871605" lon="-107.08040894819241"><ele>2167.5</ele><time>2026-05-03T17:10:00.001Z</time></trkpt><trkpt lat="36.01814776657441" lon="-107.08022841222518"><ele>2168.75</ele><time>2026-05-03T17:10:01.001Z</time></trkpt><trkpt lat="36.01819052206441" lon="-107.08007648098014"><ele>2170.0</ele><time>2026-05-03T17:10:02.001Z</time></trkpt><trkpt lat="36.01822174486733" lon="-107.07996165284246"><ele>2170.2</ele><time>2026-05-03T17:10:03.001Z</time></trkpt><trkpt lat="36.018242130471805" lon="-107.07987153979701"><ele>2170.4</ele><time>2026-05-03T17:10:04.001Z</time></trkpt><trkpt lat="36.018238642469015" lon="-107.07976367579187"><ele>2170.6</ele><time>2026-05-03T17:10:06.001Z</time></trkpt><trkpt lat="36.01815035213191" lon="-107.07966528007567"><ele>2170.8</ele><time>2026-05-03T17:10:08.001Z</time></trkpt><trkpt lat="36.01804736266033" lon="-107.07961578374936"><ele>2171.0</ele><time>2026-05-03T17:10:09.001Z</time></trkpt><trkpt lat="36.01792782589074" lon="-107.0795682151387"><ele>2171.0</ele><time>2026-05-03T17:10:10.001Z</time></trkpt><trkpt lat="36.0177952439293" lon="-107.07951277841971"><ele>2171.0</ele><time>2026-05-03T17:10:11.001Z</time></trkpt><trkpt lat="36.017665688366" lon="-107.07947365283214"><ele>2171.0</ele><time>2026-05-03T17:10:12.001Z</time></trkpt><trkpt lat="36.01756947418166" lon="-107.07942688719669"><ele>2171.0</ele><time>2026-05-03T17:10:13.001Z</time></trkpt><trkpt lat="36.01747201355176" lon="-107.07938866847398"><ele>2172.6</ele><time>2026-05-03T17:10:14.001Z</time></trkpt><trkpt lat="36.01735560782986" lon="-107.07936911685516"><ele>2174.2</ele><time>2026-05-03T17:10:15.001Z</time></trkpt><trkpt lat="36.01728187662628" lon="-107.07934395096686"><ele>2175.8</ele><time>2026-05-03T17:10:16.001Z</time></trkpt><trkpt lat="36.01720904821376" lon="-107.07925038188836"><ele>2177.4</ele><time>2026-05-03T17:10:18.001Z</time></trkpt><trkpt lat="36.01715301418199" lon="-107.07912694469893"><ele>2179.0</ele><time>2026-05-03T17:10:19.001Z</time></trkpt><trkpt lat="36.01706933118197" lon="-107.07905270430179"><ele>2179.0</ele><time>2026-05-03T17:10:20.001Z</time></trkpt><trkpt lat="36.01698250108704" lon="-107.07903291052399"><ele>2179.0</ele><time>2026-05-03T17:10:21.001Z</time></trkpt><trkpt lat="36.01688495887086" lon="-107.07911026560427"><ele>2179.0</ele><time>2026-05-03T17:10:23.001Z</time></trkpt><trkpt lat="36.01684510991736" lon="-107.07921488064385"><ele>2179.0</ele><time>2026-05-03T17:10:24.001Z</time></trkpt><trkpt lat="36.01682136372926" lon="-107.07930798632552"><ele>2179.0</ele><time>2026-05-03T17:10:25.001Z</time></trkpt><trkpt lat="36.01676215541381" lon="-107.07937013346312"><ele>2179.0</ele><time>2026-05-03T17:10:26.001Z</time></trkpt><trkpt lat="36.01666253496913" lon="-107.07939469628624"><ele>2179.0</ele><time>2026-05-03T17:10:27.001Z</time></trkpt><trkpt lat="36.0165508853732" lon="-107.07940958571247"><ele>2179.0</ele><time>2026-05-03T17:10:28.001Z</time></trkpt><trkpt lat="36.016415330518484" lon="-107.07940938632204"><ele>2179.0</ele><time>2026-05-03T17:10:29.001Z</time></trkpt><trkpt lat="36.01626790469004" lon="-107.07945218607993"><ele>2179.4</ele><time>2026-05-03T17:10:30.001Z</time></trkpt><trkpt lat="36.01614240759419" lon="-107.0794906054311"><ele>2179.8</ele><time>2026-05-03T17:10:31.001Z</time></trkpt><trkpt lat="36.0160504899913" lon="-107.07951453482997"><ele>2180.2</ele><time>2026-05-03T17:10:32.001Z</time></trkpt><trkpt lat="36.01597268714511" lon="-107.07955605084939"><ele>2180.6</ele><time>2026-05-03T17:10:33.001Z</time></trkpt><trkpt lat="36.01588034231861" lon="-107.07960112028712"><ele>2181.0</ele><time>2026-05-03T17:10:34.001Z</time></trkpt><trkpt lat="36.01576484846" lon="-107.07961473237118"><ele>2181.0</ele><time>2026-05-03T17:10:35.001Z</time></trkpt><trkpt lat="36.01563166970029" lon="-107.07958819525173"><ele>2181.0</ele><time>2026-05-03T17:10:36.001Z</time></trkpt><trkpt lat="36.01552585964975" lon="-107.07954695869176"><ele>2181.0</ele><time>2026-05-03T17:10:37.001Z</time></trkpt><trkpt lat="36.01546640625001" lon="-107.07949559588725"><ele>2181.0</ele><time>2026-05-03T17:10:38.001Z</time></trkpt><trkpt lat="36.015418474746085" lon="-107.07938782985809"><ele>2181.0</ele><time>2026-05-03T17:10:39.001Z</time></trkpt><trkpt lat="36.01539940748406" lon="-107.07926749953488"><ele>2181.0</ele><time>2026-05-03T17:10:40.001Z</time></trkpt><trkpt lat="36.01538861351054" lon="-107.07911725817748"><ele>2181.0</ele><time>2026-05-03T17:10:41.001Z</time></trkpt><trkpt lat="36.01534893991785" lon="-107.07897188802819"><ele>2181.0</ele><time>2026-05-03T17:10:42.001Z</time></trkpt><trkpt lat="36.0152923464629" lon="-107.07885384192714"><ele>2181.0</ele><time>2026-05-03T17:10:43.001Z</time></trkpt><trkpt lat="36.015266510017405" lon="-107.07877871191997"><ele>2181.0</ele><time>2026-05-03T17:10:44.001Z</time></trkpt><trkpt lat="36.01532396516068" lon="-107.0787189652932"><ele>2182.4</ele><time>2026-05-03T17:10:45.001Z</time></trkpt><trkpt lat="36.01537930308108" lon="-107.07857669543831"><ele>2183.8</ele><time>2026-05-03T17:10:46.001Z</time></trkpt><trkpt lat="36.015380783724105" lon="-107.07843573163545"><ele>2185.2000000000003</ele><time>2026-05-03T17:10:47.001Z</time></trkpt><trkpt lat="36.01536400369262" lon="-107.07835142867094"><ele>2186.6</ele><time>2026-05-03T17:10:48.001Z</time></trkpt><trkpt lat="36.015420319919855" lon="-107.07830773803671"><ele>2188.0</ele><time>2026-05-03T17:10:49.001Z</time></trkpt><trkpt lat="36.01551501605145" lon="-107.07823921667112"><ele>2189.2000000000003</ele><time>2026-05-03T17:10:50.001Z</time></trkpt><trkpt lat="36.015546581468776" lon="-107.07812738642662"><ele>2190.4</ele><time>2026-05-03T17:10:51.001Z</time></trkpt><trkpt lat="36.015516284992955" lon="-107.07798060528575"><ele>2191.6000000000004</ele><time>2026-05-03T17:10:52.001Z</time></trkpt><trkpt lat="36.015471792925" lon="-107.07786889906666"><ele>2192.8</ele><time>2026-05-03T17:10:53.001Z</time></trkpt><trkpt lat="36.01541250715712" lon="-107.07777515950136"><ele>2194.0</ele><time>2026-05-03T17:10:54.001Z</time></trkpt><trkpt lat="36.015449798373375" lon="-107.07764287818624"><ele>2194.0</ele><time>2026-05-03T17:10:56.001Z</time></trkpt><trkpt lat="36.015524544445356" lon="-107.07756768671867"><ele>2194.0</ele><time>2026-05-03T17:10:57.001Z</time></trkpt><trkpt lat="36.01560611411593" lon="-107.07751681378572"><ele>2194.0</ele><time>2026-05-03T17:10:58.001Z</time></trkpt><trkpt lat="36.01568153892112" lon="-107.07751266862806"><ele>2194.0</ele><time>2026-05-03T17:10:59.001Z</time></trkpt><trkpt lat="36.015753456855705" lon="-107.07755383651181"><ele>2194.0</ele><time>2026-05-03T17:11:00.001Z</time></trkpt><trkpt lat="36.01585971756871" lon="-107.0774904497263"><ele>2195.25</ele><time>2026-05-03T17:11:02.001Z</time></trkpt><trkpt lat="36.01592528020845" lon="-107.07738378596294"><ele>2196.5</ele><time>2026-05-03T17:11:03.001Z</time></trkpt><trkpt lat="36.016008067871304" lon="-107.07725844685766"><ele>2197.75</ele><time>2026-05-03T17:11:04.001Z</time></trkpt><trkpt lat="36.01606652729517" lon="-107.07715967143298"><ele>2199.0</ele><time>2026-05-03T17:11:05.001Z</time></trkpt><trkpt lat="36.0161080268878" lon="-107.07703042634867"><ele>2199.0</ele><time>2026-05-03T17:11:06.001Z</time></trkpt><trkpt lat="36.01614776209154" lon="-107.07693352355078"><ele>2199.0</ele><time>2026-05-03T17:11:07.001Z</time></trkpt><trkpt lat="36.01619166704732" lon="-107.07681989595214"><ele>2199.0</ele><time>2026-05-03T17:11:09.001Z</time></trkpt><trkpt lat="36.0160774879923" lon="-107.07673182169725"><ele>2199.0</ele><time>2026-05-03T17:11:11.001Z</time></trkpt><trkpt lat="36.01597996341448" lon="-107.07665908857815"><ele>2199.0</ele><time>2026-05-03T17:11:12Z</time></trkpt><trkpt lat="36.015863784401546" lon="-107.07656608068386"><ele>2199.0</ele><time>2026-05-03T17:11:13Z</time></trkpt><trkpt lat="36.015733888779266" lon="-107.07646736237935"><ele>2199.0</ele><time>2026-05-03T17:11:14Z</time></trkpt><trkpt lat="36.01560382856781" lon="-107.07640436156109"><ele>2199.0</ele><time>2026-05-03T17:11:15Z</time></trkpt><trkpt lat="36.01547154527296" lon="-107.07636059945054"><ele>2199.0</ele><time>2026-05-03T17:11:16Z</time></trkpt><trkpt lat="36.015362935743724" lon="-107.07631105277659"><ele>2199.0</ele><time>2026-05-03T17:11:17Z</time></trkpt><trkpt lat="36.01523643896454" lon="-107.0762811038298"><ele>2199.0</ele><time>2026-05-03T17:11:18Z</time></trkpt><trkpt lat="36.015092388931905" lon="-107.07624176429778"><ele>2199.0</ele><time>2026-05-03T17:11:19Z</time></trkpt><trkpt lat="36.0149748776637" lon="-107.07621138319543"><ele>2199.0</ele><time>2026-05-03T17:11:20Z</time></trkpt><trkpt lat="36.01488934411797" lon="-107.07618910705739"><ele>2199.0</ele><time>2026-05-03T17:11:21Z</time></trkpt><trkpt lat="36.01482122713956" lon="-107.07614370170731"><ele>2199.0</ele><time>2026-05-03T17:11:22Z</time></trkpt><trkpt lat="36.014763445268166" lon="-107.07604991699846"><ele>2199.0</ele><time>2026-05-03T17:11:23Z</time></trkpt><trkpt lat="36.01470687254442" lon="-107.07590834286437"><ele>2199.0</ele><time>2026-05-03T17:11:24Z</time></trkpt><trkpt lat="36.01467901187569" lon="-107.07580940083199"><ele>2199.0</ele><time>2026-05-03T17:11:25Z</time></trkpt><trkpt lat="36.01470575167758" lon="-107.07569289401593"><ele>2198.5</ele><time>2026-05-03T17:11:27Z</time></trkpt><trkpt lat="36.014788877883504" lon="-107.075597084944"><ele>2198.0</ele><time>2026-05-03T17:11:28Z</time></trkpt><trkpt lat="36.014885676287115" lon="-107.07547720941032"><ele>2197.5</ele><time>2026-05-03T17:11:29Z</time></trkpt><trkpt lat="36.014988787936566" lon="-107.07531752411306"><ele>2197.0</ele><time>2026-05-03T17:11:30Z</time></trkpt><trkpt lat="36.01507921072161" lon="-107.07517692973381"><ele>2196.75</ele><time>2026-05-03T17:11:31Z</time></trkpt><trkpt lat="36.01517977049615" lon="-107.07502649056075"><ele>2196.5</ele><time>2026-05-03T17:11:32Z</time></trkpt><trkpt lat="36.01526615386905" lon="-107.0748858223968"><ele>2196.25</ele><time>2026-05-03T17:11:33Z</time></trkpt><trkpt lat="36.015363009365245" lon="-107.07474916660648"><ele>2196.0</ele><time>2026-05-03T17:11:34Z</time></trkpt><trkpt lat="36.015458425870385" lon="-107.07461295899583"><ele>2195.5</ele><time>2026-05-03T17:11:35Z</time></trkpt><trkpt lat="36.01554323133824" lon="-107.07449067645229"><ele>2195.0</ele><time>2026-05-03T17:11:36Z</time></trkpt><trkpt lat="36.01563060405633" lon="-107.07436810140756"><ele>2194.5</ele><time>2026-05-03T17:11:37Z</time></trkpt><trkpt lat="36.01570880299052" lon="-107.07424679638147"><ele>2194.0</ele><time>2026-05-03T17:11:38Z</time></trkpt><trkpt lat="36.015776882411465" lon="-107.07413158836974"><ele>2194.0</ele><time>2026-05-03T17:11:39Z</time></trkpt><trkpt lat="36.01585309465353" lon="-107.07400699878683"><ele>2194.0</ele><time>2026-05-03T17:11:40Z</time></trkpt><trkpt lat="36.015981020130205" lon="-107.0738280014578"><ele>2194.0</ele><time>2026-05-03T17:11:41Z</time></trkpt><trkpt lat="36.01608786410975" lon="-107.07367511049715"><ele>2194.0</ele><time>2026-05-03T17:11:42Z</time></trkpt><trkpt lat="36.01617768730353" lon="-107.07355803380231"><ele>2194.0</ele><time>2026-05-03T17:11:43Z</time></trkpt><trkpt lat="36.01625560779662" lon="-107.07345107857377"><ele>2194.0</ele><time>2026-05-03T17:11:44Z</time></trkpt><trkpt lat="36.01633169701466" lon="-107.07332168092292"><ele>2194.0</ele><time>2026-05-03T17:11:45Z</time></trkpt><trkpt lat="36.016413632982356" lon="-107.07318248195253"><ele>2194.75</ele><time>2026-05-03T17:11:46Z</time></trkpt><trkpt lat="36.01649944538631" lon="-107.0730479682847"><ele>2195.5</ele><time>2026-05-03T17:11:47Z</time></trkpt><trkpt lat="36.016584386984164" lon="-107.07292010257322"><ele>2196.25</ele><time>2026-05-03T17:11:48Z</time></trkpt><trkpt lat="36.01666363244775" lon="-107.0728008485022"><ele>2197.0</ele><time>2026-05-03T17:11:49Z</time></trkpt><trkpt lat="36.016748857719925" lon="-107.07266663336873"><ele>2195.3333333333335</ele><time>2026-05-03T17:11:50Z</time></trkpt><trkpt lat="36.01685066029891" lon="-107.07252193183236"><ele>2193.6666666666665</ele><time>2026-05-03T17:11:51Z</time></trkpt><trkpt lat="36.016958753814" lon="-107.07237161008771"><ele>2192.0</ele><time>2026-05-03T17:11:52Z</time></trkpt><trkpt lat="36.017054329998764" lon="-107.07224341410233"><ele>2192.0</ele><time>2026-05-03T17:11:53Z</time></trkpt><trkpt lat="36.01713049052391" lon="-107.07213825590654"><ele>2192.0</ele><time>2026-05-03T17:11:54Z</time></trkpt><trkpt lat="36.01720295979" lon="-107.07203163428143"><ele>2192.0</ele><time>2026-05-03T17:11:55Z</time></trkpt><trkpt lat="36.01727160817031" lon="-107.07191923963894"><ele>2192.0</ele><time>2026-05-03T17:11:56Z</time></trkpt><trkpt lat="36.017342299961676" lon="-107.0717887407697"><ele>2192.0</ele><time>2026-05-03T17:11:57Z</time></trkpt><trkpt lat="36.01744733252983" lon="-107.07165098097327"><ele>2192.0</ele><time>2026-05-03T17:11:58Z</time></trkpt><trkpt lat="36.01754514217489" lon="-107.07150000991768"><ele>2192.0</ele><time>2026-05-03T17:11:59Z</time></trkpt><trkpt lat="36.01761228790968" lon="-107.07139191699281"><ele>2192.0</ele><time>2026-05-03T17:12:00Z</time></trkpt><trkpt lat="36.017677163661105" lon="-107.07129514269893"><ele>2190.6</ele><time>2026-05-03T17:12:01Z</time></trkpt><trkpt lat="36.01773878824184" lon="-107.07120444162112"><ele>2189.2</ele><time>2026-05-03T17:12:02Z</time></trkpt><trkpt lat="36.01780127041717" lon="-107.0711243558172"><ele>2187.8</ele><time>2026-05-03T17:12:03Z</time></trkpt><trkpt lat="36.01784552435788" lon="-107.0710630025964"><ele>2186.4</ele><time>2026-05-03T17:12:04Z</time></trkpt><trkpt lat="36.01790641360088" lon="-107.07098080343435"><ele>2185.0</ele><time>2026-05-03T17:12:05Z</time></trkpt><trkpt lat="36.017992329573886" lon="-107.07085401905486"><ele>2184.25</ele><time>2026-05-03T17:12:06Z</time></trkpt><trkpt lat="36.018082761313096" lon="-107.07070539502465"><ele>2183.5</ele><time>2026-05-03T17:12:07Z</time></trkpt><trkpt lat="36.01817063858792" lon="-107.07056910387705"><ele>2182.75</ele><time>2026-05-03T17:12:08.001Z</time></trkpt><trkpt lat="36.018249529643626" lon="-107.07045337897144"><ele>2182.0</ele><time>2026-05-03T17:12:09.001Z</time></trkpt><trkpt lat="36.0183144316962" lon="-107.07035348839784"><ele>2181.75</ele><time>2026-05-03T17:12:10.001Z</time></trkpt><trkpt lat="36.018398582494285" lon="-107.07022305097358"><ele>2181.5</ele><time>2026-05-03T17:12:11.001Z</time></trkpt><trkpt lat="36.01847813545911" lon="-107.07008860498348"><ele>2181.25</ele><time>2026-05-03T17:12:12.001Z</time></trkpt><trkpt lat="36.018537111350945" lon="-107.07000065336095"><ele>2181.0</ele><time>2026-05-03T17:12:13.001Z</time></trkpt><trkpt lat="36.01860975594867" lon="-107.06989940152835"><ele>2180.0</ele><time>2026-05-03T17:12:14.001Z</time></trkpt><trkpt lat="36.01868731669232" lon="-107.06980629652183"><ele>2179.0</ele><time>2026-05-03T17:12:15.001Z</time></trkpt><trkpt lat="36.01876598037347" lon="-107.06970221412219"><ele>2178.0</ele><time>2026-05-03T17:12:16.001Z</time></trkpt><trkpt lat="36.01884754126547" lon="-107.06959032319573"><ele>2177.0</ele><time>2026-05-03T17:12:17.001Z</time></trkpt><trkpt lat="36.01892297163669" lon="-107.06949242356586"><ele>2177.0</ele><time>2026-05-03T17:12:18.001Z</time></trkpt><trkpt lat="36.0189926741968" lon="-107.06941349302049"><ele>2177.0</ele><time>2026-05-03T17:12:19.001Z</time></trkpt><trkpt lat="36.0190502587691" lon="-107.06935200691726"><ele>2177.0</ele><time>2026-05-03T17:12:20.001Z</time></trkpt><trkpt lat="36.01916849931842" lon="-107.06934943990852"><ele>2177.0</ele><time>2026-05-03T17:12:22.001Z</time></trkpt><trkpt lat="36.01927264306464" lon="-107.06938302708276"><ele>2177.0</ele><time>2026-05-03T17:12:23.001Z</time></trkpt><trkpt lat="36.019420938314994" lon="-107.06943042857692"><ele>2176.5</ele><time>2026-05-03T17:12:24.001Z</time></trkpt><trkpt lat="36.01953323899881" lon="-107.06944242569158"><ele>2176.0</ele><time>2026-05-03T17:12:25.001Z</time></trkpt><trkpt lat="36.019639680548195" lon="-107.06948934078717"><ele>2175.5</ele><time>2026-05-03T17:12:26.001Z</time></trkpt><trkpt lat="36.019775899966945" lon="-107.06955752061269"><ele>2175.0</ele><time>2026-05-03T17:12:27.001Z</time></trkpt><trkpt lat="36.01994336280967" lon="-107.06964141610146"><ele>2174.4</ele><time>2026-05-03T17:12:28.001Z</time></trkpt><trkpt lat="36.020071101530604" lon="-107.06972149984826"><ele>2173.8</ele><time>2026-05-03T17:12:29.001Z</time></trkpt><trkpt lat="36.02014461562758" lon="-107.06976947781783"><ele>2173.2</ele><time>2026-05-03T17:12:30.001Z</time></trkpt><trkpt lat="36.02018413754674" lon="-107.06987590889017"><ele>2172.6</ele><time>2026-05-03T17:12:32.001Z</time></trkpt><trkpt lat="36.02017284428475" lon="-107.0699732855483"><ele>2172.0</ele><time>2026-05-03T17:12:33.001Z</time></trkpt><trkpt lat="36.02013348925741" lon="-107.07012266505318"><ele>2171.7999999999997</ele><time>2026-05-03T17:12:34.001Z</time></trkpt><trkpt lat="36.020117374506775" lon="-107.07028322377688"><ele>2171.6</ele><time>2026-05-03T17:12:35.001Z</time></trkpt><trkpt lat="36.020109880887354" lon="-107.07042597766792"><ele>2171.3999999999996</ele><time>2026-05-03T17:12:36.001Z</time></trkpt><trkpt lat="36.02007828927798" lon="-107.07054647339625"><ele>2171.2</ele><time>2026-05-03T17:12:37.001Z</time></trkpt><trkpt lat="36.0200411111909" lon="-107.07064019078805"><ele>2171.0</ele><time>2026-05-03T17:12:38.001Z</time></trkpt><trkpt lat="36.01999102696268" lon="-107.07070603355541"><ele>2171.6</ele><time>2026-05-03T17:12:39.001Z</time></trkpt><trkpt lat="36.019912635205955" lon="-107.07075824861603"><ele>2172.2</ele><time>2026-05-03T17:12:40.001Z</time></trkpt><trkpt lat="36.019827760182174" lon="-107.07082096023444"><ele>2172.8</ele><time>2026-05-03T17:12:41.001Z</time></trkpt><trkpt lat="36.01978469974103" lon="-107.07089507321895"><ele>2173.4</ele><time>2026-05-03T17:12:42.001Z</time></trkpt><trkpt lat="36.01975793300443" lon="-107.07100105170382"><ele>2174.0</ele><time>2026-05-03T17:12:43.001Z</time></trkpt><trkpt lat="36.01973324691587" lon="-107.07113064051858"><ele>2174.0</ele><time>2026-05-03T17:12:44.001Z</time></trkpt><trkpt lat="36.01970311687784" lon="-107.0712253618502"><ele>2174.0</ele><time>2026-05-03T17:12:45.001Z</time></trkpt><trkpt lat="36.01962959975517" lon="-107.07130247476135"><ele>2174.0</ele><time>2026-05-03T17:12:46.001Z</time></trkpt><trkpt lat="36.01954077661085" lon="-107.07142576033984"><ele>2174.0</ele><time>2026-05-03T17:12:47.001Z</time></trkpt><trkpt lat="36.01950897931709" lon="-107.07152355066829"><ele>2174.0</ele><time>2026-05-03T17:12:48.001Z</time></trkpt><trkpt lat="36.01959441327508" lon="-107.07169415183115"><ele>2173.75</ele><time>2026-05-03T17:12:50.001Z</time></trkpt><trkpt lat="36.01965700671441" lon="-107.07181225890577"><ele>2173.5</ele><time>2026-05-03T17:12:51.001Z</time></trkpt><trkpt lat="36.01969893612642" lon="-107.07190334894364"><ele>2173.25</ele><time>2026-05-03T17:12:52.001Z</time></trkpt><trkpt lat="36.01968306285366" lon="-107.07207169611729"><ele>2173.0</ele><time>2026-05-03T17:12:54.001Z</time></trkpt><trkpt lat="36.01961291006747" lon="-107.0722086962441"><ele>2173.0</ele><time>2026-05-03T17:12:55.001Z</time></trkpt><trkpt lat="36.0195673113464" lon="-107.07231029141668"><ele>2173.0</ele><time>2026-05-03T17:12:56.001Z</time></trkpt><trkpt lat="36.019505684085225" lon="-107.07240002101591"><ele>2173.0</ele><time>2026-05-03T17:12:57.001Z</time></trkpt><trkpt lat="36.01942639972913" lon="-107.07250039905642"><ele>2173.0</ele><time>2026-05-03T17:12:58.001Z</time></trkpt><trkpt lat="36.01934406027759" lon="-107.072606471719"><ele>2173.0</ele><time>2026-05-03T17:12:59.001Z</time></trkpt><trkpt lat="36.01929331448691" lon="-107.0727499827792"><ele>2172.25</ele><time>2026-05-03T17:13:00.001Z</time></trkpt><trkpt lat="36.01924864114054" lon="-107.07290387838401"><ele>2171.5</ele><time>2026-05-03T17:13:01.001Z</time></trkpt><trkpt lat="36.01920716269554" lon="-107.07305191880283"><ele>2170.75</ele><time>2026-05-03T17:13:02.001Z</time></trkpt><trkpt lat="36.019168787200606" lon="-107.07321456554565"><ele>2170.0</ele><time>2026-05-03T17:13:03.001Z</time></trkpt><trkpt lat="36.01914157267054" lon="-107.07337374422407"><ele>2172.6</ele><time>2026-05-03T17:13:04.001Z</time></trkpt><trkpt lat="36.01911648116304" lon="-107.07350841044843"><ele>2175.2</ele><time>2026-05-03T17:13:05.001Z</time></trkpt><trkpt lat="36.01909628165159" lon="-107.07363146661143"><ele>2177.8</ele><time>2026-05-03T17:13:06.001Z</time></trkpt><trkpt lat="36.01907333619077" lon="-107.07373750067788"><ele>2180.4</ele><time>2026-05-03T17:13:07.001Z</time></trkpt><trkpt lat="36.01901737058581" lon="-107.0738284455313"><ele>2183.0</ele><time>2026-05-03T17:13:08.001Z</time></trkpt><trkpt lat="36.01895421982592" lon="-107.07391194595986"><ele>2183.0</ele><time>2026-05-03T17:13:09.001Z</time></trkpt><trkpt lat="36.01892238851611" lon="-107.07398799190806"><ele>2183.0</ele><time>2026-05-03T17:13:10.001Z</time></trkpt><trkpt lat="36.018927147268656" lon="-107.0740714797438"><ele>2183.0</ele><time>2026-05-03T17:13:11.001Z</time></trkpt><trkpt lat="36.01895379699409" lon="-107.07420980139736"><ele>2183.0</ele><time>2026-05-03T17:13:12.001Z</time></trkpt><trkpt lat="36.01896699781777" lon="-107.07439899636509"><ele>2183.0</ele><time>2026-05-03T17:13:13.001Z</time></trkpt><trkpt lat="36.01897709960626" lon="-107.07456278525636"><ele>2181.4</ele><time>2026-05-03T17:13:14.001Z</time></trkpt><trkpt lat="36.01900471714368" lon="-107.07465155996928"><ele>2179.8</ele><time>2026-05-03T17:13:15.001Z</time></trkpt><trkpt lat="36.019061632677634" lon="-107.07471491561888"><ele>2178.2</ele><time>2026-05-03T17:13:16.001Z</time></trkpt><trkpt lat="36.01915037670055" lon="-107.074781699796"><ele>2176.6</ele><time>2026-05-03T17:13:17Z</time></trkpt><trkpt lat="36.019243917240196" lon="-107.0748457659518"><ele>2175.0</ele><time>2026-05-03T17:13:18Z</time></trkpt><trkpt lat="36.01932663577814" lon="-107.07492810468379"><ele>2171.4</ele><time>2026-05-03T17:13:19Z</time></trkpt><trkpt lat="36.01938767496411" lon="-107.07500444202729"><ele>2167.8</ele><time>2026-05-03T17:13:20Z</time></trkpt><trkpt lat="36.01946377802137" lon="-107.07507078675881"><ele>2164.2</ele><time>2026-05-03T17:13:21Z</time></trkpt><trkpt lat="36.01957408093893" lon="-107.07513169723956"><ele>2160.6</ele><time>2026-05-03T17:13:22Z</time></trkpt><trkpt lat="36.01969931121993" lon="-107.07522925558878"><ele>2157.0</ele><time>2026-05-03T17:13:23Z</time></trkpt><trkpt lat="36.0197905913433" lon="-107.07533940566319"><ele>2157.0</ele><time>2026-05-03T17:13:24Z</time></trkpt><trkpt lat="36.019894699744135" lon="-107.07544205209118"><ele>2157.0</ele><time>2026-05-03T17:13:25Z</time></trkpt><trkpt lat="36.01996201321719" lon="-107.07548627338919"><ele>2157.0</ele><time>2026-05-03T17:13:26Z</time></trkpt><trkpt lat="36.020060198466695" lon="-107.07551255955778"><ele>2157.0</ele><time>2026-05-03T17:13:27Z</time></trkpt><trkpt lat="36.020186319305765" lon="-107.07552608968783"><ele>2157.0</ele><time>2026-05-03T17:13:28Z</time></trkpt><trkpt lat="36.02033789644238" lon="-107.07554142304858"><ele>2154.6666666666665</ele><time>2026-05-03T17:13:29Z</time></trkpt><trkpt lat="36.02048749128019" lon="-107.07556885547055"><ele>2152.333333333333</ele><time>2026-05-03T17:13:30Z</time></trkpt><trkpt lat="36.02064583207471" lon="-107.07559692265444"><ele>2150.0</ele><time>2026-05-03T17:13:31Z</time></trkpt><trkpt lat="36.02080632572408" lon="-107.0756401532006"><ele>2150.0</ele><time>2026-05-03T17:13:32Z</time></trkpt><trkpt lat="36.02099781081852" lon="-107.07569245489395"><ele>2150.0</ele><time>2026-05-03T17:13:33Z</time></trkpt><trkpt lat="36.02118391139003" lon="-107.07573512490812"><ele>2150.0</ele><time>2026-05-03T17:13:34Z</time></trkpt><trkpt lat="36.021341298843424" lon="-107.07577543299173"><ele>2150.5</ele><time>2026-05-03T17:13:35Z</time></trkpt><trkpt lat="36.02149734819613" lon="-107.07582052904307"><ele>2151.0</ele><time>2026-05-03T17:13:36Z</time></trkpt><trkpt lat="36.02161820923719" lon="-107.07586276213492"><ele>2151.5</ele><time>2026-05-03T17:13:37Z</time></trkpt><trkpt lat="36.021727518873455" lon="-107.0758962234222"><ele>2152.0</ele><time>2026-05-03T17:13:38Z</time></trkpt><trkpt lat="36.02182916450796" lon="-107.075928650799"><ele>2153.2</ele><time>2026-05-03T17:13:39Z</time></trkpt><trkpt lat="36.02191320115622" lon="-107.07593931671033"><ele>2154.3999999999996</ele><time>2026-05-03T17:13:40Z</time></trkpt><trkpt lat="36.021986057161584" lon="-107.07588201904676"><ele>2155.6000000000004</ele><time>2026-05-03T17:13:42Z</time></trkpt><trkpt lat="36.02201344640533" lon="-107.07578545721778"><ele>2156.8</ele><time>2026-05-03T17:13:43Z</time></trkpt><trkpt lat="36.02204750348082" lon="-107.07566428042205"><ele>2158.0</ele><time>2026-05-03T17:13:44Z</time></trkpt><trkpt lat="36.02207985808777" lon="-107.07552523611557"><ele>2158.0</ele><time>2026-05-03T17:13:45Z</time></trkpt><trkpt lat="36.02210072449191" lon="-107.0753768607457"><ele>2158.0</ele><time>2026-05-03T17:13:46Z</time></trkpt><trkpt lat="36.02211747212365" lon="-107.07527407939129"><ele>2158.0</ele><time>2026-05-03T17:13:47Z</time></trkpt><trkpt lat="36.022133566152334" lon="-107.07519824058728"><ele>2158.0</ele><time>2026-05-03T17:13:48Z</time></trkpt><trkpt lat="36.02214071880515" lon="-107.07501675731002"><ele>2158.0</ele><time>2026-05-03T17:13:50Z</time></trkpt><trkpt lat="36.022126235552776" lon="-107.07486164976852"><ele>2158.25</ele><time>2026-05-03T17:13:51Z</time></trkpt><trkpt lat="36.0221360177467" lon="-107.07469035803823"><ele>2158.5</ele><time>2026-05-03T17:13:52Z</time></trkpt><trkpt lat="36.02211481764908" lon="-107.07454359545672"><ele>2158.75</ele><time>2026-05-03T17:13:53Z</time></trkpt><trkpt lat="36.02208578429697" lon="-107.07441839874124"><ele>2159.0</ele><time>2026-05-03T17:13:54Z</time></trkpt><trkpt lat="36.02207587988792" lon="-107.07430095984458"><ele>2159.0</ele><time>2026-05-03T17:13:55Z</time></trkpt><trkpt lat="36.02206991835517" lon="-107.0741651276688"><ele>2159.0</ele><time>2026-05-03T17:13:56Z</time></trkpt><trkpt lat="36.02207811253344" lon="-107.07403522827988"><ele>2159.0</ele><time>2026-05-03T17:13:57Z</time></trkpt><trkpt lat="36.02209639064715" lon="-107.07391494368055"><ele>2159.0</ele><time>2026-05-03T17:13:58Z</time></trkpt><trkpt lat="36.02212197189394" lon="-107.0737843183261"><ele>2159.0</ele><time>2026-05-03T17:13:59Z</time></trkpt><trkpt lat="36.02214104062361" lon="-107.07369836037748"><ele>2160.25</ele><time>2026-05-03T17:14:00Z</time></trkpt><trkpt lat="36.022250735660876" lon="-107.07357071826351"><ele>2161.5</ele><time>2026-05-03T17:14:02Z</time></trkpt><trkpt lat="36.02234494524546" lon="-107.07348825019908"><ele>2162.75</ele><time>2026-05-03T17:14:03Z</time></trkpt><trkpt lat="36.022451563250485" lon="-107.07338586345374"><ele>2164.0</ele><time>2026-05-03T17:14:04Z</time></trkpt><trkpt lat="36.02252137874775" lon="-107.07330720236905"><ele>2164.0</ele><time>2026-05-03T17:14:05Z</time></trkpt><trkpt lat="36.022589196681956" lon="-107.07327632711657"><ele>2164.0</ele><time>2026-05-03T17:14:06Z</time></trkpt><trkpt lat="36.02265567776466" lon="-107.07325427182766"><ele>2164.0</ele><time>2026-05-03T17:14:07Z</time></trkpt><trkpt lat="36.02277737846232" lon="-107.07323907664592"><ele>2164.0</ele><time>2026-05-03T17:14:08Z</time></trkpt><trkpt lat="36.02290521076336" lon="-107.07324662511219"><ele>2164.0</ele><time>2026-05-03T17:14:09Z</time></trkpt><trkpt lat="36.02298718489767" lon="-107.07324308833508"><ele>2164.0</ele><time>2026-05-03T17:14:10Z</time></trkpt><trkpt lat="36.0231216177652" lon="-107.07332817066727"><ele>2164.0</ele><time>2026-05-03T17:14:12Z</time></trkpt><trkpt lat="36.02321850682762" lon="-107.073398892057"><ele>2164.0</ele><time>2026-05-03T17:14:13Z</time></trkpt><trkpt lat="36.02330955850465" lon="-107.07344054343868"><ele>2164.0</ele><time>2026-05-03T17:14:14Z</time></trkpt><trkpt lat="36.02339620544613" lon="-107.07345696897862"><ele>2164.0</ele><time>2026-05-03T17:14:15Z</time></trkpt><trkpt lat="36.023504672781556" lon="-107.07347068045138"><ele>2163.8</ele><time>2026-05-03T17:14:16Z</time></trkpt><trkpt lat="36.02358755371369" lon="-107.07346522975318"><ele>2163.6000000000004</ele><time>2026-05-03T17:14:17Z</time></trkpt><trkpt lat="36.02364645444892" lon="-107.07342917156323"><ele>2163.4</ele><time>2026-05-03T17:14:18Z</time></trkpt><trkpt lat="36.023707719429666" lon="-107.07334108487234"><ele>2163.2000000000003</ele><time>2026-05-03T17:14:19.001Z</time></trkpt><trkpt lat="36.02381067282217" lon="-107.07321281335497"><ele>2163.0</ele><time>2026-05-03T17:14:20.001Z</time></trkpt><trkpt lat="36.023906397775676" lon="-107.07313166269721"><ele>2161.6</ele><time>2026-05-03T17:14:21.001Z</time></trkpt><trkpt lat="36.023972522114114" lon="-107.07308592850653"><ele>2160.2000000000003</ele><time>2026-05-03T17:14:22.001Z</time></trkpt><trkpt lat="36.02402479299749" lon="-107.0730163848057"><ele>2158.8</ele><time>2026-05-03T17:14:23.001Z</time></trkpt><trkpt lat="36.02405668737812" lon="-107.07290902417706"><ele>2157.4</ele><time>2026-05-03T17:14:24.001Z</time></trkpt><trkpt lat="36.024079860320036" lon="-107.07276815336007"><ele>2156.0</ele><time>2026-05-03T17:14:25.001Z</time></trkpt><trkpt lat="36.02411806569853" lon="-107.07260152954873"><ele>2156.5</ele><time>2026-05-03T17:14:26.001Z</time></trkpt><trkpt lat="36.02416416396275" lon="-107.07243696403337"><ele>2157.0</ele><time>2026-05-03T17:14:27.001Z</time></trkpt><trkpt lat="36.02420926081301" lon="-107.07231023624871"><ele>2157.5</ele><time>2026-05-03T17:14:28.001Z</time></trkpt><trkpt lat="36.024254033796126" lon="-107.07215104689038"><ele>2158.0</ele><time>2026-05-03T17:14:29.001Z</time></trkpt><trkpt lat="36.024292075276236" lon="-107.0720001859549"><ele>2158.0</ele><time>2026-05-03T17:14:30.001Z</time></trkpt><trkpt lat="36.024343057010576" lon="-107.07187024018154"><ele>2158.0</ele><time>2026-05-03T17:14:31.001Z</time></trkpt><trkpt lat="36.02440677208783" lon="-107.07175636208784"><ele>2158.0</ele><time>2026-05-03T17:14:32.001Z</time></trkpt><trkpt lat="36.024468401406736" lon="-107.07161058593658"><ele>2158.0</ele><time>2026-05-03T17:14:33.001Z</time></trkpt><trkpt lat="36.02449130830879" lon="-107.0714716050242"><ele>2157.4</ele><time>2026-05-03T17:14:34.001Z</time></trkpt><trkpt lat="36.02452094390995" lon="-107.07136971881347"><ele>2156.8</ele><time>2026-05-03T17:14:35.001Z</time></trkpt><trkpt lat="36.0245535146269" lon="-107.0713015530325"><ele>2156.2</ele><time>2026-05-03T17:14:36.001Z</time></trkpt><trkpt lat="36.024616608439544" lon="-107.0712348219439"><ele>2155.6</ele><time>2026-05-03T17:14:37.001Z</time></trkpt><trkpt lat="36.02471731070919" lon="-107.07114871795875"><ele>2155.0</ele><time>2026-05-03T17:14:38.001Z</time></trkpt><trkpt lat="36.024822085357286" lon="-107.07099936896883"><ele>2155.0</ele><time>2026-05-03T17:14:39.001Z</time></trkpt><trkpt lat="36.02488833964945" lon="-107.07083229580526"><ele>2155.0</ele><time>2026-05-03T17:14:40.001Z</time></trkpt><trkpt lat="36.02494994756196" lon="-107.07065563285242"><ele>2155.0</ele><time>2026-05-03T17:14:41.001Z</time></trkpt><trkpt lat="36.02500228567827" lon="-107.07050323984679"><ele>2155.0</ele><time>2026-05-03T17:14:42.001Z</time></trkpt><trkpt lat="36.02505852724355" lon="-107.07036526946635"><ele>2156.0</ele><time>2026-05-03T17:14:43.001Z</time></trkpt><trkpt lat="36.02512557862741" lon="-107.07023489478527"><ele>2157.0</ele><time>2026-05-03T17:14:44.001Z</time></trkpt><trkpt lat="36.02520116592988" lon="-107.07009956220092"><ele>2158.0</ele><time>2026-05-03T17:14:45.001Z</time></trkpt><trkpt lat="36.02525346391555" lon="-107.06996683275048"><ele>2159.0</ele><time>2026-05-03T17:14:46.001Z</time></trkpt><trkpt lat="36.02532056356777" lon="-107.06984583332466"><ele>2156.5</ele><time>2026-05-03T17:14:47.001Z</time></trkpt><trkpt lat="36.02537387104511" lon="-107.06971282880963"><ele>2154.0</ele><time>2026-05-03T17:14:48.001Z</time></trkpt><trkpt lat="36.0254429486538" lon="-107.06962559131756"><ele>2151.5</ele><time>2026-05-03T17:14:49.001Z</time></trkpt><trkpt lat="36.0255287701183" lon="-107.0695300397955"><ele>2149.0</ele><time>2026-05-03T17:14:50.001Z</time></trkpt><trkpt lat="36.02559645523089" lon="-107.06941329700811"><ele>2149.0</ele><time>2026-05-03T17:14:51.001Z</time></trkpt><trkpt lat="36.025647896745184" lon="-107.06932401624046"><ele>2149.0</ele><time>2026-05-03T17:14:52.001Z</time></trkpt><trkpt lat="36.02568310559284" lon="-107.06924788228366"><ele>2149.0</ele><time>2026-05-03T17:14:53.001Z</time></trkpt><trkpt lat="36.02573172180864" lon="-107.06918261336533"><ele>2149.0</ele><time>2026-05-03T17:14:54.001Z</time></trkpt><trkpt lat="36.02581326573645" lon="-107.06910540136617"><ele>2149.0</ele><time>2026-05-03T17:14:55.001Z</time></trkpt><trkpt lat="36.02590579480319" lon="-107.0690360734399"><ele>2149.0</ele><time>2026-05-03T17:14:56.001Z</time></trkpt><trkpt lat="36.02600569082102" lon="-107.06896008504573"><ele>2150.6</ele><time>2026-05-03T17:14:57.001Z</time></trkpt><trkpt lat="36.026081111079236" lon="-107.06886536456393"><ele>2152.2</ele><time>2026-05-03T17:14:58.001Z</time></trkpt><trkpt lat="36.026139759757505" lon="-107.0687677313799"><ele>2153.7999999999997</ele><time>2026-05-03T17:14:59.001Z</time></trkpt><trkpt lat="36.02618148304598" lon="-107.06865505271755"><ele>2155.4</ele><time>2026-05-03T17:15:00.001Z</time></trkpt><trkpt lat="36.02620270055868" lon="-107.06852740965064"><ele>2157.0</ele><time>2026-05-03T17:15:01.001Z</time></trkpt><trkpt lat="36.02621176998739" lon="-107.06841246257149"><ele>2157.0</ele><time>2026-05-03T17:15:02.001Z</time></trkpt><trkpt lat="36.02621072883303" lon="-107.06829740345998"><ele>2157.0</ele><time>2026-05-03T17:15:03.001Z</time></trkpt><trkpt lat="36.02620611825367" lon="-107.06817199596561"><ele>2157.0</ele><time>2026-05-03T17:15:04.001Z</time></trkpt><trkpt lat="36.02619966016784" lon="-107.06802641119933"><ele>2157.0</ele><time>2026-05-03T17:15:05.001Z</time></trkpt><trkpt lat="36.02619782422724" lon="-107.06791517059203"><ele>2157.0</ele><time>2026-05-03T17:15:06.001Z</time></trkpt><trkpt lat="36.026173008843685" lon="-107.06783872333163"><ele>2157.7999999999997</ele><time>2026-05-03T17:15:07.001Z</time></trkpt><trkpt lat="36.02611886455729" lon="-107.06777312920214"><ele>2158.6</ele><time>2026-05-03T17:15:08.001Z</time></trkpt><trkpt lat="36.026051156301385" lon="-107.06769631445972"><ele>2159.3999999999996</ele><time>2026-05-03T17:15:09.001Z</time></trkpt><trkpt lat="36.02596588557996" lon="-107.06760731491842"><ele>2160.2</ele><time>2026-05-03T17:15:10.001Z</time></trkpt><trkpt lat="36.02590561712169" lon="-107.06751591614216"><ele>2161.0</ele><time>2026-05-03T17:15:11.001Z</time></trkpt><trkpt lat="36.02587603225437" lon="-107.06740750391982"><ele>2160.0</ele><time>2026-05-03T17:15:12.001Z</time></trkpt><trkpt lat="36.025826155164445" lon="-107.06723553699392"><ele>2159.0</ele><time>2026-05-03T17:15:13.001Z</time></trkpt><trkpt lat="36.0257491967892" lon="-107.06703589357474"><ele>2158.0</ele><time>2026-05-03T17:15:14.001Z</time></trkpt><trkpt lat="36.02569963676956" lon="-107.06687494988088"><ele>2158.0</ele><time>2026-05-03T17:15:15.001Z</time></trkpt><trkpt lat="36.02568375186436" lon="-107.06677300531977"><ele>2158.0</ele><time>2026-05-03T17:15:16.001Z</time></trkpt><trkpt lat="36.02565299278895" lon="-107.06669477740265"><ele>2158.0</ele><time>2026-05-03T17:15:17.001Z</time></trkpt><trkpt lat="36.02560254664804" lon="-107.06661395618714"><ele>2158.0</ele><time>2026-05-03T17:15:18.001Z</time></trkpt><trkpt lat="36.025571899135244" lon="-107.06654037873176"><ele>2158.0</ele><time>2026-05-03T17:15:19.001Z</time></trkpt><trkpt lat="36.025537666368294" lon="-107.06642849123278"><ele>2158.0</ele><time>2026-05-03T17:15:20.001Z</time></trkpt><trkpt lat="36.02548235790618" lon="-107.06631412016856"><ele>2157.75</ele><time>2026-05-03T17:15:21.001Z</time></trkpt><trkpt lat="36.025439865988226" lon="-107.06618003129469"><ele>2157.5</ele><time>2026-05-03T17:15:22.001Z</time></trkpt><trkpt lat="36.02544798770786" lon="-107.06605582407678"><ele>2157.25</ele><time>2026-05-03T17:15:23Z</time></trkpt><trkpt lat="36.02547236284421" lon="-107.06592305238941"><ele>2157.0</ele><time>2026-05-03T17:15:24Z</time></trkpt><trkpt lat="36.02551659134192" lon="-107.06574697838828"><ele>2155.2</ele><time>2026-05-03T17:15:25Z</time></trkpt><trkpt lat="36.02554052572864" lon="-107.06560413634071"><ele>2153.3999999999996</ele><time>2026-05-03T17:15:26Z</time></trkpt><trkpt lat="36.025549483367726" lon="-107.06546184450319"><ele>2151.6000000000004</ele><time>2026-05-03T17:15:27Z</time></trkpt><trkpt lat="36.02555767751807" lon="-107.06532853571984"><ele>2149.8</ele><time>2026-05-03T17:15:28Z</time></trkpt><trkpt lat="36.025576576712375" lon="-107.06521021208657"><ele>2148.0</ele><time>2026-05-03T17:15:29Z</time></trkpt><trkpt lat="36.02559353912156" lon="-107.0651086116848"><ele>2148.0</ele><time>2026-05-03T17:15:30Z</time></trkpt><trkpt lat="36.02562389603386" lon="-107.0650319357005"><ele>2148.0</ele><time>2026-05-03T17:15:31Z</time></trkpt><trkpt lat="36.02567904864154" lon="-107.06490757661801"><ele>2148.0</ele><time>2026-05-03T17:15:32Z</time></trkpt><trkpt lat="36.02573423727504" lon="-107.06476109764827"><ele>2148.0</ele><time>2026-05-03T17:15:33Z</time></trkpt><trkpt lat="36.025763545383384" lon="-107.06465339070402"><ele>2148.0</ele><time>2026-05-03T17:15:34Z</time></trkpt><trkpt lat="36.02584859348002" lon="-107.06456336513503"><ele>2149.2000000000003</ele><time>2026-05-03T17:15:36Z</time></trkpt><trkpt lat="36.02593925434376" lon="-107.0645281704593"><ele>2150.4</ele><time>2026-05-03T17:15:37Z</time></trkpt><trkpt lat="36.026024727157804" lon="-107.06446282544654"><ele>2151.6000000000004</ele><time>2026-05-03T17:15:38Z</time></trkpt><trkpt lat="36.02609804360969" lon="-107.06437245251735"><ele>2152.8</ele><time>2026-05-03T17:15:39Z</time></trkpt><trkpt lat="36.02618146580988" lon="-107.06428742498834"><ele>2154.0</ele><time>2026-05-03T17:15:40Z</time></trkpt><trkpt lat="36.02628353317458" lon="-107.06420197750997"><ele>2152.8</ele><time>2026-05-03T17:15:41Z</time></trkpt><trkpt lat="36.02636474429594" lon="-107.064106864817"><ele>2151.6000000000004</ele><time>2026-05-03T17:15:42Z</time></trkpt><trkpt lat="36.02642793053046" lon="-107.06403556123657"><ele>2150.4</ele><time>2026-05-03T17:15:43Z</time></trkpt><trkpt lat="36.02652932169183" lon="-107.06398287178001"><ele>2149.2000000000003</ele><time>2026-05-03T17:15:44Z</time></trkpt><trkpt lat="36.026657627224125" lon="-107.06396696371853"><ele>2148.0</ele><time>2026-05-03T17:15:45Z</time></trkpt><trkpt lat="36.0267751676383" lon="-107.06397274020566"><ele>2150.8</ele><time>2026-05-03T17:15:46Z</time></trkpt><trkpt lat="36.026867581280676" lon="-107.06397272054318"><ele>2153.6000000000004</ele><time>2026-05-03T17:15:47Z</time></trkpt><trkpt lat="36.02694496407379" lon="-107.06398192534373"><ele>2156.3999999999996</ele><time>2026-05-03T17:15:48Z</time></trkpt><trkpt lat="36.0270605990061" lon="-107.06407207667965"><ele>2159.2</ele><time>2026-05-03T17:15:50Z</time></trkpt><trkpt lat="36.02713948864096" lon="-107.064143501792"><ele>2162.0</ele><time>2026-05-03T17:15:51Z</time></trkpt><trkpt lat="36.02722422102679" lon="-107.0641569660334"><ele>2163.0</ele><time>2026-05-03T17:15:52Z</time></trkpt><trkpt lat="36.02729282089725" lon="-107.06413103421255"><ele>2164.0</ele><time>2026-05-03T17:15:53Z</time></trkpt><trkpt lat="36.027407321345684" lon="-107.06415371018514"><ele>2165.0</ele><time>2026-05-03T17:15:55Z</time></trkpt><trkpt lat="36.027479424869654" lon="-107.06422277844429"><ele>2166.0</ele><time>2026-05-03T17:15:56Z</time></trkpt><trkpt lat="36.02754357135849" lon="-107.0643175344886"><ele>2167.0</ele><time>2026-05-03T17:15:57Z</time></trkpt><trkpt lat="36.02758289487627" lon="-107.06438205636147"><ele>2168.0</ele><time>2026-05-03T17:15:58Z</time></trkpt><trkpt lat="36.02759410818008" lon="-107.06455420894673"><ele>2168.6</ele><time>2026-05-03T17:16:00Z</time></trkpt><trkpt lat="36.02760692384837" lon="-107.06468206074825"><ele>2169.2000000000003</ele><time>2026-05-03T17:16:01Z</time></trkpt><trkpt lat="36.027659287750616" lon="-107.06474338120998"><ele>2169.8</ele><time>2026-05-03T17:16:02Z</time></trkpt><trkpt lat="36.027741460469066" lon="-107.06477370791958"><ele>2170.4</ele><time>2026-05-03T17:16:03Z</time></trkpt><trkpt lat="36.02783675568526" lon="-107.06477868192742"><ele>2171.0</ele><time>2026-05-03T17:16:04Z</time></trkpt><trkpt lat="36.02793005861858" lon="-107.06479634317685"><ele>2171.0</ele><time>2026-05-03T17:16:05Z</time></trkpt><trkpt lat="36.02800664334549" lon="-107.06482906783005"><ele>2171.0</ele><time>2026-05-03T17:16:06Z</time></trkpt><trkpt lat="36.02808715446642" lon="-107.06484460552133"><ele>2171.0</ele><time>2026-05-03T17:16:07Z</time></trkpt><trkpt lat="36.02816426472692" lon="-107.06485615745422"><ele>2171.0</ele><time>2026-05-03T17:16:08Z</time></trkpt><trkpt lat="36.02825557622765" lon="-107.06482238089629"><ele>2171.0</ele><time>2026-05-03T17:16:10Z</time></trkpt><trkpt lat="36.028277053887024" lon="-107.06474448334873"><ele>2171.0</ele><time>2026-05-03T17:16:11Z</time></trkpt><trkpt lat="36.028268117475875" lon="-107.06463912378062"><ele>2171.0</ele><time>2026-05-03T17:16:12Z</time></trkpt><trkpt lat="36.02822293853892" lon="-107.06451219394434"><ele>2171.0</ele><time>2026-05-03T17:16:13Z</time></trkpt><trkpt lat="36.02815455275303" lon="-107.0643685806242"><ele>2171.0</ele><time>2026-05-03T17:16:14Z</time></trkpt><trkpt lat="36.028104849483654" lon="-107.06423069559125"><ele>2171.0</ele><time>2026-05-03T17:16:15Z</time></trkpt><trkpt lat="36.02805476387395" lon="-107.06412579205774"><ele>2169.833333333333</ele><time>2026-05-03T17:16:16Z</time></trkpt><trkpt lat="36.028014554628285" lon="-107.06405056392356"><ele>2168.6666666666665</ele><time>2026-05-03T17:16:17Z</time></trkpt><trkpt lat="36.02797623609556" lon="-107.06391665399805"><ele>2167.5</ele><time>2026-05-03T17:16:19Z</time></trkpt><trkpt lat="36.02796665475298" lon="-107.06383041459098"><ele>2166.3333333333335</ele><time>2026-05-03T17:16:20Z</time></trkpt><trkpt lat="36.02797464831022" lon="-107.06374757472533"><ele>2165.166666666667</ele><time>2026-05-03T17:16:21Z</time></trkpt><trkpt lat="36.02799612802637" lon="-107.06367369765715"><ele>2164.0</ele><time>2026-05-03T17:16:22Z</time></trkpt><trkpt lat="36.02802936286932" lon="-107.06351332604949"><ele>2164.0</ele><time>2026-05-03T17:16:24.001Z</time></trkpt><trkpt lat="36.028038291565636" lon="-107.06342082642769"><ele>2164.0</ele><time>2026-05-03T17:16:25.001Z</time></trkpt><trkpt lat="36.028045094035775" lon="-107.06332389061578"><ele>2164.0</ele><time>2026-05-03T17:16:26.001Z</time></trkpt><trkpt lat="36.02805794844466" lon="-107.06321402518675"><ele>2164.0</ele><time>2026-05-03T17:16:27.001Z</time></trkpt><trkpt lat="36.02812491162247" lon="-107.06310081161149"><ele>2164.0</ele><time>2026-05-03T17:16:28.001Z</time></trkpt><trkpt lat="36.02822258312634" lon="-107.06297534300423"><ele>2163.5</ele><time>2026-05-03T17:16:29.001Z</time></trkpt><trkpt lat="36.02832483395887" lon="-107.06285246279481"><ele>2163.0</ele><time>2026-05-03T17:16:30.001Z</time></trkpt><trkpt lat="36.028417283313075" lon="-107.06271240393379"><ele>2162.5</ele><time>2026-05-03T17:16:31.001Z</time></trkpt><trkpt lat="36.028473040515834" lon="-107.06261699919348"><ele>2162.0</ele><time>2026-05-03T17:16:32.001Z</time></trkpt><trkpt lat="36.02851697985342" lon="-107.06253885159107"><ele>2162.0</ele><time>2026-05-03T17:16:33.001Z</time></trkpt><trkpt lat="36.028560233364594" lon="-107.06245404006407"><ele>2162.0</ele><time>2026-05-03T17:16:34.001Z</time></trkpt><trkpt lat="36.02862069983053" lon="-107.06237243713095"><ele>2162.0</ele><time>2026-05-03T17:16:35.001Z</time></trkpt><trkpt lat="36.02872062510107" lon="-107.06230827337492"><ele>2162.0</ele><time>2026-05-03T17:16:36.001Z</time></trkpt><trkpt lat="36.028834745083465" lon="-107.0622964559615"><ele>2162.0</ele><time>2026-05-03T17:16:37.001Z</time></trkpt><trkpt lat="36.02894293824903" lon="-107.0622968683513"><ele>2160.5</ele><time>2026-05-03T17:16:38.001Z</time></trkpt><trkpt lat="36.02903688871461" lon="-107.06227199906138"><ele>2159.0</ele><time>2026-05-03T17:16:39.001Z</time></trkpt><trkpt lat="36.02911392698888" lon="-107.06224293095771"><ele>2157.5</ele><time>2026-05-03T17:16:40.001Z</time></trkpt><trkpt lat="36.02918935610303" lon="-107.06221495342221"><ele>2156.0</ele><time>2026-05-03T17:16:41.001Z</time></trkpt><trkpt lat="36.02926711082434" lon="-107.06219024142035"><ele>2154.5</ele><time>2026-05-03T17:16:42.001Z</time></trkpt><trkpt lat="36.02934702985027" lon="-107.06217378582213"><ele>2153.0</ele><time>2026-05-03T17:16:43.001Z</time></trkpt><trkpt lat="36.02941121908657" lon="-107.06211686914075"><ele>2152.2000000000003</ele><time>2026-05-03T17:16:45.001Z</time></trkpt><trkpt lat="36.029510716678885" lon="-107.06218352099553"><ele>2151.4</ele><time>2026-05-03T17:16:48.001Z</time></trkpt><trkpt lat="36.02956466483643" lon="-107.06222902551558"><ele>2150.6000000000004</ele><time>2026-05-03T17:16:49.001Z</time></trkpt><trkpt lat="36.029643378628194" lon="-107.06223526816872"><ele>2149.8</ele><time>2026-05-03T17:16:50.001Z</time></trkpt><trkpt lat="36.029737572006276" lon="-107.06224300135474"><ele>2149.0</ele><time>2026-05-03T17:16:51.001Z</time></trkpt><trkpt lat="36.029840171359965" lon="-107.06225884139764"><ele>2149.0</ele><time>2026-05-03T17:16:52.001Z</time></trkpt><trkpt lat="36.029912474981046" lon="-107.06225954167651"><ele>2149.0</ele><time>2026-05-03T17:16:53.001Z</time></trkpt><trkpt lat="36.02999817583886" lon="-107.06231440990538"><ele>2149.0</ele><time>2026-05-03T17:16:55.001Z</time></trkpt><trkpt lat="36.03005293757117" lon="-107.06240787826678"><ele>2149.0</ele><time>2026-05-03T17:16:56.001Z</time></trkpt><trkpt lat="36.030135402942" lon="-107.06250554859967"><ele>2149.0</ele><time>2026-05-03T17:16:57.001Z</time></trkpt><trkpt lat="36.030202971398126" lon="-107.06256370770654"><ele>2148.3333333333335</ele><time>2026-05-03T17:16:58.001Z</time></trkpt><trkpt lat="36.030283543043915" lon="-107.06260036827233"><ele>2147.666666666667</ele><time>2026-05-03T17:16:59.001Z</time></trkpt><trkpt lat="36.03035551870318" lon="-107.06261677819413"><ele>2147.0</ele><time>2026-05-03T17:17:00.001Z</time></trkpt><trkpt lat="36.03043212168145" lon="-107.06254604388013"><ele>2146.3333333333335</ele><time>2026-05-03T17:17:03.001Z</time></trkpt><trkpt lat="36.03052530292534" lon="-107.06246654080326"><ele>2145.6666666666665</ele><time>2026-05-03T17:17:05.001Z</time></trkpt><trkpt lat="36.0305199128258" lon="-107.06237212370029"><ele>2145.0</ele><time>2026-05-03T17:17:08.001Z</time></trkpt><trkpt lat="36.03053738326372" lon="-107.06227838399357"><ele>2145.0</ele><time>2026-05-03T17:17:09.001Z</time></trkpt><trkpt lat="36.03050490193938" lon="-107.06220608044364"><ele>2145.0</ele><time>2026-05-03T17:17:10.001Z</time></trkpt><trkpt lat="36.030468107147016" lon="-107.0621284214835"><ele>2145.0</ele><time>2026-05-03T17:17:11.001Z</time></trkpt><trkpt lat="36.0304259415124" lon="-107.06203721010189"><ele>2145.0</ele><time>2026-05-03T17:17:12.001Z</time></trkpt><trkpt lat="36.03037995463755" lon="-107.0619456367928"><ele>2145.0</ele><time>2026-05-03T17:17:13.001Z</time></trkpt><trkpt lat="36.030356442331254" lon="-107.0618593862064"><ele>2145.0</ele><time>2026-05-03T17:17:14.001Z</time></trkpt><trkpt lat="36.03034348546749" lon="-107.06176335805574"><ele>2145.0</ele><time>2026-05-03T17:17:15.001Z</time></trkpt><trkpt lat="36.03034299406895" lon="-107.06166263946335"><ele>2145.0</ele><time>2026-05-03T17:17:16.001Z</time></trkpt><trkpt lat="36.03035255316934" lon="-107.06155556947729"><ele>2145.0</ele><time>2026-05-03T17:17:17.001Z</time></trkpt><trkpt lat="36.03035340190607" lon="-107.06143820894589"><ele>2145.0</ele><time>2026-05-03T17:17:18.001Z</time></trkpt><trkpt lat="36.03034910946522" lon="-107.06132646135457"><ele>2145.0</ele><time>2026-05-03T17:17:19.001Z</time></trkpt><trkpt lat="36.03033098904365" lon="-107.06120347442084"><ele>2142.75</ele><time>2026-05-03T17:17:20.001Z</time></trkpt><trkpt lat="36.03029346993001" lon="-107.06108769071602"><ele>2140.5</ele><time>2026-05-03T17:17:21.001Z</time></trkpt><trkpt lat="36.03023969775351" lon="-107.06099655161094"><ele>2138.25</ele><time>2026-05-03T17:17:22.001Z</time></trkpt><trkpt lat="36.03012464362974" lon="-107.06083080011014"><ele>2136.0</ele><time>2026-05-03T17:17:23.001Z</time></trkpt><trkpt lat="36.03003947065792" lon="-107.06072101199601"><ele>2135.25</ele><time>2026-05-03T17:17:24.001Z</time></trkpt><trkpt lat="36.02997049302511" lon="-107.06061525915905"><ele>2134.5</ele><time>2026-05-03T17:17:25.001Z</time></trkpt><trkpt lat="36.029920690002015" lon="-107.0604836628249"><ele>2133.75</ele><time>2026-05-03T17:17:26.001Z</time></trkpt><trkpt lat="36.02987621393824" lon="-107.06033960724916"><ele>2133.0</ele><time>2026-05-03T17:17:27.001Z</time></trkpt><trkpt lat="36.02980808401923" lon="-107.0601760677794"><ele>2133.0</ele><time>2026-05-03T17:17:28.001Z</time></trkpt><trkpt lat="36.02970257802535" lon="-107.06007499711684"><ele>2133.0</ele><time>2026-05-03T17:17:29Z</time></trkpt><trkpt lat="36.02959752431332" lon="-107.06000975147994"><ele>2133.0</ele><time>2026-05-03T17:17:30Z</time></trkpt><trkpt lat="36.02946001909488" lon="-107.0599296622341"><ele>2133.0</ele><time>2026-05-03T17:17:31Z</time></trkpt><trkpt lat="36.02933418623812" lon="-107.05985328372881"><ele>2132.25</ele><time>2026-05-03T17:17:32Z</time></trkpt><trkpt lat="36.02921444723129" lon="-107.05978031814496"><ele>2131.5</ele><time>2026-05-03T17:17:33Z</time></trkpt><trkpt lat="36.02909603270047" lon="-107.05971956323323"><ele>2130.75</ele><time>2026-05-03T17:17:34Z</time></trkpt><trkpt lat="36.02898671115408" lon="-107.05965970417387"><ele>2130.0</ele><time>2026-05-03T17:17:35Z</time></trkpt><trkpt lat="36.02888862161435" lon="-107.05956328338036"><ele>2130.0</ele><time>2026-05-03T17:17:36Z</time></trkpt><trkpt lat="36.028792027573886" lon="-107.05942368636703"><ele>2130.0</ele><time>2026-05-03T17:17:37Z</time></trkpt><trkpt lat="36.02871736652901" lon="-107.05931633241667"><ele>2130.0</ele><time>2026-05-03T17:17:38Z</time></trkpt><trkpt lat="36.02867340631065" lon="-107.05922639824449"><ele>2130.0</ele><time>2026-05-03T17:17:39Z</time></trkpt><trkpt lat="36.02863172492257" lon="-107.05915137967055"><ele>2130.0</ele><time>2026-05-03T17:17:40Z</time></trkpt><trkpt lat="36.0286007020984" lon="-107.05901015522488"><ele>2129.75</ele><time>2026-05-03T17:17:42Z</time></trkpt><trkpt lat="36.028624689865445" lon="-107.05884360649324"><ele>2129.5</ele><time>2026-05-03T17:17:44Z</time></trkpt><trkpt lat="36.02869882717306" lon="-107.05873247986152"><ele>2129.25</ele><time>2026-05-03T17:17:45Z</time></trkpt><trkpt lat="36.02878075846191" lon="-107.05863132707547"><ele>2129.0</ele><time>2026-05-03T17:17:46Z</time></trkpt><trkpt lat="36.028857106408644" lon="-107.05856876165818"><ele>2129.0</ele><time>2026-05-03T17:17:47Z</time></trkpt><trkpt lat="36.02892971792719" lon="-107.05849886299292"><ele>2129.0</ele><time>2026-05-03T17:17:49Z</time></trkpt><trkpt lat="36.02902199394046" lon="-107.0584966661568"><ele>2129.0</ele><time>2026-05-03T17:17:51Z</time></trkpt><trkpt lat="36.029096547730155" lon="-107.05854562803276"><ele>2129.0</ele><time>2026-05-03T17:17:52Z</time></trkpt><trkpt lat="36.02916070846512" lon="-107.05865163619366"><ele>2129.0</ele><time>2026-05-03T17:17:53Z</time></trkpt><trkpt lat="36.029226457031896" lon="-107.05878506211829"><ele>2129.0</ele><time>2026-05-03T17:17:54Z</time></trkpt><trkpt lat="36.02930448432521" lon="-107.05888755723412"><ele>2129.0</ele><time>2026-05-03T17:17:55Z</time></trkpt><trkpt lat="36.029395783915504" lon="-107.0589679581232"><ele>2129.0</ele><time>2026-05-03T17:17:56Z</time></trkpt><trkpt lat="36.029492363201925" lon="-107.0590424855315"><ele>2129.0</ele><time>2026-05-03T17:17:57Z</time></trkpt><trkpt lat="36.02959136847669" lon="-107.05910156930885"><ele>2129.25</ele><time>2026-05-03T17:17:58Z</time></trkpt><trkpt lat="36.02970250829366" lon="-107.05915432543712"><ele>2129.5</ele><time>2026-05-03T17:17:59Z</time></trkpt><trkpt lat="36.029835598789475" lon="-107.05921402771801"><ele>2129.75</ele><time>2026-05-03T17:18:00Z</time></trkpt><trkpt lat="36.029956541564694" lon="-107.05926296760056"><ele>2130.0</ele><time>2026-05-03T17:18:01Z</time></trkpt><trkpt lat="36.03003374406995" lon="-107.05930876470103"><ele>2130.25</ele><time>2026-05-03T17:18:02Z</time></trkpt><trkpt lat="36.03012519076227" lon="-107.05935972671176"><ele>2130.5</ele><time>2026-05-03T17:18:04Z</time></trkpt><trkpt lat="36.03024214416093" lon="-107.05933025128176"><ele>2130.75</ele><time>2026-05-03T17:18:06Z</time></trkpt><trkpt lat="36.0303174493055" lon="-107.05924644826501"><ele>2131.0</ele><time>2026-05-03T17:18:07Z</time></trkpt><trkpt lat="36.03038065148115" lon="-107.05910306820854"><ele>2131.0</ele><time>2026-05-03T17:18:08Z</time></trkpt><trkpt lat="36.03044052972257" lon="-107.05897624662292"><ele>2131.0</ele><time>2026-05-03T17:18:09Z</time></trkpt><trkpt lat="36.03048931359639" lon="-107.05889408192294"><ele>2131.0</ele><time>2026-05-03T17:18:10Z</time></trkpt><trkpt lat="36.03055682366689" lon="-107.05883479647136"><ele>2131.0</ele><time>2026-05-03T17:18:12Z</time></trkpt><trkpt lat="36.03062450639241" lon="-107.05884351907177"><ele>2131.0</ele><time>2026-05-03T17:18:13Z</time></trkpt><trkpt lat="36.03070325819624" lon="-107.05888408428784"><ele>2131.0</ele><time>2026-05-03T17:18:14Z</time></trkpt><trkpt lat="36.03075094009465" lon="-107.05897514369663"><ele>2131.0</ele><time>2026-05-03T17:18:15Z</time></trkpt><trkpt lat="36.03078101861658" lon="-107.05907477524721"><ele>2131.0</ele><time>2026-05-03T17:18:16Z</time></trkpt><trkpt lat="36.03078393456715" lon="-107.059180788125"><ele>2131.0</ele><time>2026-05-03T17:18:17Z</time></trkpt><trkpt lat="36.03078515661872" lon="-107.05927066231955"><ele>2131.0</ele><time>2026-05-03T17:18:18Z</time></trkpt><trkpt lat="36.03076607731091" lon="-107.05936871922682"><ele>2131.0</ele><time>2026-05-03T17:18:19Z</time></trkpt><trkpt lat="36.0307445924601" lon="-107.05947262689338"><ele>2131.0</ele><time>2026-05-03T17:18:20Z</time></trkpt><trkpt lat="36.03073844815007" lon="-107.05955841497607"><ele>2131.0</ele><time>2026-05-03T17:18:22Z</time></trkpt><trkpt lat="36.030829256442836" lon="-107.05965218563753"><ele>2131.0</ele><time>2026-05-03T17:18:24Z</time></trkpt><trkpt lat="36.03090179874942" lon="-107.05965399697408"><ele>2131.0</ele><time>2026-05-03T17:18:25Z</time></trkpt><trkpt lat="36.03099714560917" lon="-107.05963235403733"><ele>2131.0</ele><time>2026-05-03T17:18:26Z</time></trkpt><trkpt lat="36.031109133823364" lon="-107.05958606999233"><ele>2131.0</ele><time>2026-05-03T17:18:27Z</time></trkpt><trkpt lat="36.03122822918289" lon="-107.0595311668746"><ele>2131.0</ele><time>2026-05-03T17:18:28Z</time></trkpt><trkpt lat="36.031359306194815" lon="-107.0594653672937"><ele>2131.0</ele><time>2026-05-03T17:18:29Z</time></trkpt><trkpt lat="36.03149274149635" lon="-107.05939572097769"><ele>2131.0</ele><time>2026-05-03T17:18:30.001Z</time></trkpt><trkpt lat="36.03158775556628" lon="-107.05932978034784"><ele>2131.0</ele><time>2026-05-03T17:18:31.001Z</time></trkpt><trkpt lat="36.031670027708486" lon="-107.05922815483878"><ele>2131.0</ele><time>2026-05-03T17:18:33.001Z</time></trkpt><trkpt lat="36.03170725581751" lon="-107.05914796188752"><ele>2131.0</ele><time>2026-05-03T17:18:34.001Z</time></trkpt><trkpt lat="36.031745421158114" lon="-107.05904819615691"><ele>2131.0</ele><time>2026-05-03T17:18:35.001Z</time></trkpt><trkpt lat="36.031845260962854" lon="-107.05897183648457"><ele>2131.0</ele><time>2026-05-03T17:18:37.001Z</time></trkpt><trkpt lat="36.03195104321178" lon="-107.05900121831101"><ele>2131.0</ele><time>2026-05-03T17:18:38.001Z</time></trkpt><trkpt lat="36.032066681055575" lon="-107.05900719433671"><ele>2131.0</ele><time>2026-05-03T17:18:39.001Z</time></trkpt><trkpt lat="36.03213287325969" lon="-107.05899620643576"><ele>2131.0</ele><time>2026-05-03T17:18:40.001Z</time></trkpt><trkpt lat="36.03222837131287" lon="-107.05901005584657"><ele>2131.0</ele><time>2026-05-03T17:18:42.001Z</time></trkpt><trkpt lat="36.032327096971365" lon="-107.05908103070716"><ele>2131.0</ele><time>2026-05-03T17:18:43.001Z</time></trkpt><trkpt lat="36.032438703236814" lon="-107.05920477422262"><ele>2131.0</ele><time>2026-05-03T17:18:44.001Z</time></trkpt><trkpt lat="36.032566537721436" lon="-107.05929930085286"><ele>2131.5</ele><time>2026-05-03T17:18:45.001Z</time></trkpt><trkpt lat="36.03272288310296" lon="-107.05937409136281"><ele>2132.0</ele><time>2026-05-03T17:18:46.001Z</time></trkpt><trkpt lat="36.03286035600039" lon="-107.0594511931765"><ele>2132.5</ele><time>2026-05-03T17:18:47.001Z</time></trkpt><trkpt lat="36.032946522345576" lon="-107.0595125193283"><ele>2133.0</ele><time>2026-05-03T17:18:48.001Z</time></trkpt><trkpt lat="36.03300746769871" lon="-107.05955120654332"><ele>2133.0</ele><time>2026-05-03T17:18:49.001Z</time></trkpt><trkpt lat="36.03311158927363" lon="-107.05954798754746"><ele>2133.0</ele><time>2026-05-03T17:18:51.001Z</time></trkpt><trkpt lat="36.033181236030906" lon="-107.05951016593093"><ele>2133.0</ele><time>2026-05-03T17:18:52.001Z</time></trkpt><trkpt lat="36.033259014543816" lon="-107.0594271860686"><ele>2133.0</ele><time>2026-05-03T17:18:53.001Z</time></trkpt><trkpt lat="36.033365370643175" lon="-107.05931050224147"><ele>2133.0</ele><time>2026-05-03T17:18:54.001Z</time></trkpt><trkpt lat="36.03349782090222" lon="-107.05922640990971"><ele>2133.0</ele><time>2026-05-03T17:18:55.001Z</time></trkpt><trkpt lat="36.033596353210434" lon="-107.05919246408511"><ele>2133.0</ele><time>2026-05-03T17:18:56.001Z</time></trkpt><trkpt lat="36.0336707781075" lon="-107.05913909505206"><ele>2133.0</ele><time>2026-05-03T17:18:57.001Z</time></trkpt><trkpt lat="36.03375104417913" lon="-107.05911568351972"><ele>2133.0</ele><time>2026-05-03T17:18:58.001Z</time></trkpt><trkpt lat="36.03384664537391" lon="-107.0591251515312"><ele>2133.0</ele><time>2026-05-03T17:18:59.001Z</time></trkpt><trkpt lat="36.033952435476195" lon="-107.0591561275921"><ele>2132.8</ele><time>2026-05-03T17:19:00.001Z</time></trkpt><trkpt lat="36.034061166300546" lon="-107.05920565020439"><ele>2132.6000000000004</ele><time>2026-05-03T17:19:01.001Z</time></trkpt><trkpt lat="36.03416371497891" lon="-107.05925686253693"><ele>2132.3999999999996</ele><time>2026-05-03T17:19:02.001Z</time></trkpt><trkpt lat="36.03422651659666" lon="-107.0592839691429"><ele>2132.2</ele><time>2026-05-03T17:19:03.001Z</time></trkpt><trkpt lat="36.03432466275718" lon="-107.0594221097427"><ele>2132.0</ele><time>2026-05-03T17:19:05.001Z</time></trkpt><trkpt lat="36.03438399081229" lon="-107.05953130842371"><ele>2132.2</ele><time>2026-05-03T17:19:06.001Z</time></trkpt><trkpt lat="36.034433615880886" lon="-107.05964971915195"><ele>2132.3999999999996</ele><time>2026-05-03T17:19:07.001Z</time></trkpt><trkpt lat="36.03444919305201" lon="-107.05979159437184"><ele>2132.6000000000004</ele><time>2026-05-03T17:19:08.001Z</time></trkpt><trkpt lat="36.03447458510463" lon="-107.05994386903448"><ele>2132.8</ele><time>2026-05-03T17:19:09.001Z</time></trkpt><trkpt lat="36.03450179385282" lon="-107.06004854975501"><ele>2133.0</ele><time>2026-05-03T17:19:10.001Z</time></trkpt><trkpt lat="36.03454826487227" lon="-107.0601353819008"><ele>2133.0</ele><time>2026-05-03T17:19:11.001Z</time></trkpt><trkpt lat="36.03461724741566" lon="-107.06022034878305"><ele>2133.0</ele><time>2026-05-03T17:19:12.001Z</time></trkpt><trkpt lat="36.03472302626463" lon="-107.06033554657947"><ele>2133.0</ele><time>2026-05-03T17:19:13.001Z</time></trkpt><trkpt lat="36.034809428421674" lon="-107.06044872456529"><ele>2133.0</ele><time>2026-05-03T17:19:14.001Z</time></trkpt><trkpt lat="36.034875685770366" lon="-107.06054078190547"><ele>2133.0</ele><time>2026-05-03T17:19:15.001Z</time></trkpt><trkpt lat="36.03495044604339" lon="-107.06061606241015"><ele>2133.0</ele><time>2026-05-03T17:19:17.001Z</time></trkpt><trkpt lat="36.03510234104885" lon="-107.06060709479027"><ele>2133.0</ele><time>2026-05-03T17:19:19.001Z</time></trkpt><trkpt lat="36.0352421008509" lon="-107.06055354507946"><ele>2133.0</ele><time>2026-05-03T17:19:20.001Z</time></trkpt><trkpt lat="36.0353857792751" lon="-107.0604649570554"><ele>2133.0</ele><time>2026-05-03T17:19:21.001Z</time></trkpt><trkpt lat="36.0355400029344" lon="-107.0603836960604"><ele>2133.0</ele><time>2026-05-03T17:19:22.001Z</time></trkpt><trkpt lat="36.03564882483882" lon="-107.06031321259739"><ele>2133.0</ele><time>2026-05-03T17:19:23.001Z</time></trkpt><trkpt lat="36.035718310672934" lon="-107.06027294531523"><ele>2133.0</ele><time>2026-05-03T17:19:24.001Z</time></trkpt><trkpt lat="36.03578685545781" lon="-107.06025560220446"><ele>2133.0</ele><time>2026-05-03T17:19:25.001Z</time></trkpt><trkpt lat="36.03586949166382" lon="-107.06024820395702"><ele>2133.2000000000003</ele><time>2026-05-03T17:19:26.001Z</time></trkpt><trkpt lat="36.03596303652191" lon="-107.06021970255293"><ele>2133.4</ele><time>2026-05-03T17:19:27.001Z</time></trkpt><trkpt lat="36.036042437518596" lon="-107.0601537409933"><ele>2133.6000000000004</ele><time>2026-05-03T17:19:28.001Z</time></trkpt><trkpt lat="36.036107046115816" lon="-107.06006424170099"><ele>2133.8</ele><time>2026-05-03T17:19:29.001Z</time></trkpt><trkpt lat="36.036166845960174" lon="-107.05998721203781"><ele>2134.0</ele><time>2026-05-03T17:19:30.001Z</time></trkpt><trkpt lat="36.03626773726288" lon="-107.05991266616239"><ele>2134.0</ele><time>2026-05-03T17:19:32.001Z</time></trkpt><trkpt lat="36.03638077909928" lon="-107.05991978717071"><ele>2134.0</ele><time>2026-05-03T17:19:34.001Z</time></trkpt><trkpt lat="36.03646753422996" lon="-107.06000737178591"><ele>2134.0</ele><time>2026-05-03T17:19:35Z</time></trkpt><trkpt lat="36.03655644980253" lon="-107.060119732791"><ele>2134.0</ele><time>2026-05-03T17:19:36Z</time></trkpt><trkpt lat="36.036664598589866" lon="-107.06022060816477"><ele>2134.3333333333335</ele><time>2026-05-03T17:19:37Z</time></trkpt><trkpt lat="36.03673557045967" lon="-107.06027856598811"><ele>2134.666666666667</ele><time>2026-05-03T17:19:38Z</time></trkpt><trkpt lat="36.03679970912474" lon="-107.06032437353844"><ele>2135.0</ele><time>2026-05-03T17:19:39Z</time></trkpt><trkpt lat="36.03686060015256" lon="-107.06036666353701"><ele>2135.3333333333335</ele><time>2026-05-03T17:19:40Z</time></trkpt><trkpt lat="36.036923641838946" lon="-107.0604130164299"><ele>2135.6666666666665</ele><time>2026-05-03T17:19:41Z</time></trkpt><trkpt lat="36.03699980868829" lon="-107.0604647352444"><ele>2136.0</ele><time>2026-05-03T17:19:42Z</time></trkpt><trkpt lat="36.037078491326525" lon="-107.06047236462271"><ele>2136.0</ele><time>2026-05-03T17:19:43Z</time></trkpt><trkpt lat="36.03716623363629" lon="-107.0604592591341"><ele>2136.0</ele><time>2026-05-03T17:19:44Z</time></trkpt><trkpt lat="36.03725191417202" lon="-107.06042453473269"><ele>2136.0</ele><time>2026-05-03T17:19:45Z</time></trkpt><trkpt lat="36.03733059904413" lon="-107.06033698948106"><ele>2136.0</ele><time>2026-05-03T17:19:46Z</time></trkpt><trkpt lat="36.03738855907995" lon="-107.06021331134497"><ele>2136.0</ele><time>2026-05-03T17:19:47Z</time></trkpt><trkpt lat="36.037444848566366" lon="-107.06010455399296"><ele>2135.8333333333335</ele><time>2026-05-03T17:19:48Z</time></trkpt><trkpt lat="36.03754124208504" lon="-107.06002394289749"><ele>2135.6666666666665</ele><time>2026-05-03T17:19:50Z</time></trkpt><trkpt lat="36.037612403646115" lon="-107.05998224862348"><ele>2135.5</ele><time>2026-05-03T17:19:51Z</time></trkpt><trkpt lat="36.03767348835652" lon="-107.05994879647517"><ele>2135.333333333333</ele><time>2026-05-03T17:19:52Z</time></trkpt><trkpt lat="36.03774157364976" lon="-107.05995251107964"><ele>2135.1666666666665</ele><time>2026-05-03T17:19:53Z</time></trkpt><trkpt lat="36.03782970796089" lon="-107.05998704458409"><ele>2135.0</ele><time>2026-05-03T17:19:54Z</time></trkpt><trkpt lat="36.03794013431745" lon="-107.0600691923848"><ele>2135.0</ele><time>2026-05-03T17:19:55Z</time></trkpt><trkpt lat="36.03806480261171" lon="-107.06015916497243"><ele>2135.0</ele><time>2026-05-03T17:19:56Z</time></trkpt><trkpt lat="36.03819329541671" lon="-107.06022078227569"><ele>2135.0</ele><time>2026-05-03T17:19:57Z</time></trkpt><trkpt lat="36.038339912497065" lon="-107.06027880426358"><ele>2135.0</ele><time>2026-05-03T17:19:58Z</time></trkpt><trkpt lat="36.0384611130828" lon="-107.06032446893968"><ele>2135.2</ele><time>2026-05-03T17:19:59Z</time></trkpt><trkpt lat="36.038557842391754" lon="-107.0603570903975"><ele>2135.4</ele><time>2026-05-03T17:20:00Z</time></trkpt><trkpt lat="36.03865806876804" lon="-107.06037052478392"><ele>2135.6</ele><time>2026-05-03T17:20:01Z</time></trkpt><trkpt lat="36.03876479223524" lon="-107.0603627311272"><ele>2135.8</ele><time>2026-05-03T17:20:02Z</time></trkpt><trkpt lat="36.03887035095861" lon="-107.06034453366014"><ele>2136.0</ele><time>2026-05-03T17:20:03Z</time></trkpt><trkpt lat="36.03895580893534" lon="-107.06032132078144"><ele>2136.0</ele><time>2026-05-03T17:20:04Z</time></trkpt><trkpt lat="36.03903018499162" lon="-107.06032346363277"><ele>2136.0</ele><time>2026-05-03T17:20:05Z</time></trkpt><trkpt lat="36.03912757944564" lon="-107.0603729305738"><ele>2136.0</ele><time>2026-05-03T17:20:07Z</time></trkpt><trkpt lat="36.039219770620214" lon="-107.0604850768142"><ele>2136.0</ele><time>2026-05-03T17:20:09Z</time></trkpt><trkpt lat="36.03927556654085" lon="-107.06052274249477"><ele>2136.0</ele><time>2026-05-03T17:20:10Z</time></trkpt><trkpt lat="36.039370878344876" lon="-107.06062215087685"><ele>2136.2</ele><time>2026-05-03T17:20:12Z</time></trkpt><trkpt lat="36.039404873734306" lon="-107.06070120251741"><ele>2136.3999999999996</ele><time>2026-05-03T17:20:13Z</time></trkpt><trkpt lat="36.039426583617455" lon="-107.06082630793405"><ele>2136.6</ele><time>2026-05-03T17:20:14Z</time></trkpt><trkpt lat="36.039463483526035" lon="-107.06094808812979"><ele>2136.7999999999997</ele><time>2026-05-03T17:20:15Z</time></trkpt><trkpt lat="36.03952521193623" lon="-107.06104713518067"><ele>2137.0</ele><time>2026-05-03T17:20:16Z</time></trkpt><trkpt lat="36.039631967023745" lon="-107.0610871661063"><ele>2137.166666666667</ele><time>2026-05-03T17:20:18Z</time></trkpt><trkpt lat="36.03970560336207" lon="-107.06116816934419"><ele>2137.3333333333335</ele><time>2026-05-03T17:20:19Z</time></trkpt><trkpt lat="36.03976376906141" lon="-107.06120306200567"><ele>2137.5</ele><time>2026-05-03T17:20:20Z</time></trkpt><trkpt lat="36.039835982281126" lon="-107.06120795452028"><ele>2137.6666666666665</ele><time>2026-05-03T17:20:21Z</time></trkpt><trkpt lat="36.039924082640056" lon="-107.06122464329607"><ele>2137.833333333333</ele><time>2026-05-03T17:20:22Z</time></trkpt><trkpt lat="36.04000175874567" lon="-107.06126018796343"><ele>2138.0</ele><time>2026-05-03T17:20:24Z</time></trkpt><trkpt lat="36.04005134503839" lon="-107.06134940271328"><ele>2138.25</ele><time>2026-05-03T17:20:26Z</time></trkpt><trkpt lat="36.04004073443219" lon="-107.0615241533456"><ele>2138.5</ele><time>2026-05-03T17:20:28Z</time></trkpt><trkpt lat="36.040052939011204" lon="-107.06164614140458"><ele>2138.75</ele><time>2026-05-03T17:20:29Z</time></trkpt><trkpt lat="36.04006242821362" lon="-107.06180679228325"><ele>2139.0</ele><time>2026-05-03T17:20:30Z</time></trkpt><trkpt lat="36.04006997233408" lon="-107.06200424112983"><ele>2139.0</ele><time>2026-05-03T17:20:31Z</time></trkpt><trkpt lat="36.04007524793361" lon="-107.06215502387431"><ele>2139.0</ele><time>2026-05-03T17:20:32Z</time></trkpt><trkpt lat="36.040082815581705" lon="-107.06226719809244"><ele>2139.0</ele><time>2026-05-03T17:20:33Z</time></trkpt><trkpt lat="36.04011463834754" lon="-107.06235464317923"><ele>2139.0</ele><time>2026-05-03T17:20:34Z</time></trkpt><trkpt lat="36.040201535400335" lon="-107.06245117045712"><ele>2139.0</ele><time>2026-05-03T17:20:36Z</time></trkpt><trkpt lat="36.04028132177729" lon="-107.0625718829021"><ele>2139.0</ele><time>2026-05-03T17:20:38Z</time></trkpt><trkpt lat="36.04026781914721" lon="-107.06269742817024"><ele>2139.0</ele><time>2026-05-03T17:20:39.001Z</time></trkpt><trkpt lat="36.04026904391137" lon="-107.06283016085413"><ele>2139.0</ele><time>2026-05-03T17:20:40.001Z</time></trkpt><trkpt lat="36.04030545367973" lon="-107.06294693260796"><ele>2139.0</ele><time>2026-05-03T17:20:41.001Z</time></trkpt><trkpt lat="36.04038825938964" lon="-107.06303534736146"><ele>2139.0</ele><time>2026-05-03T17:20:42.001Z</time></trkpt><trkpt lat="36.040500278483925" lon="-107.0631544249336"><ele>2139.3333333333335</ele><time>2026-05-03T17:20:43.001Z</time></trkpt><trkpt lat="36.04062021207401" lon="-107.06328403598793"><ele>2139.666666666667</ele><time>2026-05-03T17:20:44.001Z</time></trkpt><trkpt lat="36.040744518054844" lon="-107.06343794767744"><ele>2140.0</ele><time>2026-05-03T17:20:45.001Z</time></trkpt><trkpt lat="36.04085727433903" lon="-107.06357387702795"><ele>2140.25</ele><time>2026-05-03T17:20:46.001Z</time></trkpt><trkpt lat="36.040955896161414" lon="-107.06368556016758"><ele>2140.5</ele><time>2026-05-03T17:20:47.001Z</time></trkpt><trkpt lat="36.04103255125439" lon="-107.06377243673624"><ele>2140.75</ele><time>2026-05-03T17:20:48.001Z</time></trkpt><trkpt lat="36.04109271544964" lon="-107.06383449613367"><ele>2141.0</ele><time>2026-05-03T17:20:49.001Z</time></trkpt><trkpt lat="36.0412371488626" lon="-107.06387794724836"><ele>2141.0</ele><time>2026-05-03T17:20:51.001Z</time></trkpt><trkpt lat="36.041385070801375" lon="-107.063863871443"><ele>2141.0</ele><time>2026-05-03T17:20:52.001Z</time></trkpt><trkpt lat="36.04152705803412" lon="-107.06382693041722"><ele>2141.0</ele><time>2026-05-03T17:20:53.001Z</time></trkpt><trkpt lat="36.041606967928914" lon="-107.06381445777185"><ele>2141.0</ele><time>2026-05-03T17:20:54.001Z</time></trkpt><trkpt lat="36.041676494059146" lon="-107.06381621367419"><ele>2141.0</ele><time>2026-05-03T17:20:55.001Z</time></trkpt><trkpt lat="36.041784009260596" lon="-107.06381886622039"><ele>2141.0</ele><time>2026-05-03T17:20:56.001Z</time></trkpt><trkpt lat="36.04194127453583" lon="-107.06383713286834"><ele>2141.0</ele><time>2026-05-03T17:20:57.001Z</time></trkpt><trkpt lat="36.04209420080077" lon="-107.06383827222061"><ele>2141.0</ele><time>2026-05-03T17:20:58.001Z</time></trkpt><trkpt lat="36.042260649228844" lon="-107.06381613183551"><ele>2142.333333333333</ele><time>2026-05-03T17:20:59.001Z</time></trkpt><trkpt lat="36.04246511789339" lon="-107.06380764487048"><ele>2143.6666666666665</ele><time>2026-05-03T17:21:00.001Z</time></trkpt><trkpt lat="36.04264148279957" lon="-107.06380784969554"><ele>2145.0</ele><time>2026-05-03T17:21:01.001Z</time></trkpt><trkpt lat="36.04281222527817" lon="-107.0638074584329"><ele>2145.0</ele><time>2026-05-03T17:21:02.001Z</time></trkpt><trkpt lat="36.04297440300966" lon="-107.06381262017982"><ele>2145.0</ele><time>2026-05-03T17:21:03.001Z</time></trkpt><trkpt lat="36.04313944408257" lon="-107.06381681139294"><ele>2145.0</ele><time>2026-05-03T17:21:04.001Z</time></trkpt><trkpt lat="36.04330874193219" lon="-107.06381871716704"><ele>2146.0</ele><time>2026-05-03T17:21:05.001Z</time></trkpt><trkpt lat="36.043493240357655" lon="-107.06381773209222"><ele>2147.0</ele><time>2026-05-03T17:21:06.001Z</time></trkpt><trkpt lat="36.04367015039144" lon="-107.06381776722928"><ele>2148.0</ele><time>2026-05-03T17:21:07.001Z</time></trkpt><trkpt lat="36.04382910493471" lon="-107.06382903268056"><ele>2148.0</ele><time>2026-05-03T17:21:08.001Z</time></trkpt><trkpt lat="36.043970842956796" lon="-107.06384233180016"><ele>2148.0</ele><time>2026-05-03T17:21:09.001Z</time></trkpt><trkpt lat="36.04410268526334" lon="-107.06384929258053"><ele>2148.0</ele><time>2026-05-03T17:21:10.001Z</time></trkpt><trkpt lat="36.04425152874225" lon="-107.06384390231509"><ele>2148.0</ele><time>2026-05-03T17:21:11.001Z</time></trkpt><trkpt lat="36.044410265851646" lon="-107.06386254928456"><ele>2149.5</ele><time>2026-05-03T17:21:12.001Z</time></trkpt><trkpt lat="36.04454465109795" lon="-107.06387260740532"><ele>2151.0</ele><time>2026-05-03T17:21:13.001Z</time></trkpt><trkpt lat="36.04467103619223" lon="-107.06386324785193"><ele>2152.5</ele><time>2026-05-03T17:21:14.001Z</time></trkpt><trkpt lat="36.044804027040854" lon="-107.0638338962689"><ele>2154.0</ele><time>2026-05-03T17:21:15.001Z</time></trkpt><trkpt lat="36.04495297875482" lon="-107.06383019426498"><ele>2154.5</ele><time>2026-05-03T17:21:16.001Z</time></trkpt><trkpt lat="36.04509802320857" lon="-107.06385560983816"><ele>2155.0</ele><time>2026-05-03T17:21:17.001Z</time></trkpt><trkpt lat="36.045232494335245" lon="-107.06387426424055"><ele>2155.5</ele><time>2026-05-03T17:21:18.001Z</time></trkpt><trkpt lat="36.04535594392611" lon="-107.06387079565128"><ele>2156.0</ele><time>2026-05-03T17:21:19.001Z</time></trkpt><trkpt lat="36.04546479127499" lon="-107.06384493139338"><ele>2156.0</ele><time>2026-05-03T17:21:20.001Z</time></trkpt><trkpt lat="36.0455610764885" lon="-107.06382526418346"><ele>2156.0</ele><time>2026-05-03T17:21:21.001Z</time></trkpt><trkpt lat="36.04564650644658" lon="-107.06383466812754"><ele>2156.0</ele><time>2026-05-03T17:21:22.001Z</time></trkpt><trkpt lat="36.045752634153615" lon="-107.06387551022479"><ele>2156.0</ele><time>2026-05-03T17:21:23.001Z</time></trkpt><trkpt lat="36.04589323764058" lon="-107.06387326798614"><ele>2156.0</ele><time>2026-05-03T17:21:24.001Z</time></trkpt><trkpt lat="36.04605778089584" lon="-107.0638223380033"><ele>2156.5</ele><time>2026-05-03T17:21:25.001Z</time></trkpt><trkpt lat="36.046231353619845" lon="-107.06380756012263"><ele>2157.0</ele><time>2026-05-03T17:21:26.001Z</time></trkpt><trkpt lat="36.04637236207177" lon="-107.06381929571529"><ele>2157.5</ele><time>2026-05-03T17:21:27.001Z</time></trkpt><trkpt lat="36.04649499952607" lon="-107.06382626675925"><ele>2158.0</ele><time>2026-05-03T17:21:28.001Z</time></trkpt><trkpt lat="36.04660041863971" lon="-107.06383481470853"><ele>2158.4</ele><time>2026-05-03T17:21:29.001Z</time></trkpt><trkpt lat="36.04669036454673" lon="-107.06382806307595"><ele>2158.8</ele><time>2026-05-03T17:21:30.001Z</time></trkpt><trkpt lat="36.046771293577926" lon="-107.06378156784616"><ele>2159.2</ele><time>2026-05-03T17:21:31.001Z</time></trkpt><trkpt lat="36.0468651709214" lon="-107.06369197898879"><ele>2159.6</ele><time>2026-05-03T17:21:32.001Z</time></trkpt><trkpt lat="36.04696391939726" lon="-107.0635927639333"><ele>2160.0</ele><time>2026-05-03T17:21:33.001Z</time></trkpt><trkpt lat="36.047040727756006" lon="-107.06349897217551"><ele>2160.0</ele><time>2026-05-03T17:21:34.001Z</time></trkpt><trkpt lat="36.04710374947077" lon="-107.06342811026667"><ele>2160.0</ele><time>2026-05-03T17:21:35.001Z</time></trkpt><trkpt lat="36.04718255263182" lon="-107.06340401720772"><ele>2160.0</ele><time>2026-05-03T17:21:36.001Z</time></trkpt><trkpt lat="36.04726976088817" lon="-107.0633563689554"><ele>2160.0</ele><time>2026-05-03T17:21:37.001Z</time></trkpt><trkpt lat="36.047356017756485" lon="-107.06326433503956"><ele>2160.0</ele><time>2026-05-03T17:21:38.001Z</time></trkpt><trkpt lat="36.047463152729655" lon="-107.06317785104828"><ele>2160.8333333333335</ele><time>2026-05-03T17:21:39.001Z</time></trkpt><trkpt lat="36.04755610633476" lon="-107.06310923844872"><ele>2161.6666666666665</ele><time>2026-05-03T17:21:40.001Z</time></trkpt><trkpt lat="36.04763157703489" lon="-107.06305668907233"><ele>2162.5</ele><time>2026-05-03T17:21:41Z</time></trkpt><trkpt lat="36.047709896524644" lon="-107.06298274978505"><ele>2163.333333333333</ele><time>2026-05-03T17:21:42Z</time></trkpt><trkpt lat="36.047771264094294" lon="-107.06291221223422"><ele>2164.1666666666665</ele><time>2026-05-03T17:21:43Z</time></trkpt><trkpt lat="36.04780700093296" lon="-107.06283452957763"><ele>2165.0</ele><time>2026-05-03T17:21:44Z</time></trkpt><trkpt lat="36.04787355555391" lon="-107.06277873433201"><ele>2165.0</ele><time>2026-05-03T17:21:50Z</time></trkpt><trkpt lat="36.048010717729724" lon="-107.06271584976233"><ele>2165.0</ele><time>2026-05-03T17:21:52Z</time></trkpt><trkpt lat="36.048084432709764" lon="-107.06265581432923"><ele>2165.0</ele><time>2026-05-03T17:21:53Z</time></trkpt><trkpt lat="36.04816271835984" lon="-107.06251271586986"><ele>2165.0</ele><time>2026-05-03T17:21:55Z</time></trkpt><trkpt lat="36.04821500646362" lon="-107.06243493898606"><ele>2165.4</ele><time>2026-05-03T17:21:56Z</time></trkpt><trkpt lat="36.04828281410391" lon="-107.06238429169207"><ele>2165.8</ele><time>2026-05-03T17:21:57Z</time></trkpt><trkpt lat="36.04838672586565" lon="-107.0622795532429"><ele>2166.2</ele><time>2026-05-03T17:21:58Z</time></trkpt><trkpt lat="36.048464658232454" lon="-107.06220395268338"><ele>2166.6</ele><time>2026-05-03T17:21:59Z</time></trkpt><trkpt lat="36.048530747816876" lon="-107.06212929217371"><ele>2167.0</ele><time>2026-05-03T17:22:00Z</time></trkpt><trkpt lat="36.048597735815164" lon="-107.06204759948889"><ele>2167.0</ele><time>2026-05-03T17:22:01Z</time></trkpt><trkpt lat="36.048685489073186" lon="-107.06195834685488"><ele>2167.0</ele><time>2026-05-03T17:22:02Z</time></trkpt><trkpt lat="36.04875220320251" lon="-107.06189238779585"><ele>2167.0</ele><time>2026-05-03T17:22:03Z</time></trkpt><trkpt lat="36.048823687130664" lon="-107.06183065171886"><ele>2167.0</ele><time>2026-05-03T17:22:04Z</time></trkpt><trkpt lat="36.048897000850914" lon="-107.06176863838616"><ele>2167.0</ele><time>2026-05-03T17:22:05Z</time></trkpt><trkpt lat="36.04897361089826" lon="-107.06172471405115"><ele>2167.0</ele><time>2026-05-03T17:22:06Z</time></trkpt><trkpt lat="36.049035236642226" lon="-107.06169554001397"><ele>2167.0</ele><time>2026-05-03T17:22:07Z</time></trkpt><trkpt lat="36.049111417464545" lon="-107.06168756780164"><ele>2167.0</ele><time>2026-05-03T17:22:08Z</time></trkpt><trkpt lat="36.04917556761899" lon="-107.06165894107932"><ele>2167.0</ele><time>2026-05-03T17:22:09Z</time></trkpt><trkpt lat="36.0492464030004" lon="-107.06160889507493"><ele>2167.0</ele><time>2026-05-03T17:22:10Z</time></trkpt><trkpt lat="36.0493179768529" lon="-107.06154492866462"><ele>2167.0</ele><time>2026-05-03T17:22:11Z</time></trkpt><trkpt lat="36.049401817546716" lon="-107.06148390166585"><ele>2167.4</ele><time>2026-05-03T17:22:12Z</time></trkpt><trkpt lat="36.049484144262266" lon="-107.06137710437791"><ele>2167.7999999999997</ele><time>2026-05-03T17:22:13Z</time></trkpt><trkpt lat="36.049518073741055" lon="-107.0612685833409"><ele>2168.2</ele><time>2026-05-03T17:22:14Z</time></trkpt><trkpt lat="36.04954665825748" lon="-107.06116438408687"><ele>2168.6</ele><time>2026-05-03T17:22:15Z</time></trkpt><trkpt lat="36.04961005776002" lon="-107.06108803466917"><ele>2169.0</ele><time>2026-05-03T17:22:16Z</time></trkpt><trkpt lat="36.04967464984772" lon="-107.06103242972911"><ele>2169.0</ele><time>2026-05-03T17:22:17Z</time></trkpt><trkpt lat="36.049701675872974" lon="-107.06092777714355"><ele>2169.0</ele><time>2026-05-03T17:22:19Z</time></trkpt><trkpt lat="36.0496727679449" lon="-107.0608207419918"><ele>2169.0</ele><time>2026-05-03T17:22:20Z</time></trkpt><trkpt lat="36.049640784202666" lon="-107.06072889758374"><ele>2169.0</ele><time>2026-05-03T17:22:21Z</time></trkpt><trkpt lat="36.049676573907995" lon="-107.06058470271813"><ele>2169.0</ele><time>2026-05-03T17:22:23Z</time></trkpt><trkpt lat="36.04969610933637" lon="-107.0604637152416"><ele>2170.0</ele><time>2026-05-03T17:22:24Z</time></trkpt><trkpt lat="36.04972641908246" lon="-107.06036308798748"><ele>2171.0</ele><time>2026-05-03T17:22:25Z</time></trkpt><trkpt lat="36.04975631636697" lon="-107.06028892358813"><ele>2172.0</ele><time>2026-05-03T17:22:26Z</time></trkpt><trkpt lat="36.04985637910751" lon="-107.06020265069246"><ele>2173.0</ele><time>2026-05-03T17:22:28Z</time></trkpt><trkpt lat="36.049936247117" lon="-107.06010584269062"><ele>2174.0</ele><time>2026-05-03T17:22:30Z</time></trkpt><trkpt lat="36.04996355961341" lon="-107.0600323021702"><ele>2174.0</ele><time>2026-05-03T17:22:31Z</time></trkpt><trkpt lat="36.05003045481433" lon="-107.0600185431702"><ele>2174.0</ele><time>2026-05-03T17:22:32Z</time></trkpt><trkpt lat="36.05009815370055" lon="-107.0600095225782"><ele>2174.0</ele><time>2026-05-03T17:22:33Z</time></trkpt><trkpt lat="36.05013572001493" lon="-107.05993557129437"><ele>2174.0</ele><time>2026-05-03T17:22:34Z</time></trkpt><trkpt lat="36.0501521532351" lon="-107.05979326691153"><ele>2174.0</ele><time>2026-05-03T17:22:35Z</time></trkpt><trkpt lat="36.05019378905825" lon="-107.05967481045575"><ele>2174.0</ele><time>2026-05-03T17:22:36Z</time></trkpt><trkpt lat="36.050278340629035" lon="-107.0595915452033"><ele>2174.4</ele><time>2026-05-03T17:22:37Z</time></trkpt><trkpt lat="36.05037531089711" lon="-107.0595249150036"><ele>2174.8</ele><time>2026-05-03T17:22:38Z</time></trkpt><trkpt lat="36.05043654936552" lon="-107.05946316202596"><ele>2175.2</ele><time>2026-05-03T17:22:39Z</time></trkpt><trkpt lat="36.05048197271018" lon="-107.05935894788477"><ele>2175.6</ele><time>2026-05-03T17:22:40Z</time></trkpt><trkpt lat="36.05055710180378" lon="-107.05924050764034"><ele>2176.0</ele><time>2026-05-03T17:22:41Z</time></trkpt><trkpt lat="36.05063334109343" lon="-107.05914239586093"><ele>2177.0</ele><time>2026-05-03T17:22:42Z</time></trkpt><trkpt lat="36.050690471156415" lon="-107.05905074924681"><ele>2178.0</ele><time>2026-05-03T17:22:43Z</time></trkpt><trkpt lat="36.0507233666258" lon="-107.0589172080865"><ele>2179.0</ele><time>2026-05-03T17:22:44Z</time></trkpt><trkpt lat="36.05076856519638" lon="-107.05875299347461"><ele>2180.0</ele><time>2026-05-03T17:22:45Z</time></trkpt><trkpt lat="36.05082479367796" lon="-107.05860850863661"><ele>2180.5</ele><time>2026-05-03T17:22:46.001Z</time></trkpt><trkpt lat="36.05085960797392" lon="-107.05852469416567"><ele>2181.0</ele><time>2026-05-03T17:22:47.001Z</time></trkpt><trkpt lat="36.05098093167294" lon="-107.05840685171904"><ele>2181.5</ele><time>2026-05-03T17:22:49.001Z</time></trkpt><trkpt lat="36.051068776061186" lon="-107.05831356673896"><ele>2182.0</ele><time>2026-05-03T17:22:50.001Z</time></trkpt><trkpt lat="36.05115854286197" lon="-107.05821168982767"><ele>2182.7999999999997</ele><time>2026-05-03T17:22:51.001Z</time></trkpt><trkpt lat="36.05124000310174" lon="-107.05811179383802"><ele>2183.6</ele><time>2026-05-03T17:22:52.001Z</time></trkpt><trkpt lat="36.05131112294552" lon="-107.05800926102286"><ele>2184.3999999999996</ele><time>2026-05-03T17:22:53.001Z</time></trkpt><trkpt lat="36.051384014560085" lon="-107.05791285368765"><ele>2185.2</ele><time>2026-05-03T17:22:54.001Z</time></trkpt><trkpt lat="36.051456079812354" lon="-107.05780121692887"><ele>2186.0</ele><time>2026-05-03T17:22:55.001Z</time></trkpt><trkpt lat="36.05151427249595" lon="-107.05769377441788"><ele>2186.0</ele><time>2026-05-03T17:22:56.001Z</time></trkpt><trkpt lat="36.05155640893638" lon="-107.05758963585565"><ele>2186.0</ele><time>2026-05-03T17:22:57.001Z</time></trkpt><trkpt lat="36.05158280732843" lon="-107.05747908883305"><ele>2186.0</ele><time>2026-05-03T17:22:58.001Z</time></trkpt><trkpt lat="36.05160825712685" lon="-107.0573764094792"><ele>2186.0</ele><time>2026-05-03T17:22:59.001Z</time></trkpt><trkpt lat="36.05162279657981" lon="-107.0573003573211"><ele>2186.0</ele><time>2026-05-03T17:23:00.001Z</time></trkpt><trkpt lat="36.05160090453601" lon="-107.0572171040305"><ele>2186.0</ele><time>2026-05-03T17:23:01.001Z</time></trkpt><trkpt lat="36.05154789299028" lon="-107.05713982636507"><ele>2187.0</ele><time>2026-05-03T17:23:02.001Z</time></trkpt><trkpt lat="36.051484972323465" lon="-107.05705729337562"><ele>2188.0</ele><time>2026-05-03T17:23:03.001Z</time></trkpt><trkpt lat="36.05142420069009" lon="-107.05692575241899"><ele>2189.0</ele><time>2026-05-03T17:23:04.001Z</time></trkpt><trkpt lat="36.051442371517325" lon="-107.05684336610518"><ele>2190.0</ele><time>2026-05-03T17:23:07.001Z</time></trkpt><trkpt lat="36.05151050580062" lon="-107.0568100187659"><ele>2191.0</ele><time>2026-05-03T17:23:08.001Z</time></trkpt><trkpt lat="36.05159112960653" lon="-107.05679864266884"><ele>2192.0</ele><time>2026-05-03T17:23:09.001Z</time></trkpt><trkpt lat="36.05168275353831" lon="-107.05679380161651"><ele>2192.0</ele><time>2026-05-03T17:23:10.001Z</time></trkpt><trkpt lat="36.05179112219661" lon="-107.05676680275033"><ele>2192.0</ele><time>2026-05-03T17:23:11.001Z</time></trkpt><trkpt lat="36.05187452760542" lon="-107.05673230310622"><ele>2192.0</ele><time>2026-05-03T17:23:12.001Z</time></trkpt><trkpt lat="36.05193625481178" lon="-107.05667367206651"><ele>2192.0</ele><time>2026-05-03T17:23:13.001Z</time></trkpt><trkpt lat="36.051972345895585" lon="-107.05658877687192"><ele>2192.0</ele><time>2026-05-03T17:23:14.001Z</time></trkpt><trkpt lat="36.05200842268425" lon="-107.05648055282735"><ele>2192.0</ele><time>2026-05-03T17:23:15.001Z</time></trkpt><trkpt lat="36.05201590752129" lon="-107.05638086154377"><ele>2193.0</ele><time>2026-05-03T17:23:16.001Z</time></trkpt><trkpt lat="36.051987432247145" lon="-107.05625995177807"><ele>2194.0</ele><time>2026-05-03T17:23:17.001Z</time></trkpt><trkpt lat="36.05195842111032" lon="-107.05613495048327"><ele>2195.0</ele><time>2026-05-03T17:23:18.001Z</time></trkpt><trkpt lat="36.05196250756715" lon="-107.05604645256642"><ele>2196.0</ele><time>2026-05-03T17:23:19.001Z</time></trkpt><trkpt lat="36.05200731709365" lon="-107.05594604587304"><ele>2197.0</ele><time>2026-05-03T17:23:20.001Z</time></trkpt><trkpt lat="36.052077105851254" lon="-107.05582980242843"><ele>2198.166666666667</ele><time>2026-05-03T17:23:21.001Z</time></trkpt><trkpt lat="36.0521336813112" lon="-107.05574505571224"><ele>2199.3333333333335</ele><time>2026-05-03T17:23:22.001Z</time></trkpt><trkpt lat="36.052213437924756" lon="-107.05568035732144"><ele>2200.5</ele><time>2026-05-03T17:23:23.001Z</time></trkpt><trkpt lat="36.05228128103264" lon="-107.05560830492753"><ele>2201.6666666666665</ele><time>2026-05-03T17:23:24.001Z</time></trkpt><trkpt lat="36.052305375878824" lon="-107.05552677993317"><ele>2202.833333333333</ele><time>2026-05-03T17:23:25.001Z</time></trkpt><trkpt lat="36.05228688532182" lon="-107.05542303165262"><ele>2204.0</ele><time>2026-05-03T17:23:26.001Z</time></trkpt><trkpt lat="36.05224556905822" lon="-107.055299204351"><ele>2204.0</ele><time>2026-05-03T17:23:27.001Z</time></trkpt><trkpt lat="36.05221463594065" lon="-107.05520566910019"><ele>2204.0</ele><time>2026-05-03T17:23:28.001Z</time></trkpt><trkpt lat="36.05209321446043" lon="-107.05514597774733"><ele>2204.0</ele><time>2026-05-03T17:23:30.001Z</time></trkpt><trkpt lat="36.051996113490716" lon="-107.05515739664051"><ele>2204.0</ele><time>2026-05-03T17:23:31.001Z</time></trkpt><trkpt lat="36.05192424341291" lon="-107.05510554374933"><ele>2204.0</ele><time>2026-05-03T17:23:33.001Z</time></trkpt><trkpt lat="36.0519286667804" lon="-107.0549969806616"><ele>2205.5</ele><time>2026-05-03T17:23:34.001Z</time></trkpt><trkpt lat="36.05193508962692" lon="-107.05488771626527"><ele>2207.0</ele><time>2026-05-03T17:23:35.001Z</time></trkpt><trkpt lat="36.052006608984875" lon="-107.05474659435225"><ele>2208.5</ele><time>2026-05-03T17:23:37.001Z</time></trkpt><trkpt lat="36.05211323316951" lon="-107.05464677536727"><ele>2210.0</ele><time>2026-05-03T17:23:38.001Z</time></trkpt><trkpt lat="36.0521781335014" lon="-107.05453735161745"><ele>2210.0</ele><time>2026-05-03T17:23:39.001Z</time></trkpt><trkpt lat="36.05224367720867" lon="-107.05439798282764"><ele>2210.0</ele><time>2026-05-03T17:23:40.001Z</time></trkpt><trkpt lat="36.052301936438155" lon="-107.05428090021697"><ele>2210.0</ele><time>2026-05-03T17:23:41.001Z</time></trkpt><trkpt lat="36.052358321715865" lon="-107.05419989673946"><ele>2210.0</ele><time>2026-05-03T17:23:42.001Z</time></trkpt><trkpt lat="36.05244284463772" lon="-107.0541227480014"><ele>2210.0</ele><time>2026-05-03T17:23:43.001Z</time></trkpt><trkpt lat="36.05253369171021" lon="-107.05405670862778"><ele>2211.0</ele><time>2026-05-03T17:23:44.001Z</time></trkpt><trkpt lat="36.05259340909316" lon="-107.05399918291205"><ele>2212.0</ele><time>2026-05-03T17:23:45.001Z</time></trkpt><trkpt lat="36.05263623529281" lon="-107.05390743238598"><ele>2213.0</ele><time>2026-05-03T17:23:46.001Z</time></trkpt><trkpt lat="36.05268388078224" lon="-107.05380983398145"><ele>2214.0</ele><time>2026-05-03T17:23:47Z</time></trkpt><trkpt lat="36.052733080316074" lon="-107.05375740699742"><ele>2215.0</ele><time>2026-05-03T17:23:48Z</time></trkpt><trkpt lat="36.05276993555764" lon="-107.05360122284809"><ele>2215.0</ele><time>2026-05-03T17:23:50Z</time></trkpt><trkpt lat="36.052775060392115" lon="-107.05349116105454"><ele>2215.0</ele><time>2026-05-03T17:23:51Z</time></trkpt><trkpt lat="36.05280755374893" lon="-107.05338463993341"><ele>2215.0</ele><time>2026-05-03T17:23:52Z</time></trkpt><trkpt lat="36.052834358258984" lon="-107.05328749222471"><ele>2215.0</ele><time>2026-05-03T17:23:53Z</time></trkpt><trkpt lat="36.05284259772698" lon="-107.05319837493334"><ele>2215.0</ele><time>2026-05-03T17:23:54Z</time></trkpt><trkpt lat="36.05287747408964" lon="-107.05311048676835"><ele>2215.0</ele><time>2026-05-03T17:23:55Z</time></trkpt><trkpt lat="36.05292545483953" lon="-107.05298492791708"><ele>2216.0</ele><time>2026-05-03T17:23:56Z</time></trkpt><trkpt lat="36.05295034571143" lon="-107.05288471875785"><ele>2217.0</ele><time>2026-05-03T17:23:57Z</time></trkpt><trkpt lat="36.05293971465172" lon="-107.05279338101582"><ele>2218.0</ele><time>2026-05-03T17:23:58Z</time></trkpt><trkpt lat="36.0529261074267" lon="-107.05268464488026"><ele>2219.0</ele><time>2026-05-03T17:23:59Z</time></trkpt><trkpt lat="36.05292780305449" lon="-107.05258279872376"><ele>2220.0</ele><time>2026-05-03T17:24:00Z</time></trkpt><trkpt lat="36.05292211798087" lon="-107.05248837667543"><ele>2221.0</ele><time>2026-05-03T17:24:01Z</time></trkpt><trkpt lat="36.05289294867191" lon="-107.052403884874"><ele>2221.6</ele><time>2026-05-03T17:24:02Z</time></trkpt><trkpt lat="36.052842423760374" lon="-107.05229883502409"><ele>2222.2</ele><time>2026-05-03T17:24:03Z</time></trkpt><trkpt lat="36.05279258553544" lon="-107.05218939126395"><ele>2222.8</ele><time>2026-05-03T17:24:04Z</time></trkpt><trkpt lat="36.052761432391385" lon="-107.05208259123087"><ele>2223.4</ele><time>2026-05-03T17:24:05Z</time></trkpt><trkpt lat="36.05272410836219" lon="-107.05200278384613"><ele>2224.0</ele><time>2026-05-03T17:24:06Z</time></trkpt><trkpt lat="36.05262973572161" lon="-107.05186696026104"><ele>2224.0</ele><time>2026-05-03T17:24:08Z</time></trkpt><trkpt lat="36.0525611204893" lon="-107.05173485999386"><ele>2224.0</ele><time>2026-05-03T17:24:09Z</time></trkpt><trkpt lat="36.05250646974222" lon="-107.0516829398409"><ele>2224.0</ele><time>2026-05-03T17:24:10Z</time></trkpt><trkpt lat="36.05242196985604" lon="-107.05168455980925"><ele>2224.0</ele><time>2026-05-03T17:24:11Z</time></trkpt><trkpt lat="36.05231819527101" lon="-107.05169569626943"><ele>2224.0</ele><time>2026-05-03T17:24:12Z</time></trkpt><trkpt lat="36.0522292072019" lon="-107.05175863304177"><ele>2222.0</ele><time>2026-05-03T17:24:13Z</time></trkpt><trkpt lat="36.05213530614602" lon="-107.0518421460442"><ele>2220.0</ele><time>2026-05-03T17:24:14Z</time></trkpt><trkpt lat="36.05206219347399" lon="-107.05186080018346"><ele>2218.0</ele><time>2026-05-03T17:24:15Z</time></trkpt><trkpt lat="36.051993727348176" lon="-107.05181299330883"><ele>2216.0</ele><time>2026-05-03T17:24:16Z</time></trkpt><trkpt lat="36.05189556153891" lon="-107.05175280605545"><ele>2214.0</ele><time>2026-05-03T17:24:17Z</time></trkpt><trkpt lat="36.051796179354355" lon="-107.05171048538912"><ele>2214.0</ele><time>2026-05-03T17:24:18Z</time></trkpt><trkpt lat="36.051688078262536" lon="-107.0517103544756"><ele>2214.0</ele><time>2026-05-03T17:24:19Z</time></trkpt><trkpt lat="36.05156570701983" lon="-107.05169597630214"><ele>2214.0</ele><time>2026-05-03T17:24:20Z</time></trkpt><trkpt lat="36.05145439396393" lon="-107.05166445428992"><ele>2214.0</ele><time>2026-05-03T17:24:21Z</time></trkpt><trkpt lat="36.05135540240593" lon="-107.0516130387158"><ele>2213.0</ele><time>2026-05-03T17:24:22Z</time></trkpt><trkpt lat="36.05126784721121" lon="-107.05152102583888"><ele>2212.0</ele><time>2026-05-03T17:24:23Z</time></trkpt><trkpt lat="36.05119030601254" lon="-107.05140726916575"><ele>2211.0</ele><time>2026-05-03T17:24:24Z</time></trkpt><trkpt lat="36.05110534266452" lon="-107.0512571596565"><ele>2210.0</ele><time>2026-05-03T17:24:25Z</time></trkpt><trkpt lat="36.051019979703646" lon="-107.05113264804987"><ele>2210.0</ele><time>2026-05-03T17:24:26Z</time></trkpt><trkpt lat="36.05093997342443" lon="-107.05105447399498"><ele>2210.0</ele><time>2026-05-03T17:24:27Z</time></trkpt><trkpt lat="36.050883573909736" lon="-107.05099961622766"><ele>2210.0</ele><time>2026-05-03T17:24:28Z</time></trkpt><trkpt lat="36.050844911121466" lon="-107.05087688591644"><ele>2210.0</ele><time>2026-05-03T17:24:30Z</time></trkpt><trkpt lat="36.050855448240924" lon="-107.05077973754912"><ele>2210.0</ele><time>2026-05-03T17:24:31Z</time></trkpt><trkpt lat="36.05089964481033" lon="-107.0506762321632"><ele>2210.0</ele><time>2026-05-03T17:24:32Z</time></trkpt><trkpt lat="36.050954357571115" lon="-107.05058117745729"><ele>2210.0</ele><time>2026-05-03T17:24:33Z</time></trkpt><trkpt lat="36.05103220704615" lon="-107.05050290344191"><ele>2210.0</ele><time>2026-05-03T17:24:34Z</time></trkpt><trkpt lat="36.05115756152877" lon="-107.0504230531762"><ele>2210.0</ele><time>2026-05-03T17:24:35Z</time></trkpt><trkpt lat="36.0513047843305" lon="-107.05034549047375"><ele>2210.0</ele><time>2026-05-03T17:24:36Z</time></trkpt><trkpt lat="36.051470600526116" lon="-107.05028862087572"><ele>2210.0</ele><time>2026-05-03T17:24:37Z</time></trkpt><trkpt lat="36.0516232700053" lon="-107.05023248901759"><ele>2210.0</ele><time>2026-05-03T17:24:38Z</time></trkpt><trkpt lat="36.05175135767932" lon="-107.05018512966271"><ele>2211.25</ele><time>2026-05-03T17:24:39Z</time></trkpt><trkpt lat="36.05188293406092" lon="-107.05017076068842"><ele>2212.5</ele><time>2026-05-03T17:24:40Z</time></trkpt><trkpt lat="36.05200822404782" lon="-107.05018436432316"><ele>2213.75</ele><time>2026-05-03T17:24:41Z</time></trkpt><trkpt lat="36.05212538834183" lon="-107.05021069563665"><ele>2215.0</ele><time>2026-05-03T17:24:42Z</time></trkpt><trkpt lat="36.05223189115937" lon="-107.05026303556609"><ele>2215.0</ele><time>2026-05-03T17:24:43Z</time></trkpt><trkpt lat="36.05233115173049" lon="-107.05032303357135"><ele>2215.0</ele><time>2026-05-03T17:24:44Z</time></trkpt><trkpt lat="36.0524148959721" lon="-107.05032885626858"><ele>2215.0</ele><time>2026-05-03T17:24:45Z</time></trkpt><trkpt lat="36.052506729606186" lon="-107.05026970548276"><ele>2215.0</ele><time>2026-05-03T17:24:46Z</time></trkpt><trkpt lat="36.05261337226949" lon="-107.05020399102492"><ele>2215.0</ele><time>2026-05-03T17:24:47Z</time></trkpt><trkpt lat="36.05273833648894" lon="-107.05017285241662"><ele>2216.0</ele><time>2026-05-03T17:24:48Z</time></trkpt><trkpt lat="36.052888836860724" lon="-107.05016965576331"><ele>2217.0</ele><time>2026-05-03T17:24:49Z</time></trkpt><trkpt lat="36.05302698844651" lon="-107.05018039939125"><ele>2218.0</ele><time>2026-05-03T17:24:50Z</time></trkpt><trkpt lat="36.05313313767218" lon="-107.05019267758144"><ele>2219.0</ele><time>2026-05-03T17:24:51Z</time></trkpt><trkpt lat="36.0532321596117" lon="-107.05020055204889"><ele>2220.5</ele><time>2026-05-03T17:24:52Z</time></trkpt><trkpt lat="36.0533360607513" lon="-107.05022964485859"><ele>2222.0</ele><time>2026-05-03T17:24:53Z</time></trkpt><trkpt lat="36.05344036798349" lon="-107.05029867298872"><ele>2223.5</ele><time>2026-05-03T17:24:54Z</time></trkpt><trkpt lat="36.05355795826248" lon="-107.05041812830028"><ele>2225.0</ele><time>2026-05-03T17:24:55.001Z</time></trkpt><trkpt lat="36.05366939114642" lon="-107.05051911423276"><ele>2225.0</ele><time>2026-05-03T17:24:56.001Z</time></trkpt><trkpt lat="36.05378994004015" lon="-107.05055906735721"><ele>2225.0</ele><time>2026-05-03T17:24:57.001Z</time></trkpt><trkpt lat="36.05392310974366" lon="-107.05057351663731"><ele>2225.0</ele><time>2026-05-03T17:24:58.001Z</time></trkpt><trkpt lat="36.05403967268887" lon="-107.05059368940198"><ele>2225.0</ele><time>2026-05-03T17:24:59.001Z</time></trkpt><trkpt lat="36.05413644483863" lon="-107.05066391000423"><ele>2226.5</ele><time>2026-05-03T17:25:00.001Z</time></trkpt><trkpt lat="36.05425245942911" lon="-107.05077519608732"><ele>2228.0</ele><time>2026-05-03T17:25:01.001Z</time></trkpt><trkpt lat="36.05436132884449" lon="-107.05089047325107"><ele>2229.5</ele><time>2026-05-03T17:25:02.001Z</time></trkpt><trkpt lat="36.05444526809437" lon="-107.0509890497935"><ele>2231.0</ele><time>2026-05-03T17:25:03.001Z</time></trkpt><trkpt lat="36.05450438950244" lon="-107.05108621282008"><ele>2231.0</ele><time>2026-05-03T17:25:04.001Z</time></trkpt><trkpt lat="36.054561334256455" lon="-107.05118746367229"><ele>2231.0</ele><time>2026-05-03T17:25:05.001Z</time></trkpt><trkpt lat="36.05460705930711" lon="-107.05124402261274"><ele>2231.0</ele><time>2026-05-03T17:25:06.001Z</time></trkpt><trkpt lat="36.05455761527856" lon="-107.05132634480796"><ele>2231.0</ele><time>2026-05-03T17:25:09.001Z</time></trkpt><trkpt lat="36.05469447881143" lon="-107.05144659544256"><ele>2231.0</ele><time>2026-05-03T17:25:13.001Z</time></trkpt><trkpt lat="36.054784603578256" lon="-107.05151119043144"><ele>2231.0</ele><time>2026-05-03T17:25:14.001Z</time></trkpt><trkpt lat="36.054856327210246" lon="-107.05152673806481"><ele>2231.0</ele><time>2026-05-03T17:25:15.001Z</time></trkpt><trkpt lat="36.054914426863185" lon="-107.05148938642037"><ele>2231.0</ele><time>2026-05-03T17:25:16.001Z</time></trkpt><trkpt lat="36.05498582902021" lon="-107.05144104534853"><ele>2231.0</ele><time>2026-05-03T17:25:17.001Z</time></trkpt><trkpt lat="36.055089925022536" lon="-107.05138283357775"><ele>2231.0</ele><time>2026-05-03T17:25:18.001Z</time></trkpt><trkpt lat="36.05515309331323" lon="-107.05136969037432"><ele>2231.0</ele><time>2026-05-03T17:25:19.001Z</time></trkpt><trkpt lat="36.0552548555215" lon="-107.05138733359541"><ele>2231.6666666666665</ele><time>2026-05-03T17:25:21.001Z</time></trkpt><trkpt lat="36.05534019744915" lon="-107.05142689674604"><ele>2232.333333333333</ele><time>2026-05-03T17:25:22.001Z</time></trkpt><trkpt lat="36.0554308259774" lon="-107.05145753636431"><ele>2233.0</ele><time>2026-05-03T17:25:23.001Z</time></trkpt><trkpt lat="36.05550401088684" lon="-107.05141688672259"><ele>2233.6666666666665</ele><time>2026-05-03T17:25:24.001Z</time></trkpt><trkpt lat="36.05558546724279" lon="-107.05136357522605"><ele>2234.3333333333335</ele><time>2026-05-03T17:25:25.001Z</time></trkpt><trkpt lat="36.05566404992175" lon="-107.05132827819533"><ele>2235.0</ele><time>2026-05-03T17:25:26.001Z</time></trkpt><trkpt lat="36.05573589260997" lon="-107.05129746809996"><ele>2236.0</ele><time>2026-05-03T17:25:27.001Z</time></trkpt><trkpt lat="36.055790880884715" lon="-107.05122522512382"><ele>2237.0</ele><time>2026-05-03T17:25:28.001Z</time></trkpt><trkpt lat="36.055831692873035" lon="-107.05109536671934"><ele>2238.0</ele><time>2026-05-03T17:25:29.001Z</time></trkpt><trkpt lat="36.055898880836835" lon="-107.05096377267226"><ele>2239.0</ele><time>2026-05-03T17:25:30.001Z</time></trkpt><trkpt lat="36.05599099282969" lon="-107.05083417712714"><ele>2239.25</ele><time>2026-05-03T17:25:31.001Z</time></trkpt><trkpt lat="36.05610015844916" lon="-107.05071086424067"><ele>2239.5</ele><time>2026-05-03T17:25:32.001Z</time></trkpt><trkpt lat="36.05619518023606" lon="-107.05061352097587"><ele>2239.75</ele><time>2026-05-03T17:25:33.001Z</time></trkpt><trkpt lat="36.05627737758528" lon="-107.05052985008646"><ele>2240.0</ele><time>2026-05-03T17:25:34.001Z</time></trkpt><trkpt lat="36.05637349349142" lon="-107.05042602729249"><ele>2240.0</ele><time>2026-05-03T17:25:35.001Z</time></trkpt><trkpt lat="36.056472951379334" lon="-107.05030487677917"><ele>2240.0</ele><time>2026-05-03T17:25:36.001Z</time></trkpt><trkpt lat="36.05655336522701" lon="-107.05020740778245"><ele>2240.0</ele><time>2026-05-03T17:25:37.001Z</time></trkpt><trkpt lat="36.05662211444169" lon="-107.05012530252041"><ele>2240.0</ele><time>2026-05-03T17:25:38.001Z</time></trkpt><trkpt lat="36.056674709373944" lon="-107.05004226033296"><ele>2240.0</ele><time>2026-05-03T17:25:39.001Z</time></trkpt><trkpt lat="36.05671260699951" lon="-107.04993538307701"><ele>2239.2</ele><time>2026-05-03T17:25:40.001Z</time></trkpt><trkpt lat="36.05674485664094" lon="-107.04982825396927"><ele>2238.4</ele><time>2026-05-03T17:25:41.001Z</time></trkpt><trkpt lat="36.05675202689659" lon="-107.04971953800475"><ele>2237.6</ele><time>2026-05-03T17:25:42.001Z</time></trkpt><trkpt lat="36.056730737448845" lon="-107.04958133859205"><ele>2236.8</ele><time>2026-05-03T17:25:43.001Z</time></trkpt><trkpt lat="36.05672755735307" lon="-107.0494702620239"><ele>2236.0</ele><time>2026-05-03T17:25:44.001Z</time></trkpt><trkpt lat="36.05677724816907" lon="-107.0493227685174"><ele>2236.0</ele><time>2026-05-03T17:25:45.001Z</time></trkpt><trkpt lat="36.05681807881227" lon="-107.04915932293038"><ele>2236.0</ele><time>2026-05-03T17:25:46.001Z</time></trkpt><trkpt lat="36.05684319862897" lon="-107.04901358879438"><ele>2236.0</ele><time>2026-05-03T17:25:47.001Z</time></trkpt><trkpt lat="36.056851368491216" lon="-107.04886463534113"><ele>2236.0</ele><time>2026-05-03T17:25:48.001Z</time></trkpt><trkpt lat="36.056855956043584" lon="-107.0487025019679"><ele>2235.5</ele><time>2026-05-03T17:25:49.001Z</time></trkpt><trkpt lat="36.0568551370323" lon="-107.04855290132033"><ele>2235.0</ele><time>2026-05-03T17:25:50.001Z</time></trkpt><trkpt lat="36.05685803947074" lon="-107.04842276074712"><ele>2234.5</ele><time>2026-05-03T17:25:51.001Z</time></trkpt><trkpt lat="36.05686488036128" lon="-107.04828062607851"><ele>2234.0</ele><time>2026-05-03T17:25:52.001Z</time></trkpt><trkpt lat="36.05688048541413" lon="-107.04813062913567"><ele>2233.2</ele><time>2026-05-03T17:25:53Z</time></trkpt><trkpt lat="36.05689130561682" lon="-107.0479905762896"><ele>2232.4</ele><time>2026-05-03T17:25:54Z</time></trkpt><trkpt lat="36.05688300023344" lon="-107.0478744071387"><ele>2231.6</ele><time>2026-05-03T17:25:55Z</time></trkpt><trkpt lat="36.05689573538147" lon="-107.04777443596042"><ele>2230.8</ele><time>2026-05-03T17:25:56Z</time></trkpt><trkpt lat="36.056924687620004" lon="-107.0476789233343"><ele>2230.0</ele><time>2026-05-03T17:25:57Z</time></trkpt><trkpt lat="36.05695690954215" lon="-107.04755964912668"><ele>2229.0</ele><time>2026-05-03T17:25:58Z</time></trkpt><trkpt lat="36.056965605239405" lon="-107.04744347013474"><ele>2228.0</ele><time>2026-05-03T17:25:59Z</time></trkpt><trkpt lat="36.056954094981656" lon="-107.04734377645663"><ele>2227.0</ele><time>2026-05-03T17:26:00Z</time></trkpt><trkpt lat="36.05692492663845" lon="-107.04722680895206"><ele>2226.0</ele><time>2026-05-03T17:26:01Z</time></trkpt><trkpt lat="36.056909792451734" lon="-107.04706573912078"><ele>2225.0</ele><time>2026-05-03T17:26:02Z</time></trkpt><trkpt lat="36.056897977298284" lon="-107.04688474578634"><ele>2225.0</ele><time>2026-05-03T17:26:03Z</time></trkpt><trkpt lat="36.05688618817751" lon="-107.04671338291377"><ele>2225.0</ele><time>2026-05-03T17:26:04Z</time></trkpt><trkpt lat="36.0568729410013" lon="-107.04656089722923"><ele>2225.0</ele><time>2026-05-03T17:26:05Z</time></trkpt><trkpt lat="36.05687230307265" lon="-107.04640375168334"><ele>2225.0</ele><time>2026-05-03T17:26:06Z</time></trkpt><trkpt lat="36.05687839406964" lon="-107.04626160864734"><ele>2225.0</ele><time>2026-05-03T17:26:07Z</time></trkpt><trkpt lat="36.05688736934622" lon="-107.0461612827391"><ele>2225.0</ele><time>2026-05-03T17:26:08Z</time></trkpt><trkpt lat="36.05693353980397" lon="-107.04607691030212"><ele>2225.0</ele><time>2026-05-03T17:26:10Z</time></trkpt><trkpt lat="36.05689677998737" lon="-107.04598178024419"><ele>2225.0</ele><time>2026-05-03T17:26:13Z</time></trkpt><trkpt lat="36.05681696129423" lon="-107.0459751769594"><ele>2225.0</ele><time>2026-05-03T17:26:14Z</time></trkpt><trkpt lat="36.056721846525974" lon="-107.04598873696031"><ele>2225.0</ele><time>2026-05-03T17:26:15Z</time></trkpt><trkpt lat="36.056609409480224" lon="-107.04601450417803"><ele>2227.25</ele><time>2026-05-03T17:26:16Z</time></trkpt><trkpt lat="36.05648904668215" lon="-107.04605197210633"><ele>2229.5</ele><time>2026-05-03T17:26:17Z</time></trkpt><trkpt lat="36.05634009869704" lon="-107.04605443277543"><ele>2231.75</ele><time>2026-05-03T17:26:18Z</time></trkpt><trkpt lat="36.05620306446921" lon="-107.04604289911072"><ele>2234.0</ele><time>2026-05-03T17:26:19Z</time></trkpt><trkpt lat="36.05609308069849" lon="-107.04604330431594"><ele>2234.0</ele><time>2026-05-03T17:26:20Z</time></trkpt><trkpt lat="36.05602004257035" lon="-107.04601845690992"><ele>2234.0</ele><time>2026-05-03T17:26:22Z</time></trkpt><trkpt lat="36.055983322045236" lon="-107.04595305663769"><ele>2234.0</ele><time>2026-05-03T17:26:23Z</time></trkpt><trkpt lat="36.05591915889254" lon="-107.04587742969802"><ele>2234.0</ele><time>2026-05-03T17:26:24Z</time></trkpt><trkpt lat="36.05585406186169" lon="-107.0458027696749"><ele>2234.0</ele><time>2026-05-03T17:26:25Z</time></trkpt><trkpt lat="36.05578573522022" lon="-107.04574250143608"><ele>2234.0</ele><time>2026-05-03T17:26:26Z</time></trkpt><trkpt lat="36.05568417321647" lon="-107.0456753551712"><ele>2235.2</ele><time>2026-05-03T17:26:27Z</time></trkpt><trkpt lat="36.05557804181488" lon="-107.04559617977591"><ele>2236.4</ele><time>2026-05-03T17:26:28Z</time></trkpt><trkpt lat="36.055496929813486" lon="-107.04552777357664"><ele>2237.6</ele><time>2026-05-03T17:26:29Z</time></trkpt><trkpt lat="36.05544929414179" lon="-107.04543520843778"><ele>2238.8</ele><time>2026-05-03T17:26:30Z</time></trkpt><trkpt lat="36.05537001025621" lon="-107.04530954783552"><ele>2240.0</ele><time>2026-05-03T17:26:31Z</time></trkpt><trkpt lat="36.05528026700094" lon="-107.04523710928832"><ele>2240.0</ele><time>2026-05-03T17:26:32Z</time></trkpt><trkpt lat="36.05515887784503" lon="-107.04520184669077"><ele>2240.0</ele><time>2026-05-03T17:26:34Z</time></trkpt><trkpt lat="36.05509607898025" lon="-107.0451875764841"><ele>2240.0</ele><time>2026-05-03T17:26:35Z</time></trkpt><trkpt lat="36.05498802261875" lon="-107.04519383390894"><ele>2240.0</ele><time>2026-05-03T17:26:37Z</time></trkpt><trkpt lat="36.054895715297306" lon="-107.04511416844512"><ele>2240.0</ele><time>2026-05-03T17:26:39Z</time></trkpt><trkpt lat="36.05490241905168" lon="-107.04497279407404"><ele>2239.833333333333</ele><time>2026-05-03T17:26:41Z</time></trkpt><trkpt lat="36.054924030837384" lon="-107.04486461442492"><ele>2239.6666666666665</ele><time>2026-05-03T17:26:42Z</time></trkpt><trkpt lat="36.05497714522082" lon="-107.0447977426125"><ele>2239.5</ele><time>2026-05-03T17:26:43Z</time></trkpt><trkpt lat="36.05504975280578" lon="-107.04478059159192"><ele>2239.3333333333335</ele><time>2026-05-03T17:26:44Z</time></trkpt><trkpt lat="36.05511944730047" lon="-107.04475131683469"><ele>2239.166666666667</ele><time>2026-05-03T17:26:51Z</time></trkpt><trkpt lat="36.05517207056435" lon="-107.04470157601314"><ele>2239.0</ele><time>2026-05-03T17:26:52Z</time></trkpt><trkpt lat="36.05523302847708" lon="-107.04464476641047"><ele>2239.0</ele><time>2026-05-03T17:26:53Z</time></trkpt><trkpt lat="36.05529106141251" lon="-107.0445851774482"><ele>2239.0</ele><time>2026-05-03T17:26:54Z</time></trkpt><trkpt lat="36.055346633600024" lon="-107.0445084633697"><ele>2239.0</ele><time>2026-05-03T17:26:55Z</time></trkpt><trkpt lat="36.05537860325809" lon="-107.04441703719195"><ele>2239.0</ele><time>2026-05-03T17:26:56Z</time></trkpt><trkpt lat="36.055364654674754" lon="-107.04430387189579"><ele>2239.0</ele><time>2026-05-03T17:26:58Z</time></trkpt><trkpt lat="36.055249219111474" lon="-107.04420597125277"><ele>2239.0</ele><time>2026-05-03T17:27:00Z</time></trkpt><trkpt lat="36.055163924132174" lon="-107.04414783972922"><ele>2239.0</ele><time>2026-05-03T17:27:01.001Z</time></trkpt><trkpt lat="36.055103541642644" lon="-107.04407362922026"><ele>2239.0</ele><time>2026-05-03T17:27:02.001Z</time></trkpt><trkpt lat="36.05507450918736" lon="-107.04397122796024"><ele>2239.0</ele><time>2026-05-03T17:27:03.001Z</time></trkpt><trkpt lat="36.05505900213824" lon="-107.04384727661213"><ele>2239.0</ele><time>2026-05-03T17:27:04.001Z</time></trkpt><trkpt lat="36.05499553804498" lon="-107.04373621023059"><ele>2237.0</ele><time>2026-05-03T17:27:05.001Z</time></trkpt><trkpt lat="36.054894998586796" lon="-107.04366743841626"><ele>2235.0</ele><time>2026-05-03T17:27:06.001Z</time></trkpt><trkpt lat="36.05480123730298" lon="-107.04359077252113"><ele>2233.0</ele><time>2026-05-03T17:27:07.001Z</time></trkpt><trkpt lat="36.05474733251642" lon="-107.04349768714599"><ele>2231.0</ele><time>2026-05-03T17:27:08.001Z</time></trkpt><trkpt lat="36.05471546048603" lon="-107.04341516905484"><ele>2229.0</ele><time>2026-05-03T17:27:09.001Z</time></trkpt><trkpt lat="36.05469629167678" lon="-107.04332583138367"><ele>2228.5</ele><time>2026-05-03T17:27:10.001Z</time></trkpt><trkpt lat="36.05469682232485" lon="-107.04324366007219"><ele>2228.0</ele><time>2026-05-03T17:27:11.001Z</time></trkpt><trkpt lat="36.05467558752463" lon="-107.04314796966217"><ele>2227.5</ele><time>2026-05-03T17:27:13.001Z</time></trkpt><trkpt lat="36.054663384443295" lon="-107.0430698600592"><ele>2227.0</ele><time>2026-05-03T17:27:15.001Z</time></trkpt><trkpt lat="36.05466029720494" lon="-107.04298244011079"><ele>2226.5</ele><time>2026-05-03T17:27:16.001Z</time></trkpt><trkpt lat="36.054643161542295" lon="-107.0428748165995"><ele>2226.0</ele><time>2026-05-03T17:27:17.001Z</time></trkpt><trkpt lat="36.05458965710306" lon="-107.04277688372187"><ele>2226.0</ele><time>2026-05-03T17:27:18.001Z</time></trkpt><trkpt lat="36.05453100418729" lon="-107.04270447439323"><ele>2226.0</ele><time>2026-05-03T17:27:19.001Z</time></trkpt><trkpt lat="36.05449411071906" lon="-107.04259991575165"><ele>2226.0</ele><time>2026-05-03T17:27:20.001Z</time></trkpt><trkpt lat="36.0544514968565" lon="-107.04246687081563"><ele>2226.0</ele><time>2026-05-03T17:27:21.001Z</time></trkpt><trkpt lat="36.05439522504489" lon="-107.04234610048788"><ele>2226.0</ele><time>2026-05-03T17:27:22.001Z</time></trkpt><trkpt lat="36.05433991500016" lon="-107.04226412635178"><ele>2224.8</ele><time>2026-05-03T17:27:23.001Z</time></trkpt><trkpt lat="36.05428295289396" lon="-107.04219998438386"><ele>2223.6</ele><time>2026-05-03T17:27:24.001Z</time></trkpt><trkpt lat="36.05422621442974" lon="-107.04214325175313"><ele>2222.4</ele><time>2026-05-03T17:27:25.001Z</time></trkpt><trkpt lat="36.054151883254825" lon="-107.042086865116"><ele>2221.2</ele><time>2026-05-03T17:27:27.001Z</time></trkpt><trkpt lat="36.05414650450321" lon="-107.04194265647988"><ele>2220.0</ele><time>2026-05-03T17:27:29.001Z</time></trkpt><trkpt lat="36.05412181831031" lon="-107.04179542608813"><ele>2219.5</ele><time>2026-05-03T17:27:30.001Z</time></trkpt><trkpt lat="36.054070733004416" lon="-107.04172032788108"><ele>2219.0</ele><time>2026-05-03T17:27:31.001Z</time></trkpt><trkpt lat="36.05402020620178" lon="-107.04164028233176"><ele>2218.5</ele><time>2026-05-03T17:27:32.001Z</time></trkpt><trkpt lat="36.053972979305456" lon="-107.04154882645659"><ele>2218.0</ele><time>2026-05-03T17:27:33.001Z</time></trkpt><trkpt lat="36.05393723848153" lon="-107.04143871411237"><ele>2217.5</ele><time>2026-05-03T17:27:34.001Z</time></trkpt><trkpt lat="36.053906965685975" lon="-107.04133334978575"><ele>2217.0</ele><time>2026-05-03T17:27:35.001Z</time></trkpt><trkpt lat="36.05388358946375" lon="-107.04123490138879"><ele>2216.6</ele><time>2026-05-03T17:27:36.001Z</time></trkpt><trkpt lat="36.05378501092606" lon="-107.04111467789836"><ele>2216.2</ele><time>2026-05-03T17:27:38.001Z</time></trkpt><trkpt lat="36.05370240802073" lon="-107.04104887502541"><ele>2215.8</ele><time>2026-05-03T17:27:39.001Z</time></trkpt><trkpt lat="36.05361016622449" lon="-107.04099302271365"><ele>2215.4</ele><time>2026-05-03T17:27:40.001Z</time></trkpt><trkpt lat="36.05351635776661" lon="-107.04092902921718"><ele>2215.0</ele><time>2026-05-03T17:27:41.001Z</time></trkpt><trkpt lat="36.05343889658531" lon="-107.04086102008833"><ele>2215.0</ele><time>2026-05-03T17:27:42.001Z</time></trkpt><trkpt lat="36.053382086445254" lon="-107.04080855773678"><ele>2215.0</ele><time>2026-05-03T17:27:43.001Z</time></trkpt><trkpt lat="36.05326634853354" lon="-107.0407300962373"><ele>2215.0</ele><time>2026-05-03T17:27:45.001Z</time></trkpt><trkpt lat="36.053189750624846" lon="-107.04069777290276"><ele>2215.0</ele><time>2026-05-03T17:27:46.001Z</time></trkpt><trkpt lat="36.053125200477325" lon="-107.04069283068634"><ele>2215.0</ele><time>2026-05-03T17:27:47.001Z</time></trkpt><trkpt lat="36.05305695971135" lon="-107.04071695551342"><ele>2215.0</ele><time>2026-05-03T17:27:48.001Z</time></trkpt><trkpt lat="36.05299395440823" lon="-107.04075947568657"><ele>2213.8</ele><time>2026-05-03T17:27:49.001Z</time></trkpt><trkpt lat="36.05288139149611" lon="-107.04077157674253"><ele>2212.6</ele><time>2026-05-03T17:27:51.001Z</time></trkpt><trkpt lat="36.052819751074644" lon="-107.04063041845744"><ele>2211.4</ele><time>2026-05-03T17:27:54.001Z</time></trkpt><trkpt lat="36.05280111350852" lon="-107.04053104385132"><ele>2210.2</ele><time>2026-05-03T17:27:55.001Z</time></trkpt><trkpt lat="36.05279806402119" lon="-107.04044148870827"><ele>2209.0</ele><time>2026-05-03T17:27:56.001Z</time></trkpt><trkpt lat="36.05285735680884" lon="-107.04039046110005"><ele>2209.0</ele><time>2026-05-03T17:27:57.001Z</time></trkpt><trkpt lat="36.052906322343965" lon="-107.04031557024064"><ele>2209.0</ele><time>2026-05-03T17:27:58.001Z</time></trkpt><trkpt lat="36.05294016486889" lon="-107.04019631843187"><ele>2209.0</ele><time>2026-05-03T17:27:59Z</time></trkpt><trkpt lat="36.05295701914996" lon="-107.04010558715292"><ele>2209.0</ele><time>2026-05-03T17:28:00Z</time></trkpt><trkpt lat="36.052890693206606" lon="-107.03999959763964"><ele>2209.0</ele><time>2026-05-03T17:28:02Z</time></trkpt><trkpt lat="36.052849415030295" lon="-107.03989148711325"><ele>2207.8333333333335</ele><time>2026-05-03T17:28:04Z</time></trkpt><trkpt lat="36.052916677306" lon="-107.03976841534468"><ele>2206.666666666667</ele><time>2026-05-03T17:28:06Z</time></trkpt><trkpt lat="36.05296240924662" lon="-107.03969047129623"><ele>2205.5</ele><time>2026-05-03T17:28:07Z</time></trkpt><trkpt lat="36.05301883729432" lon="-107.03960214771574"><ele>2204.3333333333335</ele><time>2026-05-03T17:28:08Z</time></trkpt><trkpt lat="36.05307928938852" lon="-107.03953161317895"><ele>2203.1666666666665</ele><time>2026-05-03T17:28:09Z</time></trkpt><trkpt lat="36.0531359115241" lon="-107.0394861200891"><ele>2202.0</ele><time>2026-05-03T17:28:10Z</time></trkpt><trkpt lat="36.05319586479867" lon="-107.03945216095347"><ele>2202.0</ele><time>2026-05-03T17:28:11Z</time></trkpt><trkpt lat="36.0532717199379" lon="-107.03940623949075"><ele>2202.0</ele><time>2026-05-03T17:28:12Z</time></trkpt><trkpt lat="36.05334328509323" lon="-107.03935739489525"><ele>2202.0</ele><time>2026-05-03T17:28:13Z</time></trkpt><trkpt lat="36.05341741458803" lon="-107.03926728295451"><ele>2202.0</ele><time>2026-05-03T17:28:15Z</time></trkpt><trkpt lat="36.0535000924121" lon="-107.03921616430227"><ele>2202.0</ele><time>2026-05-03T17:28:18Z</time></trkpt><trkpt lat="36.05358727235256" lon="-107.03903488864019"><ele>2200.75</ele><time>2026-05-03T17:28:20Z</time></trkpt><trkpt lat="36.0536308629401" lon="-107.03893244042673"><ele>2199.5</ele><time>2026-05-03T17:28:21Z</time></trkpt><trkpt lat="36.05365461920617" lon="-107.03884032747035"><ele>2198.25</ele><time>2026-05-03T17:28:23Z</time></trkpt><trkpt lat="36.05358491252533" lon="-107.03865156806424"><ele>2197.0</ele><time>2026-05-03T17:28:25Z</time></trkpt><trkpt lat="36.053546287564835" lon="-107.03851614451735"><ele>2197.0</ele><time>2026-05-03T17:28:26Z</time></trkpt><trkpt lat="36.05351054431066" lon="-107.03843161573462"><ele>2197.0</ele><time>2026-05-03T17:28:27Z</time></trkpt><trkpt lat="36.05344073047779" lon="-107.03837891364655"><ele>2197.0</ele><time>2026-05-03T17:28:29Z</time></trkpt><trkpt lat="36.05335879079763" lon="-107.03834223120826"><ele>2197.0</ele><time>2026-05-03T17:28:30Z</time></trkpt><trkpt lat="36.053262963588026" lon="-107.03829923678121"><ele>2197.0</ele><time>2026-05-03T17:28:31Z</time></trkpt><trkpt lat="36.053154710726936" lon="-107.03823748552813"><ele>2195.0</ele><time>2026-05-03T17:28:32Z</time></trkpt><trkpt lat="36.05303701067012" lon="-107.03814701760312"><ele>2193.0</ele><time>2026-05-03T17:28:33Z</time></trkpt><trkpt lat="36.052912764023134" lon="-107.03806312709881"><ele>2191.0</ele><time>2026-05-03T17:28:34Z</time></trkpt><trkpt lat="36.05281556952889" lon="-107.03799816181066"><ele>2189.0</ele><time>2026-05-03T17:28:35Z</time></trkpt><trkpt lat="36.05272786373294" lon="-107.0379478133517"><ele>2189.0</ele><time>2026-05-03T17:28:36Z</time></trkpt><trkpt lat="36.0526414214687" lon="-107.03790829315707"><ele>2189.0</ele><time>2026-05-03T17:28:37Z</time></trkpt><trkpt lat="36.0525563860866" lon="-107.03788257752494"><ele>2189.0</ele><time>2026-05-03T17:28:38Z</time></trkpt><trkpt lat="36.05246434844901" lon="-107.03785811871838"><ele>2189.0</ele><time>2026-05-03T17:28:39Z</time></trkpt><trkpt lat="36.0523400666132" lon="-107.03782084839688"><ele>2189.0</ele><time>2026-05-03T17:28:40Z</time></trkpt><trkpt lat="36.05219563832924" lon="-107.03776421323599"><ele>2189.333333333333</ele><time>2026-05-03T17:28:41Z</time></trkpt><trkpt lat="36.05204536571726" lon="-107.03770669201403"><ele>2189.6666666666665</ele><time>2026-05-03T17:28:42Z</time></trkpt><trkpt lat="36.05187472475786" lon="-107.03764085027046"><ele>2190.0</ele><time>2026-05-03T17:28:43Z</time></trkpt><trkpt lat="36.051715660337" lon="-107.03758617520039"><ele>2190.25</ele><time>2026-05-03T17:28:44Z</time></trkpt><trkpt lat="36.05157145899421" lon="-107.03754318950207"><ele>2190.5</ele><time>2026-05-03T17:28:45Z</time></trkpt><trkpt lat="36.05142310463031" lon="-107.03749440993563"><ele>2190.75</ele><time>2026-05-03T17:28:46Z</time></trkpt><trkpt lat="36.05128841710119" lon="-107.03744612732848"><ele>2191.0</ele><time>2026-05-03T17:28:47Z</time></trkpt><trkpt lat="36.05118116115947" lon="-107.03739878786178"><ele>2190.5</ele><time>2026-05-03T17:28:48Z</time></trkpt><trkpt lat="36.05109548682751" lon="-107.03733474692811"><ele>2190.0</ele><time>2026-05-03T17:28:49Z</time></trkpt><trkpt lat="36.051008401064934" lon="-107.03722873292752"><ele>2189.5</ele><time>2026-05-03T17:28:50Z</time></trkpt><trkpt lat="36.050908858579426" lon="-107.03711575478654"><ele>2189.0</ele><time>2026-05-03T17:28:51Z</time></trkpt><trkpt lat="36.05080573423103" lon="-107.03703260329618"><ele>2189.5</ele><time>2026-05-03T17:28:52Z</time></trkpt><trkpt lat="36.05070889442971" lon="-107.03697749626723"><ele>2190.0</ele><time>2026-05-03T17:28:53Z</time></trkpt><trkpt lat="36.05060529623568" lon="-107.03693115592553"><ele>2190.5</ele><time>2026-05-03T17:28:54Z</time></trkpt><trkpt lat="36.05047765456632" lon="-107.03688148420352"><ele>2191.0</ele><time>2026-05-03T17:28:55Z</time></trkpt><trkpt lat="36.050351739395964" lon="-107.03683872256939"><ele>2191.0</ele><time>2026-05-03T17:28:56Z</time></trkpt><trkpt lat="36.05023357983681" lon="-107.0367923288853"><ele>2191.0</ele><time>2026-05-03T17:28:57Z</time></trkpt><trkpt lat="36.05010166342795" lon="-107.03674294345292"><ele>2191.0</ele><time>2026-05-03T17:28:58Z</time></trkpt><trkpt lat="36.049956575667956" lon="-107.03669749779907"><ele>2191.0</ele><time>2026-05-03T17:28:59Z</time></trkpt><trkpt lat="36.04981685882581" lon="-107.03666280870203"><ele>2190.8333333333335</ele><time>2026-05-03T17:29:00Z</time></trkpt><trkpt lat="36.04972607115448" lon="-107.03664606944248"><ele>2190.666666666667</ele><time>2026-05-03T17:29:01Z</time></trkpt><trkpt lat="36.049649108206744" lon="-107.03665456774932"><ele>2190.5</ele><time>2026-05-03T17:29:02Z</time></trkpt><trkpt lat="36.04956730288004" lon="-107.03667834860914"><ele>2190.3333333333335</ele><time>2026-05-03T17:29:03Z</time></trkpt><trkpt lat="36.04948780078037" lon="-107.03668803038708"><ele>2190.1666666666665</ele><time>2026-05-03T17:29:04Z</time></trkpt><trkpt lat="36.04942234740181" lon="-107.03664561579915"><ele>2190.0</ele><time>2026-05-03T17:29:05Z</time></trkpt><trkpt lat="36.0493690921252" lon="-107.03658005282888"><ele>2190.0</ele><time>2026-05-03T17:29:06Z</time></trkpt><trkpt lat="36.04930644089199" lon="-107.03655344403954"><ele>2190.0</ele><time>2026-05-03T17:29:07Z</time></trkpt><trkpt lat="36.04915912716819" lon="-107.03655377527751"><ele>2190.0</ele><time>2026-05-03T17:29:09Z</time></trkpt><trkpt lat="36.04904794875482" lon="-107.03651534534272"><ele>2190.0</ele><time>2026-05-03T17:29:10Z</time></trkpt><trkpt lat="36.04893516272619" lon="-107.03647827913495"><ele>2190.0</ele><time>2026-05-03T17:29:11Z</time></trkpt><trkpt lat="36.048809998334576" lon="-107.03639767179233"><ele>2188.75</ele><time>2026-05-03T17:29:12.001Z</time></trkpt><trkpt lat="36.048677897659154" lon="-107.03631500750181"><ele>2187.5</ele><time>2026-05-03T17:29:13.001Z</time></trkpt><trkpt lat="36.04855584737616" lon="-107.0362675393049"><ele>2186.25</ele><time>2026-05-03T17:29:14.001Z</time></trkpt><trkpt lat="36.048427335232475" lon="-107.0362290333218"><ele>2185.0</ele><time>2026-05-03T17:29:15.001Z</time></trkpt><trkpt lat="36.048309865134726" lon="-107.03621474651807"><ele>2185.75</ele><time>2026-05-03T17:29:16.001Z</time></trkpt><trkpt lat="36.04818369624277" lon="-107.03619657898263"><ele>2186.5</ele><time>2026-05-03T17:29:17.001Z</time></trkpt><trkpt lat="36.04807933192739" lon="-107.03615149216338"><ele>2187.25</ele><time>2026-05-03T17:29:18.001Z</time></trkpt><trkpt lat="36.047962589381406" lon="-107.0360746804283"><ele>2188.0</ele><time>2026-05-03T17:29:19.001Z</time></trkpt><trkpt lat="36.04783912364344" lon="-107.0360053968696"><ele>2188.0</ele><time>2026-05-03T17:29:20.001Z</time></trkpt><trkpt lat="36.0477095783818" lon="-107.03596331540103"><ele>2188.0</ele><time>2026-05-03T17:29:21.001Z</time></trkpt><trkpt lat="36.04756310348202" lon="-107.03593873801641"><ele>2188.0</ele><time>2026-05-03T17:29:22.001Z</time></trkpt><trkpt lat="36.04739605784472" lon="-107.0359047999751"><ele>2188.0</ele><time>2026-05-03T17:29:23.001Z</time></trkpt><trkpt lat="36.04725233079542" lon="-107.03586687655692"><ele>2188.0</ele><time>2026-05-03T17:29:24.001Z</time></trkpt><trkpt lat="36.047137312309346" lon="-107.03583685641804"><ele>2188.0</ele><time>2026-05-03T17:29:25.001Z</time></trkpt><trkpt lat="36.04703215479649" lon="-107.03581069887254"><ele>2188.0</ele><time>2026-05-03T17:29:26.001Z</time></trkpt><trkpt lat="36.04690231505622" lon="-107.03579368505343"><ele>2187.2000000000003</ele><time>2026-05-03T17:29:27.001Z</time></trkpt><trkpt lat="36.04677246177347" lon="-107.03578591544422"><ele>2186.4</ele><time>2026-05-03T17:29:28.001Z</time></trkpt><trkpt lat="36.046694144053575" lon="-107.03576586453761"><ele>2185.6000000000004</ele><time>2026-05-03T17:29:29.001Z</time></trkpt><trkpt lat="36.046600807586316" lon="-107.03569617614114"><ele>2184.8</ele><time>2026-05-03T17:29:30.001Z</time></trkpt><trkpt lat="36.046478891799474" lon="-107.03563979512272"><ele>2184.0</ele><time>2026-05-03T17:29:31.001Z</time></trkpt><trkpt lat="36.046359923683944" lon="-107.03559376919378"><ele>2184.0</ele><time>2026-05-03T17:29:32.001Z</time></trkpt><trkpt lat="36.04625414046531" lon="-107.03555839500783"><ele>2184.0</ele><time>2026-05-03T17:29:33.001Z</time></trkpt><trkpt lat="36.046140446371375" lon="-107.03553091846678"><ele>2184.0</ele><time>2026-05-03T17:29:34.001Z</time></trkpt><trkpt lat="36.04601307805559" lon="-107.0354853278223"><ele>2184.0</ele><time>2026-05-03T17:29:35.001Z</time></trkpt><trkpt lat="36.04589842123077" lon="-107.03544578605414"><ele>2185.0</ele><time>2026-05-03T17:29:36.001Z</time></trkpt><trkpt lat="36.04579060517218" lon="-107.03540296561818"><ele>2186.0</ele><time>2026-05-03T17:29:37.001Z</time></trkpt><trkpt lat="36.045703535633514" lon="-107.0353619640198"><ele>2187.0</ele><time>2026-05-03T17:29:38.001Z</time></trkpt><trkpt lat="36.045623953252914" lon="-107.03536089733787"><ele>2188.0</ele><time>2026-05-03T17:29:39.001Z</time></trkpt><trkpt lat="36.04553367607597" lon="-107.03539397124159"><ele>2189.0</ele><time>2026-05-03T17:29:40.001Z</time></trkpt><trkpt lat="36.04544161497085" lon="-107.0354421518296"><ele>2189.0</ele><time>2026-05-03T17:29:41.001Z</time></trkpt><trkpt lat="36.04536778564386" lon="-107.03546498644343"><ele>2189.0</ele><time>2026-05-03T17:29:42.001Z</time></trkpt><trkpt lat="36.045285637292636" lon="-107.0354411490545"><ele>2189.0</ele><time>2026-05-03T17:29:43.001Z</time></trkpt><trkpt lat="36.045175990436775" lon="-107.0354140859447"><ele>2189.0</ele><time>2026-05-03T17:29:44.001Z</time></trkpt><trkpt lat="36.04505954447657" lon="-107.03541819426277"><ele>2189.0</ele><time>2026-05-03T17:29:45.001Z</time></trkpt><trkpt lat="36.04494716560895" lon="-107.03543936987799"><ele>2188.5</ele><time>2026-05-03T17:29:46.001Z</time></trkpt><trkpt lat="36.04484251577262" lon="-107.0354388376024"><ele>2188.0</ele><time>2026-05-03T17:29:47.001Z</time></trkpt><trkpt lat="36.04471779656517" lon="-107.03540228833349"><ele>2187.5</ele><time>2026-05-03T17:29:48.001Z</time></trkpt><trkpt lat="36.044581946362" lon="-107.0353759140124"><ele>2187.0</ele><time>2026-05-03T17:29:49.001Z</time></trkpt><trkpt lat="36.044453366019944" lon="-107.03538143971276"><ele>2187.0</ele><time>2026-05-03T17:29:50.001Z</time></trkpt><trkpt lat="36.04436006567454" lon="-107.03538306069579"><ele>2187.0</ele><time>2026-05-03T17:29:51.001Z</time></trkpt><trkpt lat="36.04426270705047" lon="-107.03534292870782"><ele>2187.0</ele><time>2026-05-03T17:29:52.001Z</time></trkpt><trkpt lat="36.04415089218832" lon="-107.0352981206808"><ele>2187.0</ele><time>2026-05-03T17:29:53.001Z</time></trkpt><trkpt lat="36.04403731466497" lon="-107.03527643460369"><ele>2187.0</ele><time>2026-05-03T17:29:54.001Z</time></trkpt><trkpt lat="36.04393523460799" lon="-107.03525688811843"><ele>2186.75</ele><time>2026-05-03T17:29:55.001Z</time></trkpt><trkpt lat="36.04381952549137" lon="-107.03523388215677"><ele>2186.5</ele><time>2026-05-03T17:29:56.001Z</time></trkpt><trkpt lat="36.043672036518764" lon="-107.0352046442564"><ele>2186.25</ele><time>2026-05-03T17:29:57.001Z</time></trkpt><trkpt lat="36.043514688738675" lon="-107.035173799165"><ele>2186.0</ele><time>2026-05-03T17:29:58.001Z</time></trkpt><trkpt lat="36.04337306085972" lon="-107.03515159261569"><ele>2186.6666666666665</ele><time>2026-05-03T17:29:59.001Z</time></trkpt><trkpt lat="36.043234275238156" lon="-107.0351217945783"><ele>2187.3333333333335</ele><time>2026-05-03T17:30:00.001Z</time></trkpt><trkpt lat="36.04307245806493" lon="-107.03508503461178"><ele>2188.0</ele><time>2026-05-03T17:30:01.001Z</time></trkpt><trkpt lat="36.042925760327655" lon="-107.03504494425916"><ele>2188.0</ele><time>2026-05-03T17:30:02.001Z</time></trkpt><trkpt lat="36.04280879498583" lon="-107.03500982401691"><ele>2188.0</ele><time>2026-05-03T17:30:03.001Z</time></trkpt><trkpt lat="36.04270443493818" lon="-107.03498861473302"><ele>2188.0</ele><time>2026-05-03T17:30:04.001Z</time></trkpt><trkpt lat="36.04262317425634" lon="-107.03497145813604"><ele>2188.0</ele><time>2026-05-03T17:30:05Z</time></trkpt><trkpt lat="36.042555617036" lon="-107.03494670064397"><ele>2188.0</ele><time>2026-05-03T17:30:06Z</time></trkpt><trkpt lat="36.04240554729397" lon="-107.03498027581956"><ele>2188.666666666667</ele><time>2026-05-03T17:30:08Z</time></trkpt><trkpt lat="36.042320537222174" lon="-107.03504103835914"><ele>2189.3333333333335</ele><time>2026-05-03T17:30:09Z</time></trkpt><trkpt lat="36.04223451155635" lon="-107.03504415565494"><ele>2190.0</ele><time>2026-05-03T17:30:11Z</time></trkpt><trkpt lat="36.04218144398581" lon="-107.03497264001255"><ele>2190.6666666666665</ele><time>2026-05-03T17:30:12Z</time></trkpt><trkpt lat="36.04211584628133" lon="-107.0348847962631"><ele>2191.333333333333</ele><time>2026-05-03T17:30:13Z</time></trkpt><trkpt lat="36.042046345502825" lon="-107.03483160516576"><ele>2192.0</ele><time>2026-05-03T17:30:14Z</time></trkpt><trkpt lat="36.04193781967591" lon="-107.03481605396883"><ele>2190.0</ele><time>2026-05-03T17:30:15Z</time></trkpt><trkpt lat="36.04178035071169" lon="-107.03478253763937"><ele>2188.0</ele><time>2026-05-03T17:30:16Z</time></trkpt><trkpt lat="36.04164150455981" lon="-107.0347397009617"><ele>2186.0</ele><time>2026-05-03T17:30:17Z</time></trkpt><trkpt lat="36.04151431634846" lon="-107.03469925732443"><ele>2184.0</ele><time>2026-05-03T17:30:18Z</time></trkpt><trkpt lat="36.04138728319855" lon="-107.03466024284045"><ele>2184.0</ele><time>2026-05-03T17:30:19Z</time></trkpt><trkpt lat="36.04128278136413" lon="-107.03462029884744"><ele>2184.0</ele><time>2026-05-03T17:30:20Z</time></trkpt><trkpt lat="36.04120608050288" lon="-107.03458990173246"><ele>2184.0</ele><time>2026-05-03T17:30:21Z</time></trkpt><trkpt lat="36.0411493389006" lon="-107.03454174219443"><ele>2184.0</ele><time>2026-05-03T17:30:22Z</time></trkpt><trkpt lat="36.041078312462616" lon="-107.03443434416825"><ele>2184.0</ele><time>2026-05-03T17:30:23Z</time></trkpt><trkpt lat="36.040981879101295" lon="-107.03432595841478"><ele>2184.0</ele><time>2026-05-03T17:30:24Z</time></trkpt><trkpt lat="36.04089390875365" lon="-107.03427324269309"><ele>2184.0</ele><time>2026-05-03T17:30:25Z</time></trkpt><trkpt lat="36.04081478391597" lon="-107.03423132781909"><ele>2184.0</ele><time>2026-05-03T17:30:26Z</time></trkpt><trkpt lat="36.040704677999955" lon="-107.03419431433541"><ele>2184.0</ele><time>2026-05-03T17:30:27Z</time></trkpt><trkpt lat="36.04061290317226" lon="-107.03412964173715"><ele>2184.0</ele><time>2026-05-03T17:30:28Z</time></trkpt><trkpt lat="36.04054949025886" lon="-107.03407613764398"><ele>2182.75</ele><time>2026-05-03T17:30:29Z</time></trkpt><trkpt lat="36.040430472100496" lon="-107.0340925373187"><ele>2181.5</ele><time>2026-05-03T17:30:31Z</time></trkpt><trkpt lat="36.040317619627764" lon="-107.03410552643813"><ele>2180.25</ele><time>2026-05-03T17:30:32Z</time></trkpt><trkpt lat="36.0402001923275" lon="-107.0341081019488"><ele>2179.0</ele><time>2026-05-03T17:30:33Z</time></trkpt><trkpt lat="36.0400891380267" lon="-107.03409010245703"><ele>2179.0</ele><time>2026-05-03T17:30:34Z</time></trkpt><trkpt lat="36.039966875999475" lon="-107.03407343041565"><ele>2179.0</ele><time>2026-05-03T17:30:35Z</time></trkpt><trkpt lat="36.03983968428468" lon="-107.03405747678556"><ele>2179.0</ele><time>2026-05-03T17:30:36Z</time></trkpt><trkpt lat="36.03970501517347" lon="-107.03402876477087"><ele>2179.0</ele><time>2026-05-03T17:30:37Z</time></trkpt><trkpt lat="36.03957878984245" lon="-107.03402373346795"><ele>2178.75</ele><time>2026-05-03T17:30:38Z</time></trkpt><trkpt lat="36.039470432339314" lon="-107.03402210742358"><ele>2178.5</ele><time>2026-05-03T17:30:39Z</time></trkpt><trkpt lat="36.03935676813155" lon="-107.03399433795651"><ele>2178.25</ele><time>2026-05-03T17:30:40Z</time></trkpt><trkpt lat="36.03924026885218" lon="-107.03398935180127"><ele>2178.0</ele><time>2026-05-03T17:30:41Z</time></trkpt><trkpt lat="36.03912181436926" lon="-107.03400280512345"><ele>2178.5</ele><time>2026-05-03T17:30:42Z</time></trkpt><trkpt lat="36.039001437836355" lon="-107.03399696398978"><ele>2179.0</ele><time>2026-05-03T17:30:43Z</time></trkpt><trkpt lat="36.03887765394653" lon="-107.03399082760922"><ele>2179.5</ele><time>2026-05-03T17:30:44Z</time></trkpt><trkpt lat="36.03878907183865" lon="-107.0339863025798"><ele>2180.0</ele><time>2026-05-03T17:30:45Z</time></trkpt><trkpt lat="36.03866206016614" lon="-107.0338979296759"><ele>2180.0</ele><time>2026-05-03T17:30:47Z</time></trkpt><trkpt lat="36.038558471922606" lon="-107.03380152031663"><ele>2180.0</ele><time>2026-05-03T17:30:48Z</time></trkpt><trkpt lat="36.03843858685054" lon="-107.03370405857564"><ele>2180.0</ele><time>2026-05-03T17:30:49Z</time></trkpt><trkpt lat="36.03831604197229" lon="-107.03361047226689"><ele>2180.0</ele><time>2026-05-03T17:30:50Z</time></trkpt><trkpt lat="36.03822381736651" lon="-107.03353482309934"><ele>2179.5</ele><time>2026-05-03T17:30:51Z</time></trkpt><trkpt lat="36.03814226253" lon="-107.03347758670655"><ele>2179.0</ele><time>2026-05-03T17:30:52Z</time></trkpt><trkpt lat="36.03804070990169" lon="-107.0334423011785"><ele>2178.5</ele><time>2026-05-03T17:30:53Z</time></trkpt><trkpt lat="36.03792949747434" lon="-107.03339842914693"><ele>2178.0</ele><time>2026-05-03T17:30:54Z</time></trkpt><trkpt lat="36.03780419484302" lon="-107.0333357881631"><ele>2178.0</ele><time>2026-05-03T17:30:55Z</time></trkpt><trkpt lat="36.03769837468038" lon="-107.03327601226503"><ele>2178.0</ele><time>2026-05-03T17:30:56Z</time></trkpt><trkpt lat="36.037592042342816" lon="-107.03324233328271"><ele>2178.0</ele><time>2026-05-03T17:30:57Z</time></trkpt><trkpt lat="36.03746471217863" lon="-107.03323033466077"><ele>2178.0</ele><time>2026-05-03T17:30:58Z</time></trkpt><trkpt lat="36.03733437654435" lon="-107.03320459619769"><ele>2178.0</ele><time>2026-05-03T17:30:59Z</time></trkpt><trkpt lat="36.03720037429555" lon="-107.03315793794948"><ele>2178.0</ele><time>2026-05-03T17:31:00Z</time></trkpt><trkpt lat="36.037028612237464" lon="-107.03307846191184"><ele>2178.0</ele><time>2026-05-03T17:31:01Z</time></trkpt><trkpt lat="36.03682980245169" lon="-107.03299909162192"><ele>2178.0</ele><time>2026-05-03T17:31:02Z</time></trkpt><trkpt lat="36.03668176463382" lon="-107.03296025508367"><ele>2178.0</ele><time>2026-05-03T17:31:03Z</time></trkpt><trkpt lat="36.036568467725395" lon="-107.0329449255653"><ele>2178.0</ele><time>2026-05-03T17:31:04Z</time></trkpt><trkpt lat="36.036470486150314" lon="-107.03295869305694"><ele>2178.0</ele><time>2026-05-03T17:31:05Z</time></trkpt><trkpt lat="36.036328811302674" lon="-107.03299493633105"><ele>2178.3333333333335</ele><time>2026-05-03T17:31:06Z</time></trkpt><trkpt lat="36.03617076495491" lon="-107.03305554439599"><ele>2178.666666666667</ele><time>2026-05-03T17:31:07Z</time></trkpt><trkpt lat="36.0360084128787" lon="-107.03313920272753"><ele>2179.0</ele><time>2026-05-03T17:31:08Z</time></trkpt><trkpt lat="36.03588706847912" lon="-107.03319965813655"><ele>2179.6</ele><time>2026-05-03T17:31:09Z</time></trkpt><trkpt lat="36.03579552702263" lon="-107.03323942460895"><ele>2180.2</ele><time>2026-05-03T17:31:10Z</time></trkpt><trkpt lat="36.035695344519425" lon="-107.03324870662796"><ele>2180.7999999999997</ele><time>2026-05-03T17:31:12Z</time></trkpt><trkpt lat="36.03561022015562" lon="-107.03319809617841"><ele>2181.4</ele><time>2026-05-03T17:31:14Z</time></trkpt><trkpt lat="36.03550700304635" lon="-107.03310188695835"><ele>2182.0</ele><time>2026-05-03T17:31:15Z</time></trkpt><trkpt lat="36.03539815113374" lon="-107.03298921236919"><ele>2182.0</ele><time>2026-05-03T17:31:16Z</time></trkpt><trkpt lat="36.035267488674926" lon="-107.03290622609221"><ele>2182.0</ele><time>2026-05-03T17:31:17Z</time></trkpt><trkpt lat="36.03511039930113" lon="-107.03282540861504"><ele>2182.0</ele><time>2026-05-03T17:31:18Z</time></trkpt><trkpt lat="36.03492854907506" lon="-107.03273927195717"><ele>2182.75</ele><time>2026-05-03T17:31:19.001Z</time></trkpt><trkpt lat="36.03476507622091" lon="-107.03266021930271"><ele>2183.5</ele><time>2026-05-03T17:31:20.001Z</time></trkpt><trkpt lat="36.03464878060024" lon="-107.03260952499366"><ele>2184.25</ele><time>2026-05-03T17:31:21.001Z</time></trkpt><trkpt lat="36.03453410900216" lon="-107.03256801237659"><ele>2185.0</ele><time>2026-05-03T17:31:22.001Z</time></trkpt><trkpt lat="36.0344093425599" lon="-107.03253540745195"><ele>2185.0</ele><time>2026-05-03T17:31:23.001Z</time></trkpt><trkpt lat="36.034294878438" lon="-107.03248891495632"><ele>2185.0</ele><time>2026-05-03T17:31:24.001Z</time></trkpt><trkpt lat="36.03416901883994" lon="-107.03241906410186"><ele>2185.0</ele><time>2026-05-03T17:31:25.001Z</time></trkpt><trkpt lat="36.034025347269605" lon="-107.0323206871975"><ele>2185.0</ele><time>2026-05-03T17:31:26.001Z</time></trkpt><trkpt lat="36.033887280134124" lon="-107.03221018430283"><ele>2183.5</ele><time>2026-05-03T17:31:27.001Z</time></trkpt><trkpt lat="36.03376250140697" lon="-107.03211200630588"><ele>2182.0</ele><time>2026-05-03T17:31:28.001Z</time></trkpt><trkpt lat="36.03366434900296" lon="-107.03203414055703"><ele>2180.5</ele><time>2026-05-03T17:31:29.001Z</time></trkpt><trkpt lat="36.033575830817426" lon="-107.0319741923548"><ele>2179.0</ele><time>2026-05-03T17:31:30.001Z</time></trkpt><trkpt lat="36.03349009420017" lon="-107.03194522528023"><ele>2179.0</ele><time>2026-05-03T17:31:31.001Z</time></trkpt><trkpt lat="36.03341858740672" lon="-107.0319447501486"><ele>2179.0</ele><time>2026-05-03T17:31:32.001Z</time></trkpt><trkpt lat="36.03334568937765" lon="-107.03198275761595"><ele>2179.0</ele><time>2026-05-03T17:31:33.001Z</time></trkpt><trkpt lat="36.03326950058555" lon="-107.0320434408795"><ele>2179.0</ele><time>2026-05-03T17:31:34.001Z</time></trkpt><trkpt lat="36.033221018281104" lon="-107.03209438640535"><ele>2179.0</ele><time>2026-05-03T17:31:35.001Z</time></trkpt><trkpt lat="36.033163519817506" lon="-107.03216441415044"><ele>2179.0</ele><time>2026-05-03T17:31:36.001Z</time></trkpt><trkpt lat="36.033086504553864" lon="-107.03224545627359"><ele>2179.2</ele><time>2026-05-03T17:31:37.001Z</time></trkpt><trkpt lat="36.03299694176911" lon="-107.0322936243819"><ele>2179.4</ele><time>2026-05-03T17:31:38.001Z</time></trkpt><trkpt lat="36.03290066445165" lon="-107.03230003946341"><ele>2179.6</ele><time>2026-05-03T17:31:39.001Z</time></trkpt><trkpt lat="36.03281443468234" lon="-107.03231354861977"><ele>2179.8</ele><time>2026-05-03T17:31:40.001Z</time></trkpt><trkpt lat="36.032727767598644" lon="-107.03235797534498"><ele>2180.0</ele><time>2026-05-03T17:31:41.001Z</time></trkpt><trkpt lat="36.03265633883816" lon="-107.03241110818259"><ele>2180.0</ele><time>2026-05-03T17:31:42.001Z</time></trkpt><trkpt lat="36.03259565631929" lon="-107.03243442829171"><ele>2180.0</ele><time>2026-05-03T17:31:43.001Z</time></trkpt><trkpt lat="36.032516142595284" lon="-107.03240616877312"><ele>2180.0</ele><time>2026-05-03T17:31:44.001Z</time></trkpt><trkpt lat="36.03242782101157" lon="-107.03238447285082"><ele>2180.0</ele><time>2026-05-03T17:31:45.001Z</time></trkpt><trkpt lat="36.03233307866167" lon="-107.03241938629235"><ele>2180.0</ele><time>2026-05-03T17:31:46.001Z</time></trkpt><trkpt lat="36.03221021945781" lon="-107.03246495379597"><ele>2182.5</ele><time>2026-05-03T17:31:47.001Z</time></trkpt><trkpt lat="36.03205304888857" lon="-107.03251361925165"><ele>2185.0</ele><time>2026-05-03T17:31:48.001Z</time></trkpt><trkpt lat="36.031915131400524" lon="-107.03255870419382"><ele>2187.5</ele><time>2026-05-03T17:31:49.001Z</time></trkpt><trkpt lat="36.031818782480634" lon="-107.03258846752864"><ele>2190.0</ele><time>2026-05-03T17:31:50.001Z</time></trkpt><trkpt lat="36.03173790101843" lon="-107.0326008495691"><ele>2190.0</ele><time>2026-05-03T17:31:51.001Z</time></trkpt><trkpt lat="36.03166209246353" lon="-107.03261044885942"><ele>2190.0</ele><time>2026-05-03T17:31:52.001Z</time></trkpt><trkpt lat="36.031582583565424" lon="-107.03262657241297"><ele>2190.0</ele><time>2026-05-03T17:31:53.001Z</time></trkpt><trkpt lat="36.031513022559736" lon="-107.03261457574445"><ele>2190.0</ele><time>2026-05-03T17:31:54.001Z</time></trkpt><trkpt lat="36.03145686381603" lon="-107.03248693653101"><ele>2190.0</ele><time>2026-05-03T17:31:56.001Z</time></trkpt><trkpt lat="36.03148502835997" lon="-107.03239583609606"><ele>2190.0</ele><time>2026-05-03T17:31:57.001Z</time></trkpt><trkpt lat="36.03153875022233" lon="-107.03227756478643"><ele>2191.0</ele><time>2026-05-03T17:31:58.001Z</time></trkpt><trkpt lat="36.031612102192106" lon="-107.03214204020802"><ele>2192.0</ele><time>2026-05-03T17:31:59.001Z</time></trkpt><trkpt lat="36.031672198692156" lon="-107.0319885855312"><ele>2193.0</ele><time>2026-05-03T17:32:00.001Z</time></trkpt><trkpt lat="36.03170833914757" lon="-107.03186197375663"><ele>2194.0</ele><time>2026-05-03T17:32:01.001Z</time></trkpt><trkpt lat="36.0317047375929" lon="-107.03176416481526"><ele>2194.0</ele><time>2026-05-03T17:32:02.001Z</time></trkpt><trkpt lat="36.03168237258361" lon="-107.03167334138381"><ele>2194.0</ele><time>2026-05-03T17:32:03.001Z</time></trkpt><trkpt lat="36.03163678927053" lon="-107.03157717252193"><ele>2194.0</ele><time>2026-05-03T17:32:04.001Z</time></trkpt><trkpt lat="36.03160945586333" lon="-107.03145012847027"><ele>2194.0</ele><time>2026-05-03T17:32:05.001Z</time></trkpt><trkpt lat="36.03161864275756" lon="-107.03133304001591"><ele>2194.0</ele><time>2026-05-03T17:32:06.001Z</time></trkpt><trkpt lat="36.031647050998565" lon="-107.03119993941509"><ele>2194.5</ele><time>2026-05-03T17:32:07.001Z</time></trkpt><trkpt lat="36.03168826101118" lon="-107.03107004903042"><ele>2195.0</ele><time>2026-05-03T17:32:08.001Z</time></trkpt><trkpt lat="36.0317557833601" lon="-107.03094917707574"><ele>2195.5</ele><time>2026-05-03T17:32:09.001Z</time></trkpt><trkpt lat="36.031809763226235" lon="-107.03083533986153"><ele>2196.0</ele><time>2026-05-03T17:32:10.001Z</time></trkpt><trkpt lat="36.031778246477586" lon="-107.03067708934873"><ele>2195.25</ele><time>2026-05-03T17:32:12Z</time></trkpt><trkpt lat="36.03172872368074" lon="-107.0305535824225"><ele>2194.5</ele><time>2026-05-03T17:32:13Z</time></trkpt><trkpt lat="36.03165231657308" lon="-107.03042171869127"><ele>2193.75</ele><time>2026-05-03T17:32:14Z</time></trkpt><trkpt lat="36.03158257558095" lon="-107.03030871053747"><ele>2193.0</ele><time>2026-05-03T17:32:15Z</time></trkpt><trkpt lat="36.03150720202623" lon="-107.03020959661976"><ele>2193.0</ele><time>2026-05-03T17:32:16Z</time></trkpt><trkpt lat="36.03142269477654" lon="-107.03013204477439"><ele>2193.0</ele><time>2026-05-03T17:32:17Z</time></trkpt><trkpt lat="36.03133321134216" lon="-107.03008221289518"><ele>2193.0</ele><time>2026-05-03T17:32:18Z</time></trkpt><trkpt lat="36.03121783356715" lon="-107.030034041154"><ele>2193.0</ele><time>2026-05-03T17:32:19Z</time></trkpt><trkpt lat="36.03110340678728" lon="-107.02997230079794"><ele>2191.25</ele><time>2026-05-03T17:32:20Z</time></trkpt><trkpt lat="36.030995984121674" lon="-107.02994906053362"><ele>2189.5</ele><time>2026-05-03T17:32:21Z</time></trkpt><trkpt lat="36.03086040981489" lon="-107.0299388030387"><ele>2187.75</ele><time>2026-05-03T17:32:22Z</time></trkpt><trkpt lat="36.030728133542844" lon="-107.02989973025858"><ele>2186.0</ele><time>2026-05-03T17:32:23Z</time></trkpt><trkpt lat="36.03061760169993" lon="-107.02987801281273"><ele>2186.0</ele><time>2026-05-03T17:32:24Z</time></trkpt><trkpt lat="36.030495992114005" lon="-107.02988162253487"><ele>2186.0</ele><time>2026-05-03T17:32:25Z</time></trkpt><trkpt lat="36.03037472016827" lon="-107.0298928598478"><ele>2186.0</ele><time>2026-05-03T17:32:26Z</time></trkpt><trkpt lat="36.03026761272444" lon="-107.02990193765619"><ele>2186.0</ele><time>2026-05-03T17:32:27Z</time></trkpt><trkpt lat="36.03016682326093" lon="-107.02989101086325"><ele>2186.0</ele><time>2026-05-03T17:32:28Z</time></trkpt><trkpt lat="36.030067557730376" lon="-107.02985500220113"><ele>2186.0</ele><time>2026-05-03T17:32:29Z</time></trkpt><trkpt lat="36.029988963946074" lon="-107.02979980797917"><ele>2186.0</ele><time>2026-05-03T17:32:30Z</time></trkpt><trkpt lat="36.02986707750808" lon="-107.0297321575541"><ele>2186.0</ele><time>2026-05-03T17:32:31Z</time></trkpt><trkpt lat="36.02973210954401" lon="-107.02967473215493"><ele>2187.25</ele><time>2026-05-03T17:32:32Z</time></trkpt><trkpt lat="36.029602125917066" lon="-107.02963879402127"><ele>2188.5</ele><time>2026-05-03T17:32:33Z</time></trkpt><trkpt lat="36.02947678867954" lon="-107.02960734006602"><ele>2189.75</ele><time>2026-05-03T17:32:34Z</time></trkpt><trkpt lat="36.02936297618199" lon="-107.0295762132849"><ele>2191.0</ele><time>2026-05-03T17:32:35Z</time></trkpt><trkpt lat="36.029260216017256" lon="-107.02952456633618"><ele>2191.0</ele><time>2026-05-03T17:32:36Z</time></trkpt><trkpt lat="36.029157006853005" lon="-107.02946926350212"><ele>2191.0</ele><time>2026-05-03T17:32:37Z</time></trkpt><trkpt lat="36.029049156702555" lon="-107.029434536349"><ele>2191.0</ele><time>2026-05-03T17:32:38Z</time></trkpt><trkpt lat="36.028928645317876" lon="-107.0294117213512"><ele>2191.0</ele><time>2026-05-03T17:32:39Z</time></trkpt><trkpt lat="36.028830194589496" lon="-107.02938926913338"><ele>2191.0</ele><time>2026-05-03T17:32:40Z</time></trkpt><trkpt lat="36.02876037280255" lon="-107.02936592541299"><ele>2192.2</ele><time>2026-05-03T17:32:41Z</time></trkpt><trkpt lat="36.02866858678945" lon="-107.02934782275535"><ele>2193.3999999999996</ele><time>2026-05-03T17:32:42Z</time></trkpt><trkpt lat="36.028563694484276" lon="-107.02930792085537"><ele>2194.6</ele><time>2026-05-03T17:32:43Z</time></trkpt><trkpt lat="36.02845241583554" lon="-107.02923920132919"><ele>2195.7999999999997</ele><time>2026-05-03T17:32:44Z</time></trkpt><trkpt lat="36.02838544923188" lon="-107.029225565147"><ele>2197.0</ele><time>2026-05-03T17:32:45Z</time></trkpt><trkpt lat="36.028312715728575" lon="-107.02927504902893"><ele>2197.2</ele><time>2026-05-03T17:32:46Z</time></trkpt><trkpt lat="36.028228876650736" lon="-107.02931410166366"><ele>2197.3999999999996</ele><time>2026-05-03T17:32:47Z</time></trkpt><trkpt lat="36.028122036560745" lon="-107.02932070600491"><ele>2197.6000000000004</ele><time>2026-05-03T17:32:48Z</time></trkpt><trkpt lat="36.02799999044549" lon="-107.02935450537854"><ele>2197.8</ele><time>2026-05-03T17:32:49Z</time></trkpt><trkpt lat="36.02790000703341" lon="-107.02936614277638"><ele>2198.0</ele><time>2026-05-03T17:32:50Z</time></trkpt><trkpt lat="36.02779886138595" lon="-107.02939963522812"><ele>2198.0</ele><time>2026-05-03T17:32:51Z</time></trkpt><trkpt lat="36.02769382945087" lon="-107.02945130079752"><ele>2198.0</ele><time>2026-05-03T17:32:52Z</time></trkpt><trkpt lat="36.02760094954307" lon="-107.02946813552728"><ele>2198.0</ele><time>2026-05-03T17:32:53Z</time></trkpt><trkpt lat="36.02752226069881" lon="-107.02945694242017"><ele>2198.0</ele><time>2026-05-03T17:32:54Z</time></trkpt><trkpt lat="36.02742447445596" lon="-107.02943117678771"><ele>2198.0</ele><time>2026-05-03T17:32:55Z</time></trkpt><trkpt lat="36.02732911239517" lon="-107.02939904497804"><ele>2198.2000000000003</ele><time>2026-05-03T17:32:56Z</time></trkpt><trkpt lat="36.02724085049632" lon="-107.02937476742794"><ele>2198.4</ele><time>2026-05-03T17:32:57Z</time></trkpt><trkpt lat="36.02710691335135" lon="-107.02939338507662"><ele>2198.6000000000004</ele><time>2026-05-03T17:32:59Z</time></trkpt><trkpt lat="36.027011320665686" lon="-107.02941702624625"><ele>2198.8</ele><time>2026-05-03T17:33:00Z</time></trkpt><trkpt lat="36.02690675433316" lon="-107.02939686761577"><ele>2199.0</ele><time>2026-05-03T17:33:01Z</time></trkpt><trkpt lat="36.02675768137446" lon="-107.02936715591271"><ele>2198.0</ele><time>2026-05-03T17:33:02Z</time></trkpt><trkpt lat="36.026623702555455" lon="-107.02936522432243"><ele>2197.0</ele><time>2026-05-03T17:33:03Z</time></trkpt><trkpt lat="36.026505381414125" lon="-107.02938511858797"><ele>2196.0</ele><time>2026-05-03T17:33:04Z</time></trkpt><trkpt lat="36.026406980157134" lon="-107.02939507999854"><ele>2195.0</ele><time>2026-05-03T17:33:05Z</time></trkpt><trkpt lat="36.02630539923505" lon="-107.02938433087186"><ele>2195.0</ele><time>2026-05-03T17:33:06Z</time></trkpt><trkpt lat="36.026249519126274" lon="-107.02934600858693"><ele>2195.0</ele><time>2026-05-03T17:33:07Z</time></trkpt><trkpt lat="36.026199695476635" lon="-107.0292934326611"><ele>2195.0</ele><time>2026-05-03T17:33:08Z</time></trkpt><trkpt lat="36.026122403823344" lon="-107.02914620471229"><ele>2195.0</ele><time>2026-05-03T17:33:10Z</time></trkpt><trkpt lat="36.02606620826557" lon="-107.0290205283865"><ele>2195.0</ele><time>2026-05-03T17:33:11Z</time></trkpt><trkpt lat="36.02601199885838" lon="-107.02893596610528"><ele>2193.5</ele><time>2026-05-03T17:33:12Z</time></trkpt><trkpt lat="36.0259637004149" lon="-107.02887439607977"><ele>2192.0</ele><time>2026-05-03T17:33:13Z</time></trkpt><trkpt lat="36.0259127281229" lon="-107.02881503116778"><ele>2190.5</ele><time>2026-05-03T17:33:14Z</time></trkpt><trkpt lat="36.025853013449165" lon="-107.0287503784803"><ele>2189.0</ele><time>2026-05-03T17:33:15Z</time></trkpt><trkpt lat="36.02574412879764" lon="-107.02869743314476"><ele>2187.5</ele><time>2026-05-03T17:33:17Z</time></trkpt><trkpt lat="36.025661083031515" lon="-107.02872902218388"><ele>2186.0</ele><time>2026-05-03T17:33:18Z</time></trkpt><trkpt lat="36.02558182334582" lon="-107.02881152556893"><ele>2186.25</ele><time>2026-05-03T17:33:19Z</time></trkpt><trkpt lat="36.0255257479894" lon="-107.0289109357424"><ele>2186.5</ele><time>2026-05-03T17:33:20Z</time></trkpt><trkpt lat="36.025434612881305" lon="-107.02905453794983"><ele>2186.75</ele><time>2026-05-03T17:33:21Z</time></trkpt><trkpt lat="36.025362204453295" lon="-107.0291848833081"><ele>2187.0</ele><time>2026-05-03T17:33:22Z</time></trkpt><trkpt lat="36.02531442200708" lon="-107.02928632440167"><ele>2187.0</ele><time>2026-05-03T17:33:23Z</time></trkpt><trkpt lat="36.02523262862941" lon="-107.02932588139645"><ele>2187.0</ele><time>2026-05-03T17:33:24Z</time></trkpt><trkpt lat="36.02515250889681" lon="-107.02936735035428"><ele>2187.0</ele><time>2026-05-03T17:33:25Z</time></trkpt><trkpt lat="36.02507149126053" lon="-107.02939391970735"><ele>2187.0</ele><time>2026-05-03T17:33:26Z</time></trkpt><trkpt lat="36.024977951572176" lon="-107.02939250293359"><ele>2187.0</ele><time>2026-05-03T17:33:27Z</time></trkpt><trkpt lat="36.02485536918112" lon="-107.02938291027922"><ele>2186.1666666666665</ele><time>2026-05-03T17:33:28Z</time></trkpt><trkpt lat="36.024724482194735" lon="-107.02938462447555"><ele>2185.3333333333335</ele><time>2026-05-03T17:33:29.001Z</time></trkpt><trkpt lat="36.024646171437816" lon="-107.02937906009252"><ele>2184.5</ele><time>2026-05-03T17:33:30.001Z</time></trkpt><trkpt lat="36.024601691566744" lon="-107.02929507919717"><ele>2183.666666666667</ele><time>2026-05-03T17:33:35.001Z</time></trkpt><trkpt lat="36.02458553338884" lon="-107.02921815914291"><ele>2182.8333333333335</ele><time>2026-05-03T17:33:38.001Z</time></trkpt><trkpt lat="36.02455968054964" lon="-107.0291274173445"><ele>2182.0</ele><time>2026-05-03T17:33:39.001Z</time></trkpt><trkpt lat="36.0246420735295" lon="-107.02907215077258"><ele>2178.0</ele><time>2026-05-03T17:33:41.001Z</time></trkpt><trkpt lat="36.0245905591283" lon="-107.02882582220829"><ele>2174.0</ele><time>2026-05-03T17:33:43.001Z</time></trkpt><trkpt lat="36.024741092275086" lon="-107.0288194898652"><ele>2170.0</ele><time>2026-05-03T17:33:44.001Z</time></trkpt><trkpt lat="36.0248494456207" lon="-107.02879241764933"><ele>2170.0</ele><time>2026-05-03T17:33:45.001Z</time></trkpt><trkpt lat="36.024954940026525" lon="-107.02872373387376"><ele>2170.0</ele><time>2026-05-03T17:33:46.001Z</time></trkpt><trkpt lat="36.025018235178635" lon="-107.02863685920232"><ele>2170.0</ele><time>2026-05-03T17:33:47.001Z</time></trkpt><trkpt lat="36.025083127400436" lon="-107.02853921958612"><ele>2170.0</ele><time>2026-05-03T17:33:48.001Z</time></trkpt><trkpt lat="36.02514927988416" lon="-107.02843139529018"><ele>2170.0</ele><time>2026-05-03T17:33:49.001Z</time></trkpt><trkpt lat="36.02519937605187" lon="-107.02833180464125"><ele>2170.8</ele><time>2026-05-03T17:33:50.001Z</time></trkpt><trkpt lat="36.02523409120553" lon="-107.02824909698435"><ele>2171.6</ele><time>2026-05-03T17:33:51.001Z</time></trkpt><trkpt lat="36.02531474440288" lon="-107.02820212818223"><ele>2172.4</ele><time>2026-05-03T17:33:53.001Z</time></trkpt><trkpt lat="36.02543961518981" lon="-107.02817543724431"><ele>2173.2</ele><time>2026-05-03T17:33:55.001Z</time></trkpt><trkpt lat="36.025542681851654" lon="-107.0281783835881"><ele>2174.0</ele><time>2026-05-03T17:33:56.001Z</time></trkpt><trkpt lat="36.02566401318032" lon="-107.02815284945098"><ele>2174.0</ele><time>2026-05-03T17:33:57.001Z</time></trkpt><trkpt lat="36.025794530742466" lon="-107.02815123790747"><ele>2174.0</ele><time>2026-05-03T17:33:58.001Z</time></trkpt><trkpt lat="36.025934305358255" lon="-107.02816714430226"><ele>2174.0</ele><time>2026-05-03T17:33:59.001Z</time></trkpt><trkpt lat="36.02607186901839" lon="-107.02817938058443"><ele>2174.0</ele><time>2026-05-03T17:34:00.001Z</time></trkpt><trkpt lat="36.02618654011382" lon="-107.02819950245814"><ele>2174.333333333333</ele><time>2026-05-03T17:34:01.001Z</time></trkpt><trkpt lat="36.02627128586166" lon="-107.02820227155559"><ele>2174.6666666666665</ele><time>2026-05-03T17:34:02.001Z</time></trkpt><trkpt lat="36.02634936982818" lon="-107.02819085935182"><ele>2175.0</ele><time>2026-05-03T17:34:03.001Z</time></trkpt><trkpt lat="36.02626212518694" lon="-107.0281123911497"><ele>2175.3333333333335</ele><time>2026-05-03T17:34:04.001Z</time></trkpt><trkpt lat="36.026279706945914" lon="-107.02799986470455"><ele>2175.666666666667</ele><time>2026-05-03T17:34:05.001Z</time></trkpt><trkpt lat="36.026308547794955" lon="-107.02791762202196"><ele>2176.0</ele><time>2026-05-03T17:34:06.001Z</time></trkpt><trkpt lat="36.026326101021475" lon="-107.02783723136376"><ele>2176.0</ele><time>2026-05-03T17:34:07.001Z</time></trkpt><trkpt lat="36.02637145337431" lon="-107.02771488010093"><ele>2176.0</ele><time>2026-05-03T17:34:09.001Z</time></trkpt><trkpt lat="36.026385817973654" lon="-107.0276149064408"><ele>2176.0</ele><time>2026-05-03T17:34:11.001Z</time></trkpt><trkpt lat="36.02630657141787" lon="-107.02749643583246"><ele>2176.0</ele><time>2026-05-03T17:34:13.001Z</time></trkpt><trkpt lat="36.02623579882307" lon="-107.0274632943137"><ele>2176.0</ele><time>2026-05-03T17:34:14.001Z</time></trkpt><trkpt lat="36.026148252643765" lon="-107.0274395911745"><ele>2173.4</ele><time>2026-05-03T17:34:15.001Z</time></trkpt><trkpt lat="36.02605764767366" lon="-107.02735244373295"><ele>2170.8</ele><time>2026-05-03T17:34:17Z</time></trkpt><trkpt lat="36.02602219714441" lon="-107.02725856162508"><ele>2168.2000000000003</ele><time>2026-05-03T17:34:18Z</time></trkpt><trkpt lat="36.0259703344644" lon="-107.02718576333433"><ele>2165.6</ele><time>2026-05-03T17:34:19Z</time></trkpt><trkpt lat="36.02590305411511" lon="-107.02713420601414"><ele>2163.0</ele><time>2026-05-03T17:34:20Z</time></trkpt><trkpt lat="36.02583279575509" lon="-107.02704739907894"><ele>2162.6666666666665</ele><time>2026-05-03T17:34:22Z</time></trkpt><trkpt lat="36.025791333367245" lon="-107.0269707661977"><ele>2162.3333333333335</ele><time>2026-05-03T17:34:25Z</time></trkpt><trkpt lat="36.02577931098305" lon="-107.02688324296182"><ele>2162.0</ele><time>2026-05-03T17:34:30Z</time></trkpt><trkpt lat="36.02574010254721" lon="-107.02678508290745"><ele>2161.666666666667</ele><time>2026-05-03T17:34:32Z</time></trkpt><trkpt lat="36.02570267051032" lon="-107.026665785352"><ele>2161.3333333333335</ele><time>2026-05-03T17:34:33Z</time></trkpt><trkpt lat="36.02560380408116" lon="-107.02668331025559"><ele>2161.0</ele><time>2026-05-03T17:34:35Z</time></trkpt><trkpt lat="36.02551878349579" lon="-107.02669449791065"><ele>2161.0</ele><time>2026-05-03T17:34:36Z</time></trkpt><trkpt lat="36.025392352279916" lon="-107.02669145047315"><ele>2161.0</ele><time>2026-05-03T17:34:38Z</time></trkpt><trkpt lat="36.02526253896352" lon="-107.02672831316438"><ele>2161.0</ele><time>2026-05-03T17:34:39Z</time></trkpt><trkpt lat="36.02510506845496" lon="-107.02672597904163"><ele>2161.0</ele><time>2026-05-03T17:34:40Z</time></trkpt><trkpt lat="36.02500621719935" lon="-107.0267217986428"><ele>2160.4</ele><time>2026-05-03T17:34:41Z</time></trkpt><trkpt lat="36.02486374447949" lon="-107.02677711854213"><ele>2159.8</ele><time>2026-05-03T17:34:43Z</time></trkpt><trkpt lat="36.02474712737189" lon="-107.02681625051812"><ele>2159.2000000000003</ele><time>2026-05-03T17:34:44Z</time></trkpt><trkpt lat="36.0246596608615" lon="-107.0268585639581"><ele>2158.6</ele><time>2026-05-03T17:34:45Z</time></trkpt><trkpt lat="36.024591479151425" lon="-107.02691598387027"><ele>2158.0</ele><time>2026-05-03T17:34:46Z</time></trkpt><trkpt lat="36.02452682547454" lon="-107.02697638728537"><ele>2158.0</ele><time>2026-05-03T17:34:47Z</time></trkpt><trkpt lat="36.02448709334261" lon="-107.02704140897549"><ele>2158.0</ele><time>2026-05-03T17:34:48Z</time></trkpt><trkpt lat="36.02444889205218" lon="-107.02711271011832"><ele>2158.0</ele><time>2026-05-03T17:34:49Z</time></trkpt><trkpt lat="36.02435133493978" lon="-107.02714858107343"><ele>2158.0</ele><time>2026-05-03T17:34:51Z</time></trkpt><trkpt lat="36.02424355226016" lon="-107.0271619874457"><ele>2158.0</ele><time>2026-05-03T17:34:52Z</time></trkpt><trkpt lat="36.02413449594281" lon="-107.0272188215964"><ele>2158.0</ele><time>2026-05-03T17:34:53Z</time></trkpt><trkpt lat="36.02403322880671" lon="-107.02722494699967"><ele>2158.0</ele><time>2026-05-03T17:34:54Z</time></trkpt><trkpt lat="36.02392383982241" lon="-107.02724686213129"><ele>2158.0</ele><time>2026-05-03T17:34:55Z</time></trkpt><trkpt lat="36.02379575080133" lon="-107.0272758888892"><ele>2158.0</ele><time>2026-05-03T17:34:56Z</time></trkpt><trkpt lat="36.02368426552053" lon="-107.02730960981971"><ele>2158.0</ele><time>2026-05-03T17:34:57Z</time></trkpt><trkpt lat="36.02361262762321" lon="-107.02733855696134"><ele>2158.0</ele><time>2026-05-03T17:34:58Z</time></trkpt><trkpt lat="36.02349912768035" lon="-107.02744039479926"><ele>2158.0</ele><time>2026-05-03T17:35:00Z</time></trkpt><trkpt lat="36.02341463610483" lon="-107.027519239773"><ele>2158.0</ele><time>2026-05-03T17:35:01Z</time></trkpt><trkpt lat="36.023313905036595" lon="-107.02759767243445"><ele>2158.0</ele><time>2026-05-03T17:35:02Z</time></trkpt><trkpt lat="36.02319957507325" lon="-107.02768893240462"><ele>2158.0</ele><time>2026-05-03T17:35:03Z</time></trkpt><trkpt lat="36.023086122997576" lon="-107.02778703122041"><ele>2158.0</ele><time>2026-05-03T17:35:04Z</time></trkpt><trkpt lat="36.02296040733937" lon="-107.027914022111"><ele>2158.0</ele><time>2026-05-03T17:35:05Z</time></trkpt><trkpt lat="36.022841496408844" lon="-107.02801725139966"><ele>2158.0</ele><time>2026-05-03T17:35:06Z</time></trkpt><trkpt lat="36.02273776523776" lon="-107.02808563406955"><ele>2158.0</ele><time>2026-05-03T17:35:07Z</time></trkpt><trkpt lat="36.022620053915354" lon="-107.02814135221378"><ele>2158.0</ele><time>2026-05-03T17:35:08Z</time></trkpt><trkpt lat="36.02249913404786" lon="-107.02817962366099"><ele>2158.0</ele><time>2026-05-03T17:35:09Z</time></trkpt><trkpt lat="36.022384652531" lon="-107.02820430064662"><ele>2158.0</ele><time>2026-05-03T17:35:10Z</time></trkpt><trkpt lat="36.02227121422961" lon="-107.02821956452523"><ele>2158.25</ele><time>2026-05-03T17:35:11Z</time></trkpt><trkpt lat="36.02213681010964" lon="-107.02824568191465"><ele>2158.5</ele><time>2026-05-03T17:35:12Z</time></trkpt><trkpt lat="36.021991626417304" lon="-107.02827771123786"><ele>2158.75</ele><time>2026-05-03T17:35:13Z</time></trkpt><trkpt lat="36.021828993044174" lon="-107.02831132375323"><ele>2159.0</ele><time>2026-05-03T17:35:14Z</time></trkpt><trkpt lat="36.021662865862915" lon="-107.02836122791976"><ele>2156.333333333333</ele><time>2026-05-03T17:35:15Z</time></trkpt><trkpt lat="36.02149297276811" lon="-107.0284029293928"><ele>2153.6666666666665</ele><time>2026-05-03T17:35:16Z</time></trkpt><trkpt lat="36.02131847483846" lon="-107.02844115914704"><ele>2151.0</ele><time>2026-05-03T17:35:17Z</time></trkpt><trkpt lat="36.021137373424786" lon="-107.02847214958514"><ele>2151.0</ele><time>2026-05-03T17:35:18Z</time></trkpt><trkpt lat="36.020958501374864" lon="-107.02849772621343"><ele>2151.0</ele><time>2026-05-03T17:35:19Z</time></trkpt><trkpt lat="36.02081796601018" lon="-107.02852536803876"><ele>2151.0</ele><time>2026-05-03T17:35:20Z</time></trkpt><trkpt lat="36.020732650440635" lon="-107.0285400862686"><ele>2151.0</ele><time>2026-05-03T17:35:21Z</time></trkpt><trkpt lat="36.02065154951011" lon="-107.02856851928942"><ele>2150.6</ele><time>2026-05-03T17:35:22Z</time></trkpt><trkpt lat="36.020591772013496" lon="-107.02861637462256"><ele>2150.2</ele><time>2026-05-03T17:35:23Z</time></trkpt><trkpt lat="36.020528383396744" lon="-107.0286963770171"><ele>2149.8</ele><time>2026-05-03T17:35:24Z</time></trkpt><trkpt lat="36.02045068112981" lon="-107.02880096445587"><ele>2149.4</ele><time>2026-05-03T17:35:25Z</time></trkpt><trkpt lat="36.02036970305658" lon="-107.02891076289481"><ele>2149.0</ele><time>2026-05-03T17:35:26Z</time></trkpt><trkpt lat="36.02031251150733" lon="-107.02899268307404"><ele>2149.0</ele><time>2026-05-03T17:35:27Z</time></trkpt><trkpt lat="36.020255217416874" lon="-107.0290549161372"><ele>2149.0</ele><time>2026-05-03T17:35:28Z</time></trkpt><trkpt lat="36.02019459785438" lon="-107.0291260132747"><ele>2149.0</ele><time>2026-05-03T17:35:29Z</time></trkpt><trkpt lat="36.020130633284516" lon="-107.02920282073327"><ele>2149.0</ele><time>2026-05-03T17:35:30Z</time></trkpt><trkpt lat="36.02005359060759" lon="-107.02931782544678"><ele>2149.0</ele><time>2026-05-03T17:35:32Z</time></trkpt><trkpt lat="36.01994445693482" lon="-107.02940963314838"><ele>2149.166666666667</ele><time>2026-05-03T17:35:33Z</time></trkpt><trkpt lat="36.01985399179537" lon="-107.02949393994314"><ele>2149.3333333333335</ele><time>2026-05-03T17:35:34Z</time></trkpt><trkpt lat="36.019781105267285" lon="-107.0295507541739"><ele>2149.5</ele><time>2026-05-03T17:35:35.001Z</time></trkpt><trkpt lat="36.01971694007314" lon="-107.029590208038"><ele>2149.6666666666665</ele><time>2026-05-03T17:35:36.001Z</time></trkpt><trkpt lat="36.01963515018464" lon="-107.02961241973333"><ele>2149.833333333333</ele><time>2026-05-03T17:35:37.001Z</time></trkpt><trkpt lat="36.019559819958346" lon="-107.02961859141027"><ele>2150.0</ele><time>2026-05-03T17:35:38.001Z</time></trkpt><trkpt lat="36.01946498882582" lon="-107.02968773596643"><ele>2150.0</ele><time>2026-05-03T17:35:40.001Z</time></trkpt><trkpt lat="36.01940700740479" lon="-107.02978256351012"><ele>2150.0</ele><time>2026-05-03T17:35:41.001Z</time></trkpt><trkpt lat="36.01932432108738" lon="-107.0298533562557"><ele>2150.0</ele><time>2026-05-03T17:35:42.001Z</time></trkpt><trkpt lat="36.01921814272329" lon="-107.02988939955951"><ele>2150.0</ele><time>2026-05-03T17:35:44.001Z</time></trkpt><trkpt lat="36.01914889955602" lon="-107.02989176045492"><ele>2150.0</ele><time>2026-05-03T17:35:45.001Z</time></trkpt><trkpt lat="36.01906882703658" lon="-107.02989608300706"><ele>2149.5</ele><time>2026-05-03T17:35:46.001Z</time></trkpt><trkpt lat="36.01897926277902" lon="-107.02988491932359"><ele>2149.0</ele><time>2026-05-03T17:35:47.001Z</time></trkpt><trkpt lat="36.01887872093083" lon="-107.02985045938934"><ele>2148.5</ele><time>2026-05-03T17:35:48.001Z</time></trkpt><trkpt lat="36.01878017674895" lon="-107.02982610347357"><ele>2148.0</ele><time>2026-05-03T17:35:49.001Z</time></trkpt><trkpt lat="36.01871534850723" lon="-107.02983196590658"><ele>2147.5</ele><time>2026-05-03T17:35:50.001Z</time></trkpt><trkpt lat="36.01864804024915" lon="-107.02986871961336"><ele>2147.0</ele><time>2026-05-03T17:35:51.001Z</time></trkpt><trkpt lat="36.01857971302057" lon="-107.02986576266501"><ele>2147.0</ele><time>2026-05-03T17:35:52.001Z</time></trkpt><trkpt lat="36.01851432367697" lon="-107.02984641291424"><ele>2147.0</ele><time>2026-05-03T17:35:53.001Z</time></trkpt><trkpt lat="36.018442944466386" lon="-107.02986490395931"><ele>2147.0</ele><time>2026-05-03T17:35:54.001Z</time></trkpt><trkpt lat="36.018354334165394" lon="-107.02987123222535"><ele>2147.0</ele><time>2026-05-03T17:35:55.001Z</time></trkpt><trkpt lat="36.01825253774084" lon="-107.02984515236227"><ele>2147.0</ele><time>2026-05-03T17:35:56.001Z</time></trkpt><trkpt lat="36.018160201044026" lon="-107.02981572656621"><ele>2147.0</ele><time>2026-05-03T17:35:57.001Z</time></trkpt><trkpt lat="36.01807810465156" lon="-107.02981197952136"><ele>2146.5</ele><time>2026-05-03T17:35:58.001Z</time></trkpt><trkpt lat="36.018008676381804" lon="-107.02983711162018"><ele>2146.0</ele><time>2026-05-03T17:35:59.001Z</time></trkpt><trkpt lat="36.01792805444824" lon="-107.02988066667855"><ele>2145.5</ele><time>2026-05-03T17:36:00.001Z</time></trkpt><trkpt lat="36.01785786255458" lon="-107.0299032522727"><ele>2145.0</ele><time>2026-05-03T17:36:01.001Z</time></trkpt><trkpt lat="36.01778178202202" lon="-107.02987650924882"><ele>2144.5</ele><time>2026-05-03T17:36:02.001Z</time></trkpt><trkpt lat="36.017702443840406" lon="-107.0298167733421"><ele>2144.0</ele><time>2026-05-03T17:36:03.001Z</time></trkpt><trkpt lat="36.01763265493079" lon="-107.02974796416059"><ele>2144.0</ele><time>2026-05-03T17:36:04.001Z</time></trkpt><trkpt lat="36.01759531258823" lon="-107.02967312608226"><ele>2144.0</ele><time>2026-05-03T17:36:05.001Z</time></trkpt><trkpt lat="36.017581488920534" lon="-107.02959660752741"><ele>2144.0</ele><time>2026-05-03T17:36:06.001Z</time></trkpt><trkpt lat="36.017599010054205" lon="-107.02946877390086"><ele>2144.0</ele><time>2026-05-03T17:36:08.001Z</time></trkpt><trkpt lat="36.01750121054129" lon="-107.02936453528653"><ele>2144.0</ele><time>2026-05-03T17:36:10.001Z</time></trkpt><trkpt lat="36.01742233279252" lon="-107.02931556399346"><ele>2144.2</ele><time>2026-05-03T17:36:11.001Z</time></trkpt><trkpt lat="36.017352462312225" lon="-107.02930958090673"><ele>2144.4</ele><time>2026-05-03T17:36:12.001Z</time></trkpt><trkpt lat="36.0172756227657" lon="-107.02934714497508"><ele>2144.6</ele><time>2026-05-03T17:36:13.001Z</time></trkpt><trkpt lat="36.01718176225142" lon="-107.0294355998924"><ele>2144.8</ele><time>2026-05-03T17:36:14.001Z</time></trkpt><trkpt lat="36.01709892409001" lon="-107.02956436303697"><ele>2145.0</ele><time>2026-05-03T17:36:15.001Z</time></trkpt><trkpt lat="36.017018128654726" lon="-107.02970267857417"><ele>2145.0</ele><time>2026-05-03T17:36:16.001Z</time></trkpt><trkpt lat="36.01693941258987" lon="-107.02982284168749"><ele>2145.0</ele><time>2026-05-03T17:36:17.001Z</time></trkpt><trkpt lat="36.016868182708905" lon="-107.02992433806308"><ele>2145.0</ele><time>2026-05-03T17:36:18.001Z</time></trkpt><trkpt lat="36.0167795913119" lon="-107.0300418854532"><ele>2145.0</ele><time>2026-05-03T17:36:19.001Z</time></trkpt><trkpt lat="36.01670504968235" lon="-107.03013429224826"><ele>2144.6</ele><time>2026-05-03T17:36:20.001Z</time></trkpt><trkpt lat="36.01665019014003" lon="-107.03019121592729"><ele>2144.2</ele><time>2026-05-03T17:36:21.001Z</time></trkpt><trkpt lat="36.01659560735399" lon="-107.03023116193381"><ele>2143.8</ele><time>2026-05-03T17:36:22Z</time></trkpt><trkpt lat="36.01647420537176" lon="-107.03019168193465"><ele>2143.4</ele><time>2026-05-03T17:36:24Z</time></trkpt><trkpt lat="36.01640132048534" lon="-107.03011036630002"><ele>2143.0</ele><time>2026-05-03T17:36:25Z</time></trkpt><trkpt lat="36.016303476371995" lon="-107.03001771798154"><ele>2143.0</ele><time>2026-05-03T17:36:26Z</time></trkpt><trkpt lat="36.01618663309953" lon="-107.02995112880105"><ele>2143.0</ele><time>2026-05-03T17:36:27Z</time></trkpt><trkpt lat="36.01604573888011" lon="-107.02990970530436"><ele>2143.0</ele><time>2026-05-03T17:36:28Z</time></trkpt><trkpt lat="36.015888414710155" lon="-107.02988292496214"><ele>2143.0</ele><time>2026-05-03T17:36:29Z</time></trkpt><trkpt lat="36.0157373576302" lon="-107.02987303127037"><ele>2142.6</ele><time>2026-05-03T17:36:30Z</time></trkpt><trkpt lat="36.01560488025826" lon="-107.02986915375527"><ele>2142.2000000000003</ele><time>2026-05-03T17:36:31Z</time></trkpt><trkpt lat="36.01550251069797" lon="-107.0298658735244"><ele>2141.8</ele><time>2026-05-03T17:36:32Z</time></trkpt><trkpt lat="36.01543130325884" lon="-107.02984944040459"><ele>2141.4</ele><time>2026-05-03T17:36:33Z</time></trkpt><trkpt lat="36.015371226285545" lon="-107.02980935715001"><ele>2141.0</ele><time>2026-05-03T17:36:34Z</time></trkpt><trkpt lat="36.01532115259339" lon="-107.02973404168806"><ele>2141.0</ele><time>2026-05-03T17:36:35Z</time></trkpt><trkpt lat="36.015284334034824" lon="-107.02962196751587"><ele>2141.0</ele><time>2026-05-03T17:36:36Z</time></trkpt><trkpt lat="36.01524068876035" lon="-107.0294755527502"><ele>2141.0</ele><time>2026-05-03T17:36:37Z</time></trkpt><trkpt lat="36.01519698303547" lon="-107.02932901183536"><ele>2141.0</ele><time>2026-05-03T17:36:38Z</time></trkpt><trkpt lat="36.0151579669046" lon="-107.02923920821874"><ele>2141.0</ele><time>2026-05-03T17:36:39Z</time></trkpt><trkpt lat="36.01504861831533" lon="-107.02912994928018"><ele>2141.4</ele><time>2026-05-03T17:36:41Z</time></trkpt><trkpt lat="36.01493173308517" lon="-107.02905687763541"><ele>2141.8</ele><time>2026-05-03T17:36:42Z</time></trkpt><trkpt lat="36.01482416528954" lon="-107.02901512430581"><ele>2142.2000000000003</ele><time>2026-05-03T17:36:43Z</time></trkpt><trkpt lat="36.014749161655764" lon="-107.02898918209515"><ele>2142.6</ele><time>2026-05-03T17:36:44Z</time></trkpt><trkpt lat="36.01467714893086" lon="-107.02899741513117"><ele>2143.0</ele><time>2026-05-03T17:36:45Z</time></trkpt><trkpt lat="36.01459052140747" lon="-107.0290303097214"><ele>2143.0</ele><time>2026-05-03T17:36:46Z</time></trkpt><trkpt lat="36.01447900026847" lon="-107.02908873789421"><ele>2143.0</ele><time>2026-05-03T17:36:47Z</time></trkpt><trkpt lat="36.01437247928539" lon="-107.02918365850581"><ele>2143.0</ele><time>2026-05-03T17:36:48Z</time></trkpt><trkpt lat="36.014295466012456" lon="-107.02929921310859"><ele>2143.0</ele><time>2026-05-03T17:36:49Z</time></trkpt><trkpt lat="36.01425614291382" lon="-107.0293977501629"><ele>2142.5</ele><time>2026-05-03T17:36:50Z</time></trkpt><trkpt lat="36.01422625964396" lon="-107.0294978863388"><ele>2142.0</ele><time>2026-05-03T17:36:51Z</time></trkpt><trkpt lat="36.014224207860515" lon="-107.02961175191832"><ele>2141.5</ele><time>2026-05-03T17:36:52Z</time></trkpt><trkpt lat="36.01422093413478" lon="-107.02972307865085"><ele>2141.0</ele><time>2026-05-03T17:36:53Z</time></trkpt><trkpt lat="36.01420620307304" lon="-107.02983502238206"><ele>2140.5</ele><time>2026-05-03T17:36:54Z</time></trkpt><trkpt lat="36.014186985358755" lon="-107.0299388759955"><ele>2140.0</ele><time>2026-05-03T17:36:55Z</time></trkpt><trkpt lat="36.01414979270157" lon="-107.03001949034213"><ele>2140.0</ele><time>2026-05-03T17:36:56Z</time></trkpt><trkpt lat="36.014082376467385" lon="-107.03007488605428"><ele>2140.0</ele><time>2026-05-03T17:36:57Z</time></trkpt><trkpt lat="36.01398249929501" lon="-107.03010322604722"><ele>2140.0</ele><time>2026-05-03T17:36:58Z</time></trkpt><trkpt lat="36.01387418784733" lon="-107.03011190215"><ele>2140.0</ele><time>2026-05-03T17:36:59Z</time></trkpt><trkpt lat="36.013799287412574" lon="-107.03009042932824"><ele>2140.0</ele><time>2026-05-03T17:37:00Z</time></trkpt><trkpt lat="36.013710518219696" lon="-107.03002638919992"><ele>2139.75</ele><time>2026-05-03T17:37:01Z</time></trkpt><trkpt lat="36.01359165390213" lon="-107.02990735385305"><ele>2139.5</ele><time>2026-05-03T17:37:02Z</time></trkpt><trkpt lat="36.01348171079948" lon="-107.02976970354224"><ele>2139.25</ele><time>2026-05-03T17:37:03Z</time></trkpt><trkpt lat="36.01338625847633" lon="-107.02964431688356"><ele>2139.0</ele><time>2026-05-03T17:37:04Z</time></trkpt><trkpt lat="36.01329483592786" lon="-107.02958438643806"><ele>2139.0</ele><time>2026-05-03T17:37:05Z</time></trkpt><trkpt lat="36.01323623433323" lon="-107.0295409513743"><ele>2139.0</ele><time>2026-05-03T17:37:06Z</time></trkpt><trkpt lat="36.01309817318003" lon="-107.02955120917696"><ele>2139.0</ele><time>2026-05-03T17:37:08Z</time></trkpt><trkpt lat="36.01300467903952" lon="-107.02961438599692"><ele>2139.0</ele><time>2026-05-03T17:37:09Z</time></trkpt><trkpt lat="36.01289962526772" lon="-107.02970375875546"><ele>2139.0</ele><time>2026-05-03T17:37:10Z</time></trkpt><trkpt lat="36.01278411450575" lon="-107.02975928196881"><ele>2139.0</ele><time>2026-05-03T17:37:11Z</time></trkpt><trkpt lat="36.0126516512073" lon="-107.02976360048449"><ele>2139.0</ele><time>2026-05-03T17:37:12Z</time></trkpt><trkpt lat="36.0125170159159" lon="-107.02975120254706"><ele>2139.0</ele><time>2026-05-03T17:37:13Z</time></trkpt><trkpt lat="36.01239180185552" lon="-107.02972644255334"><ele>2139.0</ele><time>2026-05-03T17:37:14Z</time></trkpt><trkpt lat="36.012265769983635" lon="-107.0296875537261"><ele>2139.0</ele><time>2026-05-03T17:37:15Z</time></trkpt><trkpt lat="36.01213119585639" lon="-107.02963527118486"><ele>2139.0</ele><time>2026-05-03T17:37:16Z</time></trkpt><trkpt lat="36.01200832230339" lon="-107.02961881525779"><ele>2139.0</ele><time>2026-05-03T17:37:17Z</time></trkpt><trkpt lat="36.01188913326491" lon="-107.02960279123475"><ele>2139.0</ele><time>2026-05-03T17:37:18Z</time></trkpt><trkpt lat="36.011768938144044" lon="-107.02960921901101"><ele>2138.8</ele><time>2026-05-03T17:37:19Z</time></trkpt><trkpt lat="36.011655980497395" lon="-107.02962699560513"><ele>2138.6000000000004</ele><time>2026-05-03T17:37:20Z</time></trkpt><trkpt lat="36.011551714969585" lon="-107.02965055628229"><ele>2138.4</ele><time>2026-05-03T17:37:21Z</time></trkpt><trkpt lat="36.01145743677284" lon="-107.02968689744984"><ele>2138.2000000000003</ele><time>2026-05-03T17:37:22Z</time></trkpt><trkpt lat="36.01135915582331" lon="-107.02974133698612"><ele>2138.0</ele><time>2026-05-03T17:37:23Z</time></trkpt><trkpt lat="36.0112456661648" lon="-107.02983195351275"><ele>2138.0</ele><time>2026-05-03T17:37:24Z</time></trkpt><trkpt lat="36.0111280770579" lon="-107.02992508946419"><ele>2138.0</ele><time>2026-05-03T17:37:25Z</time></trkpt><trkpt lat="36.01101414176645" lon="-107.03004419983353"><ele>2138.0</ele><time>2026-05-03T17:37:26Z</time></trkpt><trkpt lat="36.010917571850975" lon="-107.03014643359168"><ele>2138.0</ele><time>2026-05-03T17:37:27Z</time></trkpt><trkpt lat="36.010840355262054" lon="-107.03024931529697"><ele>2137.5</ele><time>2026-05-03T17:37:28Z</time></trkpt><trkpt lat="36.0107721641364" lon="-107.03036166276732"><ele>2137.0</ele><time>2026-05-03T17:37:29Z</time></trkpt><trkpt lat="36.01071338031292" lon="-107.03050173527319"><ele>2136.5</ele><time>2026-05-03T17:37:30Z</time></trkpt><trkpt lat="36.01065886963835" lon="-107.03066254543614"><ele>2136.0</ele><time>2026-05-03T17:37:31Z</time></trkpt><trkpt lat="36.0106120407703" lon="-107.03083911913768"><ele>2135.25</ele><time>2026-05-03T17:37:32Z</time></trkpt><trkpt lat="36.01056925554623" lon="-107.03102020153457"><ele>2134.5</ele><time>2026-05-03T17:37:33Z</time></trkpt><trkpt lat="36.01052775496018" lon="-107.03120854194398"><ele>2133.75</ele><time>2026-05-03T17:37:34Z</time></trkpt><trkpt lat="36.01048560913695" lon="-107.0313494044755"><ele>2133.0</ele><time>2026-05-03T17:37:35Z</time></trkpt><trkpt lat="36.010427874257466" lon="-107.03147621223617"><ele>2133.0</ele><time>2026-05-03T17:37:36Z</time></trkpt><trkpt lat="36.01035273119606" lon="-107.03159292242837"><ele>2133.0</ele><time>2026-05-03T17:37:37Z</time></trkpt><trkpt lat="36.010278389723894" lon="-107.03168720273779"><ele>2133.0</ele><time>2026-05-03T17:37:38Z</time></trkpt><trkpt lat="36.01020328855718" lon="-107.03175199328341"><ele>2133.0</ele><time>2026-05-03T17:37:39Z</time></trkpt><trkpt lat="36.01011764503181" lon="-107.03179443305363"><ele>2133.0</ele><time>2026-05-03T17:37:40Z</time></trkpt><trkpt lat="36.01001969494867" lon="-107.03179819997558"><ele>2132.6666666666665</ele><time>2026-05-03T17:37:41Z</time></trkpt><trkpt lat="36.00991099732799" lon="-107.03177928190975"><ele>2132.3333333333335</ele><time>2026-05-03T17:37:42.001Z</time></trkpt><trkpt lat="36.00982408368658" lon="-107.03174113949537"><ele>2132.0</ele><time>2026-05-03T17:37:43.001Z</time></trkpt><trkpt lat="36.00975021085004" lon="-107.03170914044858"><ele>2131.666666666667</ele><time>2026-05-03T17:37:44.001Z</time></trkpt><trkpt lat="36.00967511393611" lon="-107.03172394476888"><ele>2131.3333333333335</ele><time>2026-05-03T17:37:45.001Z</time></trkpt><trkpt lat="36.00959338214632" lon="-107.03174030743911"><ele>2131.0</ele><time>2026-05-03T17:37:46.001Z</time></trkpt><trkpt lat="36.009523658726835" lon="-107.0317680767112"><ele>2131.0</ele><time>2026-05-03T17:37:47.001Z</time></trkpt><trkpt lat="36.009480993100404" lon="-107.03188708829826"><ele>2131.0</ele><time>2026-05-03T17:37:49.001Z</time></trkpt><trkpt lat="36.00945113460496" lon="-107.03197916261792"><ele>2131.0</ele><time>2026-05-03T17:37:50.001Z</time></trkpt><trkpt lat="36.009418380798934" lon="-107.03210982209674"><ele>2131.0</ele><time>2026-05-03T17:37:51.001Z</time></trkpt><trkpt lat="36.009405474884126" lon="-107.03223766744858"><ele>2131.0</ele><time>2026-05-03T17:37:52.001Z</time></trkpt><trkpt lat="36.00939868297759" lon="-107.03238097426515"><ele>2130.75</ele><time>2026-05-03T17:37:53.001Z</time></trkpt><trkpt lat="36.00938261852446" lon="-107.03249673416379"><ele>2130.5</ele><time>2026-05-03T17:37:54.001Z</time></trkpt><trkpt lat="36.009343190885915" lon="-107.03260881029077"><ele>2130.25</ele><time>2026-05-03T17:37:55.001Z</time></trkpt><trkpt lat="36.009271699640315" lon="-107.03273226434321"><ele>2130.0</ele><time>2026-05-03T17:37:56.001Z</time></trkpt><trkpt lat="36.00918704199899" lon="-107.0328659279554"><ele>2130.3333333333335</ele><time>2026-05-03T17:37:57.001Z</time></trkpt><trkpt lat="36.00910529060339" lon="-107.03300297311246"><ele>2130.666666666667</ele><time>2026-05-03T17:37:58.001Z</time></trkpt><trkpt lat="36.00900155260936" lon="-107.03314484170276"><ele>2131.0</ele><time>2026-05-03T17:37:59.001Z</time></trkpt><trkpt lat="36.008889523742106" lon="-107.03329624196296"><ele>2130.666666666667</ele><time>2026-05-03T17:38:00.001Z</time></trkpt><trkpt lat="36.00877753106848" lon="-107.03346305047958"><ele>2130.3333333333335</ele><time>2026-05-03T17:38:01.001Z</time></trkpt><trkpt lat="36.00866366470721" lon="-107.0336364416706"><ele>2130.0</ele><time>2026-05-03T17:38:02.001Z</time></trkpt><trkpt lat="36.008554059941154" lon="-107.03380767856027"><ele>2130.0</ele><time>2026-05-03T17:38:03.001Z</time></trkpt><trkpt lat="36.00846894622525" lon="-107.03396663932848"><ele>2130.0</ele><time>2026-05-03T17:38:04.001Z</time></trkpt><trkpt lat="36.008391630926376" lon="-107.03411437498835"><ele>2130.0</ele><time>2026-05-03T17:38:05.001Z</time></trkpt><trkpt lat="36.00832149471841" lon="-107.03427223333368"><ele>2130.0</ele><time>2026-05-03T17:38:06.001Z</time></trkpt><trkpt lat="36.008258671954536" lon="-107.0344432226098"><ele>2129.25</ele><time>2026-05-03T17:38:07.001Z</time></trkpt><trkpt lat="36.00820674385566" lon="-107.03459675791797"><ele>2128.5</ele><time>2026-05-03T17:38:08.001Z</time></trkpt><trkpt lat="36.008157339544475" lon="-107.03473625165906"><ele>2127.75</ele><time>2026-05-03T17:38:09.001Z</time></trkpt><trkpt lat="36.00810537851294" lon="-107.03486693198249"><ele>2127.0</ele><time>2026-05-03T17:38:10.001Z</time></trkpt><trkpt lat="36.008047801431935" lon="-107.0349750503411"><ele>2127.0</ele><time>2026-05-03T17:38:11.001Z</time></trkpt><trkpt lat="36.007969334067376" lon="-107.03506725173587"><ele>2127.0</ele><time>2026-05-03T17:38:12.001Z</time></trkpt><trkpt lat="36.007871211273724" lon="-107.035145859801"><ele>2127.0</ele><time>2026-05-03T17:38:13.001Z</time></trkpt><trkpt lat="36.0077739374688" lon="-107.03520523736037"><ele>2127.0</ele><time>2026-05-03T17:38:14.001Z</time></trkpt><trkpt lat="36.007672867424304" lon="-107.03524647912738"><ele>2127.0</ele><time>2026-05-03T17:38:15.001Z</time></trkpt><trkpt lat="36.00756537299724" lon="-107.03527384192519"><ele>2127.0</ele><time>2026-05-03T17:38:16.001Z</time></trkpt><trkpt lat="36.007481485806494" lon="-107.03531621604982"><ele>2127.0</ele><time>2026-05-03T17:38:17.001Z</time></trkpt><trkpt lat="36.007410070339496" lon="-107.03536985058477"><ele>2127.0</ele><time>2026-05-03T17:38:18.001Z</time></trkpt><trkpt lat="36.007356740685545" lon="-107.03543318145421"><ele>2127.0</ele><time>2026-05-03T17:38:19.001Z</time></trkpt><trkpt lat="36.00731773834212" lon="-107.03553481963432"><ele>2127.0</ele><time>2026-05-03T17:38:20.001Z</time></trkpt><trkpt lat="36.007296272105094" lon="-107.03566086736755"><ele>2127.0</ele><time>2026-05-03T17:38:21.001Z</time></trkpt><trkpt lat="36.00727731862824" lon="-107.03580102095856"><ele>2126.5</ele><time>2026-05-03T17:38:22.001Z</time></trkpt><trkpt lat="36.00726721710484" lon="-107.0359515702711"><ele>2126.0</ele><time>2026-05-03T17:38:23.001Z</time></trkpt><trkpt lat="36.007273614591895" lon="-107.03612151060932"><ele>2125.5</ele><time>2026-05-03T17:38:24.001Z</time></trkpt><trkpt lat="36.00729241450363" lon="-107.03631069727744"><ele>2125.0</ele><time>2026-05-03T17:38:25.001Z</time></trkpt><trkpt lat="36.00729782450493" lon="-107.0364867854115"><ele>2125.0</ele><time>2026-05-03T17:38:26.001Z</time></trkpt><trkpt lat="36.007294269914524" lon="-107.03659434438849"><ele>2125.0</ele><time>2026-05-03T17:38:27.001Z</time></trkpt><trkpt lat="36.00728817325753" lon="-107.0366823676741"><ele>2125.0</ele><time>2026-05-03T17:38:28Z</time></trkpt><trkpt lat="36.0072536613883" lon="-107.03677263419648"><ele>2125.0</ele><time>2026-05-03T17:38:30Z</time></trkpt><trkpt lat="36.007203071290824" lon="-107.03682266760596"><ele>2125.0</ele><time>2026-05-03T17:38:31Z</time></trkpt><trkpt lat="36.00712894410332" lon="-107.03686824975237"><ele>2125.0</ele><time>2026-05-03T17:38:32Z</time></trkpt><trkpt lat="36.00702816399199" lon="-107.03689530098468"><ele>2124.6</ele><time>2026-05-03T17:38:33Z</time></trkpt><trkpt lat="36.00688249736513" lon="-107.03689533539445"><ele>2124.2</ele><time>2026-05-03T17:38:34Z</time></trkpt><trkpt lat="36.006771616777286" lon="-107.03691269515137"><ele>2123.8</ele><time>2026-05-03T17:38:35Z</time></trkpt><trkpt lat="36.00669403025613" lon="-107.03690018510207"><ele>2123.4</ele><time>2026-05-03T17:38:36Z</time></trkpt><trkpt lat="36.00662855033199" lon="-107.03686032313416"><ele>2123.0</ele><time>2026-05-03T17:38:37Z</time></trkpt><trkpt lat="36.0065691803365" lon="-107.03681517706235"><ele>2122.8</ele><time>2026-05-03T17:38:38Z</time></trkpt><trkpt lat="36.00653091399646" lon="-107.03666669471822"><ele>2122.6000000000004</ele><time>2026-05-03T17:38:40Z</time></trkpt><trkpt lat="36.00654607205727" lon="-107.03656842743837"><ele>2122.3999999999996</ele><time>2026-05-03T17:38:41Z</time></trkpt><trkpt lat="36.00657070378199" lon="-107.03645583062658"><ele>2122.2</ele><time>2026-05-03T17:38:42Z</time></trkpt><trkpt lat="36.006583427405616" lon="-107.036318368936"><ele>2122.0</ele><time>2026-05-03T17:38:43Z</time></trkpt><trkpt lat="36.00660164933361" lon="-107.03619521239823"><ele>2122.4</ele><time>2026-05-03T17:38:44Z</time></trkpt><trkpt lat="36.00660351522864" lon="-107.03610801891469"><ele>2122.7999999999997</ele><time>2026-05-03T17:38:45Z</time></trkpt><trkpt lat="36.00657631934542" lon="-107.03598236869648"><ele>2123.2</ele><time>2026-05-03T17:38:47Z</time></trkpt><trkpt lat="36.00647402987777" lon="-107.03589694802604"><ele>2123.6</ele><time>2026-05-03T17:38:49Z</time></trkpt><trkpt lat="36.006380836301325" lon="-107.03587627625488"><ele>2124.0</ele><time>2026-05-03T17:38:51Z</time></trkpt><trkpt lat="36.00636768449697" lon="-107.03597752023911"><ele>2124.0</ele><time>2026-05-03T17:38:53Z</time></trkpt><trkpt lat="36.00634266813241" lon="-107.03613584800385"><ele>2124.0</ele><time>2026-05-03T17:38:55Z</time></trkpt><trkpt lat="36.006247335703925" lon="-107.03623187531015"><ele>2124.0</ele><time>2026-05-03T17:38:57Z</time></trkpt><trkpt lat="36.00618806206005" lon="-107.03631591552035"><ele>2124.0</ele><time>2026-05-03T17:38:58Z</time></trkpt><trkpt lat="36.006117000163094" lon="-107.03640260824581"><ele>2124.0</ele><time>2026-05-03T17:38:59Z</time></trkpt><trkpt lat="36.00603287349817" lon="-107.03649701607928"><ele>2124.0</ele><time>2026-05-03T17:39:00Z</time></trkpt><trkpt lat="36.005945035882355" lon="-107.03658496242265"><ele>2124.0</ele><time>2026-05-03T17:39:01Z</time></trkpt><trkpt lat="36.00587162869997" lon="-107.0366694649284"><ele>2124.0</ele><time>2026-05-03T17:39:02Z</time></trkpt><trkpt lat="36.0058114048981" lon="-107.03676882532986"><ele>2124.0</ele><time>2026-05-03T17:39:03Z</time></trkpt><trkpt lat="36.0057421485013" lon="-107.0368933153188"><ele>2124.0</ele><time>2026-05-03T17:39:04Z</time></trkpt><trkpt lat="36.00566858525838" lon="-107.03701828141851"><ele>2123.4</ele><time>2026-05-03T17:39:05Z</time></trkpt><trkpt lat="36.00559808702798" lon="-107.03713005983379"><ele>2122.8</ele><time>2026-05-03T17:39:06Z</time></trkpt><trkpt lat="36.00554130267554" lon="-107.03722127010938"><ele>2122.2</ele><time>2026-05-03T17:39:07Z</time></trkpt><trkpt lat="36.005503102787" lon="-107.03734871706483"><ele>2121.6</ele><time>2026-05-03T17:39:09Z</time></trkpt><trkpt lat="36.0055353821373" lon="-107.03745757508536"><ele>2121.0</ele><time>2026-05-03T17:39:11Z</time></trkpt><trkpt lat="36.005688201509685" lon="-107.03749191044797"><ele>2121.0</ele><time>2026-05-03T17:39:13Z</time></trkpt><trkpt lat="36.005800970040184" lon="-107.03755860585844"><ele>2121.0</ele><time>2026-05-03T17:39:15Z</time></trkpt><trkpt lat="36.00583273201344" lon="-107.03762676380131"><ele>2121.0</ele><time>2026-05-03T17:39:16Z</time></trkpt><trkpt lat="36.00583801420675" lon="-107.03773602012119"><ele>2121.0</ele><time>2026-05-03T17:39:17Z</time></trkpt><trkpt lat="36.005823167333546" lon="-107.03787498043114"><ele>2121.0</ele><time>2026-05-03T17:39:18Z</time></trkpt><trkpt lat="36.005772513744645" lon="-107.03801445248246"><ele>2121.0</ele><time>2026-05-03T17:39:19Z</time></trkpt><trkpt lat="36.00570273467129" lon="-107.0381604367534"><ele>2121.0</ele><time>2026-05-03T17:39:20Z</time></trkpt><trkpt lat="36.00563517412182" lon="-107.03832297618565"><ele>2121.0</ele><time>2026-05-03T17:39:21Z</time></trkpt><trkpt lat="36.00556080767238" lon="-107.03848968496746"><ele>2121.0</ele><time>2026-05-03T17:39:22Z</time></trkpt><trkpt lat="36.00547027287746" lon="-107.03864325379239"><ele>2120.3333333333335</ele><time>2026-05-03T17:39:23Z</time></trkpt><trkpt lat="36.00536804239445" lon="-107.03880100549361"><ele>2119.666666666667</ele><time>2026-05-03T17:39:24Z</time></trkpt><trkpt lat="36.00523922889429" lon="-107.0389459652572"><ele>2119.0</ele><time>2026-05-03T17:39:25Z</time></trkpt><trkpt lat="36.00510634809637" lon="-107.03908201427126"><ele>2118.0</ele><time>2026-05-03T17:39:26Z</time></trkpt><trkpt lat="36.004967005004346" lon="-107.03921928915625"><ele>2117.0</ele><time>2026-05-03T17:39:27Z</time></trkpt><trkpt lat="36.004816024409664" lon="-107.03934474600347"><ele>2116.0</ele><time>2026-05-03T17:39:28Z</time></trkpt><trkpt lat="36.00464874472299" lon="-107.03946236310443"><ele>2116.0</ele><time>2026-05-03T17:39:29Z</time></trkpt><trkpt lat="36.0044713295959" lon="-107.03957243721116"><ele>2116.0</ele><time>2026-05-03T17:39:30Z</time></trkpt><trkpt lat="36.00428703181594" lon="-107.03968630479136"><ele>2116.0</ele><time>2026-05-03T17:39:31Z</time></trkpt><trkpt lat="36.00410266721192" lon="-107.03979096797003"><ele>2116.0</ele><time>2026-05-03T17:39:32Z</time></trkpt><trkpt lat="36.00391485299824" lon="-107.03989318296844"><ele>2116.0</ele><time>2026-05-03T17:39:33Z</time></trkpt><trkpt lat="36.00375496679241" lon="-107.03997875081046"><ele>2116.0</ele><time>2026-05-03T17:39:34Z</time></trkpt><trkpt lat="36.003602073228095" lon="-107.0400655087958"><ele>2116.0</ele><time>2026-05-03T17:39:35Z</time></trkpt><trkpt lat="36.00347241597362" lon="-107.04014802335905"><ele>2116.0</ele><time>2026-05-03T17:39:36Z</time></trkpt><trkpt lat="36.00335277865967" lon="-107.04023335477312"><ele>2116.0</ele><time>2026-05-03T17:39:37Z</time></trkpt><trkpt lat="36.00327136566492" lon="-107.040309667909"><ele>2116.0</ele><time>2026-05-03T17:39:38Z</time></trkpt><trkpt lat="36.003213215261525" lon="-107.04038720537277"><ele>2115.75</ele><time>2026-05-03T17:39:39Z</time></trkpt><trkpt lat="36.00314688769232" lon="-107.04048368232434"><ele>2115.5</ele><time>2026-05-03T17:39:40Z</time></trkpt><trkpt lat="36.00307682995898" lon="-107.04058783712209"><ele>2115.25</ele><time>2026-05-03T17:39:41Z</time></trkpt><trkpt lat="36.003004610242705" lon="-107.04070790203518"><ele>2115.0</ele><time>2026-05-03T17:39:42Z</time></trkpt><trkpt lat="36.00293579757963" lon="-107.04084045113238"><ele>2114.75</ele><time>2026-05-03T17:39:43Z</time></trkpt><trkpt lat="36.00287947582268" lon="-107.04098637672979"><ele>2114.5</ele><time>2026-05-03T17:39:44Z</time></trkpt><trkpt lat="36.00281921730334" lon="-107.04114377404866"><ele>2114.25</ele><time>2026-05-03T17:39:45Z</time></trkpt><trkpt lat="36.00275623604874" lon="-107.04132629525276"><ele>2114.0</ele><time>2026-05-03T17:39:46Z</time></trkpt><trkpt lat="36.00269561635671" lon="-107.04149174669801"><ele>2114.0</ele><time>2026-05-03T17:39:47Z</time></trkpt><trkpt lat="36.002651254571376" lon="-107.04161368226924"><ele>2114.0</ele><time>2026-05-03T17:39:48.001Z</time></trkpt><trkpt lat="36.002604473863556" lon="-107.04172308019567"><ele>2114.0</ele><time>2026-05-03T17:39:49.001Z</time></trkpt><trkpt lat="36.00254326786107" lon="-107.04180596459425"><ele>2114.0</ele><time>2026-05-03T17:39:50.001Z</time></trkpt><trkpt lat="36.00248848807057" lon="-107.0418785493782"><ele>2114.0</ele><time>2026-05-03T17:39:51.001Z</time></trkpt><trkpt lat="36.00242483729491" lon="-107.04195411064978"><ele>2113.8</ele><time>2026-05-03T17:39:52.001Z</time></trkpt><trkpt lat="36.00236482009475" lon="-107.04205153404658"><ele>2113.6000000000004</ele><time>2026-05-03T17:39:53.001Z</time></trkpt><trkpt lat="36.00231053096293" lon="-107.0421308612346"><ele>2113.4</ele><time>2026-05-03T17:39:54.001Z</time></trkpt><trkpt lat="36.00226082123748" lon="-107.04227947458052"><ele>2113.2000000000003</ele><time>2026-05-03T17:39:56.001Z</time></trkpt><trkpt lat="36.002276415782816" lon="-107.04236868088495"><ele>2113.0</ele><time>2026-05-03T17:39:57.001Z</time></trkpt><trkpt lat="36.0023230334358" lon="-107.04246487393209"><ele>2113.0</ele><time>2026-05-03T17:39:58.001Z</time></trkpt><trkpt lat="36.00234621005535" lon="-107.04256267813103"><ele>2113.0</ele><time>2026-05-03T17:39:59.001Z</time></trkpt><trkpt lat="36.00237179540417" lon="-107.04268672872308"><ele>2113.0</ele><time>2026-05-03T17:40:00.001Z</time></trkpt><trkpt lat="36.00241528544905" lon="-107.04283572050245"><ele>2113.0</ele><time>2026-05-03T17:40:01.001Z</time></trkpt><trkpt lat="36.0024686407155" lon="-107.04297837269024"><ele>2113.0</ele><time>2026-05-03T17:40:02.001Z</time></trkpt><trkpt lat="36.00250717396216" lon="-107.04307224089814"><ele>2113.0</ele><time>2026-05-03T17:40:03.001Z</time></trkpt><trkpt lat="36.00251717107235" lon="-107.04320525858124"><ele>2113.0</ele><time>2026-05-03T17:40:05.001Z</time></trkpt><trkpt lat="36.00246828957588" lon="-107.04328058025602"><ele>2113.0</ele><time>2026-05-03T17:40:06.001Z</time></trkpt><trkpt lat="36.002378869977726" lon="-107.04334318377612"><ele>2113.0</ele><time>2026-05-03T17:40:07.001Z</time></trkpt><trkpt lat="36.0022671009587" lon="-107.0433903156788"><ele>2113.0</ele><time>2026-05-03T17:40:08.001Z</time></trkpt><trkpt lat="36.002209028784435" lon="-107.04345078005596"><ele>2112.666666666667</ele><time>2026-05-03T17:40:09.001Z</time></trkpt><trkpt lat="36.00228268965747" lon="-107.04344773048894"><ele>2112.3333333333335</ele><time>2026-05-03T17:40:11.001Z</time></trkpt><trkpt lat="36.00219862986255" lon="-107.04347193157452"><ele>2112.0</ele><time>2026-05-03T17:40:21.001Z</time></trkpt><trkpt lat="36.00214767114104" lon="-107.04352600603254"><ele>2111.6666666666665</ele><time>2026-05-03T17:40:22.001Z</time></trkpt><trkpt lat="36.00210084294362" lon="-107.04365463632053"><ele>2111.333333333333</ele><time>2026-05-03T17:40:24.001Z</time></trkpt><trkpt lat="36.00208505676285" lon="-107.04373521974708"><ele>2111.0</ele><time>2026-05-03T17:40:25.001Z</time></trkpt><trkpt lat="36.0020730899244" lon="-107.0438417782709"><ele>2111.0</ele><time>2026-05-03T17:40:26.001Z</time></trkpt><trkpt lat="36.00207442798845" lon="-107.04395869401228"><ele>2111.0</ele><time>2026-05-03T17:40:27.001Z</time></trkpt><trkpt lat="36.00206523163725" lon="-107.04410189317973"><ele>2111.0</ele><time>2026-05-03T17:40:28.001Z</time></trkpt><trkpt lat="36.00205150410502" lon="-107.04425908833001"><ele>2111.0</ele><time>2026-05-03T17:40:29.001Z</time></trkpt><trkpt lat="36.00204000781455" lon="-107.04442883467672"><ele>2110.5</ele><time>2026-05-03T17:40:30.001Z</time></trkpt><trkpt lat="36.00202701709298" lon="-107.04461915227795"><ele>2110.0</ele><time>2026-05-03T17:40:31.001Z</time></trkpt><trkpt lat="36.00201098509932" lon="-107.04480255033816"><ele>2109.5</ele><time>2026-05-03T17:40:32.001Z</time></trkpt><trkpt lat="36.00199678538105" lon="-107.04494553177142"><ele>2109.0</ele><time>2026-05-03T17:40:33.001Z</time></trkpt><trkpt lat="36.001976792571554" lon="-107.04508545713404"><ele>2109.0</ele><time>2026-05-03T17:40:34Z</time></trkpt><trkpt lat="36.00195435041891" lon="-107.04520444095232"><ele>2109.0</ele><time>2026-05-03T17:40:35Z</time></trkpt><trkpt lat="36.00192246910102" lon="-107.04531624851938"><ele>2109.0</ele><time>2026-05-03T17:40:36Z</time></trkpt><trkpt lat="36.00186918799085" lon="-107.04543409398364"><ele>2109.0</ele><time>2026-05-03T17:40:37Z</time></trkpt><trkpt lat="36.00180525382642" lon="-107.04556603755292"><ele>2109.0</ele><time>2026-05-03T17:40:38Z</time></trkpt><trkpt lat="36.00173969177485" lon="-107.04572287717484"><ele>2108.8</ele><time>2026-05-03T17:40:39Z</time></trkpt><trkpt lat="36.001695630930776" lon="-107.0458705188276"><ele>2108.6000000000004</ele><time>2026-05-03T17:40:40Z</time></trkpt><trkpt lat="36.00166648426747" lon="-107.04598848665748"><ele>2108.4</ele><time>2026-05-03T17:40:41Z</time></trkpt><trkpt lat="36.00166000103314" lon="-107.04608594978238"><ele>2108.2000000000003</ele><time>2026-05-03T17:40:42Z</time></trkpt><trkpt lat="36.00166623336305" lon="-107.04616825087109"><ele>2108.0</ele><time>2026-05-03T17:40:43Z</time></trkpt><trkpt lat="36.0017472500282" lon="-107.04630143145482"><ele>2108.0</ele><time>2026-05-03T17:40:45Z</time></trkpt><trkpt lat="36.00181083428827" lon="-107.04637945833319"><ele>2108.0</ele><time>2026-05-03T17:40:46Z</time></trkpt><trkpt lat="36.0018449999335" lon="-107.04645169956056"><ele>2108.0</ele><time>2026-05-03T17:40:47Z</time></trkpt><trkpt lat="36.001859384060154" lon="-107.04653361722886"><ele>2108.0</ele><time>2026-05-03T17:40:48Z</time></trkpt><trkpt lat="36.001852622566304" lon="-107.04662566816727"><ele>2108.0</ele><time>2026-05-03T17:40:49Z</time></trkpt><trkpt lat="36.001818325800954" lon="-107.0467300155838"><ele>2108.0</ele><time>2026-05-03T17:40:50Z</time></trkpt><trkpt lat="36.00178476410199" lon="-107.04682482257698"><ele>2107.6</ele><time>2026-05-03T17:40:51Z</time></trkpt><trkpt lat="36.00173269289236" lon="-107.04690355467744"><ele>2107.2000000000003</ele><time>2026-05-03T17:40:52Z</time></trkpt><trkpt lat="36.00164770493687" lon="-107.04701017901533"><ele>2106.8</ele><time>2026-05-03T17:40:53Z</time></trkpt><trkpt lat="36.00156986112389" lon="-107.04710151757398"><ele>2106.4</ele><time>2026-05-03T17:40:54Z</time></trkpt><trkpt lat="36.001498538529546" lon="-107.0471709992878"><ele>2106.0</ele><time>2026-05-03T17:40:55Z</time></trkpt><trkpt lat="36.00142127450099" lon="-107.04723131691416"><ele>2105.5</ele><time>2026-05-03T17:40:56Z</time></trkpt><trkpt lat="36.001329217121956" lon="-107.0472866183179"><ele>2105.0</ele><time>2026-05-03T17:40:57Z</time></trkpt><trkpt lat="36.00121992388035" lon="-107.0473173848004"><ele>2104.5</ele><time>2026-05-03T17:40:58Z</time></trkpt><trkpt lat="36.00108798109794" lon="-107.04733617156084"><ele>2104.0</ele><time>2026-05-03T17:40:59Z</time></trkpt><trkpt lat="36.000945396302704" lon="-107.04737930130884"><ele>2103.666666666667</ele><time>2026-05-03T17:41:00Z</time></trkpt><trkpt lat="36.00082244094114" lon="-107.04747348710207"><ele>2103.3333333333335</ele><time>2026-05-03T17:41:01Z</time></trkpt><trkpt lat="36.000687524287294" lon="-107.04757387957903"><ele>2103.0</ele><time>2026-05-03T17:41:02Z</time></trkpt><trkpt lat="36.00055385497107" lon="-107.04767027862825"><ele>2103.0</ele><time>2026-05-03T17:41:03Z</time></trkpt><trkpt lat="36.00041623559164" lon="-107.04776196727909"><ele>2103.0</ele><time>2026-05-03T17:41:04Z</time></trkpt><trkpt lat="36.00027510401341" lon="-107.04785463103516"><ele>2103.0</ele><time>2026-05-03T17:41:05Z</time></trkpt><trkpt lat="36.0001404067852" lon="-107.04794300614766"><ele>2103.0</ele><time>2026-05-03T17:41:06Z</time></trkpt><trkpt lat="36.00002978063446" lon="-107.04801424251855"><ele>2103.0</ele><time>2026-05-03T17:41:07Z</time></trkpt><trkpt lat="35.999935558962626" lon="-107.04806872086161"><ele>2103.0</ele><time>2026-05-03T17:41:08Z</time></trkpt><trkpt lat="35.99984811286089" lon="-107.04810686217797"><ele>2103.0</ele><time>2026-05-03T17:41:09Z</time></trkpt><trkpt lat="35.999750241348224" lon="-107.04813086613659"><ele>2103.0</ele><time>2026-05-03T17:41:10Z</time></trkpt><trkpt lat="35.99960836353469" lon="-107.04812208550914"><ele>2103.0</ele><time>2026-05-03T17:41:11Z</time></trkpt><trkpt lat="35.99944433582992" lon="-107.04808853779777"><ele>2103.0</ele><time>2026-05-03T17:41:12Z</time></trkpt><trkpt lat="35.99928514766952" lon="-107.04807958833062"><ele>2103.0</ele><time>2026-05-03T17:41:13Z</time></trkpt><trkpt lat="35.99912247421126" lon="-107.04808704328677"><ele>2103.3333333333335</ele><time>2026-05-03T17:41:14Z</time></trkpt><trkpt lat="35.998952512583486" lon="-107.04810684774718"><ele>2103.666666666667</ele><time>2026-05-03T17:41:15Z</time></trkpt><trkpt lat="35.998788610439796" lon="-107.04813778180323"><ele>2104.0</ele><time>2026-05-03T17:41:16Z</time></trkpt><trkpt lat="35.99861866140414" lon="-107.04817320768886"><ele>2104.0</ele><time>2026-05-03T17:41:17Z</time></trkpt><trkpt lat="35.9984468617728" lon="-107.0482094582698"><ele>2104.0</ele><time>2026-05-03T17:41:18Z</time></trkpt><trkpt lat="35.99827864982953" lon="-107.0482400972154"><ele>2104.0</ele><time>2026-05-03T17:41:19Z</time></trkpt><trkpt lat="35.998122613137525" lon="-107.04827257238647"><ele>2103.5</ele><time>2026-05-03T17:41:20Z</time></trkpt><trkpt lat="35.99797977293526" lon="-107.04830105446379"><ele>2103.0</ele><time>2026-05-03T17:41:21Z</time></trkpt><trkpt lat="35.99783586318655" lon="-107.04833235026646"><ele>2102.5</ele><time>2026-05-03T17:41:22Z</time></trkpt><trkpt lat="35.99770381849073" lon="-107.04835840618568"><ele>2102.0</ele><time>2026-05-03T17:41:23Z</time></trkpt><trkpt lat="35.997587925963565" lon="-107.04836263395563"><ele>2101.5</ele><time>2026-05-03T17:41:24Z</time></trkpt><trkpt lat="35.99747233556495" lon="-107.04835830717923"><ele>2101.0</ele><time>2026-05-03T17:41:25Z</time></trkpt><trkpt lat="35.99735328427576" lon="-107.04835650629148"><ele>2100.5</ele><time>2026-05-03T17:41:26Z</time></trkpt><trkpt lat="35.997231066751155" lon="-107.04833686976194"><ele>2100.0</ele><time>2026-05-03T17:41:27Z</time></trkpt><trkpt lat="35.99711436028924" lon="-107.04829646666751"><ele>2100.4</ele><time>2026-05-03T17:41:28Z</time></trkpt><trkpt lat="35.99700523111175" lon="-107.04823574421184"><ele>2100.8</ele><time>2026-05-03T17:41:29Z</time></trkpt><trkpt lat="35.99690461741217" lon="-107.04817085591505"><ele>2101.2</ele><time>2026-05-03T17:41:30Z</time></trkpt><trkpt lat="35.99681977191135" lon="-107.04809719524508"><ele>2101.6</ele><time>2026-05-03T17:41:31Z</time></trkpt><trkpt lat="35.996751109140064" lon="-107.04802068484727"><ele>2102.0</ele><time>2026-05-03T17:41:32Z</time></trkpt><trkpt lat="35.996705389154194" lon="-107.04794202310993"><ele>2102.0</ele><time>2026-05-03T17:41:33Z</time></trkpt><trkpt lat="35.99669329241679" lon="-107.04779727118327"><ele>2102.0</ele><time>2026-05-03T17:41:35Z</time></trkpt><trkpt lat="35.99678360547006" lon="-107.04770223026374"><ele>2102.0</ele><time>2026-05-03T17:41:37Z</time></trkpt><trkpt lat="35.99683691162809" lon="-107.0476593759525"><ele>2102.0</ele><time>2026-05-03T17:41:38Z</time></trkpt><trkpt lat="35.996831020970966" lon="-107.04757130015007"><ele>2102.0</ele><time>2026-05-03T17:41:40Z</time></trkpt><trkpt lat="35.99678282949307" lon="-107.04749698510825"><ele>2102.0</ele><time>2026-05-03T17:41:44Z</time></trkpt><trkpt lat="35.99671037002931" lon="-107.04739697952496"><ele>2103.0</ele><time>2026-05-03T17:41:47Z</time></trkpt><trkpt lat="35.996652107269355" lon="-107.04736737499488"><ele>2104.0</ele><time>2026-05-03T17:41:48Z</time></trkpt><trkpt lat="35.99657683882821" lon="-107.04732375405563"><ele>2105.0</ele><time>2026-05-03T17:41:49Z</time></trkpt><trkpt lat="35.9964806740309" lon="-107.04727885093631"><ele>2106.0</ele><time>2026-05-03T17:41:50Z</time></trkpt><trkpt lat="35.996379085987" lon="-107.04723851307078"><ele>2107.0</ele><time>2026-05-03T17:41:51Z</time></trkpt><trkpt lat="35.99627177665536" lon="-107.04719405208945"><ele>2107.0</ele><time>2026-05-03T17:41:52Z</time></trkpt><trkpt lat="35.99613602447717" lon="-107.04712212119853"><ele>2107.0</ele><time>2026-05-03T17:41:53Z</time></trkpt><trkpt lat="35.99599495664817" lon="-107.04705474357986"><ele>2107.0</ele><time>2026-05-03T17:41:54Z</time></trkpt><trkpt lat="35.99585154913718" lon="-107.04700653831367"><ele>2107.0</ele><time>2026-05-03T17:41:55Z</time></trkpt><trkpt lat="35.995747092690664" lon="-107.04698459097732"><ele>2106.6</ele><time>2026-05-03T17:41:56.001Z</time></trkpt><trkpt lat="35.99565274236045" lon="-107.04697294831867"><ele>2106.2</ele><time>2026-05-03T17:41:57.001Z</time></trkpt><trkpt lat="35.99558017531594" lon="-107.04696284017984"><ele>2105.8</ele><time>2026-05-03T17:41:58.001Z</time></trkpt><trkpt lat="35.99549095067672" lon="-107.04698405434078"><ele>2105.4</ele><time>2026-05-03T17:42:00.001Z</time></trkpt><trkpt lat="35.995458640524205" lon="-107.04716410046045"><ele>2105.0</ele><time>2026-05-03T17:42:02.001Z</time></trkpt><trkpt lat="35.99544579277681" lon="-107.04729468078332"><ele>2105.0</ele><time>2026-05-03T17:42:03.001Z</time></trkpt><trkpt lat="35.99541001997658" lon="-107.04742257064187"><ele>2105.0</ele><time>2026-05-03T17:42:04.001Z</time></trkpt><trkpt lat="35.99537042048682" lon="-107.04756392893015"><ele>2105.0</ele><time>2026-05-03T17:42:05.001Z</time></trkpt><trkpt lat="35.99534903919215" lon="-107.04770448921472"><ele>2105.0</ele><time>2026-05-03T17:42:06.001Z</time></trkpt><trkpt lat="35.995331468962746" lon="-107.04785688116418"><ele>2104.1666666666665</ele><time>2026-05-03T17:42:07.001Z</time></trkpt><trkpt lat="35.99530290661552" lon="-107.04798076880273"><ele>2103.333333333333</ele><time>2026-05-03T17:42:08.001Z</time></trkpt><trkpt lat="35.995275149260905" lon="-107.0480766728135"><ele>2102.5</ele><time>2026-05-03T17:42:09.001Z</time></trkpt><trkpt lat="35.995236643007544" lon="-107.0481479468934"><ele>2101.6666666666665</ele><time>2026-05-03T17:42:10.001Z</time></trkpt><trkpt lat="35.99518317651861" lon="-107.0482029130343"><ele>2100.8333333333335</ele><time>2026-05-03T17:42:11.001Z</time></trkpt><trkpt lat="35.99512219777756" lon="-107.048243440741"><ele>2100.0</ele><time>2026-05-03T17:42:12.001Z</time></trkpt><trkpt lat="35.99504193834161" lon="-107.04829342118468"><ele>2100.0</ele><time>2026-05-03T17:42:13.001Z</time></trkpt><trkpt lat="35.99493301652496" lon="-107.048319012282"><ele>2100.0</ele><time>2026-05-03T17:42:14.001Z</time></trkpt><trkpt lat="35.994800707447325" lon="-107.0483243791527"><ele>2100.0</ele><time>2026-05-03T17:42:15.001Z</time></trkpt><trkpt lat="35.99466452515173" lon="-107.0483094363348"><ele>2100.0</ele><time>2026-05-03T17:42:16.001Z</time></trkpt><trkpt lat="35.99452556470356" lon="-107.04829733872293"><ele>2100.3333333333335</ele><time>2026-05-03T17:42:17.001Z</time></trkpt><trkpt lat="35.994373601205446" lon="-107.04827340045833"><ele>2100.666666666667</ele><time>2026-05-03T17:42:18.001Z</time></trkpt><trkpt lat="35.99421846399568" lon="-107.04823419452751"><ele>2101.0</ele><time>2026-05-03T17:42:19.001Z</time></trkpt><trkpt lat="35.99407231022479" lon="-107.04818913641894"><ele>2101.666666666667</ele><time>2026-05-03T17:42:20.001Z</time></trkpt><trkpt lat="35.99391486371909" lon="-107.04814830318537"><ele>2102.3333333333335</ele><time>2026-05-03T17:42:21.001Z</time></trkpt><trkpt lat="35.99375117356261" lon="-107.04810697612837"><ele>2103.0</ele><time>2026-05-03T17:42:22.001Z</time></trkpt><trkpt lat="35.99359009175759" lon="-107.04806425994988"><ele>2103.0</ele><time>2026-05-03T17:42:23.001Z</time></trkpt><trkpt lat="35.99344714469167" lon="-107.04802742261046"><ele>2103.0</ele><time>2026-05-03T17:42:24.001Z</time></trkpt><trkpt lat="35.993323858380606" lon="-107.04799573354009"><ele>2103.0</ele><time>2026-05-03T17:42:25.001Z</time></trkpt><trkpt lat="35.99321820372979" lon="-107.047966143968"><ele>2103.0</ele><time>2026-05-03T17:42:26.001Z</time></trkpt><trkpt lat="35.993136111886095" lon="-107.04794185686585"><ele>2103.0</ele><time>2026-05-03T17:42:27.001Z</time></trkpt><trkpt lat="35.99307068443901" lon="-107.04790949277336"><ele>2103.0</ele><time>2026-05-03T17:42:28.001Z</time></trkpt><trkpt lat="35.992973847040886" lon="-107.04783903646258"><ele>2103.0</ele><time>2026-05-03T17:42:30.001Z</time></trkpt><trkpt lat="35.99287926179739" lon="-107.04774956997"><ele>2103.0</ele><time>2026-05-03T17:42:32.001Z</time></trkpt><trkpt lat="35.9927699633572" lon="-107.0476974143522"><ele>2103.0</ele><time>2026-05-03T17:42:33.001Z</time></trkpt><trkpt lat="35.99264559800128" lon="-107.0476440857121"><ele>2103.0</ele><time>2026-05-03T17:42:34.001Z</time></trkpt><trkpt lat="35.99251827919604" lon="-107.04758365354037"><ele>2103.0</ele><time>2026-05-03T17:42:35.001Z</time></trkpt><trkpt lat="35.992406008985405" lon="-107.04755012375742"><ele>2103.0</ele><time>2026-05-03T17:42:36.001Z</time></trkpt><trkpt lat="35.992283999934635" lon="-107.04750261709584"><ele>2103.0</ele><time>2026-05-03T17:42:37.001Z</time></trkpt><trkpt lat="35.99215724573137" lon="-107.04743589330076"><ele>2103.25</ele><time>2026-05-03T17:42:38.001Z</time></trkpt><trkpt lat="35.992038013026225" lon="-107.04737350027246"><ele>2103.5</ele><time>2026-05-03T17:42:39.001Z</time></trkpt><trkpt lat="35.99192135505747" lon="-107.04731892149768"><ele>2103.75</ele><time>2026-05-03T17:42:40Z</time></trkpt><trkpt lat="35.991813617138796" lon="-107.04726103630158"><ele>2104.0</ele><time>2026-05-03T17:42:41Z</time></trkpt><trkpt lat="35.9917297390806" lon="-107.04721343023441"><ele>2103.0</ele><time>2026-05-03T17:42:42Z</time></trkpt><trkpt lat="35.99165269162104" lon="-107.04715691042911"><ele>2102.0</ele><time>2026-05-03T17:42:43Z</time></trkpt><trkpt lat="35.99157394531603" lon="-107.04707394068606"><ele>2101.0</ele><time>2026-05-03T17:42:44Z</time></trkpt><trkpt lat="35.991489717097984" lon="-107.04696820412828"><ele>2100.0</ele><time>2026-05-03T17:42:45Z</time></trkpt><trkpt lat="35.99138823709142" lon="-107.04686603650295"><ele>2099.0</ele><time>2026-05-03T17:42:46Z</time></trkpt><trkpt lat="35.991305658452966" lon="-107.04679025254438"><ele>2099.0</ele><time>2026-05-03T17:42:47Z</time></trkpt><trkpt lat="35.99122790345604" lon="-107.04671418667547"><ele>2099.0</ele><time>2026-05-03T17:42:48Z</time></trkpt><trkpt lat="35.9911420296343" lon="-107.0466295413556"><ele>2099.0</ele><time>2026-05-03T17:42:49Z</time></trkpt><trkpt lat="35.99105334752802" lon="-107.04656088163345"><ele>2099.0</ele><time>2026-05-03T17:42:50Z</time></trkpt><trkpt lat="35.990987321049275" lon="-107.04650008267413"><ele>2099.0</ele><time>2026-05-03T17:42:51Z</time></trkpt><trkpt lat="35.990934169202966" lon="-107.04640790422691"><ele>2099.25</ele><time>2026-05-03T17:42:52Z</time></trkpt><trkpt lat="35.99087551961744" lon="-107.04628487359525"><ele>2099.5</ele><time>2026-05-03T17:42:53Z</time></trkpt><trkpt lat="35.99080928358518" lon="-107.04615650178768"><ele>2099.75</ele><time>2026-05-03T17:42:54Z</time></trkpt><trkpt lat="35.99074644650631" lon="-107.04601396248538"><ele>2100.0</ele><time>2026-05-03T17:42:55Z</time></trkpt><trkpt lat="35.99067620150015" lon="-107.04587039155686"><ele>2100.0</ele><time>2026-05-03T17:42:56Z</time></trkpt><trkpt lat="35.990619300651055" lon="-107.04575312925768"><ele>2100.0</ele><time>2026-05-03T17:42:57Z</time></trkpt><trkpt lat="35.99056752894725" lon="-107.0456439649465"><ele>2100.0</ele><time>2026-05-03T17:42:58Z</time></trkpt><trkpt lat="35.990523674249594" lon="-107.04554085785979"><ele>2100.0</ele><time>2026-05-03T17:42:59Z</time></trkpt><trkpt lat="35.990491811658266" lon="-107.0454539792488"><ele>2100.0</ele><time>2026-05-03T17:43:00Z</time></trkpt><trkpt lat="35.99047376991647" lon="-107.04531946706801"><ele>2100.0</ele><time>2026-05-03T17:43:02Z</time></trkpt><trkpt lat="35.99048884926771" lon="-107.04521593850693"><ele>2100.0</ele><time>2026-05-03T17:43:03Z</time></trkpt><trkpt lat="35.99049109532094" lon="-107.0451020257779"><ele>2100.0</ele><time>2026-05-03T17:43:04Z</time></trkpt><trkpt lat="35.99048697677219" lon="-107.0450072064781"><ele>2100.0</ele><time>2026-05-03T17:43:05Z</time></trkpt><trkpt lat="35.99049987795344" lon="-107.04489185504106"><ele>2100.0</ele><time>2026-05-03T17:43:06Z</time></trkpt><trkpt lat="35.99051758702981" lon="-107.04474721155964"><ele>2099.75</ele><time>2026-05-03T17:43:07Z</time></trkpt><trkpt lat="35.99054978491575" lon="-107.04458186009164"><ele>2099.5</ele><time>2026-05-03T17:43:08Z</time></trkpt><trkpt lat="35.99058182246275" lon="-107.04444090888764"><ele>2099.25</ele><time>2026-05-03T17:43:09Z</time></trkpt><trkpt lat="35.9906100287517" lon="-107.04431916752954"><ele>2099.0</ele><time>2026-05-03T17:43:10Z</time></trkpt><trkpt lat="35.99063684852693" lon="-107.04419935069954"><ele>2098.6</ele><time>2026-05-03T17:43:11Z</time></trkpt><trkpt lat="35.99065760934049" lon="-107.04407043652967"><ele>2098.2</ele><time>2026-05-03T17:43:12Z</time></trkpt><trkpt lat="35.99067061509834" lon="-107.0439408100117"><ele>2097.7999999999997</ele><time>2026-05-03T17:43:13Z</time></trkpt><trkpt lat="35.9906739686446" lon="-107.04379555829338"><ele>2097.4</ele><time>2026-05-03T17:43:14Z</time></trkpt><trkpt lat="35.990674023241716" lon="-107.04368929621128"><ele>2097.0</ele><time>2026-05-03T17:43:15Z</time></trkpt><trkpt lat="35.99069171959537" lon="-107.04360088748479"><ele>2097.0</ele><time>2026-05-03T17:43:16Z</time></trkpt><trkpt lat="35.990708351043224" lon="-107.04350184759808"><ele>2097.0</ele><time>2026-05-03T17:43:17Z</time></trkpt><trkpt lat="35.9906996644291" lon="-107.0434194212091"><ele>2097.0</ele><time>2026-05-03T17:43:18Z</time></trkpt><trkpt lat="35.99069340227895" lon="-107.04327408263585"><ele>2097.0</ele><time>2026-05-03T17:43:20Z</time></trkpt><trkpt lat="35.99069113576397" lon="-107.04319320020092"><ele>2097.0</ele><time>2026-05-03T17:43:21Z</time></trkpt><trkpt lat="35.99067405832267" lon="-107.04310771082052"><ele>2097.0</ele><time>2026-05-03T17:43:22Z</time></trkpt><trkpt lat="35.99065808909207" lon="-107.04301127038525"><ele>2097.0</ele><time>2026-05-03T17:43:23Z</time></trkpt><trkpt lat="35.99064908966063" lon="-107.04289917488244"><ele>2097.0</ele><time>2026-05-03T17:43:24Z</time></trkpt><trkpt lat="35.99064867427628" lon="-107.0427851799954"><ele>2097.0</ele><time>2026-05-03T17:43:25Z</time></trkpt><trkpt lat="35.990644972781936" lon="-107.04268305059473"><ele>2097.0</ele><time>2026-05-03T17:43:26Z</time></trkpt><trkpt lat="35.99063488621591" lon="-107.04260346151503"><ele>2097.0</ele><time>2026-05-03T17:43:27Z</time></trkpt><trkpt lat="35.99061213656681" lon="-107.04248827957244"><ele>2097.0</ele><time>2026-05-03T17:43:29Z</time></trkpt><trkpt lat="35.99057500014909" lon="-107.0423132213279"><ele>2097.0</ele><time>2026-05-03T17:43:31Z</time></trkpt><trkpt lat="35.99056962824598" lon="-107.04216784168466"><ele>2097.0</ele><time>2026-05-03T17:43:32Z</time></trkpt><trkpt lat="35.99056348741757" lon="-107.04200589826002"><ele>2097.0</ele><time>2026-05-03T17:43:33Z</time></trkpt><trkpt lat="35.99055358514078" lon="-107.04188449542292"><ele>2097.0</ele><time>2026-05-03T17:43:34Z</time></trkpt><trkpt lat="35.99054264612962" lon="-107.04178286869698"><ele>2097.0</ele><time>2026-05-03T17:43:35Z</time></trkpt><trkpt lat="35.99052187958924" lon="-107.0416589736578"><ele>2097.0</ele><time>2026-05-03T17:43:37Z</time></trkpt><trkpt lat="35.99048549872013" lon="-107.04154842993694"><ele>2097.0</ele><time>2026-05-03T17:43:39Z</time></trkpt><trkpt lat="35.990523889529484" lon="-107.0413784256057"><ele>2097.0</ele><time>2026-05-03T17:43:41Z</time></trkpt><trkpt lat="35.990542044967526" lon="-107.04126360721375"><ele>2097.0</ele><time>2026-05-03T17:43:42Z</time></trkpt><trkpt lat="35.99051832583875" lon="-107.04112992251947"><ele>2097.0</ele><time>2026-05-03T17:43:43Z</time></trkpt><trkpt lat="35.99050265343738" lon="-107.04101064470892"><ele>2097.0</ele><time>2026-05-03T17:43:44Z</time></trkpt><trkpt lat="35.990492659358104" lon="-107.04092458499598"><ele>2097.0</ele><time>2026-05-03T17:43:45Z</time></trkpt><trkpt lat="35.99046663853482" lon="-107.04084746214666"><ele>2097.0</ele><time>2026-05-03T17:43:46Z</time></trkpt><trkpt lat="35.9904519424658" lon="-107.04076919966005"><ele>2097.0</ele><time>2026-05-03T17:43:47Z</time></trkpt><trkpt lat="35.990445044314114" lon="-107.04066986237315"><ele>2097.0</ele><time>2026-05-03T17:43:48Z</time></trkpt><trkpt lat="35.99043001440709" lon="-107.04054987334618"><ele>2097.0</ele><time>2026-05-03T17:43:49Z</time></trkpt><trkpt lat="35.990393834285015" lon="-107.04043205909747"><ele>2098.2</ele><time>2026-05-03T17:43:50Z</time></trkpt><trkpt lat="35.99035074152011" lon="-107.04031435086702"><ele>2099.3999999999996</ele><time>2026-05-03T17:43:51Z</time></trkpt><trkpt lat="35.99030077559634" lon="-107.04021020487106"><ele>2100.6000000000004</ele><time>2026-05-03T17:43:52Z</time></trkpt><trkpt lat="35.99023489934278" lon="-107.04012803828081"><ele>2101.8</ele><time>2026-05-03T17:43:53Z</time></trkpt><trkpt lat="35.990131222050195" lon="-107.04003752528796"><ele>2103.0</ele><time>2026-05-03T17:43:54Z</time></trkpt><trkpt lat="35.99002972804083" lon="-107.03996933888915"><ele>2102.0</ele><time>2026-05-03T17:43:55Z</time></trkpt><trkpt lat="35.989945354759975" lon="-107.03992611331454"><ele>2101.0</ele><time>2026-05-03T17:43:56Z</time></trkpt><trkpt lat="35.9898573624787" lon="-107.03989602661476"><ele>2100.0</ele><time>2026-05-03T17:43:57Z</time></trkpt><trkpt lat="35.989727863196414" lon="-107.03988095896707"><ele>2099.0</ele><time>2026-05-03T17:43:58Z</time></trkpt><trkpt lat="35.98957432057781" lon="-107.03987274370677"><ele>2099.0</ele><time>2026-05-03T17:43:59Z</time></trkpt><trkpt lat="35.9893981776835" lon="-107.03985511285794"><ele>2099.0</ele><time>2026-05-03T17:44:00Z</time></trkpt><trkpt lat="35.98922146917379" lon="-107.03983550845922"><ele>2099.0</ele><time>2026-05-03T17:44:01.001Z</time></trkpt><trkpt lat="35.98905969203843" lon="-107.0398276860302"><ele>2098.333333333333</ele><time>2026-05-03T17:44:02.001Z</time></trkpt><trkpt lat="35.988897858132276" lon="-107.03981805060553"><ele>2097.6666666666665</ele><time>2026-05-03T17:44:03.001Z</time></trkpt><trkpt lat="35.98873242175716" lon="-107.03979882534504"><ele>2097.0</ele><time>2026-05-03T17:44:04.001Z</time></trkpt><trkpt lat="35.98856313083805" lon="-107.03977569690022"><ele>2097.0</ele><time>2026-05-03T17:44:05.001Z</time></trkpt><trkpt lat="35.98840307531207" lon="-107.0397510820291"><ele>2097.0</ele><time>2026-05-03T17:44:06.001Z</time></trkpt><trkpt lat="35.98826524800238" lon="-107.03972860629628"><ele>2097.0</ele><time>2026-05-03T17:44:07.001Z</time></trkpt><trkpt lat="35.98812978954251" lon="-107.0397065046451"><ele>2097.0</ele><time>2026-05-03T17:44:08.001Z</time></trkpt><trkpt lat="35.988002452963116" lon="-107.03968176577648"><ele>2097.0</ele><time>2026-05-03T17:44:09.001Z</time></trkpt><trkpt lat="35.987881634362296" lon="-107.03964632831602"><ele>2097.0</ele><time>2026-05-03T17:44:10.001Z</time></trkpt><trkpt lat="35.987764232655444" lon="-107.03960192975894"><ele>2097.0</ele><time>2026-05-03T17:44:11.001Z</time></trkpt><trkpt lat="35.987655115792506" lon="-107.03954590633774"><ele>2097.0</ele><time>2026-05-03T17:44:12.001Z</time></trkpt><trkpt lat="35.98753989538877" lon="-107.039450152828"><ele>2097.0</ele><time>2026-05-03T17:44:13.001Z</time></trkpt><trkpt lat="35.98740969429118" lon="-107.0393388072461"><ele>2097.0</ele><time>2026-05-03T17:44:14.001Z</time></trkpt><trkpt lat="35.987275366032925" lon="-107.03924885331696"><ele>2097.0</ele><time>2026-05-03T17:44:15.001Z</time></trkpt><trkpt lat="35.98714968495252" lon="-107.03918193526307"><ele>2097.0</ele><time>2026-05-03T17:44:16.001Z</time></trkpt><trkpt lat="35.98703098040915" lon="-107.03911044057956"><ele>2096.75</ele><time>2026-05-03T17:44:17.001Z</time></trkpt><trkpt lat="35.986916877405264" lon="-107.0390211259787"><ele>2096.5</ele><time>2026-05-03T17:44:18.001Z</time></trkpt><trkpt lat="35.986794184033805" lon="-107.03892327650073"><ele>2096.25</ele><time>2026-05-03T17:44:19.001Z</time></trkpt><trkpt lat="35.98665417879231" lon="-107.03884788010818"><ele>2096.0</ele><time>2026-05-03T17:44:20.001Z</time></trkpt><trkpt lat="35.98650953544503" lon="-107.03879618832806"><ele>2096.0</ele><time>2026-05-03T17:44:21.001Z</time></trkpt><trkpt lat="35.98636338533348" lon="-107.03874706459852"><ele>2096.0</ele><time>2026-05-03T17:44:22.001Z</time></trkpt><trkpt lat="35.9862226580508" lon="-107.03868714512463"><ele>2096.0</ele><time>2026-05-03T17:44:23.001Z</time></trkpt><trkpt lat="35.98608866211862" lon="-107.03860134898153"><ele>2096.0</ele><time>2026-05-03T17:44:24.001Z</time></trkpt><trkpt lat="35.98595133452845" lon="-107.03848300112251"><ele>2096.0</ele><time>2026-05-03T17:44:25.001Z</time></trkpt><trkpt lat="35.98581681765231" lon="-107.03836395030757"><ele>2096.0</ele><time>2026-05-03T17:44:26.001Z</time></trkpt><trkpt lat="35.985701393963204" lon="-107.03826576617377"><ele>2096.25</ele><time>2026-05-03T17:44:27.001Z</time></trkpt><trkpt lat="35.98558015469352" lon="-107.03818769915681"><ele>2096.5</ele><time>2026-05-03T17:44:28.001Z</time></trkpt><trkpt lat="35.98545412879327" lon="-107.03812022947862"><ele>2096.75</ele><time>2026-05-03T17:44:29.001Z</time></trkpt><trkpt lat="35.985338720713344" lon="-107.03805817176229"><ele>2097.0</ele><time>2026-05-03T17:44:30.001Z</time></trkpt><trkpt lat="35.98522651256773" lon="-107.03799115043428"><ele>2097.0</ele><time>2026-05-03T17:44:31.001Z</time></trkpt><trkpt lat="35.98511407230209" lon="-107.0379173910505"><ele>2097.0</ele><time>2026-05-03T17:44:32.001Z</time></trkpt><trkpt lat="35.98503816790766" lon="-107.03785851258064"><ele>2097.0</ele><time>2026-05-03T17:44:33.001Z</time></trkpt><trkpt lat="35.984978527933684" lon="-107.03775134969024"><ele>2097.0</ele><time>2026-05-03T17:44:35.001Z</time></trkpt><trkpt lat="35.984961049664676" lon="-107.03765738696089"><ele>2097.0</ele><time>2026-05-03T17:44:36.001Z</time></trkpt><trkpt lat="35.98493646146262" lon="-107.03753563799128"><ele>2097.0</ele><time>2026-05-03T17:44:37.001Z</time></trkpt><trkpt lat="35.98490711863533" lon="-107.03739791236767"><ele>2097.0</ele><time>2026-05-03T17:44:38.001Z</time></trkpt><trkpt lat="35.98488338491473" lon="-107.03724676685111"><ele>2097.0</ele><time>2026-05-03T17:44:39.001Z</time></trkpt><trkpt lat="35.98490468951336" lon="-107.03710416138557"><ele>2097.0</ele><time>2026-05-03T17:44:40.001Z</time></trkpt><trkpt lat="35.984948523556334" lon="-107.03698617477573"><ele>2099.0</ele><time>2026-05-03T17:44:41.001Z</time></trkpt><trkpt lat="35.985020882200274" lon="-107.03686988193263"><ele>2101.0</ele><time>2026-05-03T17:44:42.001Z</time></trkpt><trkpt lat="35.98513068150268" lon="-107.03675006719467"><ele>2103.0</ele><time>2026-05-03T17:44:43.001Z</time></trkpt><trkpt lat="35.98527869660542" lon="-107.03662240402545"><ele>2105.0</ele><time>2026-05-03T17:44:44.001Z</time></trkpt><trkpt lat="35.98542628052643" lon="-107.03649177362874"><ele>2105.5</ele><time>2026-05-03T17:44:45.001Z</time></trkpt><trkpt lat="35.98552939632123" lon="-107.03636235196541"><ele>2106.0</ele><time>2026-05-03T17:44:46Z</time></trkpt><trkpt lat="35.98561654156272" lon="-107.0362192104332"><ele>2106.5</ele><time>2026-05-03T17:44:47Z</time></trkpt><trkpt lat="35.9856858572108" lon="-107.03609891225187"><ele>2107.0</ele><time>2026-05-03T17:44:48Z</time></trkpt><trkpt lat="35.98573279192921" lon="-107.03601104304661"><ele>2107.0</ele><time>2026-05-03T17:44:49Z</time></trkpt><trkpt lat="35.98575602261969" lon="-107.03588938274059"><ele>2107.0</ele><time>2026-05-03T17:44:51Z</time></trkpt><trkpt lat="35.985746694809926" lon="-107.03573037620214"><ele>2107.0</ele><time>2026-05-03T17:44:53Z</time></trkpt><trkpt lat="35.98573549560905" lon="-107.03561116097093"><ele>2107.0</ele><time>2026-05-03T17:44:54Z</time></trkpt><trkpt lat="35.98573208274631" lon="-107.03547650662848"><ele>2107.0</ele><time>2026-05-03T17:44:55Z</time></trkpt><trkpt lat="35.98573494227751" lon="-107.03537304592656"><ele>2106.2</ele><time>2026-05-03T17:44:56Z</time></trkpt><trkpt lat="35.98580144695187" lon="-107.0352972988197"><ele>2105.3999999999996</ele><time>2026-05-03T17:44:58Z</time></trkpt><trkpt lat="35.98591657442467" lon="-107.03525417957707"><ele>2104.6000000000004</ele><time>2026-05-03T17:45:00Z</time></trkpt><trkpt lat="35.985975691202256" lon="-107.03517329494646"><ele>2103.8</ele><time>2026-05-03T17:45:01Z</time></trkpt><trkpt lat="35.986023966311265" lon="-107.03508155478579"><ele>2103.0</ele><time>2026-05-03T17:45:02Z</time></trkpt><trkpt lat="35.98600840815437" lon="-107.03495763135592"><ele>2103.0</ele><time>2026-05-03T17:45:04Z</time></trkpt><trkpt lat="35.98596520964621" lon="-107.03486974095604"><ele>2103.0</ele><time>2026-05-03T17:45:05Z</time></trkpt><trkpt lat="35.98593382620499" lon="-107.03474357130213"><ele>2103.0</ele><time>2026-05-03T17:45:06Z</time></trkpt><trkpt lat="35.98590915605086" lon="-107.03463087390708"><ele>2103.0</ele><time>2026-05-03T17:45:07Z</time></trkpt><trkpt lat="35.985873345792534" lon="-107.03453321933769"><ele>2103.0</ele><time>2026-05-03T17:45:08Z</time></trkpt><trkpt lat="35.98583882690647" lon="-107.03446187414693"><ele>2103.0</ele><time>2026-05-03T17:45:09Z</time></trkpt><trkpt lat="35.985835175695776" lon="-107.03432595336038"><ele>2103.0</ele><time>2026-05-03T17:45:12Z</time></trkpt><trkpt lat="35.985850987678845" lon="-107.03421964821587"><ele>2103.0</ele><time>2026-05-03T17:45:14Z</time></trkpt><trkpt lat="35.9858062693092" lon="-107.03414692217903"><ele>2103.0</ele><time>2026-05-03T17:45:16Z</time></trkpt><trkpt lat="35.985741170529046" lon="-107.03407499957922"><ele>2103.0</ele><time>2026-05-03T17:45:17Z</time></trkpt><trkpt lat="35.98572900134845" lon="-107.03398213888539"><ele>2103.0</ele><time>2026-05-03T17:45:18Z</time></trkpt><trkpt lat="35.98574539536865" lon="-107.03385898723964"><ele>2103.0</ele><time>2026-05-03T17:45:19Z</time></trkpt><trkpt lat="35.98576833093548" lon="-107.03371800226616"><ele>2103.5</ele><time>2026-05-03T17:45:20Z</time></trkpt><trkpt lat="35.985761156114116" lon="-107.03360797037996"><ele>2104.0</ele><time>2026-05-03T17:45:21Z</time></trkpt><trkpt lat="35.985719174725624" lon="-107.03351379540358"><ele>2104.5</ele><time>2026-05-03T17:45:22Z</time></trkpt><trkpt lat="35.985663484311736" lon="-107.03342535701798"><ele>2105.0</ele><time>2026-05-03T17:45:23Z</time></trkpt><trkpt lat="35.9856058860615" lon="-107.03337278074001"><ele>2105.5</ele><time>2026-05-03T17:45:24Z</time></trkpt><trkpt lat="35.9855404511749" lon="-107.03335140665673"><ele>2106.0</ele><time>2026-05-03T17:45:25Z</time></trkpt><trkpt lat="35.98544525353262" lon="-107.03332850012511"><ele>2106.0</ele><time>2026-05-03T17:45:26Z</time></trkpt><trkpt lat="35.98533508428269" lon="-107.03330797343808"><ele>2106.0</ele><time>2026-05-03T17:45:27Z</time></trkpt><trkpt lat="35.98524797843108" lon="-107.03329129962408"><ele>2106.0</ele><time>2026-05-03T17:45:28Z</time></trkpt><trkpt lat="35.98508709782202" lon="-107.03331024294678"><ele>2106.0</ele><time>2026-05-03T17:45:30Z</time></trkpt><trkpt lat="35.98500970403292" lon="-107.03328533764021"><ele>2106.0</ele><time>2026-05-03T17:45:31Z</time></trkpt><trkpt lat="35.984947158136855" lon="-107.03317806081486"><ele>2106.5</ele><time>2026-05-03T17:45:33Z</time></trkpt><trkpt lat="35.98490890749812" lon="-107.03307383548606"><ele>2107.0</ele><time>2026-05-03T17:45:34Z</time></trkpt><trkpt lat="35.98483826241489" lon="-107.03293516714284"><ele>2107.5</ele><time>2026-05-03T17:45:35Z</time></trkpt><trkpt lat="35.98474756223887" lon="-107.03280358673594"><ele>2108.0</ele><time>2026-05-03T17:45:36Z</time></trkpt><trkpt lat="35.9846877235611" lon="-107.03268892788131"><ele>2108.0</ele><time>2026-05-03T17:45:37Z</time></trkpt><trkpt lat="35.98463864979186" lon="-107.03255281410974"><ele>2108.0</ele><time>2026-05-03T17:45:38Z</time></trkpt><trkpt lat="35.98457214001292" lon="-107.03238020120239"><ele>2108.0</ele><time>2026-05-03T17:45:39Z</time></trkpt><trkpt lat="35.98450136927788" lon="-107.03226936815209"><ele>2108.0</ele><time>2026-05-03T17:45:40Z</time></trkpt><trkpt lat="35.98439944096747" lon="-107.03216535036559"><ele>2108.8</ele><time>2026-05-03T17:45:41Z</time></trkpt><trkpt lat="35.984324571837284" lon="-107.0320876412459"><ele>2109.6000000000004</ele><time>2026-05-03T17:45:42Z</time></trkpt><trkpt lat="35.98427888713986" lon="-107.03197312561105"><ele>2110.3999999999996</ele><time>2026-05-03T17:45:44Z</time></trkpt><trkpt lat="35.98428163998627" lon="-107.03187771309656"><ele>2111.2</ele><time>2026-05-03T17:45:45Z</time></trkpt><trkpt lat="35.984259051067376" lon="-107.03171839963947"><ele>2112.0</ele><time>2026-05-03T17:45:46Z</time></trkpt><trkpt lat="35.9842377456392" lon="-107.03157199102385"><ele>2112.0</ele><time>2026-05-03T17:45:47Z</time></trkpt><trkpt lat="35.984242534457344" lon="-107.0314012260353"><ele>2112.0</ele><time>2026-05-03T17:45:49Z</time></trkpt><trkpt lat="35.98427333471864" lon="-107.03127678142856"><ele>2112.0</ele><time>2026-05-03T17:45:50Z</time></trkpt><trkpt lat="35.984315721950885" lon="-107.03115670699631"><ele>2112.0</ele><time>2026-05-03T17:45:51Z</time></trkpt><trkpt lat="35.984328969219774" lon="-107.0310749523554"><ele>2112.0</ele><time>2026-05-03T17:45:52Z</time></trkpt><trkpt lat="35.98428747914151" lon="-107.03098848201097"><ele>2110.0</ele><time>2026-05-03T17:45:54Z</time></trkpt><trkpt lat="35.984157430740076" lon="-107.03097557956701"><ele>2108.0</ele><time>2026-05-03T17:45:56Z</time></trkpt><trkpt lat="35.98404770382355" lon="-107.03101987942605"><ele>2106.0</ele><time>2026-05-03T17:45:57Z</time></trkpt><trkpt lat="35.983922710129924" lon="-107.0310834613112"><ele>2104.0</ele><time>2026-05-03T17:45:58Z</time></trkpt><trkpt lat="35.98380839920095" lon="-107.03112742893582"><ele>2104.0</ele><time>2026-05-03T17:45:59Z</time></trkpt><trkpt lat="35.98372578521898" lon="-107.0311262383036"><ele>2104.0</ele><time>2026-05-03T17:46:00Z</time></trkpt><trkpt lat="35.98363932497806" lon="-107.03109906532522"><ele>2104.0</ele><time>2026-05-03T17:46:01Z</time></trkpt><trkpt lat="35.98358081830309" lon="-107.03105961822924"><ele>2104.0</ele><time>2026-05-03T17:46:02Z</time></trkpt><trkpt lat="35.98356265214932" lon="-107.03095621311026"><ele>2104.0</ele><time>2026-05-03T17:46:04Z</time></trkpt><trkpt lat="35.98358078060152" lon="-107.03083611254682"><ele>2104.0</ele><time>2026-05-03T17:46:06Z</time></trkpt><trkpt lat="35.98363254822183" lon="-107.03077210471714"><ele>2103.666666666667</ele><time>2026-05-03T17:46:08Z</time></trkpt><trkpt lat="35.98371143232805" lon="-107.03068514360923"><ele>2103.3333333333335</ele><time>2026-05-03T17:46:14.001Z</time></trkpt><trkpt lat="35.983768428196115" lon="-107.03062128286406"><ele>2103.0</ele><time>2026-05-03T17:46:15.001Z</time></trkpt><trkpt lat="35.98381656440645" lon="-107.03055626156657"><ele>2102.6666666666665</ele><time>2026-05-03T17:46:16.001Z</time></trkpt><trkpt lat="35.98387139407588" lon="-107.0304828627045"><ele>2102.333333333333</ele><time>2026-05-03T17:46:17.001Z</time></trkpt><trkpt lat="35.98394069387115" lon="-107.030405579238"><ele>2102.0</ele><time>2026-05-03T17:46:18.001Z</time></trkpt><trkpt lat="35.984003478807786" lon="-107.03032193615665"><ele>2102.0</ele><time>2026-05-03T17:46:19.001Z</time></trkpt><trkpt lat="35.984063806299275" lon="-107.03022036025588"><ele>2102.0</ele><time>2026-05-03T17:46:20.001Z</time></trkpt><trkpt lat="35.98412065347499" lon="-107.03014016510049"><ele>2102.0</ele><time>2026-05-03T17:46:21.001Z</time></trkpt><trkpt lat="35.984176618779635" lon="-107.03008971338592"><ele>2102.0</ele><time>2026-05-03T17:46:22.001Z</time></trkpt><trkpt lat="35.98424767251917" lon="-107.03005263336239"><ele>2102.0</ele><time>2026-05-03T17:46:24.001Z</time></trkpt><trkpt lat="35.984315382345834" lon="-107.0300709427239"><ele>2102.0</ele><time>2026-05-03T17:46:25.001Z</time></trkpt><trkpt lat="35.98442570122948" lon="-107.03011068734197"><ele>2102.2</ele><time>2026-05-03T17:46:26.001Z</time></trkpt><trkpt lat="35.984523586385166" lon="-107.03013483198998"><ele>2102.3999999999996</ele><time>2026-05-03T17:46:27.001Z</time></trkpt><trkpt lat="35.98460214473692" lon="-107.03013648574996"><ele>2102.6000000000004</ele><time>2026-05-03T17:46:28.001Z</time></trkpt><trkpt lat="35.984703887930145" lon="-107.03008704744762"><ele>2102.8</ele><time>2026-05-03T17:46:30.001Z</time></trkpt><trkpt lat="35.98476175703155" lon="-107.03003960381507"><ele>2103.0</ele><time>2026-05-03T17:46:31.001Z</time></trkpt><trkpt lat="35.98485241747049" lon="-107.02995026844602"><ele>2103.0</ele><time>2026-05-03T17:46:32.001Z</time></trkpt><trkpt lat="35.98494241513798" lon="-107.02986928516687"><ele>2103.0</ele><time>2026-05-03T17:46:33.001Z</time></trkpt><trkpt lat="35.98503293981194" lon="-107.02980478446966"><ele>2103.0</ele><time>2026-05-03T17:46:34.001Z</time></trkpt><trkpt lat="35.98509350044782" lon="-107.02972639590496"><ele>2103.0</ele><time>2026-05-03T17:46:35.001Z</time></trkpt><trkpt lat="35.985150881727705" lon="-107.02962925082208"><ele>2103.0</ele><time>2026-05-03T17:46:36.001Z</time></trkpt><trkpt lat="35.9851883268694" lon="-107.02955479010448"><ele>2103.2000000000003</ele><time>2026-05-03T17:46:37.001Z</time></trkpt><trkpt lat="35.98523162067697" lon="-107.02945560383748"><ele>2103.4</ele><time>2026-05-03T17:46:39.001Z</time></trkpt><trkpt lat="35.98524302675137" lon="-107.02936021672059"><ele>2103.6000000000004</ele><time>2026-05-03T17:46:40.001Z</time></trkpt><trkpt lat="35.98522814012496" lon="-107.02921367742331"><ele>2103.8</ele><time>2026-05-03T17:46:41.001Z</time></trkpt><trkpt lat="35.98518755366504" lon="-107.02902859657065"><ele>2104.0</ele><time>2026-05-03T17:46:42.001Z</time></trkpt><trkpt lat="35.98517555040088" lon="-107.02890208276644"><ele>2104.0</ele><time>2026-05-03T17:46:43.001Z</time></trkpt><trkpt lat="35.98516025336655" lon="-107.02881671868928"><ele>2104.0</ele><time>2026-05-03T17:46:44.001Z</time></trkpt><trkpt lat="35.98516109254832" lon="-107.02873514811584"><ele>2104.0</ele><time>2026-05-03T17:46:45.001Z</time></trkpt><trkpt lat="35.98519029910273" lon="-107.02862437602181"><ele>2104.0</ele><time>2026-05-03T17:46:46.001Z</time></trkpt><trkpt lat="35.98522006248848" lon="-107.0285260305178"><ele>2104.0</ele><time>2026-05-03T17:46:47.001Z</time></trkpt><trkpt lat="35.985215544671235" lon="-107.0284274412894"><ele>2104.0</ele><time>2026-05-03T17:46:48.001Z</time></trkpt><trkpt lat="35.985190829655274" lon="-107.02830580668551"><ele>2104.0</ele><time>2026-05-03T17:46:49.001Z</time></trkpt><trkpt lat="35.98514886543959" lon="-107.02816497364611"><ele>2104.0</ele><time>2026-05-03T17:46:50.001Z</time></trkpt><trkpt lat="35.9851219540852" lon="-107.02800778314746"><ele>2104.0</ele><time>2026-05-03T17:46:51.001Z</time></trkpt><trkpt lat="35.985110742492985" lon="-107.02784140354079"><ele>2104.0</ele><time>2026-05-03T17:46:52Z</time></trkpt><trkpt lat="35.985101336394735" lon="-107.02772080559215"><ele>2104.0</ele><time>2026-05-03T17:46:53Z</time></trkpt><trkpt lat="35.985096124488486" lon="-107.0276416436499"><ele>2104.0</ele><time>2026-05-03T17:46:54Z</time></trkpt><trkpt lat="35.98511416718522" lon="-107.02756195262563"><ele>2104.0</ele><time>2026-05-03T17:46:55Z</time></trkpt><trkpt lat="35.98514444162476" lon="-107.02745657221172"><ele>2104.0</ele><time>2026-05-03T17:46:56Z</time></trkpt><trkpt lat="35.985168354496324" lon="-107.02731950792605"><ele>2104.0</ele><time>2026-05-03T17:46:57Z</time></trkpt><trkpt lat="35.98518302363287" lon="-107.02718548396207"><ele>2104.0</ele><time>2026-05-03T17:46:58Z</time></trkpt><trkpt lat="35.98518590721139" lon="-107.02709326208448"><ele>2104.3333333333335</ele><time>2026-05-03T17:46:59Z</time></trkpt><trkpt lat="35.9851922514777" lon="-107.02701452648044"><ele>2104.666666666667</ele><time>2026-05-03T17:47:00Z</time></trkpt><trkpt lat="35.98520873327494" lon="-107.02690788807246"><ele>2105.0</ele><time>2026-05-03T17:47:01Z</time></trkpt><trkpt lat="35.985228865378026" lon="-107.02678610717977"><ele>2105.3333333333335</ele><time>2026-05-03T17:47:02Z</time></trkpt><trkpt lat="35.98523034217548" lon="-107.02667243725793"><ele>2105.6666666666665</ele><time>2026-05-03T17:47:03Z</time></trkpt><trkpt lat="35.98523193940306" lon="-107.02655162625882"><ele>2106.0</ele><time>2026-05-03T17:47:04Z</time></trkpt><trkpt lat="35.9852425702631" lon="-107.0264344623751"><ele>2107.0</ele><time>2026-05-03T17:47:05Z</time></trkpt><trkpt lat="35.98525477072713" lon="-107.0263499139029"><ele>2108.0</ele><time>2026-05-03T17:47:06Z</time></trkpt><trkpt lat="35.98526975157934" lon="-107.02626786626267"><ele>2109.0</ele><time>2026-05-03T17:47:07Z</time></trkpt><trkpt lat="35.985276210653964" lon="-107.0261881252563"><ele>2110.0</ele><time>2026-05-03T17:47:08Z</time></trkpt><trkpt lat="35.98520488770663" lon="-107.02603152136658"><ele>2111.0</ele><time>2026-05-03T17:47:10Z</time></trkpt><trkpt lat="35.98515303590636" lon="-107.02592774551752"><ele>2112.0</ele><time>2026-05-03T17:47:11Z</time></trkpt><trkpt lat="35.98513265591082" lon="-107.02582004216917"><ele>2112.0</ele><time>2026-05-03T17:47:12Z</time></trkpt><trkpt lat="35.98517924956799" lon="-107.02567498817572"><ele>2112.0</ele><time>2026-05-03T17:47:14Z</time></trkpt><trkpt lat="35.98523385033813" lon="-107.0255919284623"><ele>2112.0</ele><time>2026-05-03T17:47:15Z</time></trkpt><trkpt lat="35.985325026414415" lon="-107.0255123986551"><ele>2112.0</ele><time>2026-05-03T17:47:16Z</time></trkpt><trkpt lat="35.98544106712461" lon="-107.02543684252394"><ele>2112.0</ele><time>2026-05-03T17:47:17Z</time></trkpt><trkpt lat="35.98553628320578" lon="-107.0253764650079"><ele>2112.0</ele><time>2026-05-03T17:47:18Z</time></trkpt><trkpt lat="35.98561543551178" lon="-107.02531832016312"><ele>2112.0</ele><time>2026-05-03T17:47:19Z</time></trkpt><trkpt lat="35.98567797003615" lon="-107.02524406456867"><ele>2112.0</ele><time>2026-05-03T17:47:20Z</time></trkpt><trkpt lat="35.98573867667032" lon="-107.02514280965109"><ele>2112.0</ele><time>2026-05-03T17:47:21Z</time></trkpt><trkpt lat="35.985793090543105" lon="-107.02506250731412"><ele>2112.0</ele><time>2026-05-03T17:47:22Z</time></trkpt><trkpt lat="35.98587407341071" lon="-107.02499981648593"><ele>2112.0</ele><time>2026-05-03T17:47:24Z</time></trkpt><trkpt lat="35.98594131537214" lon="-107.02498539963406"><ele>2112.0</ele><time>2026-05-03T17:47:25Z</time></trkpt><trkpt lat="35.986012464726045" lon="-107.02495223132233"><ele>2112.0</ele><time>2026-05-03T17:47:26Z</time></trkpt><trkpt lat="35.98607434566503" lon="-107.02489429336582"><ele>2112.0</ele><time>2026-05-03T17:47:27Z</time></trkpt><trkpt lat="35.9861154554755" lon="-107.0248216443894"><ele>2112.0</ele><time>2026-05-03T17:47:28Z</time></trkpt><trkpt lat="35.98614769955848" lon="-107.0246918331454"><ele>2112.4</ele><time>2026-05-03T17:47:29Z</time></trkpt><trkpt lat="35.98618602639746" lon="-107.02451869671317"><ele>2112.7999999999997</ele><time>2026-05-03T17:47:30Z</time></trkpt><trkpt lat="35.986240823345575" lon="-107.02438873408398"><ele>2113.2</ele><time>2026-05-03T17:47:31Z</time></trkpt><trkpt lat="35.98627748911247" lon="-107.02430968075313"><ele>2113.6</ele><time>2026-05-03T17:47:32Z</time></trkpt><trkpt lat="35.986329405934015" lon="-107.02423369657028"><ele>2114.0</ele><time>2026-05-03T17:47:34Z</time></trkpt><trkpt lat="35.98644830385991" lon="-107.02419077733293"><ele>2114.0</ele><time>2026-05-03T17:47:36Z</time></trkpt><trkpt lat="35.98656174344606" lon="-107.0242487334845"><ele>2114.0</ele><time>2026-05-03T17:47:38Z</time></trkpt><trkpt lat="35.98665124437523" lon="-107.02426029188217"><ele>2114.0</ele><time>2026-05-03T17:47:40Z</time></trkpt><trkpt lat="35.9866862926292" lon="-107.02408825578846"><ele>2114.0</ele><time>2026-05-03T17:47:42Z</time></trkpt><trkpt lat="35.986659754249715" lon="-107.02392917815978"><ele>2114.4</ele><time>2026-05-03T17:47:43Z</time></trkpt><trkpt lat="35.98665560737688" lon="-107.02380496622862"><ele>2114.8</ele><time>2026-05-03T17:47:44Z</time></trkpt><trkpt lat="35.98667063406301" lon="-107.02367995283156"><ele>2115.2</ele><time>2026-05-03T17:47:46Z</time></trkpt><trkpt lat="35.986578494243204" lon="-107.02355081733609"><ele>2115.6</ele><time>2026-05-03T17:47:48Z</time></trkpt><trkpt lat="35.98654966415307" lon="-107.02347665742458"><ele>2116.0</ele><time>2026-05-03T17:47:49Z</time></trkpt><trkpt lat="35.98663514423183" lon="-107.02333704466433"><ele>2116.3333333333335</ele><time>2026-05-03T17:47:51Z</time></trkpt><trkpt lat="35.98667935093823" lon="-107.02326077279778"><ele>2116.666666666667</ele><time>2026-05-03T17:47:52Z</time></trkpt><trkpt lat="35.986667694768926" lon="-107.02312893054804"><ele>2117.0</ele><time>2026-05-03T17:47:54Z</time></trkpt><trkpt lat="35.9866117465661" lon="-107.0230520445425"><ele>2117.3333333333335</ele><time>2026-05-03T17:47:55Z</time></trkpt><trkpt lat="35.986561962336104" lon="-107.02300166179471"><ele>2117.6666666666665</ele><time>2026-05-03T17:47:56Z</time></trkpt><trkpt lat="35.98657583196388" lon="-107.02289274757567"><ele>2118.0</ele><time>2026-05-03T17:47:58Z</time></trkpt><trkpt lat="35.98662377511853" lon="-107.02277340310665"><ele>2118.0</ele><time>2026-05-03T17:47:59Z</time></trkpt><trkpt lat="35.98664306890673" lon="-107.02266101731891"><ele>2118.0</ele><time>2026-05-03T17:48:00Z</time></trkpt><trkpt lat="35.986600779476035" lon="-107.02255586202241"><ele>2118.0</ele><time>2026-05-03T17:48:02Z</time></trkpt><trkpt lat="35.986546524132336" lon="-107.02249546529366"><ele>2118.0</ele><time>2026-05-03T17:48:04Z</time></trkpt><trkpt lat="35.98658104046629" lon="-107.02232518801524"><ele>2118.0</ele><time>2026-05-03T17:48:06Z</time></trkpt><trkpt lat="35.98655788996406" lon="-107.02224046861367"><ele>2118.5</ele><time>2026-05-03T17:48:07Z</time></trkpt><trkpt lat="35.98651907663189" lon="-107.0221704871328"><ele>2119.0</ele><time>2026-05-03T17:48:08Z</time></trkpt><trkpt lat="35.986535289246504" lon="-107.02205545181664"><ele>2119.5</ele><time>2026-05-03T17:48:11Z</time></trkpt><trkpt lat="35.98648763268258" lon="-107.02192573498957"><ele>2120.0</ele><time>2026-05-03T17:48:13Z</time></trkpt><trkpt lat="35.98642559988317" lon="-107.02186134993914"><ele>2120.5</ele><time>2026-05-03T17:48:14Z</time></trkpt><trkpt lat="35.98637828684054" lon="-107.02177028056214"><ele>2121.0</ele><time>2026-05-03T17:48:16Z</time></trkpt><trkpt lat="35.98627873494039" lon="-107.02169724860063"><ele>2121.4</ele><time>2026-05-03T17:48:18.001Z</time></trkpt><trkpt lat="35.986249284564735" lon="-107.02162205636834"><ele>2121.8</ele><time>2026-05-03T17:48:20.001Z</time></trkpt><trkpt lat="35.9862625973521" lon="-107.02147255710416"><ele>2122.2000000000003</ele><time>2026-05-03T17:48:22.001Z</time></trkpt><trkpt lat="35.98623631596648" lon="-107.02137458056401"><ele>2122.6</ele><time>2026-05-03T17:48:24.001Z</time></trkpt><trkpt lat="35.98615621342011" lon="-107.02129262471628"><ele>2123.0</ele><time>2026-05-03T17:48:27.001Z</time></trkpt><trkpt lat="35.986063566944175" lon="-107.02129019070983"><ele>2123.0</ele><time>2026-05-03T17:48:28.001Z</time></trkpt><trkpt lat="35.98596049467214" lon="-107.02130916947247"><ele>2123.0</ele><time>2026-05-03T17:48:29.001Z</time></trkpt><trkpt lat="35.98586863008919" lon="-107.02135391482776"><ele>2123.0</ele><time>2026-05-03T17:48:30.001Z</time></trkpt><trkpt lat="35.98577627453471" lon="-107.02143072836655"><ele>2123.0</ele><time>2026-05-03T17:48:32.001Z</time></trkpt><trkpt lat="35.98569755384179" lon="-107.02149471571362"><ele>2123.0</ele><time>2026-05-03T17:48:34.001Z</time></trkpt><trkpt lat="35.98567141152941" lon="-107.02162636437863"><ele>2122.833333333333</ele><time>2026-05-03T17:48:36.001Z</time></trkpt><trkpt lat="35.9857103585259" lon="-107.02171881952502"><ele>2122.6666666666665</ele><time>2026-05-03T17:48:37.001Z</time></trkpt><trkpt lat="35.98576745795028" lon="-107.02180224319366"><ele>2122.5</ele><time>2026-05-03T17:48:38.001Z</time></trkpt><trkpt lat="35.98582995043412" lon="-107.0218535912778"><ele>2122.3333333333335</ele><time>2026-05-03T17:48:39.001Z</time></trkpt><trkpt lat="35.9859017780258" lon="-107.02187512488263"><ele>2122.166666666667</ele><time>2026-05-03T17:48:40.001Z</time></trkpt><trkpt lat="35.98599189001011" lon="-107.02187732739336"><ele>2122.0</ele><time>2026-05-03T17:48:41.001Z</time></trkpt><trkpt lat="35.98607093493841" lon="-107.0218958989923"><ele>2121.7999999999997</ele><time>2026-05-03T17:48:42.001Z</time></trkpt><trkpt lat="35.986126969262266" lon="-107.02195611229428"><ele>2121.6</ele><time>2026-05-03T17:48:43.001Z</time></trkpt><trkpt lat="35.986165828603916" lon="-107.02204601744434"><ele>2121.3999999999996</ele><time>2026-05-03T17:48:44.001Z</time></trkpt><trkpt lat="35.98618986821448" lon="-107.02216918266268"><ele>2121.2</ele><time>2026-05-03T17:48:45.001Z</time></trkpt><trkpt lat="35.98618219622667" lon="-107.02230344971952"><ele>2121.0</ele><time>2026-05-03T17:48:46.001Z</time></trkpt><trkpt lat="35.98614896873881" lon="-107.02247899555398"><ele>2120.25</ele><time>2026-05-03T17:48:47.001Z</time></trkpt><trkpt lat="35.98611910041897" lon="-107.02267504437532"><ele>2119.5</ele><time>2026-05-03T17:48:48.001Z</time></trkpt><trkpt lat="35.98610454391139" lon="-107.02283735827275"><ele>2118.75</ele><time>2026-05-03T17:48:49.001Z</time></trkpt><trkpt lat="35.98608934350467" lon="-107.02298720495502"><ele>2118.0</ele><time>2026-05-03T17:48:50.001Z</time></trkpt><trkpt lat="35.98606086249787" lon="-107.02313555103447"><ele>2118.0</ele><time>2026-05-03T17:48:51.001Z</time></trkpt><trkpt lat="35.986039870245776" lon="-107.02328202361961"><ele>2118.0</ele><time>2026-05-03T17:48:52.001Z</time></trkpt><trkpt lat="35.986027246086394" lon="-107.0234193008552"><ele>2118.0</ele><time>2026-05-03T17:48:53.001Z</time></trkpt><trkpt lat="35.98599863801618" lon="-107.02356881106543"><ele>2118.0</ele><time>2026-05-03T17:48:54.001Z</time></trkpt><trkpt lat="35.985948656736035" lon="-107.023721839542"><ele>2118.25</ele><time>2026-05-03T17:48:55.001Z</time></trkpt><trkpt lat="35.98588896253012" lon="-107.02387597707438"><ele>2118.5</ele><time>2026-05-03T17:48:56.001Z</time></trkpt><trkpt lat="35.985825899900284" lon="-107.02402234491193"><ele>2118.75</ele><time>2026-05-03T17:48:57.001Z</time></trkpt><trkpt lat="35.9857733700241" lon="-107.02415533246155"><ele>2119.0</ele><time>2026-05-03T17:48:58Z</time></trkpt><trkpt lat="35.98574363961219" lon="-107.02425259826104"><ele>2118.0</ele><time>2026-05-03T17:48:59Z</time></trkpt><trkpt lat="35.98568254501455" lon="-107.02432055802171"><ele>2117.0</ele><time>2026-05-03T17:49:01Z</time></trkpt><trkpt lat="35.985547468565144" lon="-107.02430687238854"><ele>2116.0</ele><time>2026-05-03T17:49:03Z</time></trkpt><trkpt lat="35.98544852254707" lon="-107.02431472304012"><ele>2115.0</ele><time>2026-05-03T17:49:04Z</time></trkpt><trkpt lat="35.98538281986416" lon="-107.02435112217852"><ele>2114.0</ele><time>2026-05-03T17:49:05Z</time></trkpt><trkpt lat="35.98532838288301" lon="-107.02443372373229"><ele>2114.0</ele><time>2026-05-03T17:49:06Z</time></trkpt><trkpt lat="35.98527283728419" lon="-107.02453086771393"><ele>2114.0</ele><time>2026-05-03T17:49:07Z</time></trkpt><trkpt lat="35.98519624029057" lon="-107.02463349552146"><ele>2114.0</ele><time>2026-05-03T17:49:08Z</time></trkpt><trkpt lat="35.985103856745745" lon="-107.02470059940366"><ele>2114.0</ele><time>2026-05-03T17:49:09Z</time></trkpt><trkpt lat="35.98504963131971" lon="-107.02475943245928"><ele>2114.0</ele><time>2026-05-03T17:49:10Z</time></trkpt><trkpt lat="35.98503370143126" lon="-107.02483717167316"><ele>2114.0</ele><time>2026-05-03T17:49:11Z</time></trkpt><trkpt lat="35.98503948808117" lon="-107.02494909214982"><ele>2114.0</ele><time>2026-05-03T17:49:12Z</time></trkpt><trkpt lat="35.985029635091465" lon="-107.02505720038067"><ele>2114.0</ele><time>2026-05-03T17:49:13Z</time></trkpt><trkpt lat="35.98498387369359" lon="-107.02515291145586"><ele>2114.0</ele><time>2026-05-03T17:49:14Z</time></trkpt><trkpt lat="35.98491876670886" lon="-107.02523886976016"><ele>2114.0</ele><time>2026-05-03T17:49:15Z</time></trkpt><trkpt lat="35.984857817358254" lon="-107.02530635888768"><ele>2114.0</ele><time>2026-05-03T17:49:16Z</time></trkpt><trkpt lat="35.98478954241011" lon="-107.02535777969055"><ele>2113.4</ele><time>2026-05-03T17:49:17Z</time></trkpt><trkpt lat="35.98471011137021" lon="-107.0253879778652"><ele>2112.8</ele><time>2026-05-03T17:49:18Z</time></trkpt><trkpt lat="35.98460039175031" lon="-107.02534847054356"><ele>2112.2</ele><time>2026-05-03T17:49:20Z</time></trkpt><trkpt lat="35.984482293282525" lon="-107.02532767556798"><ele>2111.6</ele><time>2026-05-03T17:49:21Z</time></trkpt><trkpt lat="35.98435486086479" lon="-107.02533928389796"><ele>2111.0</ele><time>2026-05-03T17:49:22Z</time></trkpt><trkpt lat="35.98426114157395" lon="-107.02535305064147"><ele>2112.0</ele><time>2026-05-03T17:49:23Z</time></trkpt><trkpt lat="35.98412865810875" lon="-107.02537040069338"><ele>2113.0</ele><time>2026-05-03T17:49:25Z</time></trkpt><trkpt lat="35.98404603658664" lon="-107.02540766661375"><ele>2114.0</ele><time>2026-05-03T17:49:26Z</time></trkpt><trkpt lat="35.983957780020944" lon="-107.02544368754936"><ele>2115.0</ele><time>2026-05-03T17:49:27Z</time></trkpt><trkpt lat="35.98388387674273" lon="-107.02550445949029"><ele>2116.0</ele><time>2026-05-03T17:49:28Z</time></trkpt><trkpt lat="35.98380241341179" lon="-107.02559022543417"><ele>2116.0</ele><time>2026-05-03T17:49:29Z</time></trkpt><trkpt lat="35.98373383559694" lon="-107.02564828773748"><ele>2116.0</ele><time>2026-05-03T17:49:30Z</time></trkpt><trkpt lat="35.9836561822095" lon="-107.02567422488873"><ele>2116.0</ele><time>2026-05-03T17:49:31Z</time></trkpt><trkpt lat="35.98353665834913" lon="-107.02569288421377"><ele>2116.0</ele><time>2026-05-03T17:49:32Z</time></trkpt><trkpt lat="35.98345056203914" lon="-107.02570078739427"><ele>2116.0</ele><time>2026-05-03T17:49:33Z</time></trkpt><trkpt lat="35.98335394319699" lon="-107.02566674409611"><ele>2116.0</ele><time>2026-05-03T17:49:35Z</time></trkpt><trkpt lat="35.983334782699124" lon="-107.02553583394798"><ele>2116.0</ele><time>2026-05-03T17:49:37Z</time></trkpt><trkpt lat="35.98335274974916" lon="-107.0254326402139"><ele>2116.0</ele><time>2026-05-03T17:49:38Z</time></trkpt><trkpt lat="35.98339443360876" lon="-107.02529591405474"><ele>2116.0</ele><time>2026-05-03T17:49:39Z</time></trkpt><trkpt lat="35.98343748182119" lon="-107.02518249055441"><ele>2116.0</ele><time>2026-05-03T17:49:40Z</time></trkpt><trkpt lat="35.983459065996016" lon="-107.02507495396922"><ele>2116.0</ele><time>2026-05-03T17:49:42Z</time></trkpt><trkpt lat="35.98335440020627" lon="-107.02503374342226"><ele>2116.0</ele><time>2026-05-03T17:49:44Z</time></trkpt><trkpt lat="35.98325973142509" lon="-107.02502817561835"><ele>2116.0</ele><time>2026-05-03T17:49:45Z</time></trkpt><trkpt lat="35.98317468196599" lon="-107.02504391093092"><ele>2116.0</ele><time>2026-05-03T17:49:46Z</time></trkpt><trkpt lat="35.983091665361584" lon="-107.02507840524339"><ele>2116.0</ele><time>2026-05-03T17:49:47Z</time></trkpt><trkpt lat="35.983022184736974" lon="-107.02511953823472"><ele>2115.0</ele><time>2026-05-03T17:49:48Z</time></trkpt><trkpt lat="35.982974426622825" lon="-107.02517064372324"><ele>2114.0</ele><time>2026-05-03T17:49:49Z</time></trkpt><trkpt lat="35.98292946355694" lon="-107.02525065841806"><ele>2113.0</ele><time>2026-05-03T17:49:50Z</time></trkpt><trkpt lat="35.982868398007845" lon="-107.02532735547244"><ele>2112.0</ele><time>2026-05-03T17:49:51Z</time></trkpt><trkpt lat="35.98282583865531" lon="-107.02538644458419"><ele>2111.0</ele><time>2026-05-03T17:49:52Z</time></trkpt><trkpt lat="35.98276433719524" lon="-107.02553318066514"><ele>2110.0</ele><time>2026-05-03T17:49:54Z</time></trkpt><trkpt lat="35.98271895047454" lon="-107.02558885120693"><ele>2110.0</ele><time>2026-05-03T17:49:55Z</time></trkpt><trkpt lat="35.98265119818777" lon="-107.02561983494925"><ele>2110.0</ele><time>2026-05-03T17:49:56Z</time></trkpt><trkpt lat="35.98255016439503" lon="-107.0256196092359"><ele>2110.0</ele><time>2026-05-03T17:49:57Z</time></trkpt><trkpt lat="35.98245249691476" lon="-107.02560516244849"><ele>2110.0</ele><time>2026-05-03T17:49:58Z</time></trkpt><trkpt lat="35.98237087389991" lon="-107.02558556395553"><ele>2110.0</ele><time>2026-05-03T17:49:59Z</time></trkpt><trkpt lat="35.982284561066685" lon="-107.02559398255723"><ele>2110.0</ele><time>2026-05-03T17:50:00Z</time></trkpt><trkpt lat="35.98221650709455" lon="-107.02559562990047"><ele>2109.8333333333335</ele><time>2026-05-03T17:50:01Z</time></trkpt><trkpt lat="35.98215250282309" lon="-107.02549872819408"><ele>2109.666666666667</ele><time>2026-05-03T17:50:03Z</time></trkpt><trkpt lat="35.982123164707204" lon="-107.02537477184596"><ele>2109.5</ele><time>2026-05-03T17:50:04Z</time></trkpt><trkpt lat="35.982106403676504" lon="-107.02528440226878"><ele>2109.3333333333335</ele><time>2026-05-03T17:50:05Z</time></trkpt><trkpt lat="35.98204555655573" lon="-107.02524562977077"><ele>2109.1666666666665</ele><time>2026-05-03T17:50:07Z</time></trkpt><trkpt lat="35.981973592944186" lon="-107.02526889347855"><ele>2109.0</ele><time>2026-05-03T17:50:08Z</time></trkpt><trkpt lat="35.981878350968685" lon="-107.025339343336"><ele>2109.0</ele><time>2026-05-03T17:50:09Z</time></trkpt><trkpt lat="35.98178380154461" lon="-107.02544381119166"><ele>2109.0</ele><time>2026-05-03T17:50:10Z</time></trkpt><trkpt lat="35.98169632376971" lon="-107.02556585387704"><ele>2109.0</ele><time>2026-05-03T17:50:11Z</time></trkpt><trkpt lat="35.9816267386465" lon="-107.02566730777376"><ele>2109.0</ele><time>2026-05-03T17:50:12Z</time></trkpt><trkpt lat="35.981573133600556" lon="-107.02574086054794"><ele>2109.0</ele><time>2026-05-03T17:50:13Z</time></trkpt><trkpt lat="35.9815157287527" lon="-107.02581380079296"><ele>2108.3333333333335</ele><time>2026-05-03T17:50:14Z</time></trkpt><trkpt lat="35.98147535897763" lon="-107.02588223460498"><ele>2107.6666666666665</ele><time>2026-05-03T17:50:16Z</time></trkpt><trkpt lat="35.9814369492426" lon="-107.02600549556074"><ele>2107.0</ele><time>2026-05-03T17:50:18Z</time></trkpt><trkpt lat="35.981392827765106" lon="-107.02607262293834"><ele>2106.333333333333</ele><time>2026-05-03T17:50:19Z</time></trkpt><trkpt lat="35.98132693305625" lon="-107.02613118448951"><ele>2105.6666666666665</ele><time>2026-05-03T17:50:20Z</time></trkpt><trkpt lat="35.98124718369038" lon="-107.02619751776618"><ele>2105.0</ele><time>2026-05-03T17:50:21Z</time></trkpt><trkpt lat="35.981178281970614" lon="-107.02627950291546"><ele>2105.0</ele><time>2026-05-03T17:50:22Z</time></trkpt><trkpt lat="35.98113453206357" lon="-107.0263391318368"><ele>2105.0</ele><time>2026-05-03T17:50:23Z</time></trkpt><trkpt lat="35.98107868761829" lon="-107.02639326000326"><ele>2105.0</ele><time>2026-05-03T17:50:25.001Z</time></trkpt><trkpt lat="35.98101739830878" lon="-107.02630840019161"><ele>2105.0</ele><time>2026-05-03T17:50:27.001Z</time></trkpt><trkpt lat="35.980957757654956" lon="-107.0262313145415"><ele>2105.0</ele><time>2026-05-03T17:50:28.001Z</time></trkpt><trkpt lat="35.98093586593223" lon="-107.02615774135688"><ele>2105.0</ele><time>2026-05-03T17:50:29.001Z</time></trkpt><trkpt lat="35.980937644121276" lon="-107.02603591719394"><ele>2105.0</ele><time>2026-05-03T17:50:30.001Z</time></trkpt><trkpt lat="35.980960500054195" lon="-107.02593721639444"><ele>2105.0</ele><time>2026-05-03T17:50:31.001Z</time></trkpt><trkpt lat="35.98100509681472" lon="-107.02586321399818"><ele>2105.0</ele><time>2026-05-03T17:50:32.001Z</time></trkpt><trkpt lat="35.981065894286836" lon="-107.02580910010168"><ele>2105.0</ele><time>2026-05-03T17:50:33.001Z</time></trkpt><trkpt lat="35.98109498446376" lon="-107.02573445532609"><ele>2105.0</ele><time>2026-05-03T17:50:34.001Z</time></trkpt><trkpt lat="35.98109147184116" lon="-107.02561260366268"><ele>2105.0</ele><time>2026-05-03T17:50:35.001Z</time></trkpt><trkpt lat="35.98105445431274" lon="-107.02546832575143"><ele>2105.75</ele><time>2026-05-03T17:50:36.001Z</time></trkpt><trkpt lat="35.98098309064726" lon="-107.0252864177655"><ele>2106.5</ele><time>2026-05-03T17:50:37.001Z</time></trkpt><trkpt lat="35.98092089077535" lon="-107.025138127488"><ele>2107.25</ele><time>2026-05-03T17:50:38.001Z</time></trkpt><trkpt lat="35.980900457074846" lon="-107.02502974511245"><ele>2108.0</ele><time>2026-05-03T17:50:39.001Z</time></trkpt><trkpt lat="35.98089983461978" lon="-107.02493323864186"><ele>2108.1666666666665</ele><time>2026-05-03T17:50:40.001Z</time></trkpt><trkpt lat="35.98091351985007" lon="-107.02484334189843"><ele>2108.333333333333</ele><time>2026-05-03T17:50:41.001Z</time></trkpt><trkpt lat="35.980952397223234" lon="-107.02473275655764"><ele>2108.5</ele><time>2026-05-03T17:50:42.001Z</time></trkpt><trkpt lat="35.9810050732221" lon="-107.02460513190351"><ele>2108.6666666666665</ele><time>2026-05-03T17:50:43.001Z</time></trkpt><trkpt lat="35.98104706758265" lon="-107.02450094580972"><ele>2108.8333333333335</ele><time>2026-05-03T17:50:44.001Z</time></trkpt><trkpt lat="35.981061748462" lon="-107.02442399241527"><ele>2109.0</ele><time>2026-05-03T17:50:45.001Z</time></trkpt><trkpt lat="35.981027252077524" lon="-107.02429843002055"><ele>2109.0</ele><time>2026-05-03T17:50:47.001Z</time></trkpt><trkpt lat="35.980957901065274" lon="-107.0242536764269"><ele>2109.0</ele><time>2026-05-03T17:50:48.001Z</time></trkpt><trkpt lat="35.98086444099759" lon="-107.02422289733667"><ele>2109.0</ele><time>2026-05-03T17:50:49.001Z</time></trkpt><trkpt lat="35.98078659732329" lon="-107.02420033638025"><ele>2109.0</ele><time>2026-05-03T17:50:50.001Z</time></trkpt><trkpt lat="35.98071448843476" lon="-107.0241638575487"><ele>2109.0</ele><time>2026-05-03T17:50:51.001Z</time></trkpt><trkpt lat="35.9806651885691" lon="-107.02410171875786"><ele>2109.0</ele><time>2026-05-03T17:50:52.001Z</time></trkpt><trkpt lat="35.98064738216758" lon="-107.02402291110424"><ele>2107.75</ele><time>2026-05-03T17:50:54.001Z</time></trkpt><trkpt lat="35.98069927308095" lon="-107.02388257403763"><ele>2106.5</ele><time>2026-05-03T17:50:56.001Z</time></trkpt><trkpt lat="35.98073190268331" lon="-107.02377464132147"><ele>2105.25</ele><time>2026-05-03T17:50:57.001Z</time></trkpt><trkpt lat="35.98078288874421" lon="-107.02364453873125"><ele>2104.0</ele><time>2026-05-03T17:50:58.001Z</time></trkpt><trkpt lat="35.98083956890273" lon="-107.02349896240331"><ele>2104.5</ele><time>2026-05-03T17:50:59.001Z</time></trkpt><trkpt lat="35.98088676977241" lon="-107.0234023676405"><ele>2105.0</ele><time>2026-05-03T17:51:00.001Z</time></trkpt><trkpt lat="35.98101469686772" lon="-107.02334000251567"><ele>2105.5</ele><time>2026-05-03T17:51:02.001Z</time></trkpt><trkpt lat="35.98113539585329" lon="-107.02333724691964"><ele>2106.0</ele><time>2026-05-03T17:51:03.001Z</time></trkpt><trkpt lat="35.981253543710146" lon="-107.02331031474675"><ele>2106.6</ele><time>2026-05-03T17:51:04Z</time></trkpt><trkpt lat="35.98134161882989" lon="-107.02327936589903"><ele>2107.2</ele><time>2026-05-03T17:51:05Z</time></trkpt><trkpt lat="35.98145993889606" lon="-107.02324280418163"><ele>2107.8</ele><time>2026-05-03T17:51:07Z</time></trkpt><trkpt lat="35.98152493338962" lon="-107.02319567210266"><ele>2108.4</ele><time>2026-05-03T17:51:08Z</time></trkpt><trkpt lat="35.98163770716979" lon="-107.02308763118563"><ele>2109.0</ele><time>2026-05-03T17:51:10Z</time></trkpt><trkpt lat="35.981695123705435" lon="-107.02303851768339"><ele>2109.0</ele><time>2026-05-03T17:51:11Z</time></trkpt><trkpt lat="35.98174951042904" lon="-107.02299419988543"><ele>2109.0</ele><time>2026-05-03T17:51:12Z</time></trkpt><trkpt lat="35.98181549943003" lon="-107.02294523476198"><ele>2109.0</ele><time>2026-05-03T17:51:13Z</time></trkpt><trkpt lat="35.981871977950455" lon="-107.02290169357266"><ele>2109.0</ele><time>2026-05-03T17:51:14Z</time></trkpt><trkpt lat="35.98188433932556" lon="-107.0228137828991"><ele>2109.0</ele><time>2026-05-03T17:51:16Z</time></trkpt><trkpt lat="35.981848798528716" lon="-107.02271129060207"><ele>2109.0</ele><time>2026-05-03T17:51:17Z</time></trkpt><trkpt lat="35.98178408106486" lon="-107.02258504592729"><ele>2109.0</ele><time>2026-05-03T17:51:18Z</time></trkpt><trkpt lat="35.98174265558957" lon="-107.02248880744946"><ele>2109.0</ele><time>2026-05-03T17:51:19Z</time></trkpt><trkpt lat="35.981723408191186" lon="-107.0224015913824"><ele>2109.0</ele><time>2026-05-03T17:51:21Z</time></trkpt><trkpt lat="35.981635805242924" lon="-107.02244414025543"><ele>2109.0</ele><time>2026-05-03T17:51:25Z</time></trkpt><trkpt lat="35.98153917265397" lon="-107.02253369367754"><ele>2109.0</ele><time>2026-05-03T17:51:26Z</time></trkpt><trkpt lat="35.981466988809984" lon="-107.02261183303115"><ele>2109.0</ele><time>2026-05-03T17:51:27Z</time></trkpt><trkpt lat="35.98138922316406" lon="-107.02268034257239"><ele>2109.0</ele><time>2026-05-03T17:51:28Z</time></trkpt><trkpt lat="35.981291515112446" lon="-107.02275009237734"><ele>2109.0</ele><time>2026-05-03T17:51:29Z</time></trkpt><trkpt lat="35.98120675823475" lon="-107.02280963075918"><ele>2109.0</ele><time>2026-05-03T17:51:30Z</time></trkpt><trkpt lat="35.981100629157766" lon="-107.02287676414159"><ele>2109.0</ele><time>2026-05-03T17:51:31Z</time></trkpt><trkpt lat="35.98099876476179" lon="-107.02293780956511"><ele>2109.0</ele><time>2026-05-03T17:51:32Z</time></trkpt><trkpt lat="35.98091361793611" lon="-107.023005360158"><ele>2109.0</ele><time>2026-05-03T17:51:33Z</time></trkpt><trkpt lat="35.980844798166096" lon="-107.02307991270716"><ele>2109.0</ele><time>2026-05-03T17:51:34Z</time></trkpt><trkpt lat="35.98077508384894" lon="-107.02316163771103"><ele>2109.0</ele><time>2026-05-03T17:51:35Z</time></trkpt><trkpt lat="35.98070019998553" lon="-107.0232305170185"><ele>2109.0</ele><time>2026-05-03T17:51:36Z</time></trkpt><trkpt lat="35.98063176713792" lon="-107.02328878664237"><ele>2108.1666666666665</ele><time>2026-05-03T17:51:37Z</time></trkpt><trkpt lat="35.9805710071748" lon="-107.0233221549258"><ele>2107.3333333333335</ele><time>2026-05-03T17:51:38Z</time></trkpt><trkpt lat="35.980489160665336" lon="-107.02334117128856"><ele>2106.5</ele><time>2026-05-03T17:51:39Z</time></trkpt><trkpt lat="35.98039901902373" lon="-107.02336162858182"><ele>2105.666666666667</ele><time>2026-05-03T17:51:40Z</time></trkpt><trkpt lat="35.98031312881161" lon="-107.02339233734773"><ele>2104.8333333333335</ele><time>2026-05-03T17:51:41Z</time></trkpt><trkpt lat="35.98023476193148" lon="-107.02343996013312"><ele>2104.0</ele><time>2026-05-03T17:51:42Z</time></trkpt><trkpt lat="35.980167012917306" lon="-107.02349541611773"><ele>2104.0</ele><time>2026-05-03T17:51:43Z</time></trkpt><trkpt lat="35.98011116465033" lon="-107.02356443522116"><ele>2104.0</ele><time>2026-05-03T17:51:44Z</time></trkpt><trkpt lat="35.980075029954065" lon="-107.02364804041423"><ele>2104.0</ele><time>2026-05-03T17:51:45Z</time></trkpt><trkpt lat="35.98005625022221" lon="-107.0237257982002"><ele>2104.0</ele><time>2026-05-03T17:51:46Z</time></trkpt><trkpt lat="35.98010973756914" lon="-107.02382224176188"><ele>2104.0</ele><time>2026-05-03T17:51:47Z</time></trkpt><trkpt lat="35.980086096884946" lon="-107.02391459838621"><ele>2104.0</ele><time>2026-05-03T17:51:48Z</time></trkpt><trkpt lat="35.980071380421144" lon="-107.02403356498013"><ele>2104.0</ele><time>2026-05-03T17:51:49Z</time></trkpt><trkpt lat="35.98007748763019" lon="-107.02413559043907"><ele>2104.0</ele><time>2026-05-03T17:51:50Z</time></trkpt><trkpt lat="35.980065327375115" lon="-107.02421417613634"><ele>2104.0</ele><time>2026-05-03T17:51:51Z</time></trkpt><trkpt lat="35.980046326072916" lon="-107.0243404298593"><ele>2104.0</ele><time>2026-05-03T17:51:52Z</time></trkpt><trkpt lat="35.980055887502715" lon="-107.02445725074486"><ele>2104.0</ele><time>2026-05-03T17:51:53Z</time></trkpt><trkpt lat="35.98006655050893" lon="-107.02456524315564"><ele>2104.0</ele><time>2026-05-03T17:51:54Z</time></trkpt><trkpt lat="35.98005842680431" lon="-107.02465891424437"><ele>2104.0</ele><time>2026-05-03T17:51:55Z</time></trkpt><trkpt lat="35.9800465924288" lon="-107.02474454669648"><ele>2104.0</ele><time>2026-05-03T17:51:56Z</time></trkpt><trkpt lat="35.97995999684215" lon="-107.02484288125599"><ele>2104.0</ele><time>2026-05-03T17:51:58Z</time></trkpt><trkpt lat="35.97985277784974" lon="-107.0248864792706"><ele>2104.0</ele><time>2026-05-03T17:51:59Z</time></trkpt><trkpt lat="35.97978074064012" lon="-107.02493394125126"><ele>2104.0</ele><time>2026-05-03T17:52:00Z</time></trkpt><trkpt lat="35.979705713429176" lon="-107.0250293629786"><ele>2103.166666666667</ele><time>2026-05-03T17:52:02Z</time></trkpt><trkpt lat="35.97960916462832" lon="-107.02503309371878"><ele>2102.3333333333335</ele><time>2026-05-03T17:52:06Z</time></trkpt><trkpt lat="35.97954500949194" lon="-107.02500624956471"><ele>2101.5</ele><time>2026-05-03T17:52:07Z</time></trkpt><trkpt lat="35.979528784701444" lon="-107.02508240240772"><ele>2100.6666666666665</ele><time>2026-05-03T17:52:09Z</time></trkpt><trkpt lat="35.9794177313211" lon="-107.0251127294421"><ele>2099.833333333333</ele><time>2026-05-03T17:52:12Z</time></trkpt><trkpt lat="35.9793436061378" lon="-107.02520789995702"><ele>2099.0</ele><time>2026-05-03T17:52:15Z</time></trkpt><trkpt lat="35.979297967480996" lon="-107.02526286960735"><ele>2099.0</ele><time>2026-05-03T17:52:16Z</time></trkpt><trkpt lat="35.979237020436315" lon="-107.02530797160148"><ele>2099.0</ele><time>2026-05-03T17:52:17Z</time></trkpt><trkpt lat="35.979171605952565" lon="-107.02534327763527"><ele>2099.0</ele><time>2026-05-03T17:52:18Z</time></trkpt><trkpt lat="35.97911032240339" lon="-107.02537685929019"><ele>2099.0</ele><time>2026-05-03T17:52:19Z</time></trkpt><trkpt lat="35.97904979822531" lon="-107.02540782096207"><ele>2099.0</ele><time>2026-05-03T17:52:20Z</time></trkpt><trkpt lat="35.978989662873495" lon="-107.02547248212598"><ele>2099.0</ele><time>2026-05-03T17:52:22Z</time></trkpt><trkpt lat="35.97892124906067" lon="-107.02560125455132"><ele>2098.833333333333</ele><time>2026-05-03T17:52:24Z</time></trkpt><trkpt lat="35.97889379944629" lon="-107.0256908367256"><ele>2098.6666666666665</ele><time>2026-05-03T17:52:25Z</time></trkpt><trkpt lat="35.97886761766402" lon="-107.02577071766463"><ele>2098.5</ele><time>2026-05-03T17:52:26Z</time></trkpt><trkpt lat="35.97883355192445" lon="-107.02588989524274"><ele>2098.3333333333335</ele><time>2026-05-03T17:52:28Z</time></trkpt><trkpt lat="35.97874717925155" lon="-107.02599016541484"><ele>2098.166666666667</ele><time>2026-05-03T17:52:30Z</time></trkpt><trkpt lat="35.97868721306879" lon="-107.0260211375796"><ele>2098.0</ele><time>2026-05-03T17:52:31Z</time></trkpt><trkpt lat="35.978596156319455" lon="-107.02613806662151"><ele>2098.0</ele><time>2026-05-03T17:52:33Z</time></trkpt><trkpt lat="35.97855285183807" lon="-107.02622728057977"><ele>2098.0</ele><time>2026-05-03T17:52:34.001Z</time></trkpt><trkpt lat="35.978458354753364" lon="-107.02633607797637"><ele>2098.0</ele><time>2026-05-03T17:52:36.001Z</time></trkpt><trkpt lat="35.97837525261094" lon="-107.02638583572268"><ele>2098.0</ele><time>2026-05-03T17:52:37.001Z</time></trkpt><trkpt lat="35.97826695968552" lon="-107.02645134586216"><ele>2098.0</ele><time>2026-05-03T17:52:39.001Z</time></trkpt><trkpt lat="35.97821645521481" lon="-107.02650447770097"><ele>2098.2000000000003</ele><time>2026-05-03T17:52:40.001Z</time></trkpt><trkpt lat="35.978132384523555" lon="-107.02658977425311"><ele>2098.4</ele><time>2026-05-03T17:52:42.001Z</time></trkpt><trkpt lat="35.978062376229346" lon="-107.02662874651709"><ele>2098.6000000000004</ele><time>2026-05-03T17:52:43.001Z</time></trkpt><trkpt lat="35.97800790705763" lon="-107.02666861542565"><ele>2098.8</ele><time>2026-05-03T17:52:44.001Z</time></trkpt><trkpt lat="35.97794461074974" lon="-107.02671828246532"><ele>2099.0</ele><time>2026-05-03T17:52:46.001Z</time></trkpt><trkpt lat="35.97804708340693" lon="-107.02681677621851"><ele>2098.6</ele><time>2026-05-03T17:52:50.001Z</time></trkpt><trkpt lat="35.97811671287277" lon="-107.02687296273348"><ele>2098.2</ele><time>2026-05-03T17:52:52.001Z</time></trkpt><trkpt lat="35.978119450748345" lon="-107.02700436023981"><ele>2097.7999999999997</ele><time>2026-05-03T17:52:55.001Z</time></trkpt><trkpt lat="35.9780992449329" lon="-107.02712711886227"><ele>2097.4</ele><time>2026-05-03T17:52:57.001Z</time></trkpt><trkpt lat="35.978031389354186" lon="-107.02719764029617"><ele>2097.0</ele><time>2026-05-03T17:52:58.001Z</time></trkpt><trkpt lat="35.9779661617417" lon="-107.02725001197147"><ele>2097.0</ele><time>2026-05-03T17:52:59.001Z</time></trkpt><trkpt lat="35.977881873014375" lon="-107.02728786054169"><ele>2097.0</ele><time>2026-05-03T17:53:00.001Z</time></trkpt><trkpt lat="35.977783079290525" lon="-107.0273643723071"><ele>2097.0</ele><time>2026-05-03T17:53:02.001Z</time></trkpt><trkpt lat="35.977719784647675" lon="-107.02739391672183"><ele>2097.0</ele><time>2026-05-03T17:53:03.001Z</time></trkpt><trkpt lat="35.977657943286445" lon="-107.02741565888948"><ele>2097.0</ele><time>2026-05-03T17:53:04.001Z</time></trkpt><trkpt lat="35.9775706129598" lon="-107.02738771091406"><ele>2097.0</ele><time>2026-05-03T17:53:06.001Z</time></trkpt><trkpt lat="35.977526205861395" lon="-107.02732230352898"><ele>2097.4</ele><time>2026-05-03T17:53:08.001Z</time></trkpt><trkpt lat="35.97750010624667" lon="-107.02725089436113"><ele>2097.7999999999997</ele><time>2026-05-03T17:53:10Z</time></trkpt><trkpt lat="35.97741289336498" lon="-107.02722154419908"><ele>2098.2</ele><time>2026-05-03T17:53:12Z</time></trkpt><trkpt lat="35.97727890424279" lon="-107.0272070390996"><ele>2098.6</ele><time>2026-05-03T17:53:13Z</time></trkpt><trkpt lat="35.977201537413386" lon="-107.02717350612711"><ele>2099.0</ele><time>2026-05-03T17:53:14Z</time></trkpt><trkpt lat="35.97710547768067" lon="-107.02713834352248"><ele>2099.0</ele><time>2026-05-03T17:53:16Z</time></trkpt><trkpt lat="35.97703697485524" lon="-107.02725302299704"><ele>2099.0</ele><time>2026-05-03T17:53:18Z</time></trkpt><trkpt lat="35.97697071885286" lon="-107.02726354370112"><ele>2099.0</ele><time>2026-05-03T17:53:20Z</time></trkpt><trkpt lat="35.97679385061054" lon="-107.0271453875647"><ele>2099.0</ele><time>2026-05-03T17:53:23Z</time></trkpt><trkpt lat="35.976675556803" lon="-107.02711210042166"><ele>2098.0</ele><time>2026-05-03T17:53:25Z</time></trkpt><trkpt lat="35.976548050076545" lon="-107.0271088848311"><ele>2097.0</ele><time>2026-05-03T17:53:27Z</time></trkpt><trkpt lat="35.97644184415504" lon="-107.02715599407374"><ele>2096.0</ele><time>2026-05-03T17:53:29Z</time></trkpt><trkpt lat="35.976376308423106" lon="-107.02722497504155"><ele>2095.0</ele><time>2026-05-03T17:53:31Z</time></trkpt><trkpt lat="35.976354411619454" lon="-107.02729803628473"><ele>2094.0</ele><time>2026-05-03T17:53:32Z</time></trkpt><trkpt lat="35.97634875333692" lon="-107.02741139692274"><ele>2094.1666666666665</ele><time>2026-05-03T17:53:33Z</time></trkpt><trkpt lat="35.97633910612113" lon="-107.02750908842368"><ele>2094.3333333333335</ele><time>2026-05-03T17:53:34Z</time></trkpt><trkpt lat="35.97632465695352" lon="-107.02761445176304"><ele>2094.5</ele><time>2026-05-03T17:53:35Z</time></trkpt><trkpt lat="35.97631187940372" lon="-107.02772416657363"><ele>2094.666666666667</ele><time>2026-05-03T17:53:36Z</time></trkpt><trkpt lat="35.97630661879741" lon="-107.02780715995367"><ele>2094.8333333333335</ele><time>2026-05-03T17:53:37Z</time></trkpt><trkpt lat="35.97627847779408" lon="-107.0279035183387"><ele>2095.0</ele><time>2026-05-03T17:53:39Z</time></trkpt><trkpt lat="35.97606774480376" lon="-107.0279214028914"><ele>2095.0</ele><time>2026-05-03T17:53:41Z</time></trkpt><trkpt lat="35.97600274114736" lon="-107.02795346238713"><ele>2095.0</ele><time>2026-05-03T17:53:42Z</time></trkpt><trkpt lat="35.97587690539609" lon="-107.02790594280697"><ele>2095.0</ele><time>2026-05-03T17:53:45Z</time></trkpt><trkpt lat="35.9757878959633" lon="-107.02789436813474"><ele>2095.0</ele><time>2026-05-03T17:53:47Z</time></trkpt><trkpt lat="35.97574812903683" lon="-107.02801292507377"><ele>2095.0</ele><time>2026-05-03T17:53:49Z</time></trkpt><trkpt lat="35.97574535698607" lon="-107.0281327301161"><ele>2094.5</ele><time>2026-05-03T17:53:50Z</time></trkpt><trkpt lat="35.9757622762721" lon="-107.02824603109897"><ele>2094.0</ele><time>2026-05-03T17:53:52Z</time></trkpt><trkpt lat="35.9756893703441" lon="-107.02828562269042"><ele>2093.5</ele><time>2026-05-03T17:53:54Z</time></trkpt><trkpt lat="35.97561592121946" lon="-107.0283674838704"><ele>2093.0</ele><time>2026-05-03T17:53:56Z</time></trkpt><trkpt lat="35.97560084871773" lon="-107.02846124760748"><ele>2092.5</ele><time>2026-05-03T17:53:58Z</time></trkpt><trkpt lat="35.97559412265639" lon="-107.02857804583711"><ele>2092.0</ele><time>2026-05-03T17:53:59Z</time></trkpt><trkpt lat="35.97556322777011" lon="-107.02869404456459"><ele>2091.666666666667</ele><time>2026-05-03T17:54:00Z</time></trkpt><trkpt lat="35.97552898328479" lon="-107.02877093047397"><ele>2091.3333333333335</ele><time>2026-05-03T17:54:01Z</time></trkpt><trkpt lat="35.97548666713779" lon="-107.0288844928986"><ele>2091.0</ele><time>2026-05-03T17:54:03Z</time></trkpt><trkpt lat="35.975410556256676" lon="-107.02888740203039"><ele>2090.6666666666665</ele><time>2026-05-03T17:54:06Z</time></trkpt><trkpt lat="35.97530191494678" lon="-107.02897785010731"><ele>2090.333333333333</ele><time>2026-05-03T17:54:07Z</time></trkpt><trkpt lat="35.97523399750271" lon="-107.02899115106277"><ele>2090.0</ele><time>2026-05-03T17:54:08Z</time></trkpt><trkpt lat="35.97516784586412" lon="-107.02899906610249"><ele>2090.0</ele><time>2026-05-03T17:54:09Z</time></trkpt><trkpt lat="35.97502167090793" lon="-107.02895715223563"><ele>2090.0</ele><time>2026-05-03T17:54:11Z</time></trkpt><trkpt lat="35.974917250812815" lon="-107.02893503533292"><ele>2090.0</ele><time>2026-05-03T17:54:12Z</time></trkpt><trkpt lat="35.97481952881102" lon="-107.02892138552252"><ele>2090.0</ele><time>2026-05-03T17:54:13Z</time></trkpt><trkpt lat="35.97473600439692" lon="-107.02890858906851"><ele>2090.0</ele><time>2026-05-03T17:54:14Z</time></trkpt><trkpt lat="35.97467230186355" lon="-107.0288943030482"><ele>2089.8</ele><time>2026-05-03T17:54:15Z</time></trkpt><trkpt lat="35.97460437218308" lon="-107.0288750466034"><ele>2089.6</ele><time>2026-05-03T17:54:16Z</time></trkpt><trkpt lat="35.97453233693185" lon="-107.02884837662464"><ele>2089.4</ele><time>2026-05-03T17:54:17Z</time></trkpt><trkpt lat="35.974457061194514" lon="-107.02880252084218"><ele>2089.2</ele><time>2026-05-03T17:54:18Z</time></trkpt><trkpt lat="35.97435267334963" lon="-107.0287452769243"><ele>2089.0</ele><time>2026-05-03T17:54:19Z</time></trkpt><trkpt lat="35.974255857938864" lon="-107.02868881754827"><ele>2088.4</ele><time>2026-05-03T17:54:20Z</time></trkpt><trkpt lat="35.97417191787275" lon="-107.02866444874968"><ele>2087.8</ele><time>2026-05-03T17:54:21Z</time></trkpt><trkpt lat="35.974097007191695" lon="-107.02864497533807"><ele>2087.2</ele><time>2026-05-03T17:54:22Z</time></trkpt><trkpt lat="35.97402928309346" lon="-107.02862954727989"><ele>2086.6</ele><time>2026-05-03T17:54:23Z</time></trkpt><trkpt lat="35.973908217542835" lon="-107.02868256371586"><ele>2086.0</ele><time>2026-05-03T17:54:25Z</time></trkpt><trkpt lat="35.973829841645866" lon="-107.02875296701806"><ele>2086.0</ele><time>2026-05-03T17:54:27Z</time></trkpt><trkpt lat="35.97374320188493" lon="-107.02874061326214"><ele>2086.0</ele><time>2026-05-03T17:54:28Z</time></trkpt><trkpt lat="35.97364474014639" lon="-107.02873245396655"><ele>2086.0</ele><time>2026-05-03T17:54:29Z</time></trkpt><trkpt lat="35.97356515216867" lon="-107.02872155808265"><ele>2086.0</ele><time>2026-05-03T17:54:30Z</time></trkpt><trkpt lat="35.97349391876998" lon="-107.0287727167813"><ele>2086.0</ele><time>2026-05-03T17:54:32Z</time></trkpt><trkpt lat="35.973474810704985" lon="-107.02884767582373"><ele>2086.0</ele><time>2026-05-03T17:54:33Z</time></trkpt><trkpt lat="35.9734781222271" lon="-107.02894341691669"><ele>2086.0</ele><time>2026-05-03T17:54:34Z</time></trkpt><trkpt lat="35.97349598190099" lon="-107.02902242744848"><ele>2086.0</ele><time>2026-05-03T17:54:35Z</time></trkpt><trkpt lat="35.9735232359623" lon="-107.0291656409164"><ele>2086.0</ele><time>2026-05-03T17:54:37Z</time></trkpt><trkpt lat="35.97342462857073" lon="-107.02917564788005"><ele>2086.0</ele><time>2026-05-03T17:54:38Z</time></trkpt><trkpt lat="35.97347266346634" lon="-107.02927152426886"><ele>2086.0</ele><time>2026-05-03T17:54:39Z</time></trkpt><trkpt lat="35.97355406902716" lon="-107.02938740985412"><ele>2086.75</ele><time>2026-05-03T17:54:41.001Z</time></trkpt><trkpt lat="35.973593022706325" lon="-107.02946029983426"><ele>2087.5</ele><time>2026-05-03T17:54:42.001Z</time></trkpt><trkpt lat="35.97369602754618" lon="-107.02960139738207"><ele>2088.25</ele><time>2026-05-03T17:54:43.001Z</time></trkpt><trkpt lat="35.973727856013625" lon="-107.02976683989495"><ele>2089.0</ele><time>2026-05-03T17:54:45.001Z</time></trkpt><trkpt lat="35.973759237791825" lon="-107.02988125575911"><ele>2089.4</ele><time>2026-05-03T17:54:46.001Z</time></trkpt><trkpt lat="35.973792447017054" lon="-107.0299890570911"><ele>2089.8</ele><time>2026-05-03T17:54:47.001Z</time></trkpt><trkpt lat="35.9738571860253" lon="-107.03007534312339"><ele>2090.2</ele><time>2026-05-03T17:54:49.001Z</time></trkpt><trkpt lat="35.97395728161791" lon="-107.03014122807203"><ele>2090.6</ele><time>2026-05-03T17:54:51.001Z</time></trkpt><trkpt lat="35.97400623208542" lon="-107.03019646523605"><ele>2091.0</ele><time>2026-05-03T17:54:52.001Z</time></trkpt><trkpt lat="35.97404580868501" lon="-107.03029656663236"><ele>2091.0</ele><time>2026-05-03T17:54:54.001Z</time></trkpt><trkpt lat="35.97404768718198" lon="-107.03043622688507"><ele>2091.0</ele><time>2026-05-03T17:54:56.001Z</time></trkpt><trkpt lat="35.974050406458616" lon="-107.03056057700437"><ele>2091.0</ele><time>2026-05-03T17:54:58.001Z</time></trkpt><trkpt lat="35.974054800379804" lon="-107.03064702393195"><ele>2091.0</ele><time>2026-05-03T17:55:00.001Z</time></trkpt><trkpt lat="35.97405143387338" lon="-107.03074027002704"><ele>2091.0</ele><time>2026-05-03T17:55:02.001Z</time></trkpt><trkpt lat="35.974067543966044" lon="-107.03087493319823"><ele>2090.8333333333335</ele><time>2026-05-03T17:55:04.001Z</time></trkpt><trkpt lat="35.974097067666115" lon="-107.03098567582694"><ele>2090.6666666666665</ele><time>2026-05-03T17:55:06.001Z</time></trkpt><trkpt lat="35.97411308957924" lon="-107.03110018875894"><ele>2090.5</ele><time>2026-05-03T17:55:08.001Z</time></trkpt><trkpt lat="35.974109872457106" lon="-107.03123920767084"><ele>2090.333333333333</ele><time>2026-05-03T17:55:10.001Z</time></trkpt><trkpt lat="35.974110830082395" lon="-107.03132226895931"><ele>2090.1666666666665</ele><time>2026-05-03T17:55:11.001Z</time></trkpt><trkpt lat="35.97409387011717" lon="-107.03140666910717"><ele>2090.0</ele><time>2026-05-03T17:55:12.001Z</time></trkpt><trkpt lat="35.97407627627534" lon="-107.03148990673927"><ele>2090.0</ele><time>2026-05-03T17:55:13.001Z</time></trkpt><trkpt lat="35.97405981484919" lon="-107.03157174232464"><ele>2090.0</ele><time>2026-05-03T17:55:14.001Z</time></trkpt><trkpt lat="35.974032565460924" lon="-107.03168050483968"><ele>2090.0</ele><time>2026-05-03T17:55:16Z</time></trkpt><trkpt lat="35.97396457467138" lon="-107.03174412137815"><ele>2090.0</ele><time>2026-05-03T17:55:19Z</time></trkpt><trkpt lat="35.97409946499512" lon="-107.03181550790251"><ele>2090.0</ele><time>2026-05-03T17:55:37Z</time></trkpt><trkpt lat="35.97420105315604" lon="-107.03179460037742"><ele>2089.833333333333</ele><time>2026-05-03T17:55:39Z</time></trkpt><trkpt lat="35.974276193296035" lon="-107.03178246585952"><ele>2089.6666666666665</ele><time>2026-05-03T17:55:40Z</time></trkpt><trkpt lat="35.97437053320021" lon="-107.03176448199602"><ele>2089.5</ele><time>2026-05-03T17:55:41Z</time></trkpt><trkpt lat="35.97446362251141" lon="-107.0317519758843"><ele>2089.3333333333335</ele><time>2026-05-03T17:55:42Z</time></trkpt><trkpt lat="35.974539654760086" lon="-107.03174549437199"><ele>2089.166666666667</ele><time>2026-05-03T17:55:43Z</time></trkpt><trkpt lat="35.97460816936514" lon="-107.03175333924467"><ele>2089.0</ele><time>2026-05-03T17:55:44Z</time></trkpt><trkpt lat="35.97468734875474" lon="-107.03178542562789"><ele>2089.0</ele><time>2026-05-03T17:55:45Z</time></trkpt><trkpt lat="35.97477973586388" lon="-107.03183396365503"><ele>2089.0</ele><time>2026-05-03T17:55:46Z</time></trkpt><trkpt lat="35.974850411066136" lon="-107.03188264854457"><ele>2089.0</ele><time>2026-05-03T17:55:47Z</time></trkpt><trkpt lat="35.974939198813715" lon="-107.03196609134164"><ele>2089.0</ele><time>2026-05-03T17:55:49Z</time></trkpt><trkpt lat="35.975112428096914" lon="-107.03197846626384"><ele>2091.0</ele><time>2026-05-03T17:55:53Z</time></trkpt><trkpt lat="35.97517855710005" lon="-107.03199833750078"><ele>2091.0</ele><time>2026-05-03T17:55:54Z</time></trkpt><trkpt lat="35.975255213419565" lon="-107.03193703382611"><ele>2091.0</ele><time>2026-05-03T17:55:57Z</time></trkpt><trkpt lat="35.975269536311956" lon="-107.03181066286805"><ele>2091.0</ele><time>2026-05-03T17:57:28Z</time></trkpt></trkseg></trk></gpx>